<?xml version="1.0" encoding="UTF-8" standalone="no" ?>
<gpx xmlns="http://www.topografix.com/GPX/1/1" xmlns:xsi="http://www.w3.org/2001/XMLSchema-instance" xsi:schemaLocation="http://www.topografix.com/GPX/1/1 http://www.topografix.com/GPX/1/1/gpx.xsd" version="1.1" creator="VisuGPX - https://www.visugpx.com">
  <metadata>
    <name>Sortie Vélo-RSGD</name>
    <desc><![CDATA[Organisé par Michel Nicolet (relevé de Pierre), superbe sortie physique et chaude !]]></desc>
  </metadata>
  <wpt lat="47.08435" lon="5.47724">
    <ele>238</ele>
  </wpt>
  <trk>
    <name><![CDATA[Sortie Vélo-RSGD_1]]></name>
    <trkseg>
      <trkpt lat="47.08421" lon="5.47706">
        <ele>238</ele>
        <time>2013-07-12T11:22:16Z</time>
      </trkpt>
      <trkpt lat="47.08432" lon="5.47718">
        <ele>238</ele>
        <time>2013-07-12T11:22:22Z</time>
      </trkpt>
      <trkpt lat="47.08441" lon="5.4774">
        <ele>238</ele>
        <time>2013-07-12T11:22:24Z</time>
      </trkpt>
      <trkpt lat="47.08445" lon="5.47752">
        <ele>246</ele>
        <time>2013-07-12T11:22:25Z</time>
      </trkpt>
      <trkpt lat="47.08449" lon="5.47765">
        <ele>246</ele>
        <time>2013-07-12T11:22:26Z</time>
      </trkpt>
      <trkpt lat="47.0845" lon="5.47785">
        <ele>254</ele>
        <time>2013-07-12T11:22:28Z</time>
      </trkpt>
      <trkpt lat="47.08452" lon="5.4781">
        <ele>260</ele>
        <time>2013-07-12T11:22:30Z</time>
      </trkpt>
      <trkpt lat="47.08455" lon="5.47826">
        <ele>260</ele>
        <time>2013-07-12T11:22:31Z</time>
      </trkpt>
      <trkpt lat="47.08458" lon="5.47842">
        <ele>267</ele>
        <time>2013-07-12T11:22:32Z</time>
      </trkpt>
      <trkpt lat="47.0846" lon="5.47856">
        <ele>267</ele>
        <time>2013-07-12T11:22:33Z</time>
      </trkpt>
      <trkpt lat="47.08464" lon="5.47873">
        <ele>274</ele>
        <time>2013-07-12T11:22:34Z</time>
      </trkpt>
      <trkpt lat="47.08468" lon="5.4789">
        <ele>274</ele>
        <time>2013-07-12T11:22:35Z</time>
      </trkpt>
      <trkpt lat="47.08471" lon="5.47903">
        <ele>274</ele>
        <time>2013-07-12T11:22:36Z</time>
      </trkpt>
      <trkpt lat="47.08475" lon="5.47924">
        <ele>274</ele>
        <time>2013-07-12T11:22:38Z</time>
      </trkpt>
      <trkpt lat="47.08478" lon="5.47946">
        <ele>274</ele>
        <time>2013-07-12T11:22:40Z</time>
      </trkpt>
      <trkpt lat="47.08483" lon="5.47971">
        <ele>274</ele>
        <time>2013-07-12T11:22:42Z</time>
      </trkpt>
      <trkpt lat="47.08487" lon="5.47996">
        <ele>280</ele>
        <time>2013-07-12T11:22:44Z</time>
      </trkpt>
      <trkpt lat="47.0849" lon="5.48008">
        <ele>280</ele>
        <time>2013-07-12T11:22:45Z</time>
      </trkpt>
      <trkpt lat="47.08494" lon="5.48023">
        <ele>287</ele>
        <time>2013-07-12T11:22:46Z</time>
      </trkpt>
      <trkpt lat="47.08497" lon="5.48035">
        <ele>287</ele>
        <time>2013-07-12T11:22:47Z</time>
      </trkpt>
      <trkpt lat="47.085" lon="5.48055">
        <ele>287</ele>
        <time>2013-07-12T11:22:49Z</time>
      </trkpt>
      <trkpt lat="47.085" lon="5.48074">
        <ele>287</ele>
        <time>2013-07-12T11:22:51Z</time>
      </trkpt>
      <trkpt lat="47.08498" lon="5.48094">
        <ele>287</ele>
        <time>2013-07-12T11:22:53Z</time>
      </trkpt>
      <trkpt lat="47.08497" lon="5.48113">
        <ele>287</ele>
        <time>2013-07-12T11:22:55Z</time>
      </trkpt>
      <trkpt lat="47.08499" lon="5.48133">
        <ele>300</ele>
        <time>2013-07-12T11:22:57Z</time>
      </trkpt>
      <trkpt lat="47.08489" lon="5.48142">
        <ele>295</ele>
        <time>2013-07-12T11:23:00Z</time>
      </trkpt>
      <trkpt lat="47.08479" lon="5.48139">
        <ele>284</ele>
        <time>2013-07-12T11:23:05Z</time>
      </trkpt>
      <trkpt lat="47.08473" lon="5.48127">
        <ele>274</ele>
        <time>2013-07-12T11:23:12Z</time>
      </trkpt>
      <trkpt lat="47.08465" lon="5.48111">
        <ele>274</ele>
        <time>2013-07-12T11:23:16Z</time>
      </trkpt>
      <trkpt lat="47.08457" lon="5.48095">
        <ele>266</ele>
        <time>2013-07-12T11:23:19Z</time>
      </trkpt>
      <trkpt lat="47.08451" lon="5.48083">
        <ele>266</ele>
        <time>2013-07-12T11:23:21Z</time>
      </trkpt>
      <trkpt lat="47.08445" lon="5.48072">
        <ele>258</ele>
        <time>2013-07-12T11:23:23Z</time>
      </trkpt>
      <trkpt lat="47.08439" lon="5.48061">
        <ele>258</ele>
        <time>2013-07-12T11:23:25Z</time>
      </trkpt>
      <trkpt lat="47.08433" lon="5.48051">
        <ele>253</ele>
        <time>2013-07-12T11:23:27Z</time>
      </trkpt>
      <trkpt lat="47.08424" lon="5.48035">
        <ele>253</ele>
        <time>2013-07-12T11:23:30Z</time>
      </trkpt>
      <trkpt lat="47.08416" lon="5.48022">
        <ele>247</ele>
        <time>2013-07-12T11:23:33Z</time>
      </trkpt>
      <trkpt lat="47.0841" lon="5.48011">
        <ele>247</ele>
        <time>2013-07-12T11:23:35Z</time>
      </trkpt>
      <trkpt lat="47.08401" lon="5.47997">
        <ele>247</ele>
        <time>2013-07-12T11:23:38Z</time>
      </trkpt>
      <trkpt lat="47.08393" lon="5.47983">
        <ele>240</ele>
        <time>2013-07-12T11:23:41Z</time>
      </trkpt>
      <trkpt lat="47.08386" lon="5.47971">
        <ele>240</ele>
        <time>2013-07-12T11:23:44Z</time>
      </trkpt>
      <trkpt lat="47.08379" lon="5.4796">
        <ele>240</ele>
        <time>2013-07-12T11:23:47Z</time>
      </trkpt>
      <trkpt lat="47.08371" lon="5.47947">
        <ele>240</ele>
        <time>2013-07-12T11:23:50Z</time>
      </trkpt>
      <trkpt lat="47.08365" lon="5.47938">
        <ele>240</ele>
        <time>2013-07-12T11:23:53Z</time>
      </trkpt>
      <trkpt lat="47.08358" lon="5.47927">
        <ele>240</ele>
        <time>2013-07-12T11:23:56Z</time>
      </trkpt>
      <trkpt lat="47.08351" lon="5.47916">
        <ele>240</ele>
        <time>2013-07-12T11:24:00Z</time>
      </trkpt>
      <trkpt lat="47.08346" lon="5.47902">
        <ele>240</ele>
        <time>2013-07-12T11:24:04Z</time>
      </trkpt>
      <trkpt lat="47.08339" lon="5.47889">
        <ele>240</ele>
        <time>2013-07-12T11:24:07Z</time>
      </trkpt>
      <trkpt lat="47.08332" lon="5.4788">
        <ele>240</ele>
        <time>2013-07-12T11:24:10Z</time>
      </trkpt>
      <trkpt lat="47.08325" lon="5.47871">
        <ele>245</ele>
        <time>2013-07-12T11:24:15Z</time>
      </trkpt>
      <trkpt lat="47.08317" lon="5.47864">
        <ele>245</ele>
        <time>2013-07-12T11:24:20Z</time>
      </trkpt>
      <trkpt lat="47.0831" lon="5.47854">
        <ele>257</ele>
        <time>2013-07-12T11:24:26Z</time>
      </trkpt>
      <trkpt lat="47.08302" lon="5.47844">
        <ele>257</ele>
        <time>2013-07-12T11:24:30Z</time>
      </trkpt>
      <trkpt lat="47.08296" lon="5.47833">
        <ele>257</ele>
        <time>2013-07-12T11:24:35Z</time>
      </trkpt>
      <trkpt lat="47.08288" lon="5.47823">
        <ele>266</ele>
        <time>2013-07-12T11:24:40Z</time>
      </trkpt>
      <trkpt lat="47.08281" lon="5.47812">
        <ele>266</ele>
        <time>2013-07-12T11:24:44Z</time>
      </trkpt>
      <trkpt lat="47.08272" lon="5.47803">
        <ele>266</ele>
        <time>2013-07-12T11:24:48Z</time>
      </trkpt>
      <trkpt lat="47.08264" lon="5.47791">
        <ele>266</ele>
        <time>2013-07-12T11:24:51Z</time>
      </trkpt>
      <trkpt lat="47.08256" lon="5.47779">
        <ele>266</ele>
        <time>2013-07-12T11:24:54Z</time>
      </trkpt>
      <trkpt lat="47.08246" lon="5.47766">
        <ele>261</ele>
        <time>2013-07-12T11:24:57Z</time>
      </trkpt>
      <trkpt lat="47.08237" lon="5.47752">
        <ele>261</ele>
        <time>2013-07-12T11:25:00Z</time>
      </trkpt>
      <trkpt lat="47.08227" lon="5.4774">
        <ele>261</ele>
        <time>2013-07-12T11:25:03Z</time>
      </trkpt>
      <trkpt lat="47.0822" lon="5.47731">
        <ele>261</ele>
        <time>2013-07-12T11:25:05Z</time>
      </trkpt>
      <trkpt lat="47.08213" lon="5.47722">
        <ele>261</ele>
        <time>2013-07-12T11:25:07Z</time>
      </trkpt>
      <trkpt lat="47.08205" lon="5.47711">
        <ele>261</ele>
        <time>2013-07-12T11:25:09Z</time>
      </trkpt>
      <trkpt lat="47.08197" lon="5.477">
        <ele>261</ele>
        <time>2013-07-12T11:25:11Z</time>
      </trkpt>
      <trkpt lat="47.08188" lon="5.47688">
        <ele>261</ele>
        <time>2013-07-12T11:25:13Z</time>
      </trkpt>
      <trkpt lat="47.08179" lon="5.47676">
        <ele>255</ele>
        <time>2013-07-12T11:25:15Z</time>
      </trkpt>
      <trkpt lat="47.08173" lon="5.47663">
        <ele>255</ele>
        <time>2013-07-12T11:25:17Z</time>
      </trkpt>
      <trkpt lat="47.08168" lon="5.47648">
        <ele>255</ele>
        <time>2013-07-12T11:25:19Z</time>
      </trkpt>
      <trkpt lat="47.08165" lon="5.47631">
        <ele>255</ele>
        <time>2013-07-12T11:25:21Z</time>
      </trkpt>
      <trkpt lat="47.08163" lon="5.47616">
        <ele>255</ele>
        <time>2013-07-12T11:25:23Z</time>
      </trkpt>
      <trkpt lat="47.08159" lon="5.47601">
        <ele>255</ele>
        <time>2013-07-12T11:25:25Z</time>
      </trkpt>
      <trkpt lat="47.08152" lon="5.47589">
        <ele>255</ele>
        <time>2013-07-12T11:25:27Z</time>
      </trkpt>
      <trkpt lat="47.08143" lon="5.4758">
        <ele>255</ele>
        <time>2013-07-12T11:25:29Z</time>
      </trkpt>
      <trkpt lat="47.08133" lon="5.47574">
        <ele>255</ele>
        <time>2013-07-12T11:25:31Z</time>
      </trkpt>
      <trkpt lat="47.0812" lon="5.47574">
        <ele>249</ele>
        <time>2013-07-12T11:25:33Z</time>
      </trkpt>
      <trkpt lat="47.08109" lon="5.47582">
        <ele>249</ele>
        <time>2013-07-12T11:25:35Z</time>
      </trkpt>
      <trkpt lat="47.08099" lon="5.47593">
        <ele>249</ele>
        <time>2013-07-12T11:25:37Z</time>
      </trkpt>
      <trkpt lat="47.08094" lon="5.47609">
        <ele>249</ele>
        <time>2013-07-12T11:25:39Z</time>
      </trkpt>
      <trkpt lat="47.08092" lon="5.4763">
        <ele>249</ele>
        <time>2013-07-12T11:25:41Z</time>
      </trkpt>
      <trkpt lat="47.08096" lon="5.47652">
        <ele>249</ele>
        <time>2013-07-12T11:25:43Z</time>
      </trkpt>
      <trkpt lat="47.08105" lon="5.47672">
        <ele>257</ele>
        <time>2013-07-12T11:25:45Z</time>
      </trkpt>
      <trkpt lat="47.08111" lon="5.47692">
        <ele>257</ele>
        <time>2013-07-12T11:25:47Z</time>
      </trkpt>
      <trkpt lat="47.08109" lon="5.47712">
        <ele>257</ele>
        <time>2013-07-12T11:25:49Z</time>
      </trkpt>
      <trkpt lat="47.08106" lon="5.47732">
        <ele>257</ele>
        <time>2013-07-12T11:25:51Z</time>
      </trkpt>
      <trkpt lat="47.08102" lon="5.4775">
        <ele>257</ele>
        <time>2013-07-12T11:25:53Z</time>
      </trkpt>
      <trkpt lat="47.08097" lon="5.47768">
        <ele>257</ele>
        <time>2013-07-12T11:25:55Z</time>
      </trkpt>
      <trkpt lat="47.08089" lon="5.47785">
        <ele>248</ele>
        <time>2013-07-12T11:25:57Z</time>
      </trkpt>
      <trkpt lat="47.08084" lon="5.47805">
        <ele>248</ele>
        <time>2013-07-12T11:25:59Z</time>
      </trkpt>
      <trkpt lat="47.08078" lon="5.47825">
        <ele>248</ele>
        <time>2013-07-12T11:26:01Z</time>
      </trkpt>
      <trkpt lat="47.08071" lon="5.47846">
        <ele>243</ele>
        <time>2013-07-12T11:26:03Z</time>
      </trkpt>
      <trkpt lat="47.08065" lon="5.47866">
        <ele>243</ele>
        <time>2013-07-12T11:26:05Z</time>
      </trkpt>
      <trkpt lat="47.08059" lon="5.47889">
        <ele>243</ele>
        <time>2013-07-12T11:26:07Z</time>
      </trkpt>
      <trkpt lat="47.08052" lon="5.47911">
        <ele>243</ele>
        <time>2013-07-12T11:26:09Z</time>
      </trkpt>
      <trkpt lat="47.08046" lon="5.47935">
        <ele>236</ele>
        <time>2013-07-12T11:26:11Z</time>
      </trkpt>
      <trkpt lat="47.08039" lon="5.47959">
        <ele>236</ele>
        <time>2013-07-12T11:26:13Z</time>
      </trkpt>
      <trkpt lat="47.08036" lon="5.47972">
        <ele>236</ele>
        <time>2013-07-12T11:26:14Z</time>
      </trkpt>
      <trkpt lat="47.08032" lon="5.47986">
        <ele>236</ele>
        <time>2013-07-12T11:26:15Z</time>
      </trkpt>
      <trkpt lat="47.08029" lon="5.47999">
        <ele>236</ele>
        <time>2013-07-12T11:26:16Z</time>
      </trkpt>
      <trkpt lat="47.08025" lon="5.48013">
        <ele>236</ele>
        <time>2013-07-12T11:26:17Z</time>
      </trkpt>
      <trkpt lat="47.08022" lon="5.48025">
        <ele>236</ele>
        <time>2013-07-12T11:26:18Z</time>
      </trkpt>
      <trkpt lat="47.08018" lon="5.48039">
        <ele>236</ele>
        <time>2013-07-12T11:26:19Z</time>
      </trkpt>
      <trkpt lat="47.08014" lon="5.48052">
        <ele>236</ele>
        <time>2013-07-12T11:26:20Z</time>
      </trkpt>
      <trkpt lat="47.0801" lon="5.48065">
        <ele>236</ele>
        <time>2013-07-12T11:26:21Z</time>
      </trkpt>
      <trkpt lat="47.08006" lon="5.48078">
        <ele>231</ele>
        <time>2013-07-12T11:26:22Z</time>
      </trkpt>
      <trkpt lat="47.08001" lon="5.48092">
        <ele>231</ele>
        <time>2013-07-12T11:26:23Z</time>
      </trkpt>
      <trkpt lat="47.07997" lon="5.48104">
        <ele>231</ele>
        <time>2013-07-12T11:26:24Z</time>
      </trkpt>
      <trkpt lat="47.07994" lon="5.48119">
        <ele>231</ele>
        <time>2013-07-12T11:26:25Z</time>
      </trkpt>
      <trkpt lat="47.07989" lon="5.48132">
        <ele>231</ele>
        <time>2013-07-12T11:26:26Z</time>
      </trkpt>
      <trkpt lat="47.07986" lon="5.48146">
        <ele>231</ele>
        <time>2013-07-12T11:26:27Z</time>
      </trkpt>
      <trkpt lat="47.07982" lon="5.48158">
        <ele>231</ele>
        <time>2013-07-12T11:26:28Z</time>
      </trkpt>
      <trkpt lat="47.07974" lon="5.48183">
        <ele>223</ele>
        <time>2013-07-12T11:26:30Z</time>
      </trkpt>
      <trkpt lat="47.0797" lon="5.48195">
        <ele>223</ele>
        <time>2013-07-12T11:26:31Z</time>
      </trkpt>
      <trkpt lat="47.07967" lon="5.48209">
        <ele>223</ele>
        <time>2013-07-12T11:26:32Z</time>
      </trkpt>
      <trkpt lat="47.07964" lon="5.48222">
        <ele>223</ele>
        <time>2013-07-12T11:26:33Z</time>
      </trkpt>
      <trkpt lat="47.0796" lon="5.48235">
        <ele>223</ele>
        <time>2013-07-12T11:26:34Z</time>
      </trkpt>
      <trkpt lat="47.07953" lon="5.48259">
        <ele>223</ele>
        <time>2013-07-12T11:26:36Z</time>
      </trkpt>
      <trkpt lat="47.07949" lon="5.48272">
        <ele>223</ele>
        <time>2013-07-12T11:26:37Z</time>
      </trkpt>
      <trkpt lat="47.07946" lon="5.48285">
        <ele>223</ele>
        <time>2013-07-12T11:26:38Z</time>
      </trkpt>
      <trkpt lat="47.07943" lon="5.48298">
        <ele>223</ele>
        <time>2013-07-12T11:26:39Z</time>
      </trkpt>
      <trkpt lat="47.07939" lon="5.48309">
        <ele>217</ele>
        <time>2013-07-12T11:26:40Z</time>
      </trkpt>
      <trkpt lat="47.07936" lon="5.48323">
        <ele>217</ele>
        <time>2013-07-12T11:26:41Z</time>
      </trkpt>
      <trkpt lat="47.07932" lon="5.48335">
        <ele>217</ele>
        <time>2013-07-12T11:26:42Z</time>
      </trkpt>
      <trkpt lat="47.07929" lon="5.48349">
        <ele>217</ele>
        <time>2013-07-12T11:26:43Z</time>
      </trkpt>
      <trkpt lat="47.07925" lon="5.48361">
        <ele>217</ele>
        <time>2013-07-12T11:26:44Z</time>
      </trkpt>
      <trkpt lat="47.07922" lon="5.48374">
        <ele>217</ele>
        <time>2013-07-12T11:26:45Z</time>
      </trkpt>
      <trkpt lat="47.07919" lon="5.48386">
        <ele>217</ele>
        <time>2013-07-12T11:26:46Z</time>
      </trkpt>
      <trkpt lat="47.07916" lon="5.484">
        <ele>217</ele>
        <time>2013-07-12T11:26:47Z</time>
      </trkpt>
      <trkpt lat="47.07912" lon="5.48413">
        <ele>217</ele>
        <time>2013-07-12T11:26:48Z</time>
      </trkpt>
      <trkpt lat="47.07909" lon="5.48426">
        <ele>217</ele>
        <time>2013-07-12T11:26:49Z</time>
      </trkpt>
      <trkpt lat="47.07906" lon="5.48439">
        <ele>217</ele>
        <time>2013-07-12T11:26:50Z</time>
      </trkpt>
      <trkpt lat="47.07903" lon="5.48454">
        <ele>217</ele>
        <time>2013-07-12T11:26:51Z</time>
      </trkpt>
      <trkpt lat="47.079" lon="5.48467">
        <ele>217</ele>
        <time>2013-07-12T11:26:52Z</time>
      </trkpt>
      <trkpt lat="47.07896" lon="5.48482">
        <ele>217</ele>
        <time>2013-07-12T11:26:53Z</time>
      </trkpt>
      <trkpt lat="47.07893" lon="5.48496">
        <ele>217</ele>
        <time>2013-07-12T11:26:54Z</time>
      </trkpt>
      <trkpt lat="47.0789" lon="5.4851">
        <ele>217</ele>
        <time>2013-07-12T11:26:55Z</time>
      </trkpt>
      <trkpt lat="47.07886" lon="5.48523">
        <ele>217</ele>
        <time>2013-07-12T11:26:56Z</time>
      </trkpt>
      <trkpt lat="47.07882" lon="5.48537">
        <ele>217</ele>
        <time>2013-07-12T11:26:57Z</time>
      </trkpt>
      <trkpt lat="47.07879" lon="5.4855">
        <ele>217</ele>
        <time>2013-07-12T11:26:58Z</time>
      </trkpt>
      <trkpt lat="47.07874" lon="5.48563">
        <ele>217</ele>
        <time>2013-07-12T11:26:59Z</time>
      </trkpt>
      <trkpt lat="47.07871" lon="5.48577">
        <ele>217</ele>
        <time>2013-07-12T11:27:00Z</time>
      </trkpt>
      <trkpt lat="47.07866" lon="5.48591">
        <ele>217</ele>
        <time>2013-07-12T11:27:01Z</time>
      </trkpt>
      <trkpt lat="47.07863" lon="5.48605">
        <ele>217</ele>
        <time>2013-07-12T11:27:02Z</time>
      </trkpt>
      <trkpt lat="47.07859" lon="5.48617">
        <ele>211</ele>
        <time>2013-07-12T11:27:03Z</time>
      </trkpt>
      <trkpt lat="47.07855" lon="5.48632">
        <ele>211</ele>
        <time>2013-07-12T11:27:04Z</time>
      </trkpt>
      <trkpt lat="47.07851" lon="5.48645">
        <ele>211</ele>
        <time>2013-07-12T11:27:05Z</time>
      </trkpt>
      <trkpt lat="47.07847" lon="5.48658">
        <ele>211</ele>
        <time>2013-07-12T11:27:06Z</time>
      </trkpt>
      <trkpt lat="47.07843" lon="5.48672">
        <ele>211</ele>
        <time>2013-07-12T11:27:07Z</time>
      </trkpt>
      <trkpt lat="47.07838" lon="5.48684">
        <ele>205</ele>
        <time>2013-07-12T11:27:08Z</time>
      </trkpt>
      <trkpt lat="47.07833" lon="5.48696">
        <ele>205</ele>
        <time>2013-07-12T11:27:09Z</time>
      </trkpt>
      <trkpt lat="47.0783" lon="5.48712">
        <ele>205</ele>
        <time>2013-07-12T11:27:10Z</time>
      </trkpt>
      <trkpt lat="47.07827" lon="5.48725">
        <ele>205</ele>
        <time>2013-07-12T11:27:11Z</time>
      </trkpt>
      <trkpt lat="47.07823" lon="5.48739">
        <ele>205</ele>
        <time>2013-07-12T11:27:12Z</time>
      </trkpt>
      <trkpt lat="47.07819" lon="5.48752">
        <ele>205</ele>
        <time>2013-07-12T11:27:13Z</time>
      </trkpt>
      <trkpt lat="47.07815" lon="5.48765">
        <ele>199</ele>
        <time>2013-07-12T11:27:14Z</time>
      </trkpt>
      <trkpt lat="47.07811" lon="5.48778">
        <ele>199</ele>
        <time>2013-07-12T11:27:15Z</time>
      </trkpt>
      <trkpt lat="47.07807" lon="5.48792">
        <ele>199</ele>
        <time>2013-07-12T11:27:16Z</time>
      </trkpt>
      <trkpt lat="47.07803" lon="5.48805">
        <ele>199</ele>
        <time>2013-07-12T11:27:17Z</time>
      </trkpt>
      <trkpt lat="47.078" lon="5.48818">
        <ele>199</ele>
        <time>2013-07-12T11:27:18Z</time>
      </trkpt>
      <trkpt lat="47.07793" lon="5.48837">
        <ele>192</ele>
        <time>2013-07-12T11:27:20Z</time>
      </trkpt>
      <trkpt lat="47.07787" lon="5.48855">
        <ele>192</ele>
        <time>2013-07-12T11:27:22Z</time>
      </trkpt>
      <trkpt lat="47.07778" lon="5.48871">
        <ele>192</ele>
        <time>2013-07-12T11:27:24Z</time>
      </trkpt>
      <trkpt lat="47.07765" lon="5.48877">
        <ele>192</ele>
        <time>2013-07-12T11:27:26Z</time>
      </trkpt>
      <trkpt lat="47.07754" lon="5.48887">
        <ele>192</ele>
        <time>2013-07-12T11:27:28Z</time>
      </trkpt>
      <trkpt lat="47.07742" lon="5.48894">
        <ele>192</ele>
        <time>2013-07-12T11:27:30Z</time>
      </trkpt>
      <trkpt lat="47.07729" lon="5.48891">
        <ele>192</ele>
        <time>2013-07-12T11:27:32Z</time>
      </trkpt>
      <trkpt lat="47.07719" lon="5.48892">
        <ele>192</ele>
        <time>2013-07-12T11:27:34Z</time>
      </trkpt>
      <trkpt lat="47.07707" lon="5.48896">
        <ele>197</ele>
        <time>2013-07-12T11:27:36Z</time>
      </trkpt>
      <trkpt lat="47.07695" lon="5.48899">
        <ele>197</ele>
        <time>2013-07-12T11:27:38Z</time>
      </trkpt>
      <trkpt lat="47.07687" lon="5.48909">
        <ele>197</ele>
        <time>2013-07-12T11:27:40Z</time>
      </trkpt>
      <trkpt lat="47.07679" lon="5.48918">
        <ele>197</ele>
        <time>2013-07-12T11:27:42Z</time>
      </trkpt>
      <trkpt lat="47.07675" lon="5.48931">
        <ele>190</ele>
        <time>2013-07-12T11:27:44Z</time>
      </trkpt>
      <trkpt lat="47.07674" lon="5.48949">
        <ele>190</ele>
        <time>2013-07-12T11:27:46Z</time>
      </trkpt>
      <trkpt lat="47.07668" lon="5.48964">
        <ele>190</ele>
        <time>2013-07-12T11:27:48Z</time>
      </trkpt>
      <trkpt lat="47.07661" lon="5.48978">
        <ele>196</ele>
        <time>2013-07-12T11:27:50Z</time>
      </trkpt>
      <trkpt lat="47.07655" lon="5.48989">
        <ele>196</ele>
        <time>2013-07-12T11:27:52Z</time>
      </trkpt>
      <trkpt lat="47.07648" lon="5.48999">
        <ele>196</ele>
        <time>2013-07-12T11:27:54Z</time>
      </trkpt>
      <trkpt lat="47.07639" lon="5.49013">
        <ele>196</ele>
        <time>2013-07-12T11:27:57Z</time>
      </trkpt>
      <trkpt lat="47.07633" lon="5.49023">
        <ele>196</ele>
        <time>2013-07-12T11:27:59Z</time>
      </trkpt>
      <trkpt lat="47.07625" lon="5.49036">
        <ele>196</ele>
        <time>2013-07-12T11:28:02Z</time>
      </trkpt>
      <trkpt lat="47.0762" lon="5.49048">
        <ele>203</ele>
        <time>2013-07-12T11:28:04Z</time>
      </trkpt>
      <trkpt lat="47.07614" lon="5.49059">
        <ele>203</ele>
        <time>2013-07-12T11:28:06Z</time>
      </trkpt>
      <trkpt lat="47.07608" lon="5.49072">
        <ele>209</ele>
        <time>2013-07-12T11:28:08Z</time>
      </trkpt>
      <trkpt lat="47.07601" lon="5.49084">
        <ele>209</ele>
        <time>2013-07-12T11:28:10Z</time>
      </trkpt>
      <trkpt lat="47.07595" lon="5.49096">
        <ele>209</ele>
        <time>2013-07-12T11:28:12Z</time>
      </trkpt>
      <trkpt lat="47.07588" lon="5.49107">
        <ele>209</ele>
        <time>2013-07-12T11:28:14Z</time>
      </trkpt>
      <trkpt lat="47.07576" lon="5.49118">
        <ele>209</ele>
        <time>2013-07-12T11:28:17Z</time>
      </trkpt>
      <trkpt lat="47.07568" lon="5.49121">
        <ele>214</ele>
        <time>2013-07-12T11:28:19Z</time>
      </trkpt>
      <trkpt lat="47.07558" lon="5.49122">
        <ele>214</ele>
        <time>2013-07-12T11:28:21Z</time>
      </trkpt>
      <trkpt lat="47.0755" lon="5.49119">
        <ele>214</ele>
        <time>2013-07-12T11:28:23Z</time>
      </trkpt>
      <trkpt lat="47.07541" lon="5.49108">
        <ele>214</ele>
        <time>2013-07-12T11:28:25Z</time>
      </trkpt>
      <trkpt lat="47.07533" lon="5.49096">
        <ele>214</ele>
        <time>2013-07-12T11:28:27Z</time>
      </trkpt>
      <trkpt lat="47.07527" lon="5.49085">
        <ele>214</ele>
        <time>2013-07-12T11:28:29Z</time>
      </trkpt>
      <trkpt lat="47.07521" lon="5.49074">
        <ele>214</ele>
        <time>2013-07-12T11:28:33Z</time>
      </trkpt>
      <trkpt lat="47.07518" lon="5.49086">
        <ele>231</ele>
        <time>2013-07-12T11:29:34Z</time>
      </trkpt>
      <trkpt lat="47.07526" lon="5.49075">
        <ele>225</ele>
        <time>2013-07-12T11:29:55Z</time>
      </trkpt>
      <trkpt lat="47.0753" lon="5.49062">
        <ele>225</ele>
        <time>2013-07-12T11:30:00Z</time>
      </trkpt>
      <trkpt lat="47.07523" lon="5.49072">
        <ele>210</ele>
        <time>2013-07-12T11:30:23Z</time>
      </trkpt>
      <trkpt lat="47.07528" lon="5.49084">
        <ele>217</ele>
        <time>2013-07-12T11:30:27Z</time>
      </trkpt>
      <trkpt lat="47.07523" lon="5.49073">
        <ele>211</ele>
        <time>2013-07-12T11:30:32Z</time>
      </trkpt>
      <trkpt lat="47.07515" lon="5.49067">
        <ele>211</ele>
        <time>2013-07-12T11:31:55Z</time>
      </trkpt>
      <trkpt lat="47.07506" lon="5.49062">
        <ele>203</ele>
        <time>2013-07-12T11:32:33Z</time>
      </trkpt>
      <trkpt lat="47.07516" lon="5.4906">
        <ele>203</ele>
        <time>2013-07-12T11:32:48Z</time>
      </trkpt>
      <trkpt lat="47.07505" lon="5.49058">
        <ele>195</ele>
        <time>2013-07-12T11:32:57Z</time>
      </trkpt>
      <trkpt lat="47.07515" lon="5.49057">
        <ele>195</ele>
        <time>2013-07-12T11:33:38Z</time>
      </trkpt>
      <trkpt lat="47.07525" lon="5.49057">
        <ele>195</ele>
        <time>2013-07-12T11:33:43Z</time>
      </trkpt>
      <trkpt lat="47.07517" lon="5.49063">
        <ele>207</ele>
        <time>2013-07-12T11:34:05Z</time>
      </trkpt>
      <trkpt lat="47.07507" lon="5.49062">
        <ele>207</ele>
        <time>2013-07-12T11:34:15Z</time>
      </trkpt>
      <trkpt lat="47.07498" lon="5.49061">
        <ele>189</ele>
        <time>2013-07-12T11:34:27Z</time>
      </trkpt>
      <trkpt lat="47.07508" lon="5.49058">
        <ele>182</ele>
        <time>2013-07-12T11:34:35Z</time>
      </trkpt>
      <trkpt lat="47.07515" lon="5.49067">
        <ele>200</ele>
        <time>2013-07-12T11:34:46Z</time>
      </trkpt>
      <trkpt lat="47.07523" lon="5.49061">
        <ele>200</ele>
        <time>2013-07-12T11:35:07Z</time>
      </trkpt>
      <trkpt lat="47.07513" lon="5.49061">
        <ele>200</ele>
        <time>2013-07-12T11:35:14Z</time>
      </trkpt>
      <trkpt lat="47.07523" lon="5.49061">
        <ele>186</ele>
        <time>2013-07-12T11:35:33Z</time>
      </trkpt>
      <trkpt lat="47.07515" lon="5.49068">
        <ele>196</ele>
        <time>2013-07-12T11:35:43Z</time>
      </trkpt>
      <trkpt lat="47.07525" lon="5.4907">
        <ele>206</ele>
        <time>2013-07-12T11:36:12Z</time>
      </trkpt>
      <trkpt lat="47.07515" lon="5.49069">
        <ele>206</ele>
        <time>2013-07-12T11:36:21Z</time>
      </trkpt>
      <trkpt lat="47.07509" lon="5.49058">
        <ele>201</ele>
        <time>2013-07-12T11:37:03Z</time>
      </trkpt>
      <trkpt lat="47.07503" lon="5.49067">
        <ele>201</ele>
        <time>2013-07-12T11:37:17Z</time>
      </trkpt>
      <trkpt lat="47.07513" lon="5.4907">
        <ele>209</ele>
        <time>2013-07-12T11:37:37Z</time>
      </trkpt>
      <trkpt lat="47.07522" lon="5.49063">
        <ele>209</ele>
        <time>2013-07-12T11:37:44Z</time>
      </trkpt>
      <trkpt lat="47.07533" lon="5.49062">
        <ele>209</ele>
        <time>2013-07-12T11:37:47Z</time>
      </trkpt>
      <trkpt lat="47.07526" lon="5.49071">
        <ele>209</ele>
        <time>2013-07-12T11:37:52Z</time>
      </trkpt>
      <trkpt lat="47.07518" lon="5.49065">
        <ele>200</ele>
        <time>2013-07-12T11:38:04Z</time>
      </trkpt>
      <trkpt lat="47.07525" lon="5.49073">
        <ele>214</ele>
        <time>2013-07-12T11:39:57Z</time>
      </trkpt>
      <trkpt lat="47.07515" lon="5.49071">
        <ele>207</ele>
        <time>2013-07-12T11:40:03Z</time>
      </trkpt>
      <trkpt lat="47.07525" lon="5.4907">
        <ele>207</ele>
        <time>2013-07-12T11:40:27Z</time>
      </trkpt>
      <trkpt lat="47.07516" lon="5.49066">
        <ele>207</ele>
        <time>2013-07-12T11:41:01Z</time>
      </trkpt>
      <trkpt lat="47.07506" lon="5.49064">
        <ele>207</ele>
        <time>2013-07-12T11:42:30Z</time>
      </trkpt>
      <trkpt lat="47.07509" lon="5.49076">
        <ele>207</ele>
        <time>2013-07-12T11:42:54Z</time>
      </trkpt>
      <trkpt lat="47.07501" lon="5.49067">
        <ele>194</ele>
        <time>2013-07-12T11:43:24Z</time>
      </trkpt>
      <trkpt lat="47.07511" lon="5.49067">
        <ele>202</ele>
        <time>2013-07-12T11:43:49Z</time>
      </trkpt>
      <trkpt lat="47.07502" lon="5.49071">
        <ele>202</ele>
        <time>2013-07-12T11:44:08Z</time>
      </trkpt>
      <trkpt lat="47.07496" lon="5.49061">
        <ele>178</ele>
        <time>2013-07-12T11:44:17Z</time>
      </trkpt>
      <trkpt lat="47.07505" lon="5.49067">
        <ele>178</ele>
        <time>2013-07-12T11:44:24Z</time>
      </trkpt>
      <trkpt lat="47.07513" lon="5.49073">
        <ele>199</ele>
        <time>2013-07-12T11:44:36Z</time>
      </trkpt>
      <trkpt lat="47.07523" lon="5.49076">
        <ele>205</ele>
        <time>2013-07-12T11:44:42Z</time>
      </trkpt>
      <trkpt lat="47.07525" lon="5.49063">
        <ele>205</ele>
        <time>2013-07-12T11:45:12Z</time>
      </trkpt>
      <trkpt lat="47.07515" lon="5.49065">
        <ele>212</ele>
        <time>2013-07-12T11:45:52Z</time>
      </trkpt>
      <trkpt lat="47.07506" lon="5.49061">
        <ele>212</ele>
        <time>2013-07-12T11:46:04Z</time>
      </trkpt>
      <trkpt lat="47.07497" lon="5.49062">
        <ele>181</ele>
        <time>2013-07-12T11:46:18Z</time>
      </trkpt>
      <trkpt lat="47.07506" lon="5.49066">
        <ele>181</ele>
        <time>2013-07-12T11:46:23Z</time>
      </trkpt>
      <trkpt lat="47.07518" lon="5.49067">
        <ele>198</ele>
        <time>2013-07-12T11:46:36Z</time>
      </trkpt>
      <trkpt lat="47.07527" lon="5.49068">
        <ele>204</ele>
        <time>2013-07-12T11:46:45Z</time>
      </trkpt>
      <trkpt lat="47.07518" lon="5.49064">
        <ele>210</ele>
        <time>2013-07-12T11:46:53Z</time>
      </trkpt>
      <trkpt lat="47.07507" lon="5.49065">
        <ele>210</ele>
        <time>2013-07-12T11:47:07Z</time>
      </trkpt>
      <trkpt lat="47.07496" lon="5.49058">
        <ele>198</ele>
        <time>2013-07-12T11:47:23Z</time>
      </trkpt>
      <trkpt lat="47.07506" lon="5.49064">
        <ele>204</ele>
        <time>2013-07-12T11:47:33Z</time>
      </trkpt>
      <trkpt lat="47.07515" lon="5.49067">
        <ele>204</ele>
        <time>2013-07-12T11:48:06Z</time>
      </trkpt>
      <trkpt lat="47.07522" lon="5.49076">
        <ele>211</ele>
        <time>2013-07-12T11:48:11Z</time>
      </trkpt>
      <trkpt lat="47.07531" lon="5.49084">
        <ele>211</ele>
        <time>2013-07-12T11:48:15Z</time>
      </trkpt>
      <trkpt lat="47.07537" lon="5.49094">
        <ele>211</ele>
        <time>2013-07-12T11:48:19Z</time>
      </trkpt>
      <trkpt lat="47.07546" lon="5.49102">
        <ele>211</ele>
        <time>2013-07-12T11:48:23Z</time>
      </trkpt>
      <trkpt lat="47.07557" lon="5.49109">
        <ele>211</ele>
        <time>2013-07-12T11:48:27Z</time>
      </trkpt>
      <trkpt lat="47.07565" lon="5.49112">
        <ele>211</ele>
        <time>2013-07-12T11:48:29Z</time>
      </trkpt>
      <trkpt lat="47.07574" lon="5.49111">
        <ele>211</ele>
        <time>2013-07-12T11:48:32Z</time>
      </trkpt>
      <trkpt lat="47.07585" lon="5.49105">
        <ele>211</ele>
        <time>2013-07-12T11:48:36Z</time>
      </trkpt>
      <trkpt lat="47.07593" lon="5.49096">
        <ele>211</ele>
        <time>2013-07-12T11:48:39Z</time>
      </trkpt>
      <trkpt lat="47.076" lon="5.49084">
        <ele>211</ele>
        <time>2013-07-12T11:48:42Z</time>
      </trkpt>
      <trkpt lat="47.07606" lon="5.49072">
        <ele>211</ele>
        <time>2013-07-12T11:48:45Z</time>
      </trkpt>
      <trkpt lat="47.07612" lon="5.49059">
        <ele>211</ele>
        <time>2013-07-12T11:48:48Z</time>
      </trkpt>
      <trkpt lat="47.07619" lon="5.49047">
        <ele>211</ele>
        <time>2013-07-12T11:48:51Z</time>
      </trkpt>
      <trkpt lat="47.07628" lon="5.49035">
        <ele>211</ele>
        <time>2013-07-12T11:48:54Z</time>
      </trkpt>
      <trkpt lat="47.07637" lon="5.49023">
        <ele>211</ele>
        <time>2013-07-12T11:48:57Z</time>
      </trkpt>
      <trkpt lat="47.07647" lon="5.49012">
        <ele>211</ele>
        <time>2013-07-12T11:49:00Z</time>
      </trkpt>
      <trkpt lat="47.07657" lon="5.49001">
        <ele>211</ele>
        <time>2013-07-12T11:49:03Z</time>
      </trkpt>
      <trkpt lat="47.07665" lon="5.48991">
        <ele>211</ele>
        <time>2013-07-12T11:49:06Z</time>
      </trkpt>
      <trkpt lat="47.07674" lon="5.4898">
        <ele>211</ele>
        <time>2013-07-12T11:49:09Z</time>
      </trkpt>
      <trkpt lat="47.07682" lon="5.48967">
        <ele>211</ele>
        <time>2013-07-12T11:49:12Z</time>
      </trkpt>
      <trkpt lat="47.07686" lon="5.48955">
        <ele>211</ele>
        <time>2013-07-12T11:49:14Z</time>
      </trkpt>
      <trkpt lat="47.07691" lon="5.48939">
        <ele>211</ele>
        <time>2013-07-12T11:49:17Z</time>
      </trkpt>
      <trkpt lat="47.07695" lon="5.48924">
        <ele>211</ele>
        <time>2013-07-12T11:49:20Z</time>
      </trkpt>
      <trkpt lat="47.07699" lon="5.48908">
        <ele>211</ele>
        <time>2013-07-12T11:49:23Z</time>
      </trkpt>
      <trkpt lat="47.07706" lon="5.48897">
        <ele>211</ele>
        <time>2013-07-12T11:49:26Z</time>
      </trkpt>
      <trkpt lat="47.07716" lon="5.4889">
        <ele>211</ele>
        <time>2013-07-12T11:49:29Z</time>
      </trkpt>
      <trkpt lat="47.07728" lon="5.48894">
        <ele>211</ele>
        <time>2013-07-12T11:49:32Z</time>
      </trkpt>
      <trkpt lat="47.07737" lon="5.48905">
        <ele>211</ele>
        <time>2013-07-12T11:49:35Z</time>
      </trkpt>
      <trkpt lat="47.07744" lon="5.4892">
        <ele>211</ele>
        <time>2013-07-12T11:49:38Z</time>
      </trkpt>
      <trkpt lat="47.0774" lon="5.48938">
        <ele>211</ele>
        <time>2013-07-12T11:49:41Z</time>
      </trkpt>
      <trkpt lat="47.07733" lon="5.48948">
        <ele>211</ele>
        <time>2013-07-12T11:49:43Z</time>
      </trkpt>
      <trkpt lat="47.07725" lon="5.48956">
        <ele>211</ele>
        <time>2013-07-12T11:49:45Z</time>
      </trkpt>
      <trkpt lat="47.07718" lon="5.48964">
        <ele>211</ele>
        <time>2013-07-12T11:49:47Z</time>
      </trkpt>
      <trkpt lat="47.0771" lon="5.48972">
        <ele>211</ele>
        <time>2013-07-12T11:49:49Z</time>
      </trkpt>
      <trkpt lat="47.07699" lon="5.48983">
        <ele>211</ele>
        <time>2013-07-12T11:49:52Z</time>
      </trkpt>
      <trkpt lat="47.07687" lon="5.48995">
        <ele>211</ele>
        <time>2013-07-12T11:49:55Z</time>
      </trkpt>
      <trkpt lat="47.07676" lon="5.49005">
        <ele>211</ele>
        <time>2013-07-12T11:49:58Z</time>
      </trkpt>
      <trkpt lat="47.07666" lon="5.49017">
        <ele>205</ele>
        <time>2013-07-12T11:50:01Z</time>
      </trkpt>
      <trkpt lat="47.07658" lon="5.49026">
        <ele>205</ele>
        <time>2013-07-12T11:50:03Z</time>
      </trkpt>
      <trkpt lat="47.07649" lon="5.4904">
        <ele>205</ele>
        <time>2013-07-12T11:50:06Z</time>
      </trkpt>
      <trkpt lat="47.07642" lon="5.49049">
        <ele>205</ele>
        <time>2013-07-12T11:50:08Z</time>
      </trkpt>
      <trkpt lat="47.07635" lon="5.49058">
        <ele>205</ele>
        <time>2013-07-12T11:50:10Z</time>
      </trkpt>
      <trkpt lat="47.07626" lon="5.49071">
        <ele>205</ele>
        <time>2013-07-12T11:50:13Z</time>
      </trkpt>
      <trkpt lat="47.07617" lon="5.49084">
        <ele>205</ele>
        <time>2013-07-12T11:50:16Z</time>
      </trkpt>
      <trkpt lat="47.07611" lon="5.49094">
        <ele>205</ele>
        <time>2013-07-12T11:50:18Z</time>
      </trkpt>
      <trkpt lat="47.07603" lon="5.49109">
        <ele>205</ele>
        <time>2013-07-12T11:50:21Z</time>
      </trkpt>
      <trkpt lat="47.07595" lon="5.49123">
        <ele>205</ele>
        <time>2013-07-12T11:50:24Z</time>
      </trkpt>
      <trkpt lat="47.07587" lon="5.49138">
        <ele>205</ele>
        <time>2013-07-12T11:50:27Z</time>
      </trkpt>
      <trkpt lat="47.07579" lon="5.49154">
        <ele>205</ele>
        <time>2013-07-12T11:50:30Z</time>
      </trkpt>
      <trkpt lat="47.07571" lon="5.49169">
        <ele>205</ele>
        <time>2013-07-12T11:50:33Z</time>
      </trkpt>
      <trkpt lat="47.07563" lon="5.49184">
        <ele>205</ele>
        <time>2013-07-12T11:50:36Z</time>
      </trkpt>
      <trkpt lat="47.07558" lon="5.49195">
        <ele>205</ele>
        <time>2013-07-12T11:50:38Z</time>
      </trkpt>
      <trkpt lat="47.07551" lon="5.49205">
        <ele>205</ele>
        <time>2013-07-12T11:50:40Z</time>
      </trkpt>
      <trkpt lat="47.07546" lon="5.49216">
        <ele>210</ele>
        <time>2013-07-12T11:50:42Z</time>
      </trkpt>
      <trkpt lat="47.0754" lon="5.49227">
        <ele>210</ele>
        <time>2013-07-12T11:50:44Z</time>
      </trkpt>
      <trkpt lat="47.07534" lon="5.49238">
        <ele>210</ele>
        <time>2013-07-12T11:50:46Z</time>
      </trkpt>
      <trkpt lat="47.07527" lon="5.49253">
        <ele>210</ele>
        <time>2013-07-12T11:50:49Z</time>
      </trkpt>
      <trkpt lat="47.0752" lon="5.49269">
        <ele>210</ele>
        <time>2013-07-12T11:50:52Z</time>
      </trkpt>
      <trkpt lat="47.07513" lon="5.49284">
        <ele>210</ele>
        <time>2013-07-12T11:50:55Z</time>
      </trkpt>
      <trkpt lat="47.07505" lon="5.49299">
        <ele>210</ele>
        <time>2013-07-12T11:50:58Z</time>
      </trkpt>
      <trkpt lat="47.07496" lon="5.49314">
        <ele>210</ele>
        <time>2013-07-12T11:51:01Z</time>
      </trkpt>
      <trkpt lat="47.07489" lon="5.49329">
        <ele>210</ele>
        <time>2013-07-12T11:51:04Z</time>
      </trkpt>
      <trkpt lat="47.07482" lon="5.49343">
        <ele>210</ele>
        <time>2013-07-12T11:51:07Z</time>
      </trkpt>
      <trkpt lat="47.07476" lon="5.49357">
        <ele>210</ele>
        <time>2013-07-12T11:51:10Z</time>
      </trkpt>
      <trkpt lat="47.07469" lon="5.4937">
        <ele>210</ele>
        <time>2013-07-12T11:51:13Z</time>
      </trkpt>
      <trkpt lat="47.07463" lon="5.49383">
        <ele>210</ele>
        <time>2013-07-12T11:51:16Z</time>
      </trkpt>
      <trkpt lat="47.07457" lon="5.49395">
        <ele>210</ele>
        <time>2013-07-12T11:51:19Z</time>
      </trkpt>
      <trkpt lat="47.07449" lon="5.49408">
        <ele>210</ele>
        <time>2013-07-12T11:51:22Z</time>
      </trkpt>
      <trkpt lat="47.07439" lon="5.49413">
        <ele>210</ele>
        <time>2013-07-12T11:51:25Z</time>
      </trkpt>
      <trkpt lat="47.07428" lon="5.49417">
        <ele>210</ele>
        <time>2013-07-12T11:51:28Z</time>
      </trkpt>
      <trkpt lat="47.0742" lon="5.49429">
        <ele>216</ele>
        <time>2013-07-12T11:51:31Z</time>
      </trkpt>
      <trkpt lat="47.07418" lon="5.49447">
        <ele>216</ele>
        <time>2013-07-12T11:51:34Z</time>
      </trkpt>
      <trkpt lat="47.07425" lon="5.49459">
        <ele>216</ele>
        <time>2013-07-12T11:51:36Z</time>
      </trkpt>
      <trkpt lat="47.07434" lon="5.49464">
        <ele>216</ele>
        <time>2013-07-12T11:51:38Z</time>
      </trkpt>
      <trkpt lat="47.07445" lon="5.49464">
        <ele>216</ele>
        <time>2013-07-12T11:51:40Z</time>
      </trkpt>
      <trkpt lat="47.07456" lon="5.49462">
        <ele>216</ele>
        <time>2013-07-12T11:51:42Z</time>
      </trkpt>
      <trkpt lat="47.07466" lon="5.49464">
        <ele>221</ele>
        <time>2013-07-12T11:51:44Z</time>
      </trkpt>
      <trkpt lat="47.07476" lon="5.49467">
        <ele>221</ele>
        <time>2013-07-12T11:51:46Z</time>
      </trkpt>
      <trkpt lat="47.07486" lon="5.49472">
        <ele>221</ele>
        <time>2013-07-12T11:51:48Z</time>
      </trkpt>
      <trkpt lat="47.07495" lon="5.49477">
        <ele>227</ele>
        <time>2013-07-12T11:51:50Z</time>
      </trkpt>
      <trkpt lat="47.07504" lon="5.49482">
        <ele>227</ele>
        <time>2013-07-12T11:51:52Z</time>
      </trkpt>
      <trkpt lat="47.07515" lon="5.4949">
        <ele>227</ele>
        <time>2013-07-12T11:51:55Z</time>
      </trkpt>
      <trkpt lat="47.07523" lon="5.49496">
        <ele>227</ele>
        <time>2013-07-12T11:51:57Z</time>
      </trkpt>
      <trkpt lat="47.07534" lon="5.49504">
        <ele>227</ele>
        <time>2013-07-12T11:52:00Z</time>
      </trkpt>
      <trkpt lat="47.07544" lon="5.49513">
        <ele>227</ele>
        <time>2013-07-12T11:52:03Z</time>
      </trkpt>
      <trkpt lat="47.07556" lon="5.49521">
        <ele>227</ele>
        <time>2013-07-12T11:52:06Z</time>
      </trkpt>
      <trkpt lat="47.07567" lon="5.49529">
        <ele>227</ele>
        <time>2013-07-12T11:52:09Z</time>
      </trkpt>
      <trkpt lat="47.07575" lon="5.49537">
        <ele>233</ele>
        <time>2013-07-12T11:52:11Z</time>
      </trkpt>
      <trkpt lat="47.07583" lon="5.49544">
        <ele>233</ele>
        <time>2013-07-12T11:52:13Z</time>
      </trkpt>
      <trkpt lat="47.07591" lon="5.49554">
        <ele>233</ele>
        <time>2013-07-12T11:52:15Z</time>
      </trkpt>
      <trkpt lat="47.07596" lon="5.4957">
        <ele>233</ele>
        <time>2013-07-12T11:52:17Z</time>
      </trkpt>
      <trkpt lat="47.07599" lon="5.49587">
        <ele>233</ele>
        <time>2013-07-12T11:52:19Z</time>
      </trkpt>
      <trkpt lat="47.07596" lon="5.49603">
        <ele>233</ele>
        <time>2013-07-12T11:52:21Z</time>
      </trkpt>
      <trkpt lat="47.07592" lon="5.49617">
        <ele>227</ele>
        <time>2013-07-12T11:52:23Z</time>
      </trkpt>
      <trkpt lat="47.07587" lon="5.49632">
        <ele>227</ele>
        <time>2013-07-12T11:52:25Z</time>
      </trkpt>
      <trkpt lat="47.07582" lon="5.49646">
        <ele>227</ele>
        <time>2013-07-12T11:52:27Z</time>
      </trkpt>
      <trkpt lat="47.07579" lon="5.4966">
        <ele>227</ele>
        <time>2013-07-12T11:52:29Z</time>
      </trkpt>
      <trkpt lat="47.07574" lon="5.49675">
        <ele>222</ele>
        <time>2013-07-12T11:52:31Z</time>
      </trkpt>
      <trkpt lat="47.07571" lon="5.49688">
        <ele>222</ele>
        <time>2013-07-12T11:52:33Z</time>
      </trkpt>
      <trkpt lat="47.07568" lon="5.49701">
        <ele>222</ele>
        <time>2013-07-12T11:52:35Z</time>
      </trkpt>
      <trkpt lat="47.07564" lon="5.49713">
        <ele>222</ele>
        <time>2013-07-12T11:52:37Z</time>
      </trkpt>
      <trkpt lat="47.0756" lon="5.4973">
        <ele>222</ele>
        <time>2013-07-12T11:52:40Z</time>
      </trkpt>
      <trkpt lat="47.07557" lon="5.49748">
        <ele>222</ele>
        <time>2013-07-12T11:52:43Z</time>
      </trkpt>
      <trkpt lat="47.07555" lon="5.49765">
        <ele>222</ele>
        <time>2013-07-12T11:52:46Z</time>
      </trkpt>
      <trkpt lat="47.07552" lon="5.49779">
        <ele>222</ele>
        <time>2013-07-12T11:52:48Z</time>
      </trkpt>
      <trkpt lat="47.0755" lon="5.49793">
        <ele>222</ele>
        <time>2013-07-12T11:52:50Z</time>
      </trkpt>
      <trkpt lat="47.07554" lon="5.49808">
        <ele>222</ele>
        <time>2013-07-12T11:52:52Z</time>
      </trkpt>
      <trkpt lat="47.07556" lon="5.49821">
        <ele>222</ele>
        <time>2013-07-12T11:52:54Z</time>
      </trkpt>
      <trkpt lat="47.07552" lon="5.49837">
        <ele>222</ele>
        <time>2013-07-12T11:52:57Z</time>
      </trkpt>
      <trkpt lat="47.07545" lon="5.49852">
        <ele>222</ele>
        <time>2013-07-12T11:53:00Z</time>
      </trkpt>
      <trkpt lat="47.07545" lon="5.49871">
        <ele>222</ele>
        <time>2013-07-12T11:53:03Z</time>
      </trkpt>
      <trkpt lat="47.07547" lon="5.49884">
        <ele>222</ele>
        <time>2013-07-12T11:53:05Z</time>
      </trkpt>
      <trkpt lat="47.07546" lon="5.49897">
        <ele>222</ele>
        <time>2013-07-12T11:53:07Z</time>
      </trkpt>
      <trkpt lat="47.07544" lon="5.4991">
        <ele>222</ele>
        <time>2013-07-12T11:53:09Z</time>
      </trkpt>
      <trkpt lat="47.07541" lon="5.49929">
        <ele>222</ele>
        <time>2013-07-12T11:53:12Z</time>
      </trkpt>
      <trkpt lat="47.07541" lon="5.49942">
        <ele>222</ele>
        <time>2013-07-12T11:53:14Z</time>
      </trkpt>
      <trkpt lat="47.0754" lon="5.49962">
        <ele>222</ele>
        <time>2013-07-12T11:53:17Z</time>
      </trkpt>
      <trkpt lat="47.07538" lon="5.49981">
        <ele>222</ele>
        <time>2013-07-12T11:53:20Z</time>
      </trkpt>
      <trkpt lat="47.07536" lon="5.49998">
        <ele>222</ele>
        <time>2013-07-12T11:53:23Z</time>
      </trkpt>
      <trkpt lat="47.07534" lon="5.50015">
        <ele>222</ele>
        <time>2013-07-12T11:53:26Z</time>
      </trkpt>
      <trkpt lat="47.07534" lon="5.50032">
        <ele>222</ele>
        <time>2013-07-12T11:53:29Z</time>
      </trkpt>
      <trkpt lat="47.07537" lon="5.50049">
        <ele>228</ele>
        <time>2013-07-12T11:53:32Z</time>
      </trkpt>
      <trkpt lat="47.0754" lon="5.50065">
        <ele>228</ele>
        <time>2013-07-12T11:53:35Z</time>
      </trkpt>
      <trkpt lat="47.0754" lon="5.50083">
        <ele>228</ele>
        <time>2013-07-12T11:53:38Z</time>
      </trkpt>
      <trkpt lat="47.07541" lon="5.50098">
        <ele>228</ele>
        <time>2013-07-12T11:53:41Z</time>
      </trkpt>
      <trkpt lat="47.07541" lon="5.50112">
        <ele>233</ele>
        <time>2013-07-12T11:53:44Z</time>
      </trkpt>
      <trkpt lat="47.07541" lon="5.50126">
        <ele>233</ele>
        <time>2013-07-12T11:53:47Z</time>
      </trkpt>
      <trkpt lat="47.07542" lon="5.50141">
        <ele>233</ele>
        <time>2013-07-12T11:53:50Z</time>
      </trkpt>
      <trkpt lat="47.07544" lon="5.50157">
        <ele>233</ele>
        <time>2013-07-12T11:53:53Z</time>
      </trkpt>
      <trkpt lat="47.07542" lon="5.50171">
        <ele>233</ele>
        <time>2013-07-12T11:53:56Z</time>
      </trkpt>
      <trkpt lat="47.07542" lon="5.50185">
        <ele>233</ele>
        <time>2013-07-12T11:54:03Z</time>
      </trkpt>
      <trkpt lat="47.07544" lon="5.502">
        <ele>233</ele>
        <time>2013-07-12T11:54:08Z</time>
      </trkpt>
      <trkpt lat="47.07548" lon="5.50215">
        <ele>233</ele>
        <time>2013-07-12T11:54:11Z</time>
      </trkpt>
      <trkpt lat="47.07553" lon="5.50232">
        <ele>233</ele>
        <time>2013-07-12T11:54:14Z</time>
      </trkpt>
      <trkpt lat="47.07558" lon="5.50248">
        <ele>233</ele>
        <time>2013-07-12T11:54:17Z</time>
      </trkpt>
      <trkpt lat="47.07564" lon="5.50264">
        <ele>233</ele>
        <time>2013-07-12T11:54:20Z</time>
      </trkpt>
      <trkpt lat="47.07569" lon="5.50281">
        <ele>233</ele>
        <time>2013-07-12T11:54:23Z</time>
      </trkpt>
      <trkpt lat="47.07576" lon="5.50296">
        <ele>233</ele>
        <time>2013-07-12T11:54:26Z</time>
      </trkpt>
      <trkpt lat="47.07581" lon="5.50311">
        <ele>233</ele>
        <time>2013-07-12T11:54:29Z</time>
      </trkpt>
      <trkpt lat="47.07585" lon="5.50325">
        <ele>233</ele>
        <time>2013-07-12T11:54:32Z</time>
      </trkpt>
      <trkpt lat="47.07589" lon="5.50341">
        <ele>233</ele>
        <time>2013-07-12T11:54:35Z</time>
      </trkpt>
      <trkpt lat="47.07595" lon="5.50357">
        <ele>233</ele>
        <time>2013-07-12T11:54:38Z</time>
      </trkpt>
      <trkpt lat="47.076" lon="5.50372">
        <ele>233</ele>
        <time>2013-07-12T11:54:41Z</time>
      </trkpt>
      <trkpt lat="47.07604" lon="5.50386">
        <ele>233</ele>
        <time>2013-07-12T11:54:44Z</time>
      </trkpt>
      <trkpt lat="47.0761" lon="5.50401">
        <ele>233</ele>
        <time>2013-07-12T11:54:47Z</time>
      </trkpt>
      <trkpt lat="47.07614" lon="5.50416">
        <ele>233</ele>
        <time>2013-07-12T11:54:50Z</time>
      </trkpt>
      <trkpt lat="47.07619" lon="5.5043">
        <ele>239</ele>
        <time>2013-07-12T11:54:53Z</time>
      </trkpt>
      <trkpt lat="47.07623" lon="5.50445">
        <ele>239</ele>
        <time>2013-07-12T11:54:56Z</time>
      </trkpt>
      <trkpt lat="47.07629" lon="5.50462">
        <ele>239</ele>
        <time>2013-07-12T11:54:59Z</time>
      </trkpt>
      <trkpt lat="47.07633" lon="5.50474">
        <ele>239</ele>
        <time>2013-07-12T11:55:01Z</time>
      </trkpt>
      <trkpt lat="47.07638" lon="5.50486">
        <ele>239</ele>
        <time>2013-07-12T11:55:03Z</time>
      </trkpt>
      <trkpt lat="47.07642" lon="5.50498">
        <ele>239</ele>
        <time>2013-07-12T11:55:05Z</time>
      </trkpt>
      <trkpt lat="47.07647" lon="5.50517">
        <ele>239</ele>
        <time>2013-07-12T11:55:08Z</time>
      </trkpt>
      <trkpt lat="47.07652" lon="5.50529">
        <ele>239</ele>
        <time>2013-07-12T11:55:10Z</time>
      </trkpt>
      <trkpt lat="47.07657" lon="5.50542">
        <ele>239</ele>
        <time>2013-07-12T11:55:12Z</time>
      </trkpt>
      <trkpt lat="47.07663" lon="5.50555">
        <ele>239</ele>
        <time>2013-07-12T11:55:14Z</time>
      </trkpt>
      <trkpt lat="47.0767" lon="5.5057">
        <ele>239</ele>
        <time>2013-07-12T11:55:17Z</time>
      </trkpt>
      <trkpt lat="47.07676" lon="5.50583">
        <ele>239</ele>
        <time>2013-07-12T11:55:19Z</time>
      </trkpt>
      <trkpt lat="47.07683" lon="5.50597">
        <ele>239</ele>
        <time>2013-07-12T11:55:21Z</time>
      </trkpt>
      <trkpt lat="47.07688" lon="5.5061">
        <ele>245</ele>
        <time>2013-07-12T11:55:23Z</time>
      </trkpt>
      <trkpt lat="47.07693" lon="5.50622">
        <ele>245</ele>
        <time>2013-07-12T11:55:25Z</time>
      </trkpt>
      <trkpt lat="47.07697" lon="5.50635">
        <ele>245</ele>
        <time>2013-07-12T11:55:27Z</time>
      </trkpt>
      <trkpt lat="47.07704" lon="5.50652">
        <ele>245</ele>
        <time>2013-07-12T11:55:30Z</time>
      </trkpt>
      <trkpt lat="47.07709" lon="5.50664">
        <ele>245</ele>
        <time>2013-07-12T11:55:32Z</time>
      </trkpt>
      <trkpt lat="47.07716" lon="5.50676">
        <ele>245</ele>
        <time>2013-07-12T11:55:34Z</time>
      </trkpt>
      <trkpt lat="47.0772" lon="5.5069">
        <ele>245</ele>
        <time>2013-07-12T11:55:36Z</time>
      </trkpt>
      <trkpt lat="47.07726" lon="5.50701">
        <ele>245</ele>
        <time>2013-07-12T11:55:38Z</time>
      </trkpt>
      <trkpt lat="47.07731" lon="5.50713">
        <ele>245</ele>
        <time>2013-07-12T11:55:40Z</time>
      </trkpt>
      <trkpt lat="47.07736" lon="5.50726">
        <ele>245</ele>
        <time>2013-07-12T11:55:42Z</time>
      </trkpt>
      <trkpt lat="47.07742" lon="5.50738">
        <ele>245</ele>
        <time>2013-07-12T11:55:44Z</time>
      </trkpt>
      <trkpt lat="47.07749" lon="5.50751">
        <ele>245</ele>
        <time>2013-07-12T11:55:46Z</time>
      </trkpt>
      <trkpt lat="47.07754" lon="5.50763">
        <ele>245</ele>
        <time>2013-07-12T11:55:48Z</time>
      </trkpt>
      <trkpt lat="47.0776" lon="5.50776">
        <ele>245</ele>
        <time>2013-07-12T11:55:50Z</time>
      </trkpt>
      <trkpt lat="47.07768" lon="5.50789">
        <ele>245</ele>
        <time>2013-07-12T11:55:52Z</time>
      </trkpt>
      <trkpt lat="47.07774" lon="5.50801">
        <ele>245</ele>
        <time>2013-07-12T11:55:54Z</time>
      </trkpt>
      <trkpt lat="47.07781" lon="5.50818">
        <ele>245</ele>
        <time>2013-07-12T11:55:57Z</time>
      </trkpt>
      <trkpt lat="47.07787" lon="5.50829">
        <ele>245</ele>
        <time>2013-07-12T11:55:59Z</time>
      </trkpt>
      <trkpt lat="47.07794" lon="5.50842">
        <ele>245</ele>
        <time>2013-07-12T11:56:02Z</time>
      </trkpt>
      <trkpt lat="47.078" lon="5.50855">
        <ele>245</ele>
        <time>2013-07-12T11:56:05Z</time>
      </trkpt>
      <trkpt lat="47.07805" lon="5.50867">
        <ele>245</ele>
        <time>2013-07-12T11:56:08Z</time>
      </trkpt>
      <trkpt lat="47.07811" lon="5.50877">
        <ele>245</ele>
        <time>2013-07-12T11:56:12Z</time>
      </trkpt>
      <trkpt lat="47.07821" lon="5.50873">
        <ele>245</ele>
        <time>2013-07-12T11:56:15Z</time>
      </trkpt>
      <trkpt lat="47.07831" lon="5.50864">
        <ele>245</ele>
        <time>2013-07-12T11:56:18Z</time>
      </trkpt>
      <trkpt lat="47.07842" lon="5.50852">
        <ele>245</ele>
        <time>2013-07-12T11:56:21Z</time>
      </trkpt>
      <trkpt lat="47.07852" lon="5.50842">
        <ele>245</ele>
        <time>2013-07-12T11:56:24Z</time>
      </trkpt>
      <trkpt lat="47.07859" lon="5.50834">
        <ele>245</ele>
        <time>2013-07-12T11:56:26Z</time>
      </trkpt>
      <trkpt lat="47.07866" lon="5.50825">
        <ele>245</ele>
        <time>2013-07-12T11:56:28Z</time>
      </trkpt>
      <trkpt lat="47.07878" lon="5.50815">
        <ele>250</ele>
        <time>2013-07-12T11:56:31Z</time>
      </trkpt>
      <trkpt lat="47.07886" lon="5.50807">
        <ele>250</ele>
        <time>2013-07-12T11:56:33Z</time>
      </trkpt>
      <trkpt lat="47.07894" lon="5.50799">
        <ele>250</ele>
        <time>2013-07-12T11:56:35Z</time>
      </trkpt>
      <trkpt lat="47.07903" lon="5.50791">
        <ele>250</ele>
        <time>2013-07-12T11:56:37Z</time>
      </trkpt>
      <trkpt lat="47.07914" lon="5.5078">
        <ele>250</ele>
        <time>2013-07-12T11:56:40Z</time>
      </trkpt>
      <trkpt lat="47.07923" lon="5.50773">
        <ele>250</ele>
        <time>2013-07-12T11:56:42Z</time>
      </trkpt>
      <trkpt lat="47.07933" lon="5.50767">
        <ele>250</ele>
        <time>2013-07-12T11:56:44Z</time>
      </trkpt>
      <trkpt lat="47.07943" lon="5.50761">
        <ele>250</ele>
        <time>2013-07-12T11:56:46Z</time>
      </trkpt>
      <trkpt lat="47.07952" lon="5.50754">
        <ele>250</ele>
        <time>2013-07-12T11:56:48Z</time>
      </trkpt>
      <trkpt lat="47.0796" lon="5.50747">
        <ele>250</ele>
        <time>2013-07-12T11:56:50Z</time>
      </trkpt>
      <trkpt lat="47.07969" lon="5.50741">
        <ele>250</ele>
        <time>2013-07-12T11:56:52Z</time>
      </trkpt>
      <trkpt lat="47.07977" lon="5.50735">
        <ele>250</ele>
        <time>2013-07-12T11:56:54Z</time>
      </trkpt>
      <trkpt lat="47.07986" lon="5.50728">
        <ele>250</ele>
        <time>2013-07-12T11:56:56Z</time>
      </trkpt>
      <trkpt lat="47.07994" lon="5.50721">
        <ele>245</ele>
        <time>2013-07-12T11:56:58Z</time>
      </trkpt>
      <trkpt lat="47.08003" lon="5.5071">
        <ele>245</ele>
        <time>2013-07-12T11:57:01Z</time>
      </trkpt>
      <trkpt lat="47.08015" lon="5.50701">
        <ele>245</ele>
        <time>2013-07-12T11:57:04Z</time>
      </trkpt>
      <trkpt lat="47.08023" lon="5.50693">
        <ele>245</ele>
        <time>2013-07-12T11:57:06Z</time>
      </trkpt>
      <trkpt lat="47.08032" lon="5.50685">
        <ele>245</ele>
        <time>2013-07-12T11:57:08Z</time>
      </trkpt>
      <trkpt lat="47.0804" lon="5.50677">
        <ele>245</ele>
        <time>2013-07-12T11:57:10Z</time>
      </trkpt>
      <trkpt lat="47.08048" lon="5.50669">
        <ele>245</ele>
        <time>2013-07-12T11:57:12Z</time>
      </trkpt>
      <trkpt lat="47.08057" lon="5.5066">
        <ele>245</ele>
        <time>2013-07-12T11:57:14Z</time>
      </trkpt>
      <trkpt lat="47.08065" lon="5.50652">
        <ele>245</ele>
        <time>2013-07-12T11:57:16Z</time>
      </trkpt>
      <trkpt lat="47.08073" lon="5.50643">
        <ele>245</ele>
        <time>2013-07-12T11:57:18Z</time>
      </trkpt>
      <trkpt lat="47.0808" lon="5.50634">
        <ele>245</ele>
        <time>2013-07-12T11:57:20Z</time>
      </trkpt>
      <trkpt lat="47.08089" lon="5.50625">
        <ele>245</ele>
        <time>2013-07-12T11:57:22Z</time>
      </trkpt>
      <trkpt lat="47.08096" lon="5.50615">
        <ele>245</ele>
        <time>2013-07-12T11:57:24Z</time>
      </trkpt>
      <trkpt lat="47.08104" lon="5.50605">
        <ele>245</ele>
        <time>2013-07-12T11:57:26Z</time>
      </trkpt>
      <trkpt lat="47.08113" lon="5.50595">
        <ele>245</ele>
        <time>2013-07-12T11:57:28Z</time>
      </trkpt>
      <trkpt lat="47.08121" lon="5.50585">
        <ele>245</ele>
        <time>2013-07-12T11:57:30Z</time>
      </trkpt>
      <trkpt lat="47.08129" lon="5.50575">
        <ele>245</ele>
        <time>2013-07-12T11:57:32Z</time>
      </trkpt>
      <trkpt lat="47.08136" lon="5.50565">
        <ele>245</ele>
        <time>2013-07-12T11:57:34Z</time>
      </trkpt>
      <trkpt lat="47.08144" lon="5.50556">
        <ele>245</ele>
        <time>2013-07-12T11:57:36Z</time>
      </trkpt>
      <trkpt lat="47.08152" lon="5.50547">
        <ele>245</ele>
        <time>2013-07-12T11:57:38Z</time>
      </trkpt>
      <trkpt lat="47.0816" lon="5.50537">
        <ele>245</ele>
        <time>2013-07-12T11:57:40Z</time>
      </trkpt>
      <trkpt lat="47.08167" lon="5.50527">
        <ele>245</ele>
        <time>2013-07-12T11:57:42Z</time>
      </trkpt>
      <trkpt lat="47.08177" lon="5.50516">
        <ele>245</ele>
        <time>2013-07-12T11:57:45Z</time>
      </trkpt>
      <trkpt lat="47.08187" lon="5.50521">
        <ele>245</ele>
        <time>2013-07-12T11:57:48Z</time>
      </trkpt>
      <trkpt lat="47.08192" lon="5.50537">
        <ele>245</ele>
        <time>2013-07-12T11:57:51Z</time>
      </trkpt>
      <trkpt lat="47.08195" lon="5.50554">
        <ele>245</ele>
        <time>2013-07-12T11:57:54Z</time>
      </trkpt>
      <trkpt lat="47.08198" lon="5.50567">
        <ele>245</ele>
        <time>2013-07-12T11:57:56Z</time>
      </trkpt>
      <trkpt lat="47.08201" lon="5.50579">
        <ele>245</ele>
        <time>2013-07-12T11:57:58Z</time>
      </trkpt>
      <trkpt lat="47.08203" lon="5.50598">
        <ele>245</ele>
        <time>2013-07-12T11:58:01Z</time>
      </trkpt>
      <trkpt lat="47.08206" lon="5.50612">
        <ele>245</ele>
        <time>2013-07-12T11:58:03Z</time>
      </trkpt>
      <trkpt lat="47.08208" lon="5.50631">
        <ele>245</ele>
        <time>2013-07-12T11:58:06Z</time>
      </trkpt>
      <trkpt lat="47.0821" lon="5.5065">
        <ele>245</ele>
        <time>2013-07-12T11:58:09Z</time>
      </trkpt>
      <trkpt lat="47.08213" lon="5.50666">
        <ele>245</ele>
        <time>2013-07-12T11:58:12Z</time>
      </trkpt>
      <trkpt lat="47.0822" lon="5.50677">
        <ele>245</ele>
        <time>2013-07-12T11:58:16Z</time>
      </trkpt>
      <trkpt lat="47.08229" lon="5.50674">
        <ele>245</ele>
        <time>2013-07-12T11:58:19Z</time>
      </trkpt>
      <trkpt lat="47.08236" lon="5.50663">
        <ele>240</ele>
        <time>2013-07-12T11:58:22Z</time>
      </trkpt>
      <trkpt lat="47.08242" lon="5.50652">
        <ele>240</ele>
        <time>2013-07-12T11:58:24Z</time>
      </trkpt>
      <trkpt lat="47.08248" lon="5.50639">
        <ele>240</ele>
        <time>2013-07-12T11:58:26Z</time>
      </trkpt>
      <trkpt lat="47.08254" lon="5.50626">
        <ele>240</ele>
        <time>2013-07-12T11:58:28Z</time>
      </trkpt>
      <trkpt lat="47.08262" lon="5.50612">
        <ele>240</ele>
        <time>2013-07-12T11:58:30Z</time>
      </trkpt>
      <trkpt lat="47.08267" lon="5.50596">
        <ele>240</ele>
        <time>2013-07-12T11:58:32Z</time>
      </trkpt>
      <trkpt lat="47.08273" lon="5.50584">
        <ele>240</ele>
        <time>2013-07-12T11:58:34Z</time>
      </trkpt>
      <trkpt lat="47.08284" lon="5.50574">
        <ele>240</ele>
        <time>2013-07-12T11:58:37Z</time>
      </trkpt>
      <trkpt lat="47.08293" lon="5.50579">
        <ele>240</ele>
        <time>2013-07-12T11:58:39Z</time>
      </trkpt>
      <trkpt lat="47.08301" lon="5.50586">
        <ele>240</ele>
        <time>2013-07-12T11:58:41Z</time>
      </trkpt>
      <trkpt lat="47.08311" lon="5.50596">
        <ele>240</ele>
        <time>2013-07-12T11:58:44Z</time>
      </trkpt>
      <trkpt lat="47.08321" lon="5.50607">
        <ele>240</ele>
        <time>2013-07-12T11:58:47Z</time>
      </trkpt>
      <trkpt lat="47.08332" lon="5.50619">
        <ele>240</ele>
        <time>2013-07-12T11:58:50Z</time>
      </trkpt>
      <trkpt lat="47.08341" lon="5.50628">
        <ele>240</ele>
        <time>2013-07-12T11:58:52Z</time>
      </trkpt>
      <trkpt lat="47.08349" lon="5.50636">
        <ele>240</ele>
        <time>2013-07-12T11:58:54Z</time>
      </trkpt>
      <trkpt lat="47.08358" lon="5.50646">
        <ele>240</ele>
        <time>2013-07-12T11:58:56Z</time>
      </trkpt>
      <trkpt lat="47.08367" lon="5.50654">
        <ele>240</ele>
        <time>2013-07-12T11:58:58Z</time>
      </trkpt>
      <trkpt lat="47.08376" lon="5.50664">
        <ele>240</ele>
        <time>2013-07-12T11:59:00Z</time>
      </trkpt>
      <trkpt lat="47.08387" lon="5.50675">
        <ele>240</ele>
        <time>2013-07-12T11:59:02Z</time>
      </trkpt>
      <trkpt lat="47.08398" lon="5.50685">
        <ele>240</ele>
        <time>2013-07-12T11:59:04Z</time>
      </trkpt>
      <trkpt lat="47.08411" lon="5.50696">
        <ele>240</ele>
        <time>2013-07-12T11:59:06Z</time>
      </trkpt>
      <trkpt lat="47.08424" lon="5.50707">
        <ele>240</ele>
        <time>2013-07-12T11:59:08Z</time>
      </trkpt>
      <trkpt lat="47.08437" lon="5.50719">
        <ele>240</ele>
        <time>2013-07-12T11:59:10Z</time>
      </trkpt>
      <trkpt lat="47.0845" lon="5.50728">
        <ele>235</ele>
        <time>2013-07-12T11:59:12Z</time>
      </trkpt>
      <trkpt lat="47.08463" lon="5.50736">
        <ele>235</ele>
        <time>2013-07-12T11:59:14Z</time>
      </trkpt>
      <trkpt lat="47.08475" lon="5.50745">
        <ele>235</ele>
        <time>2013-07-12T11:59:16Z</time>
      </trkpt>
      <trkpt lat="47.08487" lon="5.50753">
        <ele>235</ele>
        <time>2013-07-12T11:59:18Z</time>
      </trkpt>
      <trkpt lat="47.08495" lon="5.50758">
        <ele>235</ele>
        <time>2013-07-12T11:59:20Z</time>
      </trkpt>
      <trkpt lat="47.08505" lon="5.50771">
        <ele>235</ele>
        <time>2013-07-12T11:59:23Z</time>
      </trkpt>
      <trkpt lat="47.08506" lon="5.50784">
        <ele>229</ele>
        <time>2013-07-12T11:59:25Z</time>
      </trkpt>
      <trkpt lat="47.08503" lon="5.508">
        <ele>229</ele>
        <time>2013-07-12T11:59:27Z</time>
      </trkpt>
      <trkpt lat="47.08497" lon="5.50819">
        <ele>224</ele>
        <time>2013-07-12T11:59:29Z</time>
      </trkpt>
      <trkpt lat="47.08489" lon="5.50839">
        <ele>224</ele>
        <time>2013-07-12T11:59:31Z</time>
      </trkpt>
      <trkpt lat="47.0848" lon="5.50857">
        <ele>224</ele>
        <time>2013-07-12T11:59:33Z</time>
      </trkpt>
      <trkpt lat="47.08469" lon="5.50874">
        <ele>219</ele>
        <time>2013-07-12T11:59:35Z</time>
      </trkpt>
      <trkpt lat="47.08459" lon="5.5089">
        <ele>219</ele>
        <time>2013-07-12T11:59:37Z</time>
      </trkpt>
      <trkpt lat="47.08446" lon="5.50907">
        <ele>219</ele>
        <time>2013-07-12T11:59:39Z</time>
      </trkpt>
      <trkpt lat="47.08437" lon="5.50929">
        <ele>219</ele>
        <time>2013-07-12T11:59:41Z</time>
      </trkpt>
      <trkpt lat="47.08428" lon="5.50949">
        <ele>212</ele>
        <time>2013-07-12T11:59:43Z</time>
      </trkpt>
      <trkpt lat="47.08419" lon="5.50971">
        <ele>212</ele>
        <time>2013-07-12T11:59:45Z</time>
      </trkpt>
      <trkpt lat="47.08411" lon="5.50992">
        <ele>212</ele>
        <time>2013-07-12T11:59:47Z</time>
      </trkpt>
      <trkpt lat="47.08406" lon="5.51016">
        <ele>212</ele>
        <time>2013-07-12T11:59:49Z</time>
      </trkpt>
      <trkpt lat="47.08408" lon="5.5104">
        <ele>212</ele>
        <time>2013-07-12T11:59:51Z</time>
      </trkpt>
      <trkpt lat="47.08406" lon="5.51064">
        <ele>207</ele>
        <time>2013-07-12T11:59:53Z</time>
      </trkpt>
      <trkpt lat="47.08401" lon="5.51087">
        <ele>207</ele>
        <time>2013-07-12T11:59:55Z</time>
      </trkpt>
      <trkpt lat="47.08392" lon="5.51106">
        <ele>207</ele>
        <time>2013-07-12T11:59:57Z</time>
      </trkpt>
      <trkpt lat="47.0838" lon="5.5112">
        <ele>207</ele>
        <time>2013-07-12T11:59:59Z</time>
      </trkpt>
      <trkpt lat="47.08364" lon="5.5113">
        <ele>207</ele>
        <time>2013-07-12T12:00:01Z</time>
      </trkpt>
      <trkpt lat="47.08349" lon="5.5114">
        <ele>207</ele>
        <time>2013-07-12T12:00:03Z</time>
      </trkpt>
      <trkpt lat="47.08333" lon="5.51151">
        <ele>207</ele>
        <time>2013-07-12T12:00:05Z</time>
      </trkpt>
      <trkpt lat="47.08321" lon="5.51166">
        <ele>207</ele>
        <time>2013-07-12T12:00:07Z</time>
      </trkpt>
      <trkpt lat="47.0831" lon="5.51182">
        <ele>207</ele>
        <time>2013-07-12T12:00:09Z</time>
      </trkpt>
      <trkpt lat="47.083" lon="5.51201">
        <ele>207</ele>
        <time>2013-07-12T12:00:11Z</time>
      </trkpt>
      <trkpt lat="47.08293" lon="5.51221">
        <ele>207</ele>
        <time>2013-07-12T12:00:13Z</time>
      </trkpt>
      <trkpt lat="47.08286" lon="5.51239">
        <ele>207</ele>
        <time>2013-07-12T12:00:15Z</time>
      </trkpt>
      <trkpt lat="47.08279" lon="5.51257">
        <ele>207</ele>
        <time>2013-07-12T12:00:17Z</time>
      </trkpt>
      <trkpt lat="47.08274" lon="5.51275">
        <ele>207</ele>
        <time>2013-07-12T12:00:19Z</time>
      </trkpt>
      <trkpt lat="47.08268" lon="5.51292">
        <ele>207</ele>
        <time>2013-07-12T12:00:21Z</time>
      </trkpt>
      <trkpt lat="47.0826" lon="5.51309">
        <ele>207</ele>
        <time>2013-07-12T12:00:23Z</time>
      </trkpt>
      <trkpt lat="47.08254" lon="5.51326">
        <ele>207</ele>
        <time>2013-07-12T12:00:25Z</time>
      </trkpt>
      <trkpt lat="47.08246" lon="5.51342">
        <ele>207</ele>
        <time>2013-07-12T12:00:27Z</time>
      </trkpt>
      <trkpt lat="47.08236" lon="5.51355">
        <ele>207</ele>
        <time>2013-07-12T12:00:29Z</time>
      </trkpt>
      <trkpt lat="47.08227" lon="5.51368">
        <ele>207</ele>
        <time>2013-07-12T12:00:31Z</time>
      </trkpt>
      <trkpt lat="47.08218" lon="5.51381">
        <ele>207</ele>
        <time>2013-07-12T12:00:33Z</time>
      </trkpt>
      <trkpt lat="47.08209" lon="5.51391">
        <ele>207</ele>
        <time>2013-07-12T12:00:35Z</time>
      </trkpt>
      <trkpt lat="47.08202" lon="5.514">
        <ele>207</ele>
        <time>2013-07-12T12:00:37Z</time>
      </trkpt>
      <trkpt lat="47.08194" lon="5.51409">
        <ele>207</ele>
        <time>2013-07-12T12:00:39Z</time>
      </trkpt>
      <trkpt lat="47.08184" lon="5.51422">
        <ele>207</ele>
        <time>2013-07-12T12:00:42Z</time>
      </trkpt>
      <trkpt lat="47.08176" lon="5.51434">
        <ele>214</ele>
        <time>2013-07-12T12:00:45Z</time>
      </trkpt>
      <trkpt lat="47.08169" lon="5.51445">
        <ele>214</ele>
        <time>2013-07-12T12:00:48Z</time>
      </trkpt>
      <trkpt lat="47.0816" lon="5.51455">
        <ele>214</ele>
        <time>2013-07-12T12:00:51Z</time>
      </trkpt>
      <trkpt lat="47.08151" lon="5.51466">
        <ele>214</ele>
        <time>2013-07-12T12:00:54Z</time>
      </trkpt>
      <trkpt lat="47.08143" lon="5.51476">
        <ele>214</ele>
        <time>2013-07-12T12:00:57Z</time>
      </trkpt>
      <trkpt lat="47.08132" lon="5.51486">
        <ele>214</ele>
        <time>2013-07-12T12:01:00Z</time>
      </trkpt>
      <trkpt lat="47.08121" lon="5.51495">
        <ele>214</ele>
        <time>2013-07-12T12:01:03Z</time>
      </trkpt>
      <trkpt lat="47.08111" lon="5.51508">
        <ele>220</ele>
        <time>2013-07-12T12:01:06Z</time>
      </trkpt>
      <trkpt lat="47.081" lon="5.51519">
        <ele>220</ele>
        <time>2013-07-12T12:01:09Z</time>
      </trkpt>
      <trkpt lat="47.08092" lon="5.51528">
        <ele>220</ele>
        <time>2013-07-12T12:01:11Z</time>
      </trkpt>
      <trkpt lat="47.08085" lon="5.51537">
        <ele>220</ele>
        <time>2013-07-12T12:01:13Z</time>
      </trkpt>
      <trkpt lat="47.08076" lon="5.51545">
        <ele>220</ele>
        <time>2013-07-12T12:01:15Z</time>
      </trkpt>
      <trkpt lat="47.08065" lon="5.51551">
        <ele>220</ele>
        <time>2013-07-12T12:01:17Z</time>
      </trkpt>
      <trkpt lat="47.08052" lon="5.51557">
        <ele>220</ele>
        <time>2013-07-12T12:01:19Z</time>
      </trkpt>
      <trkpt lat="47.08038" lon="5.51559">
        <ele>220</ele>
        <time>2013-07-12T12:01:21Z</time>
      </trkpt>
      <trkpt lat="47.08024" lon="5.51562">
        <ele>220</ele>
        <time>2013-07-12T12:01:23Z</time>
      </trkpt>
      <trkpt lat="47.08005" lon="5.51568">
        <ele>220</ele>
        <time>2013-07-12T12:01:26Z</time>
      </trkpt>
      <trkpt lat="47.07994" lon="5.51576">
        <ele>220</ele>
        <time>2013-07-12T12:01:28Z</time>
      </trkpt>
      <trkpt lat="47.07984" lon="5.51592">
        <ele>220</ele>
        <time>2013-07-12T12:01:30Z</time>
      </trkpt>
      <trkpt lat="47.07979" lon="5.51611">
        <ele>220</ele>
        <time>2013-07-12T12:01:32Z</time>
      </trkpt>
      <trkpt lat="47.07979" lon="5.51628">
        <ele>220</ele>
        <time>2013-07-12T12:01:34Z</time>
      </trkpt>
      <trkpt lat="47.07974" lon="5.51649">
        <ele>220</ele>
        <time>2013-07-12T12:01:36Z</time>
      </trkpt>
      <trkpt lat="47.07968" lon="5.51661">
        <ele>220</ele>
        <time>2013-07-12T12:01:37Z</time>
      </trkpt>
      <trkpt lat="47.07962" lon="5.51673">
        <ele>220</ele>
        <time>2013-07-12T12:01:38Z</time>
      </trkpt>
      <trkpt lat="47.07957" lon="5.51684">
        <ele>220</ele>
        <time>2013-07-12T12:01:39Z</time>
      </trkpt>
      <trkpt lat="47.07949" lon="5.51697">
        <ele>220</ele>
        <time>2013-07-12T12:01:40Z</time>
      </trkpt>
      <trkpt lat="47.07943" lon="5.51709">
        <ele>220</ele>
        <time>2013-07-12T12:01:41Z</time>
      </trkpt>
      <trkpt lat="47.07937" lon="5.51722">
        <ele>220</ele>
        <time>2013-07-12T12:01:42Z</time>
      </trkpt>
      <trkpt lat="47.07928" lon="5.51744">
        <ele>214</ele>
        <time>2013-07-12T12:01:44Z</time>
      </trkpt>
      <trkpt lat="47.0792" lon="5.51765">
        <ele>214</ele>
        <time>2013-07-12T12:01:46Z</time>
      </trkpt>
      <trkpt lat="47.07914" lon="5.51788">
        <ele>214</ele>
        <time>2013-07-12T12:01:48Z</time>
      </trkpt>
      <trkpt lat="47.07911" lon="5.51811">
        <ele>209</ele>
        <time>2013-07-12T12:01:50Z</time>
      </trkpt>
      <trkpt lat="47.07909" lon="5.51833">
        <ele>209</ele>
        <time>2013-07-12T12:01:52Z</time>
      </trkpt>
      <trkpt lat="47.07909" lon="5.51856">
        <ele>209</ele>
        <time>2013-07-12T12:01:54Z</time>
      </trkpt>
      <trkpt lat="47.07911" lon="5.51878">
        <ele>209</ele>
        <time>2013-07-12T12:01:56Z</time>
      </trkpt>
      <trkpt lat="47.07913" lon="5.519">
        <ele>209</ele>
        <time>2013-07-12T12:01:58Z</time>
      </trkpt>
      <trkpt lat="47.07915" lon="5.51921">
        <ele>209</ele>
        <time>2013-07-12T12:02:00Z</time>
      </trkpt>
      <trkpt lat="47.07916" lon="5.51942">
        <ele>209</ele>
        <time>2013-07-12T12:02:02Z</time>
      </trkpt>
      <trkpt lat="47.07917" lon="5.51963">
        <ele>209</ele>
        <time>2013-07-12T12:02:04Z</time>
      </trkpt>
      <trkpt lat="47.07919" lon="5.51984">
        <ele>209</ele>
        <time>2013-07-12T12:02:06Z</time>
      </trkpt>
      <trkpt lat="47.07919" lon="5.52005">
        <ele>209</ele>
        <time>2013-07-12T12:02:08Z</time>
      </trkpt>
      <trkpt lat="47.07919" lon="5.52024">
        <ele>209</ele>
        <time>2013-07-12T12:02:10Z</time>
      </trkpt>
      <trkpt lat="47.07919" lon="5.52044">
        <ele>209</ele>
        <time>2013-07-12T12:02:12Z</time>
      </trkpt>
      <trkpt lat="47.07921" lon="5.52062">
        <ele>209</ele>
        <time>2013-07-12T12:02:14Z</time>
      </trkpt>
      <trkpt lat="47.07921" lon="5.5208">
        <ele>209</ele>
        <time>2013-07-12T12:02:16Z</time>
      </trkpt>
      <trkpt lat="47.0792" lon="5.521">
        <ele>209</ele>
        <time>2013-07-12T12:02:18Z</time>
      </trkpt>
      <trkpt lat="47.07921" lon="5.52119">
        <ele>214</ele>
        <time>2013-07-12T12:02:20Z</time>
      </trkpt>
      <trkpt lat="47.07922" lon="5.52139">
        <ele>214</ele>
        <time>2013-07-12T12:02:22Z</time>
      </trkpt>
      <trkpt lat="47.07923" lon="5.52159">
        <ele>214</ele>
        <time>2013-07-12T12:02:24Z</time>
      </trkpt>
      <trkpt lat="47.07926" lon="5.52177">
        <ele>214</ele>
        <time>2013-07-12T12:02:26Z</time>
      </trkpt>
      <trkpt lat="47.07931" lon="5.52196">
        <ele>214</ele>
        <time>2013-07-12T12:02:28Z</time>
      </trkpt>
      <trkpt lat="47.07938" lon="5.52213">
        <ele>214</ele>
        <time>2013-07-12T12:02:30Z</time>
      </trkpt>
      <trkpt lat="47.07945" lon="5.52229">
        <ele>214</ele>
        <time>2013-07-12T12:02:32Z</time>
      </trkpt>
      <trkpt lat="47.07952" lon="5.52243">
        <ele>214</ele>
        <time>2013-07-12T12:02:34Z</time>
      </trkpt>
      <trkpt lat="47.0796" lon="5.52257">
        <ele>214</ele>
        <time>2013-07-12T12:02:36Z</time>
      </trkpt>
      <trkpt lat="47.0797" lon="5.52273">
        <ele>214</ele>
        <time>2013-07-12T12:02:38Z</time>
      </trkpt>
      <trkpt lat="47.07977" lon="5.52287">
        <ele>214</ele>
        <time>2013-07-12T12:02:40Z</time>
      </trkpt>
      <trkpt lat="47.0798" lon="5.52302">
        <ele>208</ele>
        <time>2013-07-12T12:02:42Z</time>
      </trkpt>
      <trkpt lat="47.0799" lon="5.52317">
        <ele>208</ele>
        <time>2013-07-12T12:02:44Z</time>
      </trkpt>
      <trkpt lat="47.07998" lon="5.5233">
        <ele>208</ele>
        <time>2013-07-12T12:02:46Z</time>
      </trkpt>
      <trkpt lat="47.0801" lon="5.52342">
        <ele>208</ele>
        <time>2013-07-12T12:02:48Z</time>
      </trkpt>
      <trkpt lat="47.08022" lon="5.52355">
        <ele>208</ele>
        <time>2013-07-12T12:02:50Z</time>
      </trkpt>
      <trkpt lat="47.0803" lon="5.5237">
        <ele>208</ele>
        <time>2013-07-12T12:02:52Z</time>
      </trkpt>
      <trkpt lat="47.08034" lon="5.52385">
        <ele>208</ele>
        <time>2013-07-12T12:02:54Z</time>
      </trkpt>
      <trkpt lat="47.08038" lon="5.52402">
        <ele>208</ele>
        <time>2013-07-12T12:02:56Z</time>
      </trkpt>
      <trkpt lat="47.08043" lon="5.52417">
        <ele>208</ele>
        <time>2013-07-12T12:02:58Z</time>
      </trkpt>
      <trkpt lat="47.08049" lon="5.52433">
        <ele>208</ele>
        <time>2013-07-12T12:03:00Z</time>
      </trkpt>
      <trkpt lat="47.08055" lon="5.52448">
        <ele>208</ele>
        <time>2013-07-12T12:03:02Z</time>
      </trkpt>
      <trkpt lat="47.08062" lon="5.52462">
        <ele>208</ele>
        <time>2013-07-12T12:03:04Z</time>
      </trkpt>
      <trkpt lat="47.08067" lon="5.52477">
        <ele>202</ele>
        <time>2013-07-12T12:03:06Z</time>
      </trkpt>
      <trkpt lat="47.08073" lon="5.52492">
        <ele>202</ele>
        <time>2013-07-12T12:03:08Z</time>
      </trkpt>
      <trkpt lat="47.08078" lon="5.52508">
        <ele>202</ele>
        <time>2013-07-12T12:03:10Z</time>
      </trkpt>
      <trkpt lat="47.08086" lon="5.52523">
        <ele>202</ele>
        <time>2013-07-12T12:03:12Z</time>
      </trkpt>
      <trkpt lat="47.08097" lon="5.52538">
        <ele>202</ele>
        <time>2013-07-12T12:03:14Z</time>
      </trkpt>
      <trkpt lat="47.08104" lon="5.52552">
        <ele>202</ele>
        <time>2013-07-12T12:03:16Z</time>
      </trkpt>
      <trkpt lat="47.0811" lon="5.52567">
        <ele>202</ele>
        <time>2013-07-12T12:03:18Z</time>
      </trkpt>
      <trkpt lat="47.08119" lon="5.52581">
        <ele>202</ele>
        <time>2013-07-12T12:03:20Z</time>
      </trkpt>
      <trkpt lat="47.08128" lon="5.52594">
        <ele>202</ele>
        <time>2013-07-12T12:03:22Z</time>
      </trkpt>
      <trkpt lat="47.08136" lon="5.52607">
        <ele>209</ele>
        <time>2013-07-12T12:03:24Z</time>
      </trkpt>
      <trkpt lat="47.08145" lon="5.52621">
        <ele>209</ele>
        <time>2013-07-12T12:03:26Z</time>
      </trkpt>
      <trkpt lat="47.08152" lon="5.52635">
        <ele>209</ele>
        <time>2013-07-12T12:03:28Z</time>
      </trkpt>
      <trkpt lat="47.08158" lon="5.5265">
        <ele>209</ele>
        <time>2013-07-12T12:03:30Z</time>
      </trkpt>
      <trkpt lat="47.08165" lon="5.52664">
        <ele>209</ele>
        <time>2013-07-12T12:03:32Z</time>
      </trkpt>
      <trkpt lat="47.08171" lon="5.5268">
        <ele>209</ele>
        <time>2013-07-12T12:03:34Z</time>
      </trkpt>
      <trkpt lat="47.08178" lon="5.52694">
        <ele>209</ele>
        <time>2013-07-12T12:03:36Z</time>
      </trkpt>
      <trkpt lat="47.08186" lon="5.52707">
        <ele>209</ele>
        <time>2013-07-12T12:03:38Z</time>
      </trkpt>
      <trkpt lat="47.08192" lon="5.52722">
        <ele>215</ele>
        <time>2013-07-12T12:03:40Z</time>
      </trkpt>
      <trkpt lat="47.08198" lon="5.52737">
        <ele>215</ele>
        <time>2013-07-12T12:03:42Z</time>
      </trkpt>
      <trkpt lat="47.08202" lon="5.52752">
        <ele>215</ele>
        <time>2013-07-12T12:03:44Z</time>
      </trkpt>
      <trkpt lat="47.08206" lon="5.52768">
        <ele>215</ele>
        <time>2013-07-12T12:03:46Z</time>
      </trkpt>
      <trkpt lat="47.08212" lon="5.52783">
        <ele>215</ele>
        <time>2013-07-12T12:03:48Z</time>
      </trkpt>
      <trkpt lat="47.08219" lon="5.528">
        <ele>215</ele>
        <time>2013-07-12T12:03:50Z</time>
      </trkpt>
      <trkpt lat="47.08224" lon="5.52816">
        <ele>209</ele>
        <time>2013-07-12T12:03:52Z</time>
      </trkpt>
      <trkpt lat="47.08231" lon="5.52832">
        <ele>209</ele>
        <time>2013-07-12T12:03:54Z</time>
      </trkpt>
      <trkpt lat="47.08235" lon="5.52849">
        <ele>209</ele>
        <time>2013-07-12T12:03:56Z</time>
      </trkpt>
      <trkpt lat="47.08239" lon="5.52867">
        <ele>209</ele>
        <time>2013-07-12T12:03:58Z</time>
      </trkpt>
      <trkpt lat="47.08242" lon="5.52885">
        <ele>209</ele>
        <time>2013-07-12T12:04:00Z</time>
      </trkpt>
      <trkpt lat="47.08248" lon="5.52902">
        <ele>209</ele>
        <time>2013-07-12T12:04:02Z</time>
      </trkpt>
      <trkpt lat="47.08251" lon="5.52919">
        <ele>209</ele>
        <time>2013-07-12T12:04:04Z</time>
      </trkpt>
      <trkpt lat="47.08253" lon="5.52936">
        <ele>209</ele>
        <time>2013-07-12T12:04:06Z</time>
      </trkpt>
      <trkpt lat="47.08256" lon="5.52953">
        <ele>209</ele>
        <time>2013-07-12T12:04:08Z</time>
      </trkpt>
      <trkpt lat="47.08261" lon="5.52969">
        <ele>209</ele>
        <time>2013-07-12T12:04:10Z</time>
      </trkpt>
      <trkpt lat="47.08266" lon="5.52985">
        <ele>209</ele>
        <time>2013-07-12T12:04:12Z</time>
      </trkpt>
      <trkpt lat="47.08267" lon="5.53003">
        <ele>209</ele>
        <time>2013-07-12T12:04:14Z</time>
      </trkpt>
      <trkpt lat="47.08267" lon="5.5302">
        <ele>209</ele>
        <time>2013-07-12T12:04:16Z</time>
      </trkpt>
      <trkpt lat="47.08271" lon="5.53035">
        <ele>209</ele>
        <time>2013-07-12T12:04:18Z</time>
      </trkpt>
      <trkpt lat="47.08278" lon="5.5305">
        <ele>209</ele>
        <time>2013-07-12T12:04:20Z</time>
      </trkpt>
      <trkpt lat="47.08285" lon="5.53063">
        <ele>209</ele>
        <time>2013-07-12T12:04:22Z</time>
      </trkpt>
      <trkpt lat="47.0829" lon="5.53079">
        <ele>214</ele>
        <time>2013-07-12T12:04:24Z</time>
      </trkpt>
      <trkpt lat="47.08297" lon="5.53096">
        <ele>214</ele>
        <time>2013-07-12T12:04:26Z</time>
      </trkpt>
      <trkpt lat="47.083" lon="5.53114">
        <ele>214</ele>
        <time>2013-07-12T12:04:28Z</time>
      </trkpt>
      <trkpt lat="47.08306" lon="5.53131">
        <ele>214</ele>
        <time>2013-07-12T12:04:30Z</time>
      </trkpt>
      <trkpt lat="47.08311" lon="5.53148">
        <ele>214</ele>
        <time>2013-07-12T12:04:32Z</time>
      </trkpt>
      <trkpt lat="47.08316" lon="5.53164">
        <ele>214</ele>
        <time>2013-07-12T12:04:34Z</time>
      </trkpt>
      <trkpt lat="47.08321" lon="5.5318">
        <ele>214</ele>
        <time>2013-07-12T12:04:36Z</time>
      </trkpt>
      <trkpt lat="47.08324" lon="5.53196">
        <ele>214</ele>
        <time>2013-07-12T12:04:38Z</time>
      </trkpt>
      <trkpt lat="47.08325" lon="5.5321">
        <ele>214</ele>
        <time>2013-07-12T12:04:40Z</time>
      </trkpt>
      <trkpt lat="47.08325" lon="5.53228">
        <ele>214</ele>
        <time>2013-07-12T12:04:42Z</time>
      </trkpt>
      <trkpt lat="47.08326" lon="5.53245">
        <ele>214</ele>
        <time>2013-07-12T12:04:44Z</time>
      </trkpt>
      <trkpt lat="47.08328" lon="5.53263">
        <ele>214</ele>
        <time>2013-07-12T12:04:46Z</time>
      </trkpt>
      <trkpt lat="47.0833" lon="5.5328">
        <ele>214</ele>
        <time>2013-07-12T12:04:48Z</time>
      </trkpt>
      <trkpt lat="47.0833" lon="5.53298">
        <ele>214</ele>
        <time>2013-07-12T12:04:50Z</time>
      </trkpt>
      <trkpt lat="47.08327" lon="5.53316">
        <ele>209</ele>
        <time>2013-07-12T12:04:52Z</time>
      </trkpt>
      <trkpt lat="47.08324" lon="5.53335">
        <ele>209</ele>
        <time>2013-07-12T12:04:54Z</time>
      </trkpt>
      <trkpt lat="47.08325" lon="5.53352">
        <ele>209</ele>
        <time>2013-07-12T12:04:56Z</time>
      </trkpt>
      <trkpt lat="47.08325" lon="5.5337">
        <ele>209</ele>
        <time>2013-07-12T12:04:58Z</time>
      </trkpt>
      <trkpt lat="47.08325" lon="5.53387">
        <ele>209</ele>
        <time>2013-07-12T12:05:00Z</time>
      </trkpt>
      <trkpt lat="47.08325" lon="5.53404">
        <ele>209</ele>
        <time>2013-07-12T12:05:02Z</time>
      </trkpt>
      <trkpt lat="47.08329" lon="5.53422">
        <ele>209</ele>
        <time>2013-07-12T12:05:04Z</time>
      </trkpt>
      <trkpt lat="47.08334" lon="5.53438">
        <ele>209</ele>
        <time>2013-07-12T12:05:06Z</time>
      </trkpt>
      <trkpt lat="47.08341" lon="5.53453">
        <ele>218</ele>
        <time>2013-07-12T12:05:08Z</time>
      </trkpt>
      <trkpt lat="47.08346" lon="5.5347">
        <ele>218</ele>
        <time>2013-07-12T12:05:10Z</time>
      </trkpt>
      <trkpt lat="47.08353" lon="5.53487">
        <ele>218</ele>
        <time>2013-07-12T12:05:12Z</time>
      </trkpt>
      <trkpt lat="47.08351" lon="5.53504">
        <ele>218</ele>
        <time>2013-07-12T12:05:14Z</time>
      </trkpt>
      <trkpt lat="47.08352" lon="5.53521">
        <ele>218</ele>
        <time>2013-07-12T12:05:16Z</time>
      </trkpt>
      <trkpt lat="47.08356" lon="5.53537">
        <ele>218</ele>
        <time>2013-07-12T12:05:18Z</time>
      </trkpt>
      <trkpt lat="47.08359" lon="5.53554">
        <ele>218</ele>
        <time>2013-07-12T12:05:20Z</time>
      </trkpt>
      <trkpt lat="47.0836" lon="5.53571">
        <ele>211</ele>
        <time>2013-07-12T12:05:22Z</time>
      </trkpt>
      <trkpt lat="47.08364" lon="5.53589">
        <ele>211</ele>
        <time>2013-07-12T12:05:24Z</time>
      </trkpt>
      <trkpt lat="47.08371" lon="5.53606">
        <ele>211</ele>
        <time>2013-07-12T12:05:26Z</time>
      </trkpt>
      <trkpt lat="47.08376" lon="5.53623">
        <ele>211</ele>
        <time>2013-07-12T12:05:28Z</time>
      </trkpt>
      <trkpt lat="47.08378" lon="5.53642">
        <ele>211</ele>
        <time>2013-07-12T12:05:30Z</time>
      </trkpt>
      <trkpt lat="47.08384" lon="5.53661">
        <ele>211</ele>
        <time>2013-07-12T12:05:32Z</time>
      </trkpt>
      <trkpt lat="47.08389" lon="5.53678">
        <ele>211</ele>
        <time>2013-07-12T12:05:34Z</time>
      </trkpt>
      <trkpt lat="47.08394" lon="5.53694">
        <ele>211</ele>
        <time>2013-07-12T12:05:36Z</time>
      </trkpt>
      <trkpt lat="47.08398" lon="5.53711">
        <ele>211</ele>
        <time>2013-07-12T12:05:38Z</time>
      </trkpt>
      <trkpt lat="47.08397" lon="5.53729">
        <ele>211</ele>
        <time>2013-07-12T12:05:40Z</time>
      </trkpt>
      <trkpt lat="47.08398" lon="5.53747">
        <ele>211</ele>
        <time>2013-07-12T12:05:42Z</time>
      </trkpt>
      <trkpt lat="47.08398" lon="5.53765">
        <ele>211</ele>
        <time>2013-07-12T12:05:44Z</time>
      </trkpt>
      <trkpt lat="47.08395" lon="5.53782">
        <ele>211</ele>
        <time>2013-07-12T12:05:46Z</time>
      </trkpt>
      <trkpt lat="47.08391" lon="5.538">
        <ele>211</ele>
        <time>2013-07-12T12:05:48Z</time>
      </trkpt>
      <trkpt lat="47.08383" lon="5.53817">
        <ele>211</ele>
        <time>2013-07-12T12:05:50Z</time>
      </trkpt>
      <trkpt lat="47.08374" lon="5.53831">
        <ele>211</ele>
        <time>2013-07-12T12:05:52Z</time>
      </trkpt>
      <trkpt lat="47.08365" lon="5.53846">
        <ele>211</ele>
        <time>2013-07-12T12:05:54Z</time>
      </trkpt>
      <trkpt lat="47.08357" lon="5.53862">
        <ele>211</ele>
        <time>2013-07-12T12:05:56Z</time>
      </trkpt>
      <trkpt lat="47.08349" lon="5.53877">
        <ele>211</ele>
        <time>2013-07-12T12:05:58Z</time>
      </trkpt>
      <trkpt lat="47.08343" lon="5.53893">
        <ele>211</ele>
        <time>2013-07-12T12:06:00Z</time>
      </trkpt>
      <trkpt lat="47.08338" lon="5.5391">
        <ele>211</ele>
        <time>2013-07-12T12:06:02Z</time>
      </trkpt>
      <trkpt lat="47.08337" lon="5.53927">
        <ele>211</ele>
        <time>2013-07-12T12:06:04Z</time>
      </trkpt>
      <trkpt lat="47.08337" lon="5.53944">
        <ele>211</ele>
        <time>2013-07-12T12:06:06Z</time>
      </trkpt>
      <trkpt lat="47.08338" lon="5.53961">
        <ele>211</ele>
        <time>2013-07-12T12:06:08Z</time>
      </trkpt>
      <trkpt lat="47.08342" lon="5.53976">
        <ele>211</ele>
        <time>2013-07-12T12:06:10Z</time>
      </trkpt>
      <trkpt lat="47.08348" lon="5.53991">
        <ele>218</ele>
        <time>2013-07-12T12:06:12Z</time>
      </trkpt>
      <trkpt lat="47.08354" lon="5.54007">
        <ele>218</ele>
        <time>2013-07-12T12:06:14Z</time>
      </trkpt>
      <trkpt lat="47.08364" lon="5.54023">
        <ele>228</ele>
        <time>2013-07-12T12:06:16Z</time>
      </trkpt>
      <trkpt lat="47.08368" lon="5.54039">
        <ele>228</ele>
        <time>2013-07-12T12:06:18Z</time>
      </trkpt>
      <trkpt lat="47.08373" lon="5.54055">
        <ele>234</ele>
        <time>2013-07-12T12:06:20Z</time>
      </trkpt>
      <trkpt lat="47.08377" lon="5.5407">
        <ele>234</ele>
        <time>2013-07-12T12:06:22Z</time>
      </trkpt>
      <trkpt lat="47.0838" lon="5.54085">
        <ele>234</ele>
        <time>2013-07-12T12:06:24Z</time>
      </trkpt>
      <trkpt lat="47.08379" lon="5.54101">
        <ele>234</ele>
        <time>2013-07-12T12:06:26Z</time>
      </trkpt>
      <trkpt lat="47.0838" lon="5.54119">
        <ele>234</ele>
        <time>2013-07-12T12:06:28Z</time>
      </trkpt>
      <trkpt lat="47.08386" lon="5.54138">
        <ele>234</ele>
        <time>2013-07-12T12:06:30Z</time>
      </trkpt>
      <trkpt lat="47.08389" lon="5.54157">
        <ele>234</ele>
        <time>2013-07-12T12:06:32Z</time>
      </trkpt>
      <trkpt lat="47.08395" lon="5.54175">
        <ele>228</ele>
        <time>2013-07-12T12:06:34Z</time>
      </trkpt>
      <trkpt lat="47.08402" lon="5.54193">
        <ele>228</ele>
        <time>2013-07-12T12:06:36Z</time>
      </trkpt>
      <trkpt lat="47.08406" lon="5.5421">
        <ele>228</ele>
        <time>2013-07-12T12:06:38Z</time>
      </trkpt>
      <trkpt lat="47.08406" lon="5.54227">
        <ele>222</ele>
        <time>2013-07-12T12:06:40Z</time>
      </trkpt>
      <trkpt lat="47.0841" lon="5.54243">
        <ele>222</ele>
        <time>2013-07-12T12:06:42Z</time>
      </trkpt>
      <trkpt lat="47.08413" lon="5.54259">
        <ele>222</ele>
        <time>2013-07-12T12:06:44Z</time>
      </trkpt>
      <trkpt lat="47.08418" lon="5.54275">
        <ele>217</ele>
        <time>2013-07-12T12:06:46Z</time>
      </trkpt>
      <trkpt lat="47.08426" lon="5.54288">
        <ele>217</ele>
        <time>2013-07-12T12:06:48Z</time>
      </trkpt>
      <trkpt lat="47.08434" lon="5.54299">
        <ele>217</ele>
        <time>2013-07-12T12:06:50Z</time>
      </trkpt>
      <trkpt lat="47.08443" lon="5.5431">
        <ele>217</ele>
        <time>2013-07-12T12:06:52Z</time>
      </trkpt>
      <trkpt lat="47.08454" lon="5.54318">
        <ele>217</ele>
        <time>2013-07-12T12:06:54Z</time>
      </trkpt>
      <trkpt lat="47.08464" lon="5.54323">
        <ele>217</ele>
        <time>2013-07-12T12:06:56Z</time>
      </trkpt>
      <trkpt lat="47.08473" lon="5.54331">
        <ele>217</ele>
        <time>2013-07-12T12:06:58Z</time>
      </trkpt>
      <trkpt lat="47.08484" lon="5.54339">
        <ele>217</ele>
        <time>2013-07-12T12:07:00Z</time>
      </trkpt>
      <trkpt lat="47.08495" lon="5.54349">
        <ele>211</ele>
        <time>2013-07-12T12:07:02Z</time>
      </trkpt>
      <trkpt lat="47.08506" lon="5.54357">
        <ele>211</ele>
        <time>2013-07-12T12:07:04Z</time>
      </trkpt>
      <trkpt lat="47.08517" lon="5.54365">
        <ele>211</ele>
        <time>2013-07-12T12:07:06Z</time>
      </trkpt>
      <trkpt lat="47.08527" lon="5.54372">
        <ele>211</ele>
        <time>2013-07-12T12:07:08Z</time>
      </trkpt>
      <trkpt lat="47.08538" lon="5.54381">
        <ele>211</ele>
        <time>2013-07-12T12:07:10Z</time>
      </trkpt>
      <trkpt lat="47.08549" lon="5.54388">
        <ele>217</ele>
        <time>2013-07-12T12:07:12Z</time>
      </trkpt>
      <trkpt lat="47.0856" lon="5.54396">
        <ele>217</ele>
        <time>2013-07-12T12:07:14Z</time>
      </trkpt>
      <trkpt lat="47.08573" lon="5.54402">
        <ele>217</ele>
        <time>2013-07-12T12:07:16Z</time>
      </trkpt>
      <trkpt lat="47.08585" lon="5.54406">
        <ele>217</ele>
        <time>2013-07-12T12:07:18Z</time>
      </trkpt>
      <trkpt lat="47.08597" lon="5.54409">
        <ele>217</ele>
        <time>2013-07-12T12:07:20Z</time>
      </trkpt>
      <trkpt lat="47.08609" lon="5.54408">
        <ele>217</ele>
        <time>2013-07-12T12:07:22Z</time>
      </trkpt>
      <trkpt lat="47.08621" lon="5.54408">
        <ele>217</ele>
        <time>2013-07-12T12:07:24Z</time>
      </trkpt>
      <trkpt lat="47.08632" lon="5.54407">
        <ele>217</ele>
        <time>2013-07-12T12:07:26Z</time>
      </trkpt>
      <trkpt lat="47.08643" lon="5.54409">
        <ele>217</ele>
        <time>2013-07-12T12:07:28Z</time>
      </trkpt>
      <trkpt lat="47.08656" lon="5.54414">
        <ele>217</ele>
        <time>2013-07-12T12:07:30Z</time>
      </trkpt>
      <trkpt lat="47.08669" lon="5.5442">
        <ele>217</ele>
        <time>2013-07-12T12:07:32Z</time>
      </trkpt>
      <trkpt lat="47.08681" lon="5.54427">
        <ele>217</ele>
        <time>2013-07-12T12:07:34Z</time>
      </trkpt>
      <trkpt lat="47.08692" lon="5.54432">
        <ele>217</ele>
        <time>2013-07-12T12:07:36Z</time>
      </trkpt>
      <trkpt lat="47.08702" lon="5.54439">
        <ele>217</ele>
        <time>2013-07-12T12:07:38Z</time>
      </trkpt>
      <trkpt lat="47.08713" lon="5.54448">
        <ele>217</ele>
        <time>2013-07-12T12:07:40Z</time>
      </trkpt>
      <trkpt lat="47.08722" lon="5.54459">
        <ele>217</ele>
        <time>2013-07-12T12:07:42Z</time>
      </trkpt>
      <trkpt lat="47.0873" lon="5.5447">
        <ele>223</ele>
        <time>2013-07-12T12:07:44Z</time>
      </trkpt>
      <trkpt lat="47.08743" lon="5.54485">
        <ele>223</ele>
        <time>2013-07-12T12:07:47Z</time>
      </trkpt>
      <trkpt lat="47.08754" lon="5.54494">
        <ele>223</ele>
        <time>2013-07-12T12:07:49Z</time>
      </trkpt>
      <trkpt lat="47.08765" lon="5.545">
        <ele>223</ele>
        <time>2013-07-12T12:07:51Z</time>
      </trkpt>
      <trkpt lat="47.08778" lon="5.54503">
        <ele>223</ele>
        <time>2013-07-12T12:07:53Z</time>
      </trkpt>
      <trkpt lat="47.08792" lon="5.54504">
        <ele>223</ele>
        <time>2013-07-12T12:07:55Z</time>
      </trkpt>
      <trkpt lat="47.08805" lon="5.54507">
        <ele>223</ele>
        <time>2013-07-12T12:07:57Z</time>
      </trkpt>
      <trkpt lat="47.08817" lon="5.54509">
        <ele>223</ele>
        <time>2013-07-12T12:07:59Z</time>
      </trkpt>
      <trkpt lat="47.08829" lon="5.54513">
        <ele>223</ele>
        <time>2013-07-12T12:08:01Z</time>
      </trkpt>
      <trkpt lat="47.08842" lon="5.54519">
        <ele>223</ele>
        <time>2013-07-12T12:08:03Z</time>
      </trkpt>
      <trkpt lat="47.08855" lon="5.54526">
        <ele>223</ele>
        <time>2013-07-12T12:08:05Z</time>
      </trkpt>
      <trkpt lat="47.08867" lon="5.54534">
        <ele>218</ele>
        <time>2013-07-12T12:08:07Z</time>
      </trkpt>
      <trkpt lat="47.08878" lon="5.54541">
        <ele>218</ele>
        <time>2013-07-12T12:08:09Z</time>
      </trkpt>
      <trkpt lat="47.08888" lon="5.54548">
        <ele>218</ele>
        <time>2013-07-12T12:08:11Z</time>
      </trkpt>
      <trkpt lat="47.08899" lon="5.54556">
        <ele>218</ele>
        <time>2013-07-12T12:08:13Z</time>
      </trkpt>
      <trkpt lat="47.08909" lon="5.54563">
        <ele>218</ele>
        <time>2013-07-12T12:08:15Z</time>
      </trkpt>
      <trkpt lat="47.08919" lon="5.5457">
        <ele>218</ele>
        <time>2013-07-12T12:08:17Z</time>
      </trkpt>
      <trkpt lat="47.08929" lon="5.54576">
        <ele>218</ele>
        <time>2013-07-12T12:08:19Z</time>
      </trkpt>
      <trkpt lat="47.08938" lon="5.54584">
        <ele>218</ele>
        <time>2013-07-12T12:08:21Z</time>
      </trkpt>
      <trkpt lat="47.08948" lon="5.54597">
        <ele>218</ele>
        <time>2013-07-12T12:08:23Z</time>
      </trkpt>
      <trkpt lat="47.08958" lon="5.54608">
        <ele>218</ele>
        <time>2013-07-12T12:08:25Z</time>
      </trkpt>
      <trkpt lat="47.08968" lon="5.5462">
        <ele>218</ele>
        <time>2013-07-12T12:08:27Z</time>
      </trkpt>
      <trkpt lat="47.08978" lon="5.54632">
        <ele>218</ele>
        <time>2013-07-12T12:08:29Z</time>
      </trkpt>
      <trkpt lat="47.08989" lon="5.54644">
        <ele>218</ele>
        <time>2013-07-12T12:08:31Z</time>
      </trkpt>
      <trkpt lat="47.08999" lon="5.54655">
        <ele>218</ele>
        <time>2013-07-12T12:08:33Z</time>
      </trkpt>
      <trkpt lat="47.09008" lon="5.54665">
        <ele>218</ele>
        <time>2013-07-12T12:08:35Z</time>
      </trkpt>
      <trkpt lat="47.09017" lon="5.54675">
        <ele>218</ele>
        <time>2013-07-12T12:08:37Z</time>
      </trkpt>
      <trkpt lat="47.09025" lon="5.54683">
        <ele>218</ele>
        <time>2013-07-12T12:08:39Z</time>
      </trkpt>
      <trkpt lat="47.09037" lon="5.5469">
        <ele>218</ele>
        <time>2013-07-12T12:08:41Z</time>
      </trkpt>
      <trkpt lat="47.09048" lon="5.54695">
        <ele>218</ele>
        <time>2013-07-12T12:08:43Z</time>
      </trkpt>
      <trkpt lat="47.09059" lon="5.547">
        <ele>218</ele>
        <time>2013-07-12T12:08:45Z</time>
      </trkpt>
      <trkpt lat="47.0907" lon="5.54704">
        <ele>218</ele>
        <time>2013-07-12T12:08:47Z</time>
      </trkpt>
      <trkpt lat="47.09081" lon="5.54711">
        <ele>218</ele>
        <time>2013-07-12T12:08:49Z</time>
      </trkpt>
      <trkpt lat="47.09092" lon="5.54719">
        <ele>218</ele>
        <time>2013-07-12T12:08:51Z</time>
      </trkpt>
      <trkpt lat="47.09103" lon="5.54729">
        <ele>218</ele>
        <time>2013-07-12T12:08:53Z</time>
      </trkpt>
      <trkpt lat="47.09113" lon="5.54736">
        <ele>218</ele>
        <time>2013-07-12T12:08:55Z</time>
      </trkpt>
      <trkpt lat="47.09122" lon="5.54744">
        <ele>218</ele>
        <time>2013-07-12T12:08:57Z</time>
      </trkpt>
      <trkpt lat="47.09132" lon="5.54753">
        <ele>218</ele>
        <time>2013-07-12T12:08:59Z</time>
      </trkpt>
      <trkpt lat="47.09141" lon="5.54762">
        <ele>218</ele>
        <time>2013-07-12T12:09:01Z</time>
      </trkpt>
      <trkpt lat="47.0915" lon="5.54767">
        <ele>218</ele>
        <time>2013-07-12T12:09:03Z</time>
      </trkpt>
      <trkpt lat="47.09161" lon="5.54774">
        <ele>218</ele>
        <time>2013-07-12T12:09:05Z</time>
      </trkpt>
      <trkpt lat="47.09172" lon="5.54787">
        <ele>218</ele>
        <time>2013-07-12T12:09:07Z</time>
      </trkpt>
      <trkpt lat="47.09183" lon="5.54799">
        <ele>218</ele>
        <time>2013-07-12T12:09:09Z</time>
      </trkpt>
      <trkpt lat="47.09192" lon="5.5481">
        <ele>218</ele>
        <time>2013-07-12T12:09:11Z</time>
      </trkpt>
      <trkpt lat="47.092" lon="5.54824">
        <ele>218</ele>
        <time>2013-07-12T12:09:13Z</time>
      </trkpt>
      <trkpt lat="47.09208" lon="5.54838">
        <ele>218</ele>
        <time>2013-07-12T12:09:15Z</time>
      </trkpt>
      <trkpt lat="47.09215" lon="5.54852">
        <ele>218</ele>
        <time>2013-07-12T12:09:17Z</time>
      </trkpt>
      <trkpt lat="47.09221" lon="5.54865">
        <ele>218</ele>
        <time>2013-07-12T12:09:19Z</time>
      </trkpt>
      <trkpt lat="47.09228" lon="5.5488">
        <ele>218</ele>
        <time>2013-07-12T12:09:21Z</time>
      </trkpt>
      <trkpt lat="47.09232" lon="5.54895">
        <ele>218</ele>
        <time>2013-07-12T12:09:23Z</time>
      </trkpt>
      <trkpt lat="47.09234" lon="5.54912">
        <ele>218</ele>
        <time>2013-07-12T12:09:25Z</time>
      </trkpt>
      <trkpt lat="47.09237" lon="5.54933">
        <ele>212</ele>
        <time>2013-07-12T12:09:27Z</time>
      </trkpt>
      <trkpt lat="47.09236" lon="5.54955">
        <ele>212</ele>
        <time>2013-07-12T12:09:29Z</time>
      </trkpt>
      <trkpt lat="47.09234" lon="5.54973">
        <ele>212</ele>
        <time>2013-07-12T12:09:31Z</time>
      </trkpt>
      <trkpt lat="47.09229" lon="5.5499">
        <ele>212</ele>
        <time>2013-07-12T12:09:33Z</time>
      </trkpt>
      <trkpt lat="47.09224" lon="5.55007">
        <ele>212</ele>
        <time>2013-07-12T12:09:35Z</time>
      </trkpt>
      <trkpt lat="47.09221" lon="5.55024">
        <ele>212</ele>
        <time>2013-07-12T12:09:37Z</time>
      </trkpt>
      <trkpt lat="47.09218" lon="5.55041">
        <ele>212</ele>
        <time>2013-07-12T12:09:39Z</time>
      </trkpt>
      <trkpt lat="47.09217" lon="5.55056">
        <ele>212</ele>
        <time>2013-07-12T12:09:41Z</time>
      </trkpt>
      <trkpt lat="47.09218" lon="5.55072">
        <ele>212</ele>
        <time>2013-07-12T12:09:43Z</time>
      </trkpt>
      <trkpt lat="47.09221" lon="5.55087">
        <ele>212</ele>
        <time>2013-07-12T12:09:45Z</time>
      </trkpt>
      <trkpt lat="47.09226" lon="5.55102">
        <ele>212</ele>
        <time>2013-07-12T12:09:47Z</time>
      </trkpt>
      <trkpt lat="47.0923" lon="5.55117">
        <ele>212</ele>
        <time>2013-07-12T12:09:49Z</time>
      </trkpt>
      <trkpt lat="47.09236" lon="5.55131">
        <ele>207</ele>
        <time>2013-07-12T12:09:51Z</time>
      </trkpt>
      <trkpt lat="47.09241" lon="5.55146">
        <ele>207</ele>
        <time>2013-07-12T12:09:53Z</time>
      </trkpt>
      <trkpt lat="47.09248" lon="5.55161">
        <ele>207</ele>
        <time>2013-07-12T12:09:55Z</time>
      </trkpt>
      <trkpt lat="47.09254" lon="5.55175">
        <ele>207</ele>
        <time>2013-07-12T12:09:57Z</time>
      </trkpt>
      <trkpt lat="47.09262" lon="5.55189">
        <ele>207</ele>
        <time>2013-07-12T12:09:59Z</time>
      </trkpt>
      <trkpt lat="47.09269" lon="5.55205">
        <ele>207</ele>
        <time>2013-07-12T12:10:01Z</time>
      </trkpt>
      <trkpt lat="47.09276" lon="5.55219">
        <ele>207</ele>
        <time>2013-07-12T12:10:03Z</time>
      </trkpt>
      <trkpt lat="47.09284" lon="5.55233">
        <ele>207</ele>
        <time>2013-07-12T12:10:05Z</time>
      </trkpt>
      <trkpt lat="47.09292" lon="5.55248">
        <ele>207</ele>
        <time>2013-07-12T12:10:07Z</time>
      </trkpt>
      <trkpt lat="47.093" lon="5.55261">
        <ele>207</ele>
        <time>2013-07-12T12:10:09Z</time>
      </trkpt>
      <trkpt lat="47.09309" lon="5.55275">
        <ele>207</ele>
        <time>2013-07-12T12:10:11Z</time>
      </trkpt>
      <trkpt lat="47.09317" lon="5.55289">
        <ele>207</ele>
        <time>2013-07-12T12:10:13Z</time>
      </trkpt>
      <trkpt lat="47.09326" lon="5.55302">
        <ele>207</ele>
        <time>2013-07-12T12:10:15Z</time>
      </trkpt>
      <trkpt lat="47.09334" lon="5.55314">
        <ele>207</ele>
        <time>2013-07-12T12:10:17Z</time>
      </trkpt>
      <trkpt lat="47.09342" lon="5.55327">
        <ele>207</ele>
        <time>2013-07-12T12:10:19Z</time>
      </trkpt>
      <trkpt lat="47.09351" lon="5.55339">
        <ele>207</ele>
        <time>2013-07-12T12:10:21Z</time>
      </trkpt>
      <trkpt lat="47.09359" lon="5.55352">
        <ele>207</ele>
        <time>2013-07-12T12:10:23Z</time>
      </trkpt>
      <trkpt lat="47.09367" lon="5.55366">
        <ele>207</ele>
        <time>2013-07-12T12:10:25Z</time>
      </trkpt>
      <trkpt lat="47.09375" lon="5.55378">
        <ele>207</ele>
        <time>2013-07-12T12:10:27Z</time>
      </trkpt>
      <trkpt lat="47.09383" lon="5.55392">
        <ele>207</ele>
        <time>2013-07-12T12:10:29Z</time>
      </trkpt>
      <trkpt lat="47.09391" lon="5.55404">
        <ele>207</ele>
        <time>2013-07-12T12:10:31Z</time>
      </trkpt>
      <trkpt lat="47.09399" lon="5.55418">
        <ele>207</ele>
        <time>2013-07-12T12:10:33Z</time>
      </trkpt>
      <trkpt lat="47.09406" lon="5.55432">
        <ele>207</ele>
        <time>2013-07-12T12:10:35Z</time>
      </trkpt>
      <trkpt lat="47.09413" lon="5.55447">
        <ele>207</ele>
        <time>2013-07-12T12:10:37Z</time>
      </trkpt>
      <trkpt lat="47.09419" lon="5.55462">
        <ele>207</ele>
        <time>2013-07-12T12:10:39Z</time>
      </trkpt>
      <trkpt lat="47.09426" lon="5.55476">
        <ele>207</ele>
        <time>2013-07-12T12:10:41Z</time>
      </trkpt>
      <trkpt lat="47.09432" lon="5.55489">
        <ele>207</ele>
        <time>2013-07-12T12:10:43Z</time>
      </trkpt>
      <trkpt lat="47.09437" lon="5.55503">
        <ele>207</ele>
        <time>2013-07-12T12:10:45Z</time>
      </trkpt>
      <trkpt lat="47.09443" lon="5.55517">
        <ele>207</ele>
        <time>2013-07-12T12:10:47Z</time>
      </trkpt>
      <trkpt lat="47.09448" lon="5.55532">
        <ele>207</ele>
        <time>2013-07-12T12:10:49Z</time>
      </trkpt>
      <trkpt lat="47.09454" lon="5.55546">
        <ele>207</ele>
        <time>2013-07-12T12:10:51Z</time>
      </trkpt>
      <trkpt lat="47.09459" lon="5.55561">
        <ele>207</ele>
        <time>2013-07-12T12:10:53Z</time>
      </trkpt>
      <trkpt lat="47.09465" lon="5.55577">
        <ele>207</ele>
        <time>2013-07-12T12:10:55Z</time>
      </trkpt>
      <trkpt lat="47.0947" lon="5.55592">
        <ele>207</ele>
        <time>2013-07-12T12:10:57Z</time>
      </trkpt>
      <trkpt lat="47.09475" lon="5.55607">
        <ele>207</ele>
        <time>2013-07-12T12:10:59Z</time>
      </trkpt>
      <trkpt lat="47.0948" lon="5.55623">
        <ele>207</ele>
        <time>2013-07-12T12:11:01Z</time>
      </trkpt>
      <trkpt lat="47.09484" lon="5.55638">
        <ele>207</ele>
        <time>2013-07-12T12:11:03Z</time>
      </trkpt>
      <trkpt lat="47.0949" lon="5.55653">
        <ele>207</ele>
        <time>2013-07-12T12:11:05Z</time>
      </trkpt>
      <trkpt lat="47.09495" lon="5.55667">
        <ele>207</ele>
        <time>2013-07-12T12:11:07Z</time>
      </trkpt>
      <trkpt lat="47.09502" lon="5.55681">
        <ele>207</ele>
        <time>2013-07-12T12:11:09Z</time>
      </trkpt>
      <trkpt lat="47.09509" lon="5.55692">
        <ele>207</ele>
        <time>2013-07-12T12:11:11Z</time>
      </trkpt>
      <trkpt lat="47.09517" lon="5.55703">
        <ele>207</ele>
        <time>2013-07-12T12:11:13Z</time>
      </trkpt>
      <trkpt lat="47.09526" lon="5.55713">
        <ele>207</ele>
        <time>2013-07-12T12:11:15Z</time>
      </trkpt>
      <trkpt lat="47.09534" lon="5.55723">
        <ele>207</ele>
        <time>2013-07-12T12:11:17Z</time>
      </trkpt>
      <trkpt lat="47.09543" lon="5.55732">
        <ele>207</ele>
        <time>2013-07-12T12:11:19Z</time>
      </trkpt>
      <trkpt lat="47.09551" lon="5.55741">
        <ele>207</ele>
        <time>2013-07-12T12:11:21Z</time>
      </trkpt>
      <trkpt lat="47.0956" lon="5.55749">
        <ele>207</ele>
        <time>2013-07-12T12:11:23Z</time>
      </trkpt>
      <trkpt lat="47.09568" lon="5.55757">
        <ele>207</ele>
        <time>2013-07-12T12:11:25Z</time>
      </trkpt>
      <trkpt lat="47.09575" lon="5.55766">
        <ele>207</ele>
        <time>2013-07-12T12:11:27Z</time>
      </trkpt>
      <trkpt lat="47.09583" lon="5.55773">
        <ele>212</ele>
        <time>2013-07-12T12:11:29Z</time>
      </trkpt>
      <trkpt lat="47.09591" lon="5.55781">
        <ele>212</ele>
        <time>2013-07-12T12:11:31Z</time>
      </trkpt>
      <trkpt lat="47.09602" lon="5.55792">
        <ele>212</ele>
        <time>2013-07-12T12:11:34Z</time>
      </trkpt>
      <trkpt lat="47.09609" lon="5.558">
        <ele>212</ele>
        <time>2013-07-12T12:11:36Z</time>
      </trkpt>
      <trkpt lat="47.09619" lon="5.55812">
        <ele>212</ele>
        <time>2013-07-12T12:11:39Z</time>
      </trkpt>
      <trkpt lat="47.0963" lon="5.55824">
        <ele>212</ele>
        <time>2013-07-12T12:11:42Z</time>
      </trkpt>
      <trkpt lat="47.0964" lon="5.55835">
        <ele>212</ele>
        <time>2013-07-12T12:11:45Z</time>
      </trkpt>
      <trkpt lat="47.09649" lon="5.55849">
        <ele>212</ele>
        <time>2013-07-12T12:11:48Z</time>
      </trkpt>
      <trkpt lat="47.09657" lon="5.55862">
        <ele>217</ele>
        <time>2013-07-12T12:11:51Z</time>
      </trkpt>
      <trkpt lat="47.09665" lon="5.55875">
        <ele>217</ele>
        <time>2013-07-12T12:11:54Z</time>
      </trkpt>
      <trkpt lat="47.09673" lon="5.55888">
        <ele>217</ele>
        <time>2013-07-12T12:11:57Z</time>
      </trkpt>
      <trkpt lat="47.09681" lon="5.559">
        <ele>217</ele>
        <time>2013-07-12T12:12:00Z</time>
      </trkpt>
      <trkpt lat="47.09689" lon="5.55913">
        <ele>217</ele>
        <time>2013-07-12T12:12:03Z</time>
      </trkpt>
      <trkpt lat="47.09696" lon="5.55926">
        <ele>217</ele>
        <time>2013-07-12T12:12:06Z</time>
      </trkpt>
      <trkpt lat="47.09703" lon="5.55939">
        <ele>224</ele>
        <time>2013-07-12T12:12:09Z</time>
      </trkpt>
      <trkpt lat="47.0971" lon="5.55952">
        <ele>224</ele>
        <time>2013-07-12T12:12:12Z</time>
      </trkpt>
      <trkpt lat="47.09718" lon="5.55964">
        <ele>224</ele>
        <time>2013-07-12T12:12:15Z</time>
      </trkpt>
      <trkpt lat="47.09724" lon="5.55975">
        <ele>224</ele>
        <time>2013-07-12T12:12:18Z</time>
      </trkpt>
      <trkpt lat="47.0973" lon="5.55986">
        <ele>224</ele>
        <time>2013-07-12T12:12:21Z</time>
      </trkpt>
      <trkpt lat="47.09737" lon="5.55998">
        <ele>224</ele>
        <time>2013-07-12T12:12:24Z</time>
      </trkpt>
      <trkpt lat="47.09745" lon="5.5601">
        <ele>224</ele>
        <time>2013-07-12T12:12:27Z</time>
      </trkpt>
      <trkpt lat="47.09751" lon="5.5602">
        <ele>224</ele>
        <time>2013-07-12T12:12:30Z</time>
      </trkpt>
      <trkpt lat="47.09758" lon="5.56031">
        <ele>224</ele>
        <time>2013-07-12T12:12:33Z</time>
      </trkpt>
      <trkpt lat="47.09765" lon="5.56042">
        <ele>229</ele>
        <time>2013-07-12T12:12:36Z</time>
      </trkpt>
      <trkpt lat="47.09772" lon="5.56053">
        <ele>229</ele>
        <time>2013-07-12T12:12:39Z</time>
      </trkpt>
      <trkpt lat="47.09778" lon="5.56064">
        <ele>229</ele>
        <time>2013-07-12T12:12:42Z</time>
      </trkpt>
      <trkpt lat="47.09786" lon="5.56075">
        <ele>229</ele>
        <time>2013-07-12T12:12:45Z</time>
      </trkpt>
      <trkpt lat="47.09792" lon="5.56086">
        <ele>229</ele>
        <time>2013-07-12T12:12:48Z</time>
      </trkpt>
      <trkpt lat="47.09799" lon="5.56097">
        <ele>229</ele>
        <time>2013-07-12T12:12:51Z</time>
      </trkpt>
      <trkpt lat="47.09805" lon="5.56108">
        <ele>229</ele>
        <time>2013-07-12T12:12:54Z</time>
      </trkpt>
      <trkpt lat="47.09812" lon="5.5612">
        <ele>235</ele>
        <time>2013-07-12T12:12:57Z</time>
      </trkpt>
      <trkpt lat="47.0982" lon="5.56132">
        <ele>235</ele>
        <time>2013-07-12T12:13:00Z</time>
      </trkpt>
      <trkpt lat="47.09828" lon="5.56139">
        <ele>235</ele>
        <time>2013-07-12T12:13:03Z</time>
      </trkpt>
      <trkpt lat="47.09838" lon="5.56144">
        <ele>235</ele>
        <time>2013-07-12T12:13:06Z</time>
      </trkpt>
      <trkpt lat="47.09847" lon="5.56152">
        <ele>235</ele>
        <time>2013-07-12T12:13:09Z</time>
      </trkpt>
      <trkpt lat="47.09857" lon="5.56159">
        <ele>235</ele>
        <time>2013-07-12T12:13:12Z</time>
      </trkpt>
      <trkpt lat="47.09869" lon="5.56168">
        <ele>235</ele>
        <time>2013-07-12T12:13:15Z</time>
      </trkpt>
      <trkpt lat="47.09881" lon="5.56177">
        <ele>235</ele>
        <time>2013-07-12T12:13:18Z</time>
      </trkpt>
      <trkpt lat="47.09889" lon="5.56184">
        <ele>235</ele>
        <time>2013-07-12T12:13:20Z</time>
      </trkpt>
      <trkpt lat="47.09899" lon="5.56191">
        <ele>235</ele>
        <time>2013-07-12T12:13:22Z</time>
      </trkpt>
      <trkpt lat="47.09908" lon="5.56198">
        <ele>235</ele>
        <time>2013-07-12T12:13:24Z</time>
      </trkpt>
      <trkpt lat="47.09918" lon="5.56204">
        <ele>235</ele>
        <time>2013-07-12T12:13:26Z</time>
      </trkpt>
      <trkpt lat="47.09929" lon="5.56208">
        <ele>235</ele>
        <time>2013-07-12T12:13:28Z</time>
      </trkpt>
      <trkpt lat="47.0994" lon="5.56212">
        <ele>235</ele>
        <time>2013-07-12T12:13:30Z</time>
      </trkpt>
      <trkpt lat="47.09951" lon="5.56216">
        <ele>235</ele>
        <time>2013-07-12T12:13:32Z</time>
      </trkpt>
      <trkpt lat="47.09964" lon="5.56222">
        <ele>235</ele>
        <time>2013-07-12T12:13:34Z</time>
      </trkpt>
      <trkpt lat="47.09977" lon="5.56225">
        <ele>235</ele>
        <time>2013-07-12T12:13:36Z</time>
      </trkpt>
      <trkpt lat="47.09991" lon="5.56224">
        <ele>235</ele>
        <time>2013-07-12T12:13:38Z</time>
      </trkpt>
      <trkpt lat="47.10005" lon="5.56219">
        <ele>235</ele>
        <time>2013-07-12T12:13:40Z</time>
      </trkpt>
      <trkpt lat="47.10019" lon="5.56214">
        <ele>229</ele>
        <time>2013-07-12T12:13:42Z</time>
      </trkpt>
      <trkpt lat="47.10032" lon="5.56214">
        <ele>229</ele>
        <time>2013-07-12T12:13:44Z</time>
      </trkpt>
      <trkpt lat="47.10047" lon="5.56214">
        <ele>229</ele>
        <time>2013-07-12T12:13:46Z</time>
      </trkpt>
      <trkpt lat="47.10063" lon="5.56217">
        <ele>229</ele>
        <time>2013-07-12T12:13:48Z</time>
      </trkpt>
      <trkpt lat="47.1008" lon="5.5622">
        <ele>229</ele>
        <time>2013-07-12T12:13:50Z</time>
      </trkpt>
      <trkpt lat="47.10097" lon="5.56224">
        <ele>223</ele>
        <time>2013-07-12T12:13:52Z</time>
      </trkpt>
      <trkpt lat="47.10106" lon="5.56225">
        <ele>223</ele>
        <time>2013-07-12T12:13:53Z</time>
      </trkpt>
      <trkpt lat="47.10116" lon="5.56226">
        <ele>223</ele>
        <time>2013-07-12T12:13:54Z</time>
      </trkpt>
      <trkpt lat="47.10125" lon="5.56227">
        <ele>223</ele>
        <time>2013-07-12T12:13:55Z</time>
      </trkpt>
      <trkpt lat="47.10135" lon="5.56229">
        <ele>223</ele>
        <time>2013-07-12T12:13:56Z</time>
      </trkpt>
      <trkpt lat="47.10145" lon="5.56231">
        <ele>223</ele>
        <time>2013-07-12T12:13:57Z</time>
      </trkpt>
      <trkpt lat="47.10155" lon="5.56232">
        <ele>218</ele>
        <time>2013-07-12T12:13:58Z</time>
      </trkpt>
      <trkpt lat="47.10165" lon="5.56233">
        <ele>218</ele>
        <time>2013-07-12T12:13:59Z</time>
      </trkpt>
      <trkpt lat="47.10175" lon="5.56234">
        <ele>218</ele>
        <time>2013-07-12T12:14:00Z</time>
      </trkpt>
      <trkpt lat="47.10184" lon="5.56236">
        <ele>218</ele>
        <time>2013-07-12T12:14:01Z</time>
      </trkpt>
      <trkpt lat="47.10194" lon="5.56237">
        <ele>218</ele>
        <time>2013-07-12T12:14:02Z</time>
      </trkpt>
      <trkpt lat="47.10203" lon="5.5624">
        <ele>218</ele>
        <time>2013-07-12T12:14:03Z</time>
      </trkpt>
      <trkpt lat="47.10212" lon="5.56242">
        <ele>218</ele>
        <time>2013-07-12T12:14:04Z</time>
      </trkpt>
      <trkpt lat="47.10227" lon="5.56249">
        <ele>213</ele>
        <time>2013-07-12T12:14:06Z</time>
      </trkpt>
      <trkpt lat="47.1024" lon="5.56258">
        <ele>213</ele>
        <time>2013-07-12T12:14:08Z</time>
      </trkpt>
      <trkpt lat="47.10249" lon="5.56264">
        <ele>213</ele>
        <time>2013-07-12T12:14:10Z</time>
      </trkpt>
      <trkpt lat="47.10254" lon="5.56276">
        <ele>213</ele>
        <time>2013-07-12T12:14:12Z</time>
      </trkpt>
      <trkpt lat="47.10254" lon="5.56293">
        <ele>213</ele>
        <time>2013-07-12T12:14:14Z</time>
      </trkpt>
      <trkpt lat="47.10254" lon="5.56309">
        <ele>213</ele>
        <time>2013-07-12T12:14:16Z</time>
      </trkpt>
      <trkpt lat="47.10256" lon="5.56324">
        <ele>213</ele>
        <time>2013-07-12T12:14:18Z</time>
      </trkpt>
      <trkpt lat="47.10262" lon="5.56337">
        <ele>213</ele>
        <time>2013-07-12T12:14:20Z</time>
      </trkpt>
      <trkpt lat="47.10265" lon="5.56351">
        <ele>213</ele>
        <time>2013-07-12T12:14:22Z</time>
      </trkpt>
      <trkpt lat="47.10268" lon="5.56365">
        <ele>213</ele>
        <time>2013-07-12T12:14:24Z</time>
      </trkpt>
      <trkpt lat="47.10269" lon="5.5638">
        <ele>213</ele>
        <time>2013-07-12T12:14:26Z</time>
      </trkpt>
      <trkpt lat="47.10267" lon="5.56394">
        <ele>213</ele>
        <time>2013-07-12T12:14:28Z</time>
      </trkpt>
      <trkpt lat="47.10263" lon="5.56407">
        <ele>213</ele>
        <time>2013-07-12T12:14:30Z</time>
      </trkpt>
      <trkpt lat="47.1026" lon="5.56419">
        <ele>213</ele>
        <time>2013-07-12T12:14:32Z</time>
      </trkpt>
      <trkpt lat="47.10255" lon="5.56436">
        <ele>213</ele>
        <time>2013-07-12T12:14:35Z</time>
      </trkpt>
      <trkpt lat="47.1025" lon="5.56453">
        <ele>213</ele>
        <time>2013-07-12T12:14:38Z</time>
      </trkpt>
      <trkpt lat="47.10245" lon="5.56469">
        <ele>213</ele>
        <time>2013-07-12T12:14:41Z</time>
      </trkpt>
      <trkpt lat="47.10239" lon="5.56484">
        <ele>213</ele>
        <time>2013-07-12T12:14:44Z</time>
      </trkpt>
      <trkpt lat="47.10231" lon="5.56499">
        <ele>213</ele>
        <time>2013-07-12T12:14:47Z</time>
      </trkpt>
      <trkpt lat="47.10225" lon="5.56515">
        <ele>213</ele>
        <time>2013-07-12T12:14:50Z</time>
      </trkpt>
      <trkpt lat="47.10218" lon="5.56532">
        <ele>213</ele>
        <time>2013-07-12T12:14:53Z</time>
      </trkpt>
      <trkpt lat="47.10213" lon="5.56547">
        <ele>218</ele>
        <time>2013-07-12T12:14:56Z</time>
      </trkpt>
      <trkpt lat="47.10206" lon="5.56563">
        <ele>218</ele>
        <time>2013-07-12T12:14:59Z</time>
      </trkpt>
      <trkpt lat="47.102" lon="5.56577">
        <ele>218</ele>
        <time>2013-07-12T12:15:02Z</time>
      </trkpt>
      <trkpt lat="47.10195" lon="5.56593">
        <ele>218</ele>
        <time>2013-07-12T12:15:05Z</time>
      </trkpt>
      <trkpt lat="47.10192" lon="5.56609">
        <ele>218</ele>
        <time>2013-07-12T12:15:08Z</time>
      </trkpt>
      <trkpt lat="47.10195" lon="5.56623">
        <ele>218</ele>
        <time>2013-07-12T12:15:11Z</time>
      </trkpt>
      <trkpt lat="47.10203" lon="5.56629">
        <ele>218</ele>
        <time>2013-07-12T12:15:14Z</time>
      </trkpt>
      <trkpt lat="47.10213" lon="5.56626">
        <ele>223</ele>
        <time>2013-07-12T12:15:17Z</time>
      </trkpt>
      <trkpt lat="47.10222" lon="5.5662">
        <ele>223</ele>
        <time>2013-07-12T12:15:20Z</time>
      </trkpt>
      <trkpt lat="47.10231" lon="5.56613">
        <ele>223</ele>
        <time>2013-07-12T12:15:23Z</time>
      </trkpt>
      <trkpt lat="47.1024" lon="5.56607">
        <ele>223</ele>
        <time>2013-07-12T12:15:26Z</time>
      </trkpt>
      <trkpt lat="47.10249" lon="5.56601">
        <ele>223</ele>
        <time>2013-07-12T12:15:29Z</time>
      </trkpt>
      <trkpt lat="47.10257" lon="5.56593">
        <ele>229</ele>
        <time>2013-07-12T12:15:32Z</time>
      </trkpt>
      <trkpt lat="47.10265" lon="5.56584">
        <ele>229</ele>
        <time>2013-07-12T12:15:35Z</time>
      </trkpt>
      <trkpt lat="47.10274" lon="5.56575">
        <ele>229</ele>
        <time>2013-07-12T12:15:38Z</time>
      </trkpt>
      <trkpt lat="47.10283" lon="5.56566">
        <ele>229</ele>
        <time>2013-07-12T12:15:41Z</time>
      </trkpt>
      <trkpt lat="47.10292" lon="5.56558">
        <ele>229</ele>
        <time>2013-07-12T12:15:44Z</time>
      </trkpt>
      <trkpt lat="47.10301" lon="5.56549">
        <ele>229</ele>
        <time>2013-07-12T12:15:47Z</time>
      </trkpt>
      <trkpt lat="47.1031" lon="5.56541">
        <ele>229</ele>
        <time>2013-07-12T12:15:50Z</time>
      </trkpt>
      <trkpt lat="47.10319" lon="5.56534">
        <ele>229</ele>
        <time>2013-07-12T12:15:53Z</time>
      </trkpt>
      <trkpt lat="47.10329" lon="5.5653">
        <ele>229</ele>
        <time>2013-07-12T12:15:56Z</time>
      </trkpt>
      <trkpt lat="47.10338" lon="5.56524">
        <ele>229</ele>
        <time>2013-07-12T12:15:59Z</time>
      </trkpt>
      <trkpt lat="47.10346" lon="5.5652">
        <ele>229</ele>
        <time>2013-07-12T12:16:02Z</time>
      </trkpt>
      <trkpt lat="47.10356" lon="5.56515">
        <ele>229</ele>
        <time>2013-07-12T12:16:05Z</time>
      </trkpt>
      <trkpt lat="47.10365" lon="5.56511">
        <ele>229</ele>
        <time>2013-07-12T12:16:08Z</time>
      </trkpt>
      <trkpt lat="47.10374" lon="5.56504">
        <ele>229</ele>
        <time>2013-07-12T12:16:11Z</time>
      </trkpt>
      <trkpt lat="47.10383" lon="5.56494">
        <ele>229</ele>
        <time>2013-07-12T12:16:14Z</time>
      </trkpt>
      <trkpt lat="47.10391" lon="5.5648">
        <ele>229</ele>
        <time>2013-07-12T12:16:17Z</time>
      </trkpt>
      <trkpt lat="47.10397" lon="5.56469">
        <ele>229</ele>
        <time>2013-07-12T12:16:19Z</time>
      </trkpt>
      <trkpt lat="47.10406" lon="5.56458">
        <ele>229</ele>
        <time>2013-07-12T12:16:21Z</time>
      </trkpt>
      <trkpt lat="47.10416" lon="5.5645">
        <ele>235</ele>
        <time>2013-07-12T12:16:23Z</time>
      </trkpt>
      <trkpt lat="47.10427" lon="5.56445">
        <ele>235</ele>
        <time>2013-07-12T12:16:25Z</time>
      </trkpt>
      <trkpt lat="47.10438" lon="5.56444">
        <ele>235</ele>
        <time>2013-07-12T12:16:27Z</time>
      </trkpt>
      <trkpt lat="47.10451" lon="5.56444">
        <ele>235</ele>
        <time>2013-07-12T12:16:29Z</time>
      </trkpt>
      <trkpt lat="47.10462" lon="5.56444">
        <ele>235</ele>
        <time>2013-07-12T12:16:31Z</time>
      </trkpt>
      <trkpt lat="47.10473" lon="5.56443">
        <ele>235</ele>
        <time>2013-07-12T12:16:33Z</time>
      </trkpt>
      <trkpt lat="47.10484" lon="5.56443">
        <ele>235</ele>
        <time>2013-07-12T12:16:35Z</time>
      </trkpt>
      <trkpt lat="47.10494" lon="5.56441">
        <ele>235</ele>
        <time>2013-07-12T12:16:37Z</time>
      </trkpt>
      <trkpt lat="47.10505" lon="5.56437">
        <ele>235</ele>
        <time>2013-07-12T12:16:39Z</time>
      </trkpt>
      <trkpt lat="47.10515" lon="5.56432">
        <ele>235</ele>
        <time>2013-07-12T12:16:41Z</time>
      </trkpt>
      <trkpt lat="47.10526" lon="5.56425">
        <ele>235</ele>
        <time>2013-07-12T12:16:43Z</time>
      </trkpt>
      <trkpt lat="47.10538" lon="5.56417">
        <ele>235</ele>
        <time>2013-07-12T12:16:45Z</time>
      </trkpt>
      <trkpt lat="47.10553" lon="5.5641">
        <ele>235</ele>
        <time>2013-07-12T12:16:47Z</time>
      </trkpt>
      <trkpt lat="47.10568" lon="5.56409">
        <ele>235</ele>
        <time>2013-07-12T12:16:49Z</time>
      </trkpt>
      <trkpt lat="47.10583" lon="5.56415">
        <ele>235</ele>
        <time>2013-07-12T12:16:51Z</time>
      </trkpt>
      <trkpt lat="47.10595" lon="5.56423">
        <ele>235</ele>
        <time>2013-07-12T12:16:53Z</time>
      </trkpt>
      <trkpt lat="47.10606" lon="5.56431">
        <ele>235</ele>
        <time>2013-07-12T12:16:55Z</time>
      </trkpt>
      <trkpt lat="47.10616" lon="5.56436">
        <ele>235</ele>
        <time>2013-07-12T12:16:57Z</time>
      </trkpt>
      <trkpt lat="47.10625" lon="5.56442">
        <ele>235</ele>
        <time>2013-07-12T12:16:59Z</time>
      </trkpt>
      <trkpt lat="47.10634" lon="5.56447">
        <ele>235</ele>
        <time>2013-07-12T12:17:01Z</time>
      </trkpt>
      <trkpt lat="47.10643" lon="5.56452">
        <ele>235</ele>
        <time>2013-07-12T12:17:03Z</time>
      </trkpt>
      <trkpt lat="47.10651" lon="5.56458">
        <ele>235</ele>
        <time>2013-07-12T12:17:05Z</time>
      </trkpt>
      <trkpt lat="47.1066" lon="5.56463">
        <ele>235</ele>
        <time>2013-07-12T12:17:07Z</time>
      </trkpt>
      <trkpt lat="47.10669" lon="5.56469">
        <ele>235</ele>
        <time>2013-07-12T12:17:09Z</time>
      </trkpt>
      <trkpt lat="47.10678" lon="5.56475">
        <ele>235</ele>
        <time>2013-07-12T12:17:11Z</time>
      </trkpt>
      <trkpt lat="47.10687" lon="5.56481">
        <ele>235</ele>
        <time>2013-07-12T12:17:13Z</time>
      </trkpt>
      <trkpt lat="47.10697" lon="5.56487">
        <ele>235</ele>
        <time>2013-07-12T12:17:15Z</time>
      </trkpt>
      <trkpt lat="47.10706" lon="5.56493">
        <ele>235</ele>
        <time>2013-07-12T12:17:17Z</time>
      </trkpt>
      <trkpt lat="47.10714" lon="5.56498">
        <ele>235</ele>
        <time>2013-07-12T12:17:19Z</time>
      </trkpt>
      <trkpt lat="47.10726" lon="5.56505">
        <ele>235</ele>
        <time>2013-07-12T12:17:22Z</time>
      </trkpt>
      <trkpt lat="47.10736" lon="5.56513">
        <ele>235</ele>
        <time>2013-07-12T12:17:25Z</time>
      </trkpt>
      <trkpt lat="47.10748" lon="5.56519">
        <ele>235</ele>
        <time>2013-07-12T12:17:28Z</time>
      </trkpt>
      <trkpt lat="47.10759" lon="5.56527">
        <ele>235</ele>
        <time>2013-07-12T12:17:31Z</time>
      </trkpt>
      <trkpt lat="47.10768" lon="5.56532">
        <ele>235</ele>
        <time>2013-07-12T12:17:33Z</time>
      </trkpt>
      <trkpt lat="47.1078" lon="5.5654">
        <ele>235</ele>
        <time>2013-07-12T12:17:36Z</time>
      </trkpt>
      <trkpt lat="47.10789" lon="5.56545">
        <ele>235</ele>
        <time>2013-07-12T12:17:38Z</time>
      </trkpt>
      <trkpt lat="47.10798" lon="5.5655">
        <ele>235</ele>
        <time>2013-07-12T12:17:40Z</time>
      </trkpt>
      <trkpt lat="47.10807" lon="5.56558">
        <ele>235</ele>
        <time>2013-07-12T12:17:42Z</time>
      </trkpt>
      <trkpt lat="47.10816" lon="5.56567">
        <ele>235</ele>
        <time>2013-07-12T12:17:44Z</time>
      </trkpt>
      <trkpt lat="47.10824" lon="5.56576">
        <ele>235</ele>
        <time>2013-07-12T12:17:46Z</time>
      </trkpt>
      <trkpt lat="47.10833" lon="5.56586">
        <ele>235</ele>
        <time>2013-07-12T12:17:48Z</time>
      </trkpt>
      <trkpt lat="47.10841" lon="5.56597">
        <ele>235</ele>
        <time>2013-07-12T12:17:50Z</time>
      </trkpt>
      <trkpt lat="47.10849" lon="5.56607">
        <ele>235</ele>
        <time>2013-07-12T12:17:52Z</time>
      </trkpt>
      <trkpt lat="47.10858" lon="5.56617">
        <ele>235</ele>
        <time>2013-07-12T12:17:54Z</time>
      </trkpt>
      <trkpt lat="47.10867" lon="5.56626">
        <ele>235</ele>
        <time>2013-07-12T12:17:56Z</time>
      </trkpt>
      <trkpt lat="47.10876" lon="5.56636">
        <ele>235</ele>
        <time>2013-07-12T12:17:58Z</time>
      </trkpt>
      <trkpt lat="47.10885" lon="5.56645">
        <ele>235</ele>
        <time>2013-07-12T12:18:00Z</time>
      </trkpt>
      <trkpt lat="47.10895" lon="5.56654">
        <ele>235</ele>
        <time>2013-07-12T12:18:02Z</time>
      </trkpt>
      <trkpt lat="47.10904" lon="5.56663">
        <ele>235</ele>
        <time>2013-07-12T12:18:04Z</time>
      </trkpt>
      <trkpt lat="47.10914" lon="5.56673">
        <ele>235</ele>
        <time>2013-07-12T12:18:06Z</time>
      </trkpt>
      <trkpt lat="47.10923" lon="5.56682">
        <ele>235</ele>
        <time>2013-07-12T12:18:08Z</time>
      </trkpt>
      <trkpt lat="47.10934" lon="5.56692">
        <ele>235</ele>
        <time>2013-07-12T12:18:10Z</time>
      </trkpt>
      <trkpt lat="47.10945" lon="5.56703">
        <ele>235</ele>
        <time>2013-07-12T12:18:12Z</time>
      </trkpt>
      <trkpt lat="47.10957" lon="5.56714">
        <ele>235</ele>
        <time>2013-07-12T12:18:14Z</time>
      </trkpt>
      <trkpt lat="47.10969" lon="5.56725">
        <ele>235</ele>
        <time>2013-07-12T12:18:16Z</time>
      </trkpt>
      <trkpt lat="47.10981" lon="5.56737">
        <ele>235</ele>
        <time>2013-07-12T12:18:18Z</time>
      </trkpt>
      <trkpt lat="47.10992" lon="5.5675">
        <ele>235</ele>
        <time>2013-07-12T12:18:20Z</time>
      </trkpt>
      <trkpt lat="47.11003" lon="5.56762">
        <ele>235</ele>
        <time>2013-07-12T12:18:22Z</time>
      </trkpt>
      <trkpt lat="47.11013" lon="5.56777">
        <ele>235</ele>
        <time>2013-07-12T12:18:24Z</time>
      </trkpt>
      <trkpt lat="47.11022" lon="5.56791">
        <ele>235</ele>
        <time>2013-07-12T12:18:26Z</time>
      </trkpt>
      <trkpt lat="47.1103" lon="5.56806">
        <ele>235</ele>
        <time>2013-07-12T12:18:28Z</time>
      </trkpt>
      <trkpt lat="47.11038" lon="5.56819">
        <ele>235</ele>
        <time>2013-07-12T12:18:30Z</time>
      </trkpt>
      <trkpt lat="47.11046" lon="5.56833">
        <ele>235</ele>
        <time>2013-07-12T12:18:32Z</time>
      </trkpt>
      <trkpt lat="47.11054" lon="5.56848">
        <ele>235</ele>
        <time>2013-07-12T12:18:34Z</time>
      </trkpt>
      <trkpt lat="47.11063" lon="5.56863">
        <ele>235</ele>
        <time>2013-07-12T12:18:36Z</time>
      </trkpt>
      <trkpt lat="47.11071" lon="5.56878">
        <ele>235</ele>
        <time>2013-07-12T12:18:38Z</time>
      </trkpt>
      <trkpt lat="47.1108" lon="5.56894">
        <ele>235</ele>
        <time>2013-07-12T12:18:40Z</time>
      </trkpt>
      <trkpt lat="47.11089" lon="5.56909">
        <ele>235</ele>
        <time>2013-07-12T12:18:42Z</time>
      </trkpt>
      <trkpt lat="47.11098" lon="5.56924">
        <ele>235</ele>
        <time>2013-07-12T12:18:44Z</time>
      </trkpt>
      <trkpt lat="47.11106" lon="5.56938">
        <ele>235</ele>
        <time>2013-07-12T12:18:46Z</time>
      </trkpt>
      <trkpt lat="47.11115" lon="5.56953">
        <ele>235</ele>
        <time>2013-07-12T12:18:48Z</time>
      </trkpt>
      <trkpt lat="47.11123" lon="5.56967">
        <ele>235</ele>
        <time>2013-07-12T12:18:50Z</time>
      </trkpt>
      <trkpt lat="47.11131" lon="5.56982">
        <ele>235</ele>
        <time>2013-07-12T12:18:52Z</time>
      </trkpt>
      <trkpt lat="47.1114" lon="5.56997">
        <ele>235</ele>
        <time>2013-07-12T12:18:54Z</time>
      </trkpt>
      <trkpt lat="47.11148" lon="5.57011">
        <ele>235</ele>
        <time>2013-07-12T12:18:56Z</time>
      </trkpt>
      <trkpt lat="47.11157" lon="5.57025">
        <ele>235</ele>
        <time>2013-07-12T12:18:58Z</time>
      </trkpt>
      <trkpt lat="47.11164" lon="5.57037">
        <ele>235</ele>
        <time>2013-07-12T12:19:00Z</time>
      </trkpt>
      <trkpt lat="47.11172" lon="5.57051">
        <ele>235</ele>
        <time>2013-07-12T12:19:02Z</time>
      </trkpt>
      <trkpt lat="47.11179" lon="5.57064">
        <ele>235</ele>
        <time>2013-07-12T12:19:04Z</time>
      </trkpt>
      <trkpt lat="47.11187" lon="5.57077">
        <ele>235</ele>
        <time>2013-07-12T12:19:06Z</time>
      </trkpt>
      <trkpt lat="47.11194" lon="5.57089">
        <ele>235</ele>
        <time>2013-07-12T12:19:08Z</time>
      </trkpt>
      <trkpt lat="47.11201" lon="5.57102">
        <ele>235</ele>
        <time>2013-07-12T12:19:10Z</time>
      </trkpt>
      <trkpt lat="47.11209" lon="5.57115">
        <ele>235</ele>
        <time>2013-07-12T12:19:12Z</time>
      </trkpt>
      <trkpt lat="47.11215" lon="5.57127">
        <ele>235</ele>
        <time>2013-07-12T12:19:14Z</time>
      </trkpt>
      <trkpt lat="47.11223" lon="5.57139">
        <ele>235</ele>
        <time>2013-07-12T12:19:16Z</time>
      </trkpt>
      <trkpt lat="47.11229" lon="5.5715">
        <ele>235</ele>
        <time>2013-07-12T12:19:18Z</time>
      </trkpt>
      <trkpt lat="47.11236" lon="5.57161">
        <ele>235</ele>
        <time>2013-07-12T12:19:20Z</time>
      </trkpt>
      <trkpt lat="47.11242" lon="5.57171">
        <ele>235</ele>
        <time>2013-07-12T12:19:22Z</time>
      </trkpt>
      <trkpt lat="47.11251" lon="5.57185">
        <ele>235</ele>
        <time>2013-07-12T12:19:25Z</time>
      </trkpt>
      <trkpt lat="47.11258" lon="5.57196">
        <ele>235</ele>
        <time>2013-07-12T12:19:27Z</time>
      </trkpt>
      <trkpt lat="47.11264" lon="5.57206">
        <ele>235</ele>
        <time>2013-07-12T12:19:29Z</time>
      </trkpt>
      <trkpt lat="47.11271" lon="5.57217">
        <ele>235</ele>
        <time>2013-07-12T12:19:31Z</time>
      </trkpt>
      <trkpt lat="47.11277" lon="5.57227">
        <ele>235</ele>
        <time>2013-07-12T12:19:33Z</time>
      </trkpt>
      <trkpt lat="47.11283" lon="5.57238">
        <ele>235</ele>
        <time>2013-07-12T12:19:35Z</time>
      </trkpt>
      <trkpt lat="47.1129" lon="5.57248">
        <ele>235</ele>
        <time>2013-07-12T12:19:37Z</time>
      </trkpt>
      <trkpt lat="47.11298" lon="5.57258">
        <ele>235</ele>
        <time>2013-07-12T12:19:39Z</time>
      </trkpt>
      <trkpt lat="47.11304" lon="5.57268">
        <ele>235</ele>
        <time>2013-07-12T12:19:41Z</time>
      </trkpt>
      <trkpt lat="47.11311" lon="5.57278">
        <ele>235</ele>
        <time>2013-07-12T12:19:43Z</time>
      </trkpt>
      <trkpt lat="47.11318" lon="5.57287">
        <ele>235</ele>
        <time>2013-07-12T12:19:45Z</time>
      </trkpt>
      <trkpt lat="47.11325" lon="5.57296">
        <ele>235</ele>
        <time>2013-07-12T12:19:47Z</time>
      </trkpt>
      <trkpt lat="47.11331" lon="5.57306">
        <ele>235</ele>
        <time>2013-07-12T12:19:49Z</time>
      </trkpt>
      <trkpt lat="47.11341" lon="5.5732">
        <ele>235</ele>
        <time>2013-07-12T12:19:52Z</time>
      </trkpt>
      <trkpt lat="47.11347" lon="5.5733">
        <ele>235</ele>
        <time>2013-07-12T12:19:54Z</time>
      </trkpt>
      <trkpt lat="47.11354" lon="5.5734">
        <ele>235</ele>
        <time>2013-07-12T12:19:56Z</time>
      </trkpt>
      <trkpt lat="47.11361" lon="5.5735">
        <ele>235</ele>
        <time>2013-07-12T12:19:58Z</time>
      </trkpt>
      <trkpt lat="47.11369" lon="5.57358">
        <ele>240</ele>
        <time>2013-07-12T12:20:00Z</time>
      </trkpt>
      <trkpt lat="47.11378" lon="5.57371">
        <ele>240</ele>
        <time>2013-07-12T12:20:03Z</time>
      </trkpt>
      <trkpt lat="47.11385" lon="5.57383">
        <ele>240</ele>
        <time>2013-07-12T12:20:05Z</time>
      </trkpt>
      <trkpt lat="47.11391" lon="5.57395">
        <ele>240</ele>
        <time>2013-07-12T12:20:07Z</time>
      </trkpt>
      <trkpt lat="47.11398" lon="5.57407">
        <ele>240</ele>
        <time>2013-07-12T12:20:09Z</time>
      </trkpt>
      <trkpt lat="47.11405" lon="5.57419">
        <ele>240</ele>
        <time>2013-07-12T12:20:11Z</time>
      </trkpt>
      <trkpt lat="47.11412" lon="5.57432">
        <ele>240</ele>
        <time>2013-07-12T12:20:13Z</time>
      </trkpt>
      <trkpt lat="47.11418" lon="5.57444">
        <ele>240</ele>
        <time>2013-07-12T12:20:15Z</time>
      </trkpt>
      <trkpt lat="47.11426" lon="5.57456">
        <ele>240</ele>
        <time>2013-07-12T12:20:17Z</time>
      </trkpt>
      <trkpt lat="47.11432" lon="5.57468">
        <ele>240</ele>
        <time>2013-07-12T12:20:19Z</time>
      </trkpt>
      <trkpt lat="47.11439" lon="5.57479">
        <ele>240</ele>
        <time>2013-07-12T12:20:21Z</time>
      </trkpt>
      <trkpt lat="47.11446" lon="5.57491">
        <ele>240</ele>
        <time>2013-07-12T12:20:23Z</time>
      </trkpt>
      <trkpt lat="47.11452" lon="5.57503">
        <ele>240</ele>
        <time>2013-07-12T12:20:25Z</time>
      </trkpt>
      <trkpt lat="47.11459" lon="5.57515">
        <ele>240</ele>
        <time>2013-07-12T12:20:27Z</time>
      </trkpt>
      <trkpt lat="47.11466" lon="5.57527">
        <ele>240</ele>
        <time>2013-07-12T12:20:29Z</time>
      </trkpt>
      <trkpt lat="47.11473" lon="5.57539">
        <ele>240</ele>
        <time>2013-07-12T12:20:31Z</time>
      </trkpt>
      <trkpt lat="47.1148" lon="5.57552">
        <ele>240</ele>
        <time>2013-07-12T12:20:33Z</time>
      </trkpt>
      <trkpt lat="47.11488" lon="5.57564">
        <ele>240</ele>
        <time>2013-07-12T12:20:35Z</time>
      </trkpt>
      <trkpt lat="47.11495" lon="5.57575">
        <ele>240</ele>
        <time>2013-07-12T12:20:37Z</time>
      </trkpt>
      <trkpt lat="47.11504" lon="5.57586">
        <ele>240</ele>
        <time>2013-07-12T12:20:39Z</time>
      </trkpt>
      <trkpt lat="47.11512" lon="5.57597">
        <ele>240</ele>
        <time>2013-07-12T12:20:41Z</time>
      </trkpt>
      <trkpt lat="47.11521" lon="5.57608">
        <ele>240</ele>
        <time>2013-07-12T12:20:43Z</time>
      </trkpt>
      <trkpt lat="47.11529" lon="5.57618">
        <ele>240</ele>
        <time>2013-07-12T12:20:45Z</time>
      </trkpt>
      <trkpt lat="47.11537" lon="5.57627">
        <ele>240</ele>
        <time>2013-07-12T12:20:47Z</time>
      </trkpt>
      <trkpt lat="47.11544" lon="5.57637">
        <ele>240</ele>
        <time>2013-07-12T12:20:49Z</time>
      </trkpt>
      <trkpt lat="47.11551" lon="5.57646">
        <ele>240</ele>
        <time>2013-07-12T12:20:51Z</time>
      </trkpt>
      <trkpt lat="47.11558" lon="5.57656">
        <ele>240</ele>
        <time>2013-07-12T12:20:53Z</time>
      </trkpt>
      <trkpt lat="47.11564" lon="5.57666">
        <ele>240</ele>
        <time>2013-07-12T12:20:55Z</time>
      </trkpt>
      <trkpt lat="47.1157" lon="5.57676">
        <ele>240</ele>
        <time>2013-07-12T12:20:57Z</time>
      </trkpt>
      <trkpt lat="47.11577" lon="5.57686">
        <ele>240</ele>
        <time>2013-07-12T12:20:59Z</time>
      </trkpt>
      <trkpt lat="47.11583" lon="5.57697">
        <ele>240</ele>
        <time>2013-07-12T12:21:01Z</time>
      </trkpt>
      <trkpt lat="47.11589" lon="5.57707">
        <ele>240</ele>
        <time>2013-07-12T12:21:03Z</time>
      </trkpt>
      <trkpt lat="47.11596" lon="5.57718">
        <ele>240</ele>
        <time>2013-07-12T12:21:05Z</time>
      </trkpt>
      <trkpt lat="47.11602" lon="5.57728">
        <ele>240</ele>
        <time>2013-07-12T12:21:07Z</time>
      </trkpt>
      <trkpt lat="47.1161" lon="5.57743">
        <ele>240</ele>
        <time>2013-07-12T12:21:10Z</time>
      </trkpt>
      <trkpt lat="47.11616" lon="5.57753">
        <ele>240</ele>
        <time>2013-07-12T12:21:12Z</time>
      </trkpt>
      <trkpt lat="47.11625" lon="5.57769">
        <ele>240</ele>
        <time>2013-07-12T12:21:15Z</time>
      </trkpt>
      <trkpt lat="47.11634" lon="5.57784">
        <ele>240</ele>
        <time>2013-07-12T12:21:18Z</time>
      </trkpt>
      <trkpt lat="47.1164" lon="5.57795">
        <ele>240</ele>
        <time>2013-07-12T12:21:20Z</time>
      </trkpt>
      <trkpt lat="47.11646" lon="5.57805">
        <ele>240</ele>
        <time>2013-07-12T12:21:22Z</time>
      </trkpt>
      <trkpt lat="47.11653" lon="5.57816">
        <ele>240</ele>
        <time>2013-07-12T12:21:24Z</time>
      </trkpt>
      <trkpt lat="47.11659" lon="5.57827">
        <ele>240</ele>
        <time>2013-07-12T12:21:26Z</time>
      </trkpt>
      <trkpt lat="47.11666" lon="5.57839">
        <ele>240</ele>
        <time>2013-07-12T12:21:28Z</time>
      </trkpt>
      <trkpt lat="47.11673" lon="5.57852">
        <ele>240</ele>
        <time>2013-07-12T12:21:30Z</time>
      </trkpt>
      <trkpt lat="47.11681" lon="5.57864">
        <ele>240</ele>
        <time>2013-07-12T12:21:32Z</time>
      </trkpt>
      <trkpt lat="47.11688" lon="5.57876">
        <ele>240</ele>
        <time>2013-07-12T12:21:34Z</time>
      </trkpt>
      <trkpt lat="47.11696" lon="5.57889">
        <ele>240</ele>
        <time>2013-07-12T12:21:36Z</time>
      </trkpt>
      <trkpt lat="47.11704" lon="5.57901">
        <ele>240</ele>
        <time>2013-07-12T12:21:38Z</time>
      </trkpt>
      <trkpt lat="47.11711" lon="5.57915">
        <ele>240</ele>
        <time>2013-07-12T12:21:40Z</time>
      </trkpt>
      <trkpt lat="47.11719" lon="5.57929">
        <ele>240</ele>
        <time>2013-07-12T12:21:42Z</time>
      </trkpt>
      <trkpt lat="47.11727" lon="5.57944">
        <ele>240</ele>
        <time>2013-07-12T12:21:44Z</time>
      </trkpt>
      <trkpt lat="47.11736" lon="5.57958">
        <ele>240</ele>
        <time>2013-07-12T12:21:46Z</time>
      </trkpt>
      <trkpt lat="47.11744" lon="5.57972">
        <ele>240</ele>
        <time>2013-07-12T12:21:48Z</time>
      </trkpt>
      <trkpt lat="47.11751" lon="5.57985">
        <ele>240</ele>
        <time>2013-07-12T12:21:50Z</time>
      </trkpt>
      <trkpt lat="47.1176" lon="5.57998">
        <ele>240</ele>
        <time>2013-07-12T12:21:52Z</time>
      </trkpt>
      <trkpt lat="47.11769" lon="5.58008">
        <ele>240</ele>
        <time>2013-07-12T12:21:54Z</time>
      </trkpt>
      <trkpt lat="47.11777" lon="5.58021">
        <ele>240</ele>
        <time>2013-07-12T12:21:56Z</time>
      </trkpt>
      <trkpt lat="47.11786" lon="5.58033">
        <ele>240</ele>
        <time>2013-07-12T12:21:58Z</time>
      </trkpt>
      <trkpt lat="47.11795" lon="5.58045">
        <ele>240</ele>
        <time>2013-07-12T12:22:00Z</time>
      </trkpt>
      <trkpt lat="47.11804" lon="5.58059">
        <ele>240</ele>
        <time>2013-07-12T12:22:02Z</time>
      </trkpt>
      <trkpt lat="47.11815" lon="5.58073">
        <ele>240</ele>
        <time>2013-07-12T12:22:04Z</time>
      </trkpt>
      <trkpt lat="47.11826" lon="5.58087">
        <ele>240</ele>
        <time>2013-07-12T12:22:06Z</time>
      </trkpt>
      <trkpt lat="47.11836" lon="5.58103">
        <ele>240</ele>
        <time>2013-07-12T12:22:08Z</time>
      </trkpt>
      <trkpt lat="47.11846" lon="5.58118">
        <ele>240</ele>
        <time>2013-07-12T12:22:10Z</time>
      </trkpt>
      <trkpt lat="47.11857" lon="5.58131">
        <ele>240</ele>
        <time>2013-07-12T12:22:12Z</time>
      </trkpt>
      <trkpt lat="47.11868" lon="5.58143">
        <ele>240</ele>
        <time>2013-07-12T12:22:14Z</time>
      </trkpt>
      <trkpt lat="47.1188" lon="5.58155">
        <ele>240</ele>
        <time>2013-07-12T12:22:16Z</time>
      </trkpt>
      <trkpt lat="47.11891" lon="5.58165">
        <ele>240</ele>
        <time>2013-07-12T12:22:18Z</time>
      </trkpt>
      <trkpt lat="47.11901" lon="5.58174">
        <ele>240</ele>
        <time>2013-07-12T12:22:20Z</time>
      </trkpt>
      <trkpt lat="47.11911" lon="5.58183">
        <ele>240</ele>
        <time>2013-07-12T12:22:22Z</time>
      </trkpt>
      <trkpt lat="47.1192" lon="5.58192">
        <ele>240</ele>
        <time>2013-07-12T12:22:24Z</time>
      </trkpt>
      <trkpt lat="47.1193" lon="5.582">
        <ele>240</ele>
        <time>2013-07-12T12:22:26Z</time>
      </trkpt>
      <trkpt lat="47.11939" lon="5.58208">
        <ele>240</ele>
        <time>2013-07-12T12:22:28Z</time>
      </trkpt>
      <trkpt lat="47.11948" lon="5.58216">
        <ele>240</ele>
        <time>2013-07-12T12:22:30Z</time>
      </trkpt>
      <trkpt lat="47.11956" lon="5.58225">
        <ele>240</ele>
        <time>2013-07-12T12:22:32Z</time>
      </trkpt>
      <trkpt lat="47.11964" lon="5.58234">
        <ele>240</ele>
        <time>2013-07-12T12:22:34Z</time>
      </trkpt>
      <trkpt lat="47.11972" lon="5.58243">
        <ele>240</ele>
        <time>2013-07-12T12:22:36Z</time>
      </trkpt>
      <trkpt lat="47.11981" lon="5.58252">
        <ele>240</ele>
        <time>2013-07-12T12:22:38Z</time>
      </trkpt>
      <trkpt lat="47.11988" lon="5.58261">
        <ele>240</ele>
        <time>2013-07-12T12:22:40Z</time>
      </trkpt>
      <trkpt lat="47.11995" lon="5.58271">
        <ele>240</ele>
        <time>2013-07-12T12:22:42Z</time>
      </trkpt>
      <trkpt lat="47.12003" lon="5.5828">
        <ele>240</ele>
        <time>2013-07-12T12:22:44Z</time>
      </trkpt>
      <trkpt lat="47.12011" lon="5.58289">
        <ele>240</ele>
        <time>2013-07-12T12:22:46Z</time>
      </trkpt>
      <trkpt lat="47.12018" lon="5.58298">
        <ele>240</ele>
        <time>2013-07-12T12:22:48Z</time>
      </trkpt>
      <trkpt lat="47.12025" lon="5.58307">
        <ele>240</ele>
        <time>2013-07-12T12:22:50Z</time>
      </trkpt>
      <trkpt lat="47.12032" lon="5.58317">
        <ele>240</ele>
        <time>2013-07-12T12:22:52Z</time>
      </trkpt>
      <trkpt lat="47.1204" lon="5.58328">
        <ele>240</ele>
        <time>2013-07-12T12:22:54Z</time>
      </trkpt>
      <trkpt lat="47.12048" lon="5.5834">
        <ele>240</ele>
        <time>2013-07-12T12:22:56Z</time>
      </trkpt>
      <trkpt lat="47.12057" lon="5.58353">
        <ele>240</ele>
        <time>2013-07-12T12:22:58Z</time>
      </trkpt>
      <trkpt lat="47.12065" lon="5.58367">
        <ele>240</ele>
        <time>2013-07-12T12:23:00Z</time>
      </trkpt>
      <trkpt lat="47.12075" lon="5.58382">
        <ele>240</ele>
        <time>2013-07-12T12:23:02Z</time>
      </trkpt>
      <trkpt lat="47.12086" lon="5.58398">
        <ele>240</ele>
        <time>2013-07-12T12:23:04Z</time>
      </trkpt>
      <trkpt lat="47.12098" lon="5.58415">
        <ele>240</ele>
        <time>2013-07-12T12:23:06Z</time>
      </trkpt>
      <trkpt lat="47.12109" lon="5.58433">
        <ele>240</ele>
        <time>2013-07-12T12:23:08Z</time>
      </trkpt>
      <trkpt lat="47.12116" lon="5.58443">
        <ele>240</ele>
        <time>2013-07-12T12:23:09Z</time>
      </trkpt>
      <trkpt lat="47.12122" lon="5.58452">
        <ele>240</ele>
        <time>2013-07-12T12:23:10Z</time>
      </trkpt>
      <trkpt lat="47.12129" lon="5.58463">
        <ele>240</ele>
        <time>2013-07-12T12:23:11Z</time>
      </trkpt>
      <trkpt lat="47.12136" lon="5.58474">
        <ele>240</ele>
        <time>2013-07-12T12:23:12Z</time>
      </trkpt>
      <trkpt lat="47.12143" lon="5.58484">
        <ele>240</ele>
        <time>2013-07-12T12:23:13Z</time>
      </trkpt>
      <trkpt lat="47.12149" lon="5.58494">
        <ele>240</ele>
        <time>2013-07-12T12:23:14Z</time>
      </trkpt>
      <trkpt lat="47.12155" lon="5.58504">
        <ele>240</ele>
        <time>2013-07-12T12:23:15Z</time>
      </trkpt>
      <trkpt lat="47.12162" lon="5.58513">
        <ele>240</ele>
        <time>2013-07-12T12:23:16Z</time>
      </trkpt>
      <trkpt lat="47.12173" lon="5.58533">
        <ele>240</ele>
        <time>2013-07-12T12:23:18Z</time>
      </trkpt>
      <trkpt lat="47.12179" lon="5.58544">
        <ele>240</ele>
        <time>2013-07-12T12:23:19Z</time>
      </trkpt>
      <trkpt lat="47.12184" lon="5.58555">
        <ele>240</ele>
        <time>2013-07-12T12:23:20Z</time>
      </trkpt>
      <trkpt lat="47.12188" lon="5.58567">
        <ele>235</ele>
        <time>2013-07-12T12:23:21Z</time>
      </trkpt>
      <trkpt lat="47.12192" lon="5.5858">
        <ele>235</ele>
        <time>2013-07-12T12:23:22Z</time>
      </trkpt>
      <trkpt lat="47.12197" lon="5.58592">
        <ele>235</ele>
        <time>2013-07-12T12:23:23Z</time>
      </trkpt>
      <trkpt lat="47.12201" lon="5.58604">
        <ele>235</ele>
        <time>2013-07-12T12:23:24Z</time>
      </trkpt>
      <trkpt lat="47.12207" lon="5.58616">
        <ele>235</ele>
        <time>2013-07-12T12:23:25Z</time>
      </trkpt>
      <trkpt lat="47.12212" lon="5.58628">
        <ele>235</ele>
        <time>2013-07-12T12:23:26Z</time>
      </trkpt>
      <trkpt lat="47.12218" lon="5.5864">
        <ele>235</ele>
        <time>2013-07-12T12:23:27Z</time>
      </trkpt>
      <trkpt lat="47.12222" lon="5.58652">
        <ele>235</ele>
        <time>2013-07-12T12:23:28Z</time>
      </trkpt>
      <trkpt lat="47.12231" lon="5.5867">
        <ele>227</ele>
        <time>2013-07-12T12:23:30Z</time>
      </trkpt>
      <trkpt lat="47.12241" lon="5.58681">
        <ele>227</ele>
        <time>2013-07-12T12:23:32Z</time>
      </trkpt>
      <trkpt lat="47.12252" lon="5.58681">
        <ele>227</ele>
        <time>2013-07-12T12:23:34Z</time>
      </trkpt>
      <trkpt lat="47.12263" lon="5.58673">
        <ele>227</ele>
        <time>2013-07-12T12:23:36Z</time>
      </trkpt>
      <trkpt lat="47.12276" lon="5.58661">
        <ele>227</ele>
        <time>2013-07-12T12:23:38Z</time>
      </trkpt>
      <trkpt lat="47.1229" lon="5.58652">
        <ele>227</ele>
        <time>2013-07-12T12:23:40Z</time>
      </trkpt>
      <trkpt lat="47.12306" lon="5.58648">
        <ele>227</ele>
        <time>2013-07-12T12:23:42Z</time>
      </trkpt>
      <trkpt lat="47.12322" lon="5.58649">
        <ele>227</ele>
        <time>2013-07-12T12:23:44Z</time>
      </trkpt>
      <trkpt lat="47.12339" lon="5.58651">
        <ele>222</ele>
        <time>2013-07-12T12:23:46Z</time>
      </trkpt>
      <trkpt lat="47.12355" lon="5.58652">
        <ele>222</ele>
        <time>2013-07-12T12:23:48Z</time>
      </trkpt>
      <trkpt lat="47.12371" lon="5.58656">
        <ele>222</ele>
        <time>2013-07-12T12:23:50Z</time>
      </trkpt>
      <trkpt lat="47.12387" lon="5.58659">
        <ele>222</ele>
        <time>2013-07-12T12:23:52Z</time>
      </trkpt>
      <trkpt lat="47.12403" lon="5.58662">
        <ele>222</ele>
        <time>2013-07-12T12:23:54Z</time>
      </trkpt>
      <trkpt lat="47.12418" lon="5.58668">
        <ele>222</ele>
        <time>2013-07-12T12:23:56Z</time>
      </trkpt>
      <trkpt lat="47.12433" lon="5.58678">
        <ele>222</ele>
        <time>2013-07-12T12:23:58Z</time>
      </trkpt>
      <trkpt lat="47.12444" lon="5.58693">
        <ele>216</ele>
        <time>2013-07-12T12:24:00Z</time>
      </trkpt>
      <trkpt lat="47.12455" lon="5.58707">
        <ele>216</ele>
        <time>2013-07-12T12:24:02Z</time>
      </trkpt>
      <trkpt lat="47.12467" lon="5.58717">
        <ele>216</ele>
        <time>2013-07-12T12:24:04Z</time>
      </trkpt>
      <trkpt lat="47.12479" lon="5.58706">
        <ele>216</ele>
        <time>2013-07-12T12:24:06Z</time>
      </trkpt>
      <trkpt lat="47.12488" lon="5.58689">
        <ele>216</ele>
        <time>2013-07-12T12:24:08Z</time>
      </trkpt>
      <trkpt lat="47.12498" lon="5.58675">
        <ele>216</ele>
        <time>2013-07-12T12:24:10Z</time>
      </trkpt>
      <trkpt lat="47.12506" lon="5.58661">
        <ele>216</ele>
        <time>2013-07-12T12:24:12Z</time>
      </trkpt>
      <trkpt lat="47.12515" lon="5.58647">
        <ele>216</ele>
        <time>2013-07-12T12:24:14Z</time>
      </trkpt>
      <trkpt lat="47.12522" lon="5.58635">
        <ele>216</ele>
        <time>2013-07-12T12:24:16Z</time>
      </trkpt>
      <trkpt lat="47.12529" lon="5.58625">
        <ele>216</ele>
        <time>2013-07-12T12:24:18Z</time>
      </trkpt>
      <trkpt lat="47.12539" lon="5.58622">
        <ele>216</ele>
        <time>2013-07-12T12:24:20Z</time>
      </trkpt>
      <trkpt lat="47.12547" lon="5.58638">
        <ele>216</ele>
        <time>2013-07-12T12:24:23Z</time>
      </trkpt>
      <trkpt lat="47.12548" lon="5.58652">
        <ele>216</ele>
        <time>2013-07-12T12:24:25Z</time>
      </trkpt>
      <trkpt lat="47.1255" lon="5.58668">
        <ele>216</ele>
        <time>2013-07-12T12:24:27Z</time>
      </trkpt>
      <trkpt lat="47.12553" lon="5.58682">
        <ele>216</ele>
        <time>2013-07-12T12:24:29Z</time>
      </trkpt>
      <trkpt lat="47.12554" lon="5.58697">
        <ele>216</ele>
        <time>2013-07-12T12:24:31Z</time>
      </trkpt>
      <trkpt lat="47.12556" lon="5.58712">
        <ele>216</ele>
        <time>2013-07-12T12:24:33Z</time>
      </trkpt>
      <trkpt lat="47.12559" lon="5.58725">
        <ele>216</ele>
        <time>2013-07-12T12:24:35Z</time>
      </trkpt>
      <trkpt lat="47.12561" lon="5.58738">
        <ele>216</ele>
        <time>2013-07-12T12:24:37Z</time>
      </trkpt>
      <trkpt lat="47.12563" lon="5.58751">
        <ele>216</ele>
        <time>2013-07-12T12:24:39Z</time>
      </trkpt>
      <trkpt lat="47.12565" lon="5.58766">
        <ele>216</ele>
        <time>2013-07-12T12:24:41Z</time>
      </trkpt>
      <trkpt lat="47.12567" lon="5.58781">
        <ele>216</ele>
        <time>2013-07-12T12:24:43Z</time>
      </trkpt>
      <trkpt lat="47.12569" lon="5.58795">
        <ele>216</ele>
        <time>2013-07-12T12:24:45Z</time>
      </trkpt>
      <trkpt lat="47.12571" lon="5.58811">
        <ele>211</ele>
        <time>2013-07-12T12:24:47Z</time>
      </trkpt>
      <trkpt lat="47.12572" lon="5.58827">
        <ele>211</ele>
        <time>2013-07-12T12:24:49Z</time>
      </trkpt>
      <trkpt lat="47.12575" lon="5.58843">
        <ele>211</ele>
        <time>2013-07-12T12:24:51Z</time>
      </trkpt>
      <trkpt lat="47.12579" lon="5.58858">
        <ele>211</ele>
        <time>2013-07-12T12:24:53Z</time>
      </trkpt>
      <trkpt lat="47.12583" lon="5.58873">
        <ele>211</ele>
        <time>2013-07-12T12:24:55Z</time>
      </trkpt>
      <trkpt lat="47.12588" lon="5.58888">
        <ele>211</ele>
        <time>2013-07-12T12:24:57Z</time>
      </trkpt>
      <trkpt lat="47.12594" lon="5.58901">
        <ele>211</ele>
        <time>2013-07-12T12:24:59Z</time>
      </trkpt>
      <trkpt lat="47.12601" lon="5.58915">
        <ele>211</ele>
        <time>2013-07-12T12:25:01Z</time>
      </trkpt>
      <trkpt lat="47.12607" lon="5.58927">
        <ele>211</ele>
        <time>2013-07-12T12:25:03Z</time>
      </trkpt>
      <trkpt lat="47.12615" lon="5.5894">
        <ele>211</ele>
        <time>2013-07-12T12:25:05Z</time>
      </trkpt>
      <trkpt lat="47.12622" lon="5.58952">
        <ele>211</ele>
        <time>2013-07-12T12:25:07Z</time>
      </trkpt>
      <trkpt lat="47.1263" lon="5.58964">
        <ele>211</ele>
        <time>2013-07-12T12:25:09Z</time>
      </trkpt>
      <trkpt lat="47.12639" lon="5.58976">
        <ele>211</ele>
        <time>2013-07-12T12:25:11Z</time>
      </trkpt>
      <trkpt lat="47.12647" lon="5.58988">
        <ele>211</ele>
        <time>2013-07-12T12:25:13Z</time>
      </trkpt>
      <trkpt lat="47.12657" lon="5.58999">
        <ele>211</ele>
        <time>2013-07-12T12:25:15Z</time>
      </trkpt>
      <trkpt lat="47.12667" lon="5.5901">
        <ele>211</ele>
        <time>2013-07-12T12:25:17Z</time>
      </trkpt>
      <trkpt lat="47.12675" lon="5.59022">
        <ele>211</ele>
        <time>2013-07-12T12:25:19Z</time>
      </trkpt>
      <trkpt lat="47.12684" lon="5.59033">
        <ele>211</ele>
        <time>2013-07-12T12:25:21Z</time>
      </trkpt>
      <trkpt lat="47.12691" lon="5.59045">
        <ele>211</ele>
        <time>2013-07-12T12:25:23Z</time>
      </trkpt>
      <trkpt lat="47.12697" lon="5.59058">
        <ele>211</ele>
        <time>2013-07-12T12:25:25Z</time>
      </trkpt>
      <trkpt lat="47.12703" lon="5.59072">
        <ele>211</ele>
        <time>2013-07-12T12:25:27Z</time>
      </trkpt>
      <trkpt lat="47.12707" lon="5.59086">
        <ele>211</ele>
        <time>2013-07-12T12:25:29Z</time>
      </trkpt>
      <trkpt lat="47.12711" lon="5.59102">
        <ele>211</ele>
        <time>2013-07-12T12:25:31Z</time>
      </trkpt>
      <trkpt lat="47.12715" lon="5.5912">
        <ele>211</ele>
        <time>2013-07-12T12:25:33Z</time>
      </trkpt>
      <trkpt lat="47.12717" lon="5.59138">
        <ele>211</ele>
        <time>2013-07-12T12:25:35Z</time>
      </trkpt>
      <trkpt lat="47.12718" lon="5.59155">
        <ele>211</ele>
        <time>2013-07-12T12:25:37Z</time>
      </trkpt>
      <trkpt lat="47.12718" lon="5.59173">
        <ele>211</ele>
        <time>2013-07-12T12:25:39Z</time>
      </trkpt>
      <trkpt lat="47.12718" lon="5.5919">
        <ele>211</ele>
        <time>2013-07-12T12:25:41Z</time>
      </trkpt>
      <trkpt lat="47.12718" lon="5.59206">
        <ele>211</ele>
        <time>2013-07-12T12:25:43Z</time>
      </trkpt>
      <trkpt lat="47.12718" lon="5.59223">
        <ele>211</ele>
        <time>2013-07-12T12:25:45Z</time>
      </trkpt>
      <trkpt lat="47.12718" lon="5.59241">
        <ele>211</ele>
        <time>2013-07-12T12:25:47Z</time>
      </trkpt>
      <trkpt lat="47.12718" lon="5.59259">
        <ele>211</ele>
        <time>2013-07-12T12:25:49Z</time>
      </trkpt>
      <trkpt lat="47.12718" lon="5.59277">
        <ele>211</ele>
        <time>2013-07-12T12:25:51Z</time>
      </trkpt>
      <trkpt lat="47.12718" lon="5.59296">
        <ele>211</ele>
        <time>2013-07-12T12:25:53Z</time>
      </trkpt>
      <trkpt lat="47.12718" lon="5.59315">
        <ele>211</ele>
        <time>2013-07-12T12:25:55Z</time>
      </trkpt>
      <trkpt lat="47.12718" lon="5.59333">
        <ele>211</ele>
        <time>2013-07-12T12:25:57Z</time>
      </trkpt>
      <trkpt lat="47.12718" lon="5.59352">
        <ele>211</ele>
        <time>2013-07-12T12:25:59Z</time>
      </trkpt>
      <trkpt lat="47.12718" lon="5.59371">
        <ele>211</ele>
        <time>2013-07-12T12:26:01Z</time>
      </trkpt>
      <trkpt lat="47.12719" lon="5.59391">
        <ele>211</ele>
        <time>2013-07-12T12:26:03Z</time>
      </trkpt>
      <trkpt lat="47.12719" lon="5.5941">
        <ele>211</ele>
        <time>2013-07-12T12:26:05Z</time>
      </trkpt>
      <trkpt lat="47.12719" lon="5.59429">
        <ele>211</ele>
        <time>2013-07-12T12:26:07Z</time>
      </trkpt>
      <trkpt lat="47.12719" lon="5.59447">
        <ele>211</ele>
        <time>2013-07-12T12:26:09Z</time>
      </trkpt>
      <trkpt lat="47.12719" lon="5.59465">
        <ele>211</ele>
        <time>2013-07-12T12:26:11Z</time>
      </trkpt>
      <trkpt lat="47.1272" lon="5.59481">
        <ele>211</ele>
        <time>2013-07-12T12:26:13Z</time>
      </trkpt>
      <trkpt lat="47.1272" lon="5.59498">
        <ele>211</ele>
        <time>2013-07-12T12:26:15Z</time>
      </trkpt>
      <trkpt lat="47.1272" lon="5.59515">
        <ele>211</ele>
        <time>2013-07-12T12:26:17Z</time>
      </trkpt>
      <trkpt lat="47.1272" lon="5.59533">
        <ele>211</ele>
        <time>2013-07-12T12:26:19Z</time>
      </trkpt>
      <trkpt lat="47.1272" lon="5.59551">
        <ele>211</ele>
        <time>2013-07-12T12:26:21Z</time>
      </trkpt>
      <trkpt lat="47.1272" lon="5.59569">
        <ele>211</ele>
        <time>2013-07-12T12:26:23Z</time>
      </trkpt>
      <trkpt lat="47.1272" lon="5.59587">
        <ele>211</ele>
        <time>2013-07-12T12:26:25Z</time>
      </trkpt>
      <trkpt lat="47.1272" lon="5.59605">
        <ele>211</ele>
        <time>2013-07-12T12:26:27Z</time>
      </trkpt>
      <trkpt lat="47.1272" lon="5.59623">
        <ele>211</ele>
        <time>2013-07-12T12:26:29Z</time>
      </trkpt>
      <trkpt lat="47.1272" lon="5.59641">
        <ele>211</ele>
        <time>2013-07-12T12:26:31Z</time>
      </trkpt>
      <trkpt lat="47.1272" lon="5.59659">
        <ele>211</ele>
        <time>2013-07-12T12:26:33Z</time>
      </trkpt>
      <trkpt lat="47.1272" lon="5.59677">
        <ele>211</ele>
        <time>2013-07-12T12:26:35Z</time>
      </trkpt>
      <trkpt lat="47.1272" lon="5.59697">
        <ele>211</ele>
        <time>2013-07-12T12:26:37Z</time>
      </trkpt>
      <trkpt lat="47.1272" lon="5.59716">
        <ele>211</ele>
        <time>2013-07-12T12:26:39Z</time>
      </trkpt>
      <trkpt lat="47.12719" lon="5.59734">
        <ele>211</ele>
        <time>2013-07-12T12:26:41Z</time>
      </trkpt>
      <trkpt lat="47.12718" lon="5.59752">
        <ele>211</ele>
        <time>2013-07-12T12:26:43Z</time>
      </trkpt>
      <trkpt lat="47.12717" lon="5.5977">
        <ele>211</ele>
        <time>2013-07-12T12:26:45Z</time>
      </trkpt>
      <trkpt lat="47.12715" lon="5.59787">
        <ele>211</ele>
        <time>2013-07-12T12:26:47Z</time>
      </trkpt>
      <trkpt lat="47.12713" lon="5.59805">
        <ele>211</ele>
        <time>2013-07-12T12:26:49Z</time>
      </trkpt>
      <trkpt lat="47.12711" lon="5.59823">
        <ele>211</ele>
        <time>2013-07-12T12:26:51Z</time>
      </trkpt>
      <trkpt lat="47.12708" lon="5.59842">
        <ele>211</ele>
        <time>2013-07-12T12:26:53Z</time>
      </trkpt>
      <trkpt lat="47.12705" lon="5.5986">
        <ele>211</ele>
        <time>2013-07-12T12:26:55Z</time>
      </trkpt>
      <trkpt lat="47.12702" lon="5.59879">
        <ele>211</ele>
        <time>2013-07-12T12:26:57Z</time>
      </trkpt>
      <trkpt lat="47.12698" lon="5.59898">
        <ele>211</ele>
        <time>2013-07-12T12:26:59Z</time>
      </trkpt>
      <trkpt lat="47.12694" lon="5.59915">
        <ele>211</ele>
        <time>2013-07-12T12:27:01Z</time>
      </trkpt>
      <trkpt lat="47.12691" lon="5.59933">
        <ele>211</ele>
        <time>2013-07-12T12:27:03Z</time>
      </trkpt>
      <trkpt lat="47.12688" lon="5.59951">
        <ele>211</ele>
        <time>2013-07-12T12:27:05Z</time>
      </trkpt>
      <trkpt lat="47.12685" lon="5.59967">
        <ele>211</ele>
        <time>2013-07-12T12:27:07Z</time>
      </trkpt>
      <trkpt lat="47.12682" lon="5.59984">
        <ele>211</ele>
        <time>2013-07-12T12:27:09Z</time>
      </trkpt>
      <trkpt lat="47.1268" lon="5.60001">
        <ele>211</ele>
        <time>2013-07-12T12:27:11Z</time>
      </trkpt>
      <trkpt lat="47.12679" lon="5.60019">
        <ele>211</ele>
        <time>2013-07-12T12:27:13Z</time>
      </trkpt>
      <trkpt lat="47.12678" lon="5.60037">
        <ele>211</ele>
        <time>2013-07-12T12:27:15Z</time>
      </trkpt>
      <trkpt lat="47.12679" lon="5.60056">
        <ele>211</ele>
        <time>2013-07-12T12:27:17Z</time>
      </trkpt>
      <trkpt lat="47.1268" lon="5.60074">
        <ele>211</ele>
        <time>2013-07-12T12:27:19Z</time>
      </trkpt>
      <trkpt lat="47.12682" lon="5.60092">
        <ele>211</ele>
        <time>2013-07-12T12:27:21Z</time>
      </trkpt>
      <trkpt lat="47.12683" lon="5.60109">
        <ele>211</ele>
        <time>2013-07-12T12:27:23Z</time>
      </trkpt>
      <trkpt lat="47.12686" lon="5.60126">
        <ele>211</ele>
        <time>2013-07-12T12:27:25Z</time>
      </trkpt>
      <trkpt lat="47.12687" lon="5.60143">
        <ele>211</ele>
        <time>2013-07-12T12:27:27Z</time>
      </trkpt>
      <trkpt lat="47.12688" lon="5.6016">
        <ele>211</ele>
        <time>2013-07-12T12:27:29Z</time>
      </trkpt>
      <trkpt lat="47.12691" lon="5.60177">
        <ele>211</ele>
        <time>2013-07-12T12:27:31Z</time>
      </trkpt>
      <trkpt lat="47.12695" lon="5.60193">
        <ele>211</ele>
        <time>2013-07-12T12:27:33Z</time>
      </trkpt>
      <trkpt lat="47.12697" lon="5.60209">
        <ele>211</ele>
        <time>2013-07-12T12:27:35Z</time>
      </trkpt>
      <trkpt lat="47.12701" lon="5.60226">
        <ele>211</ele>
        <time>2013-07-12T12:27:37Z</time>
      </trkpt>
      <trkpt lat="47.12704" lon="5.60242">
        <ele>211</ele>
        <time>2013-07-12T12:27:39Z</time>
      </trkpt>
      <trkpt lat="47.12706" lon="5.60259">
        <ele>211</ele>
        <time>2013-07-12T12:27:41Z</time>
      </trkpt>
      <trkpt lat="47.1271" lon="5.60274">
        <ele>216</ele>
        <time>2013-07-12T12:27:43Z</time>
      </trkpt>
      <trkpt lat="47.12713" lon="5.60289">
        <ele>216</ele>
        <time>2013-07-12T12:27:45Z</time>
      </trkpt>
      <trkpt lat="47.12716" lon="5.60305">
        <ele>216</ele>
        <time>2013-07-12T12:27:47Z</time>
      </trkpt>
      <trkpt lat="47.12723" lon="5.60317">
        <ele>216</ele>
        <time>2013-07-12T12:27:49Z</time>
      </trkpt>
      <trkpt lat="47.12735" lon="5.60326">
        <ele>216</ele>
        <time>2013-07-12T12:27:52Z</time>
      </trkpt>
      <trkpt lat="47.12746" lon="5.60325">
        <ele>216</ele>
        <time>2013-07-12T12:27:54Z</time>
      </trkpt>
      <trkpt lat="47.12759" lon="5.60323">
        <ele>216</ele>
        <time>2013-07-12T12:27:56Z</time>
      </trkpt>
      <trkpt lat="47.12772" lon="5.60321">
        <ele>216</ele>
        <time>2013-07-12T12:27:58Z</time>
      </trkpt>
      <trkpt lat="47.12786" lon="5.60323">
        <ele>216</ele>
        <time>2013-07-12T12:28:00Z</time>
      </trkpt>
      <trkpt lat="47.12799" lon="5.6033">
        <ele>216</ele>
        <time>2013-07-12T12:28:02Z</time>
      </trkpt>
      <trkpt lat="47.1281" lon="5.60342">
        <ele>216</ele>
        <time>2013-07-12T12:28:04Z</time>
      </trkpt>
      <trkpt lat="47.12821" lon="5.60354">
        <ele>216</ele>
        <time>2013-07-12T12:28:06Z</time>
      </trkpt>
      <trkpt lat="47.12831" lon="5.60366">
        <ele>216</ele>
        <time>2013-07-12T12:28:08Z</time>
      </trkpt>
      <trkpt lat="47.1284" lon="5.60378">
        <ele>216</ele>
        <time>2013-07-12T12:28:10Z</time>
      </trkpt>
      <trkpt lat="47.12848" lon="5.60392">
        <ele>216</ele>
        <time>2013-07-12T12:28:12Z</time>
      </trkpt>
      <trkpt lat="47.12856" lon="5.60405">
        <ele>216</ele>
        <time>2013-07-12T12:28:14Z</time>
      </trkpt>
      <trkpt lat="47.12864" lon="5.60418">
        <ele>216</ele>
        <time>2013-07-12T12:28:16Z</time>
      </trkpt>
      <trkpt lat="47.12873" lon="5.60429">
        <ele>216</ele>
        <time>2013-07-12T12:28:18Z</time>
      </trkpt>
      <trkpt lat="47.12881" lon="5.60443">
        <ele>216</ele>
        <time>2013-07-12T12:28:20Z</time>
      </trkpt>
      <trkpt lat="47.1289" lon="5.60457">
        <ele>216</ele>
        <time>2013-07-12T12:28:22Z</time>
      </trkpt>
      <trkpt lat="47.12899" lon="5.60472">
        <ele>216</ele>
        <time>2013-07-12T12:28:24Z</time>
      </trkpt>
      <trkpt lat="47.12907" lon="5.60489">
        <ele>216</ele>
        <time>2013-07-12T12:28:26Z</time>
      </trkpt>
      <trkpt lat="47.12914" lon="5.60505">
        <ele>216</ele>
        <time>2013-07-12T12:28:28Z</time>
      </trkpt>
      <trkpt lat="47.12922" lon="5.60521">
        <ele>216</ele>
        <time>2013-07-12T12:28:30Z</time>
      </trkpt>
      <trkpt lat="47.1293" lon="5.60538">
        <ele>216</ele>
        <time>2013-07-12T12:28:32Z</time>
      </trkpt>
      <trkpt lat="47.12937" lon="5.60553">
        <ele>216</ele>
        <time>2013-07-12T12:28:34Z</time>
      </trkpt>
      <trkpt lat="47.12945" lon="5.60569">
        <ele>216</ele>
        <time>2013-07-12T12:28:36Z</time>
      </trkpt>
      <trkpt lat="47.12951" lon="5.60584">
        <ele>216</ele>
        <time>2013-07-12T12:28:38Z</time>
      </trkpt>
      <trkpt lat="47.12958" lon="5.60599">
        <ele>216</ele>
        <time>2013-07-12T12:28:40Z</time>
      </trkpt>
      <trkpt lat="47.12964" lon="5.60615">
        <ele>216</ele>
        <time>2013-07-12T12:28:42Z</time>
      </trkpt>
      <trkpt lat="47.1297" lon="5.60631">
        <ele>216</ele>
        <time>2013-07-12T12:28:44Z</time>
      </trkpt>
      <trkpt lat="47.12977" lon="5.60645">
        <ele>216</ele>
        <time>2013-07-12T12:28:46Z</time>
      </trkpt>
      <trkpt lat="47.12983" lon="5.60659">
        <ele>216</ele>
        <time>2013-07-12T12:28:48Z</time>
      </trkpt>
      <trkpt lat="47.12989" lon="5.60673">
        <ele>216</ele>
        <time>2013-07-12T12:28:50Z</time>
      </trkpt>
      <trkpt lat="47.12995" lon="5.60687">
        <ele>216</ele>
        <time>2013-07-12T12:28:52Z</time>
      </trkpt>
      <trkpt lat="47.13" lon="5.60702">
        <ele>216</ele>
        <time>2013-07-12T12:28:54Z</time>
      </trkpt>
      <trkpt lat="47.13006" lon="5.60714">
        <ele>216</ele>
        <time>2013-07-12T12:28:56Z</time>
      </trkpt>
      <trkpt lat="47.13011" lon="5.60728">
        <ele>216</ele>
        <time>2013-07-12T12:28:58Z</time>
      </trkpt>
      <trkpt lat="47.13016" lon="5.60742">
        <ele>216</ele>
        <time>2013-07-12T12:29:00Z</time>
      </trkpt>
      <trkpt lat="47.13023" lon="5.60757">
        <ele>216</ele>
        <time>2013-07-12T12:29:02Z</time>
      </trkpt>
      <trkpt lat="47.1303" lon="5.60772">
        <ele>216</ele>
        <time>2013-07-12T12:29:04Z</time>
      </trkpt>
      <trkpt lat="47.13037" lon="5.60787">
        <ele>216</ele>
        <time>2013-07-12T12:29:06Z</time>
      </trkpt>
      <trkpt lat="47.13044" lon="5.60802">
        <ele>216</ele>
        <time>2013-07-12T12:29:08Z</time>
      </trkpt>
      <trkpt lat="47.13051" lon="5.60816">
        <ele>216</ele>
        <time>2013-07-12T12:29:10Z</time>
      </trkpt>
      <trkpt lat="47.13059" lon="5.6083">
        <ele>216</ele>
        <time>2013-07-12T12:29:12Z</time>
      </trkpt>
      <trkpt lat="47.13067" lon="5.60843">
        <ele>216</ele>
        <time>2013-07-12T12:29:14Z</time>
      </trkpt>
      <trkpt lat="47.13075" lon="5.60858">
        <ele>216</ele>
        <time>2013-07-12T12:29:16Z</time>
      </trkpt>
      <trkpt lat="47.13084" lon="5.60873">
        <ele>216</ele>
        <time>2013-07-12T12:29:18Z</time>
      </trkpt>
      <trkpt lat="47.13091" lon="5.60887">
        <ele>216</ele>
        <time>2013-07-12T12:29:20Z</time>
      </trkpt>
      <trkpt lat="47.13099" lon="5.60901">
        <ele>216</ele>
        <time>2013-07-12T12:29:22Z</time>
      </trkpt>
      <trkpt lat="47.13108" lon="5.60916">
        <ele>222</ele>
        <time>2013-07-12T12:29:24Z</time>
      </trkpt>
      <trkpt lat="47.13116" lon="5.60931">
        <ele>222</ele>
        <time>2013-07-12T12:29:26Z</time>
      </trkpt>
      <trkpt lat="47.13124" lon="5.60949">
        <ele>222</ele>
        <time>2013-07-12T12:29:28Z</time>
      </trkpt>
      <trkpt lat="47.1313" lon="5.60967">
        <ele>222</ele>
        <time>2013-07-12T12:29:30Z</time>
      </trkpt>
      <trkpt lat="47.13137" lon="5.60984">
        <ele>222</ele>
        <time>2013-07-12T12:29:32Z</time>
      </trkpt>
      <trkpt lat="47.13145" lon="5.61002">
        <ele>217</ele>
        <time>2013-07-12T12:29:34Z</time>
      </trkpt>
      <trkpt lat="47.13152" lon="5.61019">
        <ele>217</ele>
        <time>2013-07-12T12:29:36Z</time>
      </trkpt>
      <trkpt lat="47.13158" lon="5.61035">
        <ele>217</ele>
        <time>2013-07-12T12:29:38Z</time>
      </trkpt>
      <trkpt lat="47.13165" lon="5.61051">
        <ele>217</ele>
        <time>2013-07-12T12:29:40Z</time>
      </trkpt>
      <trkpt lat="47.13173" lon="5.61067">
        <ele>217</ele>
        <time>2013-07-12T12:29:42Z</time>
      </trkpt>
      <trkpt lat="47.13181" lon="5.61083">
        <ele>217</ele>
        <time>2013-07-12T12:29:44Z</time>
      </trkpt>
      <trkpt lat="47.13189" lon="5.61099">
        <ele>217</ele>
        <time>2013-07-12T12:29:46Z</time>
      </trkpt>
      <trkpt lat="47.13197" lon="5.61115">
        <ele>217</ele>
        <time>2013-07-12T12:29:48Z</time>
      </trkpt>
      <trkpt lat="47.13204" lon="5.61132">
        <ele>217</ele>
        <time>2013-07-12T12:29:50Z</time>
      </trkpt>
      <trkpt lat="47.13211" lon="5.61148">
        <ele>217</ele>
        <time>2013-07-12T12:29:52Z</time>
      </trkpt>
      <trkpt lat="47.13219" lon="5.61165">
        <ele>217</ele>
        <time>2013-07-12T12:29:54Z</time>
      </trkpt>
      <trkpt lat="47.13225" lon="5.61181">
        <ele>217</ele>
        <time>2013-07-12T12:29:56Z</time>
      </trkpt>
      <trkpt lat="47.13233" lon="5.61196">
        <ele>217</ele>
        <time>2013-07-12T12:29:58Z</time>
      </trkpt>
      <trkpt lat="47.1324" lon="5.6121">
        <ele>217</ele>
        <time>2013-07-12T12:30:00Z</time>
      </trkpt>
      <trkpt lat="47.13248" lon="5.61224">
        <ele>217</ele>
        <time>2013-07-12T12:30:02Z</time>
      </trkpt>
      <trkpt lat="47.13255" lon="5.6124">
        <ele>217</ele>
        <time>2013-07-12T12:30:04Z</time>
      </trkpt>
      <trkpt lat="47.13264" lon="5.61254">
        <ele>217</ele>
        <time>2013-07-12T12:30:06Z</time>
      </trkpt>
      <trkpt lat="47.13271" lon="5.61269">
        <ele>217</ele>
        <time>2013-07-12T12:30:08Z</time>
      </trkpt>
      <trkpt lat="47.13279" lon="5.61285">
        <ele>217</ele>
        <time>2013-07-12T12:30:10Z</time>
      </trkpt>
      <trkpt lat="47.13285" lon="5.613">
        <ele>217</ele>
        <time>2013-07-12T12:30:12Z</time>
      </trkpt>
      <trkpt lat="47.1329" lon="5.61316">
        <ele>211</ele>
        <time>2013-07-12T12:30:14Z</time>
      </trkpt>
      <trkpt lat="47.13296" lon="5.61332">
        <ele>211</ele>
        <time>2013-07-12T12:30:16Z</time>
      </trkpt>
      <trkpt lat="47.13301" lon="5.61348">
        <ele>211</ele>
        <time>2013-07-12T12:30:18Z</time>
      </trkpt>
      <trkpt lat="47.13308" lon="5.61365">
        <ele>211</ele>
        <time>2013-07-12T12:30:20Z</time>
      </trkpt>
      <trkpt lat="47.13316" lon="5.61382">
        <ele>211</ele>
        <time>2013-07-12T12:30:22Z</time>
      </trkpt>
      <trkpt lat="47.13322" lon="5.61399">
        <ele>211</ele>
        <time>2013-07-12T12:30:24Z</time>
      </trkpt>
      <trkpt lat="47.13328" lon="5.61417">
        <ele>211</ele>
        <time>2013-07-12T12:30:26Z</time>
      </trkpt>
      <trkpt lat="47.13336" lon="5.61433">
        <ele>211</ele>
        <time>2013-07-12T12:30:28Z</time>
      </trkpt>
      <trkpt lat="47.13342" lon="5.61449">
        <ele>211</ele>
        <time>2013-07-12T12:30:30Z</time>
      </trkpt>
      <trkpt lat="47.13347" lon="5.61465">
        <ele>211</ele>
        <time>2013-07-12T12:30:32Z</time>
      </trkpt>
      <trkpt lat="47.13353" lon="5.61482">
        <ele>211</ele>
        <time>2013-07-12T12:30:34Z</time>
      </trkpt>
      <trkpt lat="47.13358" lon="5.61499">
        <ele>211</ele>
        <time>2013-07-12T12:30:36Z</time>
      </trkpt>
      <trkpt lat="47.13363" lon="5.61516">
        <ele>211</ele>
        <time>2013-07-12T12:30:38Z</time>
      </trkpt>
      <trkpt lat="47.1337" lon="5.61534">
        <ele>211</ele>
        <time>2013-07-12T12:30:40Z</time>
      </trkpt>
      <trkpt lat="47.13377" lon="5.61552">
        <ele>211</ele>
        <time>2013-07-12T12:30:42Z</time>
      </trkpt>
      <trkpt lat="47.13382" lon="5.61571">
        <ele>211</ele>
        <time>2013-07-12T12:30:44Z</time>
      </trkpt>
      <trkpt lat="47.13386" lon="5.61589">
        <ele>211</ele>
        <time>2013-07-12T12:30:46Z</time>
      </trkpt>
      <trkpt lat="47.1339" lon="5.61607">
        <ele>211</ele>
        <time>2013-07-12T12:30:48Z</time>
      </trkpt>
      <trkpt lat="47.13394" lon="5.61625">
        <ele>211</ele>
        <time>2013-07-12T12:30:50Z</time>
      </trkpt>
      <trkpt lat="47.13399" lon="5.61643">
        <ele>211</ele>
        <time>2013-07-12T12:30:52Z</time>
      </trkpt>
      <trkpt lat="47.13403" lon="5.61662">
        <ele>211</ele>
        <time>2013-07-12T12:30:54Z</time>
      </trkpt>
      <trkpt lat="47.13406" lon="5.61679">
        <ele>211</ele>
        <time>2013-07-12T12:30:56Z</time>
      </trkpt>
      <trkpt lat="47.13409" lon="5.61695">
        <ele>211</ele>
        <time>2013-07-12T12:30:58Z</time>
      </trkpt>
      <trkpt lat="47.13412" lon="5.6171">
        <ele>211</ele>
        <time>2013-07-12T12:31:00Z</time>
      </trkpt>
      <trkpt lat="47.13415" lon="5.61727">
        <ele>211</ele>
        <time>2013-07-12T12:31:02Z</time>
      </trkpt>
      <trkpt lat="47.1342" lon="5.61745">
        <ele>211</ele>
        <time>2013-07-12T12:31:04Z</time>
      </trkpt>
      <trkpt lat="47.13426" lon="5.61763">
        <ele>211</ele>
        <time>2013-07-12T12:31:06Z</time>
      </trkpt>
      <trkpt lat="47.13435" lon="5.61779">
        <ele>211</ele>
        <time>2013-07-12T12:31:08Z</time>
      </trkpt>
      <trkpt lat="47.13444" lon="5.61794">
        <ele>211</ele>
        <time>2013-07-12T12:31:10Z</time>
      </trkpt>
      <trkpt lat="47.13453" lon="5.61807">
        <ele>211</ele>
        <time>2013-07-12T12:31:12Z</time>
      </trkpt>
      <trkpt lat="47.13461" lon="5.61821">
        <ele>211</ele>
        <time>2013-07-12T12:31:14Z</time>
      </trkpt>
      <trkpt lat="47.1347" lon="5.61835">
        <ele>211</ele>
        <time>2013-07-12T12:31:16Z</time>
      </trkpt>
      <trkpt lat="47.1348" lon="5.6185">
        <ele>211</ele>
        <time>2013-07-12T12:31:18Z</time>
      </trkpt>
      <trkpt lat="47.1349" lon="5.61868">
        <ele>211</ele>
        <time>2013-07-12T12:31:20Z</time>
      </trkpt>
      <trkpt lat="47.13498" lon="5.61883">
        <ele>211</ele>
        <time>2013-07-12T12:31:22Z</time>
      </trkpt>
      <trkpt lat="47.13507" lon="5.61899">
        <ele>211</ele>
        <time>2013-07-12T12:31:24Z</time>
      </trkpt>
      <trkpt lat="47.13515" lon="5.61915">
        <ele>211</ele>
        <time>2013-07-12T12:31:26Z</time>
      </trkpt>
      <trkpt lat="47.13521" lon="5.61933">
        <ele>211</ele>
        <time>2013-07-12T12:31:28Z</time>
      </trkpt>
      <trkpt lat="47.13527" lon="5.6195">
        <ele>211</ele>
        <time>2013-07-12T12:31:30Z</time>
      </trkpt>
      <trkpt lat="47.13534" lon="5.61968">
        <ele>211</ele>
        <time>2013-07-12T12:31:32Z</time>
      </trkpt>
      <trkpt lat="47.1354" lon="5.61984">
        <ele>211</ele>
        <time>2013-07-12T12:31:34Z</time>
      </trkpt>
      <trkpt lat="47.13544" lon="5.62002">
        <ele>211</ele>
        <time>2013-07-12T12:31:36Z</time>
      </trkpt>
      <trkpt lat="47.13547" lon="5.62021">
        <ele>211</ele>
        <time>2013-07-12T12:31:38Z</time>
      </trkpt>
      <trkpt lat="47.13551" lon="5.62039">
        <ele>211</ele>
        <time>2013-07-12T12:31:40Z</time>
      </trkpt>
      <trkpt lat="47.13554" lon="5.62057">
        <ele>211</ele>
        <time>2013-07-12T12:31:42Z</time>
      </trkpt>
      <trkpt lat="47.13559" lon="5.62075">
        <ele>211</ele>
        <time>2013-07-12T12:31:44Z</time>
      </trkpt>
      <trkpt lat="47.13563" lon="5.62092">
        <ele>211</ele>
        <time>2013-07-12T12:31:46Z</time>
      </trkpt>
      <trkpt lat="47.13569" lon="5.6211">
        <ele>211</ele>
        <time>2013-07-12T12:31:48Z</time>
      </trkpt>
      <trkpt lat="47.13573" lon="5.62128">
        <ele>211</ele>
        <time>2013-07-12T12:31:50Z</time>
      </trkpt>
      <trkpt lat="47.13578" lon="5.62146">
        <ele>211</ele>
        <time>2013-07-12T12:31:52Z</time>
      </trkpt>
      <trkpt lat="47.13583" lon="5.62164">
        <ele>216</ele>
        <time>2013-07-12T12:31:54Z</time>
      </trkpt>
      <trkpt lat="47.13588" lon="5.62184">
        <ele>216</ele>
        <time>2013-07-12T12:31:56Z</time>
      </trkpt>
      <trkpt lat="47.13591" lon="5.62203">
        <ele>216</ele>
        <time>2013-07-12T12:31:58Z</time>
      </trkpt>
      <trkpt lat="47.13594" lon="5.62222">
        <ele>216</ele>
        <time>2013-07-12T12:32:00Z</time>
      </trkpt>
      <trkpt lat="47.13596" lon="5.62242">
        <ele>216</ele>
        <time>2013-07-12T12:32:02Z</time>
      </trkpt>
      <trkpt lat="47.13598" lon="5.62262">
        <ele>216</ele>
        <time>2013-07-12T12:32:04Z</time>
      </trkpt>
      <trkpt lat="47.13601" lon="5.62283">
        <ele>216</ele>
        <time>2013-07-12T12:32:06Z</time>
      </trkpt>
      <trkpt lat="47.13603" lon="5.62303">
        <ele>216</ele>
        <time>2013-07-12T12:32:08Z</time>
      </trkpt>
      <trkpt lat="47.13605" lon="5.62324">
        <ele>216</ele>
        <time>2013-07-12T12:32:10Z</time>
      </trkpt>
      <trkpt lat="47.13607" lon="5.62344">
        <ele>216</ele>
        <time>2013-07-12T12:32:12Z</time>
      </trkpt>
      <trkpt lat="47.13607" lon="5.62364">
        <ele>216</ele>
        <time>2013-07-12T12:32:14Z</time>
      </trkpt>
      <trkpt lat="47.13608" lon="5.62384">
        <ele>216</ele>
        <time>2013-07-12T12:32:16Z</time>
      </trkpt>
      <trkpt lat="47.13611" lon="5.62404">
        <ele>216</ele>
        <time>2013-07-12T12:32:18Z</time>
      </trkpt>
      <trkpt lat="47.13612" lon="5.62423">
        <ele>216</ele>
        <time>2013-07-12T12:32:20Z</time>
      </trkpt>
      <trkpt lat="47.13614" lon="5.62442">
        <ele>216</ele>
        <time>2013-07-12T12:32:22Z</time>
      </trkpt>
      <trkpt lat="47.13617" lon="5.62462">
        <ele>216</ele>
        <time>2013-07-12T12:32:24Z</time>
      </trkpt>
      <trkpt lat="47.13619" lon="5.62481">
        <ele>216</ele>
        <time>2013-07-12T12:32:26Z</time>
      </trkpt>
      <trkpt lat="47.13621" lon="5.62499">
        <ele>216</ele>
        <time>2013-07-12T12:32:28Z</time>
      </trkpt>
      <trkpt lat="47.13621" lon="5.62519">
        <ele>216</ele>
        <time>2013-07-12T12:32:30Z</time>
      </trkpt>
      <trkpt lat="47.13623" lon="5.62539">
        <ele>216</ele>
        <time>2013-07-12T12:32:32Z</time>
      </trkpt>
      <trkpt lat="47.13624" lon="5.62557">
        <ele>216</ele>
        <time>2013-07-12T12:32:34Z</time>
      </trkpt>
      <trkpt lat="47.13625" lon="5.62577">
        <ele>216</ele>
        <time>2013-07-12T12:32:36Z</time>
      </trkpt>
      <trkpt lat="47.13627" lon="5.62596">
        <ele>216</ele>
        <time>2013-07-12T12:32:38Z</time>
      </trkpt>
      <trkpt lat="47.13627" lon="5.62616">
        <ele>216</ele>
        <time>2013-07-12T12:32:40Z</time>
      </trkpt>
      <trkpt lat="47.13629" lon="5.62636">
        <ele>216</ele>
        <time>2013-07-12T12:32:42Z</time>
      </trkpt>
      <trkpt lat="47.1363" lon="5.62656">
        <ele>216</ele>
        <time>2013-07-12T12:32:44Z</time>
      </trkpt>
      <trkpt lat="47.1363" lon="5.62676">
        <ele>216</ele>
        <time>2013-07-12T12:32:46Z</time>
      </trkpt>
      <trkpt lat="47.13629" lon="5.62696">
        <ele>216</ele>
        <time>2013-07-12T12:32:48Z</time>
      </trkpt>
      <trkpt lat="47.1363" lon="5.62715">
        <ele>216</ele>
        <time>2013-07-12T12:32:50Z</time>
      </trkpt>
      <trkpt lat="47.13631" lon="5.62733">
        <ele>216</ele>
        <time>2013-07-12T12:32:52Z</time>
      </trkpt>
      <trkpt lat="47.13633" lon="5.62751">
        <ele>216</ele>
        <time>2013-07-12T12:32:54Z</time>
      </trkpt>
      <trkpt lat="47.13632" lon="5.62769">
        <ele>216</ele>
        <time>2013-07-12T12:32:56Z</time>
      </trkpt>
      <trkpt lat="47.13632" lon="5.62786">
        <ele>216</ele>
        <time>2013-07-12T12:32:58Z</time>
      </trkpt>
      <trkpt lat="47.13632" lon="5.62804">
        <ele>216</ele>
        <time>2013-07-12T12:33:00Z</time>
      </trkpt>
      <trkpt lat="47.13635" lon="5.62823">
        <ele>216</ele>
        <time>2013-07-12T12:33:02Z</time>
      </trkpt>
      <trkpt lat="47.13636" lon="5.62841">
        <ele>216</ele>
        <time>2013-07-12T12:33:04Z</time>
      </trkpt>
      <trkpt lat="47.13637" lon="5.6286">
        <ele>216</ele>
        <time>2013-07-12T12:33:06Z</time>
      </trkpt>
      <trkpt lat="47.13637" lon="5.62879">
        <ele>216</ele>
        <time>2013-07-12T12:33:08Z</time>
      </trkpt>
      <trkpt lat="47.13637" lon="5.62898">
        <ele>216</ele>
        <time>2013-07-12T12:33:10Z</time>
      </trkpt>
      <trkpt lat="47.13635" lon="5.62917">
        <ele>216</ele>
        <time>2013-07-12T12:33:12Z</time>
      </trkpt>
      <trkpt lat="47.13634" lon="5.62936">
        <ele>216</ele>
        <time>2013-07-12T12:33:14Z</time>
      </trkpt>
      <trkpt lat="47.13633" lon="5.62954">
        <ele>216</ele>
        <time>2013-07-12T12:33:16Z</time>
      </trkpt>
      <trkpt lat="47.13632" lon="5.62972">
        <ele>216</ele>
        <time>2013-07-12T12:33:18Z</time>
      </trkpt>
      <trkpt lat="47.13631" lon="5.62988">
        <ele>216</ele>
        <time>2013-07-12T12:33:20Z</time>
      </trkpt>
      <trkpt lat="47.13629" lon="5.63007">
        <ele>216</ele>
        <time>2013-07-12T12:33:22Z</time>
      </trkpt>
      <trkpt lat="47.13627" lon="5.63025">
        <ele>216</ele>
        <time>2013-07-12T12:33:24Z</time>
      </trkpt>
      <trkpt lat="47.13626" lon="5.63041">
        <ele>216</ele>
        <time>2013-07-12T12:33:26Z</time>
      </trkpt>
      <trkpt lat="47.13623" lon="5.63058">
        <ele>216</ele>
        <time>2013-07-12T12:33:28Z</time>
      </trkpt>
      <trkpt lat="47.1362" lon="5.63076">
        <ele>216</ele>
        <time>2013-07-12T12:33:30Z</time>
      </trkpt>
      <trkpt lat="47.13619" lon="5.63095">
        <ele>216</ele>
        <time>2013-07-12T12:33:32Z</time>
      </trkpt>
      <trkpt lat="47.13619" lon="5.63113">
        <ele>216</ele>
        <time>2013-07-12T12:33:34Z</time>
      </trkpt>
      <trkpt lat="47.13615" lon="5.63132">
        <ele>216</ele>
        <time>2013-07-12T12:33:36Z</time>
      </trkpt>
      <trkpt lat="47.13613" lon="5.63151">
        <ele>216</ele>
        <time>2013-07-12T12:33:38Z</time>
      </trkpt>
      <trkpt lat="47.13614" lon="5.63171">
        <ele>216</ele>
        <time>2013-07-12T12:33:40Z</time>
      </trkpt>
      <trkpt lat="47.13613" lon="5.63191">
        <ele>216</ele>
        <time>2013-07-12T12:33:42Z</time>
      </trkpt>
      <trkpt lat="47.13611" lon="5.6321">
        <ele>216</ele>
        <time>2013-07-12T12:33:44Z</time>
      </trkpt>
      <trkpt lat="47.1361" lon="5.63229">
        <ele>216</ele>
        <time>2013-07-12T12:33:46Z</time>
      </trkpt>
      <trkpt lat="47.13609" lon="5.63248">
        <ele>216</ele>
        <time>2013-07-12T12:33:48Z</time>
      </trkpt>
      <trkpt lat="47.13607" lon="5.63266">
        <ele>216</ele>
        <time>2013-07-12T12:33:50Z</time>
      </trkpt>
      <trkpt lat="47.13603" lon="5.63284">
        <ele>216</ele>
        <time>2013-07-12T12:33:52Z</time>
      </trkpt>
      <trkpt lat="47.136" lon="5.63302">
        <ele>216</ele>
        <time>2013-07-12T12:33:54Z</time>
      </trkpt>
      <trkpt lat="47.13596" lon="5.6332">
        <ele>216</ele>
        <time>2013-07-12T12:33:56Z</time>
      </trkpt>
      <trkpt lat="47.13591" lon="5.63337">
        <ele>216</ele>
        <time>2013-07-12T12:33:58Z</time>
      </trkpt>
      <trkpt lat="47.1359" lon="5.63356">
        <ele>216</ele>
        <time>2013-07-12T12:34:00Z</time>
      </trkpt>
      <trkpt lat="47.13586" lon="5.63374">
        <ele>216</ele>
        <time>2013-07-12T12:34:02Z</time>
      </trkpt>
      <trkpt lat="47.13581" lon="5.63392">
        <ele>216</ele>
        <time>2013-07-12T12:34:04Z</time>
      </trkpt>
      <trkpt lat="47.13576" lon="5.6341">
        <ele>216</ele>
        <time>2013-07-12T12:34:06Z</time>
      </trkpt>
      <trkpt lat="47.13571" lon="5.63428">
        <ele>216</ele>
        <time>2013-07-12T12:34:08Z</time>
      </trkpt>
      <trkpt lat="47.13567" lon="5.63446">
        <ele>216</ele>
        <time>2013-07-12T12:34:10Z</time>
      </trkpt>
      <trkpt lat="47.13564" lon="5.63465">
        <ele>216</ele>
        <time>2013-07-12T12:34:12Z</time>
      </trkpt>
      <trkpt lat="47.13561" lon="5.63482">
        <ele>221</ele>
        <time>2013-07-12T12:34:14Z</time>
      </trkpt>
      <trkpt lat="47.13555" lon="5.635">
        <ele>221</ele>
        <time>2013-07-12T12:34:16Z</time>
      </trkpt>
      <trkpt lat="47.13551" lon="5.63518">
        <ele>221</ele>
        <time>2013-07-12T12:34:18Z</time>
      </trkpt>
      <trkpt lat="47.13548" lon="5.63536">
        <ele>221</ele>
        <time>2013-07-12T12:34:20Z</time>
      </trkpt>
      <trkpt lat="47.13544" lon="5.63555">
        <ele>221</ele>
        <time>2013-07-12T12:34:22Z</time>
      </trkpt>
      <trkpt lat="47.1354" lon="5.63574">
        <ele>221</ele>
        <time>2013-07-12T12:34:24Z</time>
      </trkpt>
      <trkpt lat="47.13537" lon="5.63593">
        <ele>221</ele>
        <time>2013-07-12T12:34:26Z</time>
      </trkpt>
      <trkpt lat="47.13532" lon="5.63611">
        <ele>221</ele>
        <time>2013-07-12T12:34:28Z</time>
      </trkpt>
      <trkpt lat="47.13529" lon="5.63629">
        <ele>221</ele>
        <time>2013-07-12T12:34:30Z</time>
      </trkpt>
      <trkpt lat="47.13524" lon="5.63648">
        <ele>221</ele>
        <time>2013-07-12T12:34:32Z</time>
      </trkpt>
      <trkpt lat="47.13523" lon="5.63666">
        <ele>221</ele>
        <time>2013-07-12T12:34:34Z</time>
      </trkpt>
      <trkpt lat="47.13521" lon="5.63684">
        <ele>221</ele>
        <time>2013-07-12T12:34:36Z</time>
      </trkpt>
      <trkpt lat="47.1352" lon="5.63703">
        <ele>221</ele>
        <time>2013-07-12T12:34:38Z</time>
      </trkpt>
      <trkpt lat="47.13521" lon="5.63722">
        <ele>221</ele>
        <time>2013-07-12T12:34:40Z</time>
      </trkpt>
      <trkpt lat="47.13523" lon="5.63741">
        <ele>221</ele>
        <time>2013-07-12T12:34:42Z</time>
      </trkpt>
      <trkpt lat="47.13526" lon="5.63759">
        <ele>221</ele>
        <time>2013-07-12T12:34:44Z</time>
      </trkpt>
      <trkpt lat="47.13532" lon="5.63777">
        <ele>221</ele>
        <time>2013-07-12T12:34:46Z</time>
      </trkpt>
      <trkpt lat="47.13539" lon="5.63794">
        <ele>221</ele>
        <time>2013-07-12T12:34:48Z</time>
      </trkpt>
      <trkpt lat="47.13547" lon="5.63809">
        <ele>221</ele>
        <time>2013-07-12T12:34:50Z</time>
      </trkpt>
      <trkpt lat="47.13557" lon="5.63824">
        <ele>221</ele>
        <time>2013-07-12T12:34:52Z</time>
      </trkpt>
      <trkpt lat="47.13562" lon="5.63843">
        <ele>221</ele>
        <time>2013-07-12T12:34:54Z</time>
      </trkpt>
      <trkpt lat="47.13565" lon="5.63864">
        <ele>221</ele>
        <time>2013-07-12T12:34:56Z</time>
      </trkpt>
      <trkpt lat="47.13564" lon="5.63885">
        <ele>221</ele>
        <time>2013-07-12T12:34:58Z</time>
      </trkpt>
      <trkpt lat="47.13562" lon="5.63906">
        <ele>221</ele>
        <time>2013-07-12T12:35:00Z</time>
      </trkpt>
      <trkpt lat="47.13558" lon="5.63927">
        <ele>221</ele>
        <time>2013-07-12T12:35:02Z</time>
      </trkpt>
      <trkpt lat="47.13556" lon="5.63947">
        <ele>221</ele>
        <time>2013-07-12T12:35:04Z</time>
      </trkpt>
      <trkpt lat="47.13551" lon="5.63967">
        <ele>216</ele>
        <time>2013-07-12T12:35:06Z</time>
      </trkpt>
      <trkpt lat="47.13547" lon="5.63987">
        <ele>216</ele>
        <time>2013-07-12T12:35:08Z</time>
      </trkpt>
      <trkpt lat="47.1354" lon="5.64005">
        <ele>216</ele>
        <time>2013-07-12T12:35:10Z</time>
      </trkpt>
      <trkpt lat="47.13535" lon="5.64022">
        <ele>216</ele>
        <time>2013-07-12T12:35:12Z</time>
      </trkpt>
      <trkpt lat="47.13531" lon="5.64039">
        <ele>216</ele>
        <time>2013-07-12T12:35:14Z</time>
      </trkpt>
      <trkpt lat="47.13526" lon="5.64057">
        <ele>216</ele>
        <time>2013-07-12T12:35:16Z</time>
      </trkpt>
      <trkpt lat="47.13518" lon="5.64073">
        <ele>216</ele>
        <time>2013-07-12T12:35:18Z</time>
      </trkpt>
      <trkpt lat="47.13512" lon="5.6409">
        <ele>216</ele>
        <time>2013-07-12T12:35:20Z</time>
      </trkpt>
      <trkpt lat="47.13505" lon="5.64106">
        <ele>216</ele>
        <time>2013-07-12T12:35:22Z</time>
      </trkpt>
      <trkpt lat="47.13498" lon="5.64121">
        <ele>211</ele>
        <time>2013-07-12T12:35:24Z</time>
      </trkpt>
      <trkpt lat="47.13491" lon="5.64137">
        <ele>211</ele>
        <time>2013-07-12T12:35:26Z</time>
      </trkpt>
      <trkpt lat="47.13485" lon="5.64152">
        <ele>211</ele>
        <time>2013-07-12T12:35:28Z</time>
      </trkpt>
      <trkpt lat="47.13478" lon="5.64168">
        <ele>211</ele>
        <time>2013-07-12T12:35:30Z</time>
      </trkpt>
      <trkpt lat="47.13474" lon="5.64183">
        <ele>211</ele>
        <time>2013-07-12T12:35:32Z</time>
      </trkpt>
      <trkpt lat="47.13468" lon="5.642">
        <ele>211</ele>
        <time>2013-07-12T12:35:34Z</time>
      </trkpt>
      <trkpt lat="47.13463" lon="5.64217">
        <ele>217</ele>
        <time>2013-07-12T12:35:36Z</time>
      </trkpt>
      <trkpt lat="47.13455" lon="5.64232">
        <ele>217</ele>
        <time>2013-07-12T12:35:38Z</time>
      </trkpt>
      <trkpt lat="47.13447" lon="5.64247">
        <ele>217</ele>
        <time>2013-07-12T12:35:40Z</time>
      </trkpt>
      <trkpt lat="47.1344" lon="5.64262">
        <ele>217</ele>
        <time>2013-07-12T12:35:42Z</time>
      </trkpt>
      <trkpt lat="47.13429" lon="5.64276">
        <ele>217</ele>
        <time>2013-07-12T12:35:44Z</time>
      </trkpt>
      <trkpt lat="47.13418" lon="5.64289">
        <ele>217</ele>
        <time>2013-07-12T12:35:46Z</time>
      </trkpt>
      <trkpt lat="47.13407" lon="5.64302">
        <ele>217</ele>
        <time>2013-07-12T12:35:48Z</time>
      </trkpt>
      <trkpt lat="47.13398" lon="5.64314">
        <ele>217</ele>
        <time>2013-07-12T12:35:50Z</time>
      </trkpt>
      <trkpt lat="47.13389" lon="5.64325">
        <ele>217</ele>
        <time>2013-07-12T12:35:52Z</time>
      </trkpt>
      <trkpt lat="47.1338" lon="5.64337">
        <ele>217</ele>
        <time>2013-07-12T12:35:54Z</time>
      </trkpt>
      <trkpt lat="47.13369" lon="5.64346">
        <ele>217</ele>
        <time>2013-07-12T12:35:56Z</time>
      </trkpt>
      <trkpt lat="47.1336" lon="5.64356">
        <ele>217</ele>
        <time>2013-07-12T12:35:58Z</time>
      </trkpt>
      <trkpt lat="47.13349" lon="5.64368">
        <ele>223</ele>
        <time>2013-07-12T12:36:00Z</time>
      </trkpt>
      <trkpt lat="47.1334" lon="5.64381">
        <ele>223</ele>
        <time>2013-07-12T12:36:02Z</time>
      </trkpt>
      <trkpt lat="47.13332" lon="5.64394">
        <ele>223</ele>
        <time>2013-07-12T12:36:04Z</time>
      </trkpt>
      <trkpt lat="47.13325" lon="5.6441">
        <ele>223</ele>
        <time>2013-07-12T12:36:06Z</time>
      </trkpt>
      <trkpt lat="47.1332" lon="5.64426">
        <ele>223</ele>
        <time>2013-07-12T12:36:08Z</time>
      </trkpt>
      <trkpt lat="47.13315" lon="5.64442">
        <ele>223</ele>
        <time>2013-07-12T12:36:10Z</time>
      </trkpt>
      <trkpt lat="47.13311" lon="5.64458">
        <ele>223</ele>
        <time>2013-07-12T12:36:12Z</time>
      </trkpt>
      <trkpt lat="47.13309" lon="5.64475">
        <ele>223</ele>
        <time>2013-07-12T12:36:14Z</time>
      </trkpt>
      <trkpt lat="47.13303" lon="5.64493">
        <ele>217</ele>
        <time>2013-07-12T12:36:16Z</time>
      </trkpt>
      <trkpt lat="47.13296" lon="5.6451">
        <ele>217</ele>
        <time>2013-07-12T12:36:18Z</time>
      </trkpt>
      <trkpt lat="47.13287" lon="5.64526">
        <ele>217</ele>
        <time>2013-07-12T12:36:20Z</time>
      </trkpt>
      <trkpt lat="47.13275" lon="5.64538">
        <ele>217</ele>
        <time>2013-07-12T12:36:22Z</time>
      </trkpt>
      <trkpt lat="47.13263" lon="5.64548">
        <ele>217</ele>
        <time>2013-07-12T12:36:24Z</time>
      </trkpt>
      <trkpt lat="47.13251" lon="5.64558">
        <ele>217</ele>
        <time>2013-07-12T12:36:26Z</time>
      </trkpt>
      <trkpt lat="47.13239" lon="5.64568">
        <ele>217</ele>
        <time>2013-07-12T12:36:28Z</time>
      </trkpt>
      <trkpt lat="47.13228" lon="5.64579">
        <ele>217</ele>
        <time>2013-07-12T12:36:30Z</time>
      </trkpt>
      <trkpt lat="47.13219" lon="5.64589">
        <ele>217</ele>
        <time>2013-07-12T12:36:32Z</time>
      </trkpt>
      <trkpt lat="47.13211" lon="5.64604">
        <ele>217</ele>
        <time>2013-07-12T12:36:34Z</time>
      </trkpt>
      <trkpt lat="47.13206" lon="5.64621">
        <ele>217</ele>
        <time>2013-07-12T12:36:36Z</time>
      </trkpt>
      <trkpt lat="47.13204" lon="5.6464">
        <ele>217</ele>
        <time>2013-07-12T12:36:38Z</time>
      </trkpt>
      <trkpt lat="47.13204" lon="5.64659">
        <ele>217</ele>
        <time>2013-07-12T12:36:40Z</time>
      </trkpt>
      <trkpt lat="47.13204" lon="5.64677">
        <ele>217</ele>
        <time>2013-07-12T12:36:42Z</time>
      </trkpt>
      <trkpt lat="47.13204" lon="5.64695">
        <ele>217</ele>
        <time>2013-07-12T12:36:44Z</time>
      </trkpt>
      <trkpt lat="47.13203" lon="5.6471">
        <ele>217</ele>
        <time>2013-07-12T12:36:46Z</time>
      </trkpt>
      <trkpt lat="47.13203" lon="5.64724">
        <ele>217</ele>
        <time>2013-07-12T12:36:48Z</time>
      </trkpt>
      <trkpt lat="47.13204" lon="5.64738">
        <ele>217</ele>
        <time>2013-07-12T12:36:50Z</time>
      </trkpt>
      <trkpt lat="47.13204" lon="5.64751">
        <ele>217</ele>
        <time>2013-07-12T12:36:52Z</time>
      </trkpt>
      <trkpt lat="47.13205" lon="5.6477">
        <ele>217</ele>
        <time>2013-07-12T12:36:55Z</time>
      </trkpt>
      <trkpt lat="47.13206" lon="5.64789">
        <ele>217</ele>
        <time>2013-07-12T12:36:58Z</time>
      </trkpt>
      <trkpt lat="47.13205" lon="5.64802">
        <ele>217</ele>
        <time>2013-07-12T12:37:00Z</time>
      </trkpt>
      <trkpt lat="47.13204" lon="5.64821">
        <ele>217</ele>
        <time>2013-07-12T12:37:03Z</time>
      </trkpt>
      <trkpt lat="47.13204" lon="5.64835">
        <ele>217</ele>
        <time>2013-07-12T12:37:05Z</time>
      </trkpt>
      <trkpt lat="47.13204" lon="5.64854">
        <ele>217</ele>
        <time>2013-07-12T12:37:08Z</time>
      </trkpt>
      <trkpt lat="47.13206" lon="5.64874">
        <ele>217</ele>
        <time>2013-07-12T12:37:11Z</time>
      </trkpt>
      <trkpt lat="47.13206" lon="5.64894">
        <ele>217</ele>
        <time>2013-07-12T12:37:14Z</time>
      </trkpt>
      <trkpt lat="47.13208" lon="5.64914">
        <ele>217</ele>
        <time>2013-07-12T12:37:17Z</time>
      </trkpt>
      <trkpt lat="47.1321" lon="5.64927">
        <ele>217</ele>
        <time>2013-07-12T12:37:19Z</time>
      </trkpt>
      <trkpt lat="47.13212" lon="5.64941">
        <ele>217</ele>
        <time>2013-07-12T12:37:21Z</time>
      </trkpt>
      <trkpt lat="47.13214" lon="5.64954">
        <ele>217</ele>
        <time>2013-07-12T12:37:23Z</time>
      </trkpt>
      <trkpt lat="47.13217" lon="5.64967">
        <ele>222</ele>
        <time>2013-07-12T12:37:25Z</time>
      </trkpt>
      <trkpt lat="47.1322" lon="5.6498">
        <ele>222</ele>
        <time>2013-07-12T12:37:27Z</time>
      </trkpt>
      <trkpt lat="47.13222" lon="5.64994">
        <ele>222</ele>
        <time>2013-07-12T12:37:29Z</time>
      </trkpt>
      <trkpt lat="47.13226" lon="5.65006">
        <ele>222</ele>
        <time>2013-07-12T12:37:31Z</time>
      </trkpt>
      <trkpt lat="47.13231" lon="5.65024">
        <ele>222</ele>
        <time>2013-07-12T12:37:34Z</time>
      </trkpt>
      <trkpt lat="47.13239" lon="5.65039">
        <ele>222</ele>
        <time>2013-07-12T12:37:37Z</time>
      </trkpt>
      <trkpt lat="47.13247" lon="5.65055">
        <ele>222</ele>
        <time>2013-07-12T12:37:40Z</time>
      </trkpt>
      <trkpt lat="47.13255" lon="5.65064">
        <ele>222</ele>
        <time>2013-07-12T12:37:42Z</time>
      </trkpt>
      <trkpt lat="47.13265" lon="5.65073">
        <ele>222</ele>
        <time>2013-07-12T12:37:44Z</time>
      </trkpt>
      <trkpt lat="47.13277" lon="5.65082">
        <ele>222</ele>
        <time>2013-07-12T12:37:46Z</time>
      </trkpt>
      <trkpt lat="47.1329" lon="5.65088">
        <ele>222</ele>
        <time>2013-07-12T12:37:48Z</time>
      </trkpt>
      <trkpt lat="47.13306" lon="5.65086">
        <ele>222</ele>
        <time>2013-07-12T12:37:50Z</time>
      </trkpt>
      <trkpt lat="47.13322" lon="5.65074">
        <ele>222</ele>
        <time>2013-07-12T12:37:52Z</time>
      </trkpt>
      <trkpt lat="47.1333" lon="5.65066">
        <ele>222</ele>
        <time>2013-07-12T12:37:53Z</time>
      </trkpt>
      <trkpt lat="47.13338" lon="5.65057">
        <ele>222</ele>
        <time>2013-07-12T12:37:54Z</time>
      </trkpt>
      <trkpt lat="47.13347" lon="5.65048">
        <ele>222</ele>
        <time>2013-07-12T12:37:55Z</time>
      </trkpt>
      <trkpt lat="47.13357" lon="5.65041">
        <ele>222</ele>
        <time>2013-07-12T12:37:56Z</time>
      </trkpt>
      <trkpt lat="47.13368" lon="5.65036">
        <ele>222</ele>
        <time>2013-07-12T12:37:57Z</time>
      </trkpt>
      <trkpt lat="47.13378" lon="5.65032">
        <ele>216</ele>
        <time>2013-07-12T12:37:58Z</time>
      </trkpt>
      <trkpt lat="47.13388" lon="5.6503">
        <ele>216</ele>
        <time>2013-07-12T12:37:59Z</time>
      </trkpt>
      <trkpt lat="47.13399" lon="5.65028">
        <ele>216</ele>
        <time>2013-07-12T12:38:00Z</time>
      </trkpt>
      <trkpt lat="47.13409" lon="5.65027">
        <ele>216</ele>
        <time>2013-07-12T12:38:01Z</time>
      </trkpt>
      <trkpt lat="47.13418" lon="5.65026">
        <ele>216</ele>
        <time>2013-07-12T12:38:02Z</time>
      </trkpt>
      <trkpt lat="47.13428" lon="5.65026">
        <ele>216</ele>
        <time>2013-07-12T12:38:03Z</time>
      </trkpt>
      <trkpt lat="47.13437" lon="5.65025">
        <ele>216</ele>
        <time>2013-07-12T12:38:04Z</time>
      </trkpt>
      <trkpt lat="47.13454" lon="5.65024">
        <ele>216</ele>
        <time>2013-07-12T12:38:06Z</time>
      </trkpt>
      <trkpt lat="47.1347" lon="5.65023">
        <ele>216</ele>
        <time>2013-07-12T12:38:08Z</time>
      </trkpt>
      <trkpt lat="47.13485" lon="5.65022">
        <ele>216</ele>
        <time>2013-07-12T12:38:10Z</time>
      </trkpt>
      <trkpt lat="47.13501" lon="5.65022">
        <ele>216</ele>
        <time>2013-07-12T12:38:12Z</time>
      </trkpt>
      <trkpt lat="47.13516" lon="5.65023">
        <ele>216</ele>
        <time>2013-07-12T12:38:14Z</time>
      </trkpt>
      <trkpt lat="47.13531" lon="5.65024">
        <ele>216</ele>
        <time>2013-07-12T12:38:16Z</time>
      </trkpt>
      <trkpt lat="47.13547" lon="5.65025">
        <ele>216</ele>
        <time>2013-07-12T12:38:18Z</time>
      </trkpt>
      <trkpt lat="47.13561" lon="5.65028">
        <ele>216</ele>
        <time>2013-07-12T12:38:20Z</time>
      </trkpt>
      <trkpt lat="47.13576" lon="5.65031">
        <ele>216</ele>
        <time>2013-07-12T12:38:22Z</time>
      </trkpt>
      <trkpt lat="47.1359" lon="5.65036">
        <ele>216</ele>
        <time>2013-07-12T12:38:24Z</time>
      </trkpt>
      <trkpt lat="47.13604" lon="5.65041">
        <ele>216</ele>
        <time>2013-07-12T12:38:26Z</time>
      </trkpt>
      <trkpt lat="47.13618" lon="5.65048">
        <ele>216</ele>
        <time>2013-07-12T12:38:28Z</time>
      </trkpt>
      <trkpt lat="47.13632" lon="5.65055">
        <ele>216</ele>
        <time>2013-07-12T12:38:30Z</time>
      </trkpt>
      <trkpt lat="47.13646" lon="5.65061">
        <ele>216</ele>
        <time>2013-07-12T12:38:32Z</time>
      </trkpt>
      <trkpt lat="47.13659" lon="5.65067">
        <ele>216</ele>
        <time>2013-07-12T12:38:34Z</time>
      </trkpt>
      <trkpt lat="47.13672" lon="5.65073">
        <ele>216</ele>
        <time>2013-07-12T12:38:36Z</time>
      </trkpt>
      <trkpt lat="47.13684" lon="5.65078">
        <ele>216</ele>
        <time>2013-07-12T12:38:38Z</time>
      </trkpt>
      <trkpt lat="47.13697" lon="5.65083">
        <ele>216</ele>
        <time>2013-07-12T12:38:40Z</time>
      </trkpt>
      <trkpt lat="47.13709" lon="5.65089">
        <ele>216</ele>
        <time>2013-07-12T12:38:42Z</time>
      </trkpt>
      <trkpt lat="47.13722" lon="5.65092">
        <ele>216</ele>
        <time>2013-07-12T12:38:44Z</time>
      </trkpt>
      <trkpt lat="47.13732" lon="5.65096">
        <ele>216</ele>
        <time>2013-07-12T12:38:46Z</time>
      </trkpt>
      <trkpt lat="47.13741" lon="5.65101">
        <ele>216</ele>
        <time>2013-07-12T12:38:48Z</time>
      </trkpt>
      <trkpt lat="47.13751" lon="5.65105">
        <ele>216</ele>
        <time>2013-07-12T12:38:50Z</time>
      </trkpt>
      <trkpt lat="47.1376" lon="5.65109">
        <ele>216</ele>
        <time>2013-07-12T12:38:52Z</time>
      </trkpt>
      <trkpt lat="47.1377" lon="5.65113">
        <ele>216</ele>
        <time>2013-07-12T12:38:54Z</time>
      </trkpt>
      <trkpt lat="47.13779" lon="5.65119">
        <ele>216</ele>
        <time>2013-07-12T12:38:56Z</time>
      </trkpt>
      <trkpt lat="47.13789" lon="5.65124">
        <ele>216</ele>
        <time>2013-07-12T12:38:58Z</time>
      </trkpt>
      <trkpt lat="47.13799" lon="5.65131">
        <ele>216</ele>
        <time>2013-07-12T12:39:00Z</time>
      </trkpt>
      <trkpt lat="47.13808" lon="5.6514">
        <ele>216</ele>
        <time>2013-07-12T12:39:02Z</time>
      </trkpt>
      <trkpt lat="47.13817" lon="5.6515">
        <ele>216</ele>
        <time>2013-07-12T12:39:04Z</time>
      </trkpt>
      <trkpt lat="47.13826" lon="5.6516">
        <ele>216</ele>
        <time>2013-07-12T12:39:06Z</time>
      </trkpt>
      <trkpt lat="47.13835" lon="5.65171">
        <ele>216</ele>
        <time>2013-07-12T12:39:08Z</time>
      </trkpt>
      <trkpt lat="47.13844" lon="5.65182">
        <ele>216</ele>
        <time>2013-07-12T12:39:10Z</time>
      </trkpt>
      <trkpt lat="47.13853" lon="5.65194">
        <ele>216</ele>
        <time>2013-07-12T12:39:12Z</time>
      </trkpt>
      <trkpt lat="47.13862" lon="5.65207">
        <ele>216</ele>
        <time>2013-07-12T12:39:14Z</time>
      </trkpt>
      <trkpt lat="47.13871" lon="5.65218">
        <ele>216</ele>
        <time>2013-07-12T12:39:16Z</time>
      </trkpt>
      <trkpt lat="47.13881" lon="5.65231">
        <ele>216</ele>
        <time>2013-07-12T12:39:18Z</time>
      </trkpt>
      <trkpt lat="47.1389" lon="5.65242">
        <ele>216</ele>
        <time>2013-07-12T12:39:20Z</time>
      </trkpt>
      <trkpt lat="47.139" lon="5.65255">
        <ele>216</ele>
        <time>2013-07-12T12:39:22Z</time>
      </trkpt>
      <trkpt lat="47.13909" lon="5.65267">
        <ele>216</ele>
        <time>2013-07-12T12:39:24Z</time>
      </trkpt>
      <trkpt lat="47.13917" lon="5.65278">
        <ele>216</ele>
        <time>2013-07-12T12:39:26Z</time>
      </trkpt>
      <trkpt lat="47.13927" lon="5.6529">
        <ele>216</ele>
        <time>2013-07-12T12:39:28Z</time>
      </trkpt>
      <trkpt lat="47.13936" lon="5.65301">
        <ele>216</ele>
        <time>2013-07-12T12:39:30Z</time>
      </trkpt>
      <trkpt lat="47.13945" lon="5.65313">
        <ele>216</ele>
        <time>2013-07-12T12:39:32Z</time>
      </trkpt>
      <trkpt lat="47.13954" lon="5.65323">
        <ele>216</ele>
        <time>2013-07-12T12:39:34Z</time>
      </trkpt>
      <trkpt lat="47.13962" lon="5.65334">
        <ele>216</ele>
        <time>2013-07-12T12:39:36Z</time>
      </trkpt>
      <trkpt lat="47.1397" lon="5.65345">
        <ele>216</ele>
        <time>2013-07-12T12:39:38Z</time>
      </trkpt>
      <trkpt lat="47.13979" lon="5.65357">
        <ele>216</ele>
        <time>2013-07-12T12:39:40Z</time>
      </trkpt>
      <trkpt lat="47.13987" lon="5.65368">
        <ele>216</ele>
        <time>2013-07-12T12:39:42Z</time>
      </trkpt>
      <trkpt lat="47.13996" lon="5.65379">
        <ele>216</ele>
        <time>2013-07-12T12:39:44Z</time>
      </trkpt>
      <trkpt lat="47.14005" lon="5.65391">
        <ele>216</ele>
        <time>2013-07-12T12:39:46Z</time>
      </trkpt>
      <trkpt lat="47.14014" lon="5.65402">
        <ele>216</ele>
        <time>2013-07-12T12:39:48Z</time>
      </trkpt>
      <trkpt lat="47.14023" lon="5.65414">
        <ele>216</ele>
        <time>2013-07-12T12:39:50Z</time>
      </trkpt>
      <trkpt lat="47.14032" lon="5.65426">
        <ele>216</ele>
        <time>2013-07-12T12:39:52Z</time>
      </trkpt>
      <trkpt lat="47.1404" lon="5.65437">
        <ele>216</ele>
        <time>2013-07-12T12:39:54Z</time>
      </trkpt>
      <trkpt lat="47.14048" lon="5.65447">
        <ele>211</ele>
        <time>2013-07-12T12:39:56Z</time>
      </trkpt>
      <trkpt lat="47.14055" lon="5.65457">
        <ele>211</ele>
        <time>2013-07-12T12:39:58Z</time>
      </trkpt>
      <trkpt lat="47.14063" lon="5.65466">
        <ele>211</ele>
        <time>2013-07-12T12:40:00Z</time>
      </trkpt>
      <trkpt lat="47.1407" lon="5.65475">
        <ele>211</ele>
        <time>2013-07-12T12:40:02Z</time>
      </trkpt>
      <trkpt lat="47.14079" lon="5.65488">
        <ele>211</ele>
        <time>2013-07-12T12:40:05Z</time>
      </trkpt>
      <trkpt lat="47.14086" lon="5.65499">
        <ele>211</ele>
        <time>2013-07-12T12:40:08Z</time>
      </trkpt>
      <trkpt lat="47.14087" lon="5.65513">
        <ele>211</ele>
        <time>2013-07-12T12:40:11Z</time>
      </trkpt>
      <trkpt lat="47.14076" lon="5.65519">
        <ele>211</ele>
        <time>2013-07-12T12:40:15Z</time>
      </trkpt>
      <trkpt lat="47.14063" lon="5.65516">
        <ele>211</ele>
        <time>2013-07-12T12:40:18Z</time>
      </trkpt>
      <trkpt lat="47.14053" lon="5.65512">
        <ele>211</ele>
        <time>2013-07-12T12:40:20Z</time>
      </trkpt>
      <trkpt lat="47.14042" lon="5.65509">
        <ele>211</ele>
        <time>2013-07-12T12:40:22Z</time>
      </trkpt>
      <trkpt lat="47.14033" lon="5.65507">
        <ele>211</ele>
        <time>2013-07-12T12:40:24Z</time>
      </trkpt>
      <trkpt lat="47.14023" lon="5.65507">
        <ele>211</ele>
        <time>2013-07-12T12:40:26Z</time>
      </trkpt>
      <trkpt lat="47.14012" lon="5.65507">
        <ele>211</ele>
        <time>2013-07-12T12:40:28Z</time>
      </trkpt>
      <trkpt lat="47.14002" lon="5.65507">
        <ele>211</ele>
        <time>2013-07-12T12:40:30Z</time>
      </trkpt>
      <trkpt lat="47.13992" lon="5.65507">
        <ele>211</ele>
        <time>2013-07-12T12:40:32Z</time>
      </trkpt>
      <trkpt lat="47.13981" lon="5.65509">
        <ele>211</ele>
        <time>2013-07-12T12:40:34Z</time>
      </trkpt>
      <trkpt lat="47.1397" lon="5.6551">
        <ele>211</ele>
        <time>2013-07-12T12:40:36Z</time>
      </trkpt>
      <trkpt lat="47.1396" lon="5.65512">
        <ele>211</ele>
        <time>2013-07-12T12:40:38Z</time>
      </trkpt>
      <trkpt lat="47.13949" lon="5.65512">
        <ele>211</ele>
        <time>2013-07-12T12:40:40Z</time>
      </trkpt>
      <trkpt lat="47.13938" lon="5.65514">
        <ele>211</ele>
        <time>2013-07-12T12:40:42Z</time>
      </trkpt>
      <trkpt lat="47.13927" lon="5.65516">
        <ele>211</ele>
        <time>2013-07-12T12:40:44Z</time>
      </trkpt>
      <trkpt lat="47.13916" lon="5.6552">
        <ele>211</ele>
        <time>2013-07-12T12:40:46Z</time>
      </trkpt>
      <trkpt lat="47.13905" lon="5.65525">
        <ele>211</ele>
        <time>2013-07-12T12:40:48Z</time>
      </trkpt>
      <trkpt lat="47.13895" lon="5.65534">
        <ele>211</ele>
        <time>2013-07-12T12:40:50Z</time>
      </trkpt>
      <trkpt lat="47.13886" lon="5.65543">
        <ele>211</ele>
        <time>2013-07-12T12:40:52Z</time>
      </trkpt>
      <trkpt lat="47.13878" lon="5.65554">
        <ele>211</ele>
        <time>2013-07-12T12:40:54Z</time>
      </trkpt>
      <trkpt lat="47.1387" lon="5.65566">
        <ele>211</ele>
        <time>2013-07-12T12:40:56Z</time>
      </trkpt>
      <trkpt lat="47.13862" lon="5.65578">
        <ele>211</ele>
        <time>2013-07-12T12:40:58Z</time>
      </trkpt>
      <trkpt lat="47.13854" lon="5.65588">
        <ele>211</ele>
        <time>2013-07-12T12:41:00Z</time>
      </trkpt>
      <trkpt lat="47.13846" lon="5.656">
        <ele>211</ele>
        <time>2013-07-12T12:41:02Z</time>
      </trkpt>
      <trkpt lat="47.13838" lon="5.65612">
        <ele>211</ele>
        <time>2013-07-12T12:41:04Z</time>
      </trkpt>
      <trkpt lat="47.1383" lon="5.65622">
        <ele>211</ele>
        <time>2013-07-12T12:41:06Z</time>
      </trkpt>
      <trkpt lat="47.13822" lon="5.65633">
        <ele>211</ele>
        <time>2013-07-12T12:41:08Z</time>
      </trkpt>
      <trkpt lat="47.13813" lon="5.65644">
        <ele>211</ele>
        <time>2013-07-12T12:41:10Z</time>
      </trkpt>
      <trkpt lat="47.13805" lon="5.65655">
        <ele>211</ele>
        <time>2013-07-12T12:41:12Z</time>
      </trkpt>
      <trkpt lat="47.13797" lon="5.65666">
        <ele>211</ele>
        <time>2013-07-12T12:41:14Z</time>
      </trkpt>
      <trkpt lat="47.13789" lon="5.65677">
        <ele>211</ele>
        <time>2013-07-12T12:41:16Z</time>
      </trkpt>
      <trkpt lat="47.13781" lon="5.65688">
        <ele>211</ele>
        <time>2013-07-12T12:41:18Z</time>
      </trkpt>
      <trkpt lat="47.13773" lon="5.65698">
        <ele>211</ele>
        <time>2013-07-12T12:41:20Z</time>
      </trkpt>
      <trkpt lat="47.13766" lon="5.65709">
        <ele>211</ele>
        <time>2013-07-12T12:41:22Z</time>
      </trkpt>
      <trkpt lat="47.13759" lon="5.6572">
        <ele>211</ele>
        <time>2013-07-12T12:41:24Z</time>
      </trkpt>
      <trkpt lat="47.13754" lon="5.65734">
        <ele>211</ele>
        <time>2013-07-12T12:41:26Z</time>
      </trkpt>
      <trkpt lat="47.13753" lon="5.65748">
        <ele>211</ele>
        <time>2013-07-12T12:41:28Z</time>
      </trkpt>
      <trkpt lat="47.13754" lon="5.65763">
        <ele>211</ele>
        <time>2013-07-12T12:41:30Z</time>
      </trkpt>
      <trkpt lat="47.13756" lon="5.65777">
        <ele>211</ele>
        <time>2013-07-12T12:41:32Z</time>
      </trkpt>
      <trkpt lat="47.1376" lon="5.65792">
        <ele>211</ele>
        <time>2013-07-12T12:41:34Z</time>
      </trkpt>
      <trkpt lat="47.13763" lon="5.65808">
        <ele>211</ele>
        <time>2013-07-12T12:41:36Z</time>
      </trkpt>
      <trkpt lat="47.13765" lon="5.65825">
        <ele>211</ele>
        <time>2013-07-12T12:41:38Z</time>
      </trkpt>
      <trkpt lat="47.13766" lon="5.65842">
        <ele>211</ele>
        <time>2013-07-12T12:41:40Z</time>
      </trkpt>
      <trkpt lat="47.13766" lon="5.65859">
        <ele>211</ele>
        <time>2013-07-12T12:41:42Z</time>
      </trkpt>
      <trkpt lat="47.13765" lon="5.65876">
        <ele>211</ele>
        <time>2013-07-12T12:41:44Z</time>
      </trkpt>
      <trkpt lat="47.13763" lon="5.65893">
        <ele>211</ele>
        <time>2013-07-12T12:41:46Z</time>
      </trkpt>
      <trkpt lat="47.1376" lon="5.6591">
        <ele>211</ele>
        <time>2013-07-12T12:41:48Z</time>
      </trkpt>
      <trkpt lat="47.13757" lon="5.65926">
        <ele>211</ele>
        <time>2013-07-12T12:41:50Z</time>
      </trkpt>
      <trkpt lat="47.13755" lon="5.65943">
        <ele>211</ele>
        <time>2013-07-12T12:41:52Z</time>
      </trkpt>
      <trkpt lat="47.13752" lon="5.6596">
        <ele>211</ele>
        <time>2013-07-12T12:41:54Z</time>
      </trkpt>
      <trkpt lat="47.13749" lon="5.65978">
        <ele>211</ele>
        <time>2013-07-12T12:41:56Z</time>
      </trkpt>
      <trkpt lat="47.13746" lon="5.65997">
        <ele>211</ele>
        <time>2013-07-12T12:41:58Z</time>
      </trkpt>
      <trkpt lat="47.13743" lon="5.66015">
        <ele>211</ele>
        <time>2013-07-12T12:42:00Z</time>
      </trkpt>
      <trkpt lat="47.13741" lon="5.66033">
        <ele>211</ele>
        <time>2013-07-12T12:42:02Z</time>
      </trkpt>
      <trkpt lat="47.13738" lon="5.66051">
        <ele>211</ele>
        <time>2013-07-12T12:42:04Z</time>
      </trkpt>
      <trkpt lat="47.13737" lon="5.66069">
        <ele>211</ele>
        <time>2013-07-12T12:42:06Z</time>
      </trkpt>
      <trkpt lat="47.13735" lon="5.66087">
        <ele>211</ele>
        <time>2013-07-12T12:42:08Z</time>
      </trkpt>
      <trkpt lat="47.13734" lon="5.66105">
        <ele>211</ele>
        <time>2013-07-12T12:42:10Z</time>
      </trkpt>
      <trkpt lat="47.13733" lon="5.66122">
        <ele>211</ele>
        <time>2013-07-12T12:42:12Z</time>
      </trkpt>
      <trkpt lat="47.13731" lon="5.6614">
        <ele>211</ele>
        <time>2013-07-12T12:42:14Z</time>
      </trkpt>
      <trkpt lat="47.1373" lon="5.66158">
        <ele>211</ele>
        <time>2013-07-12T12:42:16Z</time>
      </trkpt>
      <trkpt lat="47.13728" lon="5.66177">
        <ele>211</ele>
        <time>2013-07-12T12:42:18Z</time>
      </trkpt>
      <trkpt lat="47.13726" lon="5.66196">
        <ele>211</ele>
        <time>2013-07-12T12:42:20Z</time>
      </trkpt>
      <trkpt lat="47.13724" lon="5.66215">
        <ele>211</ele>
        <time>2013-07-12T12:42:22Z</time>
      </trkpt>
      <trkpt lat="47.13722" lon="5.66235">
        <ele>211</ele>
        <time>2013-07-12T12:42:24Z</time>
      </trkpt>
      <trkpt lat="47.13721" lon="5.66255">
        <ele>211</ele>
        <time>2013-07-12T12:42:26Z</time>
      </trkpt>
      <trkpt lat="47.13719" lon="5.66275">
        <ele>211</ele>
        <time>2013-07-12T12:42:28Z</time>
      </trkpt>
      <trkpt lat="47.13717" lon="5.66295">
        <ele>211</ele>
        <time>2013-07-12T12:42:30Z</time>
      </trkpt>
      <trkpt lat="47.13716" lon="5.66314">
        <ele>211</ele>
        <time>2013-07-12T12:42:32Z</time>
      </trkpt>
      <trkpt lat="47.13714" lon="5.66334">
        <ele>211</ele>
        <time>2013-07-12T12:42:34Z</time>
      </trkpt>
      <trkpt lat="47.13712" lon="5.66354">
        <ele>211</ele>
        <time>2013-07-12T12:42:36Z</time>
      </trkpt>
      <trkpt lat="47.1371" lon="5.66373">
        <ele>211</ele>
        <time>2013-07-12T12:42:38Z</time>
      </trkpt>
      <trkpt lat="47.13708" lon="5.66393">
        <ele>211</ele>
        <time>2013-07-12T12:42:40Z</time>
      </trkpt>
      <trkpt lat="47.13707" lon="5.66413">
        <ele>211</ele>
        <time>2013-07-12T12:42:42Z</time>
      </trkpt>
      <trkpt lat="47.13705" lon="5.66432">
        <ele>211</ele>
        <time>2013-07-12T12:42:44Z</time>
      </trkpt>
      <trkpt lat="47.13703" lon="5.66452">
        <ele>211</ele>
        <time>2013-07-12T12:42:46Z</time>
      </trkpt>
      <trkpt lat="47.13701" lon="5.6647">
        <ele>211</ele>
        <time>2013-07-12T12:42:48Z</time>
      </trkpt>
      <trkpt lat="47.137" lon="5.6649">
        <ele>211</ele>
        <time>2013-07-12T12:42:50Z</time>
      </trkpt>
      <trkpt lat="47.13697" lon="5.66509">
        <ele>211</ele>
        <time>2013-07-12T12:42:52Z</time>
      </trkpt>
      <trkpt lat="47.13694" lon="5.66527">
        <ele>211</ele>
        <time>2013-07-12T12:42:54Z</time>
      </trkpt>
      <trkpt lat="47.13691" lon="5.66545">
        <ele>211</ele>
        <time>2013-07-12T12:42:56Z</time>
      </trkpt>
      <trkpt lat="47.13686" lon="5.66562">
        <ele>211</ele>
        <time>2013-07-12T12:42:58Z</time>
      </trkpt>
      <trkpt lat="47.13683" lon="5.6658">
        <ele>211</ele>
        <time>2013-07-12T12:43:00Z</time>
      </trkpt>
      <trkpt lat="47.1368" lon="5.66598">
        <ele>211</ele>
        <time>2013-07-12T12:43:02Z</time>
      </trkpt>
      <trkpt lat="47.13675" lon="5.66615">
        <ele>211</ele>
        <time>2013-07-12T12:43:04Z</time>
      </trkpt>
      <trkpt lat="47.13671" lon="5.66632">
        <ele>211</ele>
        <time>2013-07-12T12:43:06Z</time>
      </trkpt>
      <trkpt lat="47.13667" lon="5.66649">
        <ele>211</ele>
        <time>2013-07-12T12:43:08Z</time>
      </trkpt>
      <trkpt lat="47.13662" lon="5.66666">
        <ele>211</ele>
        <time>2013-07-12T12:43:10Z</time>
      </trkpt>
      <trkpt lat="47.13657" lon="5.66684">
        <ele>211</ele>
        <time>2013-07-12T12:43:12Z</time>
      </trkpt>
      <trkpt lat="47.13653" lon="5.66701">
        <ele>211</ele>
        <time>2013-07-12T12:43:14Z</time>
      </trkpt>
      <trkpt lat="47.13649" lon="5.66718">
        <ele>211</ele>
        <time>2013-07-12T12:43:16Z</time>
      </trkpt>
      <trkpt lat="47.13645" lon="5.66735">
        <ele>211</ele>
        <time>2013-07-12T12:43:18Z</time>
      </trkpt>
      <trkpt lat="47.1364" lon="5.66752">
        <ele>211</ele>
        <time>2013-07-12T12:43:20Z</time>
      </trkpt>
      <trkpt lat="47.13636" lon="5.66769">
        <ele>211</ele>
        <time>2013-07-12T12:43:22Z</time>
      </trkpt>
      <trkpt lat="47.13631" lon="5.66787">
        <ele>211</ele>
        <time>2013-07-12T12:43:24Z</time>
      </trkpt>
      <trkpt lat="47.13627" lon="5.66804">
        <ele>211</ele>
        <time>2013-07-12T12:43:26Z</time>
      </trkpt>
      <trkpt lat="47.13622" lon="5.66821">
        <ele>211</ele>
        <time>2013-07-12T12:43:28Z</time>
      </trkpt>
      <trkpt lat="47.13617" lon="5.66838">
        <ele>211</ele>
        <time>2013-07-12T12:43:30Z</time>
      </trkpt>
      <trkpt lat="47.13612" lon="5.66855">
        <ele>211</ele>
        <time>2013-07-12T12:43:32Z</time>
      </trkpt>
      <trkpt lat="47.13607" lon="5.66872">
        <ele>211</ele>
        <time>2013-07-12T12:43:34Z</time>
      </trkpt>
      <trkpt lat="47.13603" lon="5.66889">
        <ele>211</ele>
        <time>2013-07-12T12:43:36Z</time>
      </trkpt>
      <trkpt lat="47.13598" lon="5.66906">
        <ele>211</ele>
        <time>2013-07-12T12:43:38Z</time>
      </trkpt>
      <trkpt lat="47.13593" lon="5.66923">
        <ele>211</ele>
        <time>2013-07-12T12:43:40Z</time>
      </trkpt>
      <trkpt lat="47.13588" lon="5.6694">
        <ele>211</ele>
        <time>2013-07-12T12:43:42Z</time>
      </trkpt>
      <trkpt lat="47.13583" lon="5.66958">
        <ele>211</ele>
        <time>2013-07-12T12:43:44Z</time>
      </trkpt>
      <trkpt lat="47.13579" lon="5.66976">
        <ele>211</ele>
        <time>2013-07-12T12:43:46Z</time>
      </trkpt>
      <trkpt lat="47.13573" lon="5.66994">
        <ele>211</ele>
        <time>2013-07-12T12:43:48Z</time>
      </trkpt>
      <trkpt lat="47.13569" lon="5.67012">
        <ele>211</ele>
        <time>2013-07-12T12:43:50Z</time>
      </trkpt>
      <trkpt lat="47.13564" lon="5.6703">
        <ele>211</ele>
        <time>2013-07-12T12:43:52Z</time>
      </trkpt>
      <trkpt lat="47.1356" lon="5.67048">
        <ele>211</ele>
        <time>2013-07-12T12:43:54Z</time>
      </trkpt>
      <trkpt lat="47.13555" lon="5.67065">
        <ele>211</ele>
        <time>2013-07-12T12:43:56Z</time>
      </trkpt>
      <trkpt lat="47.13551" lon="5.67082">
        <ele>211</ele>
        <time>2013-07-12T12:43:58Z</time>
      </trkpt>
      <trkpt lat="47.13547" lon="5.67099">
        <ele>211</ele>
        <time>2013-07-12T12:44:00Z</time>
      </trkpt>
      <trkpt lat="47.13542" lon="5.67116">
        <ele>211</ele>
        <time>2013-07-12T12:44:02Z</time>
      </trkpt>
      <trkpt lat="47.13537" lon="5.67133">
        <ele>211</ele>
        <time>2013-07-12T12:44:04Z</time>
      </trkpt>
      <trkpt lat="47.13533" lon="5.6715">
        <ele>211</ele>
        <time>2013-07-12T12:44:06Z</time>
      </trkpt>
      <trkpt lat="47.13528" lon="5.67167">
        <ele>211</ele>
        <time>2013-07-12T12:44:08Z</time>
      </trkpt>
      <trkpt lat="47.13524" lon="5.67183">
        <ele>211</ele>
        <time>2013-07-12T12:44:10Z</time>
      </trkpt>
      <trkpt lat="47.1352" lon="5.67198">
        <ele>211</ele>
        <time>2013-07-12T12:44:12Z</time>
      </trkpt>
      <trkpt lat="47.13515" lon="5.67214">
        <ele>211</ele>
        <time>2013-07-12T12:44:14Z</time>
      </trkpt>
      <trkpt lat="47.13511" lon="5.6723">
        <ele>211</ele>
        <time>2013-07-12T12:44:16Z</time>
      </trkpt>
      <trkpt lat="47.13506" lon="5.67245">
        <ele>211</ele>
        <time>2013-07-12T12:44:18Z</time>
      </trkpt>
      <trkpt lat="47.13502" lon="5.67261">
        <ele>211</ele>
        <time>2013-07-12T12:44:20Z</time>
      </trkpt>
      <trkpt lat="47.13497" lon="5.67276">
        <ele>211</ele>
        <time>2013-07-12T12:44:22Z</time>
      </trkpt>
      <trkpt lat="47.13493" lon="5.67292">
        <ele>211</ele>
        <time>2013-07-12T12:44:24Z</time>
      </trkpt>
      <trkpt lat="47.13489" lon="5.67307">
        <ele>211</ele>
        <time>2013-07-12T12:44:26Z</time>
      </trkpt>
      <trkpt lat="47.13485" lon="5.67323">
        <ele>211</ele>
        <time>2013-07-12T12:44:28Z</time>
      </trkpt>
      <trkpt lat="47.1348" lon="5.67338">
        <ele>211</ele>
        <time>2013-07-12T12:44:30Z</time>
      </trkpt>
      <trkpt lat="47.13475" lon="5.67353">
        <ele>211</ele>
        <time>2013-07-12T12:44:32Z</time>
      </trkpt>
      <trkpt lat="47.13471" lon="5.67368">
        <ele>211</ele>
        <time>2013-07-12T12:44:34Z</time>
      </trkpt>
      <trkpt lat="47.13467" lon="5.67383">
        <ele>211</ele>
        <time>2013-07-12T12:44:36Z</time>
      </trkpt>
      <trkpt lat="47.13463" lon="5.67398">
        <ele>211</ele>
        <time>2013-07-12T12:44:38Z</time>
      </trkpt>
      <trkpt lat="47.13459" lon="5.67415">
        <ele>211</ele>
        <time>2013-07-12T12:44:40Z</time>
      </trkpt>
      <trkpt lat="47.13455" lon="5.67431">
        <ele>211</ele>
        <time>2013-07-12T12:44:42Z</time>
      </trkpt>
      <trkpt lat="47.13452" lon="5.67447">
        <ele>211</ele>
        <time>2013-07-12T12:44:44Z</time>
      </trkpt>
      <trkpt lat="47.13448" lon="5.67463">
        <ele>211</ele>
        <time>2013-07-12T12:44:46Z</time>
      </trkpt>
      <trkpt lat="47.13444" lon="5.6748">
        <ele>211</ele>
        <time>2013-07-12T12:44:48Z</time>
      </trkpt>
      <trkpt lat="47.13439" lon="5.67497">
        <ele>211</ele>
        <time>2013-07-12T12:44:50Z</time>
      </trkpt>
      <trkpt lat="47.13433" lon="5.67514">
        <ele>211</ele>
        <time>2013-07-12T12:44:52Z</time>
      </trkpt>
      <trkpt lat="47.13426" lon="5.6753">
        <ele>211</ele>
        <time>2013-07-12T12:44:54Z</time>
      </trkpt>
      <trkpt lat="47.1342" lon="5.67546">
        <ele>218</ele>
        <time>2013-07-12T12:44:56Z</time>
      </trkpt>
      <trkpt lat="47.13412" lon="5.6756">
        <ele>218</ele>
        <time>2013-07-12T12:44:58Z</time>
      </trkpt>
      <trkpt lat="47.13402" lon="5.67575">
        <ele>218</ele>
        <time>2013-07-12T12:45:00Z</time>
      </trkpt>
      <trkpt lat="47.13393" lon="5.67589">
        <ele>218</ele>
        <time>2013-07-12T12:45:02Z</time>
      </trkpt>
      <trkpt lat="47.13382" lon="5.67602">
        <ele>218</ele>
        <time>2013-07-12T12:45:04Z</time>
      </trkpt>
      <trkpt lat="47.13372" lon="5.67616">
        <ele>218</ele>
        <time>2013-07-12T12:45:06Z</time>
      </trkpt>
      <trkpt lat="47.13363" lon="5.67629">
        <ele>218</ele>
        <time>2013-07-12T12:45:08Z</time>
      </trkpt>
      <trkpt lat="47.13353" lon="5.67642">
        <ele>218</ele>
        <time>2013-07-12T12:45:10Z</time>
      </trkpt>
      <trkpt lat="47.13342" lon="5.67655">
        <ele>218</ele>
        <time>2013-07-12T12:45:12Z</time>
      </trkpt>
      <trkpt lat="47.13331" lon="5.67669">
        <ele>218</ele>
        <time>2013-07-12T12:45:14Z</time>
      </trkpt>
      <trkpt lat="47.13321" lon="5.67683">
        <ele>218</ele>
        <time>2013-07-12T12:45:16Z</time>
      </trkpt>
      <trkpt lat="47.13311" lon="5.67697">
        <ele>218</ele>
        <time>2013-07-12T12:45:18Z</time>
      </trkpt>
      <trkpt lat="47.13301" lon="5.67711">
        <ele>218</ele>
        <time>2013-07-12T12:45:20Z</time>
      </trkpt>
      <trkpt lat="47.1329" lon="5.67724">
        <ele>218</ele>
        <time>2013-07-12T12:45:22Z</time>
      </trkpt>
      <trkpt lat="47.13281" lon="5.67737">
        <ele>218</ele>
        <time>2013-07-12T12:45:24Z</time>
      </trkpt>
      <trkpt lat="47.13271" lon="5.6775">
        <ele>218</ele>
        <time>2013-07-12T12:45:26Z</time>
      </trkpt>
      <trkpt lat="47.13261" lon="5.67763">
        <ele>218</ele>
        <time>2013-07-12T12:45:28Z</time>
      </trkpt>
      <trkpt lat="47.13252" lon="5.67776">
        <ele>218</ele>
        <time>2013-07-12T12:45:30Z</time>
      </trkpt>
      <trkpt lat="47.13243" lon="5.67788">
        <ele>218</ele>
        <time>2013-07-12T12:45:32Z</time>
      </trkpt>
      <trkpt lat="47.13234" lon="5.67801">
        <ele>218</ele>
        <time>2013-07-12T12:45:34Z</time>
      </trkpt>
      <trkpt lat="47.13225" lon="5.67813">
        <ele>218</ele>
        <time>2013-07-12T12:45:36Z</time>
      </trkpt>
      <trkpt lat="47.13219" lon="5.67829">
        <ele>218</ele>
        <time>2013-07-12T12:45:38Z</time>
      </trkpt>
      <trkpt lat="47.13214" lon="5.67845">
        <ele>218</ele>
        <time>2013-07-12T12:45:40Z</time>
      </trkpt>
      <trkpt lat="47.13212" lon="5.67863">
        <ele>218</ele>
        <time>2013-07-12T12:45:42Z</time>
      </trkpt>
      <trkpt lat="47.13211" lon="5.67882">
        <ele>218</ele>
        <time>2013-07-12T12:45:44Z</time>
      </trkpt>
      <trkpt lat="47.13211" lon="5.67901">
        <ele>218</ele>
        <time>2013-07-12T12:45:46Z</time>
      </trkpt>
      <trkpt lat="47.13212" lon="5.6792">
        <ele>218</ele>
        <time>2013-07-12T12:45:48Z</time>
      </trkpt>
      <trkpt lat="47.13214" lon="5.67939">
        <ele>218</ele>
        <time>2013-07-12T12:45:50Z</time>
      </trkpt>
      <trkpt lat="47.13215" lon="5.67959">
        <ele>218</ele>
        <time>2013-07-12T12:45:52Z</time>
      </trkpt>
      <trkpt lat="47.13216" lon="5.67978">
        <ele>218</ele>
        <time>2013-07-12T12:45:54Z</time>
      </trkpt>
      <trkpt lat="47.13218" lon="5.67997">
        <ele>218</ele>
        <time>2013-07-12T12:45:56Z</time>
      </trkpt>
      <trkpt lat="47.13219" lon="5.68016">
        <ele>218</ele>
        <time>2013-07-12T12:45:58Z</time>
      </trkpt>
      <trkpt lat="47.1322" lon="5.68034">
        <ele>218</ele>
        <time>2013-07-12T12:46:00Z</time>
      </trkpt>
      <trkpt lat="47.13222" lon="5.68053">
        <ele>218</ele>
        <time>2013-07-12T12:46:02Z</time>
      </trkpt>
      <trkpt lat="47.13224" lon="5.68072">
        <ele>218</ele>
        <time>2013-07-12T12:46:04Z</time>
      </trkpt>
      <trkpt lat="47.13225" lon="5.6809">
        <ele>218</ele>
        <time>2013-07-12T12:46:06Z</time>
      </trkpt>
      <trkpt lat="47.13226" lon="5.68109">
        <ele>218</ele>
        <time>2013-07-12T12:46:08Z</time>
      </trkpt>
      <trkpt lat="47.13227" lon="5.68129">
        <ele>218</ele>
        <time>2013-07-12T12:46:10Z</time>
      </trkpt>
      <trkpt lat="47.13228" lon="5.68149">
        <ele>218</ele>
        <time>2013-07-12T12:46:12Z</time>
      </trkpt>
      <trkpt lat="47.1323" lon="5.68167">
        <ele>218</ele>
        <time>2013-07-12T12:46:14Z</time>
      </trkpt>
      <trkpt lat="47.13231" lon="5.68187">
        <ele>218</ele>
        <time>2013-07-12T12:46:16Z</time>
      </trkpt>
      <trkpt lat="47.13231" lon="5.68207">
        <ele>218</ele>
        <time>2013-07-12T12:46:18Z</time>
      </trkpt>
      <trkpt lat="47.13233" lon="5.68226">
        <ele>218</ele>
        <time>2013-07-12T12:46:20Z</time>
      </trkpt>
      <trkpt lat="47.13234" lon="5.68246">
        <ele>218</ele>
        <time>2013-07-12T12:46:22Z</time>
      </trkpt>
      <trkpt lat="47.13236" lon="5.68265">
        <ele>218</ele>
        <time>2013-07-12T12:46:24Z</time>
      </trkpt>
      <trkpt lat="47.13237" lon="5.68285">
        <ele>218</ele>
        <time>2013-07-12T12:46:26Z</time>
      </trkpt>
      <trkpt lat="47.13238" lon="5.68305">
        <ele>218</ele>
        <time>2013-07-12T12:46:28Z</time>
      </trkpt>
      <trkpt lat="47.13239" lon="5.68325">
        <ele>218</ele>
        <time>2013-07-12T12:46:30Z</time>
      </trkpt>
      <trkpt lat="47.13239" lon="5.68344">
        <ele>218</ele>
        <time>2013-07-12T12:46:32Z</time>
      </trkpt>
      <trkpt lat="47.13238" lon="5.68365">
        <ele>218</ele>
        <time>2013-07-12T12:46:34Z</time>
      </trkpt>
      <trkpt lat="47.13237" lon="5.68385">
        <ele>218</ele>
        <time>2013-07-12T12:46:36Z</time>
      </trkpt>
      <trkpt lat="47.13235" lon="5.68405">
        <ele>218</ele>
        <time>2013-07-12T12:46:38Z</time>
      </trkpt>
      <trkpt lat="47.13234" lon="5.68424">
        <ele>218</ele>
        <time>2013-07-12T12:46:40Z</time>
      </trkpt>
      <trkpt lat="47.13233" lon="5.68443">
        <ele>218</ele>
        <time>2013-07-12T12:46:42Z</time>
      </trkpt>
      <trkpt lat="47.13233" lon="5.68461">
        <ele>218</ele>
        <time>2013-07-12T12:46:44Z</time>
      </trkpt>
      <trkpt lat="47.13233" lon="5.68479">
        <ele>218</ele>
        <time>2013-07-12T12:46:46Z</time>
      </trkpt>
      <trkpt lat="47.13233" lon="5.68495">
        <ele>218</ele>
        <time>2013-07-12T12:46:48Z</time>
      </trkpt>
      <trkpt lat="47.13234" lon="5.68511">
        <ele>218</ele>
        <time>2013-07-12T12:46:50Z</time>
      </trkpt>
      <trkpt lat="47.13236" lon="5.68528">
        <ele>218</ele>
        <time>2013-07-12T12:46:52Z</time>
      </trkpt>
      <trkpt lat="47.13236" lon="5.68541">
        <ele>218</ele>
        <time>2013-07-12T12:46:54Z</time>
      </trkpt>
      <trkpt lat="47.13238" lon="5.6856">
        <ele>218</ele>
        <time>2013-07-12T12:46:57Z</time>
      </trkpt>
      <trkpt lat="47.13238" lon="5.68578">
        <ele>218</ele>
        <time>2013-07-12T12:47:00Z</time>
      </trkpt>
      <trkpt lat="47.13238" lon="5.68594">
        <ele>218</ele>
        <time>2013-07-12T12:47:03Z</time>
      </trkpt>
      <trkpt lat="47.13238" lon="5.6861">
        <ele>212</ele>
        <time>2013-07-12T12:47:07Z</time>
      </trkpt>
      <trkpt lat="47.13236" lon="5.68624">
        <ele>212</ele>
        <time>2013-07-12T12:47:12Z</time>
      </trkpt>
      <trkpt lat="47.13234" lon="5.68639">
        <ele>212</ele>
        <time>2013-07-12T12:48:02Z</time>
      </trkpt>
      <trkpt lat="47.13233" lon="5.68653">
        <ele>212</ele>
        <time>2013-07-12T12:48:06Z</time>
      </trkpt>
      <trkpt lat="47.1323" lon="5.68669">
        <ele>212</ele>
        <time>2013-07-12T12:48:09Z</time>
      </trkpt>
      <trkpt lat="47.13226" lon="5.68687">
        <ele>212</ele>
        <time>2013-07-12T12:48:12Z</time>
      </trkpt>
      <trkpt lat="47.1322" lon="5.68705">
        <ele>212</ele>
        <time>2013-07-12T12:48:15Z</time>
      </trkpt>
      <trkpt lat="47.13216" lon="5.68718">
        <ele>212</ele>
        <time>2013-07-12T12:48:17Z</time>
      </trkpt>
      <trkpt lat="47.13211" lon="5.68732">
        <ele>212</ele>
        <time>2013-07-12T12:48:19Z</time>
      </trkpt>
      <trkpt lat="47.13207" lon="5.68748">
        <ele>212</ele>
        <time>2013-07-12T12:48:21Z</time>
      </trkpt>
      <trkpt lat="47.13203" lon="5.68763">
        <ele>212</ele>
        <time>2013-07-12T12:48:23Z</time>
      </trkpt>
      <trkpt lat="47.13198" lon="5.68779">
        <ele>212</ele>
        <time>2013-07-12T12:48:25Z</time>
      </trkpt>
      <trkpt lat="47.13193" lon="5.68795">
        <ele>212</ele>
        <time>2013-07-12T12:48:27Z</time>
      </trkpt>
      <trkpt lat="47.13189" lon="5.68811">
        <ele>212</ele>
        <time>2013-07-12T12:48:29Z</time>
      </trkpt>
      <trkpt lat="47.13184" lon="5.68827">
        <ele>212</ele>
        <time>2013-07-12T12:48:31Z</time>
      </trkpt>
      <trkpt lat="47.13179" lon="5.68843">
        <ele>212</ele>
        <time>2013-07-12T12:48:33Z</time>
      </trkpt>
      <trkpt lat="47.13174" lon="5.68858">
        <ele>212</ele>
        <time>2013-07-12T12:48:35Z</time>
      </trkpt>
      <trkpt lat="47.1317" lon="5.68874">
        <ele>212</ele>
        <time>2013-07-12T12:48:37Z</time>
      </trkpt>
      <trkpt lat="47.13165" lon="5.6889">
        <ele>212</ele>
        <time>2013-07-12T12:48:39Z</time>
      </trkpt>
      <trkpt lat="47.13159" lon="5.68904">
        <ele>212</ele>
        <time>2013-07-12T12:48:41Z</time>
      </trkpt>
      <trkpt lat="47.13152" lon="5.68917">
        <ele>212</ele>
        <time>2013-07-12T12:48:43Z</time>
      </trkpt>
      <trkpt lat="47.13144" lon="5.6893">
        <ele>212</ele>
        <time>2013-07-12T12:48:45Z</time>
      </trkpt>
      <trkpt lat="47.13135" lon="5.68941">
        <ele>212</ele>
        <time>2013-07-12T12:48:47Z</time>
      </trkpt>
      <trkpt lat="47.13127" lon="5.68953">
        <ele>212</ele>
        <time>2013-07-12T12:48:49Z</time>
      </trkpt>
      <trkpt lat="47.13118" lon="5.68964">
        <ele>212</ele>
        <time>2013-07-12T12:48:51Z</time>
      </trkpt>
      <trkpt lat="47.13111" lon="5.68975">
        <ele>212</ele>
        <time>2013-07-12T12:48:53Z</time>
      </trkpt>
      <trkpt lat="47.13104" lon="5.68986">
        <ele>212</ele>
        <time>2013-07-12T12:48:55Z</time>
      </trkpt>
      <trkpt lat="47.13098" lon="5.68996">
        <ele>212</ele>
        <time>2013-07-12T12:48:57Z</time>
      </trkpt>
      <trkpt lat="47.13091" lon="5.6901">
        <ele>212</ele>
        <time>2013-07-12T12:49:00Z</time>
      </trkpt>
      <trkpt lat="47.13086" lon="5.69024">
        <ele>219</ele>
        <time>2013-07-12T12:49:03Z</time>
      </trkpt>
      <trkpt lat="47.13082" lon="5.69039">
        <ele>219</ele>
        <time>2013-07-12T12:49:06Z</time>
      </trkpt>
      <trkpt lat="47.13084" lon="5.69052">
        <ele>225</ele>
        <time>2013-07-12T12:49:09Z</time>
      </trkpt>
      <trkpt lat="47.1309" lon="5.69064">
        <ele>225</ele>
        <time>2013-07-12T12:49:12Z</time>
      </trkpt>
      <trkpt lat="47.13097" lon="5.69075">
        <ele>225</ele>
        <time>2013-07-12T12:49:15Z</time>
      </trkpt>
      <trkpt lat="47.13103" lon="5.69085">
        <ele>225</ele>
        <time>2013-07-12T12:49:17Z</time>
      </trkpt>
      <trkpt lat="47.13109" lon="5.69099">
        <ele>230</ele>
        <time>2013-07-12T12:49:19Z</time>
      </trkpt>
      <trkpt lat="47.13116" lon="5.69113">
        <ele>230</ele>
        <time>2013-07-12T12:49:21Z</time>
      </trkpt>
      <trkpt lat="47.13122" lon="5.69129">
        <ele>230</ele>
        <time>2013-07-12T12:49:23Z</time>
      </trkpt>
      <trkpt lat="47.13127" lon="5.69149">
        <ele>230</ele>
        <time>2013-07-12T12:49:25Z</time>
      </trkpt>
      <trkpt lat="47.13132" lon="5.6917">
        <ele>230</ele>
        <time>2013-07-12T12:49:27Z</time>
      </trkpt>
      <trkpt lat="47.13136" lon="5.69192">
        <ele>230</ele>
        <time>2013-07-12T12:49:29Z</time>
      </trkpt>
      <trkpt lat="47.13142" lon="5.69215">
        <ele>230</ele>
        <time>2013-07-12T12:49:31Z</time>
      </trkpt>
      <trkpt lat="47.13148" lon="5.69236">
        <ele>224</ele>
        <time>2013-07-12T12:49:33Z</time>
      </trkpt>
      <trkpt lat="47.13155" lon="5.69256">
        <ele>224</ele>
        <time>2013-07-12T12:49:35Z</time>
      </trkpt>
      <trkpt lat="47.13162" lon="5.69274">
        <ele>224</ele>
        <time>2013-07-12T12:49:37Z</time>
      </trkpt>
      <trkpt lat="47.13169" lon="5.69292">
        <ele>224</ele>
        <time>2013-07-12T12:49:39Z</time>
      </trkpt>
      <trkpt lat="47.13176" lon="5.6931">
        <ele>224</ele>
        <time>2013-07-12T12:49:41Z</time>
      </trkpt>
      <trkpt lat="47.13182" lon="5.69328">
        <ele>224</ele>
        <time>2013-07-12T12:49:43Z</time>
      </trkpt>
      <trkpt lat="47.13189" lon="5.69345">
        <ele>218</ele>
        <time>2013-07-12T12:49:45Z</time>
      </trkpt>
      <trkpt lat="47.13195" lon="5.69362">
        <ele>218</ele>
        <time>2013-07-12T12:49:47Z</time>
      </trkpt>
      <trkpt lat="47.13202" lon="5.69379">
        <ele>218</ele>
        <time>2013-07-12T12:49:49Z</time>
      </trkpt>
      <trkpt lat="47.13208" lon="5.69396">
        <ele>218</ele>
        <time>2013-07-12T12:49:51Z</time>
      </trkpt>
      <trkpt lat="47.13213" lon="5.69412">
        <ele>218</ele>
        <time>2013-07-12T12:49:53Z</time>
      </trkpt>
      <trkpt lat="47.13219" lon="5.69429">
        <ele>218</ele>
        <time>2013-07-12T12:49:55Z</time>
      </trkpt>
      <trkpt lat="47.13225" lon="5.69446">
        <ele>218</ele>
        <time>2013-07-12T12:49:57Z</time>
      </trkpt>
      <trkpt lat="47.1323" lon="5.69462">
        <ele>218</ele>
        <time>2013-07-12T12:49:59Z</time>
      </trkpt>
      <trkpt lat="47.13236" lon="5.69477">
        <ele>218</ele>
        <time>2013-07-12T12:50:01Z</time>
      </trkpt>
      <trkpt lat="47.13242" lon="5.69494">
        <ele>218</ele>
        <time>2013-07-12T12:50:03Z</time>
      </trkpt>
      <trkpt lat="47.13249" lon="5.6951">
        <ele>218</ele>
        <time>2013-07-12T12:50:05Z</time>
      </trkpt>
      <trkpt lat="47.13256" lon="5.69527">
        <ele>218</ele>
        <time>2013-07-12T12:50:07Z</time>
      </trkpt>
      <trkpt lat="47.13263" lon="5.69545">
        <ele>218</ele>
        <time>2013-07-12T12:50:09Z</time>
      </trkpt>
      <trkpt lat="47.13269" lon="5.69562">
        <ele>218</ele>
        <time>2013-07-12T12:50:11Z</time>
      </trkpt>
      <trkpt lat="47.13276" lon="5.6958">
        <ele>218</ele>
        <time>2013-07-12T12:50:13Z</time>
      </trkpt>
      <trkpt lat="47.13283" lon="5.69597">
        <ele>218</ele>
        <time>2013-07-12T12:50:15Z</time>
      </trkpt>
      <trkpt lat="47.1329" lon="5.69613">
        <ele>218</ele>
        <time>2013-07-12T12:50:17Z</time>
      </trkpt>
      <trkpt lat="47.13296" lon="5.69631">
        <ele>218</ele>
        <time>2013-07-12T12:50:19Z</time>
      </trkpt>
      <trkpt lat="47.13304" lon="5.69648">
        <ele>218</ele>
        <time>2013-07-12T12:50:21Z</time>
      </trkpt>
      <trkpt lat="47.13311" lon="5.69666">
        <ele>218</ele>
        <time>2013-07-12T12:50:23Z</time>
      </trkpt>
      <trkpt lat="47.13318" lon="5.69684">
        <ele>218</ele>
        <time>2013-07-12T12:50:25Z</time>
      </trkpt>
      <trkpt lat="47.13325" lon="5.69701">
        <ele>213</ele>
        <time>2013-07-12T12:50:27Z</time>
      </trkpt>
      <trkpt lat="47.13332" lon="5.69719">
        <ele>213</ele>
        <time>2013-07-12T12:50:29Z</time>
      </trkpt>
      <trkpt lat="47.1334" lon="5.69736">
        <ele>213</ele>
        <time>2013-07-12T12:50:31Z</time>
      </trkpt>
      <trkpt lat="47.13347" lon="5.69753">
        <ele>213</ele>
        <time>2013-07-12T12:50:33Z</time>
      </trkpt>
      <trkpt lat="47.13355" lon="5.6977">
        <ele>213</ele>
        <time>2013-07-12T12:50:35Z</time>
      </trkpt>
      <trkpt lat="47.13362" lon="5.69786">
        <ele>213</ele>
        <time>2013-07-12T12:50:37Z</time>
      </trkpt>
      <trkpt lat="47.13368" lon="5.69802">
        <ele>213</ele>
        <time>2013-07-12T12:50:39Z</time>
      </trkpt>
      <trkpt lat="47.13375" lon="5.69819">
        <ele>213</ele>
        <time>2013-07-12T12:50:41Z</time>
      </trkpt>
      <trkpt lat="47.13382" lon="5.69837">
        <ele>213</ele>
        <time>2013-07-12T12:50:43Z</time>
      </trkpt>
      <trkpt lat="47.13388" lon="5.69854">
        <ele>213</ele>
        <time>2013-07-12T12:50:45Z</time>
      </trkpt>
      <trkpt lat="47.13395" lon="5.69872">
        <ele>213</ele>
        <time>2013-07-12T12:50:47Z</time>
      </trkpt>
      <trkpt lat="47.13401" lon="5.69889">
        <ele>213</ele>
        <time>2013-07-12T12:50:49Z</time>
      </trkpt>
      <trkpt lat="47.13409" lon="5.69907">
        <ele>213</ele>
        <time>2013-07-12T12:50:51Z</time>
      </trkpt>
      <trkpt lat="47.13415" lon="5.69924">
        <ele>213</ele>
        <time>2013-07-12T12:50:53Z</time>
      </trkpt>
      <trkpt lat="47.13422" lon="5.69941">
        <ele>213</ele>
        <time>2013-07-12T12:50:55Z</time>
      </trkpt>
      <trkpt lat="47.13429" lon="5.69957">
        <ele>213</ele>
        <time>2013-07-12T12:50:57Z</time>
      </trkpt>
      <trkpt lat="47.13435" lon="5.69974">
        <ele>213</ele>
        <time>2013-07-12T12:50:59Z</time>
      </trkpt>
      <trkpt lat="47.13441" lon="5.69991">
        <ele>213</ele>
        <time>2013-07-12T12:51:01Z</time>
      </trkpt>
      <trkpt lat="47.13448" lon="5.70007">
        <ele>213</ele>
        <time>2013-07-12T12:51:03Z</time>
      </trkpt>
      <trkpt lat="47.13455" lon="5.70024">
        <ele>213</ele>
        <time>2013-07-12T12:51:05Z</time>
      </trkpt>
      <trkpt lat="47.13461" lon="5.70041">
        <ele>213</ele>
        <time>2013-07-12T12:51:07Z</time>
      </trkpt>
      <trkpt lat="47.13467" lon="5.70059">
        <ele>213</ele>
        <time>2013-07-12T12:51:09Z</time>
      </trkpt>
      <trkpt lat="47.13473" lon="5.70076">
        <ele>213</ele>
        <time>2013-07-12T12:51:11Z</time>
      </trkpt>
      <trkpt lat="47.13478" lon="5.70094">
        <ele>213</ele>
        <time>2013-07-12T12:51:13Z</time>
      </trkpt>
      <trkpt lat="47.13481" lon="5.70115">
        <ele>213</ele>
        <time>2013-07-12T12:51:15Z</time>
      </trkpt>
      <trkpt lat="47.13483" lon="5.70135">
        <ele>213</ele>
        <time>2013-07-12T12:51:17Z</time>
      </trkpt>
      <trkpt lat="47.13485" lon="5.70154">
        <ele>213</ele>
        <time>2013-07-12T12:51:19Z</time>
      </trkpt>
      <trkpt lat="47.13486" lon="5.70172">
        <ele>213</ele>
        <time>2013-07-12T12:51:21Z</time>
      </trkpt>
      <trkpt lat="47.13486" lon="5.70191">
        <ele>213</ele>
        <time>2013-07-12T12:51:23Z</time>
      </trkpt>
      <trkpt lat="47.13488" lon="5.7021">
        <ele>213</ele>
        <time>2013-07-12T12:51:25Z</time>
      </trkpt>
      <trkpt lat="47.13489" lon="5.70229">
        <ele>213</ele>
        <time>2013-07-12T12:51:27Z</time>
      </trkpt>
      <trkpt lat="47.1349" lon="5.70248">
        <ele>213</ele>
        <time>2013-07-12T12:51:29Z</time>
      </trkpt>
      <trkpt lat="47.13491" lon="5.70268">
        <ele>213</ele>
        <time>2013-07-12T12:51:31Z</time>
      </trkpt>
      <trkpt lat="47.13492" lon="5.70288">
        <ele>213</ele>
        <time>2013-07-12T12:51:33Z</time>
      </trkpt>
      <trkpt lat="47.13493" lon="5.70308">
        <ele>213</ele>
        <time>2013-07-12T12:51:35Z</time>
      </trkpt>
      <trkpt lat="47.13493" lon="5.70328">
        <ele>213</ele>
        <time>2013-07-12T12:51:37Z</time>
      </trkpt>
      <trkpt lat="47.13494" lon="5.70347">
        <ele>213</ele>
        <time>2013-07-12T12:51:39Z</time>
      </trkpt>
      <trkpt lat="47.13495" lon="5.70366">
        <ele>213</ele>
        <time>2013-07-12T12:51:41Z</time>
      </trkpt>
      <trkpt lat="47.13496" lon="5.70385">
        <ele>213</ele>
        <time>2013-07-12T12:51:43Z</time>
      </trkpt>
      <trkpt lat="47.13497" lon="5.70404">
        <ele>213</ele>
        <time>2013-07-12T12:51:45Z</time>
      </trkpt>
      <trkpt lat="47.13498" lon="5.70424">
        <ele>213</ele>
        <time>2013-07-12T12:51:47Z</time>
      </trkpt>
      <trkpt lat="47.13499" lon="5.70442">
        <ele>213</ele>
        <time>2013-07-12T12:51:49Z</time>
      </trkpt>
      <trkpt lat="47.13501" lon="5.70461">
        <ele>213</ele>
        <time>2013-07-12T12:51:51Z</time>
      </trkpt>
      <trkpt lat="47.13504" lon="5.7048">
        <ele>213</ele>
        <time>2013-07-12T12:51:53Z</time>
      </trkpt>
      <trkpt lat="47.13509" lon="5.70497">
        <ele>213</ele>
        <time>2013-07-12T12:51:55Z</time>
      </trkpt>
      <trkpt lat="47.13515" lon="5.70514">
        <ele>213</ele>
        <time>2013-07-12T12:51:57Z</time>
      </trkpt>
      <trkpt lat="47.13524" lon="5.70528">
        <ele>213</ele>
        <time>2013-07-12T12:51:59Z</time>
      </trkpt>
      <trkpt lat="47.13534" lon="5.70539">
        <ele>213</ele>
        <time>2013-07-12T12:52:01Z</time>
      </trkpt>
      <trkpt lat="47.13544" lon="5.70552">
        <ele>213</ele>
        <time>2013-07-12T12:52:03Z</time>
      </trkpt>
      <trkpt lat="47.13554" lon="5.70564">
        <ele>213</ele>
        <time>2013-07-12T12:52:05Z</time>
      </trkpt>
      <trkpt lat="47.13565" lon="5.70576">
        <ele>213</ele>
        <time>2013-07-12T12:52:07Z</time>
      </trkpt>
      <trkpt lat="47.13575" lon="5.70588">
        <ele>213</ele>
        <time>2013-07-12T12:52:09Z</time>
      </trkpt>
      <trkpt lat="47.13585" lon="5.706">
        <ele>213</ele>
        <time>2013-07-12T12:52:11Z</time>
      </trkpt>
      <trkpt lat="47.13595" lon="5.70612">
        <ele>213</ele>
        <time>2013-07-12T12:52:13Z</time>
      </trkpt>
      <trkpt lat="47.13604" lon="5.70624">
        <ele>213</ele>
        <time>2013-07-12T12:52:15Z</time>
      </trkpt>
      <trkpt lat="47.13614" lon="5.70636">
        <ele>213</ele>
        <time>2013-07-12T12:52:17Z</time>
      </trkpt>
      <trkpt lat="47.13624" lon="5.70649">
        <ele>213</ele>
        <time>2013-07-12T12:52:19Z</time>
      </trkpt>
      <trkpt lat="47.13634" lon="5.70659">
        <ele>213</ele>
        <time>2013-07-12T12:52:21Z</time>
      </trkpt>
      <trkpt lat="47.13643" lon="5.7067">
        <ele>213</ele>
        <time>2013-07-12T12:52:23Z</time>
      </trkpt>
      <trkpt lat="47.13653" lon="5.70681">
        <ele>213</ele>
        <time>2013-07-12T12:52:25Z</time>
      </trkpt>
      <trkpt lat="47.13662" lon="5.70693">
        <ele>213</ele>
        <time>2013-07-12T12:52:27Z</time>
      </trkpt>
      <trkpt lat="47.13672" lon="5.70703">
        <ele>213</ele>
        <time>2013-07-12T12:52:29Z</time>
      </trkpt>
      <trkpt lat="47.13681" lon="5.70715">
        <ele>213</ele>
        <time>2013-07-12T12:52:31Z</time>
      </trkpt>
      <trkpt lat="47.1369" lon="5.70728">
        <ele>213</ele>
        <time>2013-07-12T12:52:33Z</time>
      </trkpt>
      <trkpt lat="47.13699" lon="5.70739">
        <ele>213</ele>
        <time>2013-07-12T12:52:35Z</time>
      </trkpt>
      <trkpt lat="47.13708" lon="5.70751">
        <ele>213</ele>
        <time>2013-07-12T12:52:37Z</time>
      </trkpt>
      <trkpt lat="47.13718" lon="5.70762">
        <ele>213</ele>
        <time>2013-07-12T12:52:39Z</time>
      </trkpt>
      <trkpt lat="47.13727" lon="5.70774">
        <ele>213</ele>
        <time>2013-07-12T12:52:41Z</time>
      </trkpt>
      <trkpt lat="47.13737" lon="5.70786">
        <ele>213</ele>
        <time>2013-07-12T12:52:43Z</time>
      </trkpt>
      <trkpt lat="47.13747" lon="5.70798">
        <ele>213</ele>
        <time>2013-07-12T12:52:45Z</time>
      </trkpt>
      <trkpt lat="47.13757" lon="5.7081">
        <ele>213</ele>
        <time>2013-07-12T12:52:47Z</time>
      </trkpt>
      <trkpt lat="47.13767" lon="5.70822">
        <ele>213</ele>
        <time>2013-07-12T12:52:49Z</time>
      </trkpt>
      <trkpt lat="47.13778" lon="5.70834">
        <ele>213</ele>
        <time>2013-07-12T12:52:51Z</time>
      </trkpt>
      <trkpt lat="47.13787" lon="5.70846">
        <ele>213</ele>
        <time>2013-07-12T12:52:53Z</time>
      </trkpt>
      <trkpt lat="47.13797" lon="5.70858">
        <ele>213</ele>
        <time>2013-07-12T12:52:55Z</time>
      </trkpt>
      <trkpt lat="47.13806" lon="5.7087">
        <ele>213</ele>
        <time>2013-07-12T12:52:57Z</time>
      </trkpt>
      <trkpt lat="47.13815" lon="5.70881">
        <ele>213</ele>
        <time>2013-07-12T12:52:59Z</time>
      </trkpt>
      <trkpt lat="47.13824" lon="5.70894">
        <ele>213</ele>
        <time>2013-07-12T12:53:01Z</time>
      </trkpt>
      <trkpt lat="47.13834" lon="5.70905">
        <ele>213</ele>
        <time>2013-07-12T12:53:03Z</time>
      </trkpt>
      <trkpt lat="47.13843" lon="5.70919">
        <ele>213</ele>
        <time>2013-07-12T12:53:05Z</time>
      </trkpt>
      <trkpt lat="47.13851" lon="5.70935">
        <ele>213</ele>
        <time>2013-07-12T12:53:07Z</time>
      </trkpt>
      <trkpt lat="47.13856" lon="5.70953">
        <ele>213</ele>
        <time>2013-07-12T12:53:09Z</time>
      </trkpt>
      <trkpt lat="47.13857" lon="5.70972">
        <ele>213</ele>
        <time>2013-07-12T12:53:11Z</time>
      </trkpt>
      <trkpt lat="47.13855" lon="5.70991">
        <ele>213</ele>
        <time>2013-07-12T12:53:13Z</time>
      </trkpt>
      <trkpt lat="47.13854" lon="5.71009">
        <ele>213</ele>
        <time>2013-07-12T12:53:15Z</time>
      </trkpt>
      <trkpt lat="47.13853" lon="5.71029">
        <ele>213</ele>
        <time>2013-07-12T12:53:17Z</time>
      </trkpt>
      <trkpt lat="47.13852" lon="5.71048">
        <ele>213</ele>
        <time>2013-07-12T12:53:19Z</time>
      </trkpt>
      <trkpt lat="47.13852" lon="5.71066">
        <ele>213</ele>
        <time>2013-07-12T12:53:21Z</time>
      </trkpt>
      <trkpt lat="47.13852" lon="5.71085">
        <ele>213</ele>
        <time>2013-07-12T12:53:23Z</time>
      </trkpt>
      <trkpt lat="47.13853" lon="5.71103">
        <ele>213</ele>
        <time>2013-07-12T12:53:25Z</time>
      </trkpt>
      <trkpt lat="47.13854" lon="5.71122">
        <ele>213</ele>
        <time>2013-07-12T12:53:27Z</time>
      </trkpt>
      <trkpt lat="47.13855" lon="5.71141">
        <ele>213</ele>
        <time>2013-07-12T12:53:29Z</time>
      </trkpt>
      <trkpt lat="47.13857" lon="5.71161">
        <ele>213</ele>
        <time>2013-07-12T12:53:31Z</time>
      </trkpt>
      <trkpt lat="47.13859" lon="5.71179">
        <ele>213</ele>
        <time>2013-07-12T12:53:33Z</time>
      </trkpt>
      <trkpt lat="47.1386" lon="5.71199">
        <ele>213</ele>
        <time>2013-07-12T12:53:35Z</time>
      </trkpt>
      <trkpt lat="47.13862" lon="5.71218">
        <ele>213</ele>
        <time>2013-07-12T12:53:37Z</time>
      </trkpt>
      <trkpt lat="47.13863" lon="5.71237">
        <ele>213</ele>
        <time>2013-07-12T12:53:39Z</time>
      </trkpt>
      <trkpt lat="47.13865" lon="5.71256">
        <ele>213</ele>
        <time>2013-07-12T12:53:41Z</time>
      </trkpt>
      <trkpt lat="47.13867" lon="5.71275">
        <ele>213</ele>
        <time>2013-07-12T12:53:43Z</time>
      </trkpt>
      <trkpt lat="47.13869" lon="5.71294">
        <ele>213</ele>
        <time>2013-07-12T12:53:45Z</time>
      </trkpt>
      <trkpt lat="47.13871" lon="5.71313">
        <ele>213</ele>
        <time>2013-07-12T12:53:47Z</time>
      </trkpt>
      <trkpt lat="47.13873" lon="5.71333">
        <ele>213</ele>
        <time>2013-07-12T12:53:49Z</time>
      </trkpt>
      <trkpt lat="47.13875" lon="5.71353">
        <ele>213</ele>
        <time>2013-07-12T12:53:51Z</time>
      </trkpt>
      <trkpt lat="47.13877" lon="5.71372">
        <ele>213</ele>
        <time>2013-07-12T12:53:53Z</time>
      </trkpt>
      <trkpt lat="47.13879" lon="5.71391">
        <ele>213</ele>
        <time>2013-07-12T12:53:55Z</time>
      </trkpt>
      <trkpt lat="47.13881" lon="5.7141">
        <ele>213</ele>
        <time>2013-07-12T12:53:57Z</time>
      </trkpt>
      <trkpt lat="47.13883" lon="5.7143">
        <ele>213</ele>
        <time>2013-07-12T12:53:59Z</time>
      </trkpt>
      <trkpt lat="47.13886" lon="5.7145">
        <ele>213</ele>
        <time>2013-07-12T12:54:01Z</time>
      </trkpt>
      <trkpt lat="47.13889" lon="5.71469">
        <ele>213</ele>
        <time>2013-07-12T12:54:03Z</time>
      </trkpt>
      <trkpt lat="47.13892" lon="5.71488">
        <ele>213</ele>
        <time>2013-07-12T12:54:05Z</time>
      </trkpt>
      <trkpt lat="47.13897" lon="5.71506">
        <ele>213</ele>
        <time>2013-07-12T12:54:07Z</time>
      </trkpt>
      <trkpt lat="47.13901" lon="5.71525">
        <ele>213</ele>
        <time>2013-07-12T12:54:09Z</time>
      </trkpt>
      <trkpt lat="47.13906" lon="5.71544">
        <ele>213</ele>
        <time>2013-07-12T12:54:11Z</time>
      </trkpt>
      <trkpt lat="47.13911" lon="5.71561">
        <ele>213</ele>
        <time>2013-07-12T12:54:13Z</time>
      </trkpt>
      <trkpt lat="47.13916" lon="5.71579">
        <ele>219</ele>
        <time>2013-07-12T12:54:15Z</time>
      </trkpt>
      <trkpt lat="47.13922" lon="5.71596">
        <ele>219</ele>
        <time>2013-07-12T12:54:17Z</time>
      </trkpt>
      <trkpt lat="47.13927" lon="5.71615">
        <ele>219</ele>
        <time>2013-07-12T12:54:19Z</time>
      </trkpt>
      <trkpt lat="47.13932" lon="5.71634">
        <ele>219</ele>
        <time>2013-07-12T12:54:21Z</time>
      </trkpt>
      <trkpt lat="47.13938" lon="5.71652">
        <ele>219</ele>
        <time>2013-07-12T12:54:23Z</time>
      </trkpt>
      <trkpt lat="47.13943" lon="5.71669">
        <ele>219</ele>
        <time>2013-07-12T12:54:25Z</time>
      </trkpt>
      <trkpt lat="47.1395" lon="5.71687">
        <ele>219</ele>
        <time>2013-07-12T12:54:27Z</time>
      </trkpt>
      <trkpt lat="47.13956" lon="5.71705">
        <ele>219</ele>
        <time>2013-07-12T12:54:29Z</time>
      </trkpt>
      <trkpt lat="47.13962" lon="5.71722">
        <ele>219</ele>
        <time>2013-07-12T12:54:31Z</time>
      </trkpt>
      <trkpt lat="47.13968" lon="5.71739">
        <ele>219</ele>
        <time>2013-07-12T12:54:33Z</time>
      </trkpt>
      <trkpt lat="47.13975" lon="5.71757">
        <ele>219</ele>
        <time>2013-07-12T12:54:35Z</time>
      </trkpt>
      <trkpt lat="47.13982" lon="5.71774">
        <ele>219</ele>
        <time>2013-07-12T12:54:37Z</time>
      </trkpt>
      <trkpt lat="47.13989" lon="5.7179">
        <ele>219</ele>
        <time>2013-07-12T12:54:39Z</time>
      </trkpt>
      <trkpt lat="47.13996" lon="5.71807">
        <ele>219</ele>
        <time>2013-07-12T12:54:41Z</time>
      </trkpt>
      <trkpt lat="47.14004" lon="5.71822">
        <ele>219</ele>
        <time>2013-07-12T12:54:43Z</time>
      </trkpt>
      <trkpt lat="47.14012" lon="5.71836">
        <ele>219</ele>
        <time>2013-07-12T12:54:45Z</time>
      </trkpt>
      <trkpt lat="47.1402" lon="5.7185">
        <ele>219</ele>
        <time>2013-07-12T12:54:47Z</time>
      </trkpt>
      <trkpt lat="47.14028" lon="5.71867">
        <ele>219</ele>
        <time>2013-07-12T12:54:49Z</time>
      </trkpt>
      <trkpt lat="47.14036" lon="5.71883">
        <ele>219</ele>
        <time>2013-07-12T12:54:51Z</time>
      </trkpt>
      <trkpt lat="47.14044" lon="5.71901">
        <ele>219</ele>
        <time>2013-07-12T12:54:53Z</time>
      </trkpt>
      <trkpt lat="47.1405" lon="5.71919">
        <ele>219</ele>
        <time>2013-07-12T12:54:55Z</time>
      </trkpt>
      <trkpt lat="47.14056" lon="5.71938">
        <ele>219</ele>
        <time>2013-07-12T12:54:57Z</time>
      </trkpt>
      <trkpt lat="47.14061" lon="5.71957">
        <ele>219</ele>
        <time>2013-07-12T12:54:59Z</time>
      </trkpt>
      <trkpt lat="47.14065" lon="5.71976">
        <ele>219</ele>
        <time>2013-07-12T12:55:01Z</time>
      </trkpt>
      <trkpt lat="47.14071" lon="5.71994">
        <ele>219</ele>
        <time>2013-07-12T12:55:03Z</time>
      </trkpt>
      <trkpt lat="47.14077" lon="5.7201">
        <ele>219</ele>
        <time>2013-07-12T12:55:05Z</time>
      </trkpt>
      <trkpt lat="47.14085" lon="5.72026">
        <ele>219</ele>
        <time>2013-07-12T12:55:07Z</time>
      </trkpt>
      <trkpt lat="47.14093" lon="5.7204">
        <ele>219</ele>
        <time>2013-07-12T12:55:09Z</time>
      </trkpt>
      <trkpt lat="47.141" lon="5.72056">
        <ele>219</ele>
        <time>2013-07-12T12:55:11Z</time>
      </trkpt>
      <trkpt lat="47.14107" lon="5.72071">
        <ele>219</ele>
        <time>2013-07-12T12:55:13Z</time>
      </trkpt>
      <trkpt lat="47.14115" lon="5.72086">
        <ele>219</ele>
        <time>2013-07-12T12:55:15Z</time>
      </trkpt>
      <trkpt lat="47.14123" lon="5.721">
        <ele>219</ele>
        <time>2013-07-12T12:55:17Z</time>
      </trkpt>
      <trkpt lat="47.1413" lon="5.72114">
        <ele>219</ele>
        <time>2013-07-12T12:55:19Z</time>
      </trkpt>
      <trkpt lat="47.14139" lon="5.72126">
        <ele>219</ele>
        <time>2013-07-12T12:55:21Z</time>
      </trkpt>
      <trkpt lat="47.14147" lon="5.72137">
        <ele>227</ele>
        <time>2013-07-12T12:55:23Z</time>
      </trkpt>
      <trkpt lat="47.14155" lon="5.72147">
        <ele>227</ele>
        <time>2013-07-12T12:55:25Z</time>
      </trkpt>
      <trkpt lat="47.14165" lon="5.72157">
        <ele>235</ele>
        <time>2013-07-12T12:55:27Z</time>
      </trkpt>
      <trkpt lat="47.14175" lon="5.72168">
        <ele>235</ele>
        <time>2013-07-12T12:55:29Z</time>
      </trkpt>
      <trkpt lat="47.14185" lon="5.7218">
        <ele>235</ele>
        <time>2013-07-12T12:55:31Z</time>
      </trkpt>
      <trkpt lat="47.14194" lon="5.72195">
        <ele>235</ele>
        <time>2013-07-12T12:55:33Z</time>
      </trkpt>
      <trkpt lat="47.14203" lon="5.7221">
        <ele>235</ele>
        <time>2013-07-12T12:55:35Z</time>
      </trkpt>
      <trkpt lat="47.14212" lon="5.72226">
        <ele>230</ele>
        <time>2013-07-12T12:55:37Z</time>
      </trkpt>
      <trkpt lat="47.14221" lon="5.72241">
        <ele>230</ele>
        <time>2013-07-12T12:55:39Z</time>
      </trkpt>
      <trkpt lat="47.14231" lon="5.72256">
        <ele>224</ele>
        <time>2013-07-12T12:55:41Z</time>
      </trkpt>
      <trkpt lat="47.14242" lon="5.72269">
        <ele>224</ele>
        <time>2013-07-12T12:55:43Z</time>
      </trkpt>
      <trkpt lat="47.14251" lon="5.72283">
        <ele>224</ele>
        <time>2013-07-12T12:55:45Z</time>
      </trkpt>
      <trkpt lat="47.14261" lon="5.72298">
        <ele>224</ele>
        <time>2013-07-12T12:55:47Z</time>
      </trkpt>
      <trkpt lat="47.1427" lon="5.72313">
        <ele>224</ele>
        <time>2013-07-12T12:55:49Z</time>
      </trkpt>
      <trkpt lat="47.14279" lon="5.72329">
        <ele>224</ele>
        <time>2013-07-12T12:55:51Z</time>
      </trkpt>
      <trkpt lat="47.14287" lon="5.72345">
        <ele>219</ele>
        <time>2013-07-12T12:55:53Z</time>
      </trkpt>
      <trkpt lat="47.14296" lon="5.72361">
        <ele>219</ele>
        <time>2013-07-12T12:55:55Z</time>
      </trkpt>
      <trkpt lat="47.14304" lon="5.72377">
        <ele>219</ele>
        <time>2013-07-12T12:55:57Z</time>
      </trkpt>
      <trkpt lat="47.14312" lon="5.72392">
        <ele>219</ele>
        <time>2013-07-12T12:55:59Z</time>
      </trkpt>
      <trkpt lat="47.1432" lon="5.72407">
        <ele>219</ele>
        <time>2013-07-12T12:56:01Z</time>
      </trkpt>
      <trkpt lat="47.14328" lon="5.72422">
        <ele>219</ele>
        <time>2013-07-12T12:56:03Z</time>
      </trkpt>
      <trkpt lat="47.14336" lon="5.72437">
        <ele>219</ele>
        <time>2013-07-12T12:56:05Z</time>
      </trkpt>
      <trkpt lat="47.14344" lon="5.72451">
        <ele>219</ele>
        <time>2013-07-12T12:56:07Z</time>
      </trkpt>
      <trkpt lat="47.14351" lon="5.72465">
        <ele>219</ele>
        <time>2013-07-12T12:56:09Z</time>
      </trkpt>
      <trkpt lat="47.14359" lon="5.72479">
        <ele>219</ele>
        <time>2013-07-12T12:56:11Z</time>
      </trkpt>
      <trkpt lat="47.14366" lon="5.72494">
        <ele>219</ele>
        <time>2013-07-12T12:56:13Z</time>
      </trkpt>
      <trkpt lat="47.14374" lon="5.72507">
        <ele>219</ele>
        <time>2013-07-12T12:56:15Z</time>
      </trkpt>
      <trkpt lat="47.14381" lon="5.72522">
        <ele>219</ele>
        <time>2013-07-12T12:56:17Z</time>
      </trkpt>
      <trkpt lat="47.14389" lon="5.72535">
        <ele>219</ele>
        <time>2013-07-12T12:56:19Z</time>
      </trkpt>
      <trkpt lat="47.14396" lon="5.72548">
        <ele>219</ele>
        <time>2013-07-12T12:56:21Z</time>
      </trkpt>
      <trkpt lat="47.14403" lon="5.72561">
        <ele>219</ele>
        <time>2013-07-12T12:56:23Z</time>
      </trkpt>
      <trkpt lat="47.1441" lon="5.72574">
        <ele>219</ele>
        <time>2013-07-12T12:56:25Z</time>
      </trkpt>
      <trkpt lat="47.14417" lon="5.72585">
        <ele>219</ele>
        <time>2013-07-12T12:56:27Z</time>
      </trkpt>
      <trkpt lat="47.14424" lon="5.72594">
        <ele>219</ele>
        <time>2013-07-12T12:56:29Z</time>
      </trkpt>
      <trkpt lat="47.14433" lon="5.72599">
        <ele>219</ele>
        <time>2013-07-12T12:56:32Z</time>
      </trkpt>
      <trkpt lat="47.14441" lon="5.72605">
        <ele>219</ele>
        <time>2013-07-12T12:56:35Z</time>
      </trkpt>
      <trkpt lat="47.14453" lon="5.7261">
        <ele>219</ele>
        <time>2013-07-12T12:56:38Z</time>
      </trkpt>
      <trkpt lat="47.14463" lon="5.72615">
        <ele>219</ele>
        <time>2013-07-12T12:56:40Z</time>
      </trkpt>
      <trkpt lat="47.14473" lon="5.72619">
        <ele>227</ele>
        <time>2013-07-12T12:56:42Z</time>
      </trkpt>
      <trkpt lat="47.14481" lon="5.72628">
        <ele>227</ele>
        <time>2013-07-12T12:56:44Z</time>
      </trkpt>
      <trkpt lat="47.1449" lon="5.72637">
        <ele>227</ele>
        <time>2013-07-12T12:56:46Z</time>
      </trkpt>
      <trkpt lat="47.14498" lon="5.72646">
        <ele>227</ele>
        <time>2013-07-12T12:56:48Z</time>
      </trkpt>
      <trkpt lat="47.14506" lon="5.72654">
        <ele>232</ele>
        <time>2013-07-12T12:56:50Z</time>
      </trkpt>
      <trkpt lat="47.14514" lon="5.72663">
        <ele>232</ele>
        <time>2013-07-12T12:56:52Z</time>
      </trkpt>
      <trkpt lat="47.14523" lon="5.72673">
        <ele>232</ele>
        <time>2013-07-12T12:56:54Z</time>
      </trkpt>
      <trkpt lat="47.14532" lon="5.72685">
        <ele>232</ele>
        <time>2013-07-12T12:56:56Z</time>
      </trkpt>
      <trkpt lat="47.1454" lon="5.72698">
        <ele>232</ele>
        <time>2013-07-12T12:56:58Z</time>
      </trkpt>
      <trkpt lat="47.1455" lon="5.7271">
        <ele>232</ele>
        <time>2013-07-12T12:57:00Z</time>
      </trkpt>
      <trkpt lat="47.14559" lon="5.72725">
        <ele>225</ele>
        <time>2013-07-12T12:57:02Z</time>
      </trkpt>
      <trkpt lat="47.14569" lon="5.72737">
        <ele>225</ele>
        <time>2013-07-12T12:57:04Z</time>
      </trkpt>
      <trkpt lat="47.14578" lon="5.72749">
        <ele>225</ele>
        <time>2013-07-12T12:57:06Z</time>
      </trkpt>
      <trkpt lat="47.14587" lon="5.7276">
        <ele>225</ele>
        <time>2013-07-12T12:57:08Z</time>
      </trkpt>
      <trkpt lat="47.14594" lon="5.72773">
        <ele>225</ele>
        <time>2013-07-12T12:57:10Z</time>
      </trkpt>
      <trkpt lat="47.14601" lon="5.72787">
        <ele>225</ele>
        <time>2013-07-12T12:57:12Z</time>
      </trkpt>
      <trkpt lat="47.14608" lon="5.72804">
        <ele>225</ele>
        <time>2013-07-12T12:57:14Z</time>
      </trkpt>
      <trkpt lat="47.14614" lon="5.72822">
        <ele>225</ele>
        <time>2013-07-12T12:57:16Z</time>
      </trkpt>
      <trkpt lat="47.14618" lon="5.7284">
        <ele>225</ele>
        <time>2013-07-12T12:57:18Z</time>
      </trkpt>
      <trkpt lat="47.14623" lon="5.7286">
        <ele>225</ele>
        <time>2013-07-12T12:57:20Z</time>
      </trkpt>
      <trkpt lat="47.14628" lon="5.72882">
        <ele>225</ele>
        <time>2013-07-12T12:57:22Z</time>
      </trkpt>
      <trkpt lat="47.14632" lon="5.72903">
        <ele>225</ele>
        <time>2013-07-12T12:57:24Z</time>
      </trkpt>
      <trkpt lat="47.14636" lon="5.72924">
        <ele>225</ele>
        <time>2013-07-12T12:57:26Z</time>
      </trkpt>
      <trkpt lat="47.1464" lon="5.72944">
        <ele>225</ele>
        <time>2013-07-12T12:57:28Z</time>
      </trkpt>
      <trkpt lat="47.14644" lon="5.72963">
        <ele>225</ele>
        <time>2013-07-12T12:57:30Z</time>
      </trkpt>
      <trkpt lat="47.14647" lon="5.72981">
        <ele>225</ele>
        <time>2013-07-12T12:57:32Z</time>
      </trkpt>
      <trkpt lat="47.1465" lon="5.72999">
        <ele>219</ele>
        <time>2013-07-12T12:57:34Z</time>
      </trkpt>
      <trkpt lat="47.14654" lon="5.73018">
        <ele>219</ele>
        <time>2013-07-12T12:57:36Z</time>
      </trkpt>
      <trkpt lat="47.14657" lon="5.73037">
        <ele>219</ele>
        <time>2013-07-12T12:57:38Z</time>
      </trkpt>
      <trkpt lat="47.14661" lon="5.73056">
        <ele>219</ele>
        <time>2013-07-12T12:57:40Z</time>
      </trkpt>
      <trkpt lat="47.14665" lon="5.73075">
        <ele>219</ele>
        <time>2013-07-12T12:57:42Z</time>
      </trkpt>
      <trkpt lat="47.14669" lon="5.73094">
        <ele>219</ele>
        <time>2013-07-12T12:57:44Z</time>
      </trkpt>
      <trkpt lat="47.14672" lon="5.73113">
        <ele>219</ele>
        <time>2013-07-12T12:57:46Z</time>
      </trkpt>
      <trkpt lat="47.14676" lon="5.73131">
        <ele>219</ele>
        <time>2013-07-12T12:57:48Z</time>
      </trkpt>
      <trkpt lat="47.14681" lon="5.73148">
        <ele>219</ele>
        <time>2013-07-12T12:57:50Z</time>
      </trkpt>
      <trkpt lat="47.14686" lon="5.73166">
        <ele>219</ele>
        <time>2013-07-12T12:57:52Z</time>
      </trkpt>
      <trkpt lat="47.14691" lon="5.73183">
        <ele>219</ele>
        <time>2013-07-12T12:57:54Z</time>
      </trkpt>
      <trkpt lat="47.14696" lon="5.73202">
        <ele>219</ele>
        <time>2013-07-12T12:57:56Z</time>
      </trkpt>
      <trkpt lat="47.14701" lon="5.7322">
        <ele>219</ele>
        <time>2013-07-12T12:57:58Z</time>
      </trkpt>
      <trkpt lat="47.14706" lon="5.73237">
        <ele>219</ele>
        <time>2013-07-12T12:58:00Z</time>
      </trkpt>
      <trkpt lat="47.1471" lon="5.73255">
        <ele>219</ele>
        <time>2013-07-12T12:58:02Z</time>
      </trkpt>
      <trkpt lat="47.14715" lon="5.73273">
        <ele>219</ele>
        <time>2013-07-12T12:58:04Z</time>
      </trkpt>
      <trkpt lat="47.14719" lon="5.7329">
        <ele>219</ele>
        <time>2013-07-12T12:58:06Z</time>
      </trkpt>
      <trkpt lat="47.14723" lon="5.73308">
        <ele>219</ele>
        <time>2013-07-12T12:58:08Z</time>
      </trkpt>
      <trkpt lat="47.14728" lon="5.73326">
        <ele>219</ele>
        <time>2013-07-12T12:58:10Z</time>
      </trkpt>
      <trkpt lat="47.14732" lon="5.73343">
        <ele>219</ele>
        <time>2013-07-12T12:58:12Z</time>
      </trkpt>
      <trkpt lat="47.14736" lon="5.73362">
        <ele>219</ele>
        <time>2013-07-12T12:58:14Z</time>
      </trkpt>
      <trkpt lat="47.14741" lon="5.73381">
        <ele>219</ele>
        <time>2013-07-12T12:58:16Z</time>
      </trkpt>
      <trkpt lat="47.14745" lon="5.73401">
        <ele>219</ele>
        <time>2013-07-12T12:58:18Z</time>
      </trkpt>
      <trkpt lat="47.1475" lon="5.73421">
        <ele>219</ele>
        <time>2013-07-12T12:58:20Z</time>
      </trkpt>
      <trkpt lat="47.14755" lon="5.73442">
        <ele>219</ele>
        <time>2013-07-12T12:58:22Z</time>
      </trkpt>
      <trkpt lat="47.1476" lon="5.73463">
        <ele>219</ele>
        <time>2013-07-12T12:58:24Z</time>
      </trkpt>
      <trkpt lat="47.14765" lon="5.73483">
        <ele>219</ele>
        <time>2013-07-12T12:58:26Z</time>
      </trkpt>
      <trkpt lat="47.1477" lon="5.73502">
        <ele>219</ele>
        <time>2013-07-12T12:58:28Z</time>
      </trkpt>
      <trkpt lat="47.14774" lon="5.7352">
        <ele>219</ele>
        <time>2013-07-12T12:58:30Z</time>
      </trkpt>
      <trkpt lat="47.14778" lon="5.73538">
        <ele>219</ele>
        <time>2013-07-12T12:58:32Z</time>
      </trkpt>
      <trkpt lat="47.14782" lon="5.73556">
        <ele>219</ele>
        <time>2013-07-12T12:58:34Z</time>
      </trkpt>
      <trkpt lat="47.14787" lon="5.73574">
        <ele>219</ele>
        <time>2013-07-12T12:58:36Z</time>
      </trkpt>
      <trkpt lat="47.14791" lon="5.73592">
        <ele>219</ele>
        <time>2013-07-12T12:58:38Z</time>
      </trkpt>
      <trkpt lat="47.14796" lon="5.7361">
        <ele>219</ele>
        <time>2013-07-12T12:58:40Z</time>
      </trkpt>
      <trkpt lat="47.14799" lon="5.73627">
        <ele>219</ele>
        <time>2013-07-12T12:58:42Z</time>
      </trkpt>
      <trkpt lat="47.14804" lon="5.73644">
        <ele>219</ele>
        <time>2013-07-12T12:58:44Z</time>
      </trkpt>
      <trkpt lat="47.14808" lon="5.73661">
        <ele>219</ele>
        <time>2013-07-12T12:58:46Z</time>
      </trkpt>
      <trkpt lat="47.14812" lon="5.73679">
        <ele>219</ele>
        <time>2013-07-12T12:58:48Z</time>
      </trkpt>
      <trkpt lat="47.14816" lon="5.73697">
        <ele>219</ele>
        <time>2013-07-12T12:58:50Z</time>
      </trkpt>
      <trkpt lat="47.1482" lon="5.73714">
        <ele>219</ele>
        <time>2013-07-12T12:58:52Z</time>
      </trkpt>
      <trkpt lat="47.14824" lon="5.73731">
        <ele>219</ele>
        <time>2013-07-12T12:58:54Z</time>
      </trkpt>
      <trkpt lat="47.14828" lon="5.73748">
        <ele>219</ele>
        <time>2013-07-12T12:58:56Z</time>
      </trkpt>
      <trkpt lat="47.14831" lon="5.73766">
        <ele>219</ele>
        <time>2013-07-12T12:58:58Z</time>
      </trkpt>
      <trkpt lat="47.14835" lon="5.73785">
        <ele>219</ele>
        <time>2013-07-12T12:59:00Z</time>
      </trkpt>
      <trkpt lat="47.14839" lon="5.73803">
        <ele>219</ele>
        <time>2013-07-12T12:59:02Z</time>
      </trkpt>
      <trkpt lat="47.14842" lon="5.73824">
        <ele>219</ele>
        <time>2013-07-12T12:59:04Z</time>
      </trkpt>
      <trkpt lat="47.14845" lon="5.73846">
        <ele>219</ele>
        <time>2013-07-12T12:59:06Z</time>
      </trkpt>
      <trkpt lat="47.14847" lon="5.73867">
        <ele>219</ele>
        <time>2013-07-12T12:59:08Z</time>
      </trkpt>
      <trkpt lat="47.14848" lon="5.73889">
        <ele>219</ele>
        <time>2013-07-12T12:59:10Z</time>
      </trkpt>
      <trkpt lat="47.14847" lon="5.73911">
        <ele>219</ele>
        <time>2013-07-12T12:59:12Z</time>
      </trkpt>
      <trkpt lat="47.14847" lon="5.73932">
        <ele>219</ele>
        <time>2013-07-12T12:59:14Z</time>
      </trkpt>
      <trkpt lat="47.14849" lon="5.73953">
        <ele>219</ele>
        <time>2013-07-12T12:59:16Z</time>
      </trkpt>
      <trkpt lat="47.14852" lon="5.73971">
        <ele>219</ele>
        <time>2013-07-12T12:59:18Z</time>
      </trkpt>
      <trkpt lat="47.14857" lon="5.73988">
        <ele>219</ele>
        <time>2013-07-12T12:59:20Z</time>
      </trkpt>
      <trkpt lat="47.14861" lon="5.74006">
        <ele>219</ele>
        <time>2013-07-12T12:59:22Z</time>
      </trkpt>
      <trkpt lat="47.14866" lon="5.74024">
        <ele>219</ele>
        <time>2013-07-12T12:59:24Z</time>
      </trkpt>
      <trkpt lat="47.14869" lon="5.74041">
        <ele>219</ele>
        <time>2013-07-12T12:59:26Z</time>
      </trkpt>
      <trkpt lat="47.14872" lon="5.74059">
        <ele>219</ele>
        <time>2013-07-12T12:59:28Z</time>
      </trkpt>
      <trkpt lat="47.14875" lon="5.74078">
        <ele>219</ele>
        <time>2013-07-12T12:59:30Z</time>
      </trkpt>
      <trkpt lat="47.14877" lon="5.74097">
        <ele>219</ele>
        <time>2013-07-12T12:59:32Z</time>
      </trkpt>
      <trkpt lat="47.14878" lon="5.74117">
        <ele>219</ele>
        <time>2013-07-12T12:59:34Z</time>
      </trkpt>
      <trkpt lat="47.1488" lon="5.74137">
        <ele>219</ele>
        <time>2013-07-12T12:59:36Z</time>
      </trkpt>
      <trkpt lat="47.14882" lon="5.74156">
        <ele>219</ele>
        <time>2013-07-12T12:59:38Z</time>
      </trkpt>
      <trkpt lat="47.14883" lon="5.74176">
        <ele>219</ele>
        <time>2013-07-12T12:59:40Z</time>
      </trkpt>
      <trkpt lat="47.14885" lon="5.74197">
        <ele>219</ele>
        <time>2013-07-12T12:59:42Z</time>
      </trkpt>
      <trkpt lat="47.14887" lon="5.74217">
        <ele>219</ele>
        <time>2013-07-12T12:59:44Z</time>
      </trkpt>
      <trkpt lat="47.14889" lon="5.74236">
        <ele>219</ele>
        <time>2013-07-12T12:59:46Z</time>
      </trkpt>
      <trkpt lat="47.1489" lon="5.74256">
        <ele>219</ele>
        <time>2013-07-12T12:59:48Z</time>
      </trkpt>
      <trkpt lat="47.14892" lon="5.74276">
        <ele>219</ele>
        <time>2013-07-12T12:59:50Z</time>
      </trkpt>
      <trkpt lat="47.14894" lon="5.74295">
        <ele>219</ele>
        <time>2013-07-12T12:59:52Z</time>
      </trkpt>
      <trkpt lat="47.14895" lon="5.74315">
        <ele>219</ele>
        <time>2013-07-12T12:59:54Z</time>
      </trkpt>
      <trkpt lat="47.14896" lon="5.74335">
        <ele>219</ele>
        <time>2013-07-12T12:59:56Z</time>
      </trkpt>
      <trkpt lat="47.14896" lon="5.74355">
        <ele>219</ele>
        <time>2013-07-12T12:59:58Z</time>
      </trkpt>
      <trkpt lat="47.14896" lon="5.74376">
        <ele>219</ele>
        <time>2013-07-12T13:00:00Z</time>
      </trkpt>
      <trkpt lat="47.14894" lon="5.74396">
        <ele>219</ele>
        <time>2013-07-12T13:00:02Z</time>
      </trkpt>
      <trkpt lat="47.14891" lon="5.74416">
        <ele>219</ele>
        <time>2013-07-12T13:00:04Z</time>
      </trkpt>
      <trkpt lat="47.14886" lon="5.74436">
        <ele>219</ele>
        <time>2013-07-12T13:00:06Z</time>
      </trkpt>
      <trkpt lat="47.1488" lon="5.74454">
        <ele>219</ele>
        <time>2013-07-12T13:00:08Z</time>
      </trkpt>
      <trkpt lat="47.14873" lon="5.74472">
        <ele>219</ele>
        <time>2013-07-12T13:00:10Z</time>
      </trkpt>
      <trkpt lat="47.14866" lon="5.7449">
        <ele>219</ele>
        <time>2013-07-12T13:00:12Z</time>
      </trkpt>
      <trkpt lat="47.14859" lon="5.74507">
        <ele>219</ele>
        <time>2013-07-12T13:00:14Z</time>
      </trkpt>
      <trkpt lat="47.14851" lon="5.74524">
        <ele>219</ele>
        <time>2013-07-12T13:00:16Z</time>
      </trkpt>
      <trkpt lat="47.14844" lon="5.74541">
        <ele>219</ele>
        <time>2013-07-12T13:00:18Z</time>
      </trkpt>
      <trkpt lat="47.14837" lon="5.74558">
        <ele>219</ele>
        <time>2013-07-12T13:00:20Z</time>
      </trkpt>
      <trkpt lat="47.1483" lon="5.74575">
        <ele>219</ele>
        <time>2013-07-12T13:00:22Z</time>
      </trkpt>
      <trkpt lat="47.14823" lon="5.74593">
        <ele>219</ele>
        <time>2013-07-12T13:00:24Z</time>
      </trkpt>
      <trkpt lat="47.14817" lon="5.74611">
        <ele>219</ele>
        <time>2013-07-12T13:00:26Z</time>
      </trkpt>
      <trkpt lat="47.14812" lon="5.7463">
        <ele>219</ele>
        <time>2013-07-12T13:00:28Z</time>
      </trkpt>
      <trkpt lat="47.14806" lon="5.7465">
        <ele>219</ele>
        <time>2013-07-12T13:00:30Z</time>
      </trkpt>
      <trkpt lat="47.14802" lon="5.74669">
        <ele>219</ele>
        <time>2013-07-12T13:00:32Z</time>
      </trkpt>
      <trkpt lat="47.14798" lon="5.74688">
        <ele>219</ele>
        <time>2013-07-12T13:00:34Z</time>
      </trkpt>
      <trkpt lat="47.14793" lon="5.74708">
        <ele>219</ele>
        <time>2013-07-12T13:00:36Z</time>
      </trkpt>
      <trkpt lat="47.1479" lon="5.74727">
        <ele>219</ele>
        <time>2013-07-12T13:00:38Z</time>
      </trkpt>
      <trkpt lat="47.14787" lon="5.74747">
        <ele>219</ele>
        <time>2013-07-12T13:00:40Z</time>
      </trkpt>
      <trkpt lat="47.14784" lon="5.74766">
        <ele>219</ele>
        <time>2013-07-12T13:00:42Z</time>
      </trkpt>
      <trkpt lat="47.14781" lon="5.74786">
        <ele>219</ele>
        <time>2013-07-12T13:00:44Z</time>
      </trkpt>
      <trkpt lat="47.14779" lon="5.74806">
        <ele>219</ele>
        <time>2013-07-12T13:00:46Z</time>
      </trkpt>
      <trkpt lat="47.14776" lon="5.74827">
        <ele>219</ele>
        <time>2013-07-12T13:00:48Z</time>
      </trkpt>
      <trkpt lat="47.14774" lon="5.74848">
        <ele>219</ele>
        <time>2013-07-12T13:00:50Z</time>
      </trkpt>
      <trkpt lat="47.14771" lon="5.74869">
        <ele>219</ele>
        <time>2013-07-12T13:00:52Z</time>
      </trkpt>
      <trkpt lat="47.14767" lon="5.74889">
        <ele>219</ele>
        <time>2013-07-12T13:00:54Z</time>
      </trkpt>
      <trkpt lat="47.14762" lon="5.74907">
        <ele>219</ele>
        <time>2013-07-12T13:00:56Z</time>
      </trkpt>
      <trkpt lat="47.14756" lon="5.74925">
        <ele>219</ele>
        <time>2013-07-12T13:00:58Z</time>
      </trkpt>
      <trkpt lat="47.14748" lon="5.74942">
        <ele>219</ele>
        <time>2013-07-12T13:01:00Z</time>
      </trkpt>
      <trkpt lat="47.14741" lon="5.7496">
        <ele>219</ele>
        <time>2013-07-12T13:01:02Z</time>
      </trkpt>
      <trkpt lat="47.14733" lon="5.74977">
        <ele>219</ele>
        <time>2013-07-12T13:01:04Z</time>
      </trkpt>
      <trkpt lat="47.14725" lon="5.74995">
        <ele>219</ele>
        <time>2013-07-12T13:01:06Z</time>
      </trkpt>
      <trkpt lat="47.14718" lon="5.75012">
        <ele>219</ele>
        <time>2013-07-12T13:01:08Z</time>
      </trkpt>
      <trkpt lat="47.1471" lon="5.75029">
        <ele>219</ele>
        <time>2013-07-12T13:01:10Z</time>
      </trkpt>
      <trkpt lat="47.14704" lon="5.75046">
        <ele>219</ele>
        <time>2013-07-12T13:01:12Z</time>
      </trkpt>
      <trkpt lat="47.14698" lon="5.75063">
        <ele>219</ele>
        <time>2013-07-12T13:01:14Z</time>
      </trkpt>
      <trkpt lat="47.14692" lon="5.75081">
        <ele>219</ele>
        <time>2013-07-12T13:01:16Z</time>
      </trkpt>
      <trkpt lat="47.14685" lon="5.75099">
        <ele>219</ele>
        <time>2013-07-12T13:01:18Z</time>
      </trkpt>
      <trkpt lat="47.14679" lon="5.75117">
        <ele>219</ele>
        <time>2013-07-12T13:01:20Z</time>
      </trkpt>
      <trkpt lat="47.14672" lon="5.75136">
        <ele>219</ele>
        <time>2013-07-12T13:01:22Z</time>
      </trkpt>
      <trkpt lat="47.14666" lon="5.75154">
        <ele>219</ele>
        <time>2013-07-12T13:01:24Z</time>
      </trkpt>
      <trkpt lat="47.1466" lon="5.75173">
        <ele>219</ele>
        <time>2013-07-12T13:01:26Z</time>
      </trkpt>
      <trkpt lat="47.14653" lon="5.75192">
        <ele>219</ele>
        <time>2013-07-12T13:01:28Z</time>
      </trkpt>
      <trkpt lat="47.14647" lon="5.75211">
        <ele>219</ele>
        <time>2013-07-12T13:01:30Z</time>
      </trkpt>
      <trkpt lat="47.14639" lon="5.7523">
        <ele>219</ele>
        <time>2013-07-12T13:01:32Z</time>
      </trkpt>
      <trkpt lat="47.14633" lon="5.75249">
        <ele>219</ele>
        <time>2013-07-12T13:01:34Z</time>
      </trkpt>
      <trkpt lat="47.14627" lon="5.75267">
        <ele>219</ele>
        <time>2013-07-12T13:01:36Z</time>
      </trkpt>
      <trkpt lat="47.1462" lon="5.75285">
        <ele>219</ele>
        <time>2013-07-12T13:01:38Z</time>
      </trkpt>
      <trkpt lat="47.14614" lon="5.75303">
        <ele>219</ele>
        <time>2013-07-12T13:01:40Z</time>
      </trkpt>
      <trkpt lat="47.14609" lon="5.75322">
        <ele>219</ele>
        <time>2013-07-12T13:01:42Z</time>
      </trkpt>
      <trkpt lat="47.14607" lon="5.75342">
        <ele>219</ele>
        <time>2013-07-12T13:01:44Z</time>
      </trkpt>
      <trkpt lat="47.14608" lon="5.75363">
        <ele>219</ele>
        <time>2013-07-12T13:01:46Z</time>
      </trkpt>
      <trkpt lat="47.14609" lon="5.75384">
        <ele>219</ele>
        <time>2013-07-12T13:01:48Z</time>
      </trkpt>
      <trkpt lat="47.14613" lon="5.75402">
        <ele>219</ele>
        <time>2013-07-12T13:01:50Z</time>
      </trkpt>
      <trkpt lat="47.14616" lon="5.75419">
        <ele>219</ele>
        <time>2013-07-12T13:01:52Z</time>
      </trkpt>
      <trkpt lat="47.1462" lon="5.75437">
        <ele>219</ele>
        <time>2013-07-12T13:01:54Z</time>
      </trkpt>
      <trkpt lat="47.14625" lon="5.75455">
        <ele>219</ele>
        <time>2013-07-12T13:01:56Z</time>
      </trkpt>
      <trkpt lat="47.14629" lon="5.75472">
        <ele>219</ele>
        <time>2013-07-12T13:01:58Z</time>
      </trkpt>
      <trkpt lat="47.14634" lon="5.7549">
        <ele>219</ele>
        <time>2013-07-12T13:02:00Z</time>
      </trkpt>
      <trkpt lat="47.14638" lon="5.75508">
        <ele>219</ele>
        <time>2013-07-12T13:02:02Z</time>
      </trkpt>
      <trkpt lat="47.14642" lon="5.75525">
        <ele>219</ele>
        <time>2013-07-12T13:02:04Z</time>
      </trkpt>
      <trkpt lat="47.14647" lon="5.75543">
        <ele>219</ele>
        <time>2013-07-12T13:02:06Z</time>
      </trkpt>
      <trkpt lat="47.14651" lon="5.7556">
        <ele>219</ele>
        <time>2013-07-12T13:02:08Z</time>
      </trkpt>
      <trkpt lat="47.14655" lon="5.75576">
        <ele>219</ele>
        <time>2013-07-12T13:02:10Z</time>
      </trkpt>
      <trkpt lat="47.1466" lon="5.75593">
        <ele>219</ele>
        <time>2013-07-12T13:02:12Z</time>
      </trkpt>
      <trkpt lat="47.14663" lon="5.7561">
        <ele>219</ele>
        <time>2013-07-12T13:02:14Z</time>
      </trkpt>
      <trkpt lat="47.14667" lon="5.75628">
        <ele>219</ele>
        <time>2013-07-12T13:02:16Z</time>
      </trkpt>
      <trkpt lat="47.14671" lon="5.75645">
        <ele>219</ele>
        <time>2013-07-12T13:02:18Z</time>
      </trkpt>
      <trkpt lat="47.14676" lon="5.75662">
        <ele>219</ele>
        <time>2013-07-12T13:02:20Z</time>
      </trkpt>
      <trkpt lat="47.1468" lon="5.75679">
        <ele>219</ele>
        <time>2013-07-12T13:02:22Z</time>
      </trkpt>
      <trkpt lat="47.14684" lon="5.75697">
        <ele>219</ele>
        <time>2013-07-12T13:02:24Z</time>
      </trkpt>
      <trkpt lat="47.14688" lon="5.75714">
        <ele>219</ele>
        <time>2013-07-12T13:02:26Z</time>
      </trkpt>
      <trkpt lat="47.14693" lon="5.7573">
        <ele>219</ele>
        <time>2013-07-12T13:02:28Z</time>
      </trkpt>
      <trkpt lat="47.14696" lon="5.75747">
        <ele>219</ele>
        <time>2013-07-12T13:02:30Z</time>
      </trkpt>
      <trkpt lat="47.14701" lon="5.75764">
        <ele>219</ele>
        <time>2013-07-12T13:02:32Z</time>
      </trkpt>
      <trkpt lat="47.14705" lon="5.75782">
        <ele>219</ele>
        <time>2013-07-12T13:02:34Z</time>
      </trkpt>
      <trkpt lat="47.1471" lon="5.75796">
        <ele>219</ele>
        <time>2013-07-12T13:02:36Z</time>
      </trkpt>
      <trkpt lat="47.14717" lon="5.75808">
        <ele>219</ele>
        <time>2013-07-12T13:02:38Z</time>
      </trkpt>
      <trkpt lat="47.14723" lon="5.7582">
        <ele>219</ele>
        <time>2013-07-12T13:02:40Z</time>
      </trkpt>
      <trkpt lat="47.14732" lon="5.75828">
        <ele>225</ele>
        <time>2013-07-12T13:02:42Z</time>
      </trkpt>
      <trkpt lat="47.14742" lon="5.75835">
        <ele>225</ele>
        <time>2013-07-12T13:02:44Z</time>
      </trkpt>
      <trkpt lat="47.14752" lon="5.75843">
        <ele>225</ele>
        <time>2013-07-12T13:02:46Z</time>
      </trkpt>
      <trkpt lat="47.14763" lon="5.7585">
        <ele>225</ele>
        <time>2013-07-12T13:02:48Z</time>
      </trkpt>
      <trkpt lat="47.14775" lon="5.75859">
        <ele>225</ele>
        <time>2013-07-12T13:02:50Z</time>
      </trkpt>
      <trkpt lat="47.14787" lon="5.7587">
        <ele>225</ele>
        <time>2013-07-12T13:02:52Z</time>
      </trkpt>
      <trkpt lat="47.14801" lon="5.75883">
        <ele>225</ele>
        <time>2013-07-12T13:02:54Z</time>
      </trkpt>
      <trkpt lat="47.14812" lon="5.75899">
        <ele>225</ele>
        <time>2013-07-12T13:02:56Z</time>
      </trkpt>
      <trkpt lat="47.1482" lon="5.75919">
        <ele>225</ele>
        <time>2013-07-12T13:02:58Z</time>
      </trkpt>
      <trkpt lat="47.14826" lon="5.75939">
        <ele>225</ele>
        <time>2013-07-12T13:03:00Z</time>
      </trkpt>
      <trkpt lat="47.14832" lon="5.75957">
        <ele>225</ele>
        <time>2013-07-12T13:03:02Z</time>
      </trkpt>
      <trkpt lat="47.1484" lon="5.75973">
        <ele>220</ele>
        <time>2013-07-12T13:03:04Z</time>
      </trkpt>
      <trkpt lat="47.14848" lon="5.75987">
        <ele>220</ele>
        <time>2013-07-12T13:03:06Z</time>
      </trkpt>
      <trkpt lat="47.14858" lon="5.75998">
        <ele>220</ele>
        <time>2013-07-12T13:03:08Z</time>
      </trkpt>
      <trkpt lat="47.14867" lon="5.7601">
        <ele>220</ele>
        <time>2013-07-12T13:03:10Z</time>
      </trkpt>
      <trkpt lat="47.14876" lon="5.76021">
        <ele>220</ele>
        <time>2013-07-12T13:03:12Z</time>
      </trkpt>
      <trkpt lat="47.14885" lon="5.76033">
        <ele>220</ele>
        <time>2013-07-12T13:03:14Z</time>
      </trkpt>
      <trkpt lat="47.14892" lon="5.76044">
        <ele>220</ele>
        <time>2013-07-12T13:03:16Z</time>
      </trkpt>
      <trkpt lat="47.14901" lon="5.76056">
        <ele>220</ele>
        <time>2013-07-12T13:03:19Z</time>
      </trkpt>
      <trkpt lat="47.14907" lon="5.76066">
        <ele>226</ele>
        <time>2013-07-12T13:03:21Z</time>
      </trkpt>
      <trkpt lat="47.14913" lon="5.7608">
        <ele>226</ele>
        <time>2013-07-12T13:03:23Z</time>
      </trkpt>
      <trkpt lat="47.14916" lon="5.76098">
        <ele>226</ele>
        <time>2013-07-12T13:03:25Z</time>
      </trkpt>
      <trkpt lat="47.14917" lon="5.76115">
        <ele>226</ele>
        <time>2013-07-12T13:03:27Z</time>
      </trkpt>
      <trkpt lat="47.14919" lon="5.76128">
        <ele>226</ele>
        <time>2013-07-12T13:03:29Z</time>
      </trkpt>
      <trkpt lat="47.14921" lon="5.76144">
        <ele>226</ele>
        <time>2013-07-12T13:03:32Z</time>
      </trkpt>
      <trkpt lat="47.14924" lon="5.7616">
        <ele>218</ele>
        <time>2013-07-12T13:03:35Z</time>
      </trkpt>
      <trkpt lat="47.14926" lon="5.76177">
        <ele>218</ele>
        <time>2013-07-12T13:03:39Z</time>
      </trkpt>
      <trkpt lat="47.1492" lon="5.76191">
        <ele>218</ele>
        <time>2013-07-12T13:03:43Z</time>
      </trkpt>
      <trkpt lat="47.14918" lon="5.76207">
        <ele>218</ele>
        <time>2013-07-12T13:03:46Z</time>
      </trkpt>
      <trkpt lat="47.14921" lon="5.76224">
        <ele>218</ele>
        <time>2013-07-12T13:03:49Z</time>
      </trkpt>
      <trkpt lat="47.14925" lon="5.76237">
        <ele>218</ele>
        <time>2013-07-12T13:03:51Z</time>
      </trkpt>
      <trkpt lat="47.1493" lon="5.76255">
        <ele>218</ele>
        <time>2013-07-12T13:03:54Z</time>
      </trkpt>
      <trkpt lat="47.14936" lon="5.76272">
        <ele>218</ele>
        <time>2013-07-12T13:03:57Z</time>
      </trkpt>
      <trkpt lat="47.14942" lon="5.76284">
        <ele>218</ele>
        <time>2013-07-12T13:03:59Z</time>
      </trkpt>
      <trkpt lat="47.14948" lon="5.76299">
        <ele>218</ele>
        <time>2013-07-12T13:04:02Z</time>
      </trkpt>
      <trkpt lat="47.14956" lon="5.7631">
        <ele>229</ele>
        <time>2013-07-12T13:04:05Z</time>
      </trkpt>
      <trkpt lat="47.14963" lon="5.76321">
        <ele>229</ele>
        <time>2013-07-12T13:04:08Z</time>
      </trkpt>
      <trkpt lat="47.14968" lon="5.76333">
        <ele>229</ele>
        <time>2013-07-12T13:04:10Z</time>
      </trkpt>
      <trkpt lat="47.14973" lon="5.76345">
        <ele>229</ele>
        <time>2013-07-12T13:04:12Z</time>
      </trkpt>
      <trkpt lat="47.1498" lon="5.76361">
        <ele>229</ele>
        <time>2013-07-12T13:04:15Z</time>
      </trkpt>
      <trkpt lat="47.14985" lon="5.76373">
        <ele>229</ele>
        <time>2013-07-12T13:04:17Z</time>
      </trkpt>
      <trkpt lat="47.14993" lon="5.76387">
        <ele>229</ele>
        <time>2013-07-12T13:04:20Z</time>
      </trkpt>
      <trkpt lat="47.14997" lon="5.76399">
        <ele>229</ele>
        <time>2013-07-12T13:04:22Z</time>
      </trkpt>
      <trkpt lat="47.15005" lon="5.76414">
        <ele>229</ele>
        <time>2013-07-12T13:04:25Z</time>
      </trkpt>
      <trkpt lat="47.15011" lon="5.76425">
        <ele>229</ele>
        <time>2013-07-12T13:04:27Z</time>
      </trkpt>
      <trkpt lat="47.15018" lon="5.76435">
        <ele>229</ele>
        <time>2013-07-12T13:04:29Z</time>
      </trkpt>
      <trkpt lat="47.15023" lon="5.76445">
        <ele>229</ele>
        <time>2013-07-12T13:04:31Z</time>
      </trkpt>
      <trkpt lat="47.15029" lon="5.76458">
        <ele>229</ele>
        <time>2013-07-12T13:04:33Z</time>
      </trkpt>
      <trkpt lat="47.15033" lon="5.76471">
        <ele>229</ele>
        <time>2013-07-12T13:04:35Z</time>
      </trkpt>
      <trkpt lat="47.15037" lon="5.76485">
        <ele>229</ele>
        <time>2013-07-12T13:04:37Z</time>
      </trkpt>
      <trkpt lat="47.15038" lon="5.765">
        <ele>229</ele>
        <time>2013-07-12T13:04:39Z</time>
      </trkpt>
      <trkpt lat="47.15038" lon="5.76515">
        <ele>229</ele>
        <time>2013-07-12T13:04:41Z</time>
      </trkpt>
      <trkpt lat="47.15038" lon="5.7653">
        <ele>229</ele>
        <time>2013-07-12T13:04:43Z</time>
      </trkpt>
      <trkpt lat="47.15036" lon="5.76545">
        <ele>229</ele>
        <time>2013-07-12T13:04:45Z</time>
      </trkpt>
      <trkpt lat="47.15032" lon="5.76559">
        <ele>229</ele>
        <time>2013-07-12T13:04:47Z</time>
      </trkpt>
      <trkpt lat="47.15027" lon="5.76571">
        <ele>229</ele>
        <time>2013-07-12T13:04:49Z</time>
      </trkpt>
      <trkpt lat="47.15022" lon="5.76583">
        <ele>229</ele>
        <time>2013-07-12T13:04:51Z</time>
      </trkpt>
      <trkpt lat="47.15016" lon="5.76594">
        <ele>229</ele>
        <time>2013-07-12T13:04:53Z</time>
      </trkpt>
      <trkpt lat="47.15011" lon="5.76606">
        <ele>229</ele>
        <time>2013-07-12T13:04:55Z</time>
      </trkpt>
      <trkpt lat="47.15006" lon="5.76619">
        <ele>229</ele>
        <time>2013-07-12T13:04:57Z</time>
      </trkpt>
      <trkpt lat="47.15004" lon="5.76632">
        <ele>229</ele>
        <time>2013-07-12T13:04:59Z</time>
      </trkpt>
      <trkpt lat="47.15003" lon="5.76646">
        <ele>229</ele>
        <time>2013-07-12T13:05:01Z</time>
      </trkpt>
      <trkpt lat="47.15005" lon="5.76659">
        <ele>229</ele>
        <time>2013-07-12T13:05:03Z</time>
      </trkpt>
      <trkpt lat="47.15008" lon="5.76678">
        <ele>229</ele>
        <time>2013-07-12T13:05:06Z</time>
      </trkpt>
      <trkpt lat="47.15011" lon="5.76691">
        <ele>229</ele>
        <time>2013-07-12T13:05:08Z</time>
      </trkpt>
      <trkpt lat="47.15016" lon="5.76708">
        <ele>229</ele>
        <time>2013-07-12T13:05:11Z</time>
      </trkpt>
      <trkpt lat="47.1502" lon="5.76724">
        <ele>229</ele>
        <time>2013-07-12T13:05:14Z</time>
      </trkpt>
      <trkpt lat="47.15024" lon="5.76741">
        <ele>229</ele>
        <time>2013-07-12T13:05:17Z</time>
      </trkpt>
      <trkpt lat="47.15029" lon="5.76758">
        <ele>229</ele>
        <time>2013-07-12T13:05:20Z</time>
      </trkpt>
      <trkpt lat="47.15032" lon="5.76776">
        <ele>229</ele>
        <time>2013-07-12T13:05:23Z</time>
      </trkpt>
      <trkpt lat="47.15035" lon="5.76793">
        <ele>234</ele>
        <time>2013-07-12T13:05:26Z</time>
      </trkpt>
      <trkpt lat="47.15037" lon="5.76806">
        <ele>234</ele>
        <time>2013-07-12T13:05:28Z</time>
      </trkpt>
      <trkpt lat="47.15038" lon="5.7682">
        <ele>234</ele>
        <time>2013-07-12T13:05:30Z</time>
      </trkpt>
      <trkpt lat="47.1504" lon="5.76833">
        <ele>234</ele>
        <time>2013-07-12T13:05:32Z</time>
      </trkpt>
      <trkpt lat="47.15043" lon="5.76848">
        <ele>234</ele>
        <time>2013-07-12T13:05:34Z</time>
      </trkpt>
      <trkpt lat="47.15044" lon="5.76862">
        <ele>234</ele>
        <time>2013-07-12T13:05:36Z</time>
      </trkpt>
      <trkpt lat="47.15047" lon="5.76877">
        <ele>234</ele>
        <time>2013-07-12T13:05:38Z</time>
      </trkpt>
      <trkpt lat="47.1505" lon="5.76892">
        <ele>234</ele>
        <time>2013-07-12T13:05:40Z</time>
      </trkpt>
      <trkpt lat="47.15054" lon="5.76905">
        <ele>234</ele>
        <time>2013-07-12T13:05:42Z</time>
      </trkpt>
      <trkpt lat="47.15058" lon="5.76919">
        <ele>234</ele>
        <time>2013-07-12T13:05:44Z</time>
      </trkpt>
      <trkpt lat="47.15062" lon="5.76934">
        <ele>234</ele>
        <time>2013-07-12T13:05:46Z</time>
      </trkpt>
      <trkpt lat="47.15066" lon="5.76948">
        <ele>234</ele>
        <time>2013-07-12T13:05:48Z</time>
      </trkpt>
      <trkpt lat="47.1507" lon="5.76963">
        <ele>234</ele>
        <time>2013-07-12T13:05:50Z</time>
      </trkpt>
      <trkpt lat="47.15075" lon="5.76974">
        <ele>234</ele>
        <time>2013-07-12T13:05:52Z</time>
      </trkpt>
      <trkpt lat="47.15079" lon="5.76986">
        <ele>234</ele>
        <time>2013-07-12T13:05:54Z</time>
      </trkpt>
      <trkpt lat="47.15084" lon="5.77002">
        <ele>234</ele>
        <time>2013-07-12T13:05:57Z</time>
      </trkpt>
      <trkpt lat="47.15089" lon="5.7702">
        <ele>234</ele>
        <time>2013-07-12T13:06:00Z</time>
      </trkpt>
      <trkpt lat="47.15092" lon="5.77034">
        <ele>234</ele>
        <time>2013-07-12T13:06:02Z</time>
      </trkpt>
      <trkpt lat="47.15094" lon="5.77053">
        <ele>234</ele>
        <time>2013-07-12T13:06:05Z</time>
      </trkpt>
      <trkpt lat="47.15097" lon="5.77071">
        <ele>234</ele>
        <time>2013-07-12T13:06:08Z</time>
      </trkpt>
      <trkpt lat="47.151" lon="5.77088">
        <ele>234</ele>
        <time>2013-07-12T13:06:11Z</time>
      </trkpt>
      <trkpt lat="47.15105" lon="5.77104">
        <ele>234</ele>
        <time>2013-07-12T13:06:14Z</time>
      </trkpt>
      <trkpt lat="47.15111" lon="5.77116">
        <ele>241</ele>
        <time>2013-07-12T13:06:17Z</time>
      </trkpt>
      <trkpt lat="47.15117" lon="5.77129">
        <ele>241</ele>
        <time>2013-07-12T13:06:20Z</time>
      </trkpt>
      <trkpt lat="47.15124" lon="5.77138">
        <ele>241</ele>
        <time>2013-07-12T13:06:23Z</time>
      </trkpt>
      <trkpt lat="47.15132" lon="5.77145">
        <ele>246</ele>
        <time>2013-07-12T13:06:26Z</time>
      </trkpt>
      <trkpt lat="47.15141" lon="5.77151">
        <ele>253</ele>
        <time>2013-07-12T13:06:30Z</time>
      </trkpt>
      <trkpt lat="47.15151" lon="5.7716">
        <ele>262</ele>
        <time>2013-07-12T13:06:34Z</time>
      </trkpt>
      <trkpt lat="47.1516" lon="5.77166">
        <ele>262</ele>
        <time>2013-07-12T13:06:37Z</time>
      </trkpt>
      <trkpt lat="47.15168" lon="5.77172">
        <ele>272</ele>
        <time>2013-07-12T13:06:40Z</time>
      </trkpt>
      <trkpt lat="47.15174" lon="5.77183">
        <ele>272</ele>
        <time>2013-07-12T13:06:43Z</time>
      </trkpt>
      <trkpt lat="47.1518" lon="5.77198">
        <ele>272</ele>
        <time>2013-07-12T13:06:47Z</time>
      </trkpt>
      <trkpt lat="47.15184" lon="5.77211">
        <ele>272</ele>
        <time>2013-07-12T13:06:50Z</time>
      </trkpt>
      <trkpt lat="47.15189" lon="5.77226">
        <ele>266</ele>
        <time>2013-07-12T13:06:53Z</time>
      </trkpt>
      <trkpt lat="47.15194" lon="5.77243">
        <ele>266</ele>
        <time>2013-07-12T13:06:56Z</time>
      </trkpt>
      <trkpt lat="47.15199" lon="5.77256">
        <ele>266</ele>
        <time>2013-07-12T13:06:58Z</time>
      </trkpt>
      <trkpt lat="47.15204" lon="5.77273">
        <ele>259</ele>
        <time>2013-07-12T13:07:01Z</time>
      </trkpt>
      <trkpt lat="47.15207" lon="5.7729">
        <ele>259</ele>
        <time>2013-07-12T13:07:04Z</time>
      </trkpt>
      <trkpt lat="47.15211" lon="5.77308">
        <ele>259</ele>
        <time>2013-07-12T13:07:07Z</time>
      </trkpt>
      <trkpt lat="47.15211" lon="5.77327">
        <ele>259</ele>
        <time>2013-07-12T13:07:10Z</time>
      </trkpt>
      <trkpt lat="47.15212" lon="5.77345">
        <ele>259</ele>
        <time>2013-07-12T13:07:13Z</time>
      </trkpt>
      <trkpt lat="47.15212" lon="5.77362">
        <ele>259</ele>
        <time>2013-07-12T13:07:16Z</time>
      </trkpt>
      <trkpt lat="47.15212" lon="5.7738">
        <ele>259</ele>
        <time>2013-07-12T13:07:19Z</time>
      </trkpt>
      <trkpt lat="47.15212" lon="5.77398">
        <ele>259</ele>
        <time>2013-07-12T13:07:22Z</time>
      </trkpt>
      <trkpt lat="47.15213" lon="5.77415">
        <ele>259</ele>
        <time>2013-07-12T13:07:25Z</time>
      </trkpt>
      <trkpt lat="47.15214" lon="5.77432">
        <ele>259</ele>
        <time>2013-07-12T13:07:28Z</time>
      </trkpt>
      <trkpt lat="47.15215" lon="5.77449">
        <ele>259</ele>
        <time>2013-07-12T13:07:31Z</time>
      </trkpt>
      <trkpt lat="47.15215" lon="5.77465">
        <ele>259</ele>
        <time>2013-07-12T13:07:34Z</time>
      </trkpt>
      <trkpt lat="47.15216" lon="5.77482">
        <ele>259</ele>
        <time>2013-07-12T13:07:37Z</time>
      </trkpt>
      <trkpt lat="47.15216" lon="5.77499">
        <ele>259</ele>
        <time>2013-07-12T13:07:40Z</time>
      </trkpt>
      <trkpt lat="47.15217" lon="5.77516">
        <ele>259</ele>
        <time>2013-07-12T13:07:43Z</time>
      </trkpt>
      <trkpt lat="47.15218" lon="5.77533">
        <ele>259</ele>
        <time>2013-07-12T13:07:46Z</time>
      </trkpt>
      <trkpt lat="47.15219" lon="5.77552">
        <ele>259</ele>
        <time>2013-07-12T13:07:49Z</time>
      </trkpt>
      <trkpt lat="47.15219" lon="5.77571">
        <ele>259</ele>
        <time>2013-07-12T13:07:52Z</time>
      </trkpt>
      <trkpt lat="47.15219" lon="5.77584">
        <ele>259</ele>
        <time>2013-07-12T13:07:54Z</time>
      </trkpt>
      <trkpt lat="47.1522" lon="5.77603">
        <ele>259</ele>
        <time>2013-07-12T13:07:57Z</time>
      </trkpt>
      <trkpt lat="47.15221" lon="5.77617">
        <ele>259</ele>
        <time>2013-07-12T13:07:59Z</time>
      </trkpt>
      <trkpt lat="47.15222" lon="5.77637">
        <ele>259</ele>
        <time>2013-07-12T13:08:02Z</time>
      </trkpt>
      <trkpt lat="47.15223" lon="5.77655">
        <ele>259</ele>
        <time>2013-07-12T13:08:05Z</time>
      </trkpt>
      <trkpt lat="47.15225" lon="5.77673">
        <ele>259</ele>
        <time>2013-07-12T13:08:08Z</time>
      </trkpt>
      <trkpt lat="47.15227" lon="5.77691">
        <ele>259</ele>
        <time>2013-07-12T13:08:11Z</time>
      </trkpt>
      <trkpt lat="47.15232" lon="5.77708">
        <ele>259</ele>
        <time>2013-07-12T13:08:14Z</time>
      </trkpt>
      <trkpt lat="47.15238" lon="5.77723">
        <ele>265</ele>
        <time>2013-07-12T13:08:17Z</time>
      </trkpt>
      <trkpt lat="47.15245" lon="5.77735">
        <ele>265</ele>
        <time>2013-07-12T13:08:20Z</time>
      </trkpt>
      <trkpt lat="47.15255" lon="5.77746">
        <ele>265</ele>
        <time>2013-07-12T13:08:23Z</time>
      </trkpt>
      <trkpt lat="47.15264" lon="5.77756">
        <ele>265</ele>
        <time>2013-07-12T13:08:26Z</time>
      </trkpt>
      <trkpt lat="47.15272" lon="5.77765">
        <ele>265</ele>
        <time>2013-07-12T13:08:29Z</time>
      </trkpt>
      <trkpt lat="47.15282" lon="5.77773">
        <ele>265</ele>
        <time>2013-07-12T13:08:32Z</time>
      </trkpt>
      <trkpt lat="47.15291" lon="5.77779">
        <ele>265</ele>
        <time>2013-07-12T13:08:35Z</time>
      </trkpt>
      <trkpt lat="47.15301" lon="5.77787">
        <ele>265</ele>
        <time>2013-07-12T13:08:38Z</time>
      </trkpt>
      <trkpt lat="47.15311" lon="5.77795">
        <ele>270</ele>
        <time>2013-07-12T13:08:41Z</time>
      </trkpt>
      <trkpt lat="47.1532" lon="5.77801">
        <ele>270</ele>
        <time>2013-07-12T13:08:44Z</time>
      </trkpt>
      <trkpt lat="47.15329" lon="5.77809">
        <ele>270</ele>
        <time>2013-07-12T13:08:47Z</time>
      </trkpt>
      <trkpt lat="47.15337" lon="5.77818">
        <ele>270</ele>
        <time>2013-07-12T13:08:50Z</time>
      </trkpt>
      <trkpt lat="47.15342" lon="5.7783">
        <ele>270</ele>
        <time>2013-07-12T13:08:53Z</time>
      </trkpt>
      <trkpt lat="47.15348" lon="5.77841">
        <ele>270</ele>
        <time>2013-07-12T13:08:56Z</time>
      </trkpt>
      <trkpt lat="47.15353" lon="5.77854">
        <ele>270</ele>
        <time>2013-07-12T13:08:59Z</time>
      </trkpt>
      <trkpt lat="47.15356" lon="5.77867">
        <ele>275</ele>
        <time>2013-07-12T13:09:02Z</time>
      </trkpt>
      <trkpt lat="47.1536" lon="5.7788">
        <ele>275</ele>
        <time>2013-07-12T13:09:05Z</time>
      </trkpt>
      <trkpt lat="47.15365" lon="5.77893">
        <ele>275</ele>
        <time>2013-07-12T13:09:08Z</time>
      </trkpt>
      <trkpt lat="47.15369" lon="5.77905">
        <ele>275</ele>
        <time>2013-07-12T13:09:11Z</time>
      </trkpt>
      <trkpt lat="47.15372" lon="5.77919">
        <ele>275</ele>
        <time>2013-07-12T13:09:14Z</time>
      </trkpt>
      <trkpt lat="47.15375" lon="5.77933">
        <ele>275</ele>
        <time>2013-07-12T13:09:17Z</time>
      </trkpt>
      <trkpt lat="47.15377" lon="5.77948">
        <ele>275</ele>
        <time>2013-07-12T13:09:20Z</time>
      </trkpt>
      <trkpt lat="47.1538" lon="5.77963">
        <ele>275</ele>
        <time>2013-07-12T13:09:23Z</time>
      </trkpt>
      <trkpt lat="47.15385" lon="5.77977">
        <ele>275</ele>
        <time>2013-07-12T13:09:26Z</time>
      </trkpt>
      <trkpt lat="47.15391" lon="5.7799">
        <ele>281</ele>
        <time>2013-07-12T13:09:29Z</time>
      </trkpt>
      <trkpt lat="47.15399" lon="5.78003">
        <ele>281</ele>
        <time>2013-07-12T13:09:32Z</time>
      </trkpt>
      <trkpt lat="47.15408" lon="5.78012">
        <ele>281</ele>
        <time>2013-07-12T13:09:35Z</time>
      </trkpt>
      <trkpt lat="47.15415" lon="5.78022">
        <ele>281</ele>
        <time>2013-07-12T13:09:37Z</time>
      </trkpt>
      <trkpt lat="47.15423" lon="5.78036">
        <ele>286</ele>
        <time>2013-07-12T13:09:40Z</time>
      </trkpt>
      <trkpt lat="47.15428" lon="5.78048">
        <ele>286</ele>
        <time>2013-07-12T13:09:42Z</time>
      </trkpt>
      <trkpt lat="47.15435" lon="5.78066">
        <ele>286</ele>
        <time>2013-07-12T13:09:45Z</time>
      </trkpt>
      <trkpt lat="47.1544" lon="5.78079">
        <ele>286</ele>
        <time>2013-07-12T13:09:47Z</time>
      </trkpt>
      <trkpt lat="47.15446" lon="5.7809">
        <ele>281</ele>
        <time>2013-07-12T13:09:49Z</time>
      </trkpt>
      <trkpt lat="47.15451" lon="5.78103">
        <ele>281</ele>
        <time>2013-07-12T13:09:51Z</time>
      </trkpt>
      <trkpt lat="47.15456" lon="5.78114">
        <ele>281</ele>
        <time>2013-07-12T13:09:53Z</time>
      </trkpt>
      <trkpt lat="47.15462" lon="5.78126">
        <ele>281</ele>
        <time>2013-07-12T13:09:55Z</time>
      </trkpt>
      <trkpt lat="47.15468" lon="5.78138">
        <ele>281</ele>
        <time>2013-07-12T13:09:57Z</time>
      </trkpt>
      <trkpt lat="47.15474" lon="5.78149">
        <ele>281</ele>
        <time>2013-07-12T13:09:59Z</time>
      </trkpt>
      <trkpt lat="47.1548" lon="5.78161">
        <ele>281</ele>
        <time>2013-07-12T13:10:01Z</time>
      </trkpt>
      <trkpt lat="47.15487" lon="5.78173">
        <ele>281</ele>
        <time>2013-07-12T13:10:03Z</time>
      </trkpt>
      <trkpt lat="47.15495" lon="5.78185">
        <ele>281</ele>
        <time>2013-07-12T13:10:05Z</time>
      </trkpt>
      <trkpt lat="47.15503" lon="5.78195">
        <ele>281</ele>
        <time>2013-07-12T13:10:07Z</time>
      </trkpt>
      <trkpt lat="47.15511" lon="5.78207">
        <ele>281</ele>
        <time>2013-07-12T13:10:09Z</time>
      </trkpt>
      <trkpt lat="47.15519" lon="5.78217">
        <ele>281</ele>
        <time>2013-07-12T13:10:11Z</time>
      </trkpt>
      <trkpt lat="47.15527" lon="5.78229">
        <ele>281</ele>
        <time>2013-07-12T13:10:13Z</time>
      </trkpt>
      <trkpt lat="47.15535" lon="5.7824">
        <ele>281</ele>
        <time>2013-07-12T13:10:15Z</time>
      </trkpt>
      <trkpt lat="47.15543" lon="5.78254">
        <ele>275</ele>
        <time>2013-07-12T13:10:17Z</time>
      </trkpt>
      <trkpt lat="47.15551" lon="5.78268">
        <ele>275</ele>
        <time>2013-07-12T13:10:19Z</time>
      </trkpt>
      <trkpt lat="47.15556" lon="5.78284">
        <ele>275</ele>
        <time>2013-07-12T13:10:21Z</time>
      </trkpt>
      <trkpt lat="47.15561" lon="5.783">
        <ele>275</ele>
        <time>2013-07-12T13:10:23Z</time>
      </trkpt>
      <trkpt lat="47.15565" lon="5.78317">
        <ele>275</ele>
        <time>2013-07-12T13:10:25Z</time>
      </trkpt>
      <trkpt lat="47.1557" lon="5.78335">
        <ele>275</ele>
        <time>2013-07-12T13:10:27Z</time>
      </trkpt>
      <trkpt lat="47.15574" lon="5.78352">
        <ele>275</ele>
        <time>2013-07-12T13:10:29Z</time>
      </trkpt>
      <trkpt lat="47.15578" lon="5.78368">
        <ele>275</ele>
        <time>2013-07-12T13:10:31Z</time>
      </trkpt>
      <trkpt lat="47.15583" lon="5.78385">
        <ele>275</ele>
        <time>2013-07-12T13:10:33Z</time>
      </trkpt>
      <trkpt lat="47.15587" lon="5.78402">
        <ele>275</ele>
        <time>2013-07-12T13:10:35Z</time>
      </trkpt>
      <trkpt lat="47.1559" lon="5.78419">
        <ele>275</ele>
        <time>2013-07-12T13:10:37Z</time>
      </trkpt>
      <trkpt lat="47.15594" lon="5.78436">
        <ele>275</ele>
        <time>2013-07-12T13:10:39Z</time>
      </trkpt>
      <trkpt lat="47.15596" lon="5.78452">
        <ele>275</ele>
        <time>2013-07-12T13:10:41Z</time>
      </trkpt>
      <trkpt lat="47.15598" lon="5.78467">
        <ele>275</ele>
        <time>2013-07-12T13:10:43Z</time>
      </trkpt>
      <trkpt lat="47.15598" lon="5.7848">
        <ele>275</ele>
        <time>2013-07-12T13:10:45Z</time>
      </trkpt>
      <trkpt lat="47.15598" lon="5.78494">
        <ele>275</ele>
        <time>2013-07-12T13:10:47Z</time>
      </trkpt>
      <trkpt lat="47.15598" lon="5.78507">
        <ele>275</ele>
        <time>2013-07-12T13:10:49Z</time>
      </trkpt>
      <trkpt lat="47.15597" lon="5.78526">
        <ele>275</ele>
        <time>2013-07-12T13:10:52Z</time>
      </trkpt>
      <trkpt lat="47.15596" lon="5.78544">
        <ele>275</ele>
        <time>2013-07-12T13:10:55Z</time>
      </trkpt>
      <trkpt lat="47.15594" lon="5.78564">
        <ele>275</ele>
        <time>2013-07-12T13:10:58Z</time>
      </trkpt>
      <trkpt lat="47.15593" lon="5.78583">
        <ele>275</ele>
        <time>2013-07-12T13:11:01Z</time>
      </trkpt>
      <trkpt lat="47.15591" lon="5.78598">
        <ele>275</ele>
        <time>2013-07-12T13:11:03Z</time>
      </trkpt>
      <trkpt lat="47.15589" lon="5.78612">
        <ele>275</ele>
        <time>2013-07-12T13:11:05Z</time>
      </trkpt>
      <trkpt lat="47.15589" lon="5.7863">
        <ele>275</ele>
        <time>2013-07-12T13:11:08Z</time>
      </trkpt>
      <trkpt lat="47.15589" lon="5.78646">
        <ele>275</ele>
        <time>2013-07-12T13:11:11Z</time>
      </trkpt>
      <trkpt lat="47.1559" lon="5.78662">
        <ele>275</ele>
        <time>2013-07-12T13:11:14Z</time>
      </trkpt>
      <trkpt lat="47.15591" lon="5.78676">
        <ele>275</ele>
        <time>2013-07-12T13:11:17Z</time>
      </trkpt>
      <trkpt lat="47.15593" lon="5.7869">
        <ele>275</ele>
        <time>2013-07-12T13:11:20Z</time>
      </trkpt>
      <trkpt lat="47.15596" lon="5.78704">
        <ele>275</ele>
        <time>2013-07-12T13:11:23Z</time>
      </trkpt>
      <trkpt lat="47.156" lon="5.78718">
        <ele>275</ele>
        <time>2013-07-12T13:11:26Z</time>
      </trkpt>
      <trkpt lat="47.15605" lon="5.78731">
        <ele>275</ele>
        <time>2013-07-12T13:11:29Z</time>
      </trkpt>
      <trkpt lat="47.1561" lon="5.78743">
        <ele>275</ele>
        <time>2013-07-12T13:11:32Z</time>
      </trkpt>
      <trkpt lat="47.15616" lon="5.78755">
        <ele>275</ele>
        <time>2013-07-12T13:11:35Z</time>
      </trkpt>
      <trkpt lat="47.15621" lon="5.78766">
        <ele>275</ele>
        <time>2013-07-12T13:11:38Z</time>
      </trkpt>
      <trkpt lat="47.15627" lon="5.78778">
        <ele>275</ele>
        <time>2013-07-12T13:11:41Z</time>
      </trkpt>
      <trkpt lat="47.15633" lon="5.7879">
        <ele>275</ele>
        <time>2013-07-12T13:11:44Z</time>
      </trkpt>
      <trkpt lat="47.15638" lon="5.78804">
        <ele>275</ele>
        <time>2013-07-12T13:11:47Z</time>
      </trkpt>
      <trkpt lat="47.15642" lon="5.78817">
        <ele>275</ele>
        <time>2013-07-12T13:11:50Z</time>
      </trkpt>
      <trkpt lat="47.15647" lon="5.78832">
        <ele>275</ele>
        <time>2013-07-12T13:11:54Z</time>
      </trkpt>
      <trkpt lat="47.15649" lon="5.78845">
        <ele>275</ele>
        <time>2013-07-12T13:11:57Z</time>
      </trkpt>
      <trkpt lat="47.15652" lon="5.78857">
        <ele>275</ele>
        <time>2013-07-12T13:12:00Z</time>
      </trkpt>
      <trkpt lat="47.15654" lon="5.78872">
        <ele>275</ele>
        <time>2013-07-12T13:12:03Z</time>
      </trkpt>
      <trkpt lat="47.15656" lon="5.78887">
        <ele>280</ele>
        <time>2013-07-12T13:12:06Z</time>
      </trkpt>
      <trkpt lat="47.15659" lon="5.78903">
        <ele>280</ele>
        <time>2013-07-12T13:12:09Z</time>
      </trkpt>
      <trkpt lat="47.15662" lon="5.78919">
        <ele>280</ele>
        <time>2013-07-12T13:12:12Z</time>
      </trkpt>
      <trkpt lat="47.15666" lon="5.78935">
        <ele>280</ele>
        <time>2013-07-12T13:12:15Z</time>
      </trkpt>
      <trkpt lat="47.1567" lon="5.78948">
        <ele>280</ele>
        <time>2013-07-12T13:12:18Z</time>
      </trkpt>
      <trkpt lat="47.15674" lon="5.78963">
        <ele>280</ele>
        <time>2013-07-12T13:12:21Z</time>
      </trkpt>
      <trkpt lat="47.1568" lon="5.78978">
        <ele>280</ele>
        <time>2013-07-12T13:12:24Z</time>
      </trkpt>
      <trkpt lat="47.15685" lon="5.78993">
        <ele>280</ele>
        <time>2013-07-12T13:12:27Z</time>
      </trkpt>
      <trkpt lat="47.15693" lon="5.79006">
        <ele>280</ele>
        <time>2013-07-12T13:12:30Z</time>
      </trkpt>
      <trkpt lat="47.157" lon="5.79023">
        <ele>280</ele>
        <time>2013-07-12T13:12:33Z</time>
      </trkpt>
      <trkpt lat="47.15705" lon="5.79033">
        <ele>280</ele>
        <time>2013-07-12T13:12:35Z</time>
      </trkpt>
      <trkpt lat="47.15711" lon="5.7905">
        <ele>280</ele>
        <time>2013-07-12T13:12:38Z</time>
      </trkpt>
      <trkpt lat="47.15715" lon="5.79064">
        <ele>280</ele>
        <time>2013-07-12T13:12:41Z</time>
      </trkpt>
      <trkpt lat="47.1572" lon="5.79078">
        <ele>280</ele>
        <time>2013-07-12T13:12:44Z</time>
      </trkpt>
      <trkpt lat="47.15723" lon="5.79092">
        <ele>280</ele>
        <time>2013-07-12T13:12:47Z</time>
      </trkpt>
      <trkpt lat="47.15728" lon="5.79104">
        <ele>280</ele>
        <time>2013-07-12T13:12:50Z</time>
      </trkpt>
      <trkpt lat="47.15734" lon="5.79118">
        <ele>280</ele>
        <time>2013-07-12T13:12:53Z</time>
      </trkpt>
      <trkpt lat="47.15739" lon="5.79133">
        <ele>280</ele>
        <time>2013-07-12T13:12:56Z</time>
      </trkpt>
      <trkpt lat="47.15744" lon="5.79146">
        <ele>280</ele>
        <time>2013-07-12T13:12:58Z</time>
      </trkpt>
      <trkpt lat="47.15749" lon="5.79158">
        <ele>280</ele>
        <time>2013-07-12T13:13:00Z</time>
      </trkpt>
      <trkpt lat="47.15755" lon="5.79171">
        <ele>280</ele>
        <time>2013-07-12T13:13:02Z</time>
      </trkpt>
      <trkpt lat="47.15761" lon="5.79183">
        <ele>280</ele>
        <time>2013-07-12T13:13:04Z</time>
      </trkpt>
      <trkpt lat="47.15768" lon="5.79195">
        <ele>280</ele>
        <time>2013-07-12T13:13:06Z</time>
      </trkpt>
      <trkpt lat="47.15774" lon="5.79208">
        <ele>280</ele>
        <time>2013-07-12T13:13:08Z</time>
      </trkpt>
      <trkpt lat="47.15781" lon="5.7922">
        <ele>280</ele>
        <time>2013-07-12T13:13:10Z</time>
      </trkpt>
      <trkpt lat="47.15788" lon="5.79234">
        <ele>280</ele>
        <time>2013-07-12T13:13:12Z</time>
      </trkpt>
      <trkpt lat="47.15795" lon="5.79247">
        <ele>280</ele>
        <time>2013-07-12T13:13:14Z</time>
      </trkpt>
      <trkpt lat="47.15801" lon="5.7926">
        <ele>280</ele>
        <time>2013-07-12T13:13:16Z</time>
      </trkpt>
      <trkpt lat="47.15808" lon="5.79273">
        <ele>280</ele>
        <time>2013-07-12T13:13:18Z</time>
      </trkpt>
      <trkpt lat="47.15815" lon="5.79286">
        <ele>280</ele>
        <time>2013-07-12T13:13:20Z</time>
      </trkpt>
      <trkpt lat="47.15821" lon="5.793">
        <ele>280</ele>
        <time>2013-07-12T13:13:22Z</time>
      </trkpt>
      <trkpt lat="47.15829" lon="5.79315">
        <ele>280</ele>
        <time>2013-07-12T13:13:24Z</time>
      </trkpt>
      <trkpt lat="47.15836" lon="5.7933">
        <ele>280</ele>
        <time>2013-07-12T13:13:26Z</time>
      </trkpt>
      <trkpt lat="47.15843" lon="5.79347">
        <ele>275</ele>
        <time>2013-07-12T13:13:28Z</time>
      </trkpt>
      <trkpt lat="47.1585" lon="5.79364">
        <ele>275</ele>
        <time>2013-07-12T13:13:30Z</time>
      </trkpt>
      <trkpt lat="47.15861" lon="5.79379">
        <ele>275</ele>
        <time>2013-07-12T13:13:32Z</time>
      </trkpt>
      <trkpt lat="47.15873" lon="5.7939">
        <ele>275</ele>
        <time>2013-07-12T13:13:34Z</time>
      </trkpt>
      <trkpt lat="47.15885" lon="5.79397">
        <ele>275</ele>
        <time>2013-07-12T13:13:36Z</time>
      </trkpt>
      <trkpt lat="47.15897" lon="5.79403">
        <ele>275</ele>
        <time>2013-07-12T13:13:38Z</time>
      </trkpt>
      <trkpt lat="47.15909" lon="5.79405">
        <ele>275</ele>
        <time>2013-07-12T13:13:40Z</time>
      </trkpt>
      <trkpt lat="47.15921" lon="5.79405">
        <ele>275</ele>
        <time>2013-07-12T13:13:42Z</time>
      </trkpt>
      <trkpt lat="47.15932" lon="5.79404">
        <ele>275</ele>
        <time>2013-07-12T13:13:44Z</time>
      </trkpt>
      <trkpt lat="47.15943" lon="5.79402">
        <ele>275</ele>
        <time>2013-07-12T13:13:46Z</time>
      </trkpt>
      <trkpt lat="47.15954" lon="5.794">
        <ele>275</ele>
        <time>2013-07-12T13:13:48Z</time>
      </trkpt>
      <trkpt lat="47.15965" lon="5.79398">
        <ele>275</ele>
        <time>2013-07-12T13:13:50Z</time>
      </trkpt>
      <trkpt lat="47.15977" lon="5.79398">
        <ele>275</ele>
        <time>2013-07-12T13:13:52Z</time>
      </trkpt>
      <trkpt lat="47.15988" lon="5.794">
        <ele>275</ele>
        <time>2013-07-12T13:13:54Z</time>
      </trkpt>
      <trkpt lat="47.15998" lon="5.79402">
        <ele>275</ele>
        <time>2013-07-12T13:13:56Z</time>
      </trkpt>
      <trkpt lat="47.16009" lon="5.79404">
        <ele>275</ele>
        <time>2013-07-12T13:13:58Z</time>
      </trkpt>
      <trkpt lat="47.1602" lon="5.79406">
        <ele>275</ele>
        <time>2013-07-12T13:14:00Z</time>
      </trkpt>
      <trkpt lat="47.1603" lon="5.79406">
        <ele>275</ele>
        <time>2013-07-12T13:14:02Z</time>
      </trkpt>
      <trkpt lat="47.16041" lon="5.79405">
        <ele>275</ele>
        <time>2013-07-12T13:14:04Z</time>
      </trkpt>
      <trkpt lat="47.16052" lon="5.79402">
        <ele>275</ele>
        <time>2013-07-12T13:14:06Z</time>
      </trkpt>
      <trkpt lat="47.16063" lon="5.79396">
        <ele>275</ele>
        <time>2013-07-12T13:14:08Z</time>
      </trkpt>
      <trkpt lat="47.16074" lon="5.79391">
        <ele>275</ele>
        <time>2013-07-12T13:14:10Z</time>
      </trkpt>
      <trkpt lat="47.16085" lon="5.79385">
        <ele>275</ele>
        <time>2013-07-12T13:14:12Z</time>
      </trkpt>
      <trkpt lat="47.16096" lon="5.79379">
        <ele>275</ele>
        <time>2013-07-12T13:14:14Z</time>
      </trkpt>
      <trkpt lat="47.16108" lon="5.79373">
        <ele>275</ele>
        <time>2013-07-12T13:14:16Z</time>
      </trkpt>
      <trkpt lat="47.16119" lon="5.79367">
        <ele>275</ele>
        <time>2013-07-12T13:14:18Z</time>
      </trkpt>
      <trkpt lat="47.1613" lon="5.7936">
        <ele>275</ele>
        <time>2013-07-12T13:14:20Z</time>
      </trkpt>
      <trkpt lat="47.1614" lon="5.79351">
        <ele>275</ele>
        <time>2013-07-12T13:14:22Z</time>
      </trkpt>
      <trkpt lat="47.16151" lon="5.79342">
        <ele>275</ele>
        <time>2013-07-12T13:14:24Z</time>
      </trkpt>
      <trkpt lat="47.1616" lon="5.79332">
        <ele>275</ele>
        <time>2013-07-12T13:14:26Z</time>
      </trkpt>
      <trkpt lat="47.1617" lon="5.7932">
        <ele>275</ele>
        <time>2013-07-12T13:14:28Z</time>
      </trkpt>
      <trkpt lat="47.16179" lon="5.79307">
        <ele>270</ele>
        <time>2013-07-12T13:14:30Z</time>
      </trkpt>
      <trkpt lat="47.16191" lon="5.79296">
        <ele>270</ele>
        <time>2013-07-12T13:14:32Z</time>
      </trkpt>
      <trkpt lat="47.16205" lon="5.79285">
        <ele>270</ele>
        <time>2013-07-12T13:14:34Z</time>
      </trkpt>
      <trkpt lat="47.1622" lon="5.79276">
        <ele>270</ele>
        <time>2013-07-12T13:14:36Z</time>
      </trkpt>
      <trkpt lat="47.16235" lon="5.79266">
        <ele>270</ele>
        <time>2013-07-12T13:14:38Z</time>
      </trkpt>
      <trkpt lat="47.16243" lon="5.79259">
        <ele>270</ele>
        <time>2013-07-12T13:14:39Z</time>
      </trkpt>
      <trkpt lat="47.16252" lon="5.79253">
        <ele>270</ele>
        <time>2013-07-12T13:14:40Z</time>
      </trkpt>
      <trkpt lat="47.1626" lon="5.79246">
        <ele>264</ele>
        <time>2013-07-12T13:14:41Z</time>
      </trkpt>
      <trkpt lat="47.16269" lon="5.7924">
        <ele>264</ele>
        <time>2013-07-12T13:14:42Z</time>
      </trkpt>
      <trkpt lat="47.16279" lon="5.79236">
        <ele>264</ele>
        <time>2013-07-12T13:14:43Z</time>
      </trkpt>
      <trkpt lat="47.16288" lon="5.79231">
        <ele>264</ele>
        <time>2013-07-12T13:14:44Z</time>
      </trkpt>
      <trkpt lat="47.16297" lon="5.79227">
        <ele>264</ele>
        <time>2013-07-12T13:14:45Z</time>
      </trkpt>
      <trkpt lat="47.16307" lon="5.79224">
        <ele>264</ele>
        <time>2013-07-12T13:14:46Z</time>
      </trkpt>
      <trkpt lat="47.16317" lon="5.7922">
        <ele>264</ele>
        <time>2013-07-12T13:14:47Z</time>
      </trkpt>
      <trkpt lat="47.16327" lon="5.79217">
        <ele>264</ele>
        <time>2013-07-12T13:14:48Z</time>
      </trkpt>
      <trkpt lat="47.16338" lon="5.79213">
        <ele>259</ele>
        <time>2013-07-12T13:14:49Z</time>
      </trkpt>
      <trkpt lat="47.16348" lon="5.79209">
        <ele>259</ele>
        <time>2013-07-12T13:14:50Z</time>
      </trkpt>
      <trkpt lat="47.1636" lon="5.79206">
        <ele>259</ele>
        <time>2013-07-12T13:14:51Z</time>
      </trkpt>
      <trkpt lat="47.1637" lon="5.79202">
        <ele>259</ele>
        <time>2013-07-12T13:14:52Z</time>
      </trkpt>
      <trkpt lat="47.1638" lon="5.792">
        <ele>259</ele>
        <time>2013-07-12T13:14:53Z</time>
      </trkpt>
      <trkpt lat="47.16397" lon="5.79195">
        <ele>259</ele>
        <time>2013-07-12T13:14:55Z</time>
      </trkpt>
      <trkpt lat="47.16412" lon="5.7919">
        <ele>252</ele>
        <time>2013-07-12T13:14:57Z</time>
      </trkpt>
      <trkpt lat="47.16427" lon="5.79185">
        <ele>252</ele>
        <time>2013-07-12T13:14:59Z</time>
      </trkpt>
      <trkpt lat="47.16442" lon="5.79181">
        <ele>252</ele>
        <time>2013-07-12T13:15:01Z</time>
      </trkpt>
      <trkpt lat="47.16455" lon="5.79175">
        <ele>252</ele>
        <time>2013-07-12T13:15:03Z</time>
      </trkpt>
      <trkpt lat="47.16466" lon="5.79174">
        <ele>252</ele>
        <time>2013-07-12T13:15:05Z</time>
      </trkpt>
      <trkpt lat="47.16475" lon="5.79181">
        <ele>252</ele>
        <time>2013-07-12T13:15:07Z</time>
      </trkpt>
      <trkpt lat="47.16481" lon="5.79193">
        <ele>252</ele>
        <time>2013-07-12T13:15:09Z</time>
      </trkpt>
      <trkpt lat="47.16484" lon="5.79209">
        <ele>252</ele>
        <time>2013-07-12T13:15:11Z</time>
      </trkpt>
      <trkpt lat="47.16487" lon="5.79224">
        <ele>252</ele>
        <time>2013-07-12T13:15:13Z</time>
      </trkpt>
      <trkpt lat="47.16491" lon="5.79241">
        <ele>252</ele>
        <time>2013-07-12T13:15:15Z</time>
      </trkpt>
      <trkpt lat="47.16495" lon="5.79257">
        <ele>252</ele>
        <time>2013-07-12T13:15:17Z</time>
      </trkpt>
      <trkpt lat="47.165" lon="5.79273">
        <ele>252</ele>
        <time>2013-07-12T13:15:19Z</time>
      </trkpt>
      <trkpt lat="47.16505" lon="5.79289">
        <ele>252</ele>
        <time>2013-07-12T13:15:21Z</time>
      </trkpt>
      <trkpt lat="47.16511" lon="5.79306">
        <ele>252</ele>
        <time>2013-07-12T13:15:23Z</time>
      </trkpt>
      <trkpt lat="47.16517" lon="5.7932">
        <ele>252</ele>
        <time>2013-07-12T13:15:25Z</time>
      </trkpt>
      <trkpt lat="47.16524" lon="5.79335">
        <ele>252</ele>
        <time>2013-07-12T13:15:27Z</time>
      </trkpt>
      <trkpt lat="47.1653" lon="5.79349">
        <ele>252</ele>
        <time>2013-07-12T13:15:29Z</time>
      </trkpt>
      <trkpt lat="47.16537" lon="5.79364">
        <ele>252</ele>
        <time>2013-07-12T13:15:31Z</time>
      </trkpt>
      <trkpt lat="47.16543" lon="5.79379">
        <ele>252</ele>
        <time>2013-07-12T13:15:33Z</time>
      </trkpt>
      <trkpt lat="47.1655" lon="5.79395">
        <ele>252</ele>
        <time>2013-07-12T13:15:35Z</time>
      </trkpt>
      <trkpt lat="47.16557" lon="5.79413">
        <ele>252</ele>
        <time>2013-07-12T13:15:37Z</time>
      </trkpt>
      <trkpt lat="47.16565" lon="5.79428">
        <ele>252</ele>
        <time>2013-07-12T13:15:39Z</time>
      </trkpt>
      <trkpt lat="47.16573" lon="5.79445">
        <ele>258</ele>
        <time>2013-07-12T13:15:41Z</time>
      </trkpt>
      <trkpt lat="47.16582" lon="5.79462">
        <ele>258</ele>
        <time>2013-07-12T13:15:43Z</time>
      </trkpt>
      <trkpt lat="47.16592" lon="5.79476">
        <ele>258</ele>
        <time>2013-07-12T13:15:45Z</time>
      </trkpt>
      <trkpt lat="47.16601" lon="5.79488">
        <ele>258</ele>
        <time>2013-07-12T13:15:47Z</time>
      </trkpt>
      <trkpt lat="47.1661" lon="5.79499">
        <ele>258</ele>
        <time>2013-07-12T13:15:49Z</time>
      </trkpt>
      <trkpt lat="47.16617" lon="5.79508">
        <ele>258</ele>
        <time>2013-07-12T13:15:51Z</time>
      </trkpt>
      <trkpt lat="47.16625" lon="5.79518">
        <ele>258</ele>
        <time>2013-07-12T13:15:53Z</time>
      </trkpt>
      <trkpt lat="47.16633" lon="5.79528">
        <ele>258</ele>
        <time>2013-07-12T13:15:55Z</time>
      </trkpt>
      <trkpt lat="47.16641" lon="5.7954">
        <ele>258</ele>
        <time>2013-07-12T13:15:57Z</time>
      </trkpt>
      <trkpt lat="47.16646" lon="5.79554">
        <ele>258</ele>
        <time>2013-07-12T13:15:59Z</time>
      </trkpt>
      <trkpt lat="47.16649" lon="5.79569">
        <ele>258</ele>
        <time>2013-07-12T13:16:01Z</time>
      </trkpt>
      <trkpt lat="47.1665" lon="5.79586">
        <ele>258</ele>
        <time>2013-07-12T13:16:03Z</time>
      </trkpt>
      <trkpt lat="47.16652" lon="5.79602">
        <ele>258</ele>
        <time>2013-07-12T13:16:05Z</time>
      </trkpt>
      <trkpt lat="47.16654" lon="5.79617">
        <ele>258</ele>
        <time>2013-07-12T13:16:07Z</time>
      </trkpt>
      <trkpt lat="47.16656" lon="5.79633">
        <ele>258</ele>
        <time>2013-07-12T13:16:09Z</time>
      </trkpt>
      <trkpt lat="47.16658" lon="5.79648">
        <ele>258</ele>
        <time>2013-07-12T13:16:11Z</time>
      </trkpt>
      <trkpt lat="47.16661" lon="5.79664">
        <ele>258</ele>
        <time>2013-07-12T13:16:13Z</time>
      </trkpt>
      <trkpt lat="47.16665" lon="5.7968">
        <ele>258</ele>
        <time>2013-07-12T13:16:15Z</time>
      </trkpt>
      <trkpt lat="47.16668" lon="5.79697">
        <ele>258</ele>
        <time>2013-07-12T13:16:17Z</time>
      </trkpt>
      <trkpt lat="47.16671" lon="5.79714">
        <ele>258</ele>
        <time>2013-07-12T13:16:19Z</time>
      </trkpt>
      <trkpt lat="47.16673" lon="5.79732">
        <ele>258</ele>
        <time>2013-07-12T13:16:21Z</time>
      </trkpt>
      <trkpt lat="47.16676" lon="5.7975">
        <ele>258</ele>
        <time>2013-07-12T13:16:23Z</time>
      </trkpt>
      <trkpt lat="47.16679" lon="5.79767">
        <ele>258</ele>
        <time>2013-07-12T13:16:25Z</time>
      </trkpt>
      <trkpt lat="47.16681" lon="5.79784">
        <ele>258</ele>
        <time>2013-07-12T13:16:27Z</time>
      </trkpt>
      <trkpt lat="47.16684" lon="5.798">
        <ele>258</ele>
        <time>2013-07-12T13:16:29Z</time>
      </trkpt>
      <trkpt lat="47.16686" lon="5.79815">
        <ele>258</ele>
        <time>2013-07-12T13:16:31Z</time>
      </trkpt>
      <trkpt lat="47.16688" lon="5.7983">
        <ele>258</ele>
        <time>2013-07-12T13:16:33Z</time>
      </trkpt>
      <trkpt lat="47.1669" lon="5.79845">
        <ele>258</ele>
        <time>2013-07-12T13:16:35Z</time>
      </trkpt>
      <trkpt lat="47.16692" lon="5.79862">
        <ele>258</ele>
        <time>2013-07-12T13:16:37Z</time>
      </trkpt>
      <trkpt lat="47.16694" lon="5.79879">
        <ele>258</ele>
        <time>2013-07-12T13:16:39Z</time>
      </trkpt>
      <trkpt lat="47.16695" lon="5.79896">
        <ele>258</ele>
        <time>2013-07-12T13:16:41Z</time>
      </trkpt>
      <trkpt lat="47.16696" lon="5.79914">
        <ele>258</ele>
        <time>2013-07-12T13:16:43Z</time>
      </trkpt>
      <trkpt lat="47.16696" lon="5.79934">
        <ele>258</ele>
        <time>2013-07-12T13:16:45Z</time>
      </trkpt>
      <trkpt lat="47.16696" lon="5.79955">
        <ele>258</ele>
        <time>2013-07-12T13:16:47Z</time>
      </trkpt>
      <trkpt lat="47.16696" lon="5.79978">
        <ele>258</ele>
        <time>2013-07-12T13:16:49Z</time>
      </trkpt>
      <trkpt lat="47.16696" lon="5.80002">
        <ele>258</ele>
        <time>2013-07-12T13:16:51Z</time>
      </trkpt>
      <trkpt lat="47.16696" lon="5.80024">
        <ele>258</ele>
        <time>2013-07-12T13:16:53Z</time>
      </trkpt>
      <trkpt lat="47.16696" lon="5.80047">
        <ele>258</ele>
        <time>2013-07-12T13:16:55Z</time>
      </trkpt>
      <trkpt lat="47.16696" lon="5.80068">
        <ele>258</ele>
        <time>2013-07-12T13:16:57Z</time>
      </trkpt>
      <trkpt lat="47.16696" lon="5.8009">
        <ele>258</ele>
        <time>2013-07-12T13:16:59Z</time>
      </trkpt>
      <trkpt lat="47.16697" lon="5.80111">
        <ele>258</ele>
        <time>2013-07-12T13:17:01Z</time>
      </trkpt>
      <trkpt lat="47.16696" lon="5.8013">
        <ele>258</ele>
        <time>2013-07-12T13:17:03Z</time>
      </trkpt>
      <trkpt lat="47.16696" lon="5.8015">
        <ele>258</ele>
        <time>2013-07-12T13:17:05Z</time>
      </trkpt>
      <trkpt lat="47.16696" lon="5.80171">
        <ele>258</ele>
        <time>2013-07-12T13:17:07Z</time>
      </trkpt>
      <trkpt lat="47.16697" lon="5.80192">
        <ele>258</ele>
        <time>2013-07-12T13:17:09Z</time>
      </trkpt>
      <trkpt lat="47.16697" lon="5.80214">
        <ele>258</ele>
        <time>2013-07-12T13:17:11Z</time>
      </trkpt>
      <trkpt lat="47.16696" lon="5.80235">
        <ele>258</ele>
        <time>2013-07-12T13:17:13Z</time>
      </trkpt>
      <trkpt lat="47.16695" lon="5.80256">
        <ele>258</ele>
        <time>2013-07-12T13:17:15Z</time>
      </trkpt>
      <trkpt lat="47.16695" lon="5.80277">
        <ele>258</ele>
        <time>2013-07-12T13:17:17Z</time>
      </trkpt>
      <trkpt lat="47.16693" lon="5.80297">
        <ele>258</ele>
        <time>2013-07-12T13:17:19Z</time>
      </trkpt>
      <trkpt lat="47.16693" lon="5.80318">
        <ele>258</ele>
        <time>2013-07-12T13:17:21Z</time>
      </trkpt>
      <trkpt lat="47.16692" lon="5.80338">
        <ele>258</ele>
        <time>2013-07-12T13:17:23Z</time>
      </trkpt>
      <trkpt lat="47.1669" lon="5.80358">
        <ele>258</ele>
        <time>2013-07-12T13:17:25Z</time>
      </trkpt>
      <trkpt lat="47.16687" lon="5.80377">
        <ele>258</ele>
        <time>2013-07-12T13:17:27Z</time>
      </trkpt>
      <trkpt lat="47.16682" lon="5.80396">
        <ele>258</ele>
        <time>2013-07-12T13:17:29Z</time>
      </trkpt>
      <trkpt lat="47.16676" lon="5.80415">
        <ele>258</ele>
        <time>2013-07-12T13:17:31Z</time>
      </trkpt>
      <trkpt lat="47.16669" lon="5.80433">
        <ele>258</ele>
        <time>2013-07-12T13:17:33Z</time>
      </trkpt>
      <trkpt lat="47.16662" lon="5.8045">
        <ele>258</ele>
        <time>2013-07-12T13:17:35Z</time>
      </trkpt>
      <trkpt lat="47.16657" lon="5.80466">
        <ele>258</ele>
        <time>2013-07-12T13:17:37Z</time>
      </trkpt>
      <trkpt lat="47.1665" lon="5.80483">
        <ele>258</ele>
        <time>2013-07-12T13:17:39Z</time>
      </trkpt>
      <trkpt lat="47.16645" lon="5.80501">
        <ele>258</ele>
        <time>2013-07-12T13:17:41Z</time>
      </trkpt>
      <trkpt lat="47.16639" lon="5.8052">
        <ele>258</ele>
        <time>2013-07-12T13:17:43Z</time>
      </trkpt>
      <trkpt lat="47.16633" lon="5.80539">
        <ele>258</ele>
        <time>2013-07-12T13:17:45Z</time>
      </trkpt>
      <trkpt lat="47.16628" lon="5.80558">
        <ele>258</ele>
        <time>2013-07-12T13:17:47Z</time>
      </trkpt>
      <trkpt lat="47.16622" lon="5.80576">
        <ele>258</ele>
        <time>2013-07-12T13:17:49Z</time>
      </trkpt>
      <trkpt lat="47.16617" lon="5.80595">
        <ele>258</ele>
        <time>2013-07-12T13:17:51Z</time>
      </trkpt>
      <trkpt lat="47.16611" lon="5.80613">
        <ele>258</ele>
        <time>2013-07-12T13:17:53Z</time>
      </trkpt>
      <trkpt lat="47.16605" lon="5.80631">
        <ele>258</ele>
        <time>2013-07-12T13:17:55Z</time>
      </trkpt>
      <trkpt lat="47.166" lon="5.80649">
        <ele>258</ele>
        <time>2013-07-12T13:17:57Z</time>
      </trkpt>
      <trkpt lat="47.16594" lon="5.80669">
        <ele>258</ele>
        <time>2013-07-12T13:17:59Z</time>
      </trkpt>
      <trkpt lat="47.16589" lon="5.80689">
        <ele>258</ele>
        <time>2013-07-12T13:18:01Z</time>
      </trkpt>
      <trkpt lat="47.16585" lon="5.8071">
        <ele>258</ele>
        <time>2013-07-12T13:18:03Z</time>
      </trkpt>
      <trkpt lat="47.16581" lon="5.80729">
        <ele>258</ele>
        <time>2013-07-12T13:18:05Z</time>
      </trkpt>
      <trkpt lat="47.16578" lon="5.8075">
        <ele>258</ele>
        <time>2013-07-12T13:18:07Z</time>
      </trkpt>
      <trkpt lat="47.16576" lon="5.80771">
        <ele>258</ele>
        <time>2013-07-12T13:18:09Z</time>
      </trkpt>
      <trkpt lat="47.16575" lon="5.80791">
        <ele>258</ele>
        <time>2013-07-12T13:18:11Z</time>
      </trkpt>
      <trkpt lat="47.16574" lon="5.80811">
        <ele>258</ele>
        <time>2013-07-12T13:18:13Z</time>
      </trkpt>
      <trkpt lat="47.16574" lon="5.80831">
        <ele>258</ele>
        <time>2013-07-12T13:18:15Z</time>
      </trkpt>
      <trkpt lat="47.16574" lon="5.80852">
        <ele>258</ele>
        <time>2013-07-12T13:18:17Z</time>
      </trkpt>
      <trkpt lat="47.16573" lon="5.80872">
        <ele>258</ele>
        <time>2013-07-12T13:18:19Z</time>
      </trkpt>
      <trkpt lat="47.16573" lon="5.80894">
        <ele>258</ele>
        <time>2013-07-12T13:18:21Z</time>
      </trkpt>
      <trkpt lat="47.16571" lon="5.80914">
        <ele>258</ele>
        <time>2013-07-12T13:18:23Z</time>
      </trkpt>
      <trkpt lat="47.1657" lon="5.80934">
        <ele>258</ele>
        <time>2013-07-12T13:18:25Z</time>
      </trkpt>
      <trkpt lat="47.1657" lon="5.80954">
        <ele>258</ele>
        <time>2013-07-12T13:18:27Z</time>
      </trkpt>
      <trkpt lat="47.16569" lon="5.80974">
        <ele>258</ele>
        <time>2013-07-12T13:18:29Z</time>
      </trkpt>
      <trkpt lat="47.16568" lon="5.80994">
        <ele>258</ele>
        <time>2013-07-12T13:18:31Z</time>
      </trkpt>
      <trkpt lat="47.16568" lon="5.81014">
        <ele>258</ele>
        <time>2013-07-12T13:18:33Z</time>
      </trkpt>
      <trkpt lat="47.16568" lon="5.81036">
        <ele>258</ele>
        <time>2013-07-12T13:18:35Z</time>
      </trkpt>
      <trkpt lat="47.16568" lon="5.81056">
        <ele>258</ele>
        <time>2013-07-12T13:18:37Z</time>
      </trkpt>
      <trkpt lat="47.16568" lon="5.81078">
        <ele>258</ele>
        <time>2013-07-12T13:18:39Z</time>
      </trkpt>
      <trkpt lat="47.16567" lon="5.811">
        <ele>258</ele>
        <time>2013-07-12T13:18:41Z</time>
      </trkpt>
      <trkpt lat="47.16567" lon="5.81122">
        <ele>258</ele>
        <time>2013-07-12T13:18:43Z</time>
      </trkpt>
      <trkpt lat="47.16566" lon="5.81144">
        <ele>258</ele>
        <time>2013-07-12T13:18:45Z</time>
      </trkpt>
      <trkpt lat="47.16564" lon="5.81167">
        <ele>258</ele>
        <time>2013-07-12T13:18:47Z</time>
      </trkpt>
      <trkpt lat="47.16562" lon="5.81188">
        <ele>258</ele>
        <time>2013-07-12T13:18:49Z</time>
      </trkpt>
      <trkpt lat="47.16559" lon="5.81211">
        <ele>258</ele>
        <time>2013-07-12T13:18:51Z</time>
      </trkpt>
      <trkpt lat="47.16556" lon="5.81232">
        <ele>258</ele>
        <time>2013-07-12T13:18:53Z</time>
      </trkpt>
      <trkpt lat="47.16552" lon="5.81254">
        <ele>258</ele>
        <time>2013-07-12T13:18:55Z</time>
      </trkpt>
      <trkpt lat="47.16549" lon="5.81276">
        <ele>258</ele>
        <time>2013-07-12T13:18:57Z</time>
      </trkpt>
      <trkpt lat="47.16544" lon="5.81297">
        <ele>258</ele>
        <time>2013-07-12T13:18:59Z</time>
      </trkpt>
      <trkpt lat="47.1654" lon="5.81318">
        <ele>258</ele>
        <time>2013-07-12T13:19:01Z</time>
      </trkpt>
      <trkpt lat="47.16537" lon="5.81339">
        <ele>258</ele>
        <time>2013-07-12T13:19:03Z</time>
      </trkpt>
      <trkpt lat="47.16532" lon="5.8136">
        <ele>258</ele>
        <time>2013-07-12T13:19:05Z</time>
      </trkpt>
      <trkpt lat="47.16527" lon="5.81382">
        <ele>252</ele>
        <time>2013-07-12T13:19:07Z</time>
      </trkpt>
      <trkpt lat="47.16523" lon="5.81403">
        <ele>252</ele>
        <time>2013-07-12T13:19:09Z</time>
      </trkpt>
      <trkpt lat="47.16518" lon="5.81426">
        <ele>252</ele>
        <time>2013-07-12T13:19:11Z</time>
      </trkpt>
      <trkpt lat="47.16514" lon="5.81446">
        <ele>252</ele>
        <time>2013-07-12T13:19:13Z</time>
      </trkpt>
      <trkpt lat="47.1651" lon="5.81467">
        <ele>252</ele>
        <time>2013-07-12T13:19:15Z</time>
      </trkpt>
      <trkpt lat="47.16505" lon="5.81489">
        <ele>252</ele>
        <time>2013-07-12T13:19:17Z</time>
      </trkpt>
      <trkpt lat="47.16499" lon="5.81509">
        <ele>252</ele>
        <time>2013-07-12T13:19:19Z</time>
      </trkpt>
      <trkpt lat="47.16492" lon="5.81531">
        <ele>252</ele>
        <time>2013-07-12T13:19:21Z</time>
      </trkpt>
      <trkpt lat="47.16487" lon="5.81542">
        <ele>252</ele>
        <time>2013-07-12T13:19:22Z</time>
      </trkpt>
      <trkpt lat="47.16483" lon="5.81554">
        <ele>252</ele>
        <time>2013-07-12T13:19:23Z</time>
      </trkpt>
      <trkpt lat="47.16479" lon="5.81566">
        <ele>252</ele>
        <time>2013-07-12T13:19:24Z</time>
      </trkpt>
      <trkpt lat="47.16475" lon="5.81577">
        <ele>252</ele>
        <time>2013-07-12T13:19:25Z</time>
      </trkpt>
      <trkpt lat="47.1647" lon="5.81589">
        <ele>252</ele>
        <time>2013-07-12T13:19:26Z</time>
      </trkpt>
      <trkpt lat="47.16465" lon="5.81601">
        <ele>252</ele>
        <time>2013-07-12T13:19:27Z</time>
      </trkpt>
      <trkpt lat="47.16461" lon="5.81612">
        <ele>247</ele>
        <time>2013-07-12T13:19:28Z</time>
      </trkpt>
      <trkpt lat="47.16453" lon="5.81634">
        <ele>247</ele>
        <time>2013-07-12T13:19:30Z</time>
      </trkpt>
      <trkpt lat="47.16444" lon="5.81654">
        <ele>247</ele>
        <time>2013-07-12T13:19:32Z</time>
      </trkpt>
      <trkpt lat="47.16434" lon="5.81671">
        <ele>247</ele>
        <time>2013-07-12T13:19:34Z</time>
      </trkpt>
      <trkpt lat="47.16423" lon="5.81686">
        <ele>247</ele>
        <time>2013-07-12T13:19:36Z</time>
      </trkpt>
      <trkpt lat="47.16413" lon="5.81702">
        <ele>247</ele>
        <time>2013-07-12T13:19:38Z</time>
      </trkpt>
      <trkpt lat="47.16405" lon="5.81718">
        <ele>247</ele>
        <time>2013-07-12T13:19:40Z</time>
      </trkpt>
      <trkpt lat="47.16396" lon="5.81735">
        <ele>247</ele>
        <time>2013-07-12T13:19:42Z</time>
      </trkpt>
      <trkpt lat="47.16388" lon="5.81752">
        <ele>247</ele>
        <time>2013-07-12T13:19:44Z</time>
      </trkpt>
      <trkpt lat="47.1638" lon="5.8177">
        <ele>247</ele>
        <time>2013-07-12T13:19:46Z</time>
      </trkpt>
      <trkpt lat="47.16372" lon="5.81788">
        <ele>247</ele>
        <time>2013-07-12T13:19:48Z</time>
      </trkpt>
      <trkpt lat="47.16366" lon="5.81806">
        <ele>247</ele>
        <time>2013-07-12T13:19:50Z</time>
      </trkpt>
      <trkpt lat="47.16362" lon="5.81824">
        <ele>247</ele>
        <time>2013-07-12T13:19:52Z</time>
      </trkpt>
      <trkpt lat="47.16359" lon="5.81843">
        <ele>247</ele>
        <time>2013-07-12T13:19:54Z</time>
      </trkpt>
      <trkpt lat="47.16358" lon="5.81862">
        <ele>247</ele>
        <time>2013-07-12T13:19:56Z</time>
      </trkpt>
      <trkpt lat="47.16359" lon="5.81882">
        <ele>247</ele>
        <time>2013-07-12T13:19:58Z</time>
      </trkpt>
      <trkpt lat="47.16359" lon="5.81904">
        <ele>247</ele>
        <time>2013-07-12T13:20:00Z</time>
      </trkpt>
      <trkpt lat="47.16361" lon="5.81925">
        <ele>247</ele>
        <time>2013-07-12T13:20:02Z</time>
      </trkpt>
      <trkpt lat="47.16363" lon="5.81947">
        <ele>247</ele>
        <time>2013-07-12T13:20:04Z</time>
      </trkpt>
      <trkpt lat="47.16364" lon="5.81968">
        <ele>247</ele>
        <time>2013-07-12T13:20:06Z</time>
      </trkpt>
      <trkpt lat="47.16366" lon="5.81989">
        <ele>247</ele>
        <time>2013-07-12T13:20:08Z</time>
      </trkpt>
      <trkpt lat="47.16367" lon="5.82009">
        <ele>247</ele>
        <time>2013-07-12T13:20:10Z</time>
      </trkpt>
      <trkpt lat="47.16369" lon="5.82027">
        <ele>247</ele>
        <time>2013-07-12T13:20:12Z</time>
      </trkpt>
      <trkpt lat="47.1637" lon="5.82045">
        <ele>247</ele>
        <time>2013-07-12T13:20:14Z</time>
      </trkpt>
      <trkpt lat="47.16373" lon="5.82064">
        <ele>247</ele>
        <time>2013-07-12T13:20:16Z</time>
      </trkpt>
      <trkpt lat="47.16375" lon="5.82084">
        <ele>247</ele>
        <time>2013-07-12T13:20:18Z</time>
      </trkpt>
      <trkpt lat="47.16376" lon="5.82105">
        <ele>247</ele>
        <time>2013-07-12T13:20:20Z</time>
      </trkpt>
      <trkpt lat="47.16378" lon="5.82128">
        <ele>247</ele>
        <time>2013-07-12T13:20:22Z</time>
      </trkpt>
      <trkpt lat="47.16379" lon="5.82152">
        <ele>242</ele>
        <time>2013-07-12T13:20:24Z</time>
      </trkpt>
      <trkpt lat="47.1638" lon="5.82166">
        <ele>242</ele>
        <time>2013-07-12T13:20:25Z</time>
      </trkpt>
      <trkpt lat="47.1638" lon="5.82179">
        <ele>242</ele>
        <time>2013-07-12T13:20:26Z</time>
      </trkpt>
      <trkpt lat="47.16381" lon="5.82204">
        <ele>242</ele>
        <time>2013-07-12T13:20:28Z</time>
      </trkpt>
      <trkpt lat="47.16382" lon="5.82218">
        <ele>242</ele>
        <time>2013-07-12T13:20:29Z</time>
      </trkpt>
      <trkpt lat="47.16382" lon="5.82242">
        <ele>242</ele>
        <time>2013-07-12T13:20:31Z</time>
      </trkpt>
      <trkpt lat="47.16383" lon="5.82265">
        <ele>242</ele>
        <time>2013-07-12T13:20:33Z</time>
      </trkpt>
      <trkpt lat="47.16383" lon="5.82286">
        <ele>242</ele>
        <time>2013-07-12T13:20:35Z</time>
      </trkpt>
      <trkpt lat="47.16384" lon="5.82307">
        <ele>242</ele>
        <time>2013-07-12T13:20:37Z</time>
      </trkpt>
      <trkpt lat="47.16384" lon="5.82328">
        <ele>242</ele>
        <time>2013-07-12T13:20:39Z</time>
      </trkpt>
      <trkpt lat="47.16385" lon="5.82348">
        <ele>242</ele>
        <time>2013-07-12T13:20:41Z</time>
      </trkpt>
      <trkpt lat="47.16386" lon="5.82369">
        <ele>242</ele>
        <time>2013-07-12T13:20:43Z</time>
      </trkpt>
      <trkpt lat="47.16386" lon="5.82389">
        <ele>242</ele>
        <time>2013-07-12T13:20:45Z</time>
      </trkpt>
      <trkpt lat="47.16387" lon="5.82408">
        <ele>242</ele>
        <time>2013-07-12T13:20:47Z</time>
      </trkpt>
      <trkpt lat="47.16388" lon="5.82429">
        <ele>242</ele>
        <time>2013-07-12T13:20:49Z</time>
      </trkpt>
      <trkpt lat="47.16389" lon="5.82449">
        <ele>242</ele>
        <time>2013-07-12T13:20:51Z</time>
      </trkpt>
      <trkpt lat="47.16393" lon="5.82463">
        <ele>242</ele>
        <time>2013-07-12T13:20:53Z</time>
      </trkpt>
      <trkpt lat="47.16397" lon="5.82478">
        <ele>242</ele>
        <time>2013-07-12T13:20:56Z</time>
      </trkpt>
      <trkpt lat="47.16397" lon="5.82494">
        <ele>242</ele>
        <time>2013-07-12T13:20:59Z</time>
      </trkpt>
      <trkpt lat="47.16389" lon="5.82506">
        <ele>242</ele>
        <time>2013-07-12T13:21:02Z</time>
      </trkpt>
      <trkpt lat="47.16383" lon="5.82518">
        <ele>242</ele>
        <time>2013-07-12T13:21:04Z</time>
      </trkpt>
      <trkpt lat="47.16378" lon="5.82531">
        <ele>242</ele>
        <time>2013-07-12T13:21:06Z</time>
      </trkpt>
      <trkpt lat="47.16375" lon="5.82549">
        <ele>242</ele>
        <time>2013-07-12T13:21:08Z</time>
      </trkpt>
      <trkpt lat="47.16373" lon="5.82566">
        <ele>242</ele>
        <time>2013-07-12T13:21:10Z</time>
      </trkpt>
      <trkpt lat="47.1637" lon="5.82583">
        <ele>242</ele>
        <time>2013-07-12T13:21:12Z</time>
      </trkpt>
      <trkpt lat="47.16367" lon="5.82599">
        <ele>242</ele>
        <time>2013-07-12T13:21:14Z</time>
      </trkpt>
      <trkpt lat="47.16364" lon="5.82616">
        <ele>242</ele>
        <time>2013-07-12T13:21:16Z</time>
      </trkpt>
      <trkpt lat="47.16361" lon="5.82632">
        <ele>242</ele>
        <time>2013-07-12T13:21:18Z</time>
      </trkpt>
      <trkpt lat="47.16357" lon="5.82646">
        <ele>242</ele>
        <time>2013-07-12T13:21:20Z</time>
      </trkpt>
      <trkpt lat="47.16352" lon="5.82661">
        <ele>242</ele>
        <time>2013-07-12T13:21:23Z</time>
      </trkpt>
      <trkpt lat="47.16348" lon="5.82672">
        <ele>242</ele>
        <time>2013-07-12T13:21:27Z</time>
      </trkpt>
      <trkpt lat="47.16348" lon="5.82687">
        <ele>242</ele>
        <time>2013-07-12T13:21:46Z</time>
      </trkpt>
      <trkpt lat="47.16356" lon="5.82697">
        <ele>242</ele>
        <time>2013-07-12T13:21:52Z</time>
      </trkpt>
      <trkpt lat="47.16364" lon="5.82703">
        <ele>248</ele>
        <time>2013-07-12T13:21:56Z</time>
      </trkpt>
      <trkpt lat="47.16373" lon="5.82709">
        <ele>248</ele>
        <time>2013-07-12T13:21:59Z</time>
      </trkpt>
      <trkpt lat="47.16382" lon="5.82718">
        <ele>255</ele>
        <time>2013-07-12T13:22:02Z</time>
      </trkpt>
      <trkpt lat="47.16388" lon="5.82729">
        <ele>255</ele>
        <time>2013-07-12T13:22:04Z</time>
      </trkpt>
      <trkpt lat="47.16393" lon="5.82746">
        <ele>255</ele>
        <time>2013-07-12T13:22:06Z</time>
      </trkpt>
      <trkpt lat="47.16398" lon="5.82766">
        <ele>255</ele>
        <time>2013-07-12T13:22:08Z</time>
      </trkpt>
      <trkpt lat="47.16403" lon="5.82785">
        <ele>255</ele>
        <time>2013-07-12T13:22:10Z</time>
      </trkpt>
      <trkpt lat="47.16407" lon="5.82807">
        <ele>255</ele>
        <time>2013-07-12T13:22:12Z</time>
      </trkpt>
      <trkpt lat="47.1641" lon="5.8283">
        <ele>255</ele>
        <time>2013-07-12T13:22:14Z</time>
      </trkpt>
      <trkpt lat="47.16413" lon="5.82842">
        <ele>255</ele>
        <time>2013-07-12T13:22:15Z</time>
      </trkpt>
      <trkpt lat="47.16414" lon="5.82856">
        <ele>255</ele>
        <time>2013-07-12T13:22:16Z</time>
      </trkpt>
      <trkpt lat="47.16416" lon="5.8288">
        <ele>249</ele>
        <time>2013-07-12T13:22:18Z</time>
      </trkpt>
      <trkpt lat="47.16419" lon="5.82904">
        <ele>249</ele>
        <time>2013-07-12T13:22:20Z</time>
      </trkpt>
      <trkpt lat="47.16421" lon="5.82929">
        <ele>249</ele>
        <time>2013-07-12T13:22:22Z</time>
      </trkpt>
      <trkpt lat="47.16424" lon="5.82942">
        <ele>249</ele>
        <time>2013-07-12T13:22:23Z</time>
      </trkpt>
      <trkpt lat="47.16425" lon="5.82955">
        <ele>242</ele>
        <time>2013-07-12T13:22:24Z</time>
      </trkpt>
      <trkpt lat="47.16429" lon="5.82981">
        <ele>242</ele>
        <time>2013-07-12T13:22:26Z</time>
      </trkpt>
      <trkpt lat="47.16431" lon="5.83005">
        <ele>242</ele>
        <time>2013-07-12T13:22:28Z</time>
      </trkpt>
      <trkpt lat="47.16435" lon="5.83028">
        <ele>236</ele>
        <time>2013-07-12T13:22:30Z</time>
      </trkpt>
      <trkpt lat="47.16445" lon="5.83044">
        <ele>236</ele>
        <time>2013-07-12T13:22:32Z</time>
      </trkpt>
      <trkpt lat="47.16461" lon="5.83052">
        <ele>236</ele>
        <time>2013-07-12T13:22:34Z</time>
      </trkpt>
      <trkpt lat="47.16476" lon="5.83056">
        <ele>236</ele>
        <time>2013-07-12T13:22:36Z</time>
      </trkpt>
      <trkpt lat="47.16487" lon="5.83061">
        <ele>236</ele>
        <time>2013-07-12T13:22:38Z</time>
      </trkpt>
      <trkpt lat="47.16499" lon="5.83079">
        <ele>236</ele>
        <time>2013-07-12T13:22:40Z</time>
      </trkpt>
      <trkpt lat="47.16507" lon="5.83099">
        <ele>236</ele>
        <time>2013-07-12T13:22:42Z</time>
      </trkpt>
      <trkpt lat="47.16514" lon="5.83123">
        <ele>236</ele>
        <time>2013-07-12T13:22:44Z</time>
      </trkpt>
      <trkpt lat="47.16521" lon="5.83146">
        <ele>236</ele>
        <time>2013-07-12T13:22:46Z</time>
      </trkpt>
      <trkpt lat="47.16524" lon="5.83159">
        <ele>236</ele>
        <time>2013-07-12T13:22:47Z</time>
      </trkpt>
      <trkpt lat="47.16528" lon="5.83172">
        <ele>230</ele>
        <time>2013-07-12T13:22:48Z</time>
      </trkpt>
      <trkpt lat="47.16536" lon="5.83195">
        <ele>230</ele>
        <time>2013-07-12T13:22:50Z</time>
      </trkpt>
      <trkpt lat="47.1654" lon="5.83208">
        <ele>230</ele>
        <time>2013-07-12T13:22:51Z</time>
      </trkpt>
      <trkpt lat="47.16543" lon="5.8322">
        <ele>230</ele>
        <time>2013-07-12T13:22:52Z</time>
      </trkpt>
      <trkpt lat="47.16546" lon="5.83234">
        <ele>230</ele>
        <time>2013-07-12T13:22:53Z</time>
      </trkpt>
      <trkpt lat="47.16551" lon="5.83258">
        <ele>230</ele>
        <time>2013-07-12T13:22:55Z</time>
      </trkpt>
      <trkpt lat="47.16555" lon="5.83282">
        <ele>230</ele>
        <time>2013-07-12T13:22:57Z</time>
      </trkpt>
      <trkpt lat="47.1656" lon="5.83306">
        <ele>230</ele>
        <time>2013-07-12T13:22:59Z</time>
      </trkpt>
      <trkpt lat="47.16566" lon="5.83329">
        <ele>230</ele>
        <time>2013-07-12T13:23:01Z</time>
      </trkpt>
      <trkpt lat="47.16569" lon="5.83342">
        <ele>230</ele>
        <time>2013-07-12T13:23:02Z</time>
      </trkpt>
      <trkpt lat="47.16576" lon="5.83363">
        <ele>225</ele>
        <time>2013-07-12T13:23:04Z</time>
      </trkpt>
      <trkpt lat="47.16584" lon="5.83385">
        <ele>225</ele>
        <time>2013-07-12T13:23:06Z</time>
      </trkpt>
      <trkpt lat="47.16591" lon="5.83408">
        <ele>225</ele>
        <time>2013-07-12T13:23:08Z</time>
      </trkpt>
      <trkpt lat="47.16597" lon="5.83431">
        <ele>225</ele>
        <time>2013-07-12T13:23:10Z</time>
      </trkpt>
      <trkpt lat="47.166" lon="5.83443">
        <ele>225</ele>
        <time>2013-07-12T13:23:11Z</time>
      </trkpt>
      <trkpt lat="47.16605" lon="5.83467">
        <ele>225</ele>
        <time>2013-07-12T13:23:13Z</time>
      </trkpt>
      <trkpt lat="47.16608" lon="5.83491">
        <ele>225</ele>
        <time>2013-07-12T13:23:15Z</time>
      </trkpt>
      <trkpt lat="47.16611" lon="5.83514">
        <ele>225</ele>
        <time>2013-07-12T13:23:17Z</time>
      </trkpt>
      <trkpt lat="47.16612" lon="5.83538">
        <ele>225</ele>
        <time>2013-07-12T13:23:19Z</time>
      </trkpt>
      <trkpt lat="47.16614" lon="5.83561">
        <ele>225</ele>
        <time>2013-07-12T13:23:21Z</time>
      </trkpt>
      <trkpt lat="47.16615" lon="5.83583">
        <ele>225</ele>
        <time>2013-07-12T13:23:23Z</time>
      </trkpt>
      <trkpt lat="47.16616" lon="5.83604">
        <ele>225</ele>
        <time>2013-07-12T13:23:25Z</time>
      </trkpt>
      <trkpt lat="47.16617" lon="5.83624">
        <ele>225</ele>
        <time>2013-07-12T13:23:27Z</time>
      </trkpt>
      <trkpt lat="47.16618" lon="5.83643">
        <ele>225</ele>
        <time>2013-07-12T13:23:29Z</time>
      </trkpt>
      <trkpt lat="47.16619" lon="5.83662">
        <ele>225</ele>
        <time>2013-07-12T13:23:31Z</time>
      </trkpt>
      <trkpt lat="47.16619" lon="5.83681">
        <ele>225</ele>
        <time>2013-07-12T13:23:33Z</time>
      </trkpt>
      <trkpt lat="47.16617" lon="5.83702">
        <ele>225</ele>
        <time>2013-07-12T13:23:35Z</time>
      </trkpt>
      <trkpt lat="47.16617" lon="5.83723">
        <ele>225</ele>
        <time>2013-07-12T13:23:37Z</time>
      </trkpt>
      <trkpt lat="47.16616" lon="5.83743">
        <ele>225</ele>
        <time>2013-07-12T13:23:39Z</time>
      </trkpt>
      <trkpt lat="47.16612" lon="5.83764">
        <ele>225</ele>
        <time>2013-07-12T13:23:41Z</time>
      </trkpt>
      <trkpt lat="47.1661" lon="5.83785">
        <ele>225</ele>
        <time>2013-07-12T13:23:43Z</time>
      </trkpt>
      <trkpt lat="47.16606" lon="5.83806">
        <ele>225</ele>
        <time>2013-07-12T13:23:45Z</time>
      </trkpt>
      <trkpt lat="47.16603" lon="5.83828">
        <ele>225</ele>
        <time>2013-07-12T13:23:47Z</time>
      </trkpt>
      <trkpt lat="47.16599" lon="5.83849">
        <ele>225</ele>
        <time>2013-07-12T13:23:49Z</time>
      </trkpt>
      <trkpt lat="47.16595" lon="5.83871">
        <ele>225</ele>
        <time>2013-07-12T13:23:51Z</time>
      </trkpt>
      <trkpt lat="47.16591" lon="5.83892">
        <ele>225</ele>
        <time>2013-07-12T13:23:53Z</time>
      </trkpt>
      <trkpt lat="47.16586" lon="5.83913">
        <ele>225</ele>
        <time>2013-07-12T13:23:55Z</time>
      </trkpt>
      <trkpt lat="47.16581" lon="5.83935">
        <ele>225</ele>
        <time>2013-07-12T13:23:57Z</time>
      </trkpt>
      <trkpt lat="47.16574" lon="5.83956">
        <ele>225</ele>
        <time>2013-07-12T13:23:59Z</time>
      </trkpt>
      <trkpt lat="47.16568" lon="5.83978">
        <ele>225</ele>
        <time>2013-07-12T13:24:01Z</time>
      </trkpt>
      <trkpt lat="47.16562" lon="5.83999">
        <ele>225</ele>
        <time>2013-07-12T13:24:03Z</time>
      </trkpt>
      <trkpt lat="47.16555" lon="5.84019">
        <ele>225</ele>
        <time>2013-07-12T13:24:05Z</time>
      </trkpt>
      <trkpt lat="47.16548" lon="5.84038">
        <ele>225</ele>
        <time>2013-07-12T13:24:07Z</time>
      </trkpt>
      <trkpt lat="47.1654" lon="5.84057">
        <ele>225</ele>
        <time>2013-07-12T13:24:09Z</time>
      </trkpt>
      <trkpt lat="47.16533" lon="5.84076">
        <ele>225</ele>
        <time>2013-07-12T13:24:11Z</time>
      </trkpt>
      <trkpt lat="47.16527" lon="5.84094">
        <ele>225</ele>
        <time>2013-07-12T13:24:13Z</time>
      </trkpt>
      <trkpt lat="47.16521" lon="5.84112">
        <ele>225</ele>
        <time>2013-07-12T13:24:15Z</time>
      </trkpt>
      <trkpt lat="47.16516" lon="5.8413">
        <ele>225</ele>
        <time>2013-07-12T13:24:17Z</time>
      </trkpt>
      <trkpt lat="47.1651" lon="5.84146">
        <ele>220</ele>
        <time>2013-07-12T13:24:19Z</time>
      </trkpt>
      <trkpt lat="47.16505" lon="5.84165">
        <ele>220</ele>
        <time>2013-07-12T13:24:21Z</time>
      </trkpt>
      <trkpt lat="47.16502" lon="5.84183">
        <ele>220</ele>
        <time>2013-07-12T13:24:23Z</time>
      </trkpt>
      <trkpt lat="47.16499" lon="5.84203">
        <ele>220</ele>
        <time>2013-07-12T13:24:25Z</time>
      </trkpt>
      <trkpt lat="47.16495" lon="5.84224">
        <ele>220</ele>
        <time>2013-07-12T13:24:27Z</time>
      </trkpt>
      <trkpt lat="47.16491" lon="5.84244">
        <ele>220</ele>
        <time>2013-07-12T13:24:29Z</time>
      </trkpt>
      <trkpt lat="47.16488" lon="5.84263">
        <ele>220</ele>
        <time>2013-07-12T13:24:31Z</time>
      </trkpt>
      <trkpt lat="47.16482" lon="5.8428">
        <ele>225</ele>
        <time>2013-07-12T13:24:33Z</time>
      </trkpt>
      <trkpt lat="47.16475" lon="5.84298">
        <ele>225</ele>
        <time>2013-07-12T13:24:35Z</time>
      </trkpt>
      <trkpt lat="47.16468" lon="5.84317">
        <ele>225</ele>
        <time>2013-07-12T13:24:37Z</time>
      </trkpt>
      <trkpt lat="47.16464" lon="5.84339">
        <ele>225</ele>
        <time>2013-07-12T13:24:39Z</time>
      </trkpt>
      <trkpt lat="47.16459" lon="5.8436">
        <ele>225</ele>
        <time>2013-07-12T13:24:41Z</time>
      </trkpt>
      <trkpt lat="47.16453" lon="5.8438">
        <ele>225</ele>
        <time>2013-07-12T13:24:43Z</time>
      </trkpt>
      <trkpt lat="47.16445" lon="5.84399">
        <ele>225</ele>
        <time>2013-07-12T13:24:45Z</time>
      </trkpt>
      <trkpt lat="47.16437" lon="5.84418">
        <ele>225</ele>
        <time>2013-07-12T13:24:47Z</time>
      </trkpt>
      <trkpt lat="47.16428" lon="5.84435">
        <ele>225</ele>
        <time>2013-07-12T13:24:49Z</time>
      </trkpt>
      <trkpt lat="47.16419" lon="5.84451">
        <ele>225</ele>
        <time>2013-07-12T13:24:51Z</time>
      </trkpt>
      <trkpt lat="47.16413" lon="5.84467">
        <ele>225</ele>
        <time>2013-07-12T13:24:53Z</time>
      </trkpt>
      <trkpt lat="47.16407" lon="5.84482">
        <ele>225</ele>
        <time>2013-07-12T13:24:55Z</time>
      </trkpt>
      <trkpt lat="47.164" lon="5.84497">
        <ele>225</ele>
        <time>2013-07-12T13:24:57Z</time>
      </trkpt>
      <trkpt lat="47.16394" lon="5.84512">
        <ele>225</ele>
        <time>2013-07-12T13:24:59Z</time>
      </trkpt>
      <trkpt lat="47.16388" lon="5.84529">
        <ele>225</ele>
        <time>2013-07-12T13:25:01Z</time>
      </trkpt>
      <trkpt lat="47.1638" lon="5.84545">
        <ele>225</ele>
        <time>2013-07-12T13:25:03Z</time>
      </trkpt>
      <trkpt lat="47.16371" lon="5.8456">
        <ele>225</ele>
        <time>2013-07-12T13:25:05Z</time>
      </trkpt>
      <trkpt lat="47.1636" lon="5.84572">
        <ele>225</ele>
        <time>2013-07-12T13:25:07Z</time>
      </trkpt>
      <trkpt lat="47.16348" lon="5.84584">
        <ele>225</ele>
        <time>2013-07-12T13:25:09Z</time>
      </trkpt>
      <trkpt lat="47.16337" lon="5.84595">
        <ele>225</ele>
        <time>2013-07-12T13:25:11Z</time>
      </trkpt>
      <trkpt lat="47.16326" lon="5.84606">
        <ele>225</ele>
        <time>2013-07-12T13:25:13Z</time>
      </trkpt>
      <trkpt lat="47.16316" lon="5.84617">
        <ele>225</ele>
        <time>2013-07-12T13:25:15Z</time>
      </trkpt>
      <trkpt lat="47.16306" lon="5.84629">
        <ele>225</ele>
        <time>2013-07-12T13:25:17Z</time>
      </trkpt>
      <trkpt lat="47.16295" lon="5.84641">
        <ele>225</ele>
        <time>2013-07-12T13:25:19Z</time>
      </trkpt>
      <trkpt lat="47.16283" lon="5.84653">
        <ele>225</ele>
        <time>2013-07-12T13:25:21Z</time>
      </trkpt>
      <trkpt lat="47.16272" lon="5.84667">
        <ele>225</ele>
        <time>2013-07-12T13:25:23Z</time>
      </trkpt>
      <trkpt lat="47.16261" lon="5.84681">
        <ele>225</ele>
        <time>2013-07-12T13:25:25Z</time>
      </trkpt>
      <trkpt lat="47.1625" lon="5.84695">
        <ele>225</ele>
        <time>2013-07-12T13:25:27Z</time>
      </trkpt>
      <trkpt lat="47.16239" lon="5.84708">
        <ele>225</ele>
        <time>2013-07-12T13:25:29Z</time>
      </trkpt>
      <trkpt lat="47.16229" lon="5.84722">
        <ele>225</ele>
        <time>2013-07-12T13:25:31Z</time>
      </trkpt>
      <trkpt lat="47.16217" lon="5.84737">
        <ele>225</ele>
        <time>2013-07-12T13:25:33Z</time>
      </trkpt>
      <trkpt lat="47.16206" lon="5.84751">
        <ele>225</ele>
        <time>2013-07-12T13:25:35Z</time>
      </trkpt>
      <trkpt lat="47.16194" lon="5.84766">
        <ele>225</ele>
        <time>2013-07-12T13:25:37Z</time>
      </trkpt>
      <trkpt lat="47.16182" lon="5.84779">
        <ele>225</ele>
        <time>2013-07-12T13:25:39Z</time>
      </trkpt>
      <trkpt lat="47.1617" lon="5.84793">
        <ele>225</ele>
        <time>2013-07-12T13:25:41Z</time>
      </trkpt>
      <trkpt lat="47.16157" lon="5.84806">
        <ele>225</ele>
        <time>2013-07-12T13:25:43Z</time>
      </trkpt>
      <trkpt lat="47.16144" lon="5.84818">
        <ele>225</ele>
        <time>2013-07-12T13:25:45Z</time>
      </trkpt>
      <trkpt lat="47.16132" lon="5.84829">
        <ele>225</ele>
        <time>2013-07-12T13:25:47Z</time>
      </trkpt>
      <trkpt lat="47.16118" lon="5.8484">
        <ele>225</ele>
        <time>2013-07-12T13:25:49Z</time>
      </trkpt>
      <trkpt lat="47.16105" lon="5.84852">
        <ele>225</ele>
        <time>2013-07-12T13:25:51Z</time>
      </trkpt>
      <trkpt lat="47.1609" lon="5.84862">
        <ele>225</ele>
        <time>2013-07-12T13:25:53Z</time>
      </trkpt>
      <trkpt lat="47.16077" lon="5.84872">
        <ele>225</ele>
        <time>2013-07-12T13:25:55Z</time>
      </trkpt>
      <trkpt lat="47.16064" lon="5.84881">
        <ele>225</ele>
        <time>2013-07-12T13:25:57Z</time>
      </trkpt>
      <trkpt lat="47.16051" lon="5.8489">
        <ele>225</ele>
        <time>2013-07-12T13:25:59Z</time>
      </trkpt>
      <trkpt lat="47.16037" lon="5.84899">
        <ele>225</ele>
        <time>2013-07-12T13:26:01Z</time>
      </trkpt>
      <trkpt lat="47.16022" lon="5.84909">
        <ele>225</ele>
        <time>2013-07-12T13:26:03Z</time>
      </trkpt>
      <trkpt lat="47.16008" lon="5.84918">
        <ele>225</ele>
        <time>2013-07-12T13:26:05Z</time>
      </trkpt>
      <trkpt lat="47.15994" lon="5.84928">
        <ele>225</ele>
        <time>2013-07-12T13:26:07Z</time>
      </trkpt>
      <trkpt lat="47.15979" lon="5.84937">
        <ele>225</ele>
        <time>2013-07-12T13:26:09Z</time>
      </trkpt>
      <trkpt lat="47.15964" lon="5.84946">
        <ele>225</ele>
        <time>2013-07-12T13:26:11Z</time>
      </trkpt>
      <trkpt lat="47.1595" lon="5.84954">
        <ele>225</ele>
        <time>2013-07-12T13:26:13Z</time>
      </trkpt>
      <trkpt lat="47.15935" lon="5.84962">
        <ele>225</ele>
        <time>2013-07-12T13:26:15Z</time>
      </trkpt>
      <trkpt lat="47.1592" lon="5.8497">
        <ele>225</ele>
        <time>2013-07-12T13:26:17Z</time>
      </trkpt>
      <trkpt lat="47.15905" lon="5.84978">
        <ele>225</ele>
        <time>2013-07-12T13:26:19Z</time>
      </trkpt>
      <trkpt lat="47.1589" lon="5.84986">
        <ele>225</ele>
        <time>2013-07-12T13:26:21Z</time>
      </trkpt>
      <trkpt lat="47.15874" lon="5.84993">
        <ele>225</ele>
        <time>2013-07-12T13:26:23Z</time>
      </trkpt>
      <trkpt lat="47.15858" lon="5.84998">
        <ele>225</ele>
        <time>2013-07-12T13:26:25Z</time>
      </trkpt>
      <trkpt lat="47.15842" lon="5.85002">
        <ele>225</ele>
        <time>2013-07-12T13:26:27Z</time>
      </trkpt>
      <trkpt lat="47.15826" lon="5.85004">
        <ele>225</ele>
        <time>2013-07-12T13:26:29Z</time>
      </trkpt>
      <trkpt lat="47.15811" lon="5.85005">
        <ele>225</ele>
        <time>2013-07-12T13:26:31Z</time>
      </trkpt>
      <trkpt lat="47.15796" lon="5.85005">
        <ele>225</ele>
        <time>2013-07-12T13:26:33Z</time>
      </trkpt>
      <trkpt lat="47.1578" lon="5.85006">
        <ele>225</ele>
        <time>2013-07-12T13:26:35Z</time>
      </trkpt>
      <trkpt lat="47.15765" lon="5.85006">
        <ele>225</ele>
        <time>2013-07-12T13:26:37Z</time>
      </trkpt>
      <trkpt lat="47.15749" lon="5.85006">
        <ele>225</ele>
        <time>2013-07-12T13:26:39Z</time>
      </trkpt>
      <trkpt lat="47.15733" lon="5.85006">
        <ele>225</ele>
        <time>2013-07-12T13:26:41Z</time>
      </trkpt>
      <trkpt lat="47.15716" lon="5.85007">
        <ele>225</ele>
        <time>2013-07-12T13:26:43Z</time>
      </trkpt>
      <trkpt lat="47.157" lon="5.85007">
        <ele>225</ele>
        <time>2013-07-12T13:26:45Z</time>
      </trkpt>
      <trkpt lat="47.15682" lon="5.85007">
        <ele>225</ele>
        <time>2013-07-12T13:26:47Z</time>
      </trkpt>
      <trkpt lat="47.15666" lon="5.85006">
        <ele>225</ele>
        <time>2013-07-12T13:26:49Z</time>
      </trkpt>
      <trkpt lat="47.15649" lon="5.85006">
        <ele>225</ele>
        <time>2013-07-12T13:26:51Z</time>
      </trkpt>
      <trkpt lat="47.15632" lon="5.85005">
        <ele>225</ele>
        <time>2013-07-12T13:26:53Z</time>
      </trkpt>
      <trkpt lat="47.15615" lon="5.85004">
        <ele>225</ele>
        <time>2013-07-12T13:26:55Z</time>
      </trkpt>
      <trkpt lat="47.15598" lon="5.85002">
        <ele>225</ele>
        <time>2013-07-12T13:26:57Z</time>
      </trkpt>
      <trkpt lat="47.15583" lon="5.85">
        <ele>225</ele>
        <time>2013-07-12T13:26:59Z</time>
      </trkpt>
      <trkpt lat="47.15567" lon="5.84998">
        <ele>225</ele>
        <time>2013-07-12T13:27:01Z</time>
      </trkpt>
      <trkpt lat="47.15552" lon="5.84996">
        <ele>225</ele>
        <time>2013-07-12T13:27:03Z</time>
      </trkpt>
      <trkpt lat="47.15537" lon="5.84996">
        <ele>225</ele>
        <time>2013-07-12T13:27:05Z</time>
      </trkpt>
      <trkpt lat="47.15522" lon="5.84995">
        <ele>225</ele>
        <time>2013-07-12T13:27:07Z</time>
      </trkpt>
      <trkpt lat="47.15507" lon="5.84993">
        <ele>225</ele>
        <time>2013-07-12T13:27:09Z</time>
      </trkpt>
      <trkpt lat="47.15492" lon="5.84991">
        <ele>225</ele>
        <time>2013-07-12T13:27:11Z</time>
      </trkpt>
      <trkpt lat="47.15477" lon="5.84987">
        <ele>225</ele>
        <time>2013-07-12T13:27:13Z</time>
      </trkpt>
      <trkpt lat="47.15462" lon="5.84981">
        <ele>225</ele>
        <time>2013-07-12T13:27:15Z</time>
      </trkpt>
      <trkpt lat="47.15448" lon="5.84972">
        <ele>225</ele>
        <time>2013-07-12T13:27:17Z</time>
      </trkpt>
      <trkpt lat="47.15435" lon="5.84961">
        <ele>225</ele>
        <time>2013-07-12T13:27:19Z</time>
      </trkpt>
      <trkpt lat="47.15423" lon="5.84951">
        <ele>225</ele>
        <time>2013-07-12T13:27:21Z</time>
      </trkpt>
      <trkpt lat="47.15412" lon="5.84941">
        <ele>225</ele>
        <time>2013-07-12T13:27:23Z</time>
      </trkpt>
      <trkpt lat="47.15402" lon="5.8493">
        <ele>225</ele>
        <time>2013-07-12T13:27:25Z</time>
      </trkpt>
      <trkpt lat="47.15389" lon="5.84922">
        <ele>225</ele>
        <time>2013-07-12T13:27:27Z</time>
      </trkpt>
      <trkpt lat="47.15377" lon="5.84918">
        <ele>225</ele>
        <time>2013-07-12T13:27:29Z</time>
      </trkpt>
      <trkpt lat="47.15363" lon="5.84916">
        <ele>225</ele>
        <time>2013-07-12T13:27:31Z</time>
      </trkpt>
      <trkpt lat="47.15348" lon="5.8492">
        <ele>225</ele>
        <time>2013-07-12T13:27:33Z</time>
      </trkpt>
      <trkpt lat="47.15333" lon="5.84925">
        <ele>225</ele>
        <time>2013-07-12T13:27:35Z</time>
      </trkpt>
      <trkpt lat="47.1532" lon="5.8493">
        <ele>225</ele>
        <time>2013-07-12T13:27:37Z</time>
      </trkpt>
      <trkpt lat="47.15305" lon="5.84935">
        <ele>225</ele>
        <time>2013-07-12T13:27:39Z</time>
      </trkpt>
      <trkpt lat="47.1529" lon="5.84942">
        <ele>225</ele>
        <time>2013-07-12T13:27:41Z</time>
      </trkpt>
      <trkpt lat="47.15276" lon="5.84949">
        <ele>225</ele>
        <time>2013-07-12T13:27:43Z</time>
      </trkpt>
      <trkpt lat="47.15261" lon="5.84953">
        <ele>225</ele>
        <time>2013-07-12T13:27:45Z</time>
      </trkpt>
      <trkpt lat="47.15245" lon="5.84958">
        <ele>225</ele>
        <time>2013-07-12T13:27:47Z</time>
      </trkpt>
      <trkpt lat="47.15229" lon="5.84963">
        <ele>225</ele>
        <time>2013-07-12T13:27:49Z</time>
      </trkpt>
      <trkpt lat="47.15212" lon="5.84966">
        <ele>225</ele>
        <time>2013-07-12T13:27:51Z</time>
      </trkpt>
      <trkpt lat="47.15196" lon="5.84969">
        <ele>225</ele>
        <time>2013-07-12T13:27:53Z</time>
      </trkpt>
      <trkpt lat="47.15181" lon="5.84975">
        <ele>225</ele>
        <time>2013-07-12T13:27:55Z</time>
      </trkpt>
      <trkpt lat="47.15165" lon="5.84978">
        <ele>225</ele>
        <time>2013-07-12T13:27:57Z</time>
      </trkpt>
      <trkpt lat="47.15151" lon="5.84983">
        <ele>225</ele>
        <time>2013-07-12T13:27:59Z</time>
      </trkpt>
      <trkpt lat="47.15135" lon="5.84988">
        <ele>225</ele>
        <time>2013-07-12T13:28:01Z</time>
      </trkpt>
      <trkpt lat="47.15119" lon="5.84992">
        <ele>225</ele>
        <time>2013-07-12T13:28:03Z</time>
      </trkpt>
      <trkpt lat="47.15103" lon="5.84992">
        <ele>225</ele>
        <time>2013-07-12T13:28:05Z</time>
      </trkpt>
      <trkpt lat="47.15087" lon="5.84988">
        <ele>225</ele>
        <time>2013-07-12T13:28:07Z</time>
      </trkpt>
      <trkpt lat="47.15072" lon="5.84984">
        <ele>225</ele>
        <time>2013-07-12T13:28:09Z</time>
      </trkpt>
      <trkpt lat="47.15057" lon="5.84979">
        <ele>225</ele>
        <time>2013-07-12T13:28:11Z</time>
      </trkpt>
      <trkpt lat="47.15041" lon="5.84975">
        <ele>225</ele>
        <time>2013-07-12T13:28:13Z</time>
      </trkpt>
      <trkpt lat="47.15027" lon="5.84971">
        <ele>225</ele>
        <time>2013-07-12T13:28:15Z</time>
      </trkpt>
      <trkpt lat="47.15011" lon="5.84966">
        <ele>225</ele>
        <time>2013-07-12T13:28:17Z</time>
      </trkpt>
      <trkpt lat="47.14997" lon="5.84961">
        <ele>225</ele>
        <time>2013-07-12T13:28:19Z</time>
      </trkpt>
      <trkpt lat="47.14981" lon="5.84954">
        <ele>225</ele>
        <time>2013-07-12T13:28:21Z</time>
      </trkpt>
      <trkpt lat="47.14967" lon="5.84946">
        <ele>225</ele>
        <time>2013-07-12T13:28:23Z</time>
      </trkpt>
      <trkpt lat="47.14952" lon="5.84935">
        <ele>225</ele>
        <time>2013-07-12T13:28:25Z</time>
      </trkpt>
      <trkpt lat="47.14938" lon="5.84926">
        <ele>225</ele>
        <time>2013-07-12T13:28:27Z</time>
      </trkpt>
      <trkpt lat="47.14926" lon="5.84915">
        <ele>225</ele>
        <time>2013-07-12T13:28:29Z</time>
      </trkpt>
      <trkpt lat="47.14913" lon="5.84905">
        <ele>225</ele>
        <time>2013-07-12T13:28:31Z</time>
      </trkpt>
      <trkpt lat="47.149" lon="5.84897">
        <ele>225</ele>
        <time>2013-07-12T13:28:33Z</time>
      </trkpt>
      <trkpt lat="47.14887" lon="5.84888">
        <ele>225</ele>
        <time>2013-07-12T13:28:35Z</time>
      </trkpt>
      <trkpt lat="47.14873" lon="5.84878">
        <ele>225</ele>
        <time>2013-07-12T13:28:37Z</time>
      </trkpt>
      <trkpt lat="47.14859" lon="5.84868">
        <ele>225</ele>
        <time>2013-07-12T13:28:39Z</time>
      </trkpt>
      <trkpt lat="47.14845" lon="5.84859">
        <ele>225</ele>
        <time>2013-07-12T13:28:41Z</time>
      </trkpt>
      <trkpt lat="47.14831" lon="5.84849">
        <ele>225</ele>
        <time>2013-07-12T13:28:43Z</time>
      </trkpt>
      <trkpt lat="47.14817" lon="5.84841">
        <ele>225</ele>
        <time>2013-07-12T13:28:45Z</time>
      </trkpt>
      <trkpt lat="47.14802" lon="5.84833">
        <ele>225</ele>
        <time>2013-07-12T13:28:47Z</time>
      </trkpt>
      <trkpt lat="47.14788" lon="5.84828">
        <ele>225</ele>
        <time>2013-07-12T13:28:49Z</time>
      </trkpt>
      <trkpt lat="47.14774" lon="5.84825">
        <ele>225</ele>
        <time>2013-07-12T13:28:51Z</time>
      </trkpt>
      <trkpt lat="47.1476" lon="5.84822">
        <ele>225</ele>
        <time>2013-07-12T13:28:53Z</time>
      </trkpt>
      <trkpt lat="47.14745" lon="5.84819">
        <ele>225</ele>
        <time>2013-07-12T13:28:55Z</time>
      </trkpt>
      <trkpt lat="47.14731" lon="5.84815">
        <ele>225</ele>
        <time>2013-07-12T13:28:57Z</time>
      </trkpt>
      <trkpt lat="47.14716" lon="5.84815">
        <ele>225</ele>
        <time>2013-07-12T13:28:59Z</time>
      </trkpt>
      <trkpt lat="47.14699" lon="5.84814">
        <ele>225</ele>
        <time>2013-07-12T13:29:01Z</time>
      </trkpt>
      <trkpt lat="47.14682" lon="5.8481">
        <ele>225</ele>
        <time>2013-07-12T13:29:03Z</time>
      </trkpt>
      <trkpt lat="47.14668" lon="5.84801">
        <ele>225</ele>
        <time>2013-07-12T13:29:05Z</time>
      </trkpt>
      <trkpt lat="47.14655" lon="5.84786">
        <ele>225</ele>
        <time>2013-07-12T13:29:07Z</time>
      </trkpt>
      <trkpt lat="47.14644" lon="5.8477">
        <ele>225</ele>
        <time>2013-07-12T13:29:09Z</time>
      </trkpt>
      <trkpt lat="47.14633" lon="5.84753">
        <ele>225</ele>
        <time>2013-07-12T13:29:11Z</time>
      </trkpt>
      <trkpt lat="47.14623" lon="5.84735">
        <ele>225</ele>
        <time>2013-07-12T13:29:13Z</time>
      </trkpt>
      <trkpt lat="47.14614" lon="5.84718">
        <ele>225</ele>
        <time>2013-07-12T13:29:15Z</time>
      </trkpt>
      <trkpt lat="47.14604" lon="5.84699">
        <ele>225</ele>
        <time>2013-07-12T13:29:17Z</time>
      </trkpt>
      <trkpt lat="47.14596" lon="5.84681">
        <ele>225</ele>
        <time>2013-07-12T13:29:19Z</time>
      </trkpt>
      <trkpt lat="47.14589" lon="5.84664">
        <ele>225</ele>
        <time>2013-07-12T13:29:21Z</time>
      </trkpt>
      <trkpt lat="47.14581" lon="5.84646">
        <ele>225</ele>
        <time>2013-07-12T13:29:23Z</time>
      </trkpt>
      <trkpt lat="47.14573" lon="5.84627">
        <ele>225</ele>
        <time>2013-07-12T13:29:25Z</time>
      </trkpt>
      <trkpt lat="47.14565" lon="5.84608">
        <ele>225</ele>
        <time>2013-07-12T13:29:27Z</time>
      </trkpt>
      <trkpt lat="47.14554" lon="5.84592">
        <ele>225</ele>
        <time>2013-07-12T13:29:29Z</time>
      </trkpt>
      <trkpt lat="47.14545" lon="5.84572">
        <ele>225</ele>
        <time>2013-07-12T13:29:31Z</time>
      </trkpt>
      <trkpt lat="47.14536" lon="5.84553">
        <ele>225</ele>
        <time>2013-07-12T13:29:33Z</time>
      </trkpt>
      <trkpt lat="47.14527" lon="5.84535">
        <ele>231</ele>
        <time>2013-07-12T13:29:35Z</time>
      </trkpt>
      <trkpt lat="47.14519" lon="5.84517">
        <ele>231</ele>
        <time>2013-07-12T13:29:37Z</time>
      </trkpt>
      <trkpt lat="47.14511" lon="5.84501">
        <ele>231</ele>
        <time>2013-07-12T13:29:39Z</time>
      </trkpt>
      <trkpt lat="47.14501" lon="5.84483">
        <ele>231</ele>
        <time>2013-07-12T13:29:41Z</time>
      </trkpt>
      <trkpt lat="47.14492" lon="5.84469">
        <ele>231</ele>
        <time>2013-07-12T13:29:43Z</time>
      </trkpt>
      <trkpt lat="47.1448" lon="5.84456">
        <ele>231</ele>
        <time>2013-07-12T13:29:45Z</time>
      </trkpt>
      <trkpt lat="47.14468" lon="5.84443">
        <ele>231</ele>
        <time>2013-07-12T13:29:47Z</time>
      </trkpt>
      <trkpt lat="47.14457" lon="5.8443">
        <ele>231</ele>
        <time>2013-07-12T13:29:49Z</time>
      </trkpt>
      <trkpt lat="47.14446" lon="5.84415">
        <ele>231</ele>
        <time>2013-07-12T13:29:51Z</time>
      </trkpt>
      <trkpt lat="47.14435" lon="5.84403">
        <ele>236</ele>
        <time>2013-07-12T13:29:53Z</time>
      </trkpt>
      <trkpt lat="47.14424" lon="5.84388">
        <ele>236</ele>
        <time>2013-07-12T13:29:55Z</time>
      </trkpt>
      <trkpt lat="47.14414" lon="5.84372">
        <ele>236</ele>
        <time>2013-07-12T13:29:57Z</time>
      </trkpt>
      <trkpt lat="47.14405" lon="5.84356">
        <ele>236</ele>
        <time>2013-07-12T13:29:59Z</time>
      </trkpt>
      <trkpt lat="47.14394" lon="5.84345">
        <ele>243</ele>
        <time>2013-07-12T13:30:01Z</time>
      </trkpt>
      <trkpt lat="47.14385" lon="5.8433">
        <ele>243</ele>
        <time>2013-07-12T13:30:03Z</time>
      </trkpt>
      <trkpt lat="47.14376" lon="5.84315">
        <ele>243</ele>
        <time>2013-07-12T13:30:05Z</time>
      </trkpt>
      <trkpt lat="47.14368" lon="5.84298">
        <ele>243</ele>
        <time>2013-07-12T13:30:07Z</time>
      </trkpt>
      <trkpt lat="47.14359" lon="5.8428">
        <ele>243</ele>
        <time>2013-07-12T13:30:09Z</time>
      </trkpt>
      <trkpt lat="47.14348" lon="5.84264">
        <ele>243</ele>
        <time>2013-07-12T13:30:11Z</time>
      </trkpt>
      <trkpt lat="47.14337" lon="5.84245">
        <ele>236</ele>
        <time>2013-07-12T13:30:13Z</time>
      </trkpt>
      <trkpt lat="47.14324" lon="5.84228">
        <ele>236</ele>
        <time>2013-07-12T13:30:15Z</time>
      </trkpt>
      <trkpt lat="47.14319" lon="5.84218">
        <ele>236</ele>
        <time>2013-07-12T13:30:16Z</time>
      </trkpt>
      <trkpt lat="47.14309" lon="5.84197">
        <ele>227</ele>
        <time>2013-07-12T13:30:18Z</time>
      </trkpt>
      <trkpt lat="47.14302" lon="5.84182">
        <ele>227</ele>
        <time>2013-07-12T13:30:20Z</time>
      </trkpt>
      <trkpt lat="47.14294" lon="5.84168">
        <ele>227</ele>
        <time>2013-07-12T13:30:22Z</time>
      </trkpt>
      <trkpt lat="47.14287" lon="5.84154">
        <ele>227</ele>
        <time>2013-07-12T13:30:24Z</time>
      </trkpt>
      <trkpt lat="47.14278" lon="5.84139">
        <ele>222</ele>
        <time>2013-07-12T13:30:26Z</time>
      </trkpt>
      <trkpt lat="47.14272" lon="5.84124">
        <ele>222</ele>
        <time>2013-07-12T13:30:28Z</time>
      </trkpt>
      <trkpt lat="47.14266" lon="5.84111">
        <ele>222</ele>
        <time>2013-07-12T13:30:30Z</time>
      </trkpt>
      <trkpt lat="47.14259" lon="5.84097">
        <ele>222</ele>
        <time>2013-07-12T13:30:32Z</time>
      </trkpt>
      <trkpt lat="47.14251" lon="5.84083">
        <ele>222</ele>
        <time>2013-07-12T13:30:34Z</time>
      </trkpt>
      <trkpt lat="47.14243" lon="5.84068">
        <ele>228</ele>
        <time>2013-07-12T13:30:36Z</time>
      </trkpt>
      <trkpt lat="47.14234" lon="5.84054">
        <ele>228</ele>
        <time>2013-07-12T13:30:38Z</time>
      </trkpt>
      <trkpt lat="47.14224" lon="5.84039">
        <ele>228</ele>
        <time>2013-07-12T13:30:40Z</time>
      </trkpt>
      <trkpt lat="47.14213" lon="5.84022">
        <ele>234</ele>
        <time>2013-07-12T13:30:42Z</time>
      </trkpt>
      <trkpt lat="47.14202" lon="5.84005">
        <ele>234</ele>
        <time>2013-07-12T13:30:44Z</time>
      </trkpt>
      <trkpt lat="47.14192" lon="5.83985">
        <ele>234</ele>
        <time>2013-07-12T13:30:46Z</time>
      </trkpt>
      <trkpt lat="47.14179" lon="5.8397">
        <ele>234</ele>
        <time>2013-07-12T13:30:48Z</time>
      </trkpt>
      <trkpt lat="47.14167" lon="5.83954">
        <ele>234</ele>
        <time>2013-07-12T13:30:50Z</time>
      </trkpt>
      <trkpt lat="47.14156" lon="5.83939">
        <ele>234</ele>
        <time>2013-07-12T13:30:52Z</time>
      </trkpt>
      <trkpt lat="47.14145" lon="5.83927">
        <ele>234</ele>
        <time>2013-07-12T13:30:54Z</time>
      </trkpt>
      <trkpt lat="47.14135" lon="5.83916">
        <ele>234</ele>
        <time>2013-07-12T13:30:56Z</time>
      </trkpt>
      <trkpt lat="47.14123" lon="5.839">
        <ele>234</ele>
        <time>2013-07-12T13:30:58Z</time>
      </trkpt>
      <trkpt lat="47.1411" lon="5.83886">
        <ele>234</ele>
        <time>2013-07-12T13:31:00Z</time>
      </trkpt>
      <trkpt lat="47.14098" lon="5.83874">
        <ele>234</ele>
        <time>2013-07-12T13:31:02Z</time>
      </trkpt>
      <trkpt lat="47.14083" lon="5.83865">
        <ele>234</ele>
        <time>2013-07-12T13:31:04Z</time>
      </trkpt>
      <trkpt lat="47.14068" lon="5.83854">
        <ele>234</ele>
        <time>2013-07-12T13:31:06Z</time>
      </trkpt>
      <trkpt lat="47.14055" lon="5.83843">
        <ele>234</ele>
        <time>2013-07-12T13:31:08Z</time>
      </trkpt>
      <trkpt lat="47.14042" lon="5.83834">
        <ele>234</ele>
        <time>2013-07-12T13:31:10Z</time>
      </trkpt>
      <trkpt lat="47.1403" lon="5.83824">
        <ele>234</ele>
        <time>2013-07-12T13:31:12Z</time>
      </trkpt>
      <trkpt lat="47.14017" lon="5.83814">
        <ele>234</ele>
        <time>2013-07-12T13:31:14Z</time>
      </trkpt>
      <trkpt lat="47.14003" lon="5.83807">
        <ele>234</ele>
        <time>2013-07-12T13:31:16Z</time>
      </trkpt>
      <trkpt lat="47.13989" lon="5.83797">
        <ele>234</ele>
        <time>2013-07-12T13:31:18Z</time>
      </trkpt>
      <trkpt lat="47.13977" lon="5.83785">
        <ele>234</ele>
        <time>2013-07-12T13:31:20Z</time>
      </trkpt>
      <trkpt lat="47.13965" lon="5.83775">
        <ele>234</ele>
        <time>2013-07-12T13:31:22Z</time>
      </trkpt>
      <trkpt lat="47.13953" lon="5.83764">
        <ele>234</ele>
        <time>2013-07-12T13:31:24Z</time>
      </trkpt>
      <trkpt lat="47.13941" lon="5.83756">
        <ele>234</ele>
        <time>2013-07-12T13:31:26Z</time>
      </trkpt>
      <trkpt lat="47.13928" lon="5.83747">
        <ele>234</ele>
        <time>2013-07-12T13:31:28Z</time>
      </trkpt>
      <trkpt lat="47.13917" lon="5.83736">
        <ele>234</ele>
        <time>2013-07-12T13:31:30Z</time>
      </trkpt>
      <trkpt lat="47.13904" lon="5.83728">
        <ele>234</ele>
        <time>2013-07-12T13:31:32Z</time>
      </trkpt>
      <trkpt lat="47.13892" lon="5.8372">
        <ele>234</ele>
        <time>2013-07-12T13:31:34Z</time>
      </trkpt>
      <trkpt lat="47.13879" lon="5.83713">
        <ele>228</ele>
        <time>2013-07-12T13:31:36Z</time>
      </trkpt>
      <trkpt lat="47.13867" lon="5.83706">
        <ele>228</ele>
        <time>2013-07-12T13:31:38Z</time>
      </trkpt>
      <trkpt lat="47.13855" lon="5.83703">
        <ele>228</ele>
        <time>2013-07-12T13:31:40Z</time>
      </trkpt>
      <trkpt lat="47.13844" lon="5.83701">
        <ele>228</ele>
        <time>2013-07-12T13:31:42Z</time>
      </trkpt>
      <trkpt lat="47.13835" lon="5.83696">
        <ele>228</ele>
        <time>2013-07-12T13:31:44Z</time>
      </trkpt>
      <trkpt lat="47.13827" lon="5.83688">
        <ele>228</ele>
        <time>2013-07-12T13:31:46Z</time>
      </trkpt>
      <trkpt lat="47.13817" lon="5.83681">
        <ele>228</ele>
        <time>2013-07-12T13:31:48Z</time>
      </trkpt>
      <trkpt lat="47.13808" lon="5.83675">
        <ele>228</ele>
        <time>2013-07-12T13:31:50Z</time>
      </trkpt>
      <trkpt lat="47.13796" lon="5.83669">
        <ele>228</ele>
        <time>2013-07-12T13:31:52Z</time>
      </trkpt>
      <trkpt lat="47.13783" lon="5.83664">
        <ele>228</ele>
        <time>2013-07-12T13:31:54Z</time>
      </trkpt>
      <trkpt lat="47.1377" lon="5.8366">
        <ele>228</ele>
        <time>2013-07-12T13:31:56Z</time>
      </trkpt>
      <trkpt lat="47.13759" lon="5.83653">
        <ele>228</ele>
        <time>2013-07-12T13:31:58Z</time>
      </trkpt>
      <trkpt lat="47.13749" lon="5.83648">
        <ele>228</ele>
        <time>2013-07-12T13:32:00Z</time>
      </trkpt>
      <trkpt lat="47.13739" lon="5.83644">
        <ele>228</ele>
        <time>2013-07-12T13:32:02Z</time>
      </trkpt>
      <trkpt lat="47.13728" lon="5.83641">
        <ele>228</ele>
        <time>2013-07-12T13:32:04Z</time>
      </trkpt>
      <trkpt lat="47.13716" lon="5.83639">
        <ele>228</ele>
        <time>2013-07-12T13:32:06Z</time>
      </trkpt>
      <trkpt lat="47.13702" lon="5.83637">
        <ele>228</ele>
        <time>2013-07-12T13:32:08Z</time>
      </trkpt>
      <trkpt lat="47.13689" lon="5.83633">
        <ele>228</ele>
        <time>2013-07-12T13:32:10Z</time>
      </trkpt>
      <trkpt lat="47.13675" lon="5.83627">
        <ele>228</ele>
        <time>2013-07-12T13:32:12Z</time>
      </trkpt>
      <trkpt lat="47.13662" lon="5.83622">
        <ele>228</ele>
        <time>2013-07-12T13:32:14Z</time>
      </trkpt>
      <trkpt lat="47.13648" lon="5.83618">
        <ele>228</ele>
        <time>2013-07-12T13:32:16Z</time>
      </trkpt>
      <trkpt lat="47.13635" lon="5.83614">
        <ele>228</ele>
        <time>2013-07-12T13:32:18Z</time>
      </trkpt>
      <trkpt lat="47.13621" lon="5.83609">
        <ele>228</ele>
        <time>2013-07-12T13:32:20Z</time>
      </trkpt>
      <trkpt lat="47.13607" lon="5.83606">
        <ele>228</ele>
        <time>2013-07-12T13:32:22Z</time>
      </trkpt>
      <trkpt lat="47.13592" lon="5.83603">
        <ele>228</ele>
        <time>2013-07-12T13:32:24Z</time>
      </trkpt>
      <trkpt lat="47.13578" lon="5.83603">
        <ele>228</ele>
        <time>2013-07-12T13:32:26Z</time>
      </trkpt>
      <trkpt lat="47.13564" lon="5.83603">
        <ele>228</ele>
        <time>2013-07-12T13:32:28Z</time>
      </trkpt>
      <trkpt lat="47.13551" lon="5.83603">
        <ele>228</ele>
        <time>2013-07-12T13:32:30Z</time>
      </trkpt>
      <trkpt lat="47.13538" lon="5.83604">
        <ele>228</ele>
        <time>2013-07-12T13:32:32Z</time>
      </trkpt>
      <trkpt lat="47.13524" lon="5.83605">
        <ele>228</ele>
        <time>2013-07-12T13:32:34Z</time>
      </trkpt>
      <trkpt lat="47.13512" lon="5.83607">
        <ele>228</ele>
        <time>2013-07-12T13:32:36Z</time>
      </trkpt>
      <trkpt lat="47.13499" lon="5.83611">
        <ele>228</ele>
        <time>2013-07-12T13:32:38Z</time>
      </trkpt>
      <trkpt lat="47.13486" lon="5.83615">
        <ele>228</ele>
        <time>2013-07-12T13:32:40Z</time>
      </trkpt>
      <trkpt lat="47.13471" lon="5.83621">
        <ele>228</ele>
        <time>2013-07-12T13:32:42Z</time>
      </trkpt>
      <trkpt lat="47.13458" lon="5.83625">
        <ele>228</ele>
        <time>2013-07-12T13:32:44Z</time>
      </trkpt>
      <trkpt lat="47.13444" lon="5.83627">
        <ele>228</ele>
        <time>2013-07-12T13:32:46Z</time>
      </trkpt>
      <trkpt lat="47.13429" lon="5.83629">
        <ele>228</ele>
        <time>2013-07-12T13:32:48Z</time>
      </trkpt>
      <trkpt lat="47.13415" lon="5.83633">
        <ele>228</ele>
        <time>2013-07-12T13:32:50Z</time>
      </trkpt>
      <trkpt lat="47.13401" lon="5.83635">
        <ele>228</ele>
        <time>2013-07-12T13:32:52Z</time>
      </trkpt>
      <trkpt lat="47.13387" lon="5.83638">
        <ele>228</ele>
        <time>2013-07-12T13:32:54Z</time>
      </trkpt>
      <trkpt lat="47.13374" lon="5.83639">
        <ele>228</ele>
        <time>2013-07-12T13:32:56Z</time>
      </trkpt>
      <trkpt lat="47.13361" lon="5.8364">
        <ele>228</ele>
        <time>2013-07-12T13:32:58Z</time>
      </trkpt>
      <trkpt lat="47.13347" lon="5.83643">
        <ele>228</ele>
        <time>2013-07-12T13:33:00Z</time>
      </trkpt>
      <trkpt lat="47.13334" lon="5.83645">
        <ele>228</ele>
        <time>2013-07-12T13:33:02Z</time>
      </trkpt>
      <trkpt lat="47.1332" lon="5.83646">
        <ele>228</ele>
        <time>2013-07-12T13:33:04Z</time>
      </trkpt>
      <trkpt lat="47.13307" lon="5.83646">
        <ele>228</ele>
        <time>2013-07-12T13:33:06Z</time>
      </trkpt>
      <trkpt lat="47.13294" lon="5.83643">
        <ele>228</ele>
        <time>2013-07-12T13:33:08Z</time>
      </trkpt>
      <trkpt lat="47.13283" lon="5.83636">
        <ele>228</ele>
        <time>2013-07-12T13:33:10Z</time>
      </trkpt>
      <trkpt lat="47.13274" lon="5.83627">
        <ele>228</ele>
        <time>2013-07-12T13:33:12Z</time>
      </trkpt>
      <trkpt lat="47.13265" lon="5.83617">
        <ele>228</ele>
        <time>2013-07-12T13:33:14Z</time>
      </trkpt>
      <trkpt lat="47.13259" lon="5.83605">
        <ele>228</ele>
        <time>2013-07-12T13:33:16Z</time>
      </trkpt>
      <trkpt lat="47.13252" lon="5.83594">
        <ele>228</ele>
        <time>2013-07-12T13:33:18Z</time>
      </trkpt>
      <trkpt lat="47.13244" lon="5.83582">
        <ele>228</ele>
        <time>2013-07-12T13:33:21Z</time>
      </trkpt>
      <trkpt lat="47.13236" lon="5.83573">
        <ele>228</ele>
        <time>2013-07-12T13:33:24Z</time>
      </trkpt>
      <trkpt lat="47.13225" lon="5.83565">
        <ele>228</ele>
        <time>2013-07-12T13:33:27Z</time>
      </trkpt>
      <trkpt lat="47.13215" lon="5.83574">
        <ele>236</ele>
        <time>2013-07-12T13:33:30Z</time>
      </trkpt>
      <trkpt lat="47.13209" lon="5.83588">
        <ele>236</ele>
        <time>2013-07-12T13:33:32Z</time>
      </trkpt>
      <trkpt lat="47.13206" lon="5.83606">
        <ele>236</ele>
        <time>2013-07-12T13:33:34Z</time>
      </trkpt>
      <trkpt lat="47.13205" lon="5.83626">
        <ele>236</ele>
        <time>2013-07-12T13:33:36Z</time>
      </trkpt>
      <trkpt lat="47.13205" lon="5.83645">
        <ele>236</ele>
        <time>2013-07-12T13:33:38Z</time>
      </trkpt>
      <trkpt lat="47.13206" lon="5.83664">
        <ele>236</ele>
        <time>2013-07-12T13:33:40Z</time>
      </trkpt>
      <trkpt lat="47.13206" lon="5.83682">
        <ele>230</ele>
        <time>2013-07-12T13:33:42Z</time>
      </trkpt>
      <trkpt lat="47.13205" lon="5.83699">
        <ele>230</ele>
        <time>2013-07-12T13:33:44Z</time>
      </trkpt>
      <trkpt lat="47.13204" lon="5.83716">
        <ele>230</ele>
        <time>2013-07-12T13:33:46Z</time>
      </trkpt>
      <trkpt lat="47.13202" lon="5.83734">
        <ele>230</ele>
        <time>2013-07-12T13:33:48Z</time>
      </trkpt>
      <trkpt lat="47.13201" lon="5.83751">
        <ele>230</ele>
        <time>2013-07-12T13:33:50Z</time>
      </trkpt>
      <trkpt lat="47.13199" lon="5.83768">
        <ele>230</ele>
        <time>2013-07-12T13:33:52Z</time>
      </trkpt>
      <trkpt lat="47.13196" lon="5.83785">
        <ele>230</ele>
        <time>2013-07-12T13:33:54Z</time>
      </trkpt>
      <trkpt lat="47.13195" lon="5.83802">
        <ele>230</ele>
        <time>2013-07-12T13:33:56Z</time>
      </trkpt>
      <trkpt lat="47.13193" lon="5.8382">
        <ele>230</ele>
        <time>2013-07-12T13:33:58Z</time>
      </trkpt>
      <trkpt lat="47.13192" lon="5.83839">
        <ele>225</ele>
        <time>2013-07-12T13:34:00Z</time>
      </trkpt>
      <trkpt lat="47.1319" lon="5.83856">
        <ele>225</ele>
        <time>2013-07-12T13:34:02Z</time>
      </trkpt>
      <trkpt lat="47.13189" lon="5.83876">
        <ele>225</ele>
        <time>2013-07-12T13:34:04Z</time>
      </trkpt>
      <trkpt lat="47.13187" lon="5.83895">
        <ele>225</ele>
        <time>2013-07-12T13:34:06Z</time>
      </trkpt>
      <trkpt lat="47.13185" lon="5.83914">
        <ele>225</ele>
        <time>2013-07-12T13:34:08Z</time>
      </trkpt>
      <trkpt lat="47.13183" lon="5.83933">
        <ele>225</ele>
        <time>2013-07-12T13:34:10Z</time>
      </trkpt>
      <trkpt lat="47.13181" lon="5.83953">
        <ele>225</ele>
        <time>2013-07-12T13:34:12Z</time>
      </trkpt>
      <trkpt lat="47.13179" lon="5.83971">
        <ele>225</ele>
        <time>2013-07-12T13:34:14Z</time>
      </trkpt>
      <trkpt lat="47.13177" lon="5.83991">
        <ele>225</ele>
        <time>2013-07-12T13:34:16Z</time>
      </trkpt>
      <trkpt lat="47.13175" lon="5.84011">
        <ele>225</ele>
        <time>2013-07-12T13:34:18Z</time>
      </trkpt>
      <trkpt lat="47.13173" lon="5.84032">
        <ele>225</ele>
        <time>2013-07-12T13:34:20Z</time>
      </trkpt>
      <trkpt lat="47.13171" lon="5.84051">
        <ele>225</ele>
        <time>2013-07-12T13:34:22Z</time>
      </trkpt>
      <trkpt lat="47.13168" lon="5.8407">
        <ele>225</ele>
        <time>2013-07-12T13:34:24Z</time>
      </trkpt>
      <trkpt lat="47.13165" lon="5.84088">
        <ele>225</ele>
        <time>2013-07-12T13:34:26Z</time>
      </trkpt>
      <trkpt lat="47.13162" lon="5.84105">
        <ele>225</ele>
        <time>2013-07-12T13:34:28Z</time>
      </trkpt>
      <trkpt lat="47.13158" lon="5.84121">
        <ele>225</ele>
        <time>2013-07-12T13:34:30Z</time>
      </trkpt>
      <trkpt lat="47.13153" lon="5.84139">
        <ele>225</ele>
        <time>2013-07-12T13:34:32Z</time>
      </trkpt>
      <trkpt lat="47.13149" lon="5.84155">
        <ele>225</ele>
        <time>2013-07-12T13:34:34Z</time>
      </trkpt>
      <trkpt lat="47.13144" lon="5.84172">
        <ele>225</ele>
        <time>2013-07-12T13:34:36Z</time>
      </trkpt>
      <trkpt lat="47.1314" lon="5.8419">
        <ele>225</ele>
        <time>2013-07-12T13:34:38Z</time>
      </trkpt>
      <trkpt lat="47.13136" lon="5.84207">
        <ele>225</ele>
        <time>2013-07-12T13:34:40Z</time>
      </trkpt>
      <trkpt lat="47.13132" lon="5.84226">
        <ele>225</ele>
        <time>2013-07-12T13:34:42Z</time>
      </trkpt>
      <trkpt lat="47.13128" lon="5.84244">
        <ele>225</ele>
        <time>2013-07-12T13:34:44Z</time>
      </trkpt>
      <trkpt lat="47.13124" lon="5.84263">
        <ele>225</ele>
        <time>2013-07-12T13:34:46Z</time>
      </trkpt>
      <trkpt lat="47.1312" lon="5.84281">
        <ele>225</ele>
        <time>2013-07-12T13:34:48Z</time>
      </trkpt>
      <trkpt lat="47.13117" lon="5.84299">
        <ele>225</ele>
        <time>2013-07-12T13:34:50Z</time>
      </trkpt>
      <trkpt lat="47.13114" lon="5.84316">
        <ele>225</ele>
        <time>2013-07-12T13:34:52Z</time>
      </trkpt>
      <trkpt lat="47.13111" lon="5.84334">
        <ele>225</ele>
        <time>2013-07-12T13:34:54Z</time>
      </trkpt>
      <trkpt lat="47.13106" lon="5.84351">
        <ele>225</ele>
        <time>2013-07-12T13:34:56Z</time>
      </trkpt>
      <trkpt lat="47.13101" lon="5.84369">
        <ele>225</ele>
        <time>2013-07-12T13:34:58Z</time>
      </trkpt>
      <trkpt lat="47.13098" lon="5.84386">
        <ele>225</ele>
        <time>2013-07-12T13:35:00Z</time>
      </trkpt>
      <trkpt lat="47.13097" lon="5.84406">
        <ele>225</ele>
        <time>2013-07-12T13:35:02Z</time>
      </trkpt>
      <trkpt lat="47.13096" lon="5.84425">
        <ele>225</ele>
        <time>2013-07-12T13:35:04Z</time>
      </trkpt>
      <trkpt lat="47.13092" lon="5.84443">
        <ele>225</ele>
        <time>2013-07-12T13:35:06Z</time>
      </trkpt>
      <trkpt lat="47.13092" lon="5.84461">
        <ele>225</ele>
        <time>2013-07-12T13:35:08Z</time>
      </trkpt>
      <trkpt lat="47.13092" lon="5.8448">
        <ele>225</ele>
        <time>2013-07-12T13:35:10Z</time>
      </trkpt>
      <trkpt lat="47.13092" lon="5.84499">
        <ele>225</ele>
        <time>2013-07-12T13:35:12Z</time>
      </trkpt>
      <trkpt lat="47.13092" lon="5.84517">
        <ele>225</ele>
        <time>2013-07-12T13:35:14Z</time>
      </trkpt>
      <trkpt lat="47.1309" lon="5.84535">
        <ele>225</ele>
        <time>2013-07-12T13:35:16Z</time>
      </trkpt>
      <trkpt lat="47.1309" lon="5.84552">
        <ele>225</ele>
        <time>2013-07-12T13:35:18Z</time>
      </trkpt>
      <trkpt lat="47.13089" lon="5.84568">
        <ele>225</ele>
        <time>2013-07-12T13:35:20Z</time>
      </trkpt>
      <trkpt lat="47.13088" lon="5.84584">
        <ele>225</ele>
        <time>2013-07-12T13:35:22Z</time>
      </trkpt>
      <trkpt lat="47.13087" lon="5.846">
        <ele>225</ele>
        <time>2013-07-12T13:35:24Z</time>
      </trkpt>
      <trkpt lat="47.13087" lon="5.84618">
        <ele>225</ele>
        <time>2013-07-12T13:35:26Z</time>
      </trkpt>
      <trkpt lat="47.13086" lon="5.84635">
        <ele>225</ele>
        <time>2013-07-12T13:35:28Z</time>
      </trkpt>
      <trkpt lat="47.13084" lon="5.84652">
        <ele>225</ele>
        <time>2013-07-12T13:35:30Z</time>
      </trkpt>
      <trkpt lat="47.13081" lon="5.8467">
        <ele>225</ele>
        <time>2013-07-12T13:35:32Z</time>
      </trkpt>
      <trkpt lat="47.13079" lon="5.84687">
        <ele>225</ele>
        <time>2013-07-12T13:35:34Z</time>
      </trkpt>
      <trkpt lat="47.13077" lon="5.84704">
        <ele>225</ele>
        <time>2013-07-12T13:35:36Z</time>
      </trkpt>
      <trkpt lat="47.13073" lon="5.84722">
        <ele>225</ele>
        <time>2013-07-12T13:35:38Z</time>
      </trkpt>
      <trkpt lat="47.13068" lon="5.8474">
        <ele>225</ele>
        <time>2013-07-12T13:35:40Z</time>
      </trkpt>
      <trkpt lat="47.13061" lon="5.84754">
        <ele>225</ele>
        <time>2013-07-12T13:35:42Z</time>
      </trkpt>
      <trkpt lat="47.13051" lon="5.84762">
        <ele>225</ele>
        <time>2013-07-12T13:35:44Z</time>
      </trkpt>
      <trkpt lat="47.1304" lon="5.84766">
        <ele>225</ele>
        <time>2013-07-12T13:35:46Z</time>
      </trkpt>
      <trkpt lat="47.13029" lon="5.8477">
        <ele>225</ele>
        <time>2013-07-12T13:35:48Z</time>
      </trkpt>
      <trkpt lat="47.13019" lon="5.84774">
        <ele>225</ele>
        <time>2013-07-12T13:35:50Z</time>
      </trkpt>
      <trkpt lat="47.13008" lon="5.84777">
        <ele>225</ele>
        <time>2013-07-12T13:35:52Z</time>
      </trkpt>
      <trkpt lat="47.12998" lon="5.84781">
        <ele>225</ele>
        <time>2013-07-12T13:35:54Z</time>
      </trkpt>
      <trkpt lat="47.12988" lon="5.84784">
        <ele>225</ele>
        <time>2013-07-12T13:35:56Z</time>
      </trkpt>
      <trkpt lat="47.12978" lon="5.84789">
        <ele>225</ele>
        <time>2013-07-12T13:35:58Z</time>
      </trkpt>
      <trkpt lat="47.12965" lon="5.84796">
        <ele>225</ele>
        <time>2013-07-12T13:36:01Z</time>
      </trkpt>
      <trkpt lat="47.12957" lon="5.84802">
        <ele>225</ele>
        <time>2013-07-12T13:36:03Z</time>
      </trkpt>
      <trkpt lat="47.12949" lon="5.8481">
        <ele>225</ele>
        <time>2013-07-12T13:36:05Z</time>
      </trkpt>
      <trkpt lat="47.1294" lon="5.84821">
        <ele>225</ele>
        <time>2013-07-12T13:36:08Z</time>
      </trkpt>
      <trkpt lat="47.12932" lon="5.84832">
        <ele>225</ele>
        <time>2013-07-12T13:36:12Z</time>
      </trkpt>
      <trkpt lat="47.12926" lon="5.84844">
        <ele>230</ele>
        <time>2013-07-12T13:36:17Z</time>
      </trkpt>
      <trkpt lat="47.12919" lon="5.84855">
        <ele>230</ele>
        <time>2013-07-12T13:36:21Z</time>
      </trkpt>
      <trkpt lat="47.12908" lon="5.84859">
        <ele>230</ele>
        <time>2013-07-12T13:36:25Z</time>
      </trkpt>
      <trkpt lat="47.12897" lon="5.84861">
        <ele>230</ele>
        <time>2013-07-12T13:36:29Z</time>
      </trkpt>
      <trkpt lat="47.12888" lon="5.84862">
        <ele>230</ele>
        <time>2013-07-12T13:36:32Z</time>
      </trkpt>
      <trkpt lat="47.12876" lon="5.84863">
        <ele>230</ele>
        <time>2013-07-12T13:36:35Z</time>
      </trkpt>
      <trkpt lat="47.12867" lon="5.84864">
        <ele>236</ele>
        <time>2013-07-12T13:36:38Z</time>
      </trkpt>
      <trkpt lat="47.12855" lon="5.84867">
        <ele>236</ele>
        <time>2013-07-12T13:36:41Z</time>
      </trkpt>
      <trkpt lat="47.12846" lon="5.84863">
        <ele>236</ele>
        <time>2013-07-12T13:36:44Z</time>
      </trkpt>
      <trkpt lat="47.12835" lon="5.84863">
        <ele>236</ele>
        <time>2013-07-12T13:36:46Z</time>
      </trkpt>
      <trkpt lat="47.12824" lon="5.84866">
        <ele>236</ele>
        <time>2013-07-12T13:36:48Z</time>
      </trkpt>
      <trkpt lat="47.12815" lon="5.84868">
        <ele>241</ele>
        <time>2013-07-12T13:36:50Z</time>
      </trkpt>
      <trkpt lat="47.12805" lon="5.84871">
        <ele>241</ele>
        <time>2013-07-12T13:36:52Z</time>
      </trkpt>
      <trkpt lat="47.12794" lon="5.84872">
        <ele>241</ele>
        <time>2013-07-12T13:36:55Z</time>
      </trkpt>
      <trkpt lat="47.12783" lon="5.84872">
        <ele>241</ele>
        <time>2013-07-12T13:36:58Z</time>
      </trkpt>
      <trkpt lat="47.1277" lon="5.84872">
        <ele>241</ele>
        <time>2013-07-12T13:37:01Z</time>
      </trkpt>
      <trkpt lat="47.12759" lon="5.84871">
        <ele>241</ele>
        <time>2013-07-12T13:37:04Z</time>
      </trkpt>
      <trkpt lat="47.1275" lon="5.84877">
        <ele>251</ele>
        <time>2013-07-12T13:37:07Z</time>
      </trkpt>
      <trkpt lat="47.12739" lon="5.84881">
        <ele>251</ele>
        <time>2013-07-12T13:37:10Z</time>
      </trkpt>
      <trkpt lat="47.12727" lon="5.84889">
        <ele>256</ele>
        <time>2013-07-12T13:37:13Z</time>
      </trkpt>
      <trkpt lat="47.12718" lon="5.84896">
        <ele>256</ele>
        <time>2013-07-12T13:37:15Z</time>
      </trkpt>
      <trkpt lat="47.12707" lon="5.84902">
        <ele>256</ele>
        <time>2013-07-12T13:37:18Z</time>
      </trkpt>
      <trkpt lat="47.12698" lon="5.84908">
        <ele>256</ele>
        <time>2013-07-12T13:37:20Z</time>
      </trkpt>
      <trkpt lat="47.12687" lon="5.84918">
        <ele>256</ele>
        <time>2013-07-12T13:37:23Z</time>
      </trkpt>
      <trkpt lat="47.1268" lon="5.84927">
        <ele>256</ele>
        <time>2013-07-12T13:37:25Z</time>
      </trkpt>
      <trkpt lat="47.12673" lon="5.84935">
        <ele>256</ele>
        <time>2013-07-12T13:37:27Z</time>
      </trkpt>
      <trkpt lat="47.12665" lon="5.84944">
        <ele>256</ele>
        <time>2013-07-12T13:37:29Z</time>
      </trkpt>
      <trkpt lat="47.12657" lon="5.84952">
        <ele>256</ele>
        <time>2013-07-12T13:37:31Z</time>
      </trkpt>
      <trkpt lat="47.12648" lon="5.84961">
        <ele>256</ele>
        <time>2013-07-12T13:37:33Z</time>
      </trkpt>
      <trkpt lat="47.12638" lon="5.84967">
        <ele>250</ele>
        <time>2013-07-12T13:37:35Z</time>
      </trkpt>
      <trkpt lat="47.12628" lon="5.84972">
        <ele>250</ele>
        <time>2013-07-12T13:37:37Z</time>
      </trkpt>
      <trkpt lat="47.12617" lon="5.84976">
        <ele>250</ele>
        <time>2013-07-12T13:37:39Z</time>
      </trkpt>
      <trkpt lat="47.12608" lon="5.84978">
        <ele>250</ele>
        <time>2013-07-12T13:37:41Z</time>
      </trkpt>
      <trkpt lat="47.12595" lon="5.8498">
        <ele>250</ele>
        <time>2013-07-12T13:37:44Z</time>
      </trkpt>
      <trkpt lat="47.12582" lon="5.84981">
        <ele>250</ele>
        <time>2013-07-12T13:37:47Z</time>
      </trkpt>
      <trkpt lat="47.12571" lon="5.84982">
        <ele>250</ele>
        <time>2013-07-12T13:37:50Z</time>
      </trkpt>
      <trkpt lat="47.1256" lon="5.84979">
        <ele>256</ele>
        <time>2013-07-12T13:37:54Z</time>
      </trkpt>
      <trkpt lat="47.12551" lon="5.84977">
        <ele>256</ele>
        <time>2013-07-12T13:37:57Z</time>
      </trkpt>
      <trkpt lat="47.12541" lon="5.84973">
        <ele>262</ele>
        <time>2013-07-12T13:38:00Z</time>
      </trkpt>
      <trkpt lat="47.12531" lon="5.84968">
        <ele>262</ele>
        <time>2013-07-12T13:38:03Z</time>
      </trkpt>
      <trkpt lat="47.1252" lon="5.84961">
        <ele>262</ele>
        <time>2013-07-12T13:38:06Z</time>
      </trkpt>
      <trkpt lat="47.12511" lon="5.84956">
        <ele>262</ele>
        <time>2013-07-12T13:38:09Z</time>
      </trkpt>
      <trkpt lat="47.12501" lon="5.84951">
        <ele>262</ele>
        <time>2013-07-12T13:38:12Z</time>
      </trkpt>
      <trkpt lat="47.12489" lon="5.84943">
        <ele>262</ele>
        <time>2013-07-12T13:38:15Z</time>
      </trkpt>
      <trkpt lat="47.12478" lon="5.84935">
        <ele>262</ele>
        <time>2013-07-12T13:38:18Z</time>
      </trkpt>
      <trkpt lat="47.12467" lon="5.84929">
        <ele>262</ele>
        <time>2013-07-12T13:38:21Z</time>
      </trkpt>
      <trkpt lat="47.12456" lon="5.84925">
        <ele>262</ele>
        <time>2013-07-12T13:38:24Z</time>
      </trkpt>
      <trkpt lat="47.12445" lon="5.84923">
        <ele>262</ele>
        <time>2013-07-12T13:38:27Z</time>
      </trkpt>
      <trkpt lat="47.12433" lon="5.84922">
        <ele>262</ele>
        <time>2013-07-12T13:38:30Z</time>
      </trkpt>
      <trkpt lat="47.12422" lon="5.84923">
        <ele>262</ele>
        <time>2013-07-12T13:38:33Z</time>
      </trkpt>
      <trkpt lat="47.1241" lon="5.84925">
        <ele>262</ele>
        <time>2013-07-12T13:38:36Z</time>
      </trkpt>
      <trkpt lat="47.12398" lon="5.84928">
        <ele>262</ele>
        <time>2013-07-12T13:38:39Z</time>
      </trkpt>
      <trkpt lat="47.12386" lon="5.84932">
        <ele>262</ele>
        <time>2013-07-12T13:38:42Z</time>
      </trkpt>
      <trkpt lat="47.12375" lon="5.84937">
        <ele>262</ele>
        <time>2013-07-12T13:38:45Z</time>
      </trkpt>
      <trkpt lat="47.12367" lon="5.84945">
        <ele>262</ele>
        <time>2013-07-12T13:38:48Z</time>
      </trkpt>
      <trkpt lat="47.12359" lon="5.84956">
        <ele>271</ele>
        <time>2013-07-12T13:38:52Z</time>
      </trkpt>
      <trkpt lat="47.12353" lon="5.84966">
        <ele>271</ele>
        <time>2013-07-12T13:38:55Z</time>
      </trkpt>
      <trkpt lat="47.12345" lon="5.84974">
        <ele>271</ele>
        <time>2013-07-12T13:38:58Z</time>
      </trkpt>
      <trkpt lat="47.12335" lon="5.84982">
        <ele>271</ele>
        <time>2013-07-12T13:39:01Z</time>
      </trkpt>
      <trkpt lat="47.12327" lon="5.84991">
        <ele>271</ele>
        <time>2013-07-12T13:39:04Z</time>
      </trkpt>
      <trkpt lat="47.12318" lon="5.85">
        <ele>271</ele>
        <time>2013-07-12T13:39:07Z</time>
      </trkpt>
      <trkpt lat="47.12309" lon="5.8501">
        <ele>271</ele>
        <time>2013-07-12T13:39:10Z</time>
      </trkpt>
      <trkpt lat="47.12301" lon="5.8502">
        <ele>271</ele>
        <time>2013-07-12T13:39:13Z</time>
      </trkpt>
      <trkpt lat="47.12293" lon="5.85029">
        <ele>271</ele>
        <time>2013-07-12T13:39:16Z</time>
      </trkpt>
      <trkpt lat="47.12287" lon="5.85039">
        <ele>271</ele>
        <time>2013-07-12T13:39:19Z</time>
      </trkpt>
      <trkpt lat="47.12279" lon="5.85048">
        <ele>271</ele>
        <time>2013-07-12T13:39:22Z</time>
      </trkpt>
      <trkpt lat="47.1227" lon="5.85058">
        <ele>271</ele>
        <time>2013-07-12T13:39:25Z</time>
      </trkpt>
      <trkpt lat="47.12263" lon="5.85068">
        <ele>271</ele>
        <time>2013-07-12T13:39:28Z</time>
      </trkpt>
      <trkpt lat="47.12255" lon="5.85077">
        <ele>271</ele>
        <time>2013-07-12T13:39:31Z</time>
      </trkpt>
      <trkpt lat="47.12247" lon="5.85088">
        <ele>271</ele>
        <time>2013-07-12T13:39:34Z</time>
      </trkpt>
      <trkpt lat="47.12238" lon="5.85097">
        <ele>271</ele>
        <time>2013-07-12T13:39:37Z</time>
      </trkpt>
      <trkpt lat="47.12229" lon="5.85109">
        <ele>271</ele>
        <time>2013-07-12T13:39:40Z</time>
      </trkpt>
      <trkpt lat="47.1222" lon="5.85121">
        <ele>271</ele>
        <time>2013-07-12T13:39:43Z</time>
      </trkpt>
      <trkpt lat="47.12214" lon="5.85131">
        <ele>271</ele>
        <time>2013-07-12T13:39:45Z</time>
      </trkpt>
      <trkpt lat="47.12206" lon="5.8514">
        <ele>271</ele>
        <time>2013-07-12T13:39:47Z</time>
      </trkpt>
      <trkpt lat="47.122" lon="5.85149">
        <ele>271</ele>
        <time>2013-07-12T13:39:49Z</time>
      </trkpt>
      <trkpt lat="47.12192" lon="5.85159">
        <ele>271</ele>
        <time>2013-07-12T13:39:51Z</time>
      </trkpt>
      <trkpt lat="47.12185" lon="5.85168">
        <ele>271</ele>
        <time>2013-07-12T13:39:53Z</time>
      </trkpt>
      <trkpt lat="47.12178" lon="5.85179">
        <ele>271</ele>
        <time>2013-07-12T13:39:55Z</time>
      </trkpt>
      <trkpt lat="47.12171" lon="5.85189">
        <ele>271</ele>
        <time>2013-07-12T13:39:57Z</time>
      </trkpt>
      <trkpt lat="47.12164" lon="5.85199">
        <ele>271</ele>
        <time>2013-07-12T13:39:59Z</time>
      </trkpt>
      <trkpt lat="47.12157" lon="5.85208">
        <ele>271</ele>
        <time>2013-07-12T13:40:01Z</time>
      </trkpt>
      <trkpt lat="47.12147" lon="5.8522">
        <ele>271</ele>
        <time>2013-07-12T13:40:04Z</time>
      </trkpt>
      <trkpt lat="47.12138" lon="5.85231">
        <ele>271</ele>
        <time>2013-07-12T13:40:07Z</time>
      </trkpt>
      <trkpt lat="47.1213" lon="5.85243">
        <ele>271</ele>
        <time>2013-07-12T13:40:10Z</time>
      </trkpt>
      <trkpt lat="47.12122" lon="5.85255">
        <ele>271</ele>
        <time>2013-07-12T13:40:13Z</time>
      </trkpt>
      <trkpt lat="47.12113" lon="5.85267">
        <ele>271</ele>
        <time>2013-07-12T13:40:16Z</time>
      </trkpt>
      <trkpt lat="47.12106" lon="5.85279">
        <ele>271</ele>
        <time>2013-07-12T13:40:19Z</time>
      </trkpt>
      <trkpt lat="47.12099" lon="5.85293">
        <ele>271</ele>
        <time>2013-07-12T13:40:22Z</time>
      </trkpt>
      <trkpt lat="47.12092" lon="5.85308">
        <ele>271</ele>
        <time>2013-07-12T13:40:25Z</time>
      </trkpt>
      <trkpt lat="47.12087" lon="5.8532">
        <ele>271</ele>
        <time>2013-07-12T13:40:27Z</time>
      </trkpt>
      <trkpt lat="47.12082" lon="5.85332">
        <ele>271</ele>
        <time>2013-07-12T13:40:29Z</time>
      </trkpt>
      <trkpt lat="47.12076" lon="5.85342">
        <ele>271</ele>
        <time>2013-07-12T13:40:31Z</time>
      </trkpt>
      <trkpt lat="47.12071" lon="5.85354">
        <ele>271</ele>
        <time>2013-07-12T13:40:33Z</time>
      </trkpt>
      <trkpt lat="47.12065" lon="5.85365">
        <ele>279</ele>
        <time>2013-07-12T13:40:35Z</time>
      </trkpt>
      <trkpt lat="47.12056" lon="5.85377">
        <ele>279</ele>
        <time>2013-07-12T13:40:38Z</time>
      </trkpt>
      <trkpt lat="47.12048" lon="5.8539">
        <ele>279</ele>
        <time>2013-07-12T13:40:41Z</time>
      </trkpt>
      <trkpt lat="47.1204" lon="5.854">
        <ele>279</ele>
        <time>2013-07-12T13:40:44Z</time>
      </trkpt>
      <trkpt lat="47.12033" lon="5.8541">
        <ele>279</ele>
        <time>2013-07-12T13:40:47Z</time>
      </trkpt>
      <trkpt lat="47.12022" lon="5.85419">
        <ele>284</ele>
        <time>2013-07-12T13:40:51Z</time>
      </trkpt>
      <trkpt lat="47.12012" lon="5.85415">
        <ele>284</ele>
        <time>2013-07-12T13:40:54Z</time>
      </trkpt>
      <trkpt lat="47.12005" lon="5.85405">
        <ele>292</ele>
        <time>2013-07-12T13:40:57Z</time>
      </trkpt>
      <trkpt lat="47.11996" lon="5.85393">
        <ele>292</ele>
        <time>2013-07-12T13:41:00Z</time>
      </trkpt>
      <trkpt lat="47.11987" lon="5.85382">
        <ele>292</ele>
        <time>2013-07-12T13:41:02Z</time>
      </trkpt>
      <trkpt lat="47.11976" lon="5.85368">
        <ele>292</ele>
        <time>2013-07-12T13:41:04Z</time>
      </trkpt>
      <trkpt lat="47.11967" lon="5.85354">
        <ele>292</ele>
        <time>2013-07-12T13:41:06Z</time>
      </trkpt>
      <trkpt lat="47.11957" lon="5.8534">
        <ele>292</ele>
        <time>2013-07-12T13:41:08Z</time>
      </trkpt>
      <trkpt lat="47.11947" lon="5.85323">
        <ele>292</ele>
        <time>2013-07-12T13:41:10Z</time>
      </trkpt>
      <trkpt lat="47.11936" lon="5.85303">
        <ele>292</ele>
        <time>2013-07-12T13:41:12Z</time>
      </trkpt>
      <trkpt lat="47.1193" lon="5.85292">
        <ele>292</ele>
        <time>2013-07-12T13:41:13Z</time>
      </trkpt>
      <trkpt lat="47.11923" lon="5.85281">
        <ele>292</ele>
        <time>2013-07-12T13:41:14Z</time>
      </trkpt>
      <trkpt lat="47.11916" lon="5.85271">
        <ele>292</ele>
        <time>2013-07-12T13:41:15Z</time>
      </trkpt>
      <trkpt lat="47.1191" lon="5.85261">
        <ele>292</ele>
        <time>2013-07-12T13:41:16Z</time>
      </trkpt>
      <trkpt lat="47.11897" lon="5.85247">
        <ele>285</ele>
        <time>2013-07-12T13:41:18Z</time>
      </trkpt>
      <trkpt lat="47.11885" lon="5.8524">
        <ele>285</ele>
        <time>2013-07-12T13:41:20Z</time>
      </trkpt>
      <trkpt lat="47.11874" lon="5.85243">
        <ele>285</ele>
        <time>2013-07-12T13:41:22Z</time>
      </trkpt>
      <trkpt lat="47.11864" lon="5.85248">
        <ele>285</ele>
        <time>2013-07-12T13:41:24Z</time>
      </trkpt>
      <trkpt lat="47.11853" lon="5.85252">
        <ele>285</ele>
        <time>2013-07-12T13:41:26Z</time>
      </trkpt>
      <trkpt lat="47.11842" lon="5.85257">
        <ele>285</ele>
        <time>2013-07-12T13:41:28Z</time>
      </trkpt>
      <trkpt lat="47.11831" lon="5.85263">
        <ele>285</ele>
        <time>2013-07-12T13:41:30Z</time>
      </trkpt>
      <trkpt lat="47.11819" lon="5.85269">
        <ele>285</ele>
        <time>2013-07-12T13:41:32Z</time>
      </trkpt>
      <trkpt lat="47.11808" lon="5.85274">
        <ele>280</ele>
        <time>2013-07-12T13:41:34Z</time>
      </trkpt>
      <trkpt lat="47.11798" lon="5.85279">
        <ele>280</ele>
        <time>2013-07-12T13:41:36Z</time>
      </trkpt>
      <trkpt lat="47.11788" lon="5.85284">
        <ele>280</ele>
        <time>2013-07-12T13:41:38Z</time>
      </trkpt>
      <trkpt lat="47.11778" lon="5.85287">
        <ele>280</ele>
        <time>2013-07-12T13:41:40Z</time>
      </trkpt>
      <trkpt lat="47.11769" lon="5.85287">
        <ele>280</ele>
        <time>2013-07-12T13:41:42Z</time>
      </trkpt>
      <trkpt lat="47.11759" lon="5.85288">
        <ele>280</ele>
        <time>2013-07-12T13:41:44Z</time>
      </trkpt>
      <trkpt lat="47.11746" lon="5.85288">
        <ele>280</ele>
        <time>2013-07-12T13:41:47Z</time>
      </trkpt>
      <trkpt lat="47.11734" lon="5.85288">
        <ele>280</ele>
        <time>2013-07-12T13:41:50Z</time>
      </trkpt>
      <trkpt lat="47.11722" lon="5.85289">
        <ele>280</ele>
        <time>2013-07-12T13:41:53Z</time>
      </trkpt>
      <trkpt lat="47.1171" lon="5.8529">
        <ele>280</ele>
        <time>2013-07-12T13:41:56Z</time>
      </trkpt>
      <trkpt lat="47.11699" lon="5.85293">
        <ele>280</ele>
        <time>2013-07-12T13:41:59Z</time>
      </trkpt>
      <trkpt lat="47.11688" lon="5.85295">
        <ele>280</ele>
        <time>2013-07-12T13:42:02Z</time>
      </trkpt>
      <trkpt lat="47.11677" lon="5.85297">
        <ele>280</ele>
        <time>2013-07-12T13:42:05Z</time>
      </trkpt>
      <trkpt lat="47.11666" lon="5.85302">
        <ele>280</ele>
        <time>2013-07-12T13:42:08Z</time>
      </trkpt>
      <trkpt lat="47.11654" lon="5.85306">
        <ele>285</ele>
        <time>2013-07-12T13:42:11Z</time>
      </trkpt>
      <trkpt lat="47.11643" lon="5.8531">
        <ele>285</ele>
        <time>2013-07-12T13:42:14Z</time>
      </trkpt>
      <trkpt lat="47.11632" lon="5.85314">
        <ele>285</ele>
        <time>2013-07-12T13:42:17Z</time>
      </trkpt>
      <trkpt lat="47.11622" lon="5.85317">
        <ele>285</ele>
        <time>2013-07-12T13:42:20Z</time>
      </trkpt>
      <trkpt lat="47.11612" lon="5.85321">
        <ele>285</ele>
        <time>2013-07-12T13:42:23Z</time>
      </trkpt>
      <trkpt lat="47.11602" lon="5.85327">
        <ele>290</ele>
        <time>2013-07-12T13:42:27Z</time>
      </trkpt>
      <trkpt lat="47.11592" lon="5.85332">
        <ele>290</ele>
        <time>2013-07-12T13:42:30Z</time>
      </trkpt>
      <trkpt lat="47.11581" lon="5.85335">
        <ele>290</ele>
        <time>2013-07-12T13:42:33Z</time>
      </trkpt>
      <trkpt lat="47.11572" lon="5.85339">
        <ele>290</ele>
        <time>2013-07-12T13:42:36Z</time>
      </trkpt>
      <trkpt lat="47.11562" lon="5.8534">
        <ele>290</ele>
        <time>2013-07-12T13:42:40Z</time>
      </trkpt>
      <trkpt lat="47.11553" lon="5.85334">
        <ele>298</ele>
        <time>2013-07-12T13:42:48Z</time>
      </trkpt>
      <trkpt lat="47.11545" lon="5.85341">
        <ele>298</ele>
        <time>2013-07-12T13:43:03Z</time>
      </trkpt>
      <trkpt lat="47.11542" lon="5.85329">
        <ele>298</ele>
        <time>2013-07-12T13:43:27Z</time>
      </trkpt>
      <trkpt lat="47.11541" lon="5.85315">
        <ele>298</ele>
        <time>2013-07-12T13:43:33Z</time>
      </trkpt>
      <trkpt lat="47.11536" lon="5.85304">
        <ele>298</ele>
        <time>2013-07-12T13:43:45Z</time>
      </trkpt>
      <trkpt lat="47.1153" lon="5.85291">
        <ele>298</ele>
        <time>2013-07-12T13:43:50Z</time>
      </trkpt>
      <trkpt lat="47.11521" lon="5.85282">
        <ele>298</ele>
        <time>2013-07-12T13:43:53Z</time>
      </trkpt>
      <trkpt lat="47.11515" lon="5.8527">
        <ele>293</ele>
        <time>2013-07-12T13:43:56Z</time>
      </trkpt>
      <trkpt lat="47.11508" lon="5.85255">
        <ele>293</ele>
        <time>2013-07-12T13:43:59Z</time>
      </trkpt>
      <trkpt lat="47.11501" lon="5.85245">
        <ele>293</ele>
        <time>2013-07-12T13:44:01Z</time>
      </trkpt>
      <trkpt lat="47.11496" lon="5.85234">
        <ele>293</ele>
        <time>2013-07-12T13:44:03Z</time>
      </trkpt>
      <trkpt lat="47.11489" lon="5.85222">
        <ele>293</ele>
        <time>2013-07-12T13:44:05Z</time>
      </trkpt>
      <trkpt lat="47.11483" lon="5.85208">
        <ele>293</ele>
        <time>2013-07-12T13:44:07Z</time>
      </trkpt>
      <trkpt lat="47.11476" lon="5.85195">
        <ele>293</ele>
        <time>2013-07-12T13:44:09Z</time>
      </trkpt>
      <trkpt lat="47.1147" lon="5.85179">
        <ele>288</ele>
        <time>2013-07-12T13:44:11Z</time>
      </trkpt>
      <trkpt lat="47.11469" lon="5.8516">
        <ele>288</ele>
        <time>2013-07-12T13:44:13Z</time>
      </trkpt>
      <trkpt lat="47.11469" lon="5.8514">
        <ele>288</ele>
        <time>2013-07-12T13:44:15Z</time>
      </trkpt>
      <trkpt lat="47.11469" lon="5.8512">
        <ele>288</ele>
        <time>2013-07-12T13:44:17Z</time>
      </trkpt>
      <trkpt lat="47.11464" lon="5.85104">
        <ele>288</ele>
        <time>2013-07-12T13:44:19Z</time>
      </trkpt>
      <trkpt lat="47.11454" lon="5.85092">
        <ele>288</ele>
        <time>2013-07-12T13:44:21Z</time>
      </trkpt>
      <trkpt lat="47.11441" lon="5.85084">
        <ele>288</ele>
        <time>2013-07-12T13:44:23Z</time>
      </trkpt>
      <trkpt lat="47.11432" lon="5.85072">
        <ele>282</ele>
        <time>2013-07-12T13:44:25Z</time>
      </trkpt>
      <trkpt lat="47.11425" lon="5.85058">
        <ele>282</ele>
        <time>2013-07-12T13:44:27Z</time>
      </trkpt>
      <trkpt lat="47.11415" lon="5.85044">
        <ele>282</ele>
        <time>2013-07-12T13:44:29Z</time>
      </trkpt>
      <trkpt lat="47.11403" lon="5.85029">
        <ele>282</ele>
        <time>2013-07-12T13:44:31Z</time>
      </trkpt>
      <trkpt lat="47.11391" lon="5.85012">
        <ele>282</ele>
        <time>2013-07-12T13:44:33Z</time>
      </trkpt>
      <trkpt lat="47.1138" lon="5.84996">
        <ele>282</ele>
        <time>2013-07-12T13:44:35Z</time>
      </trkpt>
      <trkpt lat="47.11367" lon="5.84979">
        <ele>282</ele>
        <time>2013-07-12T13:44:37Z</time>
      </trkpt>
      <trkpt lat="47.11355" lon="5.84961">
        <ele>282</ele>
        <time>2013-07-12T13:44:39Z</time>
      </trkpt>
      <trkpt lat="47.11343" lon="5.84943">
        <ele>282</ele>
        <time>2013-07-12T13:44:41Z</time>
      </trkpt>
      <trkpt lat="47.11331" lon="5.84925">
        <ele>282</ele>
        <time>2013-07-12T13:44:43Z</time>
      </trkpt>
      <trkpt lat="47.11318" lon="5.84906">
        <ele>282</ele>
        <time>2013-07-12T13:44:45Z</time>
      </trkpt>
      <trkpt lat="47.11306" lon="5.84887">
        <ele>282</ele>
        <time>2013-07-12T13:44:47Z</time>
      </trkpt>
      <trkpt lat="47.113" lon="5.84877">
        <ele>282</ele>
        <time>2013-07-12T13:44:48Z</time>
      </trkpt>
      <trkpt lat="47.11293" lon="5.84868">
        <ele>282</ele>
        <time>2013-07-12T13:44:49Z</time>
      </trkpt>
      <trkpt lat="47.11287" lon="5.84857">
        <ele>282</ele>
        <time>2013-07-12T13:44:50Z</time>
      </trkpt>
      <trkpt lat="47.1128" lon="5.84847">
        <ele>282</ele>
        <time>2013-07-12T13:44:51Z</time>
      </trkpt>
      <trkpt lat="47.11274" lon="5.84837">
        <ele>282</ele>
        <time>2013-07-12T13:44:52Z</time>
      </trkpt>
      <trkpt lat="47.11267" lon="5.84826">
        <ele>282</ele>
        <time>2013-07-12T13:44:53Z</time>
      </trkpt>
      <trkpt lat="47.11261" lon="5.84816">
        <ele>282</ele>
        <time>2013-07-12T13:44:54Z</time>
      </trkpt>
      <trkpt lat="47.11255" lon="5.84805">
        <ele>282</ele>
        <time>2013-07-12T13:44:55Z</time>
      </trkpt>
      <trkpt lat="47.11248" lon="5.84794">
        <ele>282</ele>
        <time>2013-07-12T13:44:56Z</time>
      </trkpt>
      <trkpt lat="47.11242" lon="5.84784">
        <ele>282</ele>
        <time>2013-07-12T13:44:57Z</time>
      </trkpt>
      <trkpt lat="47.11237" lon="5.84774">
        <ele>282</ele>
        <time>2013-07-12T13:44:58Z</time>
      </trkpt>
      <trkpt lat="47.11231" lon="5.84763">
        <ele>282</ele>
        <time>2013-07-12T13:44:59Z</time>
      </trkpt>
      <trkpt lat="47.11225" lon="5.84753">
        <ele>282</ele>
        <time>2013-07-12T13:45:00Z</time>
      </trkpt>
      <trkpt lat="47.11218" lon="5.84742">
        <ele>282</ele>
        <time>2013-07-12T13:45:01Z</time>
      </trkpt>
      <trkpt lat="47.11212" lon="5.84731">
        <ele>282</ele>
        <time>2013-07-12T13:45:02Z</time>
      </trkpt>
      <trkpt lat="47.11205" lon="5.84722">
        <ele>282</ele>
        <time>2013-07-12T13:45:03Z</time>
      </trkpt>
      <trkpt lat="47.11198" lon="5.84712">
        <ele>282</ele>
        <time>2013-07-12T13:45:04Z</time>
      </trkpt>
      <trkpt lat="47.11191" lon="5.84703">
        <ele>282</ele>
        <time>2013-07-12T13:45:05Z</time>
      </trkpt>
      <trkpt lat="47.11184" lon="5.84694">
        <ele>282</ele>
        <time>2013-07-12T13:45:06Z</time>
      </trkpt>
      <trkpt lat="47.1117" lon="5.84678">
        <ele>282</ele>
        <time>2013-07-12T13:45:08Z</time>
      </trkpt>
      <trkpt lat="47.11155" lon="5.84664">
        <ele>282</ele>
        <time>2013-07-12T13:45:10Z</time>
      </trkpt>
      <trkpt lat="47.11141" lon="5.84651">
        <ele>282</ele>
        <time>2013-07-12T13:45:12Z</time>
      </trkpt>
      <trkpt lat="47.11128" lon="5.84641">
        <ele>282</ele>
        <time>2013-07-12T13:45:14Z</time>
      </trkpt>
      <trkpt lat="47.11116" lon="5.84631">
        <ele>282</ele>
        <time>2013-07-12T13:45:16Z</time>
      </trkpt>
      <trkpt lat="47.11105" lon="5.84622">
        <ele>282</ele>
        <time>2013-07-12T13:45:18Z</time>
      </trkpt>
      <trkpt lat="47.11095" lon="5.84614">
        <ele>282</ele>
        <time>2013-07-12T13:45:20Z</time>
      </trkpt>
      <trkpt lat="47.11086" lon="5.84606">
        <ele>282</ele>
        <time>2013-07-12T13:45:22Z</time>
      </trkpt>
      <trkpt lat="47.11077" lon="5.84598">
        <ele>282</ele>
        <time>2013-07-12T13:45:24Z</time>
      </trkpt>
      <trkpt lat="47.11067" lon="5.8459">
        <ele>282</ele>
        <time>2013-07-12T13:45:26Z</time>
      </trkpt>
      <trkpt lat="47.11057" lon="5.84581">
        <ele>282</ele>
        <time>2013-07-12T13:45:28Z</time>
      </trkpt>
      <trkpt lat="47.11048" lon="5.84572">
        <ele>282</ele>
        <time>2013-07-12T13:45:30Z</time>
      </trkpt>
      <trkpt lat="47.11038" lon="5.84563">
        <ele>282</ele>
        <time>2013-07-12T13:45:32Z</time>
      </trkpt>
      <trkpt lat="47.11027" lon="5.84556">
        <ele>282</ele>
        <time>2013-07-12T13:45:34Z</time>
      </trkpt>
      <trkpt lat="47.11016" lon="5.84552">
        <ele>282</ele>
        <time>2013-07-12T13:45:36Z</time>
      </trkpt>
      <trkpt lat="47.11004" lon="5.8455">
        <ele>282</ele>
        <time>2013-07-12T13:45:38Z</time>
      </trkpt>
      <trkpt lat="47.10993" lon="5.84553">
        <ele>282</ele>
        <time>2013-07-12T13:45:40Z</time>
      </trkpt>
      <trkpt lat="47.1098" lon="5.84558">
        <ele>282</ele>
        <time>2013-07-12T13:45:42Z</time>
      </trkpt>
      <trkpt lat="47.10968" lon="5.84563">
        <ele>282</ele>
        <time>2013-07-12T13:45:44Z</time>
      </trkpt>
      <trkpt lat="47.10956" lon="5.84567">
        <ele>282</ele>
        <time>2013-07-12T13:45:46Z</time>
      </trkpt>
      <trkpt lat="47.10943" lon="5.84572">
        <ele>282</ele>
        <time>2013-07-12T13:45:48Z</time>
      </trkpt>
      <trkpt lat="47.1093" lon="5.84577">
        <ele>282</ele>
        <time>2013-07-12T13:45:50Z</time>
      </trkpt>
      <trkpt lat="47.10916" lon="5.84581">
        <ele>282</ele>
        <time>2013-07-12T13:45:52Z</time>
      </trkpt>
      <trkpt lat="47.10901" lon="5.84578">
        <ele>282</ele>
        <time>2013-07-12T13:45:54Z</time>
      </trkpt>
      <trkpt lat="47.10888" lon="5.8457">
        <ele>282</ele>
        <time>2013-07-12T13:45:56Z</time>
      </trkpt>
      <trkpt lat="47.10876" lon="5.84558">
        <ele>282</ele>
        <time>2013-07-12T13:45:58Z</time>
      </trkpt>
      <trkpt lat="47.10866" lon="5.84546">
        <ele>282</ele>
        <time>2013-07-12T13:46:00Z</time>
      </trkpt>
      <trkpt lat="47.10857" lon="5.84536">
        <ele>282</ele>
        <time>2013-07-12T13:46:02Z</time>
      </trkpt>
      <trkpt lat="47.10847" lon="5.84526">
        <ele>282</ele>
        <time>2013-07-12T13:46:04Z</time>
      </trkpt>
      <trkpt lat="47.1084" lon="5.84518">
        <ele>289</ele>
        <time>2013-07-12T13:46:06Z</time>
      </trkpt>
      <trkpt lat="47.1083" lon="5.8451">
        <ele>289</ele>
        <time>2013-07-12T13:46:08Z</time>
      </trkpt>
      <trkpt lat="47.1082" lon="5.84504">
        <ele>289</ele>
        <time>2013-07-12T13:46:10Z</time>
      </trkpt>
      <trkpt lat="47.10811" lon="5.84499">
        <ele>289</ele>
        <time>2013-07-12T13:46:12Z</time>
      </trkpt>
      <trkpt lat="47.10801" lon="5.84494">
        <ele>289</ele>
        <time>2013-07-12T13:46:14Z</time>
      </trkpt>
      <trkpt lat="47.1079" lon="5.84489">
        <ele>289</ele>
        <time>2013-07-12T13:46:16Z</time>
      </trkpt>
      <trkpt lat="47.10776" lon="5.84483">
        <ele>289</ele>
        <time>2013-07-12T13:46:18Z</time>
      </trkpt>
      <trkpt lat="47.10762" lon="5.84478">
        <ele>289</ele>
        <time>2013-07-12T13:46:20Z</time>
      </trkpt>
      <trkpt lat="47.10748" lon="5.84472">
        <ele>289</ele>
        <time>2013-07-12T13:46:22Z</time>
      </trkpt>
      <trkpt lat="47.10735" lon="5.84466">
        <ele>289</ele>
        <time>2013-07-12T13:46:24Z</time>
      </trkpt>
      <trkpt lat="47.1072" lon="5.8446">
        <ele>289</ele>
        <time>2013-07-12T13:46:26Z</time>
      </trkpt>
      <trkpt lat="47.10707" lon="5.84454">
        <ele>289</ele>
        <time>2013-07-12T13:46:28Z</time>
      </trkpt>
      <trkpt lat="47.10692" lon="5.84448">
        <ele>283</ele>
        <time>2013-07-12T13:46:30Z</time>
      </trkpt>
      <trkpt lat="47.10677" lon="5.84441">
        <ele>283</ele>
        <time>2013-07-12T13:46:32Z</time>
      </trkpt>
      <trkpt lat="47.10663" lon="5.84435">
        <ele>283</ele>
        <time>2013-07-12T13:46:34Z</time>
      </trkpt>
      <trkpt lat="47.10649" lon="5.84429">
        <ele>283</ele>
        <time>2013-07-12T13:46:36Z</time>
      </trkpt>
      <trkpt lat="47.10633" lon="5.84421">
        <ele>283</ele>
        <time>2013-07-12T13:46:38Z</time>
      </trkpt>
      <trkpt lat="47.10618" lon="5.84415">
        <ele>283</ele>
        <time>2013-07-12T13:46:40Z</time>
      </trkpt>
      <trkpt lat="47.10602" lon="5.84408">
        <ele>283</ele>
        <time>2013-07-12T13:46:42Z</time>
      </trkpt>
      <trkpt lat="47.10586" lon="5.84403">
        <ele>283</ele>
        <time>2013-07-12T13:46:44Z</time>
      </trkpt>
      <trkpt lat="47.10571" lon="5.84398">
        <ele>283</ele>
        <time>2013-07-12T13:46:46Z</time>
      </trkpt>
      <trkpt lat="47.10559" lon="5.84391">
        <ele>283</ele>
        <time>2013-07-12T13:46:48Z</time>
      </trkpt>
      <trkpt lat="47.10546" lon="5.84384">
        <ele>288</ele>
        <time>2013-07-12T13:46:50Z</time>
      </trkpt>
      <trkpt lat="47.10533" lon="5.84377">
        <ele>288</ele>
        <time>2013-07-12T13:46:52Z</time>
      </trkpt>
      <trkpt lat="47.1052" lon="5.8437">
        <ele>288</ele>
        <time>2013-07-12T13:46:54Z</time>
      </trkpt>
      <trkpt lat="47.10509" lon="5.84363">
        <ele>288</ele>
        <time>2013-07-12T13:46:56Z</time>
      </trkpt>
      <trkpt lat="47.10498" lon="5.84356">
        <ele>288</ele>
        <time>2013-07-12T13:46:58Z</time>
      </trkpt>
      <trkpt lat="47.10487" lon="5.8435">
        <ele>288</ele>
        <time>2013-07-12T13:47:00Z</time>
      </trkpt>
      <trkpt lat="47.10478" lon="5.84342">
        <ele>288</ele>
        <time>2013-07-12T13:47:02Z</time>
      </trkpt>
      <trkpt lat="47.1047" lon="5.84336">
        <ele>288</ele>
        <time>2013-07-12T13:47:04Z</time>
      </trkpt>
      <trkpt lat="47.1046" lon="5.84331">
        <ele>295</ele>
        <time>2013-07-12T13:47:06Z</time>
      </trkpt>
      <trkpt lat="47.10449" lon="5.84324">
        <ele>295</ele>
        <time>2013-07-12T13:47:08Z</time>
      </trkpt>
      <trkpt lat="47.10438" lon="5.84316">
        <ele>295</ele>
        <time>2013-07-12T13:47:10Z</time>
      </trkpt>
      <trkpt lat="47.10426" lon="5.84307">
        <ele>295</ele>
        <time>2013-07-12T13:47:12Z</time>
      </trkpt>
      <trkpt lat="47.10415" lon="5.84299">
        <ele>295</ele>
        <time>2013-07-12T13:47:14Z</time>
      </trkpt>
      <trkpt lat="47.10405" lon="5.84293">
        <ele>295</ele>
        <time>2013-07-12T13:47:16Z</time>
      </trkpt>
      <trkpt lat="47.10395" lon="5.84288">
        <ele>295</ele>
        <time>2013-07-12T13:47:18Z</time>
      </trkpt>
      <trkpt lat="47.10386" lon="5.8428">
        <ele>295</ele>
        <time>2013-07-12T13:47:20Z</time>
      </trkpt>
      <trkpt lat="47.10378" lon="5.84274">
        <ele>295</ele>
        <time>2013-07-12T13:47:22Z</time>
      </trkpt>
      <trkpt lat="47.10369" lon="5.8427">
        <ele>295</ele>
        <time>2013-07-12T13:47:24Z</time>
      </trkpt>
      <trkpt lat="47.1036" lon="5.84263">
        <ele>295</ele>
        <time>2013-07-12T13:47:26Z</time>
      </trkpt>
      <trkpt lat="47.10352" lon="5.84256">
        <ele>295</ele>
        <time>2013-07-12T13:47:28Z</time>
      </trkpt>
      <trkpt lat="47.10344" lon="5.8425">
        <ele>295</ele>
        <time>2013-07-12T13:47:30Z</time>
      </trkpt>
      <trkpt lat="47.10332" lon="5.8424">
        <ele>295</ele>
        <time>2013-07-12T13:47:33Z</time>
      </trkpt>
      <trkpt lat="47.10324" lon="5.84236">
        <ele>295</ele>
        <time>2013-07-12T13:47:35Z</time>
      </trkpt>
      <trkpt lat="47.10311" lon="5.84227">
        <ele>295</ele>
        <time>2013-07-12T13:47:38Z</time>
      </trkpt>
      <trkpt lat="47.10303" lon="5.84221">
        <ele>295</ele>
        <time>2013-07-12T13:47:40Z</time>
      </trkpt>
      <trkpt lat="47.10295" lon="5.84215">
        <ele>295</ele>
        <time>2013-07-12T13:47:42Z</time>
      </trkpt>
      <trkpt lat="47.10287" lon="5.84209">
        <ele>295</ele>
        <time>2013-07-12T13:47:44Z</time>
      </trkpt>
      <trkpt lat="47.10279" lon="5.84203">
        <ele>295</ele>
        <time>2013-07-12T13:47:46Z</time>
      </trkpt>
      <trkpt lat="47.10267" lon="5.84195">
        <ele>295</ele>
        <time>2013-07-12T13:47:49Z</time>
      </trkpt>
      <trkpt lat="47.10256" lon="5.84187">
        <ele>295</ele>
        <time>2013-07-12T13:47:52Z</time>
      </trkpt>
      <trkpt lat="47.10244" lon="5.8418">
        <ele>295</ele>
        <time>2013-07-12T13:47:55Z</time>
      </trkpt>
      <trkpt lat="47.10233" lon="5.84173">
        <ele>295</ele>
        <time>2013-07-12T13:47:58Z</time>
      </trkpt>
      <trkpt lat="47.10224" lon="5.84165">
        <ele>295</ele>
        <time>2013-07-12T13:48:01Z</time>
      </trkpt>
      <trkpt lat="47.10213" lon="5.84158">
        <ele>295</ele>
        <time>2013-07-12T13:48:04Z</time>
      </trkpt>
      <trkpt lat="47.10202" lon="5.84152">
        <ele>295</ele>
        <time>2013-07-12T13:48:07Z</time>
      </trkpt>
      <trkpt lat="47.10191" lon="5.84148">
        <ele>295</ele>
        <time>2013-07-12T13:48:10Z</time>
      </trkpt>
      <trkpt lat="47.1018" lon="5.84147">
        <ele>295</ele>
        <time>2013-07-12T13:48:13Z</time>
      </trkpt>
      <trkpt lat="47.10168" lon="5.84142">
        <ele>295</ele>
        <time>2013-07-12T13:48:16Z</time>
      </trkpt>
      <trkpt lat="47.1016" lon="5.84136">
        <ele>295</ele>
        <time>2013-07-12T13:48:18Z</time>
      </trkpt>
      <trkpt lat="47.10151" lon="5.84125">
        <ele>301</ele>
        <time>2013-07-12T13:48:21Z</time>
      </trkpt>
      <trkpt lat="47.10143" lon="5.84117">
        <ele>301</ele>
        <time>2013-07-12T13:48:24Z</time>
      </trkpt>
      <trkpt lat="47.10135" lon="5.8411">
        <ele>309</ele>
        <time>2013-07-12T13:48:27Z</time>
      </trkpt>
      <trkpt lat="47.10126" lon="5.84104">
        <ele>309</ele>
        <time>2013-07-12T13:48:30Z</time>
      </trkpt>
      <trkpt lat="47.10118" lon="5.84095">
        <ele>309</ele>
        <time>2013-07-12T13:48:33Z</time>
      </trkpt>
      <trkpt lat="47.10109" lon="5.84086">
        <ele>309</ele>
        <time>2013-07-12T13:48:36Z</time>
      </trkpt>
      <trkpt lat="47.101" lon="5.84078">
        <ele>309</ele>
        <time>2013-07-12T13:48:39Z</time>
      </trkpt>
      <trkpt lat="47.10091" lon="5.84071">
        <ele>309</ele>
        <time>2013-07-12T13:48:42Z</time>
      </trkpt>
      <trkpt lat="47.10083" lon="5.84062">
        <ele>309</ele>
        <time>2013-07-12T13:48:45Z</time>
      </trkpt>
      <trkpt lat="47.10075" lon="5.84052">
        <ele>315</ele>
        <time>2013-07-12T13:48:48Z</time>
      </trkpt>
      <trkpt lat="47.10064" lon="5.84042">
        <ele>315</ele>
        <time>2013-07-12T13:48:52Z</time>
      </trkpt>
      <trkpt lat="47.10054" lon="5.84029">
        <ele>315</ele>
        <time>2013-07-12T13:48:55Z</time>
      </trkpt>
      <trkpt lat="47.10044" lon="5.8402">
        <ele>315</ele>
        <time>2013-07-12T13:48:58Z</time>
      </trkpt>
      <trkpt lat="47.10035" lon="5.84013">
        <ele>315</ele>
        <time>2013-07-12T13:49:01Z</time>
      </trkpt>
      <trkpt lat="47.10026" lon="5.84003">
        <ele>315</ele>
        <time>2013-07-12T13:49:04Z</time>
      </trkpt>
      <trkpt lat="47.10016" lon="5.83996">
        <ele>315</ele>
        <time>2013-07-12T13:49:07Z</time>
      </trkpt>
      <trkpt lat="47.10005" lon="5.83989">
        <ele>315</ele>
        <time>2013-07-12T13:49:10Z</time>
      </trkpt>
      <trkpt lat="47.09995" lon="5.83983">
        <ele>315</ele>
        <time>2013-07-12T13:49:13Z</time>
      </trkpt>
      <trkpt lat="47.09986" lon="5.83976">
        <ele>315</ele>
        <time>2013-07-12T13:49:16Z</time>
      </trkpt>
      <trkpt lat="47.09976" lon="5.83969">
        <ele>315</ele>
        <time>2013-07-12T13:49:19Z</time>
      </trkpt>
      <trkpt lat="47.09964" lon="5.83963">
        <ele>321</ele>
        <time>2013-07-12T13:49:22Z</time>
      </trkpt>
      <trkpt lat="47.09954" lon="5.83958">
        <ele>321</ele>
        <time>2013-07-12T13:49:25Z</time>
      </trkpt>
      <trkpt lat="47.09942" lon="5.83951">
        <ele>321</ele>
        <time>2013-07-12T13:49:28Z</time>
      </trkpt>
      <trkpt lat="47.09931" lon="5.83944">
        <ele>321</ele>
        <time>2013-07-12T13:49:31Z</time>
      </trkpt>
      <trkpt lat="47.09919" lon="5.83936">
        <ele>321</ele>
        <time>2013-07-12T13:49:34Z</time>
      </trkpt>
      <trkpt lat="47.09907" lon="5.8393">
        <ele>321</ele>
        <time>2013-07-12T13:49:37Z</time>
      </trkpt>
      <trkpt lat="47.09898" lon="5.83926">
        <ele>321</ele>
        <time>2013-07-12T13:49:39Z</time>
      </trkpt>
      <trkpt lat="47.09888" lon="5.8392">
        <ele>321</ele>
        <time>2013-07-12T13:49:41Z</time>
      </trkpt>
      <trkpt lat="47.09879" lon="5.83914">
        <ele>321</ele>
        <time>2013-07-12T13:49:43Z</time>
      </trkpt>
      <trkpt lat="47.09868" lon="5.83903">
        <ele>321</ele>
        <time>2013-07-12T13:49:46Z</time>
      </trkpt>
      <trkpt lat="47.09857" lon="5.83895">
        <ele>321</ele>
        <time>2013-07-12T13:49:49Z</time>
      </trkpt>
      <trkpt lat="47.09848" lon="5.83889">
        <ele>321</ele>
        <time>2013-07-12T13:49:52Z</time>
      </trkpt>
      <trkpt lat="47.09838" lon="5.8388">
        <ele>321</ele>
        <time>2013-07-12T13:49:55Z</time>
      </trkpt>
      <trkpt lat="47.09829" lon="5.83875">
        <ele>326</ele>
        <time>2013-07-12T13:49:58Z</time>
      </trkpt>
      <trkpt lat="47.09822" lon="5.83865">
        <ele>326</ele>
        <time>2013-07-12T13:50:01Z</time>
      </trkpt>
      <trkpt lat="47.09814" lon="5.83857">
        <ele>332</ele>
        <time>2013-07-12T13:50:04Z</time>
      </trkpt>
      <trkpt lat="47.09806" lon="5.83847">
        <ele>332</ele>
        <time>2013-07-12T13:50:07Z</time>
      </trkpt>
      <trkpt lat="47.09797" lon="5.83838">
        <ele>332</ele>
        <time>2013-07-12T13:50:10Z</time>
      </trkpt>
      <trkpt lat="47.09789" lon="5.83829">
        <ele>332</ele>
        <time>2013-07-12T13:50:13Z</time>
      </trkpt>
      <trkpt lat="47.0978" lon="5.83813">
        <ele>332</ele>
        <time>2013-07-12T13:50:16Z</time>
      </trkpt>
      <trkpt lat="47.09774" lon="5.83802">
        <ele>332</ele>
        <time>2013-07-12T13:50:18Z</time>
      </trkpt>
      <trkpt lat="47.09767" lon="5.83791">
        <ele>332</ele>
        <time>2013-07-12T13:50:20Z</time>
      </trkpt>
      <trkpt lat="47.09761" lon="5.83777">
        <ele>332</ele>
        <time>2013-07-12T13:50:22Z</time>
      </trkpt>
      <trkpt lat="47.09753" lon="5.83765">
        <ele>332</ele>
        <time>2013-07-12T13:50:24Z</time>
      </trkpt>
      <trkpt lat="47.09745" lon="5.8375">
        <ele>332</ele>
        <time>2013-07-12T13:50:26Z</time>
      </trkpt>
      <trkpt lat="47.09736" lon="5.83733">
        <ele>332</ele>
        <time>2013-07-12T13:50:28Z</time>
      </trkpt>
      <trkpt lat="47.09727" lon="5.83715">
        <ele>332</ele>
        <time>2013-07-12T13:50:30Z</time>
      </trkpt>
      <trkpt lat="47.09719" lon="5.83695">
        <ele>332</ele>
        <time>2013-07-12T13:50:32Z</time>
      </trkpt>
      <trkpt lat="47.09713" lon="5.83673">
        <ele>332</ele>
        <time>2013-07-12T13:50:34Z</time>
      </trkpt>
      <trkpt lat="47.09708" lon="5.83652">
        <ele>332</ele>
        <time>2013-07-12T13:50:36Z</time>
      </trkpt>
      <trkpt lat="47.09704" lon="5.83627">
        <ele>332</ele>
        <time>2013-07-12T13:50:38Z</time>
      </trkpt>
      <trkpt lat="47.09696" lon="5.83603">
        <ele>332</ele>
        <time>2013-07-12T13:50:40Z</time>
      </trkpt>
      <trkpt lat="47.09692" lon="5.8359">
        <ele>332</ele>
        <time>2013-07-12T13:50:41Z</time>
      </trkpt>
      <trkpt lat="47.09688" lon="5.83577">
        <ele>332</ele>
        <time>2013-07-12T13:50:42Z</time>
      </trkpt>
      <trkpt lat="47.09679" lon="5.83553">
        <ele>327</ele>
        <time>2013-07-12T13:50:44Z</time>
      </trkpt>
      <trkpt lat="47.09671" lon="5.8353">
        <ele>327</ele>
        <time>2013-07-12T13:50:46Z</time>
      </trkpt>
      <trkpt lat="47.09663" lon="5.83509">
        <ele>327</ele>
        <time>2013-07-12T13:50:48Z</time>
      </trkpt>
      <trkpt lat="47.09654" lon="5.83489">
        <ele>327</ele>
        <time>2013-07-12T13:50:50Z</time>
      </trkpt>
      <trkpt lat="47.09646" lon="5.83471">
        <ele>327</ele>
        <time>2013-07-12T13:50:52Z</time>
      </trkpt>
      <trkpt lat="47.09638" lon="5.83456">
        <ele>327</ele>
        <time>2013-07-12T13:50:54Z</time>
      </trkpt>
      <trkpt lat="47.09629" lon="5.83441">
        <ele>327</ele>
        <time>2013-07-12T13:50:56Z</time>
      </trkpt>
      <trkpt lat="47.09619" lon="5.83429">
        <ele>327</ele>
        <time>2013-07-12T13:50:58Z</time>
      </trkpt>
      <trkpt lat="47.09611" lon="5.83417">
        <ele>327</ele>
        <time>2013-07-12T13:51:00Z</time>
      </trkpt>
      <trkpt lat="47.09603" lon="5.83406">
        <ele>333</ele>
        <time>2013-07-12T13:51:02Z</time>
      </trkpt>
      <trkpt lat="47.09592" lon="5.83396">
        <ele>333</ele>
        <time>2013-07-12T13:51:04Z</time>
      </trkpt>
      <trkpt lat="47.09582" lon="5.83386">
        <ele>333</ele>
        <time>2013-07-12T13:51:06Z</time>
      </trkpt>
      <trkpt lat="47.09572" lon="5.83376">
        <ele>333</ele>
        <time>2013-07-12T13:51:08Z</time>
      </trkpt>
      <trkpt lat="47.09563" lon="5.83367">
        <ele>333</ele>
        <time>2013-07-12T13:51:10Z</time>
      </trkpt>
      <trkpt lat="47.09553" lon="5.83358">
        <ele>333</ele>
        <time>2013-07-12T13:51:12Z</time>
      </trkpt>
      <trkpt lat="47.09543" lon="5.8335">
        <ele>333</ele>
        <time>2013-07-12T13:51:14Z</time>
      </trkpt>
      <trkpt lat="47.09534" lon="5.83342">
        <ele>333</ele>
        <time>2013-07-12T13:51:16Z</time>
      </trkpt>
      <trkpt lat="47.09526" lon="5.83334">
        <ele>333</ele>
        <time>2013-07-12T13:51:18Z</time>
      </trkpt>
      <trkpt lat="47.09519" lon="5.83326">
        <ele>333</ele>
        <time>2013-07-12T13:51:20Z</time>
      </trkpt>
      <trkpt lat="47.0951" lon="5.83317">
        <ele>333</ele>
        <time>2013-07-12T13:51:22Z</time>
      </trkpt>
      <trkpt lat="47.09501" lon="5.8331">
        <ele>333</ele>
        <time>2013-07-12T13:51:24Z</time>
      </trkpt>
      <trkpt lat="47.09494" lon="5.83302">
        <ele>333</ele>
        <time>2013-07-12T13:51:26Z</time>
      </trkpt>
      <trkpt lat="47.09483" lon="5.83294">
        <ele>333</ele>
        <time>2013-07-12T13:51:28Z</time>
      </trkpt>
      <trkpt lat="47.09474" lon="5.83285">
        <ele>333</ele>
        <time>2013-07-12T13:51:30Z</time>
      </trkpt>
      <trkpt lat="47.09464" lon="5.83277">
        <ele>339</ele>
        <time>2013-07-12T13:51:32Z</time>
      </trkpt>
      <trkpt lat="47.09455" lon="5.83268">
        <ele>339</ele>
        <time>2013-07-12T13:51:34Z</time>
      </trkpt>
      <trkpt lat="47.09445" lon="5.83259">
        <ele>339</ele>
        <time>2013-07-12T13:51:36Z</time>
      </trkpt>
      <trkpt lat="47.09435" lon="5.8325">
        <ele>339</ele>
        <time>2013-07-12T13:51:38Z</time>
      </trkpt>
      <trkpt lat="47.09426" lon="5.83241">
        <ele>339</ele>
        <time>2013-07-12T13:51:40Z</time>
      </trkpt>
      <trkpt lat="47.09416" lon="5.8323">
        <ele>339</ele>
        <time>2013-07-12T13:51:42Z</time>
      </trkpt>
      <trkpt lat="47.09405" lon="5.8322">
        <ele>339</ele>
        <time>2013-07-12T13:51:44Z</time>
      </trkpt>
      <trkpt lat="47.09392" lon="5.83209">
        <ele>339</ele>
        <time>2013-07-12T13:51:46Z</time>
      </trkpt>
      <trkpt lat="47.09381" lon="5.83196">
        <ele>339</ele>
        <time>2013-07-12T13:51:48Z</time>
      </trkpt>
      <trkpt lat="47.09369" lon="5.83185">
        <ele>339</ele>
        <time>2013-07-12T13:51:50Z</time>
      </trkpt>
      <trkpt lat="47.09355" lon="5.83172">
        <ele>339</ele>
        <time>2013-07-12T13:51:52Z</time>
      </trkpt>
      <trkpt lat="47.09347" lon="5.83166">
        <ele>339</ele>
        <time>2013-07-12T13:51:53Z</time>
      </trkpt>
      <trkpt lat="47.09339" lon="5.83158">
        <ele>339</ele>
        <time>2013-07-12T13:51:54Z</time>
      </trkpt>
      <trkpt lat="47.09331" lon="5.83151">
        <ele>339</ele>
        <time>2013-07-12T13:51:55Z</time>
      </trkpt>
      <trkpt lat="47.09323" lon="5.83143">
        <ele>339</ele>
        <time>2013-07-12T13:51:56Z</time>
      </trkpt>
      <trkpt lat="47.09315" lon="5.83135">
        <ele>339</ele>
        <time>2013-07-12T13:51:57Z</time>
      </trkpt>
      <trkpt lat="47.09307" lon="5.83126">
        <ele>339</ele>
        <time>2013-07-12T13:51:58Z</time>
      </trkpt>
      <trkpt lat="47.09291" lon="5.83111">
        <ele>339</ele>
        <time>2013-07-12T13:52:00Z</time>
      </trkpt>
      <trkpt lat="47.09283" lon="5.83102">
        <ele>339</ele>
        <time>2013-07-12T13:52:01Z</time>
      </trkpt>
      <trkpt lat="47.09275" lon="5.83094">
        <ele>339</ele>
        <time>2013-07-12T13:52:02Z</time>
      </trkpt>
      <trkpt lat="47.09266" lon="5.83084">
        <ele>339</ele>
        <time>2013-07-12T13:52:03Z</time>
      </trkpt>
      <trkpt lat="47.09257" lon="5.83074">
        <ele>339</ele>
        <time>2013-07-12T13:52:04Z</time>
      </trkpt>
      <trkpt lat="47.09248" lon="5.83063">
        <ele>339</ele>
        <time>2013-07-12T13:52:05Z</time>
      </trkpt>
      <trkpt lat="47.09239" lon="5.83052">
        <ele>333</ele>
        <time>2013-07-12T13:52:06Z</time>
      </trkpt>
      <trkpt lat="47.0923" lon="5.83041">
        <ele>333</ele>
        <time>2013-07-12T13:52:07Z</time>
      </trkpt>
      <trkpt lat="47.09221" lon="5.83029">
        <ele>333</ele>
        <time>2013-07-12T13:52:08Z</time>
      </trkpt>
      <trkpt lat="47.09211" lon="5.83018">
        <ele>333</ele>
        <time>2013-07-12T13:52:09Z</time>
      </trkpt>
      <trkpt lat="47.09201" lon="5.83007">
        <ele>333</ele>
        <time>2013-07-12T13:52:10Z</time>
      </trkpt>
      <trkpt lat="47.09191" lon="5.82995">
        <ele>328</ele>
        <time>2013-07-12T13:52:11Z</time>
      </trkpt>
      <trkpt lat="47.0918" lon="5.82983">
        <ele>328</ele>
        <time>2013-07-12T13:52:12Z</time>
      </trkpt>
      <trkpt lat="47.0917" lon="5.8297">
        <ele>328</ele>
        <time>2013-07-12T13:52:13Z</time>
      </trkpt>
      <trkpt lat="47.0916" lon="5.82956">
        <ele>322</ele>
        <time>2013-07-12T13:52:14Z</time>
      </trkpt>
      <trkpt lat="47.09149" lon="5.82943">
        <ele>322</ele>
        <time>2013-07-12T13:52:15Z</time>
      </trkpt>
      <trkpt lat="47.0914" lon="5.82929">
        <ele>322</ele>
        <time>2013-07-12T13:52:16Z</time>
      </trkpt>
      <trkpt lat="47.0913" lon="5.82916">
        <ele>322</ele>
        <time>2013-07-12T13:52:17Z</time>
      </trkpt>
      <trkpt lat="47.09121" lon="5.82901">
        <ele>322</ele>
        <time>2013-07-12T13:52:18Z</time>
      </trkpt>
      <trkpt lat="47.09113" lon="5.82886">
        <ele>322</ele>
        <time>2013-07-12T13:52:19Z</time>
      </trkpt>
      <trkpt lat="47.09104" lon="5.82873">
        <ele>317</ele>
        <time>2013-07-12T13:52:20Z</time>
      </trkpt>
      <trkpt lat="47.09095" lon="5.82858">
        <ele>317</ele>
        <time>2013-07-12T13:52:21Z</time>
      </trkpt>
      <trkpt lat="47.09088" lon="5.82844">
        <ele>317</ele>
        <time>2013-07-12T13:52:22Z</time>
      </trkpt>
      <trkpt lat="47.09081" lon="5.82831">
        <ele>317</ele>
        <time>2013-07-12T13:52:23Z</time>
      </trkpt>
      <trkpt lat="47.09073" lon="5.82818">
        <ele>317</ele>
        <time>2013-07-12T13:52:24Z</time>
      </trkpt>
      <trkpt lat="47.09067" lon="5.82805">
        <ele>317</ele>
        <time>2013-07-12T13:52:25Z</time>
      </trkpt>
      <trkpt lat="47.0906" lon="5.82794">
        <ele>317</ele>
        <time>2013-07-12T13:52:26Z</time>
      </trkpt>
      <trkpt lat="47.09054" lon="5.82782">
        <ele>317</ele>
        <time>2013-07-12T13:52:27Z</time>
      </trkpt>
      <trkpt lat="47.09048" lon="5.82772">
        <ele>317</ele>
        <time>2013-07-12T13:52:28Z</time>
      </trkpt>
      <trkpt lat="47.09039" lon="5.82752">
        <ele>317</ele>
        <time>2013-07-12T13:52:30Z</time>
      </trkpt>
      <trkpt lat="47.09029" lon="5.82734">
        <ele>317</ele>
        <time>2013-07-12T13:52:32Z</time>
      </trkpt>
      <trkpt lat="47.0902" lon="5.82721">
        <ele>317</ele>
        <time>2013-07-12T13:52:34Z</time>
      </trkpt>
      <trkpt lat="47.09013" lon="5.82712">
        <ele>317</ele>
        <time>2013-07-12T13:52:36Z</time>
      </trkpt>
      <trkpt lat="47.09007" lon="5.82702">
        <ele>317</ele>
        <time>2013-07-12T13:52:40Z</time>
      </trkpt>
      <trkpt lat="47.09002" lon="5.8269">
        <ele>323</ele>
        <time>2013-07-12T13:53:22Z</time>
      </trkpt>
      <trkpt lat="47.08995" lon="5.82679">
        <ele>323</ele>
        <time>2013-07-12T13:53:57Z</time>
      </trkpt>
      <trkpt lat="47.08986" lon="5.82668">
        <ele>323</ele>
        <time>2013-07-12T13:54:01Z</time>
      </trkpt>
      <trkpt lat="47.0898" lon="5.82658">
        <ele>323</ele>
        <time>2013-07-12T13:54:04Z</time>
      </trkpt>
      <trkpt lat="47.08971" lon="5.82648">
        <ele>323</ele>
        <time>2013-07-12T13:54:07Z</time>
      </trkpt>
      <trkpt lat="47.08961" lon="5.82636">
        <ele>323</ele>
        <time>2013-07-12T13:54:10Z</time>
      </trkpt>
      <trkpt lat="47.08953" lon="5.82624">
        <ele>317</ele>
        <time>2013-07-12T13:54:12Z</time>
      </trkpt>
      <trkpt lat="47.08944" lon="5.8261">
        <ele>317</ele>
        <time>2013-07-12T13:54:14Z</time>
      </trkpt>
      <trkpt lat="47.08937" lon="5.82593">
        <ele>317</ele>
        <time>2013-07-12T13:54:16Z</time>
      </trkpt>
      <trkpt lat="47.08928" lon="5.82576">
        <ele>317</ele>
        <time>2013-07-12T13:54:18Z</time>
      </trkpt>
      <trkpt lat="47.08919" lon="5.82561">
        <ele>317</ele>
        <time>2013-07-12T13:54:20Z</time>
      </trkpt>
      <trkpt lat="47.08908" lon="5.82548">
        <ele>317</ele>
        <time>2013-07-12T13:54:22Z</time>
      </trkpt>
      <trkpt lat="47.08895" lon="5.82537">
        <ele>311</ele>
        <time>2013-07-12T13:54:24Z</time>
      </trkpt>
      <trkpt lat="47.08882" lon="5.82527">
        <ele>311</ele>
        <time>2013-07-12T13:54:26Z</time>
      </trkpt>
      <trkpt lat="47.08868" lon="5.82514">
        <ele>311</ele>
        <time>2013-07-12T13:54:28Z</time>
      </trkpt>
      <trkpt lat="47.08854" lon="5.82498">
        <ele>311</ele>
        <time>2013-07-12T13:54:30Z</time>
      </trkpt>
      <trkpt lat="47.08843" lon="5.8248">
        <ele>311</ele>
        <time>2013-07-12T13:54:32Z</time>
      </trkpt>
      <trkpt lat="47.08832" lon="5.82467">
        <ele>304</ele>
        <time>2013-07-12T13:54:34Z</time>
      </trkpt>
      <trkpt lat="47.08821" lon="5.82454">
        <ele>304</ele>
        <time>2013-07-12T13:54:36Z</time>
      </trkpt>
      <trkpt lat="47.08809" lon="5.82443">
        <ele>304</ele>
        <time>2013-07-12T13:54:38Z</time>
      </trkpt>
      <trkpt lat="47.08797" lon="5.82428">
        <ele>304</ele>
        <time>2013-07-12T13:54:40Z</time>
      </trkpt>
      <trkpt lat="47.08784" lon="5.82416">
        <ele>304</ele>
        <time>2013-07-12T13:54:42Z</time>
      </trkpt>
      <trkpt lat="47.08768" lon="5.82406">
        <ele>304</ele>
        <time>2013-07-12T13:54:44Z</time>
      </trkpt>
      <trkpt lat="47.08753" lon="5.82398">
        <ele>304</ele>
        <time>2013-07-12T13:54:46Z</time>
      </trkpt>
      <trkpt lat="47.08743" lon="5.82394">
        <ele>304</ele>
        <time>2013-07-12T13:54:47Z</time>
      </trkpt>
      <trkpt lat="47.08733" lon="5.82391">
        <ele>304</ele>
        <time>2013-07-12T13:54:48Z</time>
      </trkpt>
      <trkpt lat="47.08722" lon="5.82391">
        <ele>304</ele>
        <time>2013-07-12T13:54:49Z</time>
      </trkpt>
      <trkpt lat="47.08711" lon="5.82392">
        <ele>304</ele>
        <time>2013-07-12T13:54:50Z</time>
      </trkpt>
      <trkpt lat="47.087" lon="5.82396">
        <ele>304</ele>
        <time>2013-07-12T13:54:51Z</time>
      </trkpt>
      <trkpt lat="47.0869" lon="5.824">
        <ele>304</ele>
        <time>2013-07-12T13:54:52Z</time>
      </trkpt>
      <trkpt lat="47.0868" lon="5.82405">
        <ele>304</ele>
        <time>2013-07-12T13:54:53Z</time>
      </trkpt>
      <trkpt lat="47.08668" lon="5.82409">
        <ele>298</ele>
        <time>2013-07-12T13:54:54Z</time>
      </trkpt>
      <trkpt lat="47.08658" lon="5.82415">
        <ele>298</ele>
        <time>2013-07-12T13:54:55Z</time>
      </trkpt>
      <trkpt lat="47.08648" lon="5.82421">
        <ele>298</ele>
        <time>2013-07-12T13:54:56Z</time>
      </trkpt>
      <trkpt lat="47.08637" lon="5.82426">
        <ele>298</ele>
        <time>2013-07-12T13:54:57Z</time>
      </trkpt>
      <trkpt lat="47.08627" lon="5.82432">
        <ele>298</ele>
        <time>2013-07-12T13:54:58Z</time>
      </trkpt>
      <trkpt lat="47.08617" lon="5.82436">
        <ele>298</ele>
        <time>2013-07-12T13:54:59Z</time>
      </trkpt>
      <trkpt lat="47.08606" lon="5.8244">
        <ele>298</ele>
        <time>2013-07-12T13:55:00Z</time>
      </trkpt>
      <trkpt lat="47.08595" lon="5.82445">
        <ele>298</ele>
        <time>2013-07-12T13:55:01Z</time>
      </trkpt>
      <trkpt lat="47.08586" lon="5.82451">
        <ele>298</ele>
        <time>2013-07-12T13:55:02Z</time>
      </trkpt>
      <trkpt lat="47.08578" lon="5.82457">
        <ele>292</ele>
        <time>2013-07-12T13:55:03Z</time>
      </trkpt>
      <trkpt lat="47.0856" lon="5.82467">
        <ele>292</ele>
        <time>2013-07-12T13:55:05Z</time>
      </trkpt>
      <trkpt lat="47.08552" lon="5.82471">
        <ele>292</ele>
        <time>2013-07-12T13:55:06Z</time>
      </trkpt>
      <trkpt lat="47.08543" lon="5.82475">
        <ele>287</ele>
        <time>2013-07-12T13:55:07Z</time>
      </trkpt>
      <trkpt lat="47.08533" lon="5.8248">
        <ele>287</ele>
        <time>2013-07-12T13:55:08Z</time>
      </trkpt>
      <trkpt lat="47.08524" lon="5.82486">
        <ele>287</ele>
        <time>2013-07-12T13:55:09Z</time>
      </trkpt>
      <trkpt lat="47.08516" lon="5.82492">
        <ele>287</ele>
        <time>2013-07-12T13:55:10Z</time>
      </trkpt>
      <trkpt lat="47.08506" lon="5.82497">
        <ele>287</ele>
        <time>2013-07-12T13:55:11Z</time>
      </trkpt>
      <trkpt lat="47.08489" lon="5.82507">
        <ele>287</ele>
        <time>2013-07-12T13:55:13Z</time>
      </trkpt>
      <trkpt lat="47.0848" lon="5.82512">
        <ele>287</ele>
        <time>2013-07-12T13:55:14Z</time>
      </trkpt>
      <trkpt lat="47.0847" lon="5.82514">
        <ele>287</ele>
        <time>2013-07-12T13:55:15Z</time>
      </trkpt>
      <trkpt lat="47.0846" lon="5.82518">
        <ele>287</ele>
        <time>2013-07-12T13:55:16Z</time>
      </trkpt>
      <trkpt lat="47.08452" lon="5.82522">
        <ele>287</ele>
        <time>2013-07-12T13:55:17Z</time>
      </trkpt>
      <trkpt lat="47.08435" lon="5.82532">
        <ele>287</ele>
        <time>2013-07-12T13:55:19Z</time>
      </trkpt>
      <trkpt lat="47.08426" lon="5.82538">
        <ele>287</ele>
        <time>2013-07-12T13:55:20Z</time>
      </trkpt>
      <trkpt lat="47.08418" lon="5.82543">
        <ele>287</ele>
        <time>2013-07-12T13:55:21Z</time>
      </trkpt>
      <trkpt lat="47.08409" lon="5.82549">
        <ele>287</ele>
        <time>2013-07-12T13:55:22Z</time>
      </trkpt>
      <trkpt lat="47.084" lon="5.82553">
        <ele>287</ele>
        <time>2013-07-12T13:55:23Z</time>
      </trkpt>
      <trkpt lat="47.08391" lon="5.82558">
        <ele>287</ele>
        <time>2013-07-12T13:55:24Z</time>
      </trkpt>
      <trkpt lat="47.08382" lon="5.82563">
        <ele>287</ele>
        <time>2013-07-12T13:55:25Z</time>
      </trkpt>
      <trkpt lat="47.08372" lon="5.82568">
        <ele>287</ele>
        <time>2013-07-12T13:55:26Z</time>
      </trkpt>
      <trkpt lat="47.08362" lon="5.82573">
        <ele>287</ele>
        <time>2013-07-12T13:55:27Z</time>
      </trkpt>
      <trkpt lat="47.08352" lon="5.82577">
        <ele>287</ele>
        <time>2013-07-12T13:55:28Z</time>
      </trkpt>
      <trkpt lat="47.08343" lon="5.82581">
        <ele>287</ele>
        <time>2013-07-12T13:55:29Z</time>
      </trkpt>
      <trkpt lat="47.08333" lon="5.82584">
        <ele>287</ele>
        <time>2013-07-12T13:55:30Z</time>
      </trkpt>
      <trkpt lat="47.08324" lon="5.82587">
        <ele>287</ele>
        <time>2013-07-12T13:55:31Z</time>
      </trkpt>
      <trkpt lat="47.08314" lon="5.82591">
        <ele>287</ele>
        <time>2013-07-12T13:55:32Z</time>
      </trkpt>
      <trkpt lat="47.08306" lon="5.82594">
        <ele>287</ele>
        <time>2013-07-12T13:55:33Z</time>
      </trkpt>
      <trkpt lat="47.08297" lon="5.82598">
        <ele>287</ele>
        <time>2013-07-12T13:55:34Z</time>
      </trkpt>
      <trkpt lat="47.08287" lon="5.82601">
        <ele>287</ele>
        <time>2013-07-12T13:55:35Z</time>
      </trkpt>
      <trkpt lat="47.0827" lon="5.82606">
        <ele>287</ele>
        <time>2013-07-12T13:55:37Z</time>
      </trkpt>
      <trkpt lat="47.08254" lon="5.82611">
        <ele>287</ele>
        <time>2013-07-12T13:55:39Z</time>
      </trkpt>
      <trkpt lat="47.08241" lon="5.82616">
        <ele>287</ele>
        <time>2013-07-12T13:55:41Z</time>
      </trkpt>
      <trkpt lat="47.08229" lon="5.8262">
        <ele>287</ele>
        <time>2013-07-12T13:55:43Z</time>
      </trkpt>
      <trkpt lat="47.08217" lon="5.82624">
        <ele>287</ele>
        <time>2013-07-12T13:55:45Z</time>
      </trkpt>
      <trkpt lat="47.08205" lon="5.82628">
        <ele>287</ele>
        <time>2013-07-12T13:55:47Z</time>
      </trkpt>
      <trkpt lat="47.08193" lon="5.82629">
        <ele>287</ele>
        <time>2013-07-12T13:55:49Z</time>
      </trkpt>
      <trkpt lat="47.0818" lon="5.8263">
        <ele>287</ele>
        <time>2013-07-12T13:55:51Z</time>
      </trkpt>
      <trkpt lat="47.08167" lon="5.82628">
        <ele>287</ele>
        <time>2013-07-12T13:55:53Z</time>
      </trkpt>
      <trkpt lat="47.08154" lon="5.82623">
        <ele>287</ele>
        <time>2013-07-12T13:55:55Z</time>
      </trkpt>
      <trkpt lat="47.0814" lon="5.82615">
        <ele>287</ele>
        <time>2013-07-12T13:55:57Z</time>
      </trkpt>
      <trkpt lat="47.08127" lon="5.82605">
        <ele>287</ele>
        <time>2013-07-12T13:55:59Z</time>
      </trkpt>
      <trkpt lat="47.08114" lon="5.82596">
        <ele>287</ele>
        <time>2013-07-12T13:56:01Z</time>
      </trkpt>
      <trkpt lat="47.08102" lon="5.82586">
        <ele>287</ele>
        <time>2013-07-12T13:56:03Z</time>
      </trkpt>
      <trkpt lat="47.08089" lon="5.82576">
        <ele>287</ele>
        <time>2013-07-12T13:56:05Z</time>
      </trkpt>
      <trkpt lat="47.08075" lon="5.82567">
        <ele>287</ele>
        <time>2013-07-12T13:56:07Z</time>
      </trkpt>
      <trkpt lat="47.08063" lon="5.8256">
        <ele>287</ele>
        <time>2013-07-12T13:56:09Z</time>
      </trkpt>
      <trkpt lat="47.08047" lon="5.82553">
        <ele>287</ele>
        <time>2013-07-12T13:56:11Z</time>
      </trkpt>
      <trkpt lat="47.08032" lon="5.82542">
        <ele>287</ele>
        <time>2013-07-12T13:56:13Z</time>
      </trkpt>
      <trkpt lat="47.08017" lon="5.82531">
        <ele>287</ele>
        <time>2013-07-12T13:56:15Z</time>
      </trkpt>
      <trkpt lat="47.08008" lon="5.82524">
        <ele>287</ele>
        <time>2013-07-12T13:56:16Z</time>
      </trkpt>
      <trkpt lat="47.08" lon="5.82519">
        <ele>287</ele>
        <time>2013-07-12T13:56:17Z</time>
      </trkpt>
      <trkpt lat="47.0799" lon="5.82513">
        <ele>287</ele>
        <time>2013-07-12T13:56:18Z</time>
      </trkpt>
      <trkpt lat="47.07981" lon="5.82506">
        <ele>287</ele>
        <time>2013-07-12T13:56:19Z</time>
      </trkpt>
      <trkpt lat="47.07971" lon="5.825">
        <ele>287</ele>
        <time>2013-07-12T13:56:20Z</time>
      </trkpt>
      <trkpt lat="47.07955" lon="5.82488">
        <ele>287</ele>
        <time>2013-07-12T13:56:22Z</time>
      </trkpt>
      <trkpt lat="47.07941" lon="5.82477">
        <ele>287</ele>
        <time>2013-07-12T13:56:24Z</time>
      </trkpt>
      <trkpt lat="47.07933" lon="5.82471">
        <ele>287</ele>
        <time>2013-07-12T13:56:25Z</time>
      </trkpt>
      <trkpt lat="47.07915" lon="5.82462">
        <ele>287</ele>
        <time>2013-07-12T13:56:27Z</time>
      </trkpt>
      <trkpt lat="47.07906" lon="5.82459">
        <ele>287</ele>
        <time>2013-07-12T13:56:28Z</time>
      </trkpt>
      <trkpt lat="47.07892" lon="5.8245">
        <ele>287</ele>
        <time>2013-07-12T13:56:30Z</time>
      </trkpt>
      <trkpt lat="47.07878" lon="5.82441">
        <ele>287</ele>
        <time>2013-07-12T13:56:32Z</time>
      </trkpt>
      <trkpt lat="47.07865" lon="5.82433">
        <ele>287</ele>
        <time>2013-07-12T13:56:34Z</time>
      </trkpt>
      <trkpt lat="47.07851" lon="5.82426">
        <ele>287</ele>
        <time>2013-07-12T13:56:36Z</time>
      </trkpt>
      <trkpt lat="47.07837" lon="5.82421">
        <ele>287</ele>
        <time>2013-07-12T13:56:38Z</time>
      </trkpt>
      <trkpt lat="47.07822" lon="5.82419">
        <ele>287</ele>
        <time>2013-07-12T13:56:40Z</time>
      </trkpt>
      <trkpt lat="47.07806" lon="5.8242">
        <ele>287</ele>
        <time>2013-07-12T13:56:42Z</time>
      </trkpt>
      <trkpt lat="47.07789" lon="5.82422">
        <ele>281</ele>
        <time>2013-07-12T13:56:44Z</time>
      </trkpt>
      <trkpt lat="47.0778" lon="5.82423">
        <ele>281</ele>
        <time>2013-07-12T13:56:45Z</time>
      </trkpt>
      <trkpt lat="47.07771" lon="5.82424">
        <ele>281</ele>
        <time>2013-07-12T13:56:46Z</time>
      </trkpt>
      <trkpt lat="47.07762" lon="5.82425">
        <ele>281</ele>
        <time>2013-07-12T13:56:47Z</time>
      </trkpt>
      <trkpt lat="47.07744" lon="5.82428">
        <ele>281</ele>
        <time>2013-07-12T13:56:49Z</time>
      </trkpt>
      <trkpt lat="47.07727" lon="5.8243">
        <ele>281</ele>
        <time>2013-07-12T13:56:51Z</time>
      </trkpt>
      <trkpt lat="47.07717" lon="5.82431">
        <ele>281</ele>
        <time>2013-07-12T13:56:52Z</time>
      </trkpt>
      <trkpt lat="47.07707" lon="5.82432">
        <ele>281</ele>
        <time>2013-07-12T13:56:53Z</time>
      </trkpt>
      <trkpt lat="47.07697" lon="5.82434">
        <ele>281</ele>
        <time>2013-07-12T13:56:54Z</time>
      </trkpt>
      <trkpt lat="47.07687" lon="5.82434">
        <ele>281</ele>
        <time>2013-07-12T13:56:55Z</time>
      </trkpt>
      <trkpt lat="47.07676" lon="5.82435">
        <ele>281</ele>
        <time>2013-07-12T13:56:56Z</time>
      </trkpt>
      <trkpt lat="47.07665" lon="5.82435">
        <ele>281</ele>
        <time>2013-07-12T13:56:57Z</time>
      </trkpt>
      <trkpt lat="47.07654" lon="5.82434">
        <ele>276</ele>
        <time>2013-07-12T13:56:58Z</time>
      </trkpt>
      <trkpt lat="47.07642" lon="5.82433">
        <ele>276</ele>
        <time>2013-07-12T13:56:59Z</time>
      </trkpt>
      <trkpt lat="47.07631" lon="5.8243">
        <ele>276</ele>
        <time>2013-07-12T13:57:00Z</time>
      </trkpt>
      <trkpt lat="47.0762" lon="5.82425">
        <ele>276</ele>
        <time>2013-07-12T13:57:01Z</time>
      </trkpt>
      <trkpt lat="47.07608" lon="5.8242">
        <ele>276</ele>
        <time>2013-07-12T13:57:02Z</time>
      </trkpt>
      <trkpt lat="47.07596" lon="5.82412">
        <ele>276</ele>
        <time>2013-07-12T13:57:03Z</time>
      </trkpt>
      <trkpt lat="47.07585" lon="5.82404">
        <ele>271</ele>
        <time>2013-07-12T13:57:04Z</time>
      </trkpt>
      <trkpt lat="47.07575" lon="5.82395">
        <ele>271</ele>
        <time>2013-07-12T13:57:05Z</time>
      </trkpt>
      <trkpt lat="47.07564" lon="5.82385">
        <ele>271</ele>
        <time>2013-07-12T13:57:06Z</time>
      </trkpt>
      <trkpt lat="47.07554" lon="5.82375">
        <ele>271</ele>
        <time>2013-07-12T13:57:07Z</time>
      </trkpt>
      <trkpt lat="47.07544" lon="5.82365">
        <ele>271</ele>
        <time>2013-07-12T13:57:08Z</time>
      </trkpt>
      <trkpt lat="47.07534" lon="5.82355">
        <ele>271</ele>
        <time>2013-07-12T13:57:09Z</time>
      </trkpt>
      <trkpt lat="47.07525" lon="5.82346">
        <ele>271</ele>
        <time>2013-07-12T13:57:10Z</time>
      </trkpt>
      <trkpt lat="47.07515" lon="5.82337">
        <ele>271</ele>
        <time>2013-07-12T13:57:11Z</time>
      </trkpt>
      <trkpt lat="47.07506" lon="5.82328">
        <ele>271</ele>
        <time>2013-07-12T13:57:12Z</time>
      </trkpt>
      <trkpt lat="47.07496" lon="5.82319">
        <ele>271</ele>
        <time>2013-07-12T13:57:13Z</time>
      </trkpt>
      <trkpt lat="47.07486" lon="5.82311">
        <ele>271</ele>
        <time>2013-07-12T13:57:14Z</time>
      </trkpt>
      <trkpt lat="47.07476" lon="5.82304">
        <ele>271</ele>
        <time>2013-07-12T13:57:15Z</time>
      </trkpt>
      <trkpt lat="47.07466" lon="5.82297">
        <ele>271</ele>
        <time>2013-07-12T13:57:16Z</time>
      </trkpt>
      <trkpt lat="47.07457" lon="5.82291">
        <ele>271</ele>
        <time>2013-07-12T13:57:17Z</time>
      </trkpt>
      <trkpt lat="47.07446" lon="5.82286">
        <ele>271</ele>
        <time>2013-07-12T13:57:18Z</time>
      </trkpt>
      <trkpt lat="47.07436" lon="5.82283">
        <ele>271</ele>
        <time>2013-07-12T13:57:19Z</time>
      </trkpt>
      <trkpt lat="47.07426" lon="5.82281">
        <ele>271</ele>
        <time>2013-07-12T13:57:20Z</time>
      </trkpt>
      <trkpt lat="47.07415" lon="5.8228">
        <ele>271</ele>
        <time>2013-07-12T13:57:21Z</time>
      </trkpt>
      <trkpt lat="47.07405" lon="5.8228">
        <ele>271</ele>
        <time>2013-07-12T13:57:22Z</time>
      </trkpt>
      <trkpt lat="47.07395" lon="5.82281">
        <ele>271</ele>
        <time>2013-07-12T13:57:23Z</time>
      </trkpt>
      <trkpt lat="47.07386" lon="5.82281">
        <ele>271</ele>
        <time>2013-07-12T13:57:24Z</time>
      </trkpt>
      <trkpt lat="47.07369" lon="5.82279">
        <ele>271</ele>
        <time>2013-07-12T13:57:26Z</time>
      </trkpt>
      <trkpt lat="47.07353" lon="5.82272">
        <ele>271</ele>
        <time>2013-07-12T13:57:28Z</time>
      </trkpt>
      <trkpt lat="47.07337" lon="5.82262">
        <ele>271</ele>
        <time>2013-07-12T13:57:30Z</time>
      </trkpt>
      <trkpt lat="47.07329" lon="5.82256">
        <ele>271</ele>
        <time>2013-07-12T13:57:31Z</time>
      </trkpt>
      <trkpt lat="47.07314" lon="5.82244">
        <ele>271</ele>
        <time>2013-07-12T13:57:33Z</time>
      </trkpt>
      <trkpt lat="47.07306" lon="5.82239">
        <ele>271</ele>
        <time>2013-07-12T13:57:34Z</time>
      </trkpt>
      <trkpt lat="47.07298" lon="5.82232">
        <ele>271</ele>
        <time>2013-07-12T13:57:35Z</time>
      </trkpt>
      <trkpt lat="47.07289" lon="5.82225">
        <ele>271</ele>
        <time>2013-07-12T13:57:36Z</time>
      </trkpt>
      <trkpt lat="47.07281" lon="5.82219">
        <ele>271</ele>
        <time>2013-07-12T13:57:37Z</time>
      </trkpt>
      <trkpt lat="47.07272" lon="5.82213">
        <ele>271</ele>
        <time>2013-07-12T13:57:38Z</time>
      </trkpt>
      <trkpt lat="47.07264" lon="5.82207">
        <ele>271</ele>
        <time>2013-07-12T13:57:39Z</time>
      </trkpt>
      <trkpt lat="47.07256" lon="5.82201">
        <ele>271</ele>
        <time>2013-07-12T13:57:40Z</time>
      </trkpt>
      <trkpt lat="47.07247" lon="5.82195">
        <ele>271</ele>
        <time>2013-07-12T13:57:41Z</time>
      </trkpt>
      <trkpt lat="47.07239" lon="5.82188">
        <ele>271</ele>
        <time>2013-07-12T13:57:42Z</time>
      </trkpt>
      <trkpt lat="47.0723" lon="5.82182">
        <ele>271</ele>
        <time>2013-07-12T13:57:43Z</time>
      </trkpt>
      <trkpt lat="47.07221" lon="5.82175">
        <ele>271</ele>
        <time>2013-07-12T13:57:44Z</time>
      </trkpt>
      <trkpt lat="47.07213" lon="5.82169">
        <ele>271</ele>
        <time>2013-07-12T13:57:45Z</time>
      </trkpt>
      <trkpt lat="47.07204" lon="5.82161">
        <ele>271</ele>
        <time>2013-07-12T13:57:46Z</time>
      </trkpt>
      <trkpt lat="47.07195" lon="5.82154">
        <ele>271</ele>
        <time>2013-07-12T13:57:47Z</time>
      </trkpt>
      <trkpt lat="47.07186" lon="5.82147">
        <ele>271</ele>
        <time>2013-07-12T13:57:48Z</time>
      </trkpt>
      <trkpt lat="47.07178" lon="5.8214">
        <ele>271</ele>
        <time>2013-07-12T13:57:49Z</time>
      </trkpt>
      <trkpt lat="47.07169" lon="5.82133">
        <ele>271</ele>
        <time>2013-07-12T13:57:50Z</time>
      </trkpt>
      <trkpt lat="47.07161" lon="5.82125">
        <ele>271</ele>
        <time>2013-07-12T13:57:51Z</time>
      </trkpt>
      <trkpt lat="47.07152" lon="5.82117">
        <ele>271</ele>
        <time>2013-07-12T13:57:52Z</time>
      </trkpt>
      <trkpt lat="47.07144" lon="5.8211">
        <ele>271</ele>
        <time>2013-07-12T13:57:53Z</time>
      </trkpt>
      <trkpt lat="47.07135" lon="5.82103">
        <ele>266</ele>
        <time>2013-07-12T13:57:54Z</time>
      </trkpt>
      <trkpt lat="47.07126" lon="5.82097">
        <ele>266</ele>
        <time>2013-07-12T13:57:55Z</time>
      </trkpt>
      <trkpt lat="47.07116" lon="5.82091">
        <ele>266</ele>
        <time>2013-07-12T13:57:56Z</time>
      </trkpt>
      <trkpt lat="47.07106" lon="5.82086">
        <ele>266</ele>
        <time>2013-07-12T13:57:57Z</time>
      </trkpt>
      <trkpt lat="47.07096" lon="5.82081">
        <ele>266</ele>
        <time>2013-07-12T13:57:58Z</time>
      </trkpt>
      <trkpt lat="47.07086" lon="5.82077">
        <ele>266</ele>
        <time>2013-07-12T13:57:59Z</time>
      </trkpt>
      <trkpt lat="47.07075" lon="5.82072">
        <ele>266</ele>
        <time>2013-07-12T13:58:00Z</time>
      </trkpt>
      <trkpt lat="47.07065" lon="5.82069">
        <ele>266</ele>
        <time>2013-07-12T13:58:01Z</time>
      </trkpt>
      <trkpt lat="47.07054" lon="5.82064">
        <ele>260</ele>
        <time>2013-07-12T13:58:02Z</time>
      </trkpt>
      <trkpt lat="47.07043" lon="5.8206">
        <ele>260</ele>
        <time>2013-07-12T13:58:03Z</time>
      </trkpt>
      <trkpt lat="47.07033" lon="5.82056">
        <ele>260</ele>
        <time>2013-07-12T13:58:04Z</time>
      </trkpt>
      <trkpt lat="47.07023" lon="5.82052">
        <ele>260</ele>
        <time>2013-07-12T13:58:05Z</time>
      </trkpt>
      <trkpt lat="47.07012" lon="5.82047">
        <ele>260</ele>
        <time>2013-07-12T13:58:06Z</time>
      </trkpt>
      <trkpt lat="47.07002" lon="5.82044">
        <ele>260</ele>
        <time>2013-07-12T13:58:07Z</time>
      </trkpt>
      <trkpt lat="47.06993" lon="5.8204">
        <ele>260</ele>
        <time>2013-07-12T13:58:08Z</time>
      </trkpt>
      <trkpt lat="47.06982" lon="5.82037">
        <ele>260</ele>
        <time>2013-07-12T13:58:09Z</time>
      </trkpt>
      <trkpt lat="47.06972" lon="5.82034">
        <ele>260</ele>
        <time>2013-07-12T13:58:10Z</time>
      </trkpt>
      <trkpt lat="47.06961" lon="5.82032">
        <ele>260</ele>
        <time>2013-07-12T13:58:11Z</time>
      </trkpt>
      <trkpt lat="47.06951" lon="5.82029">
        <ele>260</ele>
        <time>2013-07-12T13:58:12Z</time>
      </trkpt>
      <trkpt lat="47.06941" lon="5.82027">
        <ele>260</ele>
        <time>2013-07-12T13:58:13Z</time>
      </trkpt>
      <trkpt lat="47.06931" lon="5.82025">
        <ele>260</ele>
        <time>2013-07-12T13:58:14Z</time>
      </trkpt>
      <trkpt lat="47.0692" lon="5.82022">
        <ele>260</ele>
        <time>2013-07-12T13:58:15Z</time>
      </trkpt>
      <trkpt lat="47.0691" lon="5.82019">
        <ele>260</ele>
        <time>2013-07-12T13:58:16Z</time>
      </trkpt>
      <trkpt lat="47.069" lon="5.82014">
        <ele>260</ele>
        <time>2013-07-12T13:58:17Z</time>
      </trkpt>
      <trkpt lat="47.06889" lon="5.8201">
        <ele>260</ele>
        <time>2013-07-12T13:58:18Z</time>
      </trkpt>
      <trkpt lat="47.0688" lon="5.82005">
        <ele>260</ele>
        <time>2013-07-12T13:58:19Z</time>
      </trkpt>
      <trkpt lat="47.0687" lon="5.82001">
        <ele>260</ele>
        <time>2013-07-12T13:58:20Z</time>
      </trkpt>
      <trkpt lat="47.06861" lon="5.81995">
        <ele>260</ele>
        <time>2013-07-12T13:58:21Z</time>
      </trkpt>
      <trkpt lat="47.06851" lon="5.81991">
        <ele>260</ele>
        <time>2013-07-12T13:58:22Z</time>
      </trkpt>
      <trkpt lat="47.06843" lon="5.81984">
        <ele>260</ele>
        <time>2013-07-12T13:58:23Z</time>
      </trkpt>
      <trkpt lat="47.06834" lon="5.81979">
        <ele>260</ele>
        <time>2013-07-12T13:58:24Z</time>
      </trkpt>
      <trkpt lat="47.06825" lon="5.81972">
        <ele>260</ele>
        <time>2013-07-12T13:58:25Z</time>
      </trkpt>
      <trkpt lat="47.06816" lon="5.81965">
        <ele>260</ele>
        <time>2013-07-12T13:58:26Z</time>
      </trkpt>
      <trkpt lat="47.06808" lon="5.81957">
        <ele>260</ele>
        <time>2013-07-12T13:58:27Z</time>
      </trkpt>
      <trkpt lat="47.068" lon="5.8195">
        <ele>260</ele>
        <time>2013-07-12T13:58:28Z</time>
      </trkpt>
      <trkpt lat="47.06792" lon="5.81942">
        <ele>260</ele>
        <time>2013-07-12T13:58:29Z</time>
      </trkpt>
      <trkpt lat="47.06783" lon="5.81935">
        <ele>260</ele>
        <time>2013-07-12T13:58:30Z</time>
      </trkpt>
      <trkpt lat="47.06774" lon="5.81927">
        <ele>260</ele>
        <time>2013-07-12T13:58:31Z</time>
      </trkpt>
      <trkpt lat="47.06765" lon="5.81919">
        <ele>260</ele>
        <time>2013-07-12T13:58:32Z</time>
      </trkpt>
      <trkpt lat="47.06756" lon="5.81912">
        <ele>260</ele>
        <time>2013-07-12T13:58:33Z</time>
      </trkpt>
      <trkpt lat="47.06748" lon="5.81904">
        <ele>260</ele>
        <time>2013-07-12T13:58:34Z</time>
      </trkpt>
      <trkpt lat="47.06739" lon="5.81896">
        <ele>255</ele>
        <time>2013-07-12T13:58:35Z</time>
      </trkpt>
      <trkpt lat="47.0673" lon="5.81888">
        <ele>255</ele>
        <time>2013-07-12T13:58:36Z</time>
      </trkpt>
      <trkpt lat="47.06721" lon="5.8188">
        <ele>255</ele>
        <time>2013-07-12T13:58:37Z</time>
      </trkpt>
      <trkpt lat="47.06713" lon="5.81871">
        <ele>255</ele>
        <time>2013-07-12T13:58:38Z</time>
      </trkpt>
      <trkpt lat="47.06704" lon="5.81863">
        <ele>255</ele>
        <time>2013-07-12T13:58:39Z</time>
      </trkpt>
      <trkpt lat="47.06696" lon="5.81853">
        <ele>255</ele>
        <time>2013-07-12T13:58:40Z</time>
      </trkpt>
      <trkpt lat="47.06688" lon="5.81844">
        <ele>255</ele>
        <time>2013-07-12T13:58:41Z</time>
      </trkpt>
      <trkpt lat="47.06679" lon="5.81834">
        <ele>255</ele>
        <time>2013-07-12T13:58:42Z</time>
      </trkpt>
      <trkpt lat="47.06672" lon="5.81824">
        <ele>255</ele>
        <time>2013-07-12T13:58:43Z</time>
      </trkpt>
      <trkpt lat="47.06664" lon="5.81815">
        <ele>255</ele>
        <time>2013-07-12T13:58:44Z</time>
      </trkpt>
      <trkpt lat="47.06656" lon="5.81805">
        <ele>255</ele>
        <time>2013-07-12T13:58:45Z</time>
      </trkpt>
      <trkpt lat="47.06649" lon="5.81795">
        <ele>255</ele>
        <time>2013-07-12T13:58:46Z</time>
      </trkpt>
      <trkpt lat="47.06641" lon="5.81785">
        <ele>255</ele>
        <time>2013-07-12T13:58:47Z</time>
      </trkpt>
      <trkpt lat="47.06633" lon="5.81776">
        <ele>255</ele>
        <time>2013-07-12T13:58:48Z</time>
      </trkpt>
      <trkpt lat="47.06626" lon="5.81767">
        <ele>255</ele>
        <time>2013-07-12T13:58:49Z</time>
      </trkpt>
      <trkpt lat="47.06619" lon="5.81759">
        <ele>255</ele>
        <time>2013-07-12T13:58:50Z</time>
      </trkpt>
      <trkpt lat="47.06611" lon="5.81751">
        <ele>255</ele>
        <time>2013-07-12T13:58:51Z</time>
      </trkpt>
      <trkpt lat="47.06603" lon="5.81743">
        <ele>255</ele>
        <time>2013-07-12T13:58:52Z</time>
      </trkpt>
      <trkpt lat="47.06595" lon="5.81735">
        <ele>255</ele>
        <time>2013-07-12T13:58:53Z</time>
      </trkpt>
      <trkpt lat="47.06588" lon="5.81727">
        <ele>255</ele>
        <time>2013-07-12T13:58:54Z</time>
      </trkpt>
      <trkpt lat="47.06573" lon="5.81711">
        <ele>255</ele>
        <time>2013-07-12T13:58:56Z</time>
      </trkpt>
      <trkpt lat="47.06559" lon="5.81696">
        <ele>255</ele>
        <time>2013-07-12T13:58:58Z</time>
      </trkpt>
      <trkpt lat="47.06544" lon="5.81682">
        <ele>255</ele>
        <time>2013-07-12T13:59:00Z</time>
      </trkpt>
      <trkpt lat="47.06529" lon="5.81669">
        <ele>255</ele>
        <time>2013-07-12T13:59:02Z</time>
      </trkpt>
      <trkpt lat="47.06514" lon="5.81658">
        <ele>255</ele>
        <time>2013-07-12T13:59:04Z</time>
      </trkpt>
      <trkpt lat="47.06497" lon="5.81651">
        <ele>255</ele>
        <time>2013-07-12T13:59:06Z</time>
      </trkpt>
      <trkpt lat="47.06481" lon="5.81647">
        <ele>255</ele>
        <time>2013-07-12T13:59:08Z</time>
      </trkpt>
      <trkpt lat="47.06463" lon="5.81645">
        <ele>255</ele>
        <time>2013-07-12T13:59:10Z</time>
      </trkpt>
      <trkpt lat="47.06448" lon="5.81645">
        <ele>255</ele>
        <time>2013-07-12T13:59:12Z</time>
      </trkpt>
      <trkpt lat="47.06432" lon="5.81647">
        <ele>255</ele>
        <time>2013-07-12T13:59:14Z</time>
      </trkpt>
      <trkpt lat="47.06416" lon="5.8165">
        <ele>255</ele>
        <time>2013-07-12T13:59:16Z</time>
      </trkpt>
      <trkpt lat="47.06401" lon="5.81654">
        <ele>255</ele>
        <time>2013-07-12T13:59:18Z</time>
      </trkpt>
      <trkpt lat="47.06386" lon="5.81656">
        <ele>255</ele>
        <time>2013-07-12T13:59:20Z</time>
      </trkpt>
      <trkpt lat="47.06371" lon="5.81656">
        <ele>255</ele>
        <time>2013-07-12T13:59:22Z</time>
      </trkpt>
      <trkpt lat="47.06356" lon="5.81653">
        <ele>255</ele>
        <time>2013-07-12T13:59:24Z</time>
      </trkpt>
      <trkpt lat="47.06342" lon="5.81648">
        <ele>255</ele>
        <time>2013-07-12T13:59:26Z</time>
      </trkpt>
      <trkpt lat="47.06328" lon="5.81642">
        <ele>255</ele>
        <time>2013-07-12T13:59:28Z</time>
      </trkpt>
      <trkpt lat="47.06315" lon="5.81634">
        <ele>255</ele>
        <time>2013-07-12T13:59:30Z</time>
      </trkpt>
      <trkpt lat="47.06303" lon="5.81627">
        <ele>255</ele>
        <time>2013-07-12T13:59:32Z</time>
      </trkpt>
      <trkpt lat="47.06292" lon="5.81622">
        <ele>261</ele>
        <time>2013-07-12T13:59:34Z</time>
      </trkpt>
      <trkpt lat="47.06277" lon="5.81619">
        <ele>261</ele>
        <time>2013-07-12T13:59:36Z</time>
      </trkpt>
      <trkpt lat="47.06263" lon="5.81617">
        <ele>261</ele>
        <time>2013-07-12T13:59:38Z</time>
      </trkpt>
      <trkpt lat="47.06249" lon="5.81614">
        <ele>261</ele>
        <time>2013-07-12T13:59:40Z</time>
      </trkpt>
      <trkpt lat="47.06236" lon="5.81612">
        <ele>261</ele>
        <time>2013-07-12T13:59:42Z</time>
      </trkpt>
      <trkpt lat="47.06224" lon="5.8161">
        <ele>261</ele>
        <time>2013-07-12T13:59:45Z</time>
      </trkpt>
      <trkpt lat="47.06215" lon="5.81608">
        <ele>261</ele>
        <time>2013-07-12T13:59:48Z</time>
      </trkpt>
      <trkpt lat="47.06204" lon="5.81607">
        <ele>261</ele>
        <time>2013-07-12T13:59:52Z</time>
      </trkpt>
      <trkpt lat="47.06195" lon="5.81608">
        <ele>261</ele>
        <time>2013-07-12T13:59:58Z</time>
      </trkpt>
      <trkpt lat="47.06185" lon="5.81608">
        <ele>261</ele>
        <time>2013-07-12T14:00:33Z</time>
      </trkpt>
      <trkpt lat="47.06177" lon="5.81602">
        <ele>261</ele>
        <time>2013-07-12T14:01:38Z</time>
      </trkpt>
      <trkpt lat="47.0617" lon="5.81614">
        <ele>266</ele>
        <time>2013-07-12T14:01:45Z</time>
      </trkpt>
      <trkpt lat="47.0616" lon="5.81623">
        <ele>266</ele>
        <time>2013-07-12T14:01:48Z</time>
      </trkpt>
      <trkpt lat="47.06149" lon="5.81631">
        <ele>266</ele>
        <time>2013-07-12T14:01:51Z</time>
      </trkpt>
      <trkpt lat="47.0614" lon="5.81639">
        <ele>273</ele>
        <time>2013-07-12T14:01:55Z</time>
      </trkpt>
      <trkpt lat="47.06131" lon="5.81635">
        <ele>273</ele>
        <time>2013-07-12T14:02:13Z</time>
      </trkpt>
      <trkpt lat="47.0613" lon="5.81621">
        <ele>273</ele>
        <time>2013-07-12T14:02:16Z</time>
      </trkpt>
      <trkpt lat="47.06129" lon="5.81604">
        <ele>267</ele>
        <time>2013-07-12T14:02:19Z</time>
      </trkpt>
      <trkpt lat="47.06127" lon="5.81586">
        <ele>267</ele>
        <time>2013-07-12T14:02:22Z</time>
      </trkpt>
      <trkpt lat="47.06124" lon="5.8157">
        <ele>267</ele>
        <time>2013-07-12T14:02:25Z</time>
      </trkpt>
      <trkpt lat="47.06118" lon="5.81555">
        <ele>267</ele>
        <time>2013-07-12T14:02:28Z</time>
      </trkpt>
      <trkpt lat="47.06109" lon="5.81545">
        <ele>262</ele>
        <time>2013-07-12T14:02:30Z</time>
      </trkpt>
      <trkpt lat="47.06099" lon="5.81533">
        <ele>262</ele>
        <time>2013-07-12T14:02:32Z</time>
      </trkpt>
      <trkpt lat="47.06089" lon="5.81519">
        <ele>262</ele>
        <time>2013-07-12T14:02:34Z</time>
      </trkpt>
      <trkpt lat="47.06079" lon="5.81505">
        <ele>262</ele>
        <time>2013-07-12T14:02:36Z</time>
      </trkpt>
      <trkpt lat="47.06069" lon="5.81491">
        <ele>262</ele>
        <time>2013-07-12T14:02:38Z</time>
      </trkpt>
      <trkpt lat="47.0606" lon="5.81479">
        <ele>262</ele>
        <time>2013-07-12T14:02:40Z</time>
      </trkpt>
      <trkpt lat="47.06051" lon="5.81465">
        <ele>262</ele>
        <time>2013-07-12T14:02:42Z</time>
      </trkpt>
      <trkpt lat="47.06043" lon="5.81452">
        <ele>262</ele>
        <time>2013-07-12T14:02:44Z</time>
      </trkpt>
      <trkpt lat="47.06035" lon="5.81437">
        <ele>262</ele>
        <time>2013-07-12T14:02:46Z</time>
      </trkpt>
      <trkpt lat="47.06028" lon="5.81423">
        <ele>262</ele>
        <time>2013-07-12T14:02:48Z</time>
      </trkpt>
      <trkpt lat="47.06023" lon="5.81409">
        <ele>262</ele>
        <time>2013-07-12T14:02:50Z</time>
      </trkpt>
      <trkpt lat="47.06017" lon="5.81394">
        <ele>262</ele>
        <time>2013-07-12T14:02:52Z</time>
      </trkpt>
      <trkpt lat="47.06009" lon="5.8138">
        <ele>262</ele>
        <time>2013-07-12T14:02:54Z</time>
      </trkpt>
      <trkpt lat="47.06002" lon="5.81366">
        <ele>256</ele>
        <time>2013-07-12T14:02:56Z</time>
      </trkpt>
      <trkpt lat="47.05996" lon="5.81352">
        <ele>256</ele>
        <time>2013-07-12T14:02:58Z</time>
      </trkpt>
      <trkpt lat="47.0599" lon="5.81338">
        <ele>256</ele>
        <time>2013-07-12T14:03:00Z</time>
      </trkpt>
      <trkpt lat="47.05983" lon="5.81322">
        <ele>256</ele>
        <time>2013-07-12T14:03:02Z</time>
      </trkpt>
      <trkpt lat="47.05977" lon="5.81306">
        <ele>256</ele>
        <time>2013-07-12T14:03:04Z</time>
      </trkpt>
      <trkpt lat="47.05971" lon="5.81289">
        <ele>256</ele>
        <time>2013-07-12T14:03:06Z</time>
      </trkpt>
      <trkpt lat="47.05963" lon="5.81273">
        <ele>256</ele>
        <time>2013-07-12T14:03:08Z</time>
      </trkpt>
      <trkpt lat="47.05955" lon="5.81256">
        <ele>256</ele>
        <time>2013-07-12T14:03:10Z</time>
      </trkpt>
      <trkpt lat="47.05948" lon="5.81238">
        <ele>256</ele>
        <time>2013-07-12T14:03:12Z</time>
      </trkpt>
      <trkpt lat="47.05942" lon="5.8122">
        <ele>256</ele>
        <time>2013-07-12T14:03:14Z</time>
      </trkpt>
      <trkpt lat="47.05935" lon="5.81202">
        <ele>256</ele>
        <time>2013-07-12T14:03:16Z</time>
      </trkpt>
      <trkpt lat="47.05929" lon="5.81184">
        <ele>256</ele>
        <time>2013-07-12T14:03:18Z</time>
      </trkpt>
      <trkpt lat="47.05921" lon="5.81169">
        <ele>256</ele>
        <time>2013-07-12T14:03:20Z</time>
      </trkpt>
      <trkpt lat="47.05913" lon="5.81154">
        <ele>256</ele>
        <time>2013-07-12T14:03:22Z</time>
      </trkpt>
      <trkpt lat="47.05904" lon="5.81141">
        <ele>256</ele>
        <time>2013-07-12T14:03:24Z</time>
      </trkpt>
      <trkpt lat="47.05896" lon="5.81128">
        <ele>256</ele>
        <time>2013-07-12T14:03:26Z</time>
      </trkpt>
      <trkpt lat="47.05887" lon="5.81115">
        <ele>256</ele>
        <time>2013-07-12T14:03:28Z</time>
      </trkpt>
      <trkpt lat="47.05878" lon="5.81102">
        <ele>256</ele>
        <time>2013-07-12T14:03:30Z</time>
      </trkpt>
      <trkpt lat="47.05869" lon="5.8109">
        <ele>256</ele>
        <time>2013-07-12T14:03:32Z</time>
      </trkpt>
      <trkpt lat="47.05859" lon="5.81077">
        <ele>256</ele>
        <time>2013-07-12T14:03:34Z</time>
      </trkpt>
      <trkpt lat="47.05851" lon="5.81065">
        <ele>256</ele>
        <time>2013-07-12T14:03:36Z</time>
      </trkpt>
      <trkpt lat="47.05843" lon="5.81053">
        <ele>256</ele>
        <time>2013-07-12T14:03:38Z</time>
      </trkpt>
      <trkpt lat="47.05834" lon="5.81041">
        <ele>256</ele>
        <time>2013-07-12T14:03:40Z</time>
      </trkpt>
      <trkpt lat="47.05825" lon="5.81029">
        <ele>256</ele>
        <time>2013-07-12T14:03:42Z</time>
      </trkpt>
      <trkpt lat="47.05815" lon="5.81019">
        <ele>256</ele>
        <time>2013-07-12T14:03:44Z</time>
      </trkpt>
      <trkpt lat="47.05805" lon="5.81009">
        <ele>256</ele>
        <time>2013-07-12T14:03:46Z</time>
      </trkpt>
      <trkpt lat="47.05793" lon="5.80999">
        <ele>256</ele>
        <time>2013-07-12T14:03:48Z</time>
      </trkpt>
      <trkpt lat="47.05779" lon="5.80989">
        <ele>256</ele>
        <time>2013-07-12T14:03:50Z</time>
      </trkpt>
      <trkpt lat="47.05766" lon="5.80981">
        <ele>256</ele>
        <time>2013-07-12T14:03:52Z</time>
      </trkpt>
      <trkpt lat="47.05751" lon="5.80972">
        <ele>256</ele>
        <time>2013-07-12T14:03:54Z</time>
      </trkpt>
      <trkpt lat="47.05736" lon="5.80965">
        <ele>256</ele>
        <time>2013-07-12T14:03:56Z</time>
      </trkpt>
      <trkpt lat="47.05722" lon="5.80957">
        <ele>256</ele>
        <time>2013-07-12T14:03:58Z</time>
      </trkpt>
      <trkpt lat="47.05708" lon="5.80949">
        <ele>256</ele>
        <time>2013-07-12T14:04:00Z</time>
      </trkpt>
      <trkpt lat="47.05696" lon="5.80941">
        <ele>256</ele>
        <time>2013-07-12T14:04:02Z</time>
      </trkpt>
      <trkpt lat="47.05683" lon="5.80934">
        <ele>256</ele>
        <time>2013-07-12T14:04:04Z</time>
      </trkpt>
      <trkpt lat="47.0567" lon="5.80926">
        <ele>256</ele>
        <time>2013-07-12T14:04:06Z</time>
      </trkpt>
      <trkpt lat="47.05657" lon="5.80918">
        <ele>256</ele>
        <time>2013-07-12T14:04:08Z</time>
      </trkpt>
      <trkpt lat="47.05645" lon="5.8091">
        <ele>256</ele>
        <time>2013-07-12T14:04:10Z</time>
      </trkpt>
      <trkpt lat="47.05633" lon="5.809">
        <ele>256</ele>
        <time>2013-07-12T14:04:12Z</time>
      </trkpt>
      <trkpt lat="47.05621" lon="5.80889">
        <ele>256</ele>
        <time>2013-07-12T14:04:14Z</time>
      </trkpt>
      <trkpt lat="47.0561" lon="5.80877">
        <ele>256</ele>
        <time>2013-07-12T14:04:16Z</time>
      </trkpt>
      <trkpt lat="47.05598" lon="5.80863">
        <ele>256</ele>
        <time>2013-07-12T14:04:18Z</time>
      </trkpt>
      <trkpt lat="47.05586" lon="5.8085">
        <ele>256</ele>
        <time>2013-07-12T14:04:20Z</time>
      </trkpt>
      <trkpt lat="47.05575" lon="5.80837">
        <ele>256</ele>
        <time>2013-07-12T14:04:22Z</time>
      </trkpt>
      <trkpt lat="47.05564" lon="5.80824">
        <ele>256</ele>
        <time>2013-07-12T14:04:24Z</time>
      </trkpt>
      <trkpt lat="47.05552" lon="5.8081">
        <ele>256</ele>
        <time>2013-07-12T14:04:26Z</time>
      </trkpt>
      <trkpt lat="47.0554" lon="5.80796">
        <ele>256</ele>
        <time>2013-07-12T14:04:28Z</time>
      </trkpt>
      <trkpt lat="47.05528" lon="5.80782">
        <ele>256</ele>
        <time>2013-07-12T14:04:30Z</time>
      </trkpt>
      <trkpt lat="47.05516" lon="5.80767">
        <ele>256</ele>
        <time>2013-07-12T14:04:32Z</time>
      </trkpt>
      <trkpt lat="47.05503" lon="5.80752">
        <ele>256</ele>
        <time>2013-07-12T14:04:34Z</time>
      </trkpt>
      <trkpt lat="47.0549" lon="5.80736">
        <ele>256</ele>
        <time>2013-07-12T14:04:36Z</time>
      </trkpt>
      <trkpt lat="47.05477" lon="5.8072">
        <ele>256</ele>
        <time>2013-07-12T14:04:38Z</time>
      </trkpt>
      <trkpt lat="47.05465" lon="5.80702">
        <ele>256</ele>
        <time>2013-07-12T14:04:40Z</time>
      </trkpt>
      <trkpt lat="47.05452" lon="5.80685">
        <ele>256</ele>
        <time>2013-07-12T14:04:42Z</time>
      </trkpt>
      <trkpt lat="47.0544" lon="5.80668">
        <ele>256</ele>
        <time>2013-07-12T14:04:44Z</time>
      </trkpt>
      <trkpt lat="47.05428" lon="5.80651">
        <ele>256</ele>
        <time>2013-07-12T14:04:46Z</time>
      </trkpt>
      <trkpt lat="47.05416" lon="5.80635">
        <ele>256</ele>
        <time>2013-07-12T14:04:48Z</time>
      </trkpt>
      <trkpt lat="47.05404" lon="5.80622">
        <ele>256</ele>
        <time>2013-07-12T14:04:50Z</time>
      </trkpt>
      <trkpt lat="47.05391" lon="5.80608">
        <ele>256</ele>
        <time>2013-07-12T14:04:52Z</time>
      </trkpt>
      <trkpt lat="47.05378" lon="5.80596">
        <ele>256</ele>
        <time>2013-07-12T14:04:54Z</time>
      </trkpt>
      <trkpt lat="47.05364" lon="5.80586">
        <ele>256</ele>
        <time>2013-07-12T14:04:56Z</time>
      </trkpt>
      <trkpt lat="47.0535" lon="5.80575">
        <ele>256</ele>
        <time>2013-07-12T14:04:58Z</time>
      </trkpt>
      <trkpt lat="47.05337" lon="5.80563">
        <ele>256</ele>
        <time>2013-07-12T14:05:00Z</time>
      </trkpt>
      <trkpt lat="47.05323" lon="5.80552">
        <ele>256</ele>
        <time>2013-07-12T14:05:02Z</time>
      </trkpt>
      <trkpt lat="47.05309" lon="5.80539">
        <ele>256</ele>
        <time>2013-07-12T14:05:04Z</time>
      </trkpt>
      <trkpt lat="47.05294" lon="5.80525">
        <ele>256</ele>
        <time>2013-07-12T14:05:06Z</time>
      </trkpt>
      <trkpt lat="47.05287" lon="5.80517">
        <ele>256</ele>
        <time>2013-07-12T14:05:07Z</time>
      </trkpt>
      <trkpt lat="47.05279" lon="5.80508">
        <ele>256</ele>
        <time>2013-07-12T14:05:08Z</time>
      </trkpt>
      <trkpt lat="47.05272" lon="5.805">
        <ele>256</ele>
        <time>2013-07-12T14:05:09Z</time>
      </trkpt>
      <trkpt lat="47.05264" lon="5.80491">
        <ele>256</ele>
        <time>2013-07-12T14:05:10Z</time>
      </trkpt>
      <trkpt lat="47.05257" lon="5.80483">
        <ele>256</ele>
        <time>2013-07-12T14:05:11Z</time>
      </trkpt>
      <trkpt lat="47.05249" lon="5.80474">
        <ele>256</ele>
        <time>2013-07-12T14:05:12Z</time>
      </trkpt>
      <trkpt lat="47.05241" lon="5.80465">
        <ele>256</ele>
        <time>2013-07-12T14:05:13Z</time>
      </trkpt>
      <trkpt lat="47.05232" lon="5.80457">
        <ele>256</ele>
        <time>2013-07-12T14:05:14Z</time>
      </trkpt>
      <trkpt lat="47.05224" lon="5.80449">
        <ele>256</ele>
        <time>2013-07-12T14:05:15Z</time>
      </trkpt>
      <trkpt lat="47.05215" lon="5.80442">
        <ele>256</ele>
        <time>2013-07-12T14:05:16Z</time>
      </trkpt>
      <trkpt lat="47.05206" lon="5.80435">
        <ele>256</ele>
        <time>2013-07-12T14:05:17Z</time>
      </trkpt>
      <trkpt lat="47.05197" lon="5.80427">
        <ele>256</ele>
        <time>2013-07-12T14:05:18Z</time>
      </trkpt>
      <trkpt lat="47.05188" lon="5.80419">
        <ele>256</ele>
        <time>2013-07-12T14:05:19Z</time>
      </trkpt>
      <trkpt lat="47.05179" lon="5.80411">
        <ele>256</ele>
        <time>2013-07-12T14:05:20Z</time>
      </trkpt>
      <trkpt lat="47.0517" lon="5.80402">
        <ele>256</ele>
        <time>2013-07-12T14:05:21Z</time>
      </trkpt>
      <trkpt lat="47.05161" lon="5.80395">
        <ele>256</ele>
        <time>2013-07-12T14:05:22Z</time>
      </trkpt>
      <trkpt lat="47.05153" lon="5.80387">
        <ele>251</ele>
        <time>2013-07-12T14:05:23Z</time>
      </trkpt>
      <trkpt lat="47.05144" lon="5.80379">
        <ele>251</ele>
        <time>2013-07-12T14:05:24Z</time>
      </trkpt>
      <trkpt lat="47.05136" lon="5.8037">
        <ele>251</ele>
        <time>2013-07-12T14:05:25Z</time>
      </trkpt>
      <trkpt lat="47.05128" lon="5.8036">
        <ele>251</ele>
        <time>2013-07-12T14:05:26Z</time>
      </trkpt>
      <trkpt lat="47.0512" lon="5.80351">
        <ele>251</ele>
        <time>2013-07-12T14:05:27Z</time>
      </trkpt>
      <trkpt lat="47.05112" lon="5.80341">
        <ele>251</ele>
        <time>2013-07-12T14:05:28Z</time>
      </trkpt>
      <trkpt lat="47.05104" lon="5.80331">
        <ele>251</ele>
        <time>2013-07-12T14:05:29Z</time>
      </trkpt>
      <trkpt lat="47.05097" lon="5.80323">
        <ele>251</ele>
        <time>2013-07-12T14:05:30Z</time>
      </trkpt>
      <trkpt lat="47.0509" lon="5.80313">
        <ele>251</ele>
        <time>2013-07-12T14:05:31Z</time>
      </trkpt>
      <trkpt lat="47.05082" lon="5.80304">
        <ele>251</ele>
        <time>2013-07-12T14:05:32Z</time>
      </trkpt>
      <trkpt lat="47.05075" lon="5.80294">
        <ele>251</ele>
        <time>2013-07-12T14:05:33Z</time>
      </trkpt>
      <trkpt lat="47.05067" lon="5.80284">
        <ele>251</ele>
        <time>2013-07-12T14:05:34Z</time>
      </trkpt>
      <trkpt lat="47.0506" lon="5.80275">
        <ele>251</ele>
        <time>2013-07-12T14:05:35Z</time>
      </trkpt>
      <trkpt lat="47.05053" lon="5.80266">
        <ele>251</ele>
        <time>2013-07-12T14:05:36Z</time>
      </trkpt>
      <trkpt lat="47.05046" lon="5.80257">
        <ele>251</ele>
        <time>2013-07-12T14:05:37Z</time>
      </trkpt>
      <trkpt lat="47.05039" lon="5.80248">
        <ele>251</ele>
        <time>2013-07-12T14:05:38Z</time>
      </trkpt>
      <trkpt lat="47.05025" lon="5.80231">
        <ele>251</ele>
        <time>2013-07-12T14:05:40Z</time>
      </trkpt>
      <trkpt lat="47.05012" lon="5.80214">
        <ele>251</ele>
        <time>2013-07-12T14:05:42Z</time>
      </trkpt>
      <trkpt lat="47.04999" lon="5.80198">
        <ele>251</ele>
        <time>2013-07-12T14:05:44Z</time>
      </trkpt>
      <trkpt lat="47.04988" lon="5.80183">
        <ele>251</ele>
        <time>2013-07-12T14:05:46Z</time>
      </trkpt>
      <trkpt lat="47.04978" lon="5.80172">
        <ele>251</ele>
        <time>2013-07-12T14:05:48Z</time>
      </trkpt>
      <trkpt lat="47.04969" lon="5.8016">
        <ele>251</ele>
        <time>2013-07-12T14:05:51Z</time>
      </trkpt>
      <trkpt lat="47.04962" lon="5.80152">
        <ele>251</ele>
        <time>2013-07-12T14:05:54Z</time>
      </trkpt>
      <trkpt lat="47.04952" lon="5.80144">
        <ele>251</ele>
        <time>2013-07-12T14:05:58Z</time>
      </trkpt>
      <trkpt lat="47.04943" lon="5.80137">
        <ele>251</ele>
        <time>2013-07-12T14:06:02Z</time>
      </trkpt>
      <trkpt lat="47.04933" lon="5.80131">
        <ele>251</ele>
        <time>2013-07-12T14:06:06Z</time>
      </trkpt>
      <trkpt lat="47.04923" lon="5.80134">
        <ele>251</ele>
        <time>2013-07-12T14:06:10Z</time>
      </trkpt>
      <trkpt lat="47.0492" lon="5.80147">
        <ele>251</ele>
        <time>2013-07-12T14:06:13Z</time>
      </trkpt>
      <trkpt lat="47.04924" lon="5.80161">
        <ele>251</ele>
        <time>2013-07-12T14:06:15Z</time>
      </trkpt>
      <trkpt lat="47.04928" lon="5.80173">
        <ele>251</ele>
        <time>2013-07-12T14:06:17Z</time>
      </trkpt>
      <trkpt lat="47.04932" lon="5.80188">
        <ele>251</ele>
        <time>2013-07-12T14:06:19Z</time>
      </trkpt>
      <trkpt lat="47.04932" lon="5.80206">
        <ele>251</ele>
        <time>2013-07-12T14:06:21Z</time>
      </trkpt>
      <trkpt lat="47.04929" lon="5.80227">
        <ele>251</ele>
        <time>2013-07-12T14:06:23Z</time>
      </trkpt>
      <trkpt lat="47.04925" lon="5.80249">
        <ele>251</ele>
        <time>2013-07-12T14:06:25Z</time>
      </trkpt>
      <trkpt lat="47.04918" lon="5.80271">
        <ele>251</ele>
        <time>2013-07-12T14:06:27Z</time>
      </trkpt>
      <trkpt lat="47.04909" lon="5.80293">
        <ele>251</ele>
        <time>2013-07-12T14:06:29Z</time>
      </trkpt>
      <trkpt lat="47.04899" lon="5.80313">
        <ele>251</ele>
        <time>2013-07-12T14:06:31Z</time>
      </trkpt>
      <trkpt lat="47.04888" lon="5.80331">
        <ele>251</ele>
        <time>2013-07-12T14:06:33Z</time>
      </trkpt>
      <trkpt lat="47.04877" lon="5.80349">
        <ele>251</ele>
        <time>2013-07-12T14:06:35Z</time>
      </trkpt>
      <trkpt lat="47.04867" lon="5.80367">
        <ele>251</ele>
        <time>2013-07-12T14:06:37Z</time>
      </trkpt>
      <trkpt lat="47.04861" lon="5.80377">
        <ele>251</ele>
        <time>2013-07-12T14:06:38Z</time>
      </trkpt>
      <trkpt lat="47.04849" lon="5.80396">
        <ele>251</ele>
        <time>2013-07-12T14:06:40Z</time>
      </trkpt>
      <trkpt lat="47.04837" lon="5.80415">
        <ele>251</ele>
        <time>2013-07-12T14:06:42Z</time>
      </trkpt>
      <trkpt lat="47.04831" lon="5.80425">
        <ele>251</ele>
        <time>2013-07-12T14:06:43Z</time>
      </trkpt>
      <trkpt lat="47.04821" lon="5.80443">
        <ele>245</ele>
        <time>2013-07-12T14:06:45Z</time>
      </trkpt>
      <trkpt lat="47.0481" lon="5.8046">
        <ele>245</ele>
        <time>2013-07-12T14:06:47Z</time>
      </trkpt>
      <trkpt lat="47.04799" lon="5.80478">
        <ele>245</ele>
        <time>2013-07-12T14:06:49Z</time>
      </trkpt>
      <trkpt lat="47.04788" lon="5.80495">
        <ele>245</ele>
        <time>2013-07-12T14:06:51Z</time>
      </trkpt>
      <trkpt lat="47.04778" lon="5.80512">
        <ele>245</ele>
        <time>2013-07-12T14:06:53Z</time>
      </trkpt>
      <trkpt lat="47.04767" lon="5.80529">
        <ele>245</ele>
        <time>2013-07-12T14:06:55Z</time>
      </trkpt>
      <trkpt lat="47.04757" lon="5.80545">
        <ele>245</ele>
        <time>2013-07-12T14:06:57Z</time>
      </trkpt>
      <trkpt lat="47.04747" lon="5.80561">
        <ele>245</ele>
        <time>2013-07-12T14:06:59Z</time>
      </trkpt>
      <trkpt lat="47.04738" lon="5.80578">
        <ele>245</ele>
        <time>2013-07-12T14:07:01Z</time>
      </trkpt>
      <trkpt lat="47.04729" lon="5.80592">
        <ele>245</ele>
        <time>2013-07-12T14:07:03Z</time>
      </trkpt>
      <trkpt lat="47.0472" lon="5.80608">
        <ele>245</ele>
        <time>2013-07-12T14:07:05Z</time>
      </trkpt>
      <trkpt lat="47.04714" lon="5.80627">
        <ele>245</ele>
        <time>2013-07-12T14:07:07Z</time>
      </trkpt>
      <trkpt lat="47.04712" lon="5.80648">
        <ele>245</ele>
        <time>2013-07-12T14:07:09Z</time>
      </trkpt>
      <trkpt lat="47.04712" lon="5.80667">
        <ele>245</ele>
        <time>2013-07-12T14:07:11Z</time>
      </trkpt>
      <trkpt lat="47.04711" lon="5.80685">
        <ele>245</ele>
        <time>2013-07-12T14:07:13Z</time>
      </trkpt>
      <trkpt lat="47.04711" lon="5.80703">
        <ele>245</ele>
        <time>2013-07-12T14:07:15Z</time>
      </trkpt>
      <trkpt lat="47.04711" lon="5.8072">
        <ele>245</ele>
        <time>2013-07-12T14:07:17Z</time>
      </trkpt>
      <trkpt lat="47.04712" lon="5.80738">
        <ele>245</ele>
        <time>2013-07-12T14:07:19Z</time>
      </trkpt>
      <trkpt lat="47.04714" lon="5.80755">
        <ele>245</ele>
        <time>2013-07-12T14:07:21Z</time>
      </trkpt>
      <trkpt lat="47.04714" lon="5.80773">
        <ele>245</ele>
        <time>2013-07-12T14:07:23Z</time>
      </trkpt>
      <trkpt lat="47.04714" lon="5.80791">
        <ele>245</ele>
        <time>2013-07-12T14:07:25Z</time>
      </trkpt>
      <trkpt lat="47.04713" lon="5.80811">
        <ele>245</ele>
        <time>2013-07-12T14:07:27Z</time>
      </trkpt>
      <trkpt lat="47.04713" lon="5.80832">
        <ele>245</ele>
        <time>2013-07-12T14:07:29Z</time>
      </trkpt>
      <trkpt lat="47.04714" lon="5.80853">
        <ele>245</ele>
        <time>2013-07-12T14:07:31Z</time>
      </trkpt>
      <trkpt lat="47.04717" lon="5.80874">
        <ele>245</ele>
        <time>2013-07-12T14:07:33Z</time>
      </trkpt>
      <trkpt lat="47.04719" lon="5.80895">
        <ele>245</ele>
        <time>2013-07-12T14:07:35Z</time>
      </trkpt>
      <trkpt lat="47.04722" lon="5.80915">
        <ele>245</ele>
        <time>2013-07-12T14:07:37Z</time>
      </trkpt>
      <trkpt lat="47.04725" lon="5.80934">
        <ele>245</ele>
        <time>2013-07-12T14:07:39Z</time>
      </trkpt>
      <trkpt lat="47.04728" lon="5.80952">
        <ele>245</ele>
        <time>2013-07-12T14:07:41Z</time>
      </trkpt>
      <trkpt lat="47.0473" lon="5.80967">
        <ele>245</ele>
        <time>2013-07-12T14:07:43Z</time>
      </trkpt>
      <trkpt lat="47.04732" lon="5.80981">
        <ele>245</ele>
        <time>2013-07-12T14:07:45Z</time>
      </trkpt>
      <trkpt lat="47.04733" lon="5.80995">
        <ele>245</ele>
        <time>2013-07-12T14:07:47Z</time>
      </trkpt>
      <trkpt lat="47.04734" lon="5.81009">
        <ele>245</ele>
        <time>2013-07-12T14:07:49Z</time>
      </trkpt>
      <trkpt lat="47.04734" lon="5.81022">
        <ele>245</ele>
        <time>2013-07-12T14:07:51Z</time>
      </trkpt>
      <trkpt lat="47.04735" lon="5.8104">
        <ele>245</ele>
        <time>2013-07-12T14:07:54Z</time>
      </trkpt>
      <trkpt lat="47.04737" lon="5.81059">
        <ele>245</ele>
        <time>2013-07-12T14:07:57Z</time>
      </trkpt>
      <trkpt lat="47.0474" lon="5.81078">
        <ele>245</ele>
        <time>2013-07-12T14:08:00Z</time>
      </trkpt>
      <trkpt lat="47.04743" lon="5.81091">
        <ele>245</ele>
        <time>2013-07-12T14:08:02Z</time>
      </trkpt>
      <trkpt lat="47.04746" lon="5.81106">
        <ele>245</ele>
        <time>2013-07-12T14:08:04Z</time>
      </trkpt>
      <trkpt lat="47.04748" lon="5.8112">
        <ele>245</ele>
        <time>2013-07-12T14:08:06Z</time>
      </trkpt>
      <trkpt lat="47.04751" lon="5.81135">
        <ele>250</ele>
        <time>2013-07-12T14:08:08Z</time>
      </trkpt>
      <trkpt lat="47.0475" lon="5.81148">
        <ele>250</ele>
        <time>2013-07-12T14:08:10Z</time>
      </trkpt>
      <trkpt lat="47.04748" lon="5.81162">
        <ele>256</ele>
        <time>2013-07-12T14:08:12Z</time>
      </trkpt>
      <trkpt lat="47.04751" lon="5.81177">
        <ele>256</ele>
        <time>2013-07-12T14:08:14Z</time>
      </trkpt>
      <trkpt lat="47.0475" lon="5.8119">
        <ele>256</ele>
        <time>2013-07-12T14:08:16Z</time>
      </trkpt>
      <trkpt lat="47.04753" lon="5.81206">
        <ele>256</ele>
        <time>2013-07-12T14:08:18Z</time>
      </trkpt>
      <trkpt lat="47.04757" lon="5.81223">
        <ele>256</ele>
        <time>2013-07-12T14:08:20Z</time>
      </trkpt>
      <trkpt lat="47.0476" lon="5.81241">
        <ele>256</ele>
        <time>2013-07-12T14:08:22Z</time>
      </trkpt>
      <trkpt lat="47.0476" lon="5.81262">
        <ele>256</ele>
        <time>2013-07-12T14:08:24Z</time>
      </trkpt>
      <trkpt lat="47.04759" lon="5.81282">
        <ele>256</ele>
        <time>2013-07-12T14:08:26Z</time>
      </trkpt>
      <trkpt lat="47.04754" lon="5.81301">
        <ele>256</ele>
        <time>2013-07-12T14:08:28Z</time>
      </trkpt>
      <trkpt lat="47.04749" lon="5.81319">
        <ele>256</ele>
        <time>2013-07-12T14:08:30Z</time>
      </trkpt>
      <trkpt lat="47.04744" lon="5.81336">
        <ele>256</ele>
        <time>2013-07-12T14:08:32Z</time>
      </trkpt>
      <trkpt lat="47.0474" lon="5.81351">
        <ele>256</ele>
        <time>2013-07-12T14:08:34Z</time>
      </trkpt>
      <trkpt lat="47.04737" lon="5.81366">
        <ele>256</ele>
        <time>2013-07-12T14:08:36Z</time>
      </trkpt>
      <trkpt lat="47.04735" lon="5.81382">
        <ele>256</ele>
        <time>2013-07-12T14:08:38Z</time>
      </trkpt>
      <trkpt lat="47.04733" lon="5.81396">
        <ele>256</ele>
        <time>2013-07-12T14:08:40Z</time>
      </trkpt>
      <trkpt lat="47.04732" lon="5.8141">
        <ele>256</ele>
        <time>2013-07-12T14:08:42Z</time>
      </trkpt>
      <trkpt lat="47.04731" lon="5.81424">
        <ele>256</ele>
        <time>2013-07-12T14:08:44Z</time>
      </trkpt>
      <trkpt lat="47.0473" lon="5.81439">
        <ele>256</ele>
        <time>2013-07-12T14:08:46Z</time>
      </trkpt>
      <trkpt lat="47.04728" lon="5.81455">
        <ele>256</ele>
        <time>2013-07-12T14:08:48Z</time>
      </trkpt>
      <trkpt lat="47.04724" lon="5.81471">
        <ele>256</ele>
        <time>2013-07-12T14:08:50Z</time>
      </trkpt>
      <trkpt lat="47.04718" lon="5.81487">
        <ele>256</ele>
        <time>2013-07-12T14:08:52Z</time>
      </trkpt>
      <trkpt lat="47.04711" lon="5.81501">
        <ele>256</ele>
        <time>2013-07-12T14:08:54Z</time>
      </trkpt>
      <trkpt lat="47.04705" lon="5.81515">
        <ele>256</ele>
        <time>2013-07-12T14:08:56Z</time>
      </trkpt>
      <trkpt lat="47.04699" lon="5.81531">
        <ele>256</ele>
        <time>2013-07-12T14:08:58Z</time>
      </trkpt>
      <trkpt lat="47.04694" lon="5.81546">
        <ele>256</ele>
        <time>2013-07-12T14:09:00Z</time>
      </trkpt>
      <trkpt lat="47.04689" lon="5.81562">
        <ele>256</ele>
        <time>2013-07-12T14:09:02Z</time>
      </trkpt>
      <trkpt lat="47.04683" lon="5.81579">
        <ele>256</ele>
        <time>2013-07-12T14:09:04Z</time>
      </trkpt>
      <trkpt lat="47.04677" lon="5.81597">
        <ele>256</ele>
        <time>2013-07-12T14:09:06Z</time>
      </trkpt>
      <trkpt lat="47.0467" lon="5.81615">
        <ele>256</ele>
        <time>2013-07-12T14:09:08Z</time>
      </trkpt>
      <trkpt lat="47.04663" lon="5.81633">
        <ele>256</ele>
        <time>2013-07-12T14:09:10Z</time>
      </trkpt>
      <trkpt lat="47.04656" lon="5.81651">
        <ele>256</ele>
        <time>2013-07-12T14:09:12Z</time>
      </trkpt>
      <trkpt lat="47.04648" lon="5.81669">
        <ele>256</ele>
        <time>2013-07-12T14:09:14Z</time>
      </trkpt>
      <trkpt lat="47.0464" lon="5.81686">
        <ele>256</ele>
        <time>2013-07-12T14:09:16Z</time>
      </trkpt>
      <trkpt lat="47.04632" lon="5.81703">
        <ele>256</ele>
        <time>2013-07-12T14:09:18Z</time>
      </trkpt>
      <trkpt lat="47.04624" lon="5.8172">
        <ele>256</ele>
        <time>2013-07-12T14:09:20Z</time>
      </trkpt>
      <trkpt lat="47.04616" lon="5.81736">
        <ele>256</ele>
        <time>2013-07-12T14:09:22Z</time>
      </trkpt>
      <trkpt lat="47.04608" lon="5.81753">
        <ele>256</ele>
        <time>2013-07-12T14:09:24Z</time>
      </trkpt>
      <trkpt lat="47.04598" lon="5.81768">
        <ele>256</ele>
        <time>2013-07-12T14:09:26Z</time>
      </trkpt>
      <trkpt lat="47.04589" lon="5.81783">
        <ele>256</ele>
        <time>2013-07-12T14:09:28Z</time>
      </trkpt>
      <trkpt lat="47.04579" lon="5.818">
        <ele>256</ele>
        <time>2013-07-12T14:09:30Z</time>
      </trkpt>
      <trkpt lat="47.04571" lon="5.81819">
        <ele>256</ele>
        <time>2013-07-12T14:09:32Z</time>
      </trkpt>
      <trkpt lat="47.04566" lon="5.8184">
        <ele>256</ele>
        <time>2013-07-12T14:09:34Z</time>
      </trkpt>
      <trkpt lat="47.04563" lon="5.81861">
        <ele>256</ele>
        <time>2013-07-12T14:09:36Z</time>
      </trkpt>
      <trkpt lat="47.04561" lon="5.81883">
        <ele>256</ele>
        <time>2013-07-12T14:09:38Z</time>
      </trkpt>
      <trkpt lat="47.04557" lon="5.81902">
        <ele>256</ele>
        <time>2013-07-12T14:09:40Z</time>
      </trkpt>
      <trkpt lat="47.04551" lon="5.81916">
        <ele>256</ele>
        <time>2013-07-12T14:09:42Z</time>
      </trkpt>
      <trkpt lat="47.04544" lon="5.81927">
        <ele>256</ele>
        <time>2013-07-12T14:09:44Z</time>
      </trkpt>
      <trkpt lat="47.04534" lon="5.81931">
        <ele>256</ele>
        <time>2013-07-12T14:09:46Z</time>
      </trkpt>
      <trkpt lat="47.04523" lon="5.81932">
        <ele>256</ele>
        <time>2013-07-12T14:09:48Z</time>
      </trkpt>
      <trkpt lat="47.04512" lon="5.8193">
        <ele>256</ele>
        <time>2013-07-12T14:09:50Z</time>
      </trkpt>
      <trkpt lat="47.045" lon="5.81929">
        <ele>256</ele>
        <time>2013-07-12T14:09:52Z</time>
      </trkpt>
      <trkpt lat="47.04489" lon="5.8193">
        <ele>256</ele>
        <time>2013-07-12T14:09:54Z</time>
      </trkpt>
      <trkpt lat="47.04478" lon="5.81933">
        <ele>256</ele>
        <time>2013-07-12T14:09:56Z</time>
      </trkpt>
      <trkpt lat="47.04467" lon="5.8194">
        <ele>256</ele>
        <time>2013-07-12T14:09:58Z</time>
      </trkpt>
      <trkpt lat="47.04456" lon="5.8195">
        <ele>256</ele>
        <time>2013-07-12T14:10:00Z</time>
      </trkpt>
      <trkpt lat="47.04447" lon="5.8196">
        <ele>256</ele>
        <time>2013-07-12T14:10:02Z</time>
      </trkpt>
      <trkpt lat="47.04437" lon="5.8197">
        <ele>256</ele>
        <time>2013-07-12T14:10:04Z</time>
      </trkpt>
      <trkpt lat="47.04427" lon="5.8198">
        <ele>256</ele>
        <time>2013-07-12T14:10:06Z</time>
      </trkpt>
      <trkpt lat="47.04418" lon="5.81991">
        <ele>256</ele>
        <time>2013-07-12T14:10:08Z</time>
      </trkpt>
      <trkpt lat="47.04409" lon="5.82001">
        <ele>256</ele>
        <time>2013-07-12T14:10:10Z</time>
      </trkpt>
      <trkpt lat="47.04399" lon="5.8201">
        <ele>256</ele>
        <time>2013-07-12T14:10:12Z</time>
      </trkpt>
      <trkpt lat="47.0439" lon="5.82019">
        <ele>256</ele>
        <time>2013-07-12T14:10:14Z</time>
      </trkpt>
      <trkpt lat="47.04382" lon="5.82028">
        <ele>256</ele>
        <time>2013-07-12T14:10:16Z</time>
      </trkpt>
      <trkpt lat="47.04374" lon="5.82036">
        <ele>256</ele>
        <time>2013-07-12T14:10:18Z</time>
      </trkpt>
      <trkpt lat="47.04364" lon="5.82043">
        <ele>256</ele>
        <time>2013-07-12T14:10:20Z</time>
      </trkpt>
      <trkpt lat="47.04354" lon="5.82052">
        <ele>256</ele>
        <time>2013-07-12T14:10:22Z</time>
      </trkpt>
      <trkpt lat="47.04342" lon="5.82062">
        <ele>256</ele>
        <time>2013-07-12T14:10:24Z</time>
      </trkpt>
      <trkpt lat="47.04329" lon="5.82072">
        <ele>256</ele>
        <time>2013-07-12T14:10:26Z</time>
      </trkpt>
      <trkpt lat="47.04316" lon="5.82086">
        <ele>256</ele>
        <time>2013-07-12T14:10:28Z</time>
      </trkpt>
      <trkpt lat="47.04305" lon="5.82101">
        <ele>256</ele>
        <time>2013-07-12T14:10:30Z</time>
      </trkpt>
      <trkpt lat="47.04296" lon="5.82118">
        <ele>256</ele>
        <time>2013-07-12T14:10:32Z</time>
      </trkpt>
      <trkpt lat="47.04288" lon="5.82136">
        <ele>256</ele>
        <time>2013-07-12T14:10:34Z</time>
      </trkpt>
      <trkpt lat="47.04283" lon="5.82156">
        <ele>256</ele>
        <time>2013-07-12T14:10:36Z</time>
      </trkpt>
      <trkpt lat="47.0428" lon="5.82177">
        <ele>256</ele>
        <time>2013-07-12T14:10:38Z</time>
      </trkpt>
      <trkpt lat="47.04278" lon="5.82195">
        <ele>256</ele>
        <time>2013-07-12T14:10:40Z</time>
      </trkpt>
      <trkpt lat="47.04278" lon="5.82213">
        <ele>256</ele>
        <time>2013-07-12T14:10:42Z</time>
      </trkpt>
      <trkpt lat="47.04278" lon="5.8223">
        <ele>256</ele>
        <time>2013-07-12T14:10:44Z</time>
      </trkpt>
      <trkpt lat="47.04277" lon="5.82243">
        <ele>256</ele>
        <time>2013-07-12T14:10:46Z</time>
      </trkpt>
      <trkpt lat="47.04274" lon="5.82257">
        <ele>256</ele>
        <time>2013-07-12T14:10:48Z</time>
      </trkpt>
      <trkpt lat="47.04269" lon="5.82268">
        <ele>256</ele>
        <time>2013-07-12T14:10:50Z</time>
      </trkpt>
      <trkpt lat="47.04264" lon="5.8228">
        <ele>256</ele>
        <time>2013-07-12T14:10:52Z</time>
      </trkpt>
      <trkpt lat="47.04259" lon="5.82292">
        <ele>256</ele>
        <time>2013-07-12T14:10:54Z</time>
      </trkpt>
      <trkpt lat="47.04254" lon="5.82303">
        <ele>262</ele>
        <time>2013-07-12T14:10:56Z</time>
      </trkpt>
      <trkpt lat="47.04246" lon="5.82316">
        <ele>262</ele>
        <time>2013-07-12T14:10:59Z</time>
      </trkpt>
      <trkpt lat="47.04239" lon="5.82329">
        <ele>262</ele>
        <time>2013-07-12T14:11:02Z</time>
      </trkpt>
      <trkpt lat="47.04232" lon="5.8234">
        <ele>262</ele>
        <time>2013-07-12T14:11:04Z</time>
      </trkpt>
      <trkpt lat="47.04223" lon="5.8235">
        <ele>262</ele>
        <time>2013-07-12T14:11:06Z</time>
      </trkpt>
      <trkpt lat="47.04216" lon="5.8236">
        <ele>262</ele>
        <time>2013-07-12T14:11:08Z</time>
      </trkpt>
      <trkpt lat="47.0421" lon="5.82371">
        <ele>262</ele>
        <time>2013-07-12T14:11:11Z</time>
      </trkpt>
      <trkpt lat="47.04204" lon="5.82384">
        <ele>262</ele>
        <time>2013-07-12T14:11:16Z</time>
      </trkpt>
      <trkpt lat="47.04204" lon="5.82398">
        <ele>262</ele>
        <time>2013-07-12T14:11:19Z</time>
      </trkpt>
      <trkpt lat="47.04204" lon="5.82411">
        <ele>262</ele>
        <time>2013-07-12T14:11:22Z</time>
      </trkpt>
      <trkpt lat="47.04204" lon="5.82425">
        <ele>262</ele>
        <time>2013-07-12T14:11:25Z</time>
      </trkpt>
      <trkpt lat="47.04204" lon="5.8244">
        <ele>262</ele>
        <time>2013-07-12T14:11:29Z</time>
      </trkpt>
      <trkpt lat="47.04198" lon="5.8245">
        <ele>262</ele>
        <time>2013-07-12T14:11:47Z</time>
      </trkpt>
      <trkpt lat="47.04204" lon="5.8246">
        <ele>262</ele>
        <time>2013-07-12T14:12:47Z</time>
      </trkpt>
      <trkpt lat="47.04202" lon="5.82447">
        <ele>262</ele>
        <time>2013-07-12T14:14:21Z</time>
      </trkpt>
      <trkpt lat="47.04196" lon="5.82436">
        <ele>255</ele>
        <time>2013-07-12T14:18:05Z</time>
      </trkpt>
      <trkpt lat="47.04197" lon="5.8245">
        <ele>255</ele>
        <time>2013-07-12T14:18:58Z</time>
      </trkpt>
      <trkpt lat="47.042" lon="5.82435">
        <ele>255</ele>
        <time>2013-07-12T14:20:13Z</time>
      </trkpt>
      <trkpt lat="47.04202" lon="5.82421">
        <ele>255</ele>
        <time>2013-07-12T14:20:28Z</time>
      </trkpt>
      <trkpt lat="47.04202" lon="5.82407">
        <ele>255</ele>
        <time>2013-07-12T14:20:32Z</time>
      </trkpt>
      <trkpt lat="47.04202" lon="5.82391">
        <ele>255</ele>
        <time>2013-07-12T14:20:38Z</time>
      </trkpt>
      <trkpt lat="47.04196" lon="5.8238">
        <ele>255</ele>
        <time>2013-07-12T14:20:42Z</time>
      </trkpt>
      <trkpt lat="47.04184" lon="5.8238">
        <ele>255</ele>
        <time>2013-07-12T14:20:45Z</time>
      </trkpt>
      <trkpt lat="47.04175" lon="5.8238">
        <ele>255</ele>
        <time>2013-07-12T14:20:47Z</time>
      </trkpt>
      <trkpt lat="47.04165" lon="5.8238">
        <ele>255</ele>
        <time>2013-07-12T14:20:49Z</time>
      </trkpt>
      <trkpt lat="47.04154" lon="5.82377">
        <ele>255</ele>
        <time>2013-07-12T14:20:51Z</time>
      </trkpt>
      <trkpt lat="47.04141" lon="5.82371">
        <ele>255</ele>
        <time>2013-07-12T14:20:53Z</time>
      </trkpt>
      <trkpt lat="47.04128" lon="5.82364">
        <ele>255</ele>
        <time>2013-07-12T14:20:55Z</time>
      </trkpt>
      <trkpt lat="47.04113" lon="5.82358">
        <ele>255</ele>
        <time>2013-07-12T14:20:57Z</time>
      </trkpt>
      <trkpt lat="47.04097" lon="5.82352">
        <ele>255</ele>
        <time>2013-07-12T14:20:59Z</time>
      </trkpt>
      <trkpt lat="47.04081" lon="5.82349">
        <ele>255</ele>
        <time>2013-07-12T14:21:01Z</time>
      </trkpt>
      <trkpt lat="47.04065" lon="5.82346">
        <ele>250</ele>
        <time>2013-07-12T14:21:03Z</time>
      </trkpt>
      <trkpt lat="47.0405" lon="5.82344">
        <ele>250</ele>
        <time>2013-07-12T14:21:05Z</time>
      </trkpt>
      <trkpt lat="47.04034" lon="5.82341">
        <ele>250</ele>
        <time>2013-07-12T14:21:07Z</time>
      </trkpt>
      <trkpt lat="47.0402" lon="5.82337">
        <ele>250</ele>
        <time>2013-07-12T14:21:09Z</time>
      </trkpt>
      <trkpt lat="47.04009" lon="5.82334">
        <ele>250</ele>
        <time>2013-07-12T14:21:11Z</time>
      </trkpt>
      <trkpt lat="47.03997" lon="5.82331">
        <ele>250</ele>
        <time>2013-07-12T14:21:13Z</time>
      </trkpt>
      <trkpt lat="47.03988" lon="5.82328">
        <ele>250</ele>
        <time>2013-07-12T14:21:15Z</time>
      </trkpt>
      <trkpt lat="47.03979" lon="5.82326">
        <ele>250</ele>
        <time>2013-07-12T14:21:17Z</time>
      </trkpt>
      <trkpt lat="47.03968" lon="5.82322">
        <ele>250</ele>
        <time>2013-07-12T14:21:20Z</time>
      </trkpt>
      <trkpt lat="47.03957" lon="5.82317">
        <ele>250</ele>
        <time>2013-07-12T14:21:23Z</time>
      </trkpt>
      <trkpt lat="47.03946" lon="5.8231">
        <ele>250</ele>
        <time>2013-07-12T14:21:26Z</time>
      </trkpt>
      <trkpt lat="47.03934" lon="5.82303">
        <ele>250</ele>
        <time>2013-07-12T14:21:30Z</time>
      </trkpt>
      <trkpt lat="47.03924" lon="5.82299">
        <ele>250</ele>
        <time>2013-07-12T14:21:32Z</time>
      </trkpt>
      <trkpt lat="47.03911" lon="5.82295">
        <ele>250</ele>
        <time>2013-07-12T14:21:35Z</time>
      </trkpt>
      <trkpt lat="47.03902" lon="5.82297">
        <ele>250</ele>
        <time>2013-07-12T14:21:37Z</time>
      </trkpt>
      <trkpt lat="47.03889" lon="5.823">
        <ele>250</ele>
        <time>2013-07-12T14:21:40Z</time>
      </trkpt>
      <trkpt lat="47.0388" lon="5.82301">
        <ele>255</ele>
        <time>2013-07-12T14:21:42Z</time>
      </trkpt>
      <trkpt lat="47.03868" lon="5.82301">
        <ele>255</ele>
        <time>2013-07-12T14:21:45Z</time>
      </trkpt>
      <trkpt lat="47.03859" lon="5.82296">
        <ele>255</ele>
        <time>2013-07-12T14:21:48Z</time>
      </trkpt>
      <trkpt lat="47.0385" lon="5.82292">
        <ele>255</ele>
        <time>2013-07-12T14:21:50Z</time>
      </trkpt>
      <trkpt lat="47.03838" lon="5.82286">
        <ele>255</ele>
        <time>2013-07-12T14:21:52Z</time>
      </trkpt>
      <trkpt lat="47.03826" lon="5.8228">
        <ele>255</ele>
        <time>2013-07-12T14:21:54Z</time>
      </trkpt>
      <trkpt lat="47.03817" lon="5.82272">
        <ele>255</ele>
        <time>2013-07-12T14:21:56Z</time>
      </trkpt>
      <trkpt lat="47.03805" lon="5.82265">
        <ele>255</ele>
        <time>2013-07-12T14:21:58Z</time>
      </trkpt>
      <trkpt lat="47.03793" lon="5.82259">
        <ele>255</ele>
        <time>2013-07-12T14:22:00Z</time>
      </trkpt>
      <trkpt lat="47.0378" lon="5.82262">
        <ele>255</ele>
        <time>2013-07-12T14:22:02Z</time>
      </trkpt>
      <trkpt lat="47.03771" lon="5.82266">
        <ele>255</ele>
        <time>2013-07-12T14:22:03Z</time>
      </trkpt>
      <trkpt lat="47.03758" lon="5.82275">
        <ele>255</ele>
        <time>2013-07-12T14:22:05Z</time>
      </trkpt>
      <trkpt lat="47.03747" lon="5.82274">
        <ele>255</ele>
        <time>2013-07-12T14:22:07Z</time>
      </trkpt>
      <trkpt lat="47.03731" lon="5.82266">
        <ele>255</ele>
        <time>2013-07-12T14:22:09Z</time>
      </trkpt>
      <trkpt lat="47.03715" lon="5.82259">
        <ele>255</ele>
        <time>2013-07-12T14:22:11Z</time>
      </trkpt>
      <trkpt lat="47.03705" lon="5.82257">
        <ele>255</ele>
        <time>2013-07-12T14:22:12Z</time>
      </trkpt>
      <trkpt lat="47.03689" lon="5.82253">
        <ele>248</ele>
        <time>2013-07-12T14:22:14Z</time>
      </trkpt>
      <trkpt lat="47.03672" lon="5.82257">
        <ele>248</ele>
        <time>2013-07-12T14:22:16Z</time>
      </trkpt>
      <trkpt lat="47.03657" lon="5.82269">
        <ele>248</ele>
        <time>2013-07-12T14:22:18Z</time>
      </trkpt>
      <trkpt lat="47.03648" lon="5.82286">
        <ele>248</ele>
        <time>2013-07-12T14:22:20Z</time>
      </trkpt>
      <trkpt lat="47.03642" lon="5.82304">
        <ele>248</ele>
        <time>2013-07-12T14:22:22Z</time>
      </trkpt>
      <trkpt lat="47.03632" lon="5.82321">
        <ele>248</ele>
        <time>2013-07-12T14:22:24Z</time>
      </trkpt>
      <trkpt lat="47.03623" lon="5.82337">
        <ele>248</ele>
        <time>2013-07-12T14:22:26Z</time>
      </trkpt>
      <trkpt lat="47.03613" lon="5.82354">
        <ele>248</ele>
        <time>2013-07-12T14:22:28Z</time>
      </trkpt>
      <trkpt lat="47.03607" lon="5.82373">
        <ele>248</ele>
        <time>2013-07-12T14:22:30Z</time>
      </trkpt>
      <trkpt lat="47.03602" lon="5.82391">
        <ele>248</ele>
        <time>2013-07-12T14:22:32Z</time>
      </trkpt>
      <trkpt lat="47.03599" lon="5.82408">
        <ele>248</ele>
        <time>2013-07-12T14:22:34Z</time>
      </trkpt>
      <trkpt lat="47.036" lon="5.82425">
        <ele>248</ele>
        <time>2013-07-12T14:22:36Z</time>
      </trkpt>
      <trkpt lat="47.03597" lon="5.82439">
        <ele>248</ele>
        <time>2013-07-12T14:22:38Z</time>
      </trkpt>
      <trkpt lat="47.0359" lon="5.82451">
        <ele>255</ele>
        <time>2013-07-12T14:22:40Z</time>
      </trkpt>
      <trkpt lat="47.0358" lon="5.82461">
        <ele>255</ele>
        <time>2013-07-12T14:22:42Z</time>
      </trkpt>
      <trkpt lat="47.03569" lon="5.82472">
        <ele>260</ele>
        <time>2013-07-12T14:22:44Z</time>
      </trkpt>
      <trkpt lat="47.03567" lon="5.82486">
        <ele>266</ele>
        <time>2013-07-12T14:22:46Z</time>
      </trkpt>
      <trkpt lat="47.03565" lon="5.82499">
        <ele>266</ele>
        <time>2013-07-12T14:22:48Z</time>
      </trkpt>
      <trkpt lat="47.03559" lon="5.82515">
        <ele>266</ele>
        <time>2013-07-12T14:22:51Z</time>
      </trkpt>
      <trkpt lat="47.03549" lon="5.82522">
        <ele>266</ele>
        <time>2013-07-12T14:22:54Z</time>
      </trkpt>
      <trkpt lat="47.03537" lon="5.82523">
        <ele>266</ele>
        <time>2013-07-12T14:22:56Z</time>
      </trkpt>
      <trkpt lat="47.03524" lon="5.82522">
        <ele>259</ele>
        <time>2013-07-12T14:22:58Z</time>
      </trkpt>
      <trkpt lat="47.03513" lon="5.82522">
        <ele>259</ele>
        <time>2013-07-12T14:23:00Z</time>
      </trkpt>
      <trkpt lat="47.03502" lon="5.82522">
        <ele>259</ele>
        <time>2013-07-12T14:23:02Z</time>
      </trkpt>
      <trkpt lat="47.0349" lon="5.8252">
        <ele>259</ele>
        <time>2013-07-12T14:23:04Z</time>
      </trkpt>
      <trkpt lat="47.03481" lon="5.82519">
        <ele>259</ele>
        <time>2013-07-12T14:23:06Z</time>
      </trkpt>
      <trkpt lat="47.03471" lon="5.82519">
        <ele>259</ele>
        <time>2013-07-12T14:23:08Z</time>
      </trkpt>
      <trkpt lat="47.0346" lon="5.8252">
        <ele>259</ele>
        <time>2013-07-12T14:23:10Z</time>
      </trkpt>
      <trkpt lat="47.03451" lon="5.82522">
        <ele>259</ele>
        <time>2013-07-12T14:23:12Z</time>
      </trkpt>
      <trkpt lat="47.03442" lon="5.82525">
        <ele>259</ele>
        <time>2013-07-12T14:23:14Z</time>
      </trkpt>
      <trkpt lat="47.03432" lon="5.82529">
        <ele>259</ele>
        <time>2013-07-12T14:23:16Z</time>
      </trkpt>
      <trkpt lat="47.03422" lon="5.82531">
        <ele>259</ele>
        <time>2013-07-12T14:23:18Z</time>
      </trkpt>
      <trkpt lat="47.03409" lon="5.82534">
        <ele>259</ele>
        <time>2013-07-12T14:23:21Z</time>
      </trkpt>
      <trkpt lat="47.03398" lon="5.82537">
        <ele>259</ele>
        <time>2013-07-12T14:23:24Z</time>
      </trkpt>
      <trkpt lat="47.03386" lon="5.82542">
        <ele>259</ele>
        <time>2013-07-12T14:23:27Z</time>
      </trkpt>
      <trkpt lat="47.03373" lon="5.82547">
        <ele>259</ele>
        <time>2013-07-12T14:23:30Z</time>
      </trkpt>
      <trkpt lat="47.03364" lon="5.82551">
        <ele>259</ele>
        <time>2013-07-12T14:23:32Z</time>
      </trkpt>
      <trkpt lat="47.03355" lon="5.82556">
        <ele>259</ele>
        <time>2013-07-12T14:23:34Z</time>
      </trkpt>
      <trkpt lat="47.03346" lon="5.82559">
        <ele>259</ele>
        <time>2013-07-12T14:23:36Z</time>
      </trkpt>
      <trkpt lat="47.03334" lon="5.82564">
        <ele>259</ele>
        <time>2013-07-12T14:23:39Z</time>
      </trkpt>
      <trkpt lat="47.0332" lon="5.82565">
        <ele>259</ele>
        <time>2013-07-12T14:23:42Z</time>
      </trkpt>
      <trkpt lat="47.03308" lon="5.82566">
        <ele>259</ele>
        <time>2013-07-12T14:23:45Z</time>
      </trkpt>
      <trkpt lat="47.03299" lon="5.82566">
        <ele>259</ele>
        <time>2013-07-12T14:23:47Z</time>
      </trkpt>
      <trkpt lat="47.03289" lon="5.82566">
        <ele>259</ele>
        <time>2013-07-12T14:23:49Z</time>
      </trkpt>
      <trkpt lat="47.0328" lon="5.82567">
        <ele>259</ele>
        <time>2013-07-12T14:23:51Z</time>
      </trkpt>
      <trkpt lat="47.03271" lon="5.82568">
        <ele>259</ele>
        <time>2013-07-12T14:23:53Z</time>
      </trkpt>
      <trkpt lat="47.03258" lon="5.8257">
        <ele>264</ele>
        <time>2013-07-12T14:23:56Z</time>
      </trkpt>
      <trkpt lat="47.03246" lon="5.82573">
        <ele>264</ele>
        <time>2013-07-12T14:23:59Z</time>
      </trkpt>
      <trkpt lat="47.03233" lon="5.82575">
        <ele>264</ele>
        <time>2013-07-12T14:24:02Z</time>
      </trkpt>
      <trkpt lat="47.03223" lon="5.82576">
        <ele>264</ele>
        <time>2013-07-12T14:24:04Z</time>
      </trkpt>
      <trkpt lat="47.0321" lon="5.82578">
        <ele>264</ele>
        <time>2013-07-12T14:24:07Z</time>
      </trkpt>
      <trkpt lat="47.03201" lon="5.8258">
        <ele>264</ele>
        <time>2013-07-12T14:24:09Z</time>
      </trkpt>
      <trkpt lat="47.03191" lon="5.82581">
        <ele>264</ele>
        <time>2013-07-12T14:24:11Z</time>
      </trkpt>
      <trkpt lat="47.03181" lon="5.82583">
        <ele>264</ele>
        <time>2013-07-12T14:24:13Z</time>
      </trkpt>
      <trkpt lat="47.03172" lon="5.82584">
        <ele>264</ele>
        <time>2013-07-12T14:24:15Z</time>
      </trkpt>
      <trkpt lat="47.03161" lon="5.82586">
        <ele>264</ele>
        <time>2013-07-12T14:24:17Z</time>
      </trkpt>
      <trkpt lat="47.0315" lon="5.82588">
        <ele>264</ele>
        <time>2013-07-12T14:24:19Z</time>
      </trkpt>
      <trkpt lat="47.03139" lon="5.82589">
        <ele>264</ele>
        <time>2013-07-12T14:24:21Z</time>
      </trkpt>
      <trkpt lat="47.03128" lon="5.82591">
        <ele>264</ele>
        <time>2013-07-12T14:24:23Z</time>
      </trkpt>
      <trkpt lat="47.03116" lon="5.82592">
        <ele>264</ele>
        <time>2013-07-12T14:24:25Z</time>
      </trkpt>
      <trkpt lat="47.03104" lon="5.82593">
        <ele>264</ele>
        <time>2013-07-12T14:24:27Z</time>
      </trkpt>
      <trkpt lat="47.03091" lon="5.82593">
        <ele>264</ele>
        <time>2013-07-12T14:24:29Z</time>
      </trkpt>
      <trkpt lat="47.03079" lon="5.82593">
        <ele>264</ele>
        <time>2013-07-12T14:24:31Z</time>
      </trkpt>
      <trkpt lat="47.03066" lon="5.82594">
        <ele>264</ele>
        <time>2013-07-12T14:24:33Z</time>
      </trkpt>
      <trkpt lat="47.03054" lon="5.82594">
        <ele>264</ele>
        <time>2013-07-12T14:24:35Z</time>
      </trkpt>
      <trkpt lat="47.0304" lon="5.82595">
        <ele>264</ele>
        <time>2013-07-12T14:24:37Z</time>
      </trkpt>
      <trkpt lat="47.03027" lon="5.82595">
        <ele>264</ele>
        <time>2013-07-12T14:24:39Z</time>
      </trkpt>
      <trkpt lat="47.03015" lon="5.82595">
        <ele>264</ele>
        <time>2013-07-12T14:24:41Z</time>
      </trkpt>
      <trkpt lat="47.03001" lon="5.82595">
        <ele>264</ele>
        <time>2013-07-12T14:24:43Z</time>
      </trkpt>
      <trkpt lat="47.02988" lon="5.82595">
        <ele>264</ele>
        <time>2013-07-12T14:24:45Z</time>
      </trkpt>
      <trkpt lat="47.02975" lon="5.82595">
        <ele>264</ele>
        <time>2013-07-12T14:24:47Z</time>
      </trkpt>
      <trkpt lat="47.02961" lon="5.82595">
        <ele>264</ele>
        <time>2013-07-12T14:24:49Z</time>
      </trkpt>
      <trkpt lat="47.02948" lon="5.82596">
        <ele>264</ele>
        <time>2013-07-12T14:24:51Z</time>
      </trkpt>
      <trkpt lat="47.02934" lon="5.82596">
        <ele>264</ele>
        <time>2013-07-12T14:24:53Z</time>
      </trkpt>
      <trkpt lat="47.02921" lon="5.82597">
        <ele>264</ele>
        <time>2013-07-12T14:24:55Z</time>
      </trkpt>
      <trkpt lat="47.02907" lon="5.82597">
        <ele>264</ele>
        <time>2013-07-12T14:24:57Z</time>
      </trkpt>
      <trkpt lat="47.02893" lon="5.82597">
        <ele>264</ele>
        <time>2013-07-12T14:24:59Z</time>
      </trkpt>
      <trkpt lat="47.02879" lon="5.82597">
        <ele>264</ele>
        <time>2013-07-12T14:25:01Z</time>
      </trkpt>
      <trkpt lat="47.02865" lon="5.82598">
        <ele>264</ele>
        <time>2013-07-12T14:25:03Z</time>
      </trkpt>
      <trkpt lat="47.02851" lon="5.82601">
        <ele>264</ele>
        <time>2013-07-12T14:25:05Z</time>
      </trkpt>
      <trkpt lat="47.02836" lon="5.82602">
        <ele>264</ele>
        <time>2013-07-12T14:25:07Z</time>
      </trkpt>
      <trkpt lat="47.02821" lon="5.82605">
        <ele>264</ele>
        <time>2013-07-12T14:25:09Z</time>
      </trkpt>
      <trkpt lat="47.02806" lon="5.82608">
        <ele>264</ele>
        <time>2013-07-12T14:25:11Z</time>
      </trkpt>
      <trkpt lat="47.02793" lon="5.82611">
        <ele>264</ele>
        <time>2013-07-12T14:25:13Z</time>
      </trkpt>
      <trkpt lat="47.02779" lon="5.82614">
        <ele>264</ele>
        <time>2013-07-12T14:25:15Z</time>
      </trkpt>
      <trkpt lat="47.02766" lon="5.82619">
        <ele>264</ele>
        <time>2013-07-12T14:25:17Z</time>
      </trkpt>
      <trkpt lat="47.02753" lon="5.82621">
        <ele>264</ele>
        <time>2013-07-12T14:25:19Z</time>
      </trkpt>
      <trkpt lat="47.0274" lon="5.82625">
        <ele>264</ele>
        <time>2013-07-12T14:25:21Z</time>
      </trkpt>
      <trkpt lat="47.02728" lon="5.82628">
        <ele>264</ele>
        <time>2013-07-12T14:25:23Z</time>
      </trkpt>
      <trkpt lat="47.02715" lon="5.82631">
        <ele>264</ele>
        <time>2013-07-12T14:25:25Z</time>
      </trkpt>
      <trkpt lat="47.02702" lon="5.82635">
        <ele>264</ele>
        <time>2013-07-12T14:25:27Z</time>
      </trkpt>
      <trkpt lat="47.0269" lon="5.82637">
        <ele>264</ele>
        <time>2013-07-12T14:25:29Z</time>
      </trkpt>
      <trkpt lat="47.02677" lon="5.8264">
        <ele>264</ele>
        <time>2013-07-12T14:25:31Z</time>
      </trkpt>
      <trkpt lat="47.02665" lon="5.82642">
        <ele>264</ele>
        <time>2013-07-12T14:25:33Z</time>
      </trkpt>
      <trkpt lat="47.02653" lon="5.82645">
        <ele>264</ele>
        <time>2013-07-12T14:25:35Z</time>
      </trkpt>
      <trkpt lat="47.0264" lon="5.82646">
        <ele>270</ele>
        <time>2013-07-12T14:25:37Z</time>
      </trkpt>
      <trkpt lat="47.02628" lon="5.82647">
        <ele>270</ele>
        <time>2013-07-12T14:25:39Z</time>
      </trkpt>
      <trkpt lat="47.02615" lon="5.82647">
        <ele>270</ele>
        <time>2013-07-12T14:25:41Z</time>
      </trkpt>
      <trkpt lat="47.02603" lon="5.82647">
        <ele>270</ele>
        <time>2013-07-12T14:25:43Z</time>
      </trkpt>
      <trkpt lat="47.02591" lon="5.82647">
        <ele>270</ele>
        <time>2013-07-12T14:25:45Z</time>
      </trkpt>
      <trkpt lat="47.02578" lon="5.82647">
        <ele>270</ele>
        <time>2013-07-12T14:25:47Z</time>
      </trkpt>
      <trkpt lat="47.02566" lon="5.82647">
        <ele>270</ele>
        <time>2013-07-12T14:25:49Z</time>
      </trkpt>
      <trkpt lat="47.02553" lon="5.82647">
        <ele>270</ele>
        <time>2013-07-12T14:25:51Z</time>
      </trkpt>
      <trkpt lat="47.0254" lon="5.82646">
        <ele>270</ele>
        <time>2013-07-12T14:25:53Z</time>
      </trkpt>
      <trkpt lat="47.02528" lon="5.82646">
        <ele>270</ele>
        <time>2013-07-12T14:25:55Z</time>
      </trkpt>
      <trkpt lat="47.02515" lon="5.82646">
        <ele>270</ele>
        <time>2013-07-12T14:25:57Z</time>
      </trkpt>
      <trkpt lat="47.02502" lon="5.82646">
        <ele>270</ele>
        <time>2013-07-12T14:25:59Z</time>
      </trkpt>
      <trkpt lat="47.0249" lon="5.82646">
        <ele>270</ele>
        <time>2013-07-12T14:26:01Z</time>
      </trkpt>
      <trkpt lat="47.02478" lon="5.82646">
        <ele>270</ele>
        <time>2013-07-12T14:26:03Z</time>
      </trkpt>
      <trkpt lat="47.02466" lon="5.82646">
        <ele>270</ele>
        <time>2013-07-12T14:26:05Z</time>
      </trkpt>
      <trkpt lat="47.02453" lon="5.82646">
        <ele>270</ele>
        <time>2013-07-12T14:26:07Z</time>
      </trkpt>
      <trkpt lat="47.02441" lon="5.82647">
        <ele>270</ele>
        <time>2013-07-12T14:26:09Z</time>
      </trkpt>
      <trkpt lat="47.02427" lon="5.82649">
        <ele>270</ele>
        <time>2013-07-12T14:26:11Z</time>
      </trkpt>
      <trkpt lat="47.02414" lon="5.82651">
        <ele>270</ele>
        <time>2013-07-12T14:26:13Z</time>
      </trkpt>
      <trkpt lat="47.02401" lon="5.82654">
        <ele>270</ele>
        <time>2013-07-12T14:26:15Z</time>
      </trkpt>
      <trkpt lat="47.02387" lon="5.82657">
        <ele>270</ele>
        <time>2013-07-12T14:26:17Z</time>
      </trkpt>
      <trkpt lat="47.02374" lon="5.8266">
        <ele>270</ele>
        <time>2013-07-12T14:26:19Z</time>
      </trkpt>
      <trkpt lat="47.02362" lon="5.82664">
        <ele>270</ele>
        <time>2013-07-12T14:26:21Z</time>
      </trkpt>
      <trkpt lat="47.02349" lon="5.8267">
        <ele>270</ele>
        <time>2013-07-12T14:26:23Z</time>
      </trkpt>
      <trkpt lat="47.02335" lon="5.82675">
        <ele>270</ele>
        <time>2013-07-12T14:26:25Z</time>
      </trkpt>
      <trkpt lat="47.02322" lon="5.82681">
        <ele>270</ele>
        <time>2013-07-12T14:26:27Z</time>
      </trkpt>
      <trkpt lat="47.02309" lon="5.82687">
        <ele>270</ele>
        <time>2013-07-12T14:26:29Z</time>
      </trkpt>
      <trkpt lat="47.02296" lon="5.82693">
        <ele>270</ele>
        <time>2013-07-12T14:26:31Z</time>
      </trkpt>
      <trkpt lat="47.02281" lon="5.82699">
        <ele>270</ele>
        <time>2013-07-12T14:26:33Z</time>
      </trkpt>
      <trkpt lat="47.02267" lon="5.82705">
        <ele>270</ele>
        <time>2013-07-12T14:26:35Z</time>
      </trkpt>
      <trkpt lat="47.02253" lon="5.82711">
        <ele>270</ele>
        <time>2013-07-12T14:26:37Z</time>
      </trkpt>
      <trkpt lat="47.02239" lon="5.82717">
        <ele>270</ele>
        <time>2013-07-12T14:26:39Z</time>
      </trkpt>
      <trkpt lat="47.02226" lon="5.82724">
        <ele>270</ele>
        <time>2013-07-12T14:26:41Z</time>
      </trkpt>
      <trkpt lat="47.02212" lon="5.82731">
        <ele>270</ele>
        <time>2013-07-12T14:26:43Z</time>
      </trkpt>
      <trkpt lat="47.02199" lon="5.82738">
        <ele>270</ele>
        <time>2013-07-12T14:26:45Z</time>
      </trkpt>
      <trkpt lat="47.02186" lon="5.82746">
        <ele>270</ele>
        <time>2013-07-12T14:26:47Z</time>
      </trkpt>
      <trkpt lat="47.02174" lon="5.82754">
        <ele>270</ele>
        <time>2013-07-12T14:26:49Z</time>
      </trkpt>
      <trkpt lat="47.0216" lon="5.82762">
        <ele>270</ele>
        <time>2013-07-12T14:26:51Z</time>
      </trkpt>
      <trkpt lat="47.02147" lon="5.8277">
        <ele>270</ele>
        <time>2013-07-12T14:26:53Z</time>
      </trkpt>
      <trkpt lat="47.02134" lon="5.82777">
        <ele>270</ele>
        <time>2013-07-12T14:26:55Z</time>
      </trkpt>
      <trkpt lat="47.02122" lon="5.82783">
        <ele>275</ele>
        <time>2013-07-12T14:26:57Z</time>
      </trkpt>
      <trkpt lat="47.02109" lon="5.82788">
        <ele>275</ele>
        <time>2013-07-12T14:26:59Z</time>
      </trkpt>
      <trkpt lat="47.02096" lon="5.82792">
        <ele>275</ele>
        <time>2013-07-12T14:27:01Z</time>
      </trkpt>
      <trkpt lat="47.02084" lon="5.82795">
        <ele>275</ele>
        <time>2013-07-12T14:27:03Z</time>
      </trkpt>
      <trkpt lat="47.02073" lon="5.82796">
        <ele>275</ele>
        <time>2013-07-12T14:27:05Z</time>
      </trkpt>
      <trkpt lat="47.02062" lon="5.82797">
        <ele>275</ele>
        <time>2013-07-12T14:27:07Z</time>
      </trkpt>
      <trkpt lat="47.02051" lon="5.82798">
        <ele>275</ele>
        <time>2013-07-12T14:27:09Z</time>
      </trkpt>
      <trkpt lat="47.0204" lon="5.82799">
        <ele>275</ele>
        <time>2013-07-12T14:27:11Z</time>
      </trkpt>
      <trkpt lat="47.0203" lon="5.828">
        <ele>275</ele>
        <time>2013-07-12T14:27:13Z</time>
      </trkpt>
      <trkpt lat="47.0202" lon="5.82801">
        <ele>275</ele>
        <time>2013-07-12T14:27:15Z</time>
      </trkpt>
      <trkpt lat="47.0201" lon="5.82804">
        <ele>281</ele>
        <time>2013-07-12T14:27:17Z</time>
      </trkpt>
      <trkpt lat="47.02" lon="5.82805">
        <ele>281</ele>
        <time>2013-07-12T14:27:19Z</time>
      </trkpt>
      <trkpt lat="47.01991" lon="5.82809">
        <ele>281</ele>
        <time>2013-07-12T14:27:21Z</time>
      </trkpt>
      <trkpt lat="47.01981" lon="5.82813">
        <ele>281</ele>
        <time>2013-07-12T14:27:23Z</time>
      </trkpt>
      <trkpt lat="47.0197" lon="5.82817">
        <ele>281</ele>
        <time>2013-07-12T14:27:25Z</time>
      </trkpt>
      <trkpt lat="47.01959" lon="5.82823">
        <ele>281</ele>
        <time>2013-07-12T14:27:27Z</time>
      </trkpt>
      <trkpt lat="47.01948" lon="5.82827">
        <ele>281</ele>
        <time>2013-07-12T14:27:29Z</time>
      </trkpt>
      <trkpt lat="47.01938" lon="5.82832">
        <ele>281</ele>
        <time>2013-07-12T14:27:31Z</time>
      </trkpt>
      <trkpt lat="47.01926" lon="5.82839">
        <ele>281</ele>
        <time>2013-07-12T14:27:33Z</time>
      </trkpt>
      <trkpt lat="47.01914" lon="5.82845">
        <ele>281</ele>
        <time>2013-07-12T14:27:35Z</time>
      </trkpt>
      <trkpt lat="47.01902" lon="5.8285">
        <ele>281</ele>
        <time>2013-07-12T14:27:37Z</time>
      </trkpt>
      <trkpt lat="47.0189" lon="5.82857">
        <ele>281</ele>
        <time>2013-07-12T14:27:39Z</time>
      </trkpt>
      <trkpt lat="47.01879" lon="5.82862">
        <ele>281</ele>
        <time>2013-07-12T14:27:41Z</time>
      </trkpt>
      <trkpt lat="47.01868" lon="5.82868">
        <ele>281</ele>
        <time>2013-07-12T14:27:43Z</time>
      </trkpt>
      <trkpt lat="47.01857" lon="5.82874">
        <ele>281</ele>
        <time>2013-07-12T14:27:45Z</time>
      </trkpt>
      <trkpt lat="47.01844" lon="5.82879">
        <ele>281</ele>
        <time>2013-07-12T14:27:47Z</time>
      </trkpt>
      <trkpt lat="47.01831" lon="5.82884">
        <ele>281</ele>
        <time>2013-07-12T14:27:49Z</time>
      </trkpt>
      <trkpt lat="47.01818" lon="5.82889">
        <ele>281</ele>
        <time>2013-07-12T14:27:51Z</time>
      </trkpt>
      <trkpt lat="47.01806" lon="5.82893">
        <ele>281</ele>
        <time>2013-07-12T14:27:53Z</time>
      </trkpt>
      <trkpt lat="47.01792" lon="5.82899">
        <ele>281</ele>
        <time>2013-07-12T14:27:55Z</time>
      </trkpt>
      <trkpt lat="47.01778" lon="5.82904">
        <ele>281</ele>
        <time>2013-07-12T14:27:57Z</time>
      </trkpt>
      <trkpt lat="47.01763" lon="5.82909">
        <ele>281</ele>
        <time>2013-07-12T14:27:59Z</time>
      </trkpt>
      <trkpt lat="47.01747" lon="5.82914">
        <ele>281</ele>
        <time>2013-07-12T14:28:01Z</time>
      </trkpt>
      <trkpt lat="47.01731" lon="5.8292">
        <ele>281</ele>
        <time>2013-07-12T14:28:03Z</time>
      </trkpt>
      <trkpt lat="47.01714" lon="5.82923">
        <ele>281</ele>
        <time>2013-07-12T14:28:05Z</time>
      </trkpt>
      <trkpt lat="47.01696" lon="5.82927">
        <ele>281</ele>
        <time>2013-07-12T14:28:07Z</time>
      </trkpt>
      <trkpt lat="47.01687" lon="5.82929">
        <ele>281</ele>
        <time>2013-07-12T14:28:08Z</time>
      </trkpt>
      <trkpt lat="47.01678" lon="5.82929">
        <ele>281</ele>
        <time>2013-07-12T14:28:09Z</time>
      </trkpt>
      <trkpt lat="47.01668" lon="5.8293">
        <ele>281</ele>
        <time>2013-07-12T14:28:10Z</time>
      </trkpt>
      <trkpt lat="47.01658" lon="5.82932">
        <ele>281</ele>
        <time>2013-07-12T14:28:11Z</time>
      </trkpt>
      <trkpt lat="47.01648" lon="5.82932">
        <ele>281</ele>
        <time>2013-07-12T14:28:12Z</time>
      </trkpt>
      <trkpt lat="47.01638" lon="5.82933">
        <ele>281</ele>
        <time>2013-07-12T14:28:13Z</time>
      </trkpt>
      <trkpt lat="47.01627" lon="5.82933">
        <ele>281</ele>
        <time>2013-07-12T14:28:14Z</time>
      </trkpt>
      <trkpt lat="47.01617" lon="5.82933">
        <ele>275</ele>
        <time>2013-07-12T14:28:15Z</time>
      </trkpt>
      <trkpt lat="47.01606" lon="5.82933">
        <ele>275</ele>
        <time>2013-07-12T14:28:16Z</time>
      </trkpt>
      <trkpt lat="47.01595" lon="5.82933">
        <ele>275</ele>
        <time>2013-07-12T14:28:17Z</time>
      </trkpt>
      <trkpt lat="47.01585" lon="5.82932">
        <ele>275</ele>
        <time>2013-07-12T14:28:18Z</time>
      </trkpt>
      <trkpt lat="47.01573" lon="5.82932">
        <ele>275</ele>
        <time>2013-07-12T14:28:19Z</time>
      </trkpt>
      <trkpt lat="47.01562" lon="5.82931">
        <ele>275</ele>
        <time>2013-07-12T14:28:20Z</time>
      </trkpt>
      <trkpt lat="47.01551" lon="5.8293">
        <ele>275</ele>
        <time>2013-07-12T14:28:21Z</time>
      </trkpt>
      <trkpt lat="47.01538" lon="5.8293">
        <ele>275</ele>
        <time>2013-07-12T14:28:22Z</time>
      </trkpt>
      <trkpt lat="47.01526" lon="5.8293">
        <ele>275</ele>
        <time>2013-07-12T14:28:23Z</time>
      </trkpt>
      <trkpt lat="47.01514" lon="5.82929">
        <ele>275</ele>
        <time>2013-07-12T14:28:24Z</time>
      </trkpt>
      <trkpt lat="47.01501" lon="5.82929">
        <ele>275</ele>
        <time>2013-07-12T14:28:25Z</time>
      </trkpt>
      <trkpt lat="47.01489" lon="5.82928">
        <ele>275</ele>
        <time>2013-07-12T14:28:26Z</time>
      </trkpt>
      <trkpt lat="47.01476" lon="5.82928">
        <ele>275</ele>
        <time>2013-07-12T14:28:27Z</time>
      </trkpt>
      <trkpt lat="47.01463" lon="5.82928">
        <ele>275</ele>
        <time>2013-07-12T14:28:28Z</time>
      </trkpt>
      <trkpt lat="47.0145" lon="5.82929">
        <ele>275</ele>
        <time>2013-07-12T14:28:29Z</time>
      </trkpt>
      <trkpt lat="47.01438" lon="5.82929">
        <ele>275</ele>
        <time>2013-07-12T14:28:30Z</time>
      </trkpt>
      <trkpt lat="47.01425" lon="5.8293">
        <ele>275</ele>
        <time>2013-07-12T14:28:31Z</time>
      </trkpt>
      <trkpt lat="47.01412" lon="5.82931">
        <ele>275</ele>
        <time>2013-07-12T14:28:32Z</time>
      </trkpt>
      <trkpt lat="47.01399" lon="5.82932">
        <ele>275</ele>
        <time>2013-07-12T14:28:33Z</time>
      </trkpt>
      <trkpt lat="47.01387" lon="5.82933">
        <ele>275</ele>
        <time>2013-07-12T14:28:34Z</time>
      </trkpt>
      <trkpt lat="47.01374" lon="5.82935">
        <ele>275</ele>
        <time>2013-07-12T14:28:35Z</time>
      </trkpt>
      <trkpt lat="47.01362" lon="5.82936">
        <ele>275</ele>
        <time>2013-07-12T14:28:36Z</time>
      </trkpt>
      <trkpt lat="47.01349" lon="5.82937">
        <ele>275</ele>
        <time>2013-07-12T14:28:37Z</time>
      </trkpt>
      <trkpt lat="47.01337" lon="5.82937">
        <ele>270</ele>
        <time>2013-07-12T14:28:38Z</time>
      </trkpt>
      <trkpt lat="47.01324" lon="5.82937">
        <ele>270</ele>
        <time>2013-07-12T14:28:39Z</time>
      </trkpt>
      <trkpt lat="47.01311" lon="5.82936">
        <ele>270</ele>
        <time>2013-07-12T14:28:40Z</time>
      </trkpt>
      <trkpt lat="47.01298" lon="5.82935">
        <ele>270</ele>
        <time>2013-07-12T14:28:41Z</time>
      </trkpt>
      <trkpt lat="47.01286" lon="5.82935">
        <ele>270</ele>
        <time>2013-07-12T14:28:42Z</time>
      </trkpt>
      <trkpt lat="47.01274" lon="5.82936">
        <ele>270</ele>
        <time>2013-07-12T14:28:43Z</time>
      </trkpt>
      <trkpt lat="47.01261" lon="5.82936">
        <ele>270</ele>
        <time>2013-07-12T14:28:44Z</time>
      </trkpt>
      <trkpt lat="47.01249" lon="5.82937">
        <ele>270</ele>
        <time>2013-07-12T14:28:45Z</time>
      </trkpt>
      <trkpt lat="47.01237" lon="5.82937">
        <ele>270</ele>
        <time>2013-07-12T14:28:46Z</time>
      </trkpt>
      <trkpt lat="47.01224" lon="5.82938">
        <ele>270</ele>
        <time>2013-07-12T14:28:47Z</time>
      </trkpt>
      <trkpt lat="47.01212" lon="5.82939">
        <ele>270</ele>
        <time>2013-07-12T14:28:48Z</time>
      </trkpt>
      <trkpt lat="47.012" lon="5.82939">
        <ele>270</ele>
        <time>2013-07-12T14:28:49Z</time>
      </trkpt>
      <trkpt lat="47.01188" lon="5.82939">
        <ele>270</ele>
        <time>2013-07-12T14:28:50Z</time>
      </trkpt>
      <trkpt lat="47.01176" lon="5.82939">
        <ele>270</ele>
        <time>2013-07-12T14:28:51Z</time>
      </trkpt>
      <trkpt lat="47.01164" lon="5.82939">
        <ele>270</ele>
        <time>2013-07-12T14:28:52Z</time>
      </trkpt>
      <trkpt lat="47.01152" lon="5.82939">
        <ele>270</ele>
        <time>2013-07-12T14:28:53Z</time>
      </trkpt>
      <trkpt lat="47.0114" lon="5.82939">
        <ele>270</ele>
        <time>2013-07-12T14:28:54Z</time>
      </trkpt>
      <trkpt lat="47.01129" lon="5.82938">
        <ele>270</ele>
        <time>2013-07-12T14:28:55Z</time>
      </trkpt>
      <trkpt lat="47.01117" lon="5.82937">
        <ele>270</ele>
        <time>2013-07-12T14:28:56Z</time>
      </trkpt>
      <trkpt lat="47.01106" lon="5.82936">
        <ele>270</ele>
        <time>2013-07-12T14:28:57Z</time>
      </trkpt>
      <trkpt lat="47.01095" lon="5.82935">
        <ele>270</ele>
        <time>2013-07-12T14:28:58Z</time>
      </trkpt>
      <trkpt lat="47.01084" lon="5.82934">
        <ele>270</ele>
        <time>2013-07-12T14:28:59Z</time>
      </trkpt>
      <trkpt lat="47.01073" lon="5.82934">
        <ele>270</ele>
        <time>2013-07-12T14:29:00Z</time>
      </trkpt>
      <trkpt lat="47.01062" lon="5.82934">
        <ele>270</ele>
        <time>2013-07-12T14:29:01Z</time>
      </trkpt>
      <trkpt lat="47.01051" lon="5.82935">
        <ele>270</ele>
        <time>2013-07-12T14:29:02Z</time>
      </trkpt>
      <trkpt lat="47.0104" lon="5.82937">
        <ele>270</ele>
        <time>2013-07-12T14:29:03Z</time>
      </trkpt>
      <trkpt lat="47.01029" lon="5.82937">
        <ele>270</ele>
        <time>2013-07-12T14:29:04Z</time>
      </trkpt>
      <trkpt lat="47.01018" lon="5.82938">
        <ele>270</ele>
        <time>2013-07-12T14:29:05Z</time>
      </trkpt>
      <trkpt lat="47.01007" lon="5.82939">
        <ele>270</ele>
        <time>2013-07-12T14:29:06Z</time>
      </trkpt>
      <trkpt lat="47.00996" lon="5.8294">
        <ele>270</ele>
        <time>2013-07-12T14:29:07Z</time>
      </trkpt>
      <trkpt lat="47.00986" lon="5.82941">
        <ele>270</ele>
        <time>2013-07-12T14:29:08Z</time>
      </trkpt>
      <trkpt lat="47.00976" lon="5.82941">
        <ele>270</ele>
        <time>2013-07-12T14:29:09Z</time>
      </trkpt>
      <trkpt lat="47.00964" lon="5.82942">
        <ele>270</ele>
        <time>2013-07-12T14:29:10Z</time>
      </trkpt>
      <trkpt lat="47.00955" lon="5.82943">
        <ele>270</ele>
        <time>2013-07-12T14:29:11Z</time>
      </trkpt>
      <trkpt lat="47.00945" lon="5.82944">
        <ele>270</ele>
        <time>2013-07-12T14:29:12Z</time>
      </trkpt>
      <trkpt lat="47.00935" lon="5.82945">
        <ele>270</ele>
        <time>2013-07-12T14:29:13Z</time>
      </trkpt>
      <trkpt lat="47.00925" lon="5.82947">
        <ele>270</ele>
        <time>2013-07-12T14:29:14Z</time>
      </trkpt>
      <trkpt lat="47.00916" lon="5.82949">
        <ele>270</ele>
        <time>2013-07-12T14:29:15Z</time>
      </trkpt>
      <trkpt lat="47.00907" lon="5.82951">
        <ele>270</ele>
        <time>2013-07-12T14:29:16Z</time>
      </trkpt>
      <trkpt lat="47.00889" lon="5.82954">
        <ele>270</ele>
        <time>2013-07-12T14:29:18Z</time>
      </trkpt>
      <trkpt lat="47.00871" lon="5.82954">
        <ele>270</ele>
        <time>2013-07-12T14:29:20Z</time>
      </trkpt>
      <trkpt lat="47.00855" lon="5.82951">
        <ele>270</ele>
        <time>2013-07-12T14:29:22Z</time>
      </trkpt>
      <trkpt lat="47.0084" lon="5.82944">
        <ele>270</ele>
        <time>2013-07-12T14:29:24Z</time>
      </trkpt>
      <trkpt lat="47.00827" lon="5.82937">
        <ele>270</ele>
        <time>2013-07-12T14:29:26Z</time>
      </trkpt>
      <trkpt lat="47.00815" lon="5.82927">
        <ele>270</ele>
        <time>2013-07-12T14:29:28Z</time>
      </trkpt>
      <trkpt lat="47.00803" lon="5.82916">
        <ele>270</ele>
        <time>2013-07-12T14:29:30Z</time>
      </trkpt>
      <trkpt lat="47.00791" lon="5.82905">
        <ele>270</ele>
        <time>2013-07-12T14:29:32Z</time>
      </trkpt>
      <trkpt lat="47.00778" lon="5.82893">
        <ele>270</ele>
        <time>2013-07-12T14:29:34Z</time>
      </trkpt>
      <trkpt lat="47.00765" lon="5.8288">
        <ele>270</ele>
        <time>2013-07-12T14:29:36Z</time>
      </trkpt>
      <trkpt lat="47.00751" lon="5.82866">
        <ele>264</ele>
        <time>2013-07-12T14:29:38Z</time>
      </trkpt>
      <trkpt lat="47.00739" lon="5.82849">
        <ele>264</ele>
        <time>2013-07-12T14:29:40Z</time>
      </trkpt>
      <trkpt lat="47.00727" lon="5.82831">
        <ele>264</ele>
        <time>2013-07-12T14:29:42Z</time>
      </trkpt>
      <trkpt lat="47.00714" lon="5.82813">
        <ele>264</ele>
        <time>2013-07-12T14:29:44Z</time>
      </trkpt>
      <trkpt lat="47.00707" lon="5.82802">
        <ele>264</ele>
        <time>2013-07-12T14:29:45Z</time>
      </trkpt>
      <trkpt lat="47.007" lon="5.82792">
        <ele>264</ele>
        <time>2013-07-12T14:29:46Z</time>
      </trkpt>
      <trkpt lat="47.00693" lon="5.82781">
        <ele>264</ele>
        <time>2013-07-12T14:29:47Z</time>
      </trkpt>
      <trkpt lat="47.00686" lon="5.82771">
        <ele>259</ele>
        <time>2013-07-12T14:29:48Z</time>
      </trkpt>
      <trkpt lat="47.00679" lon="5.82761">
        <ele>259</ele>
        <time>2013-07-12T14:29:49Z</time>
      </trkpt>
      <trkpt lat="47.00673" lon="5.8275">
        <ele>259</ele>
        <time>2013-07-12T14:29:50Z</time>
      </trkpt>
      <trkpt lat="47.00665" lon="5.82739">
        <ele>259</ele>
        <time>2013-07-12T14:29:51Z</time>
      </trkpt>
      <trkpt lat="47.00658" lon="5.82728">
        <ele>259</ele>
        <time>2013-07-12T14:29:52Z</time>
      </trkpt>
      <trkpt lat="47.00651" lon="5.82718">
        <ele>259</ele>
        <time>2013-07-12T14:29:53Z</time>
      </trkpt>
      <trkpt lat="47.00644" lon="5.82708">
        <ele>259</ele>
        <time>2013-07-12T14:29:54Z</time>
      </trkpt>
      <trkpt lat="47.00637" lon="5.82699">
        <ele>259</ele>
        <time>2013-07-12T14:29:55Z</time>
      </trkpt>
      <trkpt lat="47.0063" lon="5.82689">
        <ele>259</ele>
        <time>2013-07-12T14:29:56Z</time>
      </trkpt>
      <trkpt lat="47.00623" lon="5.82679">
        <ele>259</ele>
        <time>2013-07-12T14:29:57Z</time>
      </trkpt>
      <trkpt lat="47.00615" lon="5.82669">
        <ele>259</ele>
        <time>2013-07-12T14:29:58Z</time>
      </trkpt>
      <trkpt lat="47.00609" lon="5.82659">
        <ele>259</ele>
        <time>2013-07-12T14:29:59Z</time>
      </trkpt>
      <trkpt lat="47.00602" lon="5.82649">
        <ele>259</ele>
        <time>2013-07-12T14:30:00Z</time>
      </trkpt>
      <trkpt lat="47.0059" lon="5.82631">
        <ele>259</ele>
        <time>2013-07-12T14:30:02Z</time>
      </trkpt>
      <trkpt lat="47.00577" lon="5.82615">
        <ele>259</ele>
        <time>2013-07-12T14:30:04Z</time>
      </trkpt>
      <trkpt lat="47.00566" lon="5.82599">
        <ele>259</ele>
        <time>2013-07-12T14:30:06Z</time>
      </trkpt>
      <trkpt lat="47.00556" lon="5.82584">
        <ele>259</ele>
        <time>2013-07-12T14:30:08Z</time>
      </trkpt>
      <trkpt lat="47.00545" lon="5.82571">
        <ele>259</ele>
        <time>2013-07-12T14:30:10Z</time>
      </trkpt>
      <trkpt lat="47.00535" lon="5.82556">
        <ele>259</ele>
        <time>2013-07-12T14:30:12Z</time>
      </trkpt>
      <trkpt lat="47.00527" lon="5.82539">
        <ele>259</ele>
        <time>2013-07-12T14:30:14Z</time>
      </trkpt>
      <trkpt lat="47.00521" lon="5.82518">
        <ele>254</ele>
        <time>2013-07-12T14:30:16Z</time>
      </trkpt>
      <trkpt lat="47.00516" lon="5.82497">
        <ele>254</ele>
        <time>2013-07-12T14:30:18Z</time>
      </trkpt>
      <trkpt lat="47.0051" lon="5.82476">
        <ele>254</ele>
        <time>2013-07-12T14:30:20Z</time>
      </trkpt>
      <trkpt lat="47.00507" lon="5.82463">
        <ele>254</ele>
        <time>2013-07-12T14:30:21Z</time>
      </trkpt>
      <trkpt lat="47.00501" lon="5.8244">
        <ele>254</ele>
        <time>2013-07-12T14:30:23Z</time>
      </trkpt>
      <trkpt lat="47.00498" lon="5.82427">
        <ele>254</ele>
        <time>2013-07-12T14:30:24Z</time>
      </trkpt>
      <trkpt lat="47.00496" lon="5.82415">
        <ele>254</ele>
        <time>2013-07-12T14:30:25Z</time>
      </trkpt>
      <trkpt lat="47.00493" lon="5.82402">
        <ele>254</ele>
        <time>2013-07-12T14:30:26Z</time>
      </trkpt>
      <trkpt lat="47.0049" lon="5.82381">
        <ele>254</ele>
        <time>2013-07-12T14:30:28Z</time>
      </trkpt>
      <trkpt lat="47.00487" lon="5.82361">
        <ele>254</ele>
        <time>2013-07-12T14:30:30Z</time>
      </trkpt>
      <trkpt lat="47.00481" lon="5.82348">
        <ele>254</ele>
        <time>2013-07-12T14:30:32Z</time>
      </trkpt>
      <trkpt lat="47.00469" lon="5.82342">
        <ele>254</ele>
        <time>2013-07-12T14:30:35Z</time>
      </trkpt>
      <trkpt lat="47.00457" lon="5.82344">
        <ele>254</ele>
        <time>2013-07-12T14:30:38Z</time>
      </trkpt>
      <trkpt lat="47.00447" lon="5.82346">
        <ele>254</ele>
        <time>2013-07-12T14:30:40Z</time>
      </trkpt>
      <trkpt lat="47.00437" lon="5.82347">
        <ele>254</ele>
        <time>2013-07-12T14:30:42Z</time>
      </trkpt>
      <trkpt lat="47.00426" lon="5.82349">
        <ele>254</ele>
        <time>2013-07-12T14:30:44Z</time>
      </trkpt>
      <trkpt lat="47.00414" lon="5.8235">
        <ele>254</ele>
        <time>2013-07-12T14:30:47Z</time>
      </trkpt>
      <trkpt lat="47.00404" lon="5.82352">
        <ele>254</ele>
        <time>2013-07-12T14:30:50Z</time>
      </trkpt>
      <trkpt lat="47.00393" lon="5.82354">
        <ele>254</ele>
        <time>2013-07-12T14:30:53Z</time>
      </trkpt>
      <trkpt lat="47.00383" lon="5.82354">
        <ele>254</ele>
        <time>2013-07-12T14:30:56Z</time>
      </trkpt>
      <trkpt lat="47.00373" lon="5.82353">
        <ele>254</ele>
        <time>2013-07-12T14:30:59Z</time>
      </trkpt>
      <trkpt lat="47.00364" lon="5.82345">
        <ele>254</ele>
        <time>2013-07-12T14:31:02Z</time>
      </trkpt>
      <trkpt lat="47.00362" lon="5.82326">
        <ele>254</ele>
        <time>2013-07-12T14:31:05Z</time>
      </trkpt>
      <trkpt lat="47.00363" lon="5.8231">
        <ele>254</ele>
        <time>2013-07-12T14:31:07Z</time>
      </trkpt>
      <trkpt lat="47.00364" lon="5.82293">
        <ele>254</ele>
        <time>2013-07-12T14:31:09Z</time>
      </trkpt>
      <trkpt lat="47.00366" lon="5.82275">
        <ele>254</ele>
        <time>2013-07-12T14:31:11Z</time>
      </trkpt>
      <trkpt lat="47.00368" lon="5.82259">
        <ele>254</ele>
        <time>2013-07-12T14:31:13Z</time>
      </trkpt>
      <trkpt lat="47.0037" lon="5.82243">
        <ele>254</ele>
        <time>2013-07-12T14:31:15Z</time>
      </trkpt>
      <trkpt lat="47.00372" lon="5.82224">
        <ele>254</ele>
        <time>2013-07-12T14:31:18Z</time>
      </trkpt>
      <trkpt lat="47.00373" lon="5.82211">
        <ele>254</ele>
        <time>2013-07-12T14:31:20Z</time>
      </trkpt>
      <trkpt lat="47.00375" lon="5.82195">
        <ele>254</ele>
        <time>2013-07-12T14:31:22Z</time>
      </trkpt>
      <trkpt lat="47.00377" lon="5.8218">
        <ele>254</ele>
        <time>2013-07-12T14:31:24Z</time>
      </trkpt>
      <trkpt lat="47.00379" lon="5.82163">
        <ele>248</ele>
        <time>2013-07-12T14:31:26Z</time>
      </trkpt>
      <trkpt lat="47.00381" lon="5.82145">
        <ele>248</ele>
        <time>2013-07-12T14:31:28Z</time>
      </trkpt>
      <trkpt lat="47.00381" lon="5.82126">
        <ele>248</ele>
        <time>2013-07-12T14:31:30Z</time>
      </trkpt>
      <trkpt lat="47.00381" lon="5.82107">
        <ele>248</ele>
        <time>2013-07-12T14:31:32Z</time>
      </trkpt>
      <trkpt lat="47.0038" lon="5.82087">
        <ele>248</ele>
        <time>2013-07-12T14:31:34Z</time>
      </trkpt>
      <trkpt lat="47.00379" lon="5.82068">
        <ele>248</ele>
        <time>2013-07-12T14:31:36Z</time>
      </trkpt>
      <trkpt lat="47.00378" lon="5.8205">
        <ele>248</ele>
        <time>2013-07-12T14:31:38Z</time>
      </trkpt>
      <trkpt lat="47.00375" lon="5.82034">
        <ele>248</ele>
        <time>2013-07-12T14:31:40Z</time>
      </trkpt>
      <trkpt lat="47.00373" lon="5.82018">
        <ele>248</ele>
        <time>2013-07-12T14:31:42Z</time>
      </trkpt>
      <trkpt lat="47.0037" lon="5.82001">
        <ele>248</ele>
        <time>2013-07-12T14:31:44Z</time>
      </trkpt>
      <trkpt lat="47.00367" lon="5.81985">
        <ele>248</ele>
        <time>2013-07-12T14:31:46Z</time>
      </trkpt>
      <trkpt lat="47.00363" lon="5.81971">
        <ele>242</ele>
        <time>2013-07-12T14:31:48Z</time>
      </trkpt>
      <trkpt lat="47.00359" lon="5.81957">
        <ele>242</ele>
        <time>2013-07-12T14:31:50Z</time>
      </trkpt>
      <trkpt lat="47.00354" lon="5.81941">
        <ele>242</ele>
        <time>2013-07-12T14:31:52Z</time>
      </trkpt>
      <trkpt lat="47.00349" lon="5.81926">
        <ele>242</ele>
        <time>2013-07-12T14:31:54Z</time>
      </trkpt>
      <trkpt lat="47.00345" lon="5.81911">
        <ele>242</ele>
        <time>2013-07-12T14:31:56Z</time>
      </trkpt>
      <trkpt lat="47.00341" lon="5.81895">
        <ele>242</ele>
        <time>2013-07-12T14:31:58Z</time>
      </trkpt>
      <trkpt lat="47.00338" lon="5.81879">
        <ele>242</ele>
        <time>2013-07-12T14:32:00Z</time>
      </trkpt>
      <trkpt lat="47.00336" lon="5.81862">
        <ele>242</ele>
        <time>2013-07-12T14:32:02Z</time>
      </trkpt>
      <trkpt lat="47.00333" lon="5.81847">
        <ele>242</ele>
        <time>2013-07-12T14:32:04Z</time>
      </trkpt>
      <trkpt lat="47.00331" lon="5.81831">
        <ele>242</ele>
        <time>2013-07-12T14:32:06Z</time>
      </trkpt>
      <trkpt lat="47.0033" lon="5.81815">
        <ele>242</ele>
        <time>2013-07-12T14:32:08Z</time>
      </trkpt>
      <trkpt lat="47.00329" lon="5.81798">
        <ele>242</ele>
        <time>2013-07-12T14:32:10Z</time>
      </trkpt>
      <trkpt lat="47.00329" lon="5.81782">
        <ele>242</ele>
        <time>2013-07-12T14:32:12Z</time>
      </trkpt>
      <trkpt lat="47.0033" lon="5.81767">
        <ele>242</ele>
        <time>2013-07-12T14:32:14Z</time>
      </trkpt>
      <trkpt lat="47.00332" lon="5.81753">
        <ele>242</ele>
        <time>2013-07-12T14:32:16Z</time>
      </trkpt>
      <trkpt lat="47.00333" lon="5.81739">
        <ele>242</ele>
        <time>2013-07-12T14:32:18Z</time>
      </trkpt>
      <trkpt lat="47.00336" lon="5.81726">
        <ele>242</ele>
        <time>2013-07-12T14:32:20Z</time>
      </trkpt>
      <trkpt lat="47.00339" lon="5.81707">
        <ele>248</ele>
        <time>2013-07-12T14:32:23Z</time>
      </trkpt>
      <trkpt lat="47.00341" lon="5.81693">
        <ele>248</ele>
        <time>2013-07-12T14:32:25Z</time>
      </trkpt>
      <trkpt lat="47.00344" lon="5.81679">
        <ele>248</ele>
        <time>2013-07-12T14:32:27Z</time>
      </trkpt>
      <trkpt lat="47.00348" lon="5.81665">
        <ele>248</ele>
        <time>2013-07-12T14:32:29Z</time>
      </trkpt>
      <trkpt lat="47.00352" lon="5.81648">
        <ele>248</ele>
        <time>2013-07-12T14:32:31Z</time>
      </trkpt>
      <trkpt lat="47.00357" lon="5.81631">
        <ele>248</ele>
        <time>2013-07-12T14:32:33Z</time>
      </trkpt>
      <trkpt lat="47.00362" lon="5.81612">
        <ele>248</ele>
        <time>2013-07-12T14:32:35Z</time>
      </trkpt>
      <trkpt lat="47.00368" lon="5.81594">
        <ele>248</ele>
        <time>2013-07-12T14:32:37Z</time>
      </trkpt>
      <trkpt lat="47.00375" lon="5.81576">
        <ele>248</ele>
        <time>2013-07-12T14:32:39Z</time>
      </trkpt>
      <trkpt lat="47.00381" lon="5.81558">
        <ele>248</ele>
        <time>2013-07-12T14:32:41Z</time>
      </trkpt>
      <trkpt lat="47.00386" lon="5.81539">
        <ele>248</ele>
        <time>2013-07-12T14:32:43Z</time>
      </trkpt>
      <trkpt lat="47.00391" lon="5.8152">
        <ele>248</ele>
        <time>2013-07-12T14:32:45Z</time>
      </trkpt>
      <trkpt lat="47.00394" lon="5.81502">
        <ele>248</ele>
        <time>2013-07-12T14:32:47Z</time>
      </trkpt>
      <trkpt lat="47.00398" lon="5.81484">
        <ele>248</ele>
        <time>2013-07-12T14:32:49Z</time>
      </trkpt>
      <trkpt lat="47.00402" lon="5.81467">
        <ele>248</ele>
        <time>2013-07-12T14:32:51Z</time>
      </trkpt>
      <trkpt lat="47.00408" lon="5.8145">
        <ele>248</ele>
        <time>2013-07-12T14:32:53Z</time>
      </trkpt>
      <trkpt lat="47.00414" lon="5.81433">
        <ele>248</ele>
        <time>2013-07-12T14:32:55Z</time>
      </trkpt>
      <trkpt lat="47.00419" lon="5.81417">
        <ele>248</ele>
        <time>2013-07-12T14:32:57Z</time>
      </trkpt>
      <trkpt lat="47.00426" lon="5.81401">
        <ele>248</ele>
        <time>2013-07-12T14:32:59Z</time>
      </trkpt>
      <trkpt lat="47.00434" lon="5.81386">
        <ele>248</ele>
        <time>2013-07-12T14:33:01Z</time>
      </trkpt>
      <trkpt lat="47.00443" lon="5.81374">
        <ele>248</ele>
        <time>2013-07-12T14:33:03Z</time>
      </trkpt>
      <trkpt lat="47.00452" lon="5.81361">
        <ele>248</ele>
        <time>2013-07-12T14:33:05Z</time>
      </trkpt>
      <trkpt lat="47.00459" lon="5.81347">
        <ele>248</ele>
        <time>2013-07-12T14:33:07Z</time>
      </trkpt>
      <trkpt lat="47.00465" lon="5.81332">
        <ele>248</ele>
        <time>2013-07-12T14:33:09Z</time>
      </trkpt>
      <trkpt lat="47.0047" lon="5.81317">
        <ele>248</ele>
        <time>2013-07-12T14:33:11Z</time>
      </trkpt>
      <trkpt lat="47.00473" lon="5.81301">
        <ele>248</ele>
        <time>2013-07-12T14:33:13Z</time>
      </trkpt>
      <trkpt lat="47.00475" lon="5.81286">
        <ele>248</ele>
        <time>2013-07-12T14:33:15Z</time>
      </trkpt>
      <trkpt lat="47.00473" lon="5.81272">
        <ele>248</ele>
        <time>2013-07-12T14:33:17Z</time>
      </trkpt>
      <trkpt lat="47.00475" lon="5.81253">
        <ele>248</ele>
        <time>2013-07-12T14:33:20Z</time>
      </trkpt>
      <trkpt lat="47.00479" lon="5.81235">
        <ele>255</ele>
        <time>2013-07-12T14:33:23Z</time>
      </trkpt>
      <trkpt lat="47.0048" lon="5.81216">
        <ele>255</ele>
        <time>2013-07-12T14:33:26Z</time>
      </trkpt>
      <trkpt lat="47.00483" lon="5.81204">
        <ele>255</ele>
        <time>2013-07-12T14:33:28Z</time>
      </trkpt>
      <trkpt lat="47.00487" lon="5.81192">
        <ele>255</ele>
        <time>2013-07-12T14:33:30Z</time>
      </trkpt>
      <trkpt lat="47.00493" lon="5.81174">
        <ele>255</ele>
        <time>2013-07-12T14:33:33Z</time>
      </trkpt>
      <trkpt lat="47.00499" lon="5.81158">
        <ele>255</ele>
        <time>2013-07-12T14:33:36Z</time>
      </trkpt>
      <trkpt lat="47.00504" lon="5.81143">
        <ele>261</ele>
        <time>2013-07-12T14:33:39Z</time>
      </trkpt>
      <trkpt lat="47.00508" lon="5.81126">
        <ele>261</ele>
        <time>2013-07-12T14:33:42Z</time>
      </trkpt>
      <trkpt lat="47.00511" lon="5.81113">
        <ele>261</ele>
        <time>2013-07-12T14:33:44Z</time>
      </trkpt>
      <trkpt lat="47.00515" lon="5.81094">
        <ele>261</ele>
        <time>2013-07-12T14:33:47Z</time>
      </trkpt>
      <trkpt lat="47.00518" lon="5.81081">
        <ele>261</ele>
        <time>2013-07-12T14:33:49Z</time>
      </trkpt>
      <trkpt lat="47.00521" lon="5.81068">
        <ele>261</ele>
        <time>2013-07-12T14:33:51Z</time>
      </trkpt>
      <trkpt lat="47.00524" lon="5.81055">
        <ele>261</ele>
        <time>2013-07-12T14:33:53Z</time>
      </trkpt>
      <trkpt lat="47.00528" lon="5.81043">
        <ele>261</ele>
        <time>2013-07-12T14:33:55Z</time>
      </trkpt>
      <trkpt lat="47.00536" lon="5.81029">
        <ele>267</ele>
        <time>2013-07-12T14:33:58Z</time>
      </trkpt>
      <trkpt lat="47.00544" lon="5.81015">
        <ele>267</ele>
        <time>2013-07-12T14:34:01Z</time>
      </trkpt>
      <trkpt lat="47.00553" lon="5.81">
        <ele>267</ele>
        <time>2013-07-12T14:34:04Z</time>
      </trkpt>
      <trkpt lat="47.00558" lon="5.80983">
        <ele>267</ele>
        <time>2013-07-12T14:34:07Z</time>
      </trkpt>
      <trkpt lat="47.00564" lon="5.80971">
        <ele>267</ele>
        <time>2013-07-12T14:34:09Z</time>
      </trkpt>
      <trkpt lat="47.00568" lon="5.80959">
        <ele>267</ele>
        <time>2013-07-12T14:34:11Z</time>
      </trkpt>
      <trkpt lat="47.00574" lon="5.80943">
        <ele>267</ele>
        <time>2013-07-12T14:34:14Z</time>
      </trkpt>
      <trkpt lat="47.00581" lon="5.8093">
        <ele>273</ele>
        <time>2013-07-12T14:34:17Z</time>
      </trkpt>
      <trkpt lat="47.00588" lon="5.80917">
        <ele>273</ele>
        <time>2013-07-12T14:34:20Z</time>
      </trkpt>
      <trkpt lat="47.00595" lon="5.80906">
        <ele>273</ele>
        <time>2013-07-12T14:34:23Z</time>
      </trkpt>
      <trkpt lat="47.00601" lon="5.80895">
        <ele>279</ele>
        <time>2013-07-12T14:34:26Z</time>
      </trkpt>
      <trkpt lat="47.00608" lon="5.80882">
        <ele>279</ele>
        <time>2013-07-12T14:34:30Z</time>
      </trkpt>
      <trkpt lat="47.00619" lon="5.80878">
        <ele>286</ele>
        <time>2013-07-12T14:34:33Z</time>
      </trkpt>
      <trkpt lat="47.00627" lon="5.80871">
        <ele>286</ele>
        <time>2013-07-12T14:34:35Z</time>
      </trkpt>
      <trkpt lat="47.00636" lon="5.80866">
        <ele>291</ele>
        <time>2013-07-12T14:34:37Z</time>
      </trkpt>
      <trkpt lat="47.00645" lon="5.80859">
        <ele>291</ele>
        <time>2013-07-12T14:34:40Z</time>
      </trkpt>
      <trkpt lat="47.00653" lon="5.80852">
        <ele>291</ele>
        <time>2013-07-12T14:34:43Z</time>
      </trkpt>
      <trkpt lat="47.00665" lon="5.80844">
        <ele>291</ele>
        <time>2013-07-12T14:34:46Z</time>
      </trkpt>
      <trkpt lat="47.00676" lon="5.80838">
        <ele>291</ele>
        <time>2013-07-12T14:34:49Z</time>
      </trkpt>
      <trkpt lat="47.00688" lon="5.80833">
        <ele>291</ele>
        <time>2013-07-12T14:34:52Z</time>
      </trkpt>
      <trkpt lat="47.00697" lon="5.80828">
        <ele>291</ele>
        <time>2013-07-12T14:34:54Z</time>
      </trkpt>
      <trkpt lat="47.00705" lon="5.80822">
        <ele>291</ele>
        <time>2013-07-12T14:34:56Z</time>
      </trkpt>
      <trkpt lat="47.00716" lon="5.80815">
        <ele>291</ele>
        <time>2013-07-12T14:34:59Z</time>
      </trkpt>
      <trkpt lat="47.00726" lon="5.80807">
        <ele>291</ele>
        <time>2013-07-12T14:35:02Z</time>
      </trkpt>
      <trkpt lat="47.00735" lon="5.80803">
        <ele>291</ele>
        <time>2013-07-12T14:35:04Z</time>
      </trkpt>
      <trkpt lat="47.00744" lon="5.80799">
        <ele>291</ele>
        <time>2013-07-12T14:35:06Z</time>
      </trkpt>
      <trkpt lat="47.00752" lon="5.80795">
        <ele>291</ele>
        <time>2013-07-12T14:35:08Z</time>
      </trkpt>
      <trkpt lat="47.00763" lon="5.80789">
        <ele>291</ele>
        <time>2013-07-12T14:35:11Z</time>
      </trkpt>
      <trkpt lat="47.00774" lon="5.80783">
        <ele>291</ele>
        <time>2013-07-12T14:35:14Z</time>
      </trkpt>
      <trkpt lat="47.00785" lon="5.80778">
        <ele>291</ele>
        <time>2013-07-12T14:35:17Z</time>
      </trkpt>
      <trkpt lat="47.00795" lon="5.80773">
        <ele>291</ele>
        <time>2013-07-12T14:35:20Z</time>
      </trkpt>
      <trkpt lat="47.00807" lon="5.80769">
        <ele>291</ele>
        <time>2013-07-12T14:35:23Z</time>
      </trkpt>
      <trkpt lat="47.00816" lon="5.8076">
        <ele>291</ele>
        <time>2013-07-12T14:35:26Z</time>
      </trkpt>
      <trkpt lat="47.00824" lon="5.8075">
        <ele>291</ele>
        <time>2013-07-12T14:35:29Z</time>
      </trkpt>
      <trkpt lat="47.00831" lon="5.80735">
        <ele>291</ele>
        <time>2013-07-12T14:35:32Z</time>
      </trkpt>
      <trkpt lat="47.0083" lon="5.8072">
        <ele>291</ele>
        <time>2013-07-12T14:35:35Z</time>
      </trkpt>
      <trkpt lat="47.00824" lon="5.80709">
        <ele>291</ele>
        <time>2013-07-12T14:35:38Z</time>
      </trkpt>
      <trkpt lat="47.00816" lon="5.80697">
        <ele>291</ele>
        <time>2013-07-12T14:35:41Z</time>
      </trkpt>
      <trkpt lat="47.00812" lon="5.80685">
        <ele>291</ele>
        <time>2013-07-12T14:35:43Z</time>
      </trkpt>
      <trkpt lat="47.00805" lon="5.8067">
        <ele>291</ele>
        <time>2013-07-12T14:35:46Z</time>
      </trkpt>
      <trkpt lat="47.00797" lon="5.80656">
        <ele>285</ele>
        <time>2013-07-12T14:35:49Z</time>
      </trkpt>
      <trkpt lat="47.00788" lon="5.80641">
        <ele>285</ele>
        <time>2013-07-12T14:35:52Z</time>
      </trkpt>
      <trkpt lat="47.00782" lon="5.80632">
        <ele>285</ele>
        <time>2013-07-12T14:35:54Z</time>
      </trkpt>
      <trkpt lat="47.00775" lon="5.80622">
        <ele>285</ele>
        <time>2013-07-12T14:35:56Z</time>
      </trkpt>
      <trkpt lat="47.00765" lon="5.80608">
        <ele>285</ele>
        <time>2013-07-12T14:35:59Z</time>
      </trkpt>
      <trkpt lat="47.00759" lon="5.80599">
        <ele>285</ele>
        <time>2013-07-12T14:36:01Z</time>
      </trkpt>
      <trkpt lat="47.00752" lon="5.80583">
        <ele>285</ele>
        <time>2013-07-12T14:36:04Z</time>
      </trkpt>
      <trkpt lat="47.00748" lon="5.80566">
        <ele>285</ele>
        <time>2013-07-12T14:36:07Z</time>
      </trkpt>
      <trkpt lat="47.00745" lon="5.80548">
        <ele>285</ele>
        <time>2013-07-12T14:36:10Z</time>
      </trkpt>
      <trkpt lat="47.00744" lon="5.80528">
        <ele>285</ele>
        <time>2013-07-12T14:36:13Z</time>
      </trkpt>
      <trkpt lat="47.00744" lon="5.80514">
        <ele>285</ele>
        <time>2013-07-12T14:36:15Z</time>
      </trkpt>
      <trkpt lat="47.00744" lon="5.80496">
        <ele>285</ele>
        <time>2013-07-12T14:36:17Z</time>
      </trkpt>
      <trkpt lat="47.00748" lon="5.80476">
        <ele>280</ele>
        <time>2013-07-12T14:36:19Z</time>
      </trkpt>
      <trkpt lat="47.00753" lon="5.80455">
        <ele>280</ele>
        <time>2013-07-12T14:36:21Z</time>
      </trkpt>
      <trkpt lat="47.0076" lon="5.80434">
        <ele>280</ele>
        <time>2013-07-12T14:36:23Z</time>
      </trkpt>
      <trkpt lat="47.00772" lon="5.80413">
        <ele>280</ele>
        <time>2013-07-12T14:36:25Z</time>
      </trkpt>
      <trkpt lat="47.00778" lon="5.80402">
        <ele>280</ele>
        <time>2013-07-12T14:36:26Z</time>
      </trkpt>
      <trkpt lat="47.00789" lon="5.80384">
        <ele>280</ele>
        <time>2013-07-12T14:36:28Z</time>
      </trkpt>
      <trkpt lat="47.00801" lon="5.80366">
        <ele>280</ele>
        <time>2013-07-12T14:36:30Z</time>
      </trkpt>
      <trkpt lat="47.00808" lon="5.80358">
        <ele>274</ele>
        <time>2013-07-12T14:36:31Z</time>
      </trkpt>
      <trkpt lat="47.00816" lon="5.80349">
        <ele>274</ele>
        <time>2013-07-12T14:36:32Z</time>
      </trkpt>
      <trkpt lat="47.00824" lon="5.80343">
        <ele>274</ele>
        <time>2013-07-12T14:36:33Z</time>
      </trkpt>
      <trkpt lat="47.0084" lon="5.8033">
        <ele>274</ele>
        <time>2013-07-12T14:36:35Z</time>
      </trkpt>
      <trkpt lat="47.0085" lon="5.80327">
        <ele>274</ele>
        <time>2013-07-12T14:36:36Z</time>
      </trkpt>
      <trkpt lat="47.00859" lon="5.80323">
        <ele>274</ele>
        <time>2013-07-12T14:36:37Z</time>
      </trkpt>
      <trkpt lat="47.00869" lon="5.80321">
        <ele>274</ele>
        <time>2013-07-12T14:36:38Z</time>
      </trkpt>
      <trkpt lat="47.0088" lon="5.80316">
        <ele>274</ele>
        <time>2013-07-12T14:36:39Z</time>
      </trkpt>
      <trkpt lat="47.00891" lon="5.80311">
        <ele>274</ele>
        <time>2013-07-12T14:36:40Z</time>
      </trkpt>
      <trkpt lat="47.00901" lon="5.80306">
        <ele>274</ele>
        <time>2013-07-12T14:36:41Z</time>
      </trkpt>
      <trkpt lat="47.00912" lon="5.80302">
        <ele>274</ele>
        <time>2013-07-12T14:36:42Z</time>
      </trkpt>
      <trkpt lat="47.00922" lon="5.80295">
        <ele>274</ele>
        <time>2013-07-12T14:36:43Z</time>
      </trkpt>
      <trkpt lat="47.00931" lon="5.80287">
        <ele>274</ele>
        <time>2013-07-12T14:36:44Z</time>
      </trkpt>
      <trkpt lat="47.0094" lon="5.80276">
        <ele>274</ele>
        <time>2013-07-12T14:36:45Z</time>
      </trkpt>
      <trkpt lat="47.00946" lon="5.80262">
        <ele>274</ele>
        <time>2013-07-12T14:36:46Z</time>
      </trkpt>
      <trkpt lat="47.00948" lon="5.80247">
        <ele>274</ele>
        <time>2013-07-12T14:36:47Z</time>
      </trkpt>
      <trkpt lat="47.00947" lon="5.8023">
        <ele>274</ele>
        <time>2013-07-12T14:36:48Z</time>
      </trkpt>
      <trkpt lat="47.00946" lon="5.80213">
        <ele>274</ele>
        <time>2013-07-12T14:36:49Z</time>
      </trkpt>
      <trkpt lat="47.00945" lon="5.80196">
        <ele>274</ele>
        <time>2013-07-12T14:36:50Z</time>
      </trkpt>
      <trkpt lat="47.00944" lon="5.8018">
        <ele>274</ele>
        <time>2013-07-12T14:36:51Z</time>
      </trkpt>
      <trkpt lat="47.00942" lon="5.80163">
        <ele>274</ele>
        <time>2013-07-12T14:36:52Z</time>
      </trkpt>
      <trkpt lat="47.0094" lon="5.80146">
        <ele>274</ele>
        <time>2013-07-12T14:36:53Z</time>
      </trkpt>
      <trkpt lat="47.00937" lon="5.80129">
        <ele>274</ele>
        <time>2013-07-12T14:36:54Z</time>
      </trkpt>
      <trkpt lat="47.00936" lon="5.80112">
        <ele>274</ele>
        <time>2013-07-12T14:36:55Z</time>
      </trkpt>
      <trkpt lat="47.00935" lon="5.80096">
        <ele>274</ele>
        <time>2013-07-12T14:36:56Z</time>
      </trkpt>
      <trkpt lat="47.00933" lon="5.80079">
        <ele>274</ele>
        <time>2013-07-12T14:36:57Z</time>
      </trkpt>
      <trkpt lat="47.00933" lon="5.80064">
        <ele>274</ele>
        <time>2013-07-12T14:36:58Z</time>
      </trkpt>
      <trkpt lat="47.00931" lon="5.80048">
        <ele>274</ele>
        <time>2013-07-12T14:36:59Z</time>
      </trkpt>
      <trkpt lat="47.00932" lon="5.80032">
        <ele>274</ele>
        <time>2013-07-12T14:37:00Z</time>
      </trkpt>
      <trkpt lat="47.00933" lon="5.80017">
        <ele>274</ele>
        <time>2013-07-12T14:37:01Z</time>
      </trkpt>
      <trkpt lat="47.00936" lon="5.80003">
        <ele>274</ele>
        <time>2013-07-12T14:37:02Z</time>
      </trkpt>
      <trkpt lat="47.00937" lon="5.79988">
        <ele>274</ele>
        <time>2013-07-12T14:37:03Z</time>
      </trkpt>
      <trkpt lat="47.00939" lon="5.79974">
        <ele>274</ele>
        <time>2013-07-12T14:37:04Z</time>
      </trkpt>
      <trkpt lat="47.00941" lon="5.79959">
        <ele>274</ele>
        <time>2013-07-12T14:37:05Z</time>
      </trkpt>
      <trkpt lat="47.00941" lon="5.79944">
        <ele>269</ele>
        <time>2013-07-12T14:37:06Z</time>
      </trkpt>
      <trkpt lat="47.0094" lon="5.79929">
        <ele>269</ele>
        <time>2013-07-12T14:37:07Z</time>
      </trkpt>
      <trkpt lat="47.00938" lon="5.79915">
        <ele>269</ele>
        <time>2013-07-12T14:37:08Z</time>
      </trkpt>
      <trkpt lat="47.00934" lon="5.799">
        <ele>269</ele>
        <time>2013-07-12T14:37:09Z</time>
      </trkpt>
      <trkpt lat="47.00929" lon="5.79887">
        <ele>269</ele>
        <time>2013-07-12T14:37:10Z</time>
      </trkpt>
      <trkpt lat="47.00922" lon="5.79874">
        <ele>269</ele>
        <time>2013-07-12T14:37:11Z</time>
      </trkpt>
      <trkpt lat="47.00915" lon="5.79862">
        <ele>269</ele>
        <time>2013-07-12T14:37:12Z</time>
      </trkpt>
      <trkpt lat="47.00907" lon="5.7985">
        <ele>269</ele>
        <time>2013-07-12T14:37:13Z</time>
      </trkpt>
      <trkpt lat="47.009" lon="5.79837">
        <ele>269</ele>
        <time>2013-07-12T14:37:14Z</time>
      </trkpt>
      <trkpt lat="47.00894" lon="5.79823">
        <ele>264</ele>
        <time>2013-07-12T14:37:15Z</time>
      </trkpt>
      <trkpt lat="47.0089" lon="5.79808">
        <ele>264</ele>
        <time>2013-07-12T14:37:16Z</time>
      </trkpt>
      <trkpt lat="47.00889" lon="5.79793">
        <ele>264</ele>
        <time>2013-07-12T14:37:17Z</time>
      </trkpt>
      <trkpt lat="47.00889" lon="5.79778">
        <ele>264</ele>
        <time>2013-07-12T14:37:18Z</time>
      </trkpt>
      <trkpt lat="47.00893" lon="5.79763">
        <ele>264</ele>
        <time>2013-07-12T14:37:19Z</time>
      </trkpt>
      <trkpt lat="47.00897" lon="5.79748">
        <ele>264</ele>
        <time>2013-07-12T14:37:20Z</time>
      </trkpt>
      <trkpt lat="47.00902" lon="5.79733">
        <ele>264</ele>
        <time>2013-07-12T14:37:21Z</time>
      </trkpt>
      <trkpt lat="47.00909" lon="5.79722">
        <ele>264</ele>
        <time>2013-07-12T14:37:22Z</time>
      </trkpt>
      <trkpt lat="47.00918" lon="5.79715">
        <ele>264</ele>
        <time>2013-07-12T14:37:23Z</time>
      </trkpt>
      <trkpt lat="47.00928" lon="5.79711">
        <ele>258</ele>
        <time>2013-07-12T14:37:24Z</time>
      </trkpt>
      <trkpt lat="47.0094" lon="5.79709">
        <ele>258</ele>
        <time>2013-07-12T14:37:25Z</time>
      </trkpt>
      <trkpt lat="47.00949" lon="5.79704">
        <ele>258</ele>
        <time>2013-07-12T14:37:26Z</time>
      </trkpt>
      <trkpt lat="47.00961" lon="5.797">
        <ele>258</ele>
        <time>2013-07-12T14:37:27Z</time>
      </trkpt>
      <trkpt lat="47.0097" lon="5.79693">
        <ele>258</ele>
        <time>2013-07-12T14:37:28Z</time>
      </trkpt>
      <trkpt lat="47.0098" lon="5.79686">
        <ele>258</ele>
        <time>2013-07-12T14:37:29Z</time>
      </trkpt>
      <trkpt lat="47.00988" lon="5.79676">
        <ele>258</ele>
        <time>2013-07-12T14:37:30Z</time>
      </trkpt>
      <trkpt lat="47.00996" lon="5.79665">
        <ele>258</ele>
        <time>2013-07-12T14:37:31Z</time>
      </trkpt>
      <trkpt lat="47.01003" lon="5.79654">
        <ele>258</ele>
        <time>2013-07-12T14:37:32Z</time>
      </trkpt>
      <trkpt lat="47.01008" lon="5.79642">
        <ele>258</ele>
        <time>2013-07-12T14:37:33Z</time>
      </trkpt>
      <trkpt lat="47.01015" lon="5.79628">
        <ele>253</ele>
        <time>2013-07-12T14:37:34Z</time>
      </trkpt>
      <trkpt lat="47.01021" lon="5.79616">
        <ele>253</ele>
        <time>2013-07-12T14:37:35Z</time>
      </trkpt>
      <trkpt lat="47.01027" lon="5.79602">
        <ele>253</ele>
        <time>2013-07-12T14:37:36Z</time>
      </trkpt>
      <trkpt lat="47.01032" lon="5.79589">
        <ele>253</ele>
        <time>2013-07-12T14:37:37Z</time>
      </trkpt>
      <trkpt lat="47.01036" lon="5.79575">
        <ele>253</ele>
        <time>2013-07-12T14:37:38Z</time>
      </trkpt>
      <trkpt lat="47.0104" lon="5.79561">
        <ele>253</ele>
        <time>2013-07-12T14:37:39Z</time>
      </trkpt>
      <trkpt lat="47.01043" lon="5.79545">
        <ele>253</ele>
        <time>2013-07-12T14:37:40Z</time>
      </trkpt>
      <trkpt lat="47.01045" lon="5.7953">
        <ele>253</ele>
        <time>2013-07-12T14:37:41Z</time>
      </trkpt>
      <trkpt lat="47.01045" lon="5.79514">
        <ele>253</ele>
        <time>2013-07-12T14:37:42Z</time>
      </trkpt>
      <trkpt lat="47.01044" lon="5.79498">
        <ele>248</ele>
        <time>2013-07-12T14:37:43Z</time>
      </trkpt>
      <trkpt lat="47.01043" lon="5.79481">
        <ele>248</ele>
        <time>2013-07-12T14:37:44Z</time>
      </trkpt>
      <trkpt lat="47.01041" lon="5.79465">
        <ele>248</ele>
        <time>2013-07-12T14:37:45Z</time>
      </trkpt>
      <trkpt lat="47.01039" lon="5.79448">
        <ele>248</ele>
        <time>2013-07-12T14:37:46Z</time>
      </trkpt>
      <trkpt lat="47.01037" lon="5.79431">
        <ele>248</ele>
        <time>2013-07-12T14:37:47Z</time>
      </trkpt>
      <trkpt lat="47.01035" lon="5.79414">
        <ele>248</ele>
        <time>2013-07-12T14:37:48Z</time>
      </trkpt>
      <trkpt lat="47.01032" lon="5.79398">
        <ele>248</ele>
        <time>2013-07-12T14:37:49Z</time>
      </trkpt>
      <trkpt lat="47.0103" lon="5.79382">
        <ele>248</ele>
        <time>2013-07-12T14:37:50Z</time>
      </trkpt>
      <trkpt lat="47.0103" lon="5.79366">
        <ele>248</ele>
        <time>2013-07-12T14:37:51Z</time>
      </trkpt>
      <trkpt lat="47.0103" lon="5.79351">
        <ele>248</ele>
        <time>2013-07-12T14:37:52Z</time>
      </trkpt>
      <trkpt lat="47.01031" lon="5.79335">
        <ele>248</ele>
        <time>2013-07-12T14:37:53Z</time>
      </trkpt>
      <trkpt lat="47.01033" lon="5.7932">
        <ele>248</ele>
        <time>2013-07-12T14:37:54Z</time>
      </trkpt>
      <trkpt lat="47.01035" lon="5.79306">
        <ele>248</ele>
        <time>2013-07-12T14:37:55Z</time>
      </trkpt>
      <trkpt lat="47.01038" lon="5.79291">
        <ele>248</ele>
        <time>2013-07-12T14:37:56Z</time>
      </trkpt>
      <trkpt lat="47.0104" lon="5.79278">
        <ele>248</ele>
        <time>2013-07-12T14:37:57Z</time>
      </trkpt>
      <trkpt lat="47.01042" lon="5.79263">
        <ele>248</ele>
        <time>2013-07-12T14:37:58Z</time>
      </trkpt>
      <trkpt lat="47.01044" lon="5.79249">
        <ele>248</ele>
        <time>2013-07-12T14:37:59Z</time>
      </trkpt>
      <trkpt lat="47.01047" lon="5.79235">
        <ele>248</ele>
        <time>2013-07-12T14:38:00Z</time>
      </trkpt>
      <trkpt lat="47.01049" lon="5.79221">
        <ele>248</ele>
        <time>2013-07-12T14:38:01Z</time>
      </trkpt>
      <trkpt lat="47.0105" lon="5.79207">
        <ele>248</ele>
        <time>2013-07-12T14:38:02Z</time>
      </trkpt>
      <trkpt lat="47.01052" lon="5.79192">
        <ele>248</ele>
        <time>2013-07-12T14:38:03Z</time>
      </trkpt>
      <trkpt lat="47.01054" lon="5.79178">
        <ele>248</ele>
        <time>2013-07-12T14:38:04Z</time>
      </trkpt>
      <trkpt lat="47.01056" lon="5.79165">
        <ele>243</ele>
        <time>2013-07-12T14:38:05Z</time>
      </trkpt>
      <trkpt lat="47.01057" lon="5.7915">
        <ele>243</ele>
        <time>2013-07-12T14:38:06Z</time>
      </trkpt>
      <trkpt lat="47.01058" lon="5.79136">
        <ele>243</ele>
        <time>2013-07-12T14:38:07Z</time>
      </trkpt>
      <trkpt lat="47.01058" lon="5.79122">
        <ele>243</ele>
        <time>2013-07-12T14:38:08Z</time>
      </trkpt>
      <trkpt lat="47.01056" lon="5.79108">
        <ele>243</ele>
        <time>2013-07-12T14:38:09Z</time>
      </trkpt>
      <trkpt lat="47.01054" lon="5.79095">
        <ele>243</ele>
        <time>2013-07-12T14:38:10Z</time>
      </trkpt>
      <trkpt lat="47.01052" lon="5.79081">
        <ele>243</ele>
        <time>2013-07-12T14:38:11Z</time>
      </trkpt>
      <trkpt lat="47.0105" lon="5.79068">
        <ele>243</ele>
        <time>2013-07-12T14:38:12Z</time>
      </trkpt>
      <trkpt lat="47.01047" lon="5.79053">
        <ele>243</ele>
        <time>2013-07-12T14:38:13Z</time>
      </trkpt>
      <trkpt lat="47.01046" lon="5.79039">
        <ele>243</ele>
        <time>2013-07-12T14:38:14Z</time>
      </trkpt>
      <trkpt lat="47.01039" lon="5.78998">
        <ele>243</ele>
        <time>2013-07-12T14:38:17Z</time>
      </trkpt>
      <trkpt lat="47.01035" lon="5.78986">
        <ele>243</ele>
        <time>2013-07-12T14:38:18Z</time>
      </trkpt>
      <trkpt lat="47.01027" lon="5.78963">
        <ele>243</ele>
        <time>2013-07-12T14:38:20Z</time>
      </trkpt>
      <trkpt lat="47.01015" lon="5.78944">
        <ele>243</ele>
        <time>2013-07-12T14:38:22Z</time>
      </trkpt>
      <trkpt lat="47.01008" lon="5.78935">
        <ele>243</ele>
        <time>2013-07-12T14:38:23Z</time>
      </trkpt>
      <trkpt lat="47.00995" lon="5.78918">
        <ele>243</ele>
        <time>2013-07-12T14:38:25Z</time>
      </trkpt>
      <trkpt lat="47.00983" lon="5.78901">
        <ele>243</ele>
        <time>2013-07-12T14:38:27Z</time>
      </trkpt>
      <trkpt lat="47.00972" lon="5.78884">
        <ele>243</ele>
        <time>2013-07-12T14:38:29Z</time>
      </trkpt>
      <trkpt lat="47.00961" lon="5.78865">
        <ele>243</ele>
        <time>2013-07-12T14:38:31Z</time>
      </trkpt>
      <trkpt lat="47.00951" lon="5.78847">
        <ele>243</ele>
        <time>2013-07-12T14:38:33Z</time>
      </trkpt>
      <trkpt lat="47.0094" lon="5.78827">
        <ele>243</ele>
        <time>2013-07-12T14:38:35Z</time>
      </trkpt>
      <trkpt lat="47.00931" lon="5.78807">
        <ele>243</ele>
        <time>2013-07-12T14:38:37Z</time>
      </trkpt>
      <trkpt lat="47.00922" lon="5.78787">
        <ele>243</ele>
        <time>2013-07-12T14:38:39Z</time>
      </trkpt>
      <trkpt lat="47.00913" lon="5.78768">
        <ele>243</ele>
        <time>2013-07-12T14:38:41Z</time>
      </trkpt>
      <trkpt lat="47.00904" lon="5.7875">
        <ele>243</ele>
        <time>2013-07-12T14:38:43Z</time>
      </trkpt>
      <trkpt lat="47.00896" lon="5.78732">
        <ele>243</ele>
        <time>2013-07-12T14:38:45Z</time>
      </trkpt>
      <trkpt lat="47.00888" lon="5.78714">
        <ele>243</ele>
        <time>2013-07-12T14:38:47Z</time>
      </trkpt>
      <trkpt lat="47.00881" lon="5.78696">
        <ele>243</ele>
        <time>2013-07-12T14:38:49Z</time>
      </trkpt>
      <trkpt lat="47.00874" lon="5.78678">
        <ele>243</ele>
        <time>2013-07-12T14:38:51Z</time>
      </trkpt>
      <trkpt lat="47.00866" lon="5.7866">
        <ele>243</ele>
        <time>2013-07-12T14:38:53Z</time>
      </trkpt>
      <trkpt lat="47.00858" lon="5.78644">
        <ele>243</ele>
        <time>2013-07-12T14:38:55Z</time>
      </trkpt>
      <trkpt lat="47.00851" lon="5.78629">
        <ele>243</ele>
        <time>2013-07-12T14:38:57Z</time>
      </trkpt>
      <trkpt lat="47.00846" lon="5.78617">
        <ele>243</ele>
        <time>2013-07-12T14:38:59Z</time>
      </trkpt>
      <trkpt lat="47.00841" lon="5.78604">
        <ele>243</ele>
        <time>2013-07-12T14:39:03Z</time>
      </trkpt>
      <trkpt lat="47.00833" lon="5.78611">
        <ele>243</ele>
        <time>2013-07-12T14:40:48Z</time>
      </trkpt>
      <trkpt lat="47.00835" lon="5.78596">
        <ele>252</ele>
        <time>2013-07-12T14:41:43Z</time>
      </trkpt>
      <trkpt lat="47.00835" lon="5.78581">
        <ele>252</ele>
        <time>2013-07-12T14:41:46Z</time>
      </trkpt>
      <trkpt lat="47.00842" lon="5.78564">
        <ele>252</ele>
        <time>2013-07-12T14:41:49Z</time>
      </trkpt>
      <trkpt lat="47.0085" lon="5.78552">
        <ele>252</ele>
        <time>2013-07-12T14:41:51Z</time>
      </trkpt>
      <trkpt lat="47.00859" lon="5.78541">
        <ele>252</ele>
        <time>2013-07-12T14:41:53Z</time>
      </trkpt>
      <trkpt lat="47.00868" lon="5.78529">
        <ele>252</ele>
        <time>2013-07-12T14:41:55Z</time>
      </trkpt>
      <trkpt lat="47.00878" lon="5.78519">
        <ele>252</ele>
        <time>2013-07-12T14:41:57Z</time>
      </trkpt>
      <trkpt lat="47.00888" lon="5.78506">
        <ele>246</ele>
        <time>2013-07-12T14:41:59Z</time>
      </trkpt>
      <trkpt lat="47.00897" lon="5.78494">
        <ele>246</ele>
        <time>2013-07-12T14:42:01Z</time>
      </trkpt>
      <trkpt lat="47.00907" lon="5.78483">
        <ele>246</ele>
        <time>2013-07-12T14:42:03Z</time>
      </trkpt>
      <trkpt lat="47.00918" lon="5.7847">
        <ele>246</ele>
        <time>2013-07-12T14:42:05Z</time>
      </trkpt>
      <trkpt lat="47.00928" lon="5.78458">
        <ele>246</ele>
        <time>2013-07-12T14:42:07Z</time>
      </trkpt>
      <trkpt lat="47.00939" lon="5.78446">
        <ele>246</ele>
        <time>2013-07-12T14:42:09Z</time>
      </trkpt>
      <trkpt lat="47.00948" lon="5.78433">
        <ele>246</ele>
        <time>2013-07-12T14:42:11Z</time>
      </trkpt>
      <trkpt lat="47.00959" lon="5.78421">
        <ele>246</ele>
        <time>2013-07-12T14:42:13Z</time>
      </trkpt>
      <trkpt lat="47.00969" lon="5.78408">
        <ele>246</ele>
        <time>2013-07-12T14:42:15Z</time>
      </trkpt>
      <trkpt lat="47.0098" lon="5.78397">
        <ele>246</ele>
        <time>2013-07-12T14:42:17Z</time>
      </trkpt>
      <trkpt lat="47.00991" lon="5.78384">
        <ele>246</ele>
        <time>2013-07-12T14:42:19Z</time>
      </trkpt>
      <trkpt lat="47.01001" lon="5.78371">
        <ele>246</ele>
        <time>2013-07-12T14:42:21Z</time>
      </trkpt>
      <trkpt lat="47.01012" lon="5.78359">
        <ele>246</ele>
        <time>2013-07-12T14:42:23Z</time>
      </trkpt>
      <trkpt lat="47.01022" lon="5.78345">
        <ele>246</ele>
        <time>2013-07-12T14:42:25Z</time>
      </trkpt>
      <trkpt lat="47.01031" lon="5.78333">
        <ele>246</ele>
        <time>2013-07-12T14:42:27Z</time>
      </trkpt>
      <trkpt lat="47.01042" lon="5.78321">
        <ele>246</ele>
        <time>2013-07-12T14:42:29Z</time>
      </trkpt>
      <trkpt lat="47.01052" lon="5.78309">
        <ele>246</ele>
        <time>2013-07-12T14:42:31Z</time>
      </trkpt>
      <trkpt lat="47.01063" lon="5.78297">
        <ele>246</ele>
        <time>2013-07-12T14:42:33Z</time>
      </trkpt>
      <trkpt lat="47.01073" lon="5.78285">
        <ele>246</ele>
        <time>2013-07-12T14:42:35Z</time>
      </trkpt>
      <trkpt lat="47.01083" lon="5.78273">
        <ele>246</ele>
        <time>2013-07-12T14:42:37Z</time>
      </trkpt>
      <trkpt lat="47.01093" lon="5.7826">
        <ele>246</ele>
        <time>2013-07-12T14:42:39Z</time>
      </trkpt>
      <trkpt lat="47.01103" lon="5.78248">
        <ele>246</ele>
        <time>2013-07-12T14:42:41Z</time>
      </trkpt>
      <trkpt lat="47.01114" lon="5.78235">
        <ele>246</ele>
        <time>2013-07-12T14:42:43Z</time>
      </trkpt>
      <trkpt lat="47.01124" lon="5.78221">
        <ele>246</ele>
        <time>2013-07-12T14:42:45Z</time>
      </trkpt>
      <trkpt lat="47.01134" lon="5.78209">
        <ele>246</ele>
        <time>2013-07-12T14:42:47Z</time>
      </trkpt>
      <trkpt lat="47.01143" lon="5.78196">
        <ele>246</ele>
        <time>2013-07-12T14:42:49Z</time>
      </trkpt>
      <trkpt lat="47.01154" lon="5.78185">
        <ele>246</ele>
        <time>2013-07-12T14:42:51Z</time>
      </trkpt>
      <trkpt lat="47.01164" lon="5.78172">
        <ele>246</ele>
        <time>2013-07-12T14:42:53Z</time>
      </trkpt>
      <trkpt lat="47.01174" lon="5.7816">
        <ele>246</ele>
        <time>2013-07-12T14:42:55Z</time>
      </trkpt>
      <trkpt lat="47.01183" lon="5.78149">
        <ele>246</ele>
        <time>2013-07-12T14:42:57Z</time>
      </trkpt>
      <trkpt lat="47.01192" lon="5.78137">
        <ele>246</ele>
        <time>2013-07-12T14:42:59Z</time>
      </trkpt>
      <trkpt lat="47.01202" lon="5.78125">
        <ele>246</ele>
        <time>2013-07-12T14:43:01Z</time>
      </trkpt>
      <trkpt lat="47.01211" lon="5.78114">
        <ele>246</ele>
        <time>2013-07-12T14:43:03Z</time>
      </trkpt>
      <trkpt lat="47.01221" lon="5.78103">
        <ele>246</ele>
        <time>2013-07-12T14:43:05Z</time>
      </trkpt>
      <trkpt lat="47.01232" lon="5.78092">
        <ele>246</ele>
        <time>2013-07-12T14:43:07Z</time>
      </trkpt>
      <trkpt lat="47.01242" lon="5.7808">
        <ele>246</ele>
        <time>2013-07-12T14:43:09Z</time>
      </trkpt>
      <trkpt lat="47.01251" lon="5.7807">
        <ele>252</ele>
        <time>2013-07-12T14:43:11Z</time>
      </trkpt>
      <trkpt lat="47.01262" lon="5.78058">
        <ele>252</ele>
        <time>2013-07-12T14:43:13Z</time>
      </trkpt>
      <trkpt lat="47.01272" lon="5.78048">
        <ele>252</ele>
        <time>2013-07-12T14:43:15Z</time>
      </trkpt>
      <trkpt lat="47.01282" lon="5.78038">
        <ele>252</ele>
        <time>2013-07-12T14:43:17Z</time>
      </trkpt>
      <trkpt lat="47.01291" lon="5.78027">
        <ele>252</ele>
        <time>2013-07-12T14:43:19Z</time>
      </trkpt>
      <trkpt lat="47.01301" lon="5.78016">
        <ele>252</ele>
        <time>2013-07-12T14:43:21Z</time>
      </trkpt>
      <trkpt lat="47.01311" lon="5.78006">
        <ele>252</ele>
        <time>2013-07-12T14:43:23Z</time>
      </trkpt>
      <trkpt lat="47.0132" lon="5.77995">
        <ele>252</ele>
        <time>2013-07-12T14:43:25Z</time>
      </trkpt>
      <trkpt lat="47.01329" lon="5.77985">
        <ele>252</ele>
        <time>2013-07-12T14:43:27Z</time>
      </trkpt>
      <trkpt lat="47.01339" lon="5.77975">
        <ele>252</ele>
        <time>2013-07-12T14:43:29Z</time>
      </trkpt>
      <trkpt lat="47.01349" lon="5.77967">
        <ele>252</ele>
        <time>2013-07-12T14:43:31Z</time>
      </trkpt>
      <trkpt lat="47.01359" lon="5.77964">
        <ele>258</ele>
        <time>2013-07-12T14:43:33Z</time>
      </trkpt>
      <trkpt lat="47.01369" lon="5.77973">
        <ele>258</ele>
        <time>2013-07-12T14:43:35Z</time>
      </trkpt>
      <trkpt lat="47.0138" lon="5.77992">
        <ele>258</ele>
        <time>2013-07-12T14:43:37Z</time>
      </trkpt>
      <trkpt lat="47.01391" lon="5.7801">
        <ele>258</ele>
        <time>2013-07-12T14:43:39Z</time>
      </trkpt>
      <trkpt lat="47.014" lon="5.78028">
        <ele>258</ele>
        <time>2013-07-12T14:43:41Z</time>
      </trkpt>
      <trkpt lat="47.01409" lon="5.78045">
        <ele>258</ele>
        <time>2013-07-12T14:43:43Z</time>
      </trkpt>
      <trkpt lat="47.01416" lon="5.7806">
        <ele>258</ele>
        <time>2013-07-12T14:43:45Z</time>
      </trkpt>
      <trkpt lat="47.01425" lon="5.78076">
        <ele>258</ele>
        <time>2013-07-12T14:43:47Z</time>
      </trkpt>
      <trkpt lat="47.01433" lon="5.7809">
        <ele>258</ele>
        <time>2013-07-12T14:43:49Z</time>
      </trkpt>
      <trkpt lat="47.01444" lon="5.78105">
        <ele>258</ele>
        <time>2013-07-12T14:43:51Z</time>
      </trkpt>
      <trkpt lat="47.01453" lon="5.78119">
        <ele>258</ele>
        <time>2013-07-12T14:43:53Z</time>
      </trkpt>
      <trkpt lat="47.01462" lon="5.78133">
        <ele>258</ele>
        <time>2013-07-12T14:43:55Z</time>
      </trkpt>
      <trkpt lat="47.01471" lon="5.78148">
        <ele>251</ele>
        <time>2013-07-12T14:43:57Z</time>
      </trkpt>
      <trkpt lat="47.01478" lon="5.78162">
        <ele>251</ele>
        <time>2013-07-12T14:43:59Z</time>
      </trkpt>
      <trkpt lat="47.01486" lon="5.78175">
        <ele>251</ele>
        <time>2013-07-12T14:44:01Z</time>
      </trkpt>
      <trkpt lat="47.01495" lon="5.78187">
        <ele>251</ele>
        <time>2013-07-12T14:44:03Z</time>
      </trkpt>
      <trkpt lat="47.01503" lon="5.78201">
        <ele>251</ele>
        <time>2013-07-12T14:44:05Z</time>
      </trkpt>
      <trkpt lat="47.01512" lon="5.78216">
        <ele>251</ele>
        <time>2013-07-12T14:44:07Z</time>
      </trkpt>
      <trkpt lat="47.01519" lon="5.78229">
        <ele>251</ele>
        <time>2013-07-12T14:44:09Z</time>
      </trkpt>
      <trkpt lat="47.01527" lon="5.78239">
        <ele>251</ele>
        <time>2013-07-12T14:44:11Z</time>
      </trkpt>
      <trkpt lat="47.01535" lon="5.78251">
        <ele>251</ele>
        <time>2013-07-12T14:44:13Z</time>
      </trkpt>
      <trkpt lat="47.01544" lon="5.78263">
        <ele>251</ele>
        <time>2013-07-12T14:44:15Z</time>
      </trkpt>
      <trkpt lat="47.01552" lon="5.78274">
        <ele>251</ele>
        <time>2013-07-12T14:44:17Z</time>
      </trkpt>
      <trkpt lat="47.01562" lon="5.78285">
        <ele>251</ele>
        <time>2013-07-12T14:44:19Z</time>
      </trkpt>
      <trkpt lat="47.01572" lon="5.78297">
        <ele>251</ele>
        <time>2013-07-12T14:44:21Z</time>
      </trkpt>
      <trkpt lat="47.01581" lon="5.78308">
        <ele>251</ele>
        <time>2013-07-12T14:44:23Z</time>
      </trkpt>
      <trkpt lat="47.0159" lon="5.78321">
        <ele>251</ele>
        <time>2013-07-12T14:44:25Z</time>
      </trkpt>
      <trkpt lat="47.01599" lon="5.78334">
        <ele>251</ele>
        <time>2013-07-12T14:44:27Z</time>
      </trkpt>
      <trkpt lat="47.01608" lon="5.78345">
        <ele>251</ele>
        <time>2013-07-12T14:44:29Z</time>
      </trkpt>
      <trkpt lat="47.01617" lon="5.78357">
        <ele>251</ele>
        <time>2013-07-12T14:44:31Z</time>
      </trkpt>
      <trkpt lat="47.01627" lon="5.78368">
        <ele>251</ele>
        <time>2013-07-12T14:44:33Z</time>
      </trkpt>
      <trkpt lat="47.01636" lon="5.78379">
        <ele>251</ele>
        <time>2013-07-12T14:44:35Z</time>
      </trkpt>
      <trkpt lat="47.01645" lon="5.7839">
        <ele>251</ele>
        <time>2013-07-12T14:44:37Z</time>
      </trkpt>
      <trkpt lat="47.01653" lon="5.78401">
        <ele>251</ele>
        <time>2013-07-12T14:44:39Z</time>
      </trkpt>
      <trkpt lat="47.01661" lon="5.78412">
        <ele>251</ele>
        <time>2013-07-12T14:44:41Z</time>
      </trkpt>
      <trkpt lat="47.0167" lon="5.78423">
        <ele>251</ele>
        <time>2013-07-12T14:44:43Z</time>
      </trkpt>
      <trkpt lat="47.01684" lon="5.78441">
        <ele>251</ele>
        <time>2013-07-12T14:44:46Z</time>
      </trkpt>
      <trkpt lat="47.01693" lon="5.78453">
        <ele>251</ele>
        <time>2013-07-12T14:44:48Z</time>
      </trkpt>
      <trkpt lat="47.01701" lon="5.78465">
        <ele>251</ele>
        <time>2013-07-12T14:44:50Z</time>
      </trkpt>
      <trkpt lat="47.01709" lon="5.78476">
        <ele>251</ele>
        <time>2013-07-12T14:44:52Z</time>
      </trkpt>
      <trkpt lat="47.01717" lon="5.78488">
        <ele>251</ele>
        <time>2013-07-12T14:44:54Z</time>
      </trkpt>
      <trkpt lat="47.01726" lon="5.785">
        <ele>251</ele>
        <time>2013-07-12T14:44:56Z</time>
      </trkpt>
      <trkpt lat="47.01736" lon="5.78511">
        <ele>251</ele>
        <time>2013-07-12T14:44:58Z</time>
      </trkpt>
      <trkpt lat="47.01745" lon="5.78522">
        <ele>246</ele>
        <time>2013-07-12T14:45:00Z</time>
      </trkpt>
      <trkpt lat="47.01756" lon="5.78534">
        <ele>246</ele>
        <time>2013-07-12T14:45:02Z</time>
      </trkpt>
      <trkpt lat="47.01766" lon="5.78546">
        <ele>246</ele>
        <time>2013-07-12T14:45:04Z</time>
      </trkpt>
      <trkpt lat="47.01776" lon="5.7856">
        <ele>246</ele>
        <time>2013-07-12T14:45:06Z</time>
      </trkpt>
      <trkpt lat="47.01786" lon="5.78573">
        <ele>246</ele>
        <time>2013-07-12T14:45:08Z</time>
      </trkpt>
      <trkpt lat="47.01795" lon="5.78587">
        <ele>246</ele>
        <time>2013-07-12T14:45:10Z</time>
      </trkpt>
      <trkpt lat="47.01806" lon="5.78599">
        <ele>246</ele>
        <time>2013-07-12T14:45:12Z</time>
      </trkpt>
      <trkpt lat="47.01817" lon="5.78612">
        <ele>246</ele>
        <time>2013-07-12T14:45:14Z</time>
      </trkpt>
      <trkpt lat="47.01823" lon="5.78628">
        <ele>246</ele>
        <time>2013-07-12T14:45:16Z</time>
      </trkpt>
      <trkpt lat="47.01832" lon="5.78641">
        <ele>246</ele>
        <time>2013-07-12T14:45:18Z</time>
      </trkpt>
      <trkpt lat="47.01842" lon="5.78652">
        <ele>246</ele>
        <time>2013-07-12T14:45:20Z</time>
      </trkpt>
      <trkpt lat="47.01854" lon="5.78663">
        <ele>246</ele>
        <time>2013-07-12T14:45:22Z</time>
      </trkpt>
      <trkpt lat="47.01865" lon="5.78674">
        <ele>246</ele>
        <time>2013-07-12T14:45:24Z</time>
      </trkpt>
      <trkpt lat="47.01876" lon="5.78686">
        <ele>246</ele>
        <time>2013-07-12T14:45:26Z</time>
      </trkpt>
      <trkpt lat="47.01889" lon="5.78697">
        <ele>246</ele>
        <time>2013-07-12T14:45:28Z</time>
      </trkpt>
      <trkpt lat="47.01901" lon="5.78706">
        <ele>246</ele>
        <time>2013-07-12T14:45:30Z</time>
      </trkpt>
      <trkpt lat="47.01914" lon="5.78713">
        <ele>246</ele>
        <time>2013-07-12T14:45:32Z</time>
      </trkpt>
      <trkpt lat="47.01927" lon="5.78714">
        <ele>246</ele>
        <time>2013-07-12T14:45:34Z</time>
      </trkpt>
      <trkpt lat="47.0194" lon="5.78708">
        <ele>246</ele>
        <time>2013-07-12T14:45:36Z</time>
      </trkpt>
      <trkpt lat="47.01952" lon="5.787">
        <ele>246</ele>
        <time>2013-07-12T14:45:38Z</time>
      </trkpt>
      <trkpt lat="47.01964" lon="5.78692">
        <ele>246</ele>
        <time>2013-07-12T14:45:40Z</time>
      </trkpt>
      <trkpt lat="47.01976" lon="5.78684">
        <ele>246</ele>
        <time>2013-07-12T14:45:42Z</time>
      </trkpt>
      <trkpt lat="47.01987" lon="5.78675">
        <ele>246</ele>
        <time>2013-07-12T14:45:44Z</time>
      </trkpt>
      <trkpt lat="47.01998" lon="5.78667">
        <ele>246</ele>
        <time>2013-07-12T14:45:46Z</time>
      </trkpt>
      <trkpt lat="47.0201" lon="5.78659">
        <ele>246</ele>
        <time>2013-07-12T14:45:48Z</time>
      </trkpt>
      <trkpt lat="47.02021" lon="5.78652">
        <ele>246</ele>
        <time>2013-07-12T14:45:50Z</time>
      </trkpt>
      <trkpt lat="47.02031" lon="5.78644">
        <ele>246</ele>
        <time>2013-07-12T14:45:52Z</time>
      </trkpt>
      <trkpt lat="47.02041" lon="5.78636">
        <ele>246</ele>
        <time>2013-07-12T14:45:54Z</time>
      </trkpt>
      <trkpt lat="47.02051" lon="5.78629">
        <ele>246</ele>
        <time>2013-07-12T14:45:56Z</time>
      </trkpt>
      <trkpt lat="47.02062" lon="5.78622">
        <ele>246</ele>
        <time>2013-07-12T14:45:58Z</time>
      </trkpt>
      <trkpt lat="47.02073" lon="5.78615">
        <ele>246</ele>
        <time>2013-07-12T14:46:00Z</time>
      </trkpt>
      <trkpt lat="47.02084" lon="5.78608">
        <ele>246</ele>
        <time>2013-07-12T14:46:02Z</time>
      </trkpt>
      <trkpt lat="47.02096" lon="5.786">
        <ele>246</ele>
        <time>2013-07-12T14:46:04Z</time>
      </trkpt>
      <trkpt lat="47.02107" lon="5.78593">
        <ele>246</ele>
        <time>2013-07-12T14:46:06Z</time>
      </trkpt>
      <trkpt lat="47.02118" lon="5.78585">
        <ele>246</ele>
        <time>2013-07-12T14:46:08Z</time>
      </trkpt>
      <trkpt lat="47.02131" lon="5.78575">
        <ele>246</ele>
        <time>2013-07-12T14:46:10Z</time>
      </trkpt>
      <trkpt lat="47.02143" lon="5.78565">
        <ele>246</ele>
        <time>2013-07-12T14:46:12Z</time>
      </trkpt>
      <trkpt lat="47.02156" lon="5.78556">
        <ele>246</ele>
        <time>2013-07-12T14:46:14Z</time>
      </trkpt>
      <trkpt lat="47.02169" lon="5.78548">
        <ele>246</ele>
        <time>2013-07-12T14:46:16Z</time>
      </trkpt>
      <trkpt lat="47.02181" lon="5.78541">
        <ele>246</ele>
        <time>2013-07-12T14:46:18Z</time>
      </trkpt>
      <trkpt lat="47.02193" lon="5.78533">
        <ele>246</ele>
        <time>2013-07-12T14:46:20Z</time>
      </trkpt>
      <trkpt lat="47.02204" lon="5.78525">
        <ele>246</ele>
        <time>2013-07-12T14:46:22Z</time>
      </trkpt>
      <trkpt lat="47.02216" lon="5.78518">
        <ele>246</ele>
        <time>2013-07-12T14:46:24Z</time>
      </trkpt>
      <trkpt lat="47.02227" lon="5.78511">
        <ele>246</ele>
        <time>2013-07-12T14:46:26Z</time>
      </trkpt>
      <trkpt lat="47.02239" lon="5.78503">
        <ele>246</ele>
        <time>2013-07-12T14:46:28Z</time>
      </trkpt>
      <trkpt lat="47.02252" lon="5.78496">
        <ele>246</ele>
        <time>2013-07-12T14:46:30Z</time>
      </trkpt>
      <trkpt lat="47.02263" lon="5.78487">
        <ele>246</ele>
        <time>2013-07-12T14:46:32Z</time>
      </trkpt>
      <trkpt lat="47.02274" lon="5.78478">
        <ele>246</ele>
        <time>2013-07-12T14:46:34Z</time>
      </trkpt>
      <trkpt lat="47.02286" lon="5.7847">
        <ele>241</ele>
        <time>2013-07-12T14:46:36Z</time>
      </trkpt>
      <trkpt lat="47.02298" lon="5.78462">
        <ele>241</ele>
        <time>2013-07-12T14:46:38Z</time>
      </trkpt>
      <trkpt lat="47.0231" lon="5.78453">
        <ele>241</ele>
        <time>2013-07-12T14:46:40Z</time>
      </trkpt>
      <trkpt lat="47.02323" lon="5.78444">
        <ele>241</ele>
        <time>2013-07-12T14:46:42Z</time>
      </trkpt>
      <trkpt lat="47.02335" lon="5.78435">
        <ele>241</ele>
        <time>2013-07-12T14:46:44Z</time>
      </trkpt>
      <trkpt lat="47.02347" lon="5.78427">
        <ele>241</ele>
        <time>2013-07-12T14:46:46Z</time>
      </trkpt>
      <trkpt lat="47.02359" lon="5.78419">
        <ele>241</ele>
        <time>2013-07-12T14:46:48Z</time>
      </trkpt>
      <trkpt lat="47.02372" lon="5.78411">
        <ele>241</ele>
        <time>2013-07-12T14:46:50Z</time>
      </trkpt>
      <trkpt lat="47.02384" lon="5.78402">
        <ele>241</ele>
        <time>2013-07-12T14:46:52Z</time>
      </trkpt>
      <trkpt lat="47.02396" lon="5.78394">
        <ele>241</ele>
        <time>2013-07-12T14:46:54Z</time>
      </trkpt>
      <trkpt lat="47.02408" lon="5.78386">
        <ele>241</ele>
        <time>2013-07-12T14:46:56Z</time>
      </trkpt>
      <trkpt lat="47.02421" lon="5.78377">
        <ele>241</ele>
        <time>2013-07-12T14:46:58Z</time>
      </trkpt>
      <trkpt lat="47.02433" lon="5.78369">
        <ele>241</ele>
        <time>2013-07-12T14:47:00Z</time>
      </trkpt>
      <trkpt lat="47.02444" lon="5.78361">
        <ele>241</ele>
        <time>2013-07-12T14:47:02Z</time>
      </trkpt>
      <trkpt lat="47.02457" lon="5.78352">
        <ele>241</ele>
        <time>2013-07-12T14:47:04Z</time>
      </trkpt>
      <trkpt lat="47.02469" lon="5.78344">
        <ele>241</ele>
        <time>2013-07-12T14:47:06Z</time>
      </trkpt>
      <trkpt lat="47.0248" lon="5.78336">
        <ele>241</ele>
        <time>2013-07-12T14:47:08Z</time>
      </trkpt>
      <trkpt lat="47.02492" lon="5.78328">
        <ele>241</ele>
        <time>2013-07-12T14:47:10Z</time>
      </trkpt>
      <trkpt lat="47.02504" lon="5.7832">
        <ele>241</ele>
        <time>2013-07-12T14:47:12Z</time>
      </trkpt>
      <trkpt lat="47.02516" lon="5.78312">
        <ele>241</ele>
        <time>2013-07-12T14:47:14Z</time>
      </trkpt>
      <trkpt lat="47.02527" lon="5.78304">
        <ele>241</ele>
        <time>2013-07-12T14:47:16Z</time>
      </trkpt>
      <trkpt lat="47.02539" lon="5.78296">
        <ele>241</ele>
        <time>2013-07-12T14:47:18Z</time>
      </trkpt>
      <trkpt lat="47.0255" lon="5.78288">
        <ele>241</ele>
        <time>2013-07-12T14:47:20Z</time>
      </trkpt>
      <trkpt lat="47.02562" lon="5.7828">
        <ele>241</ele>
        <time>2013-07-12T14:47:22Z</time>
      </trkpt>
      <trkpt lat="47.02573" lon="5.78272">
        <ele>241</ele>
        <time>2013-07-12T14:47:24Z</time>
      </trkpt>
      <trkpt lat="47.02584" lon="5.78264">
        <ele>241</ele>
        <time>2013-07-12T14:47:26Z</time>
      </trkpt>
      <trkpt lat="47.02595" lon="5.78256">
        <ele>241</ele>
        <time>2013-07-12T14:47:28Z</time>
      </trkpt>
      <trkpt lat="47.02607" lon="5.78249">
        <ele>241</ele>
        <time>2013-07-12T14:47:30Z</time>
      </trkpt>
      <trkpt lat="47.02618" lon="5.78241">
        <ele>241</ele>
        <time>2013-07-12T14:47:32Z</time>
      </trkpt>
      <trkpt lat="47.02629" lon="5.78234">
        <ele>241</ele>
        <time>2013-07-12T14:47:34Z</time>
      </trkpt>
      <trkpt lat="47.0264" lon="5.78226">
        <ele>241</ele>
        <time>2013-07-12T14:47:36Z</time>
      </trkpt>
      <trkpt lat="47.02652" lon="5.78218">
        <ele>241</ele>
        <time>2013-07-12T14:47:38Z</time>
      </trkpt>
      <trkpt lat="47.02663" lon="5.78211">
        <ele>241</ele>
        <time>2013-07-12T14:47:40Z</time>
      </trkpt>
      <trkpt lat="47.02674" lon="5.78202">
        <ele>241</ele>
        <time>2013-07-12T14:47:42Z</time>
      </trkpt>
      <trkpt lat="47.02692" lon="5.78192">
        <ele>241</ele>
        <time>2013-07-12T14:47:45Z</time>
      </trkpt>
      <trkpt lat="47.02704" lon="5.78183">
        <ele>241</ele>
        <time>2013-07-12T14:47:47Z</time>
      </trkpt>
      <trkpt lat="47.02716" lon="5.78176">
        <ele>241</ele>
        <time>2013-07-12T14:47:49Z</time>
      </trkpt>
      <trkpt lat="47.02728" lon="5.78167">
        <ele>241</ele>
        <time>2013-07-12T14:47:51Z</time>
      </trkpt>
      <trkpt lat="47.0274" lon="5.78158">
        <ele>241</ele>
        <time>2013-07-12T14:47:53Z</time>
      </trkpt>
      <trkpt lat="47.02752" lon="5.78149">
        <ele>241</ele>
        <time>2013-07-12T14:47:55Z</time>
      </trkpt>
      <trkpt lat="47.02765" lon="5.7814">
        <ele>241</ele>
        <time>2013-07-12T14:47:57Z</time>
      </trkpt>
      <trkpt lat="47.02777" lon="5.78133">
        <ele>241</ele>
        <time>2013-07-12T14:47:59Z</time>
      </trkpt>
      <trkpt lat="47.02789" lon="5.78124">
        <ele>241</ele>
        <time>2013-07-12T14:48:01Z</time>
      </trkpt>
      <trkpt lat="47.02801" lon="5.78115">
        <ele>241</ele>
        <time>2013-07-12T14:48:03Z</time>
      </trkpt>
      <trkpt lat="47.02814" lon="5.78107">
        <ele>241</ele>
        <time>2013-07-12T14:48:05Z</time>
      </trkpt>
      <trkpt lat="47.02825" lon="5.78099">
        <ele>241</ele>
        <time>2013-07-12T14:48:07Z</time>
      </trkpt>
      <trkpt lat="47.02838" lon="5.78091">
        <ele>241</ele>
        <time>2013-07-12T14:48:09Z</time>
      </trkpt>
      <trkpt lat="47.0285" lon="5.78082">
        <ele>241</ele>
        <time>2013-07-12T14:48:11Z</time>
      </trkpt>
      <trkpt lat="47.02862" lon="5.78074">
        <ele>241</ele>
        <time>2013-07-12T14:48:13Z</time>
      </trkpt>
      <trkpt lat="47.02874" lon="5.78066">
        <ele>241</ele>
        <time>2013-07-12T14:48:15Z</time>
      </trkpt>
      <trkpt lat="47.02886" lon="5.78058">
        <ele>241</ele>
        <time>2013-07-12T14:48:17Z</time>
      </trkpt>
      <trkpt lat="47.02898" lon="5.7805">
        <ele>241</ele>
        <time>2013-07-12T14:48:19Z</time>
      </trkpt>
      <trkpt lat="47.02909" lon="5.78041">
        <ele>241</ele>
        <time>2013-07-12T14:48:21Z</time>
      </trkpt>
      <trkpt lat="47.02922" lon="5.78034">
        <ele>241</ele>
        <time>2013-07-12T14:48:23Z</time>
      </trkpt>
      <trkpt lat="47.02933" lon="5.78025">
        <ele>241</ele>
        <time>2013-07-12T14:48:25Z</time>
      </trkpt>
      <trkpt lat="47.02946" lon="5.78017">
        <ele>241</ele>
        <time>2013-07-12T14:48:27Z</time>
      </trkpt>
      <trkpt lat="47.02957" lon="5.78008">
        <ele>241</ele>
        <time>2013-07-12T14:48:29Z</time>
      </trkpt>
      <trkpt lat="47.02968" lon="5.77999">
        <ele>241</ele>
        <time>2013-07-12T14:48:31Z</time>
      </trkpt>
      <trkpt lat="47.0298" lon="5.7799">
        <ele>241</ele>
        <time>2013-07-12T14:48:33Z</time>
      </trkpt>
      <trkpt lat="47.02992" lon="5.77981">
        <ele>241</ele>
        <time>2013-07-12T14:48:35Z</time>
      </trkpt>
      <trkpt lat="47.03005" lon="5.77973">
        <ele>241</ele>
        <time>2013-07-12T14:48:37Z</time>
      </trkpt>
      <trkpt lat="47.03016" lon="5.77965">
        <ele>241</ele>
        <time>2013-07-12T14:48:39Z</time>
      </trkpt>
      <trkpt lat="47.03028" lon="5.77957">
        <ele>241</ele>
        <time>2013-07-12T14:48:41Z</time>
      </trkpt>
      <trkpt lat="47.0304" lon="5.7795">
        <ele>241</ele>
        <time>2013-07-12T14:48:43Z</time>
      </trkpt>
      <trkpt lat="47.03051" lon="5.77943">
        <ele>241</ele>
        <time>2013-07-12T14:48:45Z</time>
      </trkpt>
      <trkpt lat="47.03062" lon="5.77935">
        <ele>241</ele>
        <time>2013-07-12T14:48:47Z</time>
      </trkpt>
      <trkpt lat="47.03073" lon="5.77926">
        <ele>241</ele>
        <time>2013-07-12T14:48:49Z</time>
      </trkpt>
      <trkpt lat="47.03085" lon="5.77919">
        <ele>241</ele>
        <time>2013-07-12T14:48:51Z</time>
      </trkpt>
      <trkpt lat="47.03096" lon="5.77911">
        <ele>241</ele>
        <time>2013-07-12T14:48:53Z</time>
      </trkpt>
      <trkpt lat="47.03107" lon="5.77903">
        <ele>246</ele>
        <time>2013-07-12T14:48:55Z</time>
      </trkpt>
      <trkpt lat="47.03117" lon="5.77895">
        <ele>246</ele>
        <time>2013-07-12T14:48:57Z</time>
      </trkpt>
      <trkpt lat="47.03127" lon="5.77888">
        <ele>246</ele>
        <time>2013-07-12T14:48:59Z</time>
      </trkpt>
      <trkpt lat="47.03136" lon="5.77882">
        <ele>246</ele>
        <time>2013-07-12T14:49:01Z</time>
      </trkpt>
      <trkpt lat="47.03145" lon="5.77875">
        <ele>246</ele>
        <time>2013-07-12T14:49:04Z</time>
      </trkpt>
      <trkpt lat="47.03154" lon="5.77869">
        <ele>246</ele>
        <time>2013-07-12T14:49:07Z</time>
      </trkpt>
      <trkpt lat="47.03163" lon="5.77863">
        <ele>246</ele>
        <time>2013-07-12T14:49:12Z</time>
      </trkpt>
      <trkpt lat="47.03164" lon="5.77846">
        <ele>246</ele>
        <time>2013-07-12T14:49:17Z</time>
      </trkpt>
      <trkpt lat="47.03158" lon="5.77831">
        <ele>246</ele>
        <time>2013-07-12T14:49:20Z</time>
      </trkpt>
      <trkpt lat="47.03152" lon="5.77819">
        <ele>246</ele>
        <time>2013-07-12T14:49:22Z</time>
      </trkpt>
      <trkpt lat="47.03147" lon="5.77806">
        <ele>246</ele>
        <time>2013-07-12T14:49:24Z</time>
      </trkpt>
      <trkpt lat="47.03142" lon="5.77794">
        <ele>246</ele>
        <time>2013-07-12T14:49:26Z</time>
      </trkpt>
      <trkpt lat="47.03136" lon="5.77781">
        <ele>246</ele>
        <time>2013-07-12T14:49:28Z</time>
      </trkpt>
      <trkpt lat="47.03131" lon="5.77768">
        <ele>246</ele>
        <time>2013-07-12T14:49:30Z</time>
      </trkpt>
      <trkpt lat="47.03126" lon="5.77754">
        <ele>246</ele>
        <time>2013-07-12T14:49:32Z</time>
      </trkpt>
      <trkpt lat="47.03121" lon="5.77741">
        <ele>246</ele>
        <time>2013-07-12T14:49:34Z</time>
      </trkpt>
      <trkpt lat="47.03116" lon="5.77726">
        <ele>246</ele>
        <time>2013-07-12T14:49:36Z</time>
      </trkpt>
      <trkpt lat="47.0311" lon="5.7771">
        <ele>246</ele>
        <time>2013-07-12T14:49:38Z</time>
      </trkpt>
      <trkpt lat="47.03105" lon="5.77693">
        <ele>246</ele>
        <time>2013-07-12T14:49:40Z</time>
      </trkpt>
      <trkpt lat="47.03099" lon="5.77676">
        <ele>246</ele>
        <time>2013-07-12T14:49:42Z</time>
      </trkpt>
      <trkpt lat="47.03093" lon="5.77658">
        <ele>246</ele>
        <time>2013-07-12T14:49:44Z</time>
      </trkpt>
      <trkpt lat="47.03087" lon="5.77641">
        <ele>246</ele>
        <time>2013-07-12T14:49:46Z</time>
      </trkpt>
      <trkpt lat="47.03081" lon="5.77625">
        <ele>246</ele>
        <time>2013-07-12T14:49:48Z</time>
      </trkpt>
      <trkpt lat="47.03075" lon="5.77609">
        <ele>246</ele>
        <time>2013-07-12T14:49:50Z</time>
      </trkpt>
      <trkpt lat="47.03069" lon="5.77592">
        <ele>246</ele>
        <time>2013-07-12T14:49:52Z</time>
      </trkpt>
      <trkpt lat="47.03064" lon="5.77575">
        <ele>246</ele>
        <time>2013-07-12T14:49:54Z</time>
      </trkpt>
      <trkpt lat="47.03058" lon="5.77556">
        <ele>246</ele>
        <time>2013-07-12T14:49:56Z</time>
      </trkpt>
      <trkpt lat="47.03051" lon="5.77536">
        <ele>246</ele>
        <time>2013-07-12T14:49:58Z</time>
      </trkpt>
      <trkpt lat="47.03044" lon="5.77515">
        <ele>246</ele>
        <time>2013-07-12T14:50:00Z</time>
      </trkpt>
      <trkpt lat="47.03037" lon="5.77495">
        <ele>246</ele>
        <time>2013-07-12T14:50:02Z</time>
      </trkpt>
      <trkpt lat="47.0303" lon="5.77473">
        <ele>241</ele>
        <time>2013-07-12T14:50:04Z</time>
      </trkpt>
      <trkpt lat="47.03023" lon="5.77452">
        <ele>241</ele>
        <time>2013-07-12T14:50:06Z</time>
      </trkpt>
      <trkpt lat="47.03016" lon="5.77433">
        <ele>241</ele>
        <time>2013-07-12T14:50:08Z</time>
      </trkpt>
      <trkpt lat="47.0301" lon="5.77412">
        <ele>241</ele>
        <time>2013-07-12T14:50:10Z</time>
      </trkpt>
      <trkpt lat="47.03003" lon="5.77392">
        <ele>241</ele>
        <time>2013-07-12T14:50:12Z</time>
      </trkpt>
      <trkpt lat="47.02996" lon="5.77372">
        <ele>241</ele>
        <time>2013-07-12T14:50:14Z</time>
      </trkpt>
      <trkpt lat="47.02989" lon="5.77352">
        <ele>241</ele>
        <time>2013-07-12T14:50:16Z</time>
      </trkpt>
      <trkpt lat="47.02983" lon="5.77332">
        <ele>241</ele>
        <time>2013-07-12T14:50:18Z</time>
      </trkpt>
      <trkpt lat="47.02978" lon="5.77311">
        <ele>241</ele>
        <time>2013-07-12T14:50:20Z</time>
      </trkpt>
      <trkpt lat="47.02978" lon="5.7729">
        <ele>241</ele>
        <time>2013-07-12T14:50:22Z</time>
      </trkpt>
      <trkpt lat="47.02984" lon="5.77269">
        <ele>241</ele>
        <time>2013-07-12T14:50:24Z</time>
      </trkpt>
      <trkpt lat="47.02993" lon="5.77248">
        <ele>241</ele>
        <time>2013-07-12T14:50:26Z</time>
      </trkpt>
      <trkpt lat="47.03003" lon="5.7723">
        <ele>241</ele>
        <time>2013-07-12T14:50:28Z</time>
      </trkpt>
      <trkpt lat="47.03013" lon="5.77213">
        <ele>241</ele>
        <time>2013-07-12T14:50:30Z</time>
      </trkpt>
      <trkpt lat="47.03025" lon="5.77198">
        <ele>241</ele>
        <time>2013-07-12T14:50:32Z</time>
      </trkpt>
      <trkpt lat="47.03037" lon="5.77182">
        <ele>241</ele>
        <time>2013-07-12T14:50:34Z</time>
      </trkpt>
      <trkpt lat="47.03049" lon="5.77168">
        <ele>241</ele>
        <time>2013-07-12T14:50:36Z</time>
      </trkpt>
      <trkpt lat="47.03061" lon="5.77153">
        <ele>241</ele>
        <time>2013-07-12T14:50:38Z</time>
      </trkpt>
      <trkpt lat="47.03072" lon="5.77138">
        <ele>241</ele>
        <time>2013-07-12T14:50:40Z</time>
      </trkpt>
      <trkpt lat="47.0308" lon="5.77121">
        <ele>241</ele>
        <time>2013-07-12T14:50:42Z</time>
      </trkpt>
      <trkpt lat="47.03086" lon="5.77102">
        <ele>241</ele>
        <time>2013-07-12T14:50:44Z</time>
      </trkpt>
      <trkpt lat="47.03089" lon="5.77081">
        <ele>241</ele>
        <time>2013-07-12T14:50:46Z</time>
      </trkpt>
      <trkpt lat="47.03091" lon="5.77062">
        <ele>241</ele>
        <time>2013-07-12T14:50:48Z</time>
      </trkpt>
      <trkpt lat="47.03089" lon="5.77041">
        <ele>241</ele>
        <time>2013-07-12T14:50:50Z</time>
      </trkpt>
      <trkpt lat="47.03086" lon="5.77022">
        <ele>241</ele>
        <time>2013-07-12T14:50:52Z</time>
      </trkpt>
      <trkpt lat="47.0308" lon="5.77005">
        <ele>241</ele>
        <time>2013-07-12T14:50:54Z</time>
      </trkpt>
      <trkpt lat="47.03073" lon="5.76989">
        <ele>241</ele>
        <time>2013-07-12T14:50:56Z</time>
      </trkpt>
      <trkpt lat="47.03067" lon="5.76973">
        <ele>241</ele>
        <time>2013-07-12T14:50:58Z</time>
      </trkpt>
      <trkpt lat="47.0306" lon="5.76956">
        <ele>241</ele>
        <time>2013-07-12T14:51:00Z</time>
      </trkpt>
      <trkpt lat="47.03052" lon="5.7694">
        <ele>241</ele>
        <time>2013-07-12T14:51:02Z</time>
      </trkpt>
      <trkpt lat="47.03043" lon="5.76926">
        <ele>241</ele>
        <time>2013-07-12T14:51:04Z</time>
      </trkpt>
      <trkpt lat="47.03033" lon="5.76914">
        <ele>241</ele>
        <time>2013-07-12T14:51:06Z</time>
      </trkpt>
      <trkpt lat="47.03022" lon="5.76904">
        <ele>241</ele>
        <time>2013-07-12T14:51:08Z</time>
      </trkpt>
      <trkpt lat="47.03013" lon="5.76887">
        <ele>241</ele>
        <time>2013-07-12T14:51:10Z</time>
      </trkpt>
      <trkpt lat="47.03003" lon="5.7687">
        <ele>241</ele>
        <time>2013-07-12T14:51:12Z</time>
      </trkpt>
      <trkpt lat="47.02995" lon="5.76851">
        <ele>241</ele>
        <time>2013-07-12T14:51:14Z</time>
      </trkpt>
      <trkpt lat="47.02988" lon="5.76831">
        <ele>241</ele>
        <time>2013-07-12T14:51:16Z</time>
      </trkpt>
      <trkpt lat="47.02982" lon="5.7681">
        <ele>241</ele>
        <time>2013-07-12T14:51:18Z</time>
      </trkpt>
      <trkpt lat="47.02975" lon="5.76789">
        <ele>241</ele>
        <time>2013-07-12T14:51:20Z</time>
      </trkpt>
      <trkpt lat="47.02968" lon="5.76769">
        <ele>241</ele>
        <time>2013-07-12T14:51:22Z</time>
      </trkpt>
      <trkpt lat="47.02962" lon="5.76749">
        <ele>241</ele>
        <time>2013-07-12T14:51:24Z</time>
      </trkpt>
      <trkpt lat="47.02956" lon="5.7673">
        <ele>241</ele>
        <time>2013-07-12T14:51:26Z</time>
      </trkpt>
      <trkpt lat="47.02949" lon="5.7671">
        <ele>241</ele>
        <time>2013-07-12T14:51:28Z</time>
      </trkpt>
      <trkpt lat="47.02944" lon="5.76692">
        <ele>241</ele>
        <time>2013-07-12T14:51:30Z</time>
      </trkpt>
      <trkpt lat="47.0294" lon="5.76672">
        <ele>241</ele>
        <time>2013-07-12T14:51:32Z</time>
      </trkpt>
      <trkpt lat="47.02937" lon="5.76651">
        <ele>241</ele>
        <time>2013-07-12T14:51:34Z</time>
      </trkpt>
      <trkpt lat="47.02936" lon="5.7663">
        <ele>241</ele>
        <time>2013-07-12T14:51:36Z</time>
      </trkpt>
      <trkpt lat="47.02936" lon="5.7661">
        <ele>241</ele>
        <time>2013-07-12T14:51:38Z</time>
      </trkpt>
      <trkpt lat="47.02935" lon="5.76589">
        <ele>241</ele>
        <time>2013-07-12T14:51:40Z</time>
      </trkpt>
      <trkpt lat="47.02935" lon="5.76568">
        <ele>241</ele>
        <time>2013-07-12T14:51:42Z</time>
      </trkpt>
      <trkpt lat="47.02935" lon="5.76548">
        <ele>241</ele>
        <time>2013-07-12T14:51:44Z</time>
      </trkpt>
      <trkpt lat="47.02935" lon="5.76526">
        <ele>241</ele>
        <time>2013-07-12T14:51:46Z</time>
      </trkpt>
      <trkpt lat="47.02934" lon="5.76505">
        <ele>241</ele>
        <time>2013-07-12T14:51:48Z</time>
      </trkpt>
      <trkpt lat="47.02933" lon="5.76484">
        <ele>241</ele>
        <time>2013-07-12T14:51:50Z</time>
      </trkpt>
      <trkpt lat="47.02931" lon="5.76462">
        <ele>241</ele>
        <time>2013-07-12T14:51:52Z</time>
      </trkpt>
      <trkpt lat="47.02929" lon="5.76443">
        <ele>241</ele>
        <time>2013-07-12T14:51:54Z</time>
      </trkpt>
      <trkpt lat="47.02926" lon="5.76422">
        <ele>241</ele>
        <time>2013-07-12T14:51:56Z</time>
      </trkpt>
      <trkpt lat="47.02924" lon="5.76401">
        <ele>241</ele>
        <time>2013-07-12T14:51:58Z</time>
      </trkpt>
      <trkpt lat="47.02921" lon="5.7638">
        <ele>241</ele>
        <time>2013-07-12T14:52:00Z</time>
      </trkpt>
      <trkpt lat="47.02917" lon="5.76358">
        <ele>241</ele>
        <time>2013-07-12T14:52:02Z</time>
      </trkpt>
      <trkpt lat="47.02913" lon="5.76337">
        <ele>241</ele>
        <time>2013-07-12T14:52:04Z</time>
      </trkpt>
      <trkpt lat="47.02908" lon="5.76317">
        <ele>241</ele>
        <time>2013-07-12T14:52:06Z</time>
      </trkpt>
      <trkpt lat="47.02904" lon="5.76298">
        <ele>241</ele>
        <time>2013-07-12T14:52:08Z</time>
      </trkpt>
      <trkpt lat="47.029" lon="5.76279">
        <ele>241</ele>
        <time>2013-07-12T14:52:10Z</time>
      </trkpt>
      <trkpt lat="47.02895" lon="5.7626">
        <ele>241</ele>
        <time>2013-07-12T14:52:12Z</time>
      </trkpt>
      <trkpt lat="47.02892" lon="5.76241">
        <ele>241</ele>
        <time>2013-07-12T14:52:14Z</time>
      </trkpt>
      <trkpt lat="47.02888" lon="5.76221">
        <ele>241</ele>
        <time>2013-07-12T14:52:16Z</time>
      </trkpt>
      <trkpt lat="47.02886" lon="5.76198">
        <ele>241</ele>
        <time>2013-07-12T14:52:18Z</time>
      </trkpt>
      <trkpt lat="47.02884" lon="5.76177">
        <ele>241</ele>
        <time>2013-07-12T14:52:20Z</time>
      </trkpt>
      <trkpt lat="47.02884" lon="5.76154">
        <ele>241</ele>
        <time>2013-07-12T14:52:22Z</time>
      </trkpt>
      <trkpt lat="47.02884" lon="5.76134">
        <ele>241</ele>
        <time>2013-07-12T14:52:24Z</time>
      </trkpt>
      <trkpt lat="47.02884" lon="5.76112">
        <ele>241</ele>
        <time>2013-07-12T14:52:26Z</time>
      </trkpt>
      <trkpt lat="47.02883" lon="5.76091">
        <ele>241</ele>
        <time>2013-07-12T14:52:28Z</time>
      </trkpt>
      <trkpt lat="47.02883" lon="5.7607">
        <ele>241</ele>
        <time>2013-07-12T14:52:30Z</time>
      </trkpt>
      <trkpt lat="47.02882" lon="5.76049">
        <ele>241</ele>
        <time>2013-07-12T14:52:32Z</time>
      </trkpt>
      <trkpt lat="47.02881" lon="5.76029">
        <ele>246</ele>
        <time>2013-07-12T14:52:34Z</time>
      </trkpt>
      <trkpt lat="47.02881" lon="5.7601">
        <ele>246</ele>
        <time>2013-07-12T14:52:36Z</time>
      </trkpt>
      <trkpt lat="47.02879" lon="5.75991">
        <ele>246</ele>
        <time>2013-07-12T14:52:38Z</time>
      </trkpt>
      <trkpt lat="47.02878" lon="5.75971">
        <ele>246</ele>
        <time>2013-07-12T14:52:40Z</time>
      </trkpt>
      <trkpt lat="47.02877" lon="5.75953">
        <ele>246</ele>
        <time>2013-07-12T14:52:42Z</time>
      </trkpt>
      <trkpt lat="47.02876" lon="5.75933">
        <ele>246</ele>
        <time>2013-07-12T14:52:44Z</time>
      </trkpt>
      <trkpt lat="47.02874" lon="5.75914">
        <ele>246</ele>
        <time>2013-07-12T14:52:46Z</time>
      </trkpt>
      <trkpt lat="47.02873" lon="5.75894">
        <ele>246</ele>
        <time>2013-07-12T14:52:48Z</time>
      </trkpt>
      <trkpt lat="47.02871" lon="5.75874">
        <ele>246</ele>
        <time>2013-07-12T14:52:50Z</time>
      </trkpt>
      <trkpt lat="47.02869" lon="5.75854">
        <ele>246</ele>
        <time>2013-07-12T14:52:52Z</time>
      </trkpt>
      <trkpt lat="47.02868" lon="5.75834">
        <ele>246</ele>
        <time>2013-07-12T14:52:54Z</time>
      </trkpt>
      <trkpt lat="47.02866" lon="5.75812">
        <ele>246</ele>
        <time>2013-07-12T14:52:56Z</time>
      </trkpt>
      <trkpt lat="47.02864" lon="5.75791">
        <ele>246</ele>
        <time>2013-07-12T14:52:58Z</time>
      </trkpt>
      <trkpt lat="47.02862" lon="5.7577">
        <ele>246</ele>
        <time>2013-07-12T14:53:00Z</time>
      </trkpt>
      <trkpt lat="47.0286" lon="5.75748">
        <ele>246</ele>
        <time>2013-07-12T14:53:02Z</time>
      </trkpt>
      <trkpt lat="47.02858" lon="5.75727">
        <ele>246</ele>
        <time>2013-07-12T14:53:04Z</time>
      </trkpt>
      <trkpt lat="47.02855" lon="5.75705">
        <ele>246</ele>
        <time>2013-07-12T14:53:06Z</time>
      </trkpt>
      <trkpt lat="47.02854" lon="5.75685">
        <ele>246</ele>
        <time>2013-07-12T14:53:08Z</time>
      </trkpt>
      <trkpt lat="47.02852" lon="5.75663">
        <ele>246</ele>
        <time>2013-07-12T14:53:10Z</time>
      </trkpt>
      <trkpt lat="47.0285" lon="5.75641">
        <ele>246</ele>
        <time>2013-07-12T14:53:12Z</time>
      </trkpt>
      <trkpt lat="47.02848" lon="5.7562">
        <ele>241</ele>
        <time>2013-07-12T14:53:14Z</time>
      </trkpt>
      <trkpt lat="47.02846" lon="5.75597">
        <ele>241</ele>
        <time>2013-07-12T14:53:16Z</time>
      </trkpt>
      <trkpt lat="47.02843" lon="5.75576">
        <ele>241</ele>
        <time>2013-07-12T14:53:18Z</time>
      </trkpt>
      <trkpt lat="47.02841" lon="5.75554">
        <ele>241</ele>
        <time>2013-07-12T14:53:20Z</time>
      </trkpt>
      <trkpt lat="47.02839" lon="5.75532">
        <ele>241</ele>
        <time>2013-07-12T14:53:22Z</time>
      </trkpt>
      <trkpt lat="47.02838" lon="5.7551">
        <ele>241</ele>
        <time>2013-07-12T14:53:24Z</time>
      </trkpt>
      <trkpt lat="47.02836" lon="5.75488">
        <ele>241</ele>
        <time>2013-07-12T14:53:26Z</time>
      </trkpt>
      <trkpt lat="47.02834" lon="5.75465">
        <ele>241</ele>
        <time>2013-07-12T14:53:28Z</time>
      </trkpt>
      <trkpt lat="47.02831" lon="5.75443">
        <ele>241</ele>
        <time>2013-07-12T14:53:30Z</time>
      </trkpt>
      <trkpt lat="47.0283" lon="5.7542">
        <ele>241</ele>
        <time>2013-07-12T14:53:32Z</time>
      </trkpt>
      <trkpt lat="47.02828" lon="5.75398">
        <ele>241</ele>
        <time>2013-07-12T14:53:34Z</time>
      </trkpt>
      <trkpt lat="47.02826" lon="5.75377">
        <ele>241</ele>
        <time>2013-07-12T14:53:36Z</time>
      </trkpt>
      <trkpt lat="47.02824" lon="5.75355">
        <ele>241</ele>
        <time>2013-07-12T14:53:38Z</time>
      </trkpt>
      <trkpt lat="47.02823" lon="5.75332">
        <ele>241</ele>
        <time>2013-07-12T14:53:40Z</time>
      </trkpt>
      <trkpt lat="47.02821" lon="5.7531">
        <ele>241</ele>
        <time>2013-07-12T14:53:42Z</time>
      </trkpt>
      <trkpt lat="47.02819" lon="5.75288">
        <ele>241</ele>
        <time>2013-07-12T14:53:44Z</time>
      </trkpt>
      <trkpt lat="47.02817" lon="5.75267">
        <ele>241</ele>
        <time>2013-07-12T14:53:46Z</time>
      </trkpt>
      <trkpt lat="47.02815" lon="5.75245">
        <ele>241</ele>
        <time>2013-07-12T14:53:48Z</time>
      </trkpt>
      <trkpt lat="47.02814" lon="5.75224">
        <ele>241</ele>
        <time>2013-07-12T14:53:50Z</time>
      </trkpt>
      <trkpt lat="47.02812" lon="5.75202">
        <ele>241</ele>
        <time>2013-07-12T14:53:52Z</time>
      </trkpt>
      <trkpt lat="47.0281" lon="5.75181">
        <ele>241</ele>
        <time>2013-07-12T14:53:54Z</time>
      </trkpt>
      <trkpt lat="47.02809" lon="5.75159">
        <ele>241</ele>
        <time>2013-07-12T14:53:56Z</time>
      </trkpt>
      <trkpt lat="47.02807" lon="5.75138">
        <ele>241</ele>
        <time>2013-07-12T14:53:58Z</time>
      </trkpt>
      <trkpt lat="47.02806" lon="5.75117">
        <ele>241</ele>
        <time>2013-07-12T14:54:00Z</time>
      </trkpt>
      <trkpt lat="47.02804" lon="5.75095">
        <ele>241</ele>
        <time>2013-07-12T14:54:02Z</time>
      </trkpt>
      <trkpt lat="47.02802" lon="5.75073">
        <ele>241</ele>
        <time>2013-07-12T14:54:04Z</time>
      </trkpt>
      <trkpt lat="47.02801" lon="5.7505">
        <ele>241</ele>
        <time>2013-07-12T14:54:06Z</time>
      </trkpt>
      <trkpt lat="47.02801" lon="5.75027">
        <ele>241</ele>
        <time>2013-07-12T14:54:08Z</time>
      </trkpt>
      <trkpt lat="47.028" lon="5.75005">
        <ele>241</ele>
        <time>2013-07-12T14:54:10Z</time>
      </trkpt>
      <trkpt lat="47.02799" lon="5.74984">
        <ele>241</ele>
        <time>2013-07-12T14:54:12Z</time>
      </trkpt>
      <trkpt lat="47.02798" lon="5.7496">
        <ele>241</ele>
        <time>2013-07-12T14:54:14Z</time>
      </trkpt>
      <trkpt lat="47.02797" lon="5.74938">
        <ele>241</ele>
        <time>2013-07-12T14:54:16Z</time>
      </trkpt>
      <trkpt lat="47.02796" lon="5.74915">
        <ele>241</ele>
        <time>2013-07-12T14:54:18Z</time>
      </trkpt>
      <trkpt lat="47.02795" lon="5.74892">
        <ele>241</ele>
        <time>2013-07-12T14:54:20Z</time>
      </trkpt>
      <trkpt lat="47.02793" lon="5.7487">
        <ele>241</ele>
        <time>2013-07-12T14:54:22Z</time>
      </trkpt>
      <trkpt lat="47.02791" lon="5.74847">
        <ele>241</ele>
        <time>2013-07-12T14:54:24Z</time>
      </trkpt>
      <trkpt lat="47.02789" lon="5.74825">
        <ele>241</ele>
        <time>2013-07-12T14:54:26Z</time>
      </trkpt>
      <trkpt lat="47.02787" lon="5.74801">
        <ele>241</ele>
        <time>2013-07-12T14:54:28Z</time>
      </trkpt>
      <trkpt lat="47.02784" lon="5.74779">
        <ele>241</ele>
        <time>2013-07-12T14:54:30Z</time>
      </trkpt>
      <trkpt lat="47.0278" lon="5.74756">
        <ele>241</ele>
        <time>2013-07-12T14:54:32Z</time>
      </trkpt>
      <trkpt lat="47.02777" lon="5.74734">
        <ele>241</ele>
        <time>2013-07-12T14:54:34Z</time>
      </trkpt>
      <trkpt lat="47.02772" lon="5.74712">
        <ele>241</ele>
        <time>2013-07-12T14:54:36Z</time>
      </trkpt>
      <trkpt lat="47.02767" lon="5.74689">
        <ele>241</ele>
        <time>2013-07-12T14:54:38Z</time>
      </trkpt>
      <trkpt lat="47.02762" lon="5.74668">
        <ele>241</ele>
        <time>2013-07-12T14:54:40Z</time>
      </trkpt>
      <trkpt lat="47.02757" lon="5.74644">
        <ele>241</ele>
        <time>2013-07-12T14:54:42Z</time>
      </trkpt>
      <trkpt lat="47.02751" lon="5.74622">
        <ele>241</ele>
        <time>2013-07-12T14:54:44Z</time>
      </trkpt>
      <trkpt lat="47.02746" lon="5.74598">
        <ele>241</ele>
        <time>2013-07-12T14:54:46Z</time>
      </trkpt>
      <trkpt lat="47.02742" lon="5.74575">
        <ele>241</ele>
        <time>2013-07-12T14:54:48Z</time>
      </trkpt>
      <trkpt lat="47.02741" lon="5.74551">
        <ele>241</ele>
        <time>2013-07-12T14:54:50Z</time>
      </trkpt>
      <trkpt lat="47.0274" lon="5.74527">
        <ele>241</ele>
        <time>2013-07-12T14:54:52Z</time>
      </trkpt>
      <trkpt lat="47.02741" lon="5.74504">
        <ele>241</ele>
        <time>2013-07-12T14:54:54Z</time>
      </trkpt>
      <trkpt lat="47.02742" lon="5.74481">
        <ele>241</ele>
        <time>2013-07-12T14:54:56Z</time>
      </trkpt>
      <trkpt lat="47.02744" lon="5.74457">
        <ele>241</ele>
        <time>2013-07-12T14:54:58Z</time>
      </trkpt>
      <trkpt lat="47.02745" lon="5.74434">
        <ele>241</ele>
        <time>2013-07-12T14:55:00Z</time>
      </trkpt>
      <trkpt lat="47.02748" lon="5.7441">
        <ele>241</ele>
        <time>2013-07-12T14:55:02Z</time>
      </trkpt>
      <trkpt lat="47.0275" lon="5.74386">
        <ele>241</ele>
        <time>2013-07-12T14:55:04Z</time>
      </trkpt>
      <trkpt lat="47.02752" lon="5.74363">
        <ele>241</ele>
        <time>2013-07-12T14:55:06Z</time>
      </trkpt>
      <trkpt lat="47.02754" lon="5.74339">
        <ele>241</ele>
        <time>2013-07-12T14:55:08Z</time>
      </trkpt>
      <trkpt lat="47.02757" lon="5.74315">
        <ele>241</ele>
        <time>2013-07-12T14:55:10Z</time>
      </trkpt>
      <trkpt lat="47.02759" lon="5.74291">
        <ele>241</ele>
        <time>2013-07-12T14:55:12Z</time>
      </trkpt>
      <trkpt lat="47.02761" lon="5.74268">
        <ele>241</ele>
        <time>2013-07-12T14:55:14Z</time>
      </trkpt>
      <trkpt lat="47.02763" lon="5.74245">
        <ele>241</ele>
        <time>2013-07-12T14:55:16Z</time>
      </trkpt>
      <trkpt lat="47.02765" lon="5.74221">
        <ele>241</ele>
        <time>2013-07-12T14:55:18Z</time>
      </trkpt>
      <trkpt lat="47.02766" lon="5.74199">
        <ele>241</ele>
        <time>2013-07-12T14:55:20Z</time>
      </trkpt>
      <trkpt lat="47.02766" lon="5.74175">
        <ele>241</ele>
        <time>2013-07-12T14:55:22Z</time>
      </trkpt>
      <trkpt lat="47.02765" lon="5.74152">
        <ele>241</ele>
        <time>2013-07-12T14:55:24Z</time>
      </trkpt>
      <trkpt lat="47.02764" lon="5.74129">
        <ele>241</ele>
        <time>2013-07-12T14:55:26Z</time>
      </trkpt>
      <trkpt lat="47.02763" lon="5.74105">
        <ele>241</ele>
        <time>2013-07-12T14:55:28Z</time>
      </trkpt>
      <trkpt lat="47.02761" lon="5.74082">
        <ele>241</ele>
        <time>2013-07-12T14:55:30Z</time>
      </trkpt>
      <trkpt lat="47.02761" lon="5.74059">
        <ele>241</ele>
        <time>2013-07-12T14:55:32Z</time>
      </trkpt>
      <trkpt lat="47.02759" lon="5.74035">
        <ele>241</ele>
        <time>2013-07-12T14:55:34Z</time>
      </trkpt>
      <trkpt lat="47.02756" lon="5.74011">
        <ele>241</ele>
        <time>2013-07-12T14:55:36Z</time>
      </trkpt>
      <trkpt lat="47.02752" lon="5.73988">
        <ele>241</ele>
        <time>2013-07-12T14:55:38Z</time>
      </trkpt>
      <trkpt lat="47.02745" lon="5.73964">
        <ele>241</ele>
        <time>2013-07-12T14:55:40Z</time>
      </trkpt>
      <trkpt lat="47.02738" lon="5.73942">
        <ele>241</ele>
        <time>2013-07-12T14:55:42Z</time>
      </trkpt>
      <trkpt lat="47.02734" lon="5.7393">
        <ele>241</ele>
        <time>2013-07-12T14:55:43Z</time>
      </trkpt>
      <trkpt lat="47.02725" lon="5.73909">
        <ele>241</ele>
        <time>2013-07-12T14:55:45Z</time>
      </trkpt>
      <trkpt lat="47.02721" lon="5.73897">
        <ele>241</ele>
        <time>2013-07-12T14:55:46Z</time>
      </trkpt>
      <trkpt lat="47.02713" lon="5.73874">
        <ele>241</ele>
        <time>2013-07-12T14:55:48Z</time>
      </trkpt>
      <trkpt lat="47.02706" lon="5.73851">
        <ele>241</ele>
        <time>2013-07-12T14:55:50Z</time>
      </trkpt>
      <trkpt lat="47.02704" lon="5.73838">
        <ele>241</ele>
        <time>2013-07-12T14:55:51Z</time>
      </trkpt>
      <trkpt lat="47.027" lon="5.73814">
        <ele>241</ele>
        <time>2013-07-12T14:55:53Z</time>
      </trkpt>
      <trkpt lat="47.02696" lon="5.73789">
        <ele>241</ele>
        <time>2013-07-12T14:55:55Z</time>
      </trkpt>
      <trkpt lat="47.02693" lon="5.73765">
        <ele>241</ele>
        <time>2013-07-12T14:55:57Z</time>
      </trkpt>
      <trkpt lat="47.0269" lon="5.7374">
        <ele>241</ele>
        <time>2013-07-12T14:55:59Z</time>
      </trkpt>
      <trkpt lat="47.02687" lon="5.73714">
        <ele>241</ele>
        <time>2013-07-12T14:56:01Z</time>
      </trkpt>
      <trkpt lat="47.02684" lon="5.73688">
        <ele>241</ele>
        <time>2013-07-12T14:56:03Z</time>
      </trkpt>
      <trkpt lat="47.02681" lon="5.73662">
        <ele>241</ele>
        <time>2013-07-12T14:56:05Z</time>
      </trkpt>
      <trkpt lat="47.02677" lon="5.73636">
        <ele>241</ele>
        <time>2013-07-12T14:56:07Z</time>
      </trkpt>
      <trkpt lat="47.02675" lon="5.73623">
        <ele>241</ele>
        <time>2013-07-12T14:56:08Z</time>
      </trkpt>
      <trkpt lat="47.02672" lon="5.73597">
        <ele>241</ele>
        <time>2013-07-12T14:56:10Z</time>
      </trkpt>
      <trkpt lat="47.02668" lon="5.73572">
        <ele>241</ele>
        <time>2013-07-12T14:56:12Z</time>
      </trkpt>
      <trkpt lat="47.02666" lon="5.73559">
        <ele>236</ele>
        <time>2013-07-12T14:56:13Z</time>
      </trkpt>
      <trkpt lat="47.02661" lon="5.73535">
        <ele>236</ele>
        <time>2013-07-12T14:56:15Z</time>
      </trkpt>
      <trkpt lat="47.02657" lon="5.7351">
        <ele>236</ele>
        <time>2013-07-12T14:56:17Z</time>
      </trkpt>
      <trkpt lat="47.02652" lon="5.73485">
        <ele>236</ele>
        <time>2013-07-12T14:56:19Z</time>
      </trkpt>
      <trkpt lat="47.0265" lon="5.73473">
        <ele>236</ele>
        <time>2013-07-12T14:56:20Z</time>
      </trkpt>
      <trkpt lat="47.02645" lon="5.73449">
        <ele>236</ele>
        <time>2013-07-12T14:56:22Z</time>
      </trkpt>
      <trkpt lat="47.02642" lon="5.73437">
        <ele>236</ele>
        <time>2013-07-12T14:56:23Z</time>
      </trkpt>
      <trkpt lat="47.02637" lon="5.73413">
        <ele>236</ele>
        <time>2013-07-12T14:56:25Z</time>
      </trkpt>
      <trkpt lat="47.02632" lon="5.73389">
        <ele>236</ele>
        <time>2013-07-12T14:56:27Z</time>
      </trkpt>
      <trkpt lat="47.02627" lon="5.73366">
        <ele>236</ele>
        <time>2013-07-12T14:56:29Z</time>
      </trkpt>
      <trkpt lat="47.02624" lon="5.73353">
        <ele>236</ele>
        <time>2013-07-12T14:56:30Z</time>
      </trkpt>
      <trkpt lat="47.0262" lon="5.7333">
        <ele>236</ele>
        <time>2013-07-12T14:56:32Z</time>
      </trkpt>
      <trkpt lat="47.02615" lon="5.73308">
        <ele>236</ele>
        <time>2013-07-12T14:56:34Z</time>
      </trkpt>
      <trkpt lat="47.02612" lon="5.73295">
        <ele>236</ele>
        <time>2013-07-12T14:56:35Z</time>
      </trkpt>
      <trkpt lat="47.02607" lon="5.73272">
        <ele>236</ele>
        <time>2013-07-12T14:56:37Z</time>
      </trkpt>
      <trkpt lat="47.02601" lon="5.73248">
        <ele>236</ele>
        <time>2013-07-12T14:56:39Z</time>
      </trkpt>
      <trkpt lat="47.02596" lon="5.73226">
        <ele>236</ele>
        <time>2013-07-12T14:56:41Z</time>
      </trkpt>
      <trkpt lat="47.02593" lon="5.73213">
        <ele>236</ele>
        <time>2013-07-12T14:56:42Z</time>
      </trkpt>
      <trkpt lat="47.02586" lon="5.7319">
        <ele>236</ele>
        <time>2013-07-12T14:56:44Z</time>
      </trkpt>
      <trkpt lat="47.0258" lon="5.73167">
        <ele>236</ele>
        <time>2013-07-12T14:56:46Z</time>
      </trkpt>
      <trkpt lat="47.02573" lon="5.73144">
        <ele>236</ele>
        <time>2013-07-12T14:56:48Z</time>
      </trkpt>
      <trkpt lat="47.02565" lon="5.73122">
        <ele>236</ele>
        <time>2013-07-12T14:56:50Z</time>
      </trkpt>
      <trkpt lat="47.02558" lon="5.73099">
        <ele>236</ele>
        <time>2013-07-12T14:56:52Z</time>
      </trkpt>
      <trkpt lat="47.02554" lon="5.73087">
        <ele>236</ele>
        <time>2013-07-12T14:56:53Z</time>
      </trkpt>
      <trkpt lat="47.0255" lon="5.73076">
        <ele>236</ele>
        <time>2013-07-12T14:56:54Z</time>
      </trkpt>
      <trkpt lat="47.02541" lon="5.73054">
        <ele>236</ele>
        <time>2013-07-12T14:56:56Z</time>
      </trkpt>
      <trkpt lat="47.02532" lon="5.73033">
        <ele>236</ele>
        <time>2013-07-12T14:56:58Z</time>
      </trkpt>
      <trkpt lat="47.02523" lon="5.73011">
        <ele>236</ele>
        <time>2013-07-12T14:57:00Z</time>
      </trkpt>
      <trkpt lat="47.02515" lon="5.7299">
        <ele>236</ele>
        <time>2013-07-12T14:57:02Z</time>
      </trkpt>
      <trkpt lat="47.02509" lon="5.72979">
        <ele>236</ele>
        <time>2013-07-12T14:57:03Z</time>
      </trkpt>
      <trkpt lat="47.02499" lon="5.72958">
        <ele>236</ele>
        <time>2013-07-12T14:57:05Z</time>
      </trkpt>
      <trkpt lat="47.02489" lon="5.72937">
        <ele>236</ele>
        <time>2013-07-12T14:57:07Z</time>
      </trkpt>
      <trkpt lat="47.02478" lon="5.72918">
        <ele>236</ele>
        <time>2013-07-12T14:57:09Z</time>
      </trkpt>
      <trkpt lat="47.02467" lon="5.72898">
        <ele>236</ele>
        <time>2013-07-12T14:57:11Z</time>
      </trkpt>
      <trkpt lat="47.02456" lon="5.72878">
        <ele>236</ele>
        <time>2013-07-12T14:57:13Z</time>
      </trkpt>
      <trkpt lat="47.02451" lon="5.72867">
        <ele>236</ele>
        <time>2013-07-12T14:57:14Z</time>
      </trkpt>
      <trkpt lat="47.02441" lon="5.72848">
        <ele>236</ele>
        <time>2013-07-12T14:57:16Z</time>
      </trkpt>
      <trkpt lat="47.02433" lon="5.72826">
        <ele>236</ele>
        <time>2013-07-12T14:57:18Z</time>
      </trkpt>
      <trkpt lat="47.02426" lon="5.72805">
        <ele>236</ele>
        <time>2013-07-12T14:57:20Z</time>
      </trkpt>
      <trkpt lat="47.0242" lon="5.72784">
        <ele>236</ele>
        <time>2013-07-12T14:57:22Z</time>
      </trkpt>
      <trkpt lat="47.02414" lon="5.72762">
        <ele>236</ele>
        <time>2013-07-12T14:57:24Z</time>
      </trkpt>
      <trkpt lat="47.02408" lon="5.7274">
        <ele>236</ele>
        <time>2013-07-12T14:57:26Z</time>
      </trkpt>
      <trkpt lat="47.02402" lon="5.72717">
        <ele>236</ele>
        <time>2013-07-12T14:57:28Z</time>
      </trkpt>
      <trkpt lat="47.02395" lon="5.72696">
        <ele>236</ele>
        <time>2013-07-12T14:57:30Z</time>
      </trkpt>
      <trkpt lat="47.02389" lon="5.72675">
        <ele>236</ele>
        <time>2013-07-12T14:57:32Z</time>
      </trkpt>
      <trkpt lat="47.02381" lon="5.72654">
        <ele>236</ele>
        <time>2013-07-12T14:57:34Z</time>
      </trkpt>
      <trkpt lat="47.02372" lon="5.72636">
        <ele>236</ele>
        <time>2013-07-12T14:57:36Z</time>
      </trkpt>
      <trkpt lat="47.02363" lon="5.72616">
        <ele>236</ele>
        <time>2013-07-12T14:57:38Z</time>
      </trkpt>
      <trkpt lat="47.02353" lon="5.72597">
        <ele>236</ele>
        <time>2013-07-12T14:57:40Z</time>
      </trkpt>
      <trkpt lat="47.02344" lon="5.72578">
        <ele>236</ele>
        <time>2013-07-12T14:57:42Z</time>
      </trkpt>
      <trkpt lat="47.02335" lon="5.72561">
        <ele>236</ele>
        <time>2013-07-12T14:57:44Z</time>
      </trkpt>
      <trkpt lat="47.02326" lon="5.72544">
        <ele>236</ele>
        <time>2013-07-12T14:57:46Z</time>
      </trkpt>
      <trkpt lat="47.02317" lon="5.72526">
        <ele>236</ele>
        <time>2013-07-12T14:57:48Z</time>
      </trkpt>
      <trkpt lat="47.02309" lon="5.72509">
        <ele>236</ele>
        <time>2013-07-12T14:57:50Z</time>
      </trkpt>
      <trkpt lat="47.02301" lon="5.72492">
        <ele>236</ele>
        <time>2013-07-12T14:57:52Z</time>
      </trkpt>
      <trkpt lat="47.02293" lon="5.72475">
        <ele>236</ele>
        <time>2013-07-12T14:57:54Z</time>
      </trkpt>
      <trkpt lat="47.02285" lon="5.72458">
        <ele>236</ele>
        <time>2013-07-12T14:57:56Z</time>
      </trkpt>
      <trkpt lat="47.02277" lon="5.72441">
        <ele>236</ele>
        <time>2013-07-12T14:57:58Z</time>
      </trkpt>
      <trkpt lat="47.02269" lon="5.72423">
        <ele>230</ele>
        <time>2013-07-12T14:58:00Z</time>
      </trkpt>
      <trkpt lat="47.02261" lon="5.72404">
        <ele>230</ele>
        <time>2013-07-12T14:58:02Z</time>
      </trkpt>
      <trkpt lat="47.02252" lon="5.72386">
        <ele>230</ele>
        <time>2013-07-12T14:58:04Z</time>
      </trkpt>
      <trkpt lat="47.02244" lon="5.72367">
        <ele>230</ele>
        <time>2013-07-12T14:58:06Z</time>
      </trkpt>
      <trkpt lat="47.02235" lon="5.72348">
        <ele>230</ele>
        <time>2013-07-12T14:58:08Z</time>
      </trkpt>
      <trkpt lat="47.02228" lon="5.7233">
        <ele>230</ele>
        <time>2013-07-12T14:58:10Z</time>
      </trkpt>
      <trkpt lat="47.02221" lon="5.72316">
        <ele>230</ele>
        <time>2013-07-12T14:58:12Z</time>
      </trkpt>
      <trkpt lat="47.0222" lon="5.72299">
        <ele>230</ele>
        <time>2013-07-12T14:58:15Z</time>
      </trkpt>
      <trkpt lat="47.02231" lon="5.72286">
        <ele>230</ele>
        <time>2013-07-12T14:58:18Z</time>
      </trkpt>
      <trkpt lat="47.02236" lon="5.72274">
        <ele>230</ele>
        <time>2013-07-12T14:58:20Z</time>
      </trkpt>
      <trkpt lat="47.02239" lon="5.72261">
        <ele>230</ele>
        <time>2013-07-12T14:58:22Z</time>
      </trkpt>
      <trkpt lat="47.02243" lon="5.72248">
        <ele>230</ele>
        <time>2013-07-12T14:58:24Z</time>
      </trkpt>
      <trkpt lat="47.02245" lon="5.72234">
        <ele>230</ele>
        <time>2013-07-12T14:58:26Z</time>
      </trkpt>
      <trkpt lat="47.02247" lon="5.72219">
        <ele>230</ele>
        <time>2013-07-12T14:58:28Z</time>
      </trkpt>
      <trkpt lat="47.02249" lon="5.72203">
        <ele>230</ele>
        <time>2013-07-12T14:58:30Z</time>
      </trkpt>
      <trkpt lat="47.0225" lon="5.72186">
        <ele>230</ele>
        <time>2013-07-12T14:58:32Z</time>
      </trkpt>
      <trkpt lat="47.02251" lon="5.72171">
        <ele>239</ele>
        <time>2013-07-12T14:58:34Z</time>
      </trkpt>
      <trkpt lat="47.0225" lon="5.72157">
        <ele>244</ele>
        <time>2013-07-12T14:58:36Z</time>
      </trkpt>
      <trkpt lat="47.02252" lon="5.72141">
        <ele>244</ele>
        <time>2013-07-12T14:58:38Z</time>
      </trkpt>
      <trkpt lat="47.02252" lon="5.72125">
        <ele>244</ele>
        <time>2013-07-12T14:58:40Z</time>
      </trkpt>
      <trkpt lat="47.02252" lon="5.72108">
        <ele>244</ele>
        <time>2013-07-12T14:58:42Z</time>
      </trkpt>
      <trkpt lat="47.02251" lon="5.72091">
        <ele>244</ele>
        <time>2013-07-12T14:58:44Z</time>
      </trkpt>
      <trkpt lat="47.02249" lon="5.72074">
        <ele>244</ele>
        <time>2013-07-12T14:58:46Z</time>
      </trkpt>
      <trkpt lat="47.02247" lon="5.72058">
        <ele>244</ele>
        <time>2013-07-12T14:58:48Z</time>
      </trkpt>
      <trkpt lat="47.02245" lon="5.7204">
        <ele>244</ele>
        <time>2013-07-12T14:58:50Z</time>
      </trkpt>
      <trkpt lat="47.02242" lon="5.72024">
        <ele>244</ele>
        <time>2013-07-12T14:58:52Z</time>
      </trkpt>
      <trkpt lat="47.02239" lon="5.72009">
        <ele>244</ele>
        <time>2013-07-12T14:58:54Z</time>
      </trkpt>
      <trkpt lat="47.02236" lon="5.71996">
        <ele>239</ele>
        <time>2013-07-12T14:58:56Z</time>
      </trkpt>
      <trkpt lat="47.02232" lon="5.71982">
        <ele>239</ele>
        <time>2013-07-12T14:58:59Z</time>
      </trkpt>
      <trkpt lat="47.02236" lon="5.71966">
        <ele>239</ele>
        <time>2013-07-12T14:59:03Z</time>
      </trkpt>
      <trkpt lat="47.02245" lon="5.71962">
        <ele>239</ele>
        <time>2013-07-12T14:59:05Z</time>
      </trkpt>
      <trkpt lat="47.02256" lon="5.71958">
        <ele>239</ele>
        <time>2013-07-12T14:59:07Z</time>
      </trkpt>
      <trkpt lat="47.02266" lon="5.71955">
        <ele>239</ele>
        <time>2013-07-12T14:59:09Z</time>
      </trkpt>
      <trkpt lat="47.02277" lon="5.71951">
        <ele>239</ele>
        <time>2013-07-12T14:59:11Z</time>
      </trkpt>
      <trkpt lat="47.02288" lon="5.71947">
        <ele>239</ele>
        <time>2013-07-12T14:59:13Z</time>
      </trkpt>
      <trkpt lat="47.02301" lon="5.71942">
        <ele>239</ele>
        <time>2013-07-12T14:59:15Z</time>
      </trkpt>
      <trkpt lat="47.02312" lon="5.71939">
        <ele>239</ele>
        <time>2013-07-12T14:59:17Z</time>
      </trkpt>
      <trkpt lat="47.02324" lon="5.71936">
        <ele>239</ele>
        <time>2013-07-12T14:59:19Z</time>
      </trkpt>
      <trkpt lat="47.02336" lon="5.71934">
        <ele>239</ele>
        <time>2013-07-12T14:59:21Z</time>
      </trkpt>
      <trkpt lat="47.02347" lon="5.71934">
        <ele>239</ele>
        <time>2013-07-12T14:59:23Z</time>
      </trkpt>
      <trkpt lat="47.02358" lon="5.71937">
        <ele>239</ele>
        <time>2013-07-12T14:59:25Z</time>
      </trkpt>
      <trkpt lat="47.0237" lon="5.7194">
        <ele>239</ele>
        <time>2013-07-12T14:59:27Z</time>
      </trkpt>
      <trkpt lat="47.02381" lon="5.71943">
        <ele>239</ele>
        <time>2013-07-12T14:59:29Z</time>
      </trkpt>
      <trkpt lat="47.02392" lon="5.71945">
        <ele>239</ele>
        <time>2013-07-12T14:59:31Z</time>
      </trkpt>
      <trkpt lat="47.02404" lon="5.71946">
        <ele>239</ele>
        <time>2013-07-12T14:59:33Z</time>
      </trkpt>
      <trkpt lat="47.02416" lon="5.71946">
        <ele>239</ele>
        <time>2013-07-12T14:59:35Z</time>
      </trkpt>
      <trkpt lat="47.02428" lon="5.71945">
        <ele>239</ele>
        <time>2013-07-12T14:59:37Z</time>
      </trkpt>
      <trkpt lat="47.02439" lon="5.71943">
        <ele>239</ele>
        <time>2013-07-12T14:59:39Z</time>
      </trkpt>
      <trkpt lat="47.02451" lon="5.71942">
        <ele>239</ele>
        <time>2013-07-12T14:59:41Z</time>
      </trkpt>
      <trkpt lat="47.02462" lon="5.7194">
        <ele>239</ele>
        <time>2013-07-12T14:59:43Z</time>
      </trkpt>
      <trkpt lat="47.02474" lon="5.71939">
        <ele>239</ele>
        <time>2013-07-12T14:59:45Z</time>
      </trkpt>
      <trkpt lat="47.02486" lon="5.71937">
        <ele>239</ele>
        <time>2013-07-12T14:59:47Z</time>
      </trkpt>
      <trkpt lat="47.02498" lon="5.71936">
        <ele>239</ele>
        <time>2013-07-12T14:59:49Z</time>
      </trkpt>
      <trkpt lat="47.0251" lon="5.71934">
        <ele>239</ele>
        <time>2013-07-12T14:59:51Z</time>
      </trkpt>
      <trkpt lat="47.02521" lon="5.71932">
        <ele>239</ele>
        <time>2013-07-12T14:59:53Z</time>
      </trkpt>
      <trkpt lat="47.02532" lon="5.7193">
        <ele>239</ele>
        <time>2013-07-12T14:59:55Z</time>
      </trkpt>
      <trkpt lat="47.02543" lon="5.7193">
        <ele>239</ele>
        <time>2013-07-12T14:59:57Z</time>
      </trkpt>
      <trkpt lat="47.02554" lon="5.7193">
        <ele>239</ele>
        <time>2013-07-12T14:59:59Z</time>
      </trkpt>
      <trkpt lat="47.02565" lon="5.71929">
        <ele>239</ele>
        <time>2013-07-12T15:00:01Z</time>
      </trkpt>
      <trkpt lat="47.02577" lon="5.71926">
        <ele>239</ele>
        <time>2013-07-12T15:00:03Z</time>
      </trkpt>
      <trkpt lat="47.02588" lon="5.71923">
        <ele>239</ele>
        <time>2013-07-12T15:00:05Z</time>
      </trkpt>
      <trkpt lat="47.02599" lon="5.71921">
        <ele>239</ele>
        <time>2013-07-12T15:00:07Z</time>
      </trkpt>
      <trkpt lat="47.02609" lon="5.71919">
        <ele>239</ele>
        <time>2013-07-12T15:00:09Z</time>
      </trkpt>
      <trkpt lat="47.02621" lon="5.71916">
        <ele>239</ele>
        <time>2013-07-12T15:00:11Z</time>
      </trkpt>
      <trkpt lat="47.02632" lon="5.71914">
        <ele>239</ele>
        <time>2013-07-12T15:00:13Z</time>
      </trkpt>
      <trkpt lat="47.02642" lon="5.71912">
        <ele>239</ele>
        <time>2013-07-12T15:00:15Z</time>
      </trkpt>
      <trkpt lat="47.02653" lon="5.7191">
        <ele>239</ele>
        <time>2013-07-12T15:00:17Z</time>
      </trkpt>
      <trkpt lat="47.02665" lon="5.71908">
        <ele>239</ele>
        <time>2013-07-12T15:00:19Z</time>
      </trkpt>
      <trkpt lat="47.02677" lon="5.71906">
        <ele>239</ele>
        <time>2013-07-12T15:00:21Z</time>
      </trkpt>
      <trkpt lat="47.02688" lon="5.71903">
        <ele>239</ele>
        <time>2013-07-12T15:00:23Z</time>
      </trkpt>
      <trkpt lat="47.02699" lon="5.719">
        <ele>239</ele>
        <time>2013-07-12T15:00:25Z</time>
      </trkpt>
      <trkpt lat="47.02709" lon="5.71897">
        <ele>239</ele>
        <time>2013-07-12T15:00:27Z</time>
      </trkpt>
      <trkpt lat="47.0272" lon="5.71894">
        <ele>239</ele>
        <time>2013-07-12T15:00:29Z</time>
      </trkpt>
      <trkpt lat="47.0273" lon="5.7189">
        <ele>239</ele>
        <time>2013-07-12T15:00:31Z</time>
      </trkpt>
      <trkpt lat="47.0274" lon="5.71887">
        <ele>239</ele>
        <time>2013-07-12T15:00:33Z</time>
      </trkpt>
      <trkpt lat="47.0275" lon="5.71886">
        <ele>239</ele>
        <time>2013-07-12T15:00:36Z</time>
      </trkpt>
      <trkpt lat="47.02761" lon="5.71884">
        <ele>239</ele>
        <time>2013-07-12T15:00:39Z</time>
      </trkpt>
      <trkpt lat="47.02772" lon="5.71881">
        <ele>239</ele>
        <time>2013-07-12T15:00:41Z</time>
      </trkpt>
      <trkpt lat="47.02783" lon="5.7188">
        <ele>239</ele>
        <time>2013-07-12T15:00:43Z</time>
      </trkpt>
      <trkpt lat="47.02795" lon="5.71879">
        <ele>239</ele>
        <time>2013-07-12T15:00:45Z</time>
      </trkpt>
      <trkpt lat="47.02806" lon="5.71879">
        <ele>239</ele>
        <time>2013-07-12T15:00:47Z</time>
      </trkpt>
      <trkpt lat="47.02818" lon="5.7188">
        <ele>239</ele>
        <time>2013-07-12T15:00:49Z</time>
      </trkpt>
      <trkpt lat="47.0283" lon="5.71879">
        <ele>239</ele>
        <time>2013-07-12T15:00:51Z</time>
      </trkpt>
      <trkpt lat="47.02843" lon="5.71877">
        <ele>239</ele>
        <time>2013-07-12T15:00:53Z</time>
      </trkpt>
      <trkpt lat="47.02855" lon="5.71874">
        <ele>239</ele>
        <time>2013-07-12T15:00:55Z</time>
      </trkpt>
      <trkpt lat="47.02867" lon="5.71871">
        <ele>239</ele>
        <time>2013-07-12T15:00:57Z</time>
      </trkpt>
      <trkpt lat="47.02879" lon="5.71868">
        <ele>239</ele>
        <time>2013-07-12T15:00:59Z</time>
      </trkpt>
      <trkpt lat="47.02892" lon="5.71866">
        <ele>239</ele>
        <time>2013-07-12T15:01:01Z</time>
      </trkpt>
      <trkpt lat="47.02903" lon="5.71864">
        <ele>239</ele>
        <time>2013-07-12T15:01:03Z</time>
      </trkpt>
      <trkpt lat="47.02914" lon="5.71862">
        <ele>239</ele>
        <time>2013-07-12T15:01:05Z</time>
      </trkpt>
      <trkpt lat="47.02925" lon="5.71861">
        <ele>239</ele>
        <time>2013-07-12T15:01:07Z</time>
      </trkpt>
      <trkpt lat="47.02935" lon="5.7186">
        <ele>239</ele>
        <time>2013-07-12T15:01:09Z</time>
      </trkpt>
      <trkpt lat="47.02945" lon="5.71859">
        <ele>239</ele>
        <time>2013-07-12T15:01:11Z</time>
      </trkpt>
      <trkpt lat="47.02954" lon="5.71858">
        <ele>239</ele>
        <time>2013-07-12T15:01:13Z</time>
      </trkpt>
      <trkpt lat="47.02964" lon="5.71858">
        <ele>239</ele>
        <time>2013-07-12T15:01:15Z</time>
      </trkpt>
      <trkpt lat="47.02973" lon="5.71858">
        <ele>239</ele>
        <time>2013-07-12T15:01:17Z</time>
      </trkpt>
      <trkpt lat="47.02982" lon="5.71857">
        <ele>239</ele>
        <time>2013-07-12T15:01:19Z</time>
      </trkpt>
      <trkpt lat="47.02991" lon="5.71856">
        <ele>239</ele>
        <time>2013-07-12T15:01:21Z</time>
      </trkpt>
      <trkpt lat="47.03005" lon="5.71854">
        <ele>239</ele>
        <time>2013-07-12T15:01:24Z</time>
      </trkpt>
      <trkpt lat="47.03018" lon="5.71852">
        <ele>239</ele>
        <time>2013-07-12T15:01:27Z</time>
      </trkpt>
      <trkpt lat="47.0303" lon="5.7185">
        <ele>239</ele>
        <time>2013-07-12T15:01:30Z</time>
      </trkpt>
      <trkpt lat="47.03044" lon="5.71848">
        <ele>239</ele>
        <time>2013-07-12T15:01:33Z</time>
      </trkpt>
      <trkpt lat="47.03053" lon="5.71845">
        <ele>239</ele>
        <time>2013-07-12T15:01:35Z</time>
      </trkpt>
      <trkpt lat="47.03064" lon="5.71842">
        <ele>239</ele>
        <time>2013-07-12T15:01:37Z</time>
      </trkpt>
      <trkpt lat="47.03074" lon="5.71838">
        <ele>239</ele>
        <time>2013-07-12T15:01:39Z</time>
      </trkpt>
      <trkpt lat="47.03085" lon="5.71834">
        <ele>239</ele>
        <time>2013-07-12T15:01:41Z</time>
      </trkpt>
      <trkpt lat="47.03096" lon="5.71831">
        <ele>239</ele>
        <time>2013-07-12T15:01:43Z</time>
      </trkpt>
      <trkpt lat="47.03106" lon="5.71827">
        <ele>239</ele>
        <time>2013-07-12T15:01:45Z</time>
      </trkpt>
      <trkpt lat="47.03116" lon="5.71826">
        <ele>239</ele>
        <time>2013-07-12T15:01:47Z</time>
      </trkpt>
      <trkpt lat="47.03129" lon="5.71827">
        <ele>239</ele>
        <time>2013-07-12T15:01:49Z</time>
      </trkpt>
      <trkpt lat="47.03139" lon="5.71824">
        <ele>239</ele>
        <time>2013-07-12T15:01:51Z</time>
      </trkpt>
      <trkpt lat="47.03149" lon="5.71822">
        <ele>239</ele>
        <time>2013-07-12T15:01:53Z</time>
      </trkpt>
      <trkpt lat="47.03159" lon="5.71819">
        <ele>239</ele>
        <time>2013-07-12T15:01:55Z</time>
      </trkpt>
      <trkpt lat="47.03169" lon="5.71818">
        <ele>239</ele>
        <time>2013-07-12T15:01:57Z</time>
      </trkpt>
      <trkpt lat="47.03179" lon="5.71816">
        <ele>239</ele>
        <time>2013-07-12T15:01:59Z</time>
      </trkpt>
      <trkpt lat="47.0319" lon="5.71815">
        <ele>239</ele>
        <time>2013-07-12T15:02:01Z</time>
      </trkpt>
      <trkpt lat="47.03201" lon="5.71814">
        <ele>239</ele>
        <time>2013-07-12T15:02:03Z</time>
      </trkpt>
      <trkpt lat="47.03212" lon="5.71812">
        <ele>239</ele>
        <time>2013-07-12T15:02:05Z</time>
      </trkpt>
      <trkpt lat="47.03224" lon="5.71811">
        <ele>239</ele>
        <time>2013-07-12T15:02:07Z</time>
      </trkpt>
      <trkpt lat="47.03236" lon="5.71811">
        <ele>239</ele>
        <time>2013-07-12T15:02:09Z</time>
      </trkpt>
      <trkpt lat="47.03249" lon="5.7181">
        <ele>239</ele>
        <time>2013-07-12T15:02:11Z</time>
      </trkpt>
      <trkpt lat="47.0326" lon="5.7181">
        <ele>239</ele>
        <time>2013-07-12T15:02:13Z</time>
      </trkpt>
      <trkpt lat="47.03271" lon="5.71811">
        <ele>239</ele>
        <time>2013-07-12T15:02:15Z</time>
      </trkpt>
      <trkpt lat="47.03282" lon="5.71812">
        <ele>239</ele>
        <time>2013-07-12T15:02:17Z</time>
      </trkpt>
      <trkpt lat="47.03294" lon="5.71813">
        <ele>239</ele>
        <time>2013-07-12T15:02:19Z</time>
      </trkpt>
      <trkpt lat="47.03306" lon="5.71815">
        <ele>239</ele>
        <time>2013-07-12T15:02:21Z</time>
      </trkpt>
      <trkpt lat="47.03317" lon="5.71815">
        <ele>239</ele>
        <time>2013-07-12T15:02:23Z</time>
      </trkpt>
      <trkpt lat="47.03327" lon="5.71817">
        <ele>245</ele>
        <time>2013-07-12T15:02:25Z</time>
      </trkpt>
      <trkpt lat="47.03338" lon="5.7182">
        <ele>245</ele>
        <time>2013-07-12T15:02:27Z</time>
      </trkpt>
      <trkpt lat="47.03349" lon="5.71822">
        <ele>245</ele>
        <time>2013-07-12T15:02:29Z</time>
      </trkpt>
      <trkpt lat="47.03361" lon="5.71824">
        <ele>245</ele>
        <time>2013-07-12T15:02:31Z</time>
      </trkpt>
      <trkpt lat="47.03373" lon="5.71826">
        <ele>245</ele>
        <time>2013-07-12T15:02:33Z</time>
      </trkpt>
      <trkpt lat="47.03384" lon="5.71831">
        <ele>245</ele>
        <time>2013-07-12T15:02:35Z</time>
      </trkpt>
      <trkpt lat="47.03395" lon="5.71834">
        <ele>245</ele>
        <time>2013-07-12T15:02:37Z</time>
      </trkpt>
      <trkpt lat="47.03406" lon="5.71838">
        <ele>245</ele>
        <time>2013-07-12T15:02:39Z</time>
      </trkpt>
      <trkpt lat="47.03417" lon="5.71842">
        <ele>245</ele>
        <time>2013-07-12T15:02:41Z</time>
      </trkpt>
      <trkpt lat="47.03429" lon="5.71844">
        <ele>245</ele>
        <time>2013-07-12T15:02:43Z</time>
      </trkpt>
      <trkpt lat="47.0344" lon="5.71847">
        <ele>245</ele>
        <time>2013-07-12T15:02:45Z</time>
      </trkpt>
      <trkpt lat="47.03452" lon="5.71848">
        <ele>245</ele>
        <time>2013-07-12T15:02:47Z</time>
      </trkpt>
      <trkpt lat="47.03463" lon="5.71849">
        <ele>245</ele>
        <time>2013-07-12T15:02:49Z</time>
      </trkpt>
      <trkpt lat="47.03475" lon="5.7185">
        <ele>245</ele>
        <time>2013-07-12T15:02:51Z</time>
      </trkpt>
      <trkpt lat="47.03486" lon="5.71851">
        <ele>245</ele>
        <time>2013-07-12T15:02:53Z</time>
      </trkpt>
      <trkpt lat="47.03497" lon="5.71854">
        <ele>245</ele>
        <time>2013-07-12T15:02:55Z</time>
      </trkpt>
      <trkpt lat="47.03508" lon="5.71856">
        <ele>245</ele>
        <time>2013-07-12T15:02:57Z</time>
      </trkpt>
      <trkpt lat="47.0352" lon="5.71859">
        <ele>245</ele>
        <time>2013-07-12T15:02:59Z</time>
      </trkpt>
      <trkpt lat="47.03531" lon="5.71861">
        <ele>245</ele>
        <time>2013-07-12T15:03:01Z</time>
      </trkpt>
      <trkpt lat="47.03543" lon="5.71863">
        <ele>245</ele>
        <time>2013-07-12T15:03:03Z</time>
      </trkpt>
      <trkpt lat="47.03554" lon="5.71864">
        <ele>245</ele>
        <time>2013-07-12T15:03:05Z</time>
      </trkpt>
      <trkpt lat="47.03565" lon="5.71866">
        <ele>245</ele>
        <time>2013-07-12T15:03:07Z</time>
      </trkpt>
      <trkpt lat="47.03576" lon="5.71866">
        <ele>245</ele>
        <time>2013-07-12T15:03:09Z</time>
      </trkpt>
      <trkpt lat="47.03588" lon="5.71863">
        <ele>250</ele>
        <time>2013-07-12T15:03:11Z</time>
      </trkpt>
      <trkpt lat="47.03598" lon="5.71861">
        <ele>250</ele>
        <time>2013-07-12T15:03:13Z</time>
      </trkpt>
      <trkpt lat="47.03607" lon="5.71857">
        <ele>260</ele>
        <time>2013-07-12T15:03:15Z</time>
      </trkpt>
      <trkpt lat="47.03616" lon="5.71852">
        <ele>266</ele>
        <time>2013-07-12T15:03:17Z</time>
      </trkpt>
      <trkpt lat="47.03626" lon="5.71847">
        <ele>273</ele>
        <time>2013-07-12T15:03:19Z</time>
      </trkpt>
      <trkpt lat="47.03635" lon="5.71842">
        <ele>273</ele>
        <time>2013-07-12T15:03:21Z</time>
      </trkpt>
      <trkpt lat="47.03644" lon="5.71838">
        <ele>281</ele>
        <time>2013-07-12T15:03:23Z</time>
      </trkpt>
      <trkpt lat="47.03654" lon="5.71833">
        <ele>281</ele>
        <time>2013-07-12T15:03:25Z</time>
      </trkpt>
      <trkpt lat="47.03663" lon="5.71831">
        <ele>281</ele>
        <time>2013-07-12T15:03:27Z</time>
      </trkpt>
      <trkpt lat="47.03672" lon="5.71829">
        <ele>288</ele>
        <time>2013-07-12T15:03:29Z</time>
      </trkpt>
      <trkpt lat="47.03682" lon="5.71826">
        <ele>288</ele>
        <time>2013-07-12T15:03:31Z</time>
      </trkpt>
      <trkpt lat="47.03691" lon="5.71825">
        <ele>288</ele>
        <time>2013-07-12T15:03:33Z</time>
      </trkpt>
      <trkpt lat="47.03701" lon="5.71823">
        <ele>296</ele>
        <time>2013-07-12T15:03:35Z</time>
      </trkpt>
      <trkpt lat="47.0371" lon="5.71818">
        <ele>296</ele>
        <time>2013-07-12T15:03:37Z</time>
      </trkpt>
      <trkpt lat="47.0372" lon="5.71815">
        <ele>301</ele>
        <time>2013-07-12T15:03:39Z</time>
      </trkpt>
      <trkpt lat="47.03729" lon="5.71814">
        <ele>301</ele>
        <time>2013-07-12T15:03:41Z</time>
      </trkpt>
      <trkpt lat="47.03738" lon="5.71812">
        <ele>301</ele>
        <time>2013-07-12T15:03:43Z</time>
      </trkpt>
      <trkpt lat="47.03748" lon="5.71806">
        <ele>301</ele>
        <time>2013-07-12T15:03:45Z</time>
      </trkpt>
      <trkpt lat="47.03758" lon="5.718">
        <ele>301</ele>
        <time>2013-07-12T15:03:47Z</time>
      </trkpt>
      <trkpt lat="47.03767" lon="5.71794">
        <ele>301</ele>
        <time>2013-07-12T15:03:49Z</time>
      </trkpt>
      <trkpt lat="47.03777" lon="5.71787">
        <ele>301</ele>
        <time>2013-07-12T15:03:51Z</time>
      </trkpt>
      <trkpt lat="47.03785" lon="5.71781">
        <ele>301</ele>
        <time>2013-07-12T15:03:53Z</time>
      </trkpt>
      <trkpt lat="47.03795" lon="5.71778">
        <ele>301</ele>
        <time>2013-07-12T15:03:55Z</time>
      </trkpt>
      <trkpt lat="47.03805" lon="5.71773">
        <ele>301</ele>
        <time>2013-07-12T15:03:57Z</time>
      </trkpt>
      <trkpt lat="47.03815" lon="5.71768">
        <ele>301</ele>
        <time>2013-07-12T15:03:59Z</time>
      </trkpt>
      <trkpt lat="47.03825" lon="5.71763">
        <ele>301</ele>
        <time>2013-07-12T15:04:01Z</time>
      </trkpt>
      <trkpt lat="47.03834" lon="5.71759">
        <ele>295</ele>
        <time>2013-07-12T15:04:03Z</time>
      </trkpt>
      <trkpt lat="47.03844" lon="5.71754">
        <ele>295</ele>
        <time>2013-07-12T15:04:05Z</time>
      </trkpt>
      <trkpt lat="47.03855" lon="5.71746">
        <ele>295</ele>
        <time>2013-07-12T15:04:07Z</time>
      </trkpt>
      <trkpt lat="47.03866" lon="5.71737">
        <ele>283</ele>
        <time>2013-07-12T15:04:09Z</time>
      </trkpt>
      <trkpt lat="47.03877" lon="5.71732">
        <ele>283</ele>
        <time>2013-07-12T15:04:11Z</time>
      </trkpt>
      <trkpt lat="47.03888" lon="5.71727">
        <ele>283</ele>
        <time>2013-07-12T15:04:13Z</time>
      </trkpt>
      <trkpt lat="47.039" lon="5.71723">
        <ele>277</ele>
        <time>2013-07-12T15:04:15Z</time>
      </trkpt>
      <trkpt lat="47.03912" lon="5.71719">
        <ele>277</ele>
        <time>2013-07-12T15:04:17Z</time>
      </trkpt>
      <trkpt lat="47.03923" lon="5.71717">
        <ele>277</ele>
        <time>2013-07-12T15:04:19Z</time>
      </trkpt>
      <trkpt lat="47.03935" lon="5.71713">
        <ele>277</ele>
        <time>2013-07-12T15:04:21Z</time>
      </trkpt>
      <trkpt lat="47.03946" lon="5.71711">
        <ele>277</ele>
        <time>2013-07-12T15:04:23Z</time>
      </trkpt>
      <trkpt lat="47.03956" lon="5.71709">
        <ele>277</ele>
        <time>2013-07-12T15:04:25Z</time>
      </trkpt>
      <trkpt lat="47.03967" lon="5.71707">
        <ele>277</ele>
        <time>2013-07-12T15:04:27Z</time>
      </trkpt>
      <trkpt lat="47.03979" lon="5.71701">
        <ele>277</ele>
        <time>2013-07-12T15:04:29Z</time>
      </trkpt>
      <trkpt lat="47.03991" lon="5.71698">
        <ele>277</ele>
        <time>2013-07-12T15:04:31Z</time>
      </trkpt>
      <trkpt lat="47.04003" lon="5.71694">
        <ele>277</ele>
        <time>2013-07-12T15:04:33Z</time>
      </trkpt>
      <trkpt lat="47.04015" lon="5.71691">
        <ele>277</ele>
        <time>2013-07-12T15:04:35Z</time>
      </trkpt>
      <trkpt lat="47.04027" lon="5.7169">
        <ele>277</ele>
        <time>2013-07-12T15:04:37Z</time>
      </trkpt>
      <trkpt lat="47.0404" lon="5.71687">
        <ele>277</ele>
        <time>2013-07-12T15:04:39Z</time>
      </trkpt>
      <trkpt lat="47.04051" lon="5.71681">
        <ele>277</ele>
        <time>2013-07-12T15:04:41Z</time>
      </trkpt>
      <trkpt lat="47.04063" lon="5.71676">
        <ele>277</ele>
        <time>2013-07-12T15:04:43Z</time>
      </trkpt>
      <trkpt lat="47.04075" lon="5.71674">
        <ele>277</ele>
        <time>2013-07-12T15:04:45Z</time>
      </trkpt>
      <trkpt lat="47.04086" lon="5.71672">
        <ele>277</ele>
        <time>2013-07-12T15:04:47Z</time>
      </trkpt>
      <trkpt lat="47.04098" lon="5.71668">
        <ele>277</ele>
        <time>2013-07-12T15:04:49Z</time>
      </trkpt>
      <trkpt lat="47.0411" lon="5.71665">
        <ele>277</ele>
        <time>2013-07-12T15:04:51Z</time>
      </trkpt>
      <trkpt lat="47.0412" lon="5.71663">
        <ele>277</ele>
        <time>2013-07-12T15:04:53Z</time>
      </trkpt>
      <trkpt lat="47.04131" lon="5.71659">
        <ele>277</ele>
        <time>2013-07-12T15:04:55Z</time>
      </trkpt>
      <trkpt lat="47.04142" lon="5.71656">
        <ele>277</ele>
        <time>2013-07-12T15:04:57Z</time>
      </trkpt>
      <trkpt lat="47.04154" lon="5.71654">
        <ele>277</ele>
        <time>2013-07-12T15:04:59Z</time>
      </trkpt>
      <trkpt lat="47.04165" lon="5.71651">
        <ele>277</ele>
        <time>2013-07-12T15:05:01Z</time>
      </trkpt>
      <trkpt lat="47.04176" lon="5.71649">
        <ele>277</ele>
        <time>2013-07-12T15:05:03Z</time>
      </trkpt>
      <trkpt lat="47.04188" lon="5.71647">
        <ele>277</ele>
        <time>2013-07-12T15:05:05Z</time>
      </trkpt>
      <trkpt lat="47.042" lon="5.71644">
        <ele>277</ele>
        <time>2013-07-12T15:05:07Z</time>
      </trkpt>
      <trkpt lat="47.04211" lon="5.7164">
        <ele>277</ele>
        <time>2013-07-12T15:05:09Z</time>
      </trkpt>
      <trkpt lat="47.04224" lon="5.71636">
        <ele>277</ele>
        <time>2013-07-12T15:05:11Z</time>
      </trkpt>
      <trkpt lat="47.04236" lon="5.71631">
        <ele>277</ele>
        <time>2013-07-12T15:05:13Z</time>
      </trkpt>
      <trkpt lat="47.04247" lon="5.71629">
        <ele>277</ele>
        <time>2013-07-12T15:05:15Z</time>
      </trkpt>
      <trkpt lat="47.04259" lon="5.71626">
        <ele>277</ele>
        <time>2013-07-12T15:05:17Z</time>
      </trkpt>
      <trkpt lat="47.04272" lon="5.71622">
        <ele>282</ele>
        <time>2013-07-12T15:05:19Z</time>
      </trkpt>
      <trkpt lat="47.04286" lon="5.71619">
        <ele>282</ele>
        <time>2013-07-12T15:05:21Z</time>
      </trkpt>
      <trkpt lat="47.04299" lon="5.71617">
        <ele>282</ele>
        <time>2013-07-12T15:05:23Z</time>
      </trkpt>
      <trkpt lat="47.04313" lon="5.71613">
        <ele>282</ele>
        <time>2013-07-12T15:05:25Z</time>
      </trkpt>
      <trkpt lat="47.04327" lon="5.71609">
        <ele>282</ele>
        <time>2013-07-12T15:05:27Z</time>
      </trkpt>
      <trkpt lat="47.0434" lon="5.71605">
        <ele>282</ele>
        <time>2013-07-12T15:05:29Z</time>
      </trkpt>
      <trkpt lat="47.04353" lon="5.71602">
        <ele>282</ele>
        <time>2013-07-12T15:05:31Z</time>
      </trkpt>
      <trkpt lat="47.04366" lon="5.71599">
        <ele>282</ele>
        <time>2013-07-12T15:05:33Z</time>
      </trkpt>
      <trkpt lat="47.0438" lon="5.71596">
        <ele>282</ele>
        <time>2013-07-12T15:05:35Z</time>
      </trkpt>
      <trkpt lat="47.04394" lon="5.71594">
        <ele>282</ele>
        <time>2013-07-12T15:05:37Z</time>
      </trkpt>
      <trkpt lat="47.04409" lon="5.71592">
        <ele>282</ele>
        <time>2013-07-12T15:05:39Z</time>
      </trkpt>
      <trkpt lat="47.04422" lon="5.71591">
        <ele>282</ele>
        <time>2013-07-12T15:05:41Z</time>
      </trkpt>
      <trkpt lat="47.04436" lon="5.71589">
        <ele>277</ele>
        <time>2013-07-12T15:05:43Z</time>
      </trkpt>
      <trkpt lat="47.04451" lon="5.71585">
        <ele>277</ele>
        <time>2013-07-12T15:05:45Z</time>
      </trkpt>
      <trkpt lat="47.04466" lon="5.71581">
        <ele>277</ele>
        <time>2013-07-12T15:05:47Z</time>
      </trkpt>
      <trkpt lat="47.04481" lon="5.71577">
        <ele>277</ele>
        <time>2013-07-12T15:05:49Z</time>
      </trkpt>
      <trkpt lat="47.04496" lon="5.71572">
        <ele>277</ele>
        <time>2013-07-12T15:05:51Z</time>
      </trkpt>
      <trkpt lat="47.04512" lon="5.71569">
        <ele>270</ele>
        <time>2013-07-12T15:05:53Z</time>
      </trkpt>
      <trkpt lat="47.04525" lon="5.71566">
        <ele>270</ele>
        <time>2013-07-12T15:05:55Z</time>
      </trkpt>
      <trkpt lat="47.04539" lon="5.71562">
        <ele>270</ele>
        <time>2013-07-12T15:05:57Z</time>
      </trkpt>
      <trkpt lat="47.04554" lon="5.71559">
        <ele>264</ele>
        <time>2013-07-12T15:05:59Z</time>
      </trkpt>
      <trkpt lat="47.04566" lon="5.71557">
        <ele>264</ele>
        <time>2013-07-12T15:06:01Z</time>
      </trkpt>
      <trkpt lat="47.04579" lon="5.71553">
        <ele>264</ele>
        <time>2013-07-12T15:06:03Z</time>
      </trkpt>
      <trkpt lat="47.04592" lon="5.71549">
        <ele>264</ele>
        <time>2013-07-12T15:06:05Z</time>
      </trkpt>
      <trkpt lat="47.04606" lon="5.71544">
        <ele>264</ele>
        <time>2013-07-12T15:06:07Z</time>
      </trkpt>
      <trkpt lat="47.04619" lon="5.7154">
        <ele>264</ele>
        <time>2013-07-12T15:06:09Z</time>
      </trkpt>
      <trkpt lat="47.04632" lon="5.71538">
        <ele>264</ele>
        <time>2013-07-12T15:06:11Z</time>
      </trkpt>
      <trkpt lat="47.04646" lon="5.71535">
        <ele>264</ele>
        <time>2013-07-12T15:06:13Z</time>
      </trkpt>
      <trkpt lat="47.04659" lon="5.71533">
        <ele>264</ele>
        <time>2013-07-12T15:06:15Z</time>
      </trkpt>
      <trkpt lat="47.04673" lon="5.7153">
        <ele>264</ele>
        <time>2013-07-12T15:06:17Z</time>
      </trkpt>
      <trkpt lat="47.04687" lon="5.71526">
        <ele>264</ele>
        <time>2013-07-12T15:06:19Z</time>
      </trkpt>
      <trkpt lat="47.047" lon="5.71523">
        <ele>264</ele>
        <time>2013-07-12T15:06:21Z</time>
      </trkpt>
      <trkpt lat="47.04713" lon="5.71518">
        <ele>264</ele>
        <time>2013-07-12T15:06:23Z</time>
      </trkpt>
      <trkpt lat="47.04727" lon="5.71514">
        <ele>264</ele>
        <time>2013-07-12T15:06:25Z</time>
      </trkpt>
      <trkpt lat="47.04742" lon="5.71509">
        <ele>264</ele>
        <time>2013-07-12T15:06:27Z</time>
      </trkpt>
      <trkpt lat="47.04756" lon="5.71502">
        <ele>274</ele>
        <time>2013-07-12T15:06:29Z</time>
      </trkpt>
      <trkpt lat="47.0477" lon="5.71497">
        <ele>274</ele>
        <time>2013-07-12T15:06:31Z</time>
      </trkpt>
      <trkpt lat="47.04784" lon="5.71493">
        <ele>274</ele>
        <time>2013-07-12T15:06:33Z</time>
      </trkpt>
      <trkpt lat="47.04799" lon="5.71489">
        <ele>274</ele>
        <time>2013-07-12T15:06:35Z</time>
      </trkpt>
      <trkpt lat="47.04813" lon="5.71486">
        <ele>274</ele>
        <time>2013-07-12T15:06:37Z</time>
      </trkpt>
      <trkpt lat="47.04827" lon="5.71481">
        <ele>274</ele>
        <time>2013-07-12T15:06:39Z</time>
      </trkpt>
      <trkpt lat="47.04842" lon="5.71479">
        <ele>274</ele>
        <time>2013-07-12T15:06:41Z</time>
      </trkpt>
      <trkpt lat="47.04857" lon="5.71476">
        <ele>274</ele>
        <time>2013-07-12T15:06:43Z</time>
      </trkpt>
      <trkpt lat="47.04872" lon="5.71472">
        <ele>274</ele>
        <time>2013-07-12T15:06:45Z</time>
      </trkpt>
      <trkpt lat="47.04888" lon="5.71468">
        <ele>274</ele>
        <time>2013-07-12T15:06:47Z</time>
      </trkpt>
      <trkpt lat="47.04904" lon="5.71463">
        <ele>274</ele>
        <time>2013-07-12T15:06:49Z</time>
      </trkpt>
      <trkpt lat="47.04919" lon="5.71459">
        <ele>274</ele>
        <time>2013-07-12T15:06:51Z</time>
      </trkpt>
      <trkpt lat="47.04935" lon="5.71456">
        <ele>274</ele>
        <time>2013-07-12T15:06:53Z</time>
      </trkpt>
      <trkpt lat="47.04951" lon="5.71451">
        <ele>274</ele>
        <time>2013-07-12T15:06:55Z</time>
      </trkpt>
      <trkpt lat="47.04968" lon="5.71446">
        <ele>274</ele>
        <time>2013-07-12T15:06:57Z</time>
      </trkpt>
      <trkpt lat="47.04985" lon="5.71443">
        <ele>274</ele>
        <time>2013-07-12T15:06:59Z</time>
      </trkpt>
      <trkpt lat="47.05002" lon="5.71438">
        <ele>274</ele>
        <time>2013-07-12T15:07:01Z</time>
      </trkpt>
      <trkpt lat="47.05018" lon="5.71435">
        <ele>274</ele>
        <time>2013-07-12T15:07:03Z</time>
      </trkpt>
      <trkpt lat="47.05034" lon="5.7143">
        <ele>274</ele>
        <time>2013-07-12T15:07:05Z</time>
      </trkpt>
      <trkpt lat="47.05051" lon="5.71426">
        <ele>274</ele>
        <time>2013-07-12T15:07:07Z</time>
      </trkpt>
      <trkpt lat="47.05067" lon="5.71423">
        <ele>269</ele>
        <time>2013-07-12T15:07:09Z</time>
      </trkpt>
      <trkpt lat="47.05083" lon="5.71419">
        <ele>269</ele>
        <time>2013-07-12T15:07:11Z</time>
      </trkpt>
      <trkpt lat="47.05099" lon="5.71415">
        <ele>269</ele>
        <time>2013-07-12T15:07:13Z</time>
      </trkpt>
      <trkpt lat="47.05116" lon="5.71411">
        <ele>269</ele>
        <time>2013-07-12T15:07:15Z</time>
      </trkpt>
      <trkpt lat="47.05133" lon="5.71409">
        <ele>269</ele>
        <time>2013-07-12T15:07:17Z</time>
      </trkpt>
      <trkpt lat="47.0515" lon="5.71404">
        <ele>269</ele>
        <time>2013-07-12T15:07:19Z</time>
      </trkpt>
      <trkpt lat="47.05167" lon="5.714">
        <ele>269</ele>
        <time>2013-07-12T15:07:21Z</time>
      </trkpt>
      <trkpt lat="47.05182" lon="5.71395">
        <ele>269</ele>
        <time>2013-07-12T15:07:23Z</time>
      </trkpt>
      <trkpt lat="47.05199" lon="5.71391">
        <ele>269</ele>
        <time>2013-07-12T15:07:25Z</time>
      </trkpt>
      <trkpt lat="47.05215" lon="5.71388">
        <ele>269</ele>
        <time>2013-07-12T15:07:27Z</time>
      </trkpt>
      <trkpt lat="47.05224" lon="5.71385">
        <ele>269</ele>
        <time>2013-07-12T15:07:28Z</time>
      </trkpt>
      <trkpt lat="47.05241" lon="5.71381">
        <ele>269</ele>
        <time>2013-07-12T15:07:30Z</time>
      </trkpt>
      <trkpt lat="47.0525" lon="5.71379">
        <ele>269</ele>
        <time>2013-07-12T15:07:31Z</time>
      </trkpt>
      <trkpt lat="47.05268" lon="5.71373">
        <ele>269</ele>
        <time>2013-07-12T15:07:33Z</time>
      </trkpt>
      <trkpt lat="47.05277" lon="5.71371">
        <ele>269</ele>
        <time>2013-07-12T15:07:34Z</time>
      </trkpt>
      <trkpt lat="47.05295" lon="5.71366">
        <ele>269</ele>
        <time>2013-07-12T15:07:36Z</time>
      </trkpt>
      <trkpt lat="47.05311" lon="5.71363">
        <ele>263</ele>
        <time>2013-07-12T15:07:38Z</time>
      </trkpt>
      <trkpt lat="47.05326" lon="5.71362">
        <ele>263</ele>
        <time>2013-07-12T15:07:40Z</time>
      </trkpt>
      <trkpt lat="47.05341" lon="5.7136">
        <ele>256</ele>
        <time>2013-07-12T15:07:42Z</time>
      </trkpt>
      <trkpt lat="47.05357" lon="5.71358">
        <ele>256</ele>
        <time>2013-07-12T15:07:44Z</time>
      </trkpt>
      <trkpt lat="47.05371" lon="5.71353">
        <ele>256</ele>
        <time>2013-07-12T15:07:46Z</time>
      </trkpt>
      <trkpt lat="47.05387" lon="5.71347">
        <ele>256</ele>
        <time>2013-07-12T15:07:48Z</time>
      </trkpt>
      <trkpt lat="47.05402" lon="5.71343">
        <ele>256</ele>
        <time>2013-07-12T15:07:50Z</time>
      </trkpt>
      <trkpt lat="47.05416" lon="5.71339">
        <ele>256</ele>
        <time>2013-07-12T15:07:52Z</time>
      </trkpt>
      <trkpt lat="47.05428" lon="5.71335">
        <ele>266</ele>
        <time>2013-07-12T15:07:54Z</time>
      </trkpt>
      <trkpt lat="47.05441" lon="5.71332">
        <ele>266</ele>
        <time>2013-07-12T15:07:56Z</time>
      </trkpt>
      <trkpt lat="47.05452" lon="5.71329">
        <ele>275</ele>
        <time>2013-07-12T15:07:58Z</time>
      </trkpt>
      <trkpt lat="47.05463" lon="5.71327">
        <ele>275</ele>
        <time>2013-07-12T15:08:00Z</time>
      </trkpt>
      <trkpt lat="47.05474" lon="5.71324">
        <ele>281</ele>
        <time>2013-07-12T15:08:02Z</time>
      </trkpt>
      <trkpt lat="47.05486" lon="5.71321">
        <ele>281</ele>
        <time>2013-07-12T15:08:04Z</time>
      </trkpt>
      <trkpt lat="47.05498" lon="5.7132">
        <ele>281</ele>
        <time>2013-07-12T15:08:06Z</time>
      </trkpt>
      <trkpt lat="47.0551" lon="5.71318">
        <ele>281</ele>
        <time>2013-07-12T15:08:08Z</time>
      </trkpt>
      <trkpt lat="47.05522" lon="5.71316">
        <ele>281</ele>
        <time>2013-07-12T15:08:10Z</time>
      </trkpt>
      <trkpt lat="47.05533" lon="5.71312">
        <ele>281</ele>
        <time>2013-07-12T15:08:12Z</time>
      </trkpt>
      <trkpt lat="47.05544" lon="5.71309">
        <ele>281</ele>
        <time>2013-07-12T15:08:14Z</time>
      </trkpt>
      <trkpt lat="47.05555" lon="5.71305">
        <ele>281</ele>
        <time>2013-07-12T15:08:16Z</time>
      </trkpt>
      <trkpt lat="47.05566" lon="5.71302">
        <ele>281</ele>
        <time>2013-07-12T15:08:18Z</time>
      </trkpt>
      <trkpt lat="47.05577" lon="5.71299">
        <ele>281</ele>
        <time>2013-07-12T15:08:20Z</time>
      </trkpt>
      <trkpt lat="47.05587" lon="5.71296">
        <ele>276</ele>
        <time>2013-07-12T15:08:22Z</time>
      </trkpt>
      <trkpt lat="47.05598" lon="5.71294">
        <ele>276</ele>
        <time>2013-07-12T15:08:24Z</time>
      </trkpt>
      <trkpt lat="47.05609" lon="5.7129">
        <ele>276</ele>
        <time>2013-07-12T15:08:26Z</time>
      </trkpt>
      <trkpt lat="47.0562" lon="5.71287">
        <ele>276</ele>
        <time>2013-07-12T15:08:28Z</time>
      </trkpt>
      <trkpt lat="47.0563" lon="5.71286">
        <ele>276</ele>
        <time>2013-07-12T15:08:30Z</time>
      </trkpt>
      <trkpt lat="47.05641" lon="5.71285">
        <ele>276</ele>
        <time>2013-07-12T15:08:32Z</time>
      </trkpt>
      <trkpt lat="47.05652" lon="5.71283">
        <ele>276</ele>
        <time>2013-07-12T15:08:34Z</time>
      </trkpt>
      <trkpt lat="47.05664" lon="5.71279">
        <ele>276</ele>
        <time>2013-07-12T15:08:36Z</time>
      </trkpt>
      <trkpt lat="47.05675" lon="5.71276">
        <ele>270</ele>
        <time>2013-07-12T15:08:38Z</time>
      </trkpt>
      <trkpt lat="47.05688" lon="5.71273">
        <ele>270</ele>
        <time>2013-07-12T15:08:40Z</time>
      </trkpt>
      <trkpt lat="47.057" lon="5.7127">
        <ele>270</ele>
        <time>2013-07-12T15:08:42Z</time>
      </trkpt>
      <trkpt lat="47.05713" lon="5.71268">
        <ele>270</ele>
        <time>2013-07-12T15:08:44Z</time>
      </trkpt>
      <trkpt lat="47.05726" lon="5.71264">
        <ele>270</ele>
        <time>2013-07-12T15:08:46Z</time>
      </trkpt>
      <trkpt lat="47.05739" lon="5.7126">
        <ele>270</ele>
        <time>2013-07-12T15:08:48Z</time>
      </trkpt>
      <trkpt lat="47.05752" lon="5.71256">
        <ele>270</ele>
        <time>2013-07-12T15:08:50Z</time>
      </trkpt>
      <trkpt lat="47.05764" lon="5.71252">
        <ele>270</ele>
        <time>2013-07-12T15:08:52Z</time>
      </trkpt>
      <trkpt lat="47.05778" lon="5.71249">
        <ele>276</ele>
        <time>2013-07-12T15:08:54Z</time>
      </trkpt>
      <trkpt lat="47.05791" lon="5.71245">
        <ele>276</ele>
        <time>2013-07-12T15:08:56Z</time>
      </trkpt>
      <trkpt lat="47.05804" lon="5.71241">
        <ele>282</ele>
        <time>2013-07-12T15:08:58Z</time>
      </trkpt>
      <trkpt lat="47.05816" lon="5.71237">
        <ele>282</ele>
        <time>2013-07-12T15:09:00Z</time>
      </trkpt>
      <trkpt lat="47.05829" lon="5.71235">
        <ele>282</ele>
        <time>2013-07-12T15:09:02Z</time>
      </trkpt>
      <trkpt lat="47.0584" lon="5.71233">
        <ele>282</ele>
        <time>2013-07-12T15:09:04Z</time>
      </trkpt>
      <trkpt lat="47.05851" lon="5.71233">
        <ele>282</ele>
        <time>2013-07-12T15:09:06Z</time>
      </trkpt>
      <trkpt lat="47.05863" lon="5.71232">
        <ele>282</ele>
        <time>2013-07-12T15:09:08Z</time>
      </trkpt>
      <trkpt lat="47.05874" lon="5.7123">
        <ele>282</ele>
        <time>2013-07-12T15:09:10Z</time>
      </trkpt>
      <trkpt lat="47.05885" lon="5.71227">
        <ele>282</ele>
        <time>2013-07-12T15:09:12Z</time>
      </trkpt>
      <trkpt lat="47.05896" lon="5.71223">
        <ele>282</ele>
        <time>2013-07-12T15:09:14Z</time>
      </trkpt>
      <trkpt lat="47.05907" lon="5.71222">
        <ele>282</ele>
        <time>2013-07-12T15:09:16Z</time>
      </trkpt>
      <trkpt lat="47.05918" lon="5.7122">
        <ele>282</ele>
        <time>2013-07-12T15:09:18Z</time>
      </trkpt>
      <trkpt lat="47.05929" lon="5.71217">
        <ele>282</ele>
        <time>2013-07-12T15:09:20Z</time>
      </trkpt>
      <trkpt lat="47.0594" lon="5.71214">
        <ele>282</ele>
        <time>2013-07-12T15:09:22Z</time>
      </trkpt>
      <trkpt lat="47.05952" lon="5.7121">
        <ele>282</ele>
        <time>2013-07-12T15:09:24Z</time>
      </trkpt>
      <trkpt lat="47.05962" lon="5.71207">
        <ele>282</ele>
        <time>2013-07-12T15:09:26Z</time>
      </trkpt>
      <trkpt lat="47.05973" lon="5.71204">
        <ele>282</ele>
        <time>2013-07-12T15:09:28Z</time>
      </trkpt>
      <trkpt lat="47.05984" lon="5.71201">
        <ele>282</ele>
        <time>2013-07-12T15:09:30Z</time>
      </trkpt>
      <trkpt lat="47.05995" lon="5.71198">
        <ele>282</ele>
        <time>2013-07-12T15:09:32Z</time>
      </trkpt>
      <trkpt lat="47.06006" lon="5.71195">
        <ele>282</ele>
        <time>2013-07-12T15:09:34Z</time>
      </trkpt>
      <trkpt lat="47.06018" lon="5.71192">
        <ele>282</ele>
        <time>2013-07-12T15:09:36Z</time>
      </trkpt>
      <trkpt lat="47.06029" lon="5.71189">
        <ele>277</ele>
        <time>2013-07-12T15:09:38Z</time>
      </trkpt>
      <trkpt lat="47.06039" lon="5.71188">
        <ele>277</ele>
        <time>2013-07-12T15:09:40Z</time>
      </trkpt>
      <trkpt lat="47.0605" lon="5.71186">
        <ele>277</ele>
        <time>2013-07-12T15:09:42Z</time>
      </trkpt>
      <trkpt lat="47.06062" lon="5.71182">
        <ele>277</ele>
        <time>2013-07-12T15:09:44Z</time>
      </trkpt>
      <trkpt lat="47.06074" lon="5.71179">
        <ele>271</ele>
        <time>2013-07-12T15:09:46Z</time>
      </trkpt>
      <trkpt lat="47.06085" lon="5.71176">
        <ele>271</ele>
        <time>2013-07-12T15:09:48Z</time>
      </trkpt>
      <trkpt lat="47.06096" lon="5.71173">
        <ele>271</ele>
        <time>2013-07-12T15:09:50Z</time>
      </trkpt>
      <trkpt lat="47.06107" lon="5.7117">
        <ele>271</ele>
        <time>2013-07-12T15:09:52Z</time>
      </trkpt>
      <trkpt lat="47.06118" lon="5.71167">
        <ele>271</ele>
        <time>2013-07-12T15:09:54Z</time>
      </trkpt>
      <trkpt lat="47.06131" lon="5.71163">
        <ele>265</ele>
        <time>2013-07-12T15:09:56Z</time>
      </trkpt>
      <trkpt lat="47.06143" lon="5.7116">
        <ele>265</ele>
        <time>2013-07-12T15:09:58Z</time>
      </trkpt>
      <trkpt lat="47.06155" lon="5.71157">
        <ele>265</ele>
        <time>2013-07-12T15:10:00Z</time>
      </trkpt>
      <trkpt lat="47.06166" lon="5.71154">
        <ele>265</ele>
        <time>2013-07-12T15:10:02Z</time>
      </trkpt>
      <trkpt lat="47.06178" lon="5.7115">
        <ele>265</ele>
        <time>2013-07-12T15:10:04Z</time>
      </trkpt>
      <trkpt lat="47.0619" lon="5.71148">
        <ele>265</ele>
        <time>2013-07-12T15:10:06Z</time>
      </trkpt>
      <trkpt lat="47.06202" lon="5.71145">
        <ele>265</ele>
        <time>2013-07-12T15:10:08Z</time>
      </trkpt>
      <trkpt lat="47.06214" lon="5.71141">
        <ele>265</ele>
        <time>2013-07-12T15:10:10Z</time>
      </trkpt>
      <trkpt lat="47.06226" lon="5.71139">
        <ele>272</ele>
        <time>2013-07-12T15:10:12Z</time>
      </trkpt>
      <trkpt lat="47.06237" lon="5.71138">
        <ele>272</ele>
        <time>2013-07-12T15:10:14Z</time>
      </trkpt>
      <trkpt lat="47.06248" lon="5.71136">
        <ele>272</ele>
        <time>2013-07-12T15:10:16Z</time>
      </trkpt>
      <trkpt lat="47.0626" lon="5.71131">
        <ele>278</ele>
        <time>2013-07-12T15:10:18Z</time>
      </trkpt>
      <trkpt lat="47.06271" lon="5.71128">
        <ele>278</ele>
        <time>2013-07-12T15:10:20Z</time>
      </trkpt>
      <trkpt lat="47.06284" lon="5.71124">
        <ele>278</ele>
        <time>2013-07-12T15:10:22Z</time>
      </trkpt>
      <trkpt lat="47.06296" lon="5.71119">
        <ele>278</ele>
        <time>2013-07-12T15:10:24Z</time>
      </trkpt>
      <trkpt lat="47.06308" lon="5.71117">
        <ele>278</ele>
        <time>2013-07-12T15:10:26Z</time>
      </trkpt>
      <trkpt lat="47.06319" lon="5.71115">
        <ele>278</ele>
        <time>2013-07-12T15:10:28Z</time>
      </trkpt>
      <trkpt lat="47.06331" lon="5.71111">
        <ele>284</ele>
        <time>2013-07-12T15:10:30Z</time>
      </trkpt>
      <trkpt lat="47.06343" lon="5.71108">
        <ele>284</ele>
        <time>2013-07-12T15:10:32Z</time>
      </trkpt>
      <trkpt lat="47.06354" lon="5.71107">
        <ele>284</ele>
        <time>2013-07-12T15:10:34Z</time>
      </trkpt>
      <trkpt lat="47.06366" lon="5.71104">
        <ele>284</ele>
        <time>2013-07-12T15:10:36Z</time>
      </trkpt>
      <trkpt lat="47.06378" lon="5.71101">
        <ele>284</ele>
        <time>2013-07-12T15:10:38Z</time>
      </trkpt>
      <trkpt lat="47.0639" lon="5.71099">
        <ele>284</ele>
        <time>2013-07-12T15:10:40Z</time>
      </trkpt>
      <trkpt lat="47.06402" lon="5.71098">
        <ele>279</ele>
        <time>2013-07-12T15:10:42Z</time>
      </trkpt>
      <trkpt lat="47.06415" lon="5.71093">
        <ele>279</ele>
        <time>2013-07-12T15:10:44Z</time>
      </trkpt>
      <trkpt lat="47.06428" lon="5.71091">
        <ele>279</ele>
        <time>2013-07-12T15:10:46Z</time>
      </trkpt>
      <trkpt lat="47.0644" lon="5.71088">
        <ele>285</ele>
        <time>2013-07-12T15:10:48Z</time>
      </trkpt>
      <trkpt lat="47.06452" lon="5.71087">
        <ele>285</ele>
        <time>2013-07-12T15:10:50Z</time>
      </trkpt>
      <trkpt lat="47.06466" lon="5.71083">
        <ele>285</ele>
        <time>2013-07-12T15:10:52Z</time>
      </trkpt>
      <trkpt lat="47.06479" lon="5.71081">
        <ele>285</ele>
        <time>2013-07-12T15:10:54Z</time>
      </trkpt>
      <trkpt lat="47.06492" lon="5.71077">
        <ele>291</ele>
        <time>2013-07-12T15:10:56Z</time>
      </trkpt>
      <trkpt lat="47.06506" lon="5.71072">
        <ele>291</ele>
        <time>2013-07-12T15:10:58Z</time>
      </trkpt>
      <trkpt lat="47.06521" lon="5.71066">
        <ele>291</ele>
        <time>2013-07-12T15:11:00Z</time>
      </trkpt>
      <trkpt lat="47.06533" lon="5.71063">
        <ele>291</ele>
        <time>2013-07-12T15:11:02Z</time>
      </trkpt>
      <trkpt lat="47.06546" lon="5.71058">
        <ele>291</ele>
        <time>2013-07-12T15:11:04Z</time>
      </trkpt>
      <trkpt lat="47.0656" lon="5.71054">
        <ele>291</ele>
        <time>2013-07-12T15:11:06Z</time>
      </trkpt>
      <trkpt lat="47.06573" lon="5.71049">
        <ele>291</ele>
        <time>2013-07-12T15:11:08Z</time>
      </trkpt>
      <trkpt lat="47.06585" lon="5.71047">
        <ele>291</ele>
        <time>2013-07-12T15:11:10Z</time>
      </trkpt>
      <trkpt lat="47.06597" lon="5.71046">
        <ele>285</ele>
        <time>2013-07-12T15:11:12Z</time>
      </trkpt>
      <trkpt lat="47.06608" lon="5.71043">
        <ele>285</ele>
        <time>2013-07-12T15:11:14Z</time>
      </trkpt>
      <trkpt lat="47.06619" lon="5.7104">
        <ele>285</ele>
        <time>2013-07-12T15:11:16Z</time>
      </trkpt>
      <trkpt lat="47.0663" lon="5.71038">
        <ele>285</ele>
        <time>2013-07-12T15:11:18Z</time>
      </trkpt>
      <trkpt lat="47.06641" lon="5.71036">
        <ele>285</ele>
        <time>2013-07-12T15:11:20Z</time>
      </trkpt>
      <trkpt lat="47.06652" lon="5.7103">
        <ele>285</ele>
        <time>2013-07-12T15:11:22Z</time>
      </trkpt>
      <trkpt lat="47.06662" lon="5.71027">
        <ele>285</ele>
        <time>2013-07-12T15:11:24Z</time>
      </trkpt>
      <trkpt lat="47.06672" lon="5.71025">
        <ele>285</ele>
        <time>2013-07-12T15:11:26Z</time>
      </trkpt>
      <trkpt lat="47.06683" lon="5.71022">
        <ele>285</ele>
        <time>2013-07-12T15:11:29Z</time>
      </trkpt>
      <trkpt lat="47.06674" lon="5.71019">
        <ele>272</ele>
        <time>2013-07-12T15:12:02Z</time>
      </trkpt>
      <trkpt lat="47.06665" lon="5.71021">
        <ele>260</ele>
        <time>2013-07-12T15:13:01Z</time>
      </trkpt>
      <trkpt lat="47.06675" lon="5.71021">
        <ele>252</ele>
        <time>2013-07-12T15:13:15Z</time>
      </trkpt>
      <trkpt lat="47.06684" lon="5.71022">
        <ele>262</ele>
        <time>2013-07-12T15:13:29Z</time>
      </trkpt>
      <trkpt lat="47.06694" lon="5.71021">
        <ele>267</ele>
        <time>2013-07-12T15:14:17Z</time>
      </trkpt>
      <trkpt lat="47.06684" lon="5.71019">
        <ele>253</ele>
        <time>2013-07-12T15:14:31Z</time>
      </trkpt>
      <trkpt lat="47.06695" lon="5.71017">
        <ele>253</ele>
        <time>2013-07-12T15:14:44Z</time>
      </trkpt>
      <trkpt lat="47.06705" lon="5.71014">
        <ele>262</ele>
        <time>2013-07-12T15:14:48Z</time>
      </trkpt>
      <trkpt lat="47.06716" lon="5.71011">
        <ele>262</ele>
        <time>2013-07-12T15:14:52Z</time>
      </trkpt>
      <trkpt lat="47.06727" lon="5.71009">
        <ele>267</ele>
        <time>2013-07-12T15:14:56Z</time>
      </trkpt>
      <trkpt lat="47.06738" lon="5.71003">
        <ele>267</ele>
        <time>2013-07-12T15:15:00Z</time>
      </trkpt>
      <trkpt lat="47.06748" lon="5.71001">
        <ele>267</ele>
        <time>2013-07-12T15:15:04Z</time>
      </trkpt>
      <trkpt lat="47.06759" lon="5.70998">
        <ele>278</ele>
        <time>2013-07-12T15:15:07Z</time>
      </trkpt>
      <trkpt lat="47.06771" lon="5.70994">
        <ele>284</ele>
        <time>2013-07-12T15:15:10Z</time>
      </trkpt>
      <trkpt lat="47.06783" lon="5.70989">
        <ele>284</ele>
        <time>2013-07-12T15:15:13Z</time>
      </trkpt>
      <trkpt lat="47.06795" lon="5.70988">
        <ele>284</ele>
        <time>2013-07-12T15:15:16Z</time>
      </trkpt>
      <trkpt lat="47.06806" lon="5.7099">
        <ele>284</ele>
        <time>2013-07-12T15:15:19Z</time>
      </trkpt>
      <trkpt lat="47.06818" lon="5.70984">
        <ele>284</ele>
        <time>2013-07-12T15:15:22Z</time>
      </trkpt>
      <trkpt lat="47.06827" lon="5.70979">
        <ele>284</ele>
        <time>2013-07-12T15:15:24Z</time>
      </trkpt>
      <trkpt lat="47.06837" lon="5.70977">
        <ele>284</ele>
        <time>2013-07-12T15:15:26Z</time>
      </trkpt>
      <trkpt lat="47.06846" lon="5.70975">
        <ele>284</ele>
        <time>2013-07-12T15:15:28Z</time>
      </trkpt>
      <trkpt lat="47.06855" lon="5.70973">
        <ele>284</ele>
        <time>2013-07-12T15:15:30Z</time>
      </trkpt>
      <trkpt lat="47.06864" lon="5.7097">
        <ele>284</ele>
        <time>2013-07-12T15:15:32Z</time>
      </trkpt>
      <trkpt lat="47.06873" lon="5.70968">
        <ele>284</ele>
        <time>2013-07-12T15:15:34Z</time>
      </trkpt>
      <trkpt lat="47.06883" lon="5.70966">
        <ele>284</ele>
        <time>2013-07-12T15:15:36Z</time>
      </trkpt>
      <trkpt lat="47.06894" lon="5.70965">
        <ele>284</ele>
        <time>2013-07-12T15:15:38Z</time>
      </trkpt>
      <trkpt lat="47.06904" lon="5.70963">
        <ele>284</ele>
        <time>2013-07-12T15:15:40Z</time>
      </trkpt>
      <trkpt lat="47.06915" lon="5.7096">
        <ele>284</ele>
        <time>2013-07-12T15:15:42Z</time>
      </trkpt>
      <trkpt lat="47.06926" lon="5.70958">
        <ele>284</ele>
        <time>2013-07-12T15:15:44Z</time>
      </trkpt>
      <trkpt lat="47.06937" lon="5.70955">
        <ele>284</ele>
        <time>2013-07-12T15:15:46Z</time>
      </trkpt>
      <trkpt lat="47.06948" lon="5.70953">
        <ele>277</ele>
        <time>2013-07-12T15:15:48Z</time>
      </trkpt>
      <trkpt lat="47.06959" lon="5.70952">
        <ele>277</ele>
        <time>2013-07-12T15:15:50Z</time>
      </trkpt>
      <trkpt lat="47.06973" lon="5.70949">
        <ele>277</ele>
        <time>2013-07-12T15:15:52Z</time>
      </trkpt>
      <trkpt lat="47.06986" lon="5.70947">
        <ele>277</ele>
        <time>2013-07-12T15:15:54Z</time>
      </trkpt>
      <trkpt lat="47.07001" lon="5.70942">
        <ele>277</ele>
        <time>2013-07-12T15:15:56Z</time>
      </trkpt>
      <trkpt lat="47.07015" lon="5.70939">
        <ele>277</ele>
        <time>2013-07-12T15:15:58Z</time>
      </trkpt>
      <trkpt lat="47.07029" lon="5.70934">
        <ele>277</ele>
        <time>2013-07-12T15:16:00Z</time>
      </trkpt>
      <trkpt lat="47.07043" lon="5.70931">
        <ele>277</ele>
        <time>2013-07-12T15:16:02Z</time>
      </trkpt>
      <trkpt lat="47.07058" lon="5.70925">
        <ele>277</ele>
        <time>2013-07-12T15:16:04Z</time>
      </trkpt>
      <trkpt lat="47.07071" lon="5.70923">
        <ele>285</ele>
        <time>2013-07-12T15:16:06Z</time>
      </trkpt>
      <trkpt lat="47.07083" lon="5.70922">
        <ele>285</ele>
        <time>2013-07-12T15:16:08Z</time>
      </trkpt>
      <trkpt lat="47.07098" lon="5.70917">
        <ele>285</ele>
        <time>2013-07-12T15:16:10Z</time>
      </trkpt>
      <trkpt lat="47.0711" lon="5.70915">
        <ele>285</ele>
        <time>2013-07-12T15:16:12Z</time>
      </trkpt>
      <trkpt lat="47.07124" lon="5.70912">
        <ele>285</ele>
        <time>2013-07-12T15:16:14Z</time>
      </trkpt>
      <trkpt lat="47.07137" lon="5.70908">
        <ele>285</ele>
        <time>2013-07-12T15:16:16Z</time>
      </trkpt>
      <trkpt lat="47.07152" lon="5.70903">
        <ele>285</ele>
        <time>2013-07-12T15:16:18Z</time>
      </trkpt>
      <trkpt lat="47.07164" lon="5.70901">
        <ele>285</ele>
        <time>2013-07-12T15:16:20Z</time>
      </trkpt>
      <trkpt lat="47.07177" lon="5.70898">
        <ele>285</ele>
        <time>2013-07-12T15:16:22Z</time>
      </trkpt>
      <trkpt lat="47.0719" lon="5.70895">
        <ele>285</ele>
        <time>2013-07-12T15:16:24Z</time>
      </trkpt>
      <trkpt lat="47.07202" lon="5.70892">
        <ele>285</ele>
        <time>2013-07-12T15:16:26Z</time>
      </trkpt>
      <trkpt lat="47.07214" lon="5.70888">
        <ele>285</ele>
        <time>2013-07-12T15:16:28Z</time>
      </trkpt>
      <trkpt lat="47.07225" lon="5.70887">
        <ele>285</ele>
        <time>2013-07-12T15:16:30Z</time>
      </trkpt>
      <trkpt lat="47.07236" lon="5.70883">
        <ele>285</ele>
        <time>2013-07-12T15:16:32Z</time>
      </trkpt>
      <trkpt lat="47.07247" lon="5.7088">
        <ele>285</ele>
        <time>2013-07-12T15:16:34Z</time>
      </trkpt>
      <trkpt lat="47.07258" lon="5.70878">
        <ele>285</ele>
        <time>2013-07-12T15:16:36Z</time>
      </trkpt>
      <trkpt lat="47.07269" lon="5.70875">
        <ele>285</ele>
        <time>2013-07-12T15:16:38Z</time>
      </trkpt>
      <trkpt lat="47.0728" lon="5.70874">
        <ele>285</ele>
        <time>2013-07-12T15:16:40Z</time>
      </trkpt>
      <trkpt lat="47.07291" lon="5.70872">
        <ele>280</ele>
        <time>2013-07-12T15:16:42Z</time>
      </trkpt>
      <trkpt lat="47.07301" lon="5.7087">
        <ele>280</ele>
        <time>2013-07-12T15:16:44Z</time>
      </trkpt>
      <trkpt lat="47.07312" lon="5.70866">
        <ele>280</ele>
        <time>2013-07-12T15:16:46Z</time>
      </trkpt>
      <trkpt lat="47.07322" lon="5.70864">
        <ele>280</ele>
        <time>2013-07-12T15:16:48Z</time>
      </trkpt>
      <trkpt lat="47.07335" lon="5.7086">
        <ele>285</ele>
        <time>2013-07-12T15:16:51Z</time>
      </trkpt>
      <trkpt lat="47.07349" lon="5.70858">
        <ele>285</ele>
        <time>2013-07-12T15:16:54Z</time>
      </trkpt>
      <trkpt lat="47.07358" lon="5.70857">
        <ele>285</ele>
        <time>2013-07-12T15:16:56Z</time>
      </trkpt>
      <trkpt lat="47.07368" lon="5.70856">
        <ele>285</ele>
        <time>2013-07-12T15:16:58Z</time>
      </trkpt>
      <trkpt lat="47.07379" lon="5.70852">
        <ele>285</ele>
        <time>2013-07-12T15:17:00Z</time>
      </trkpt>
      <trkpt lat="47.0739" lon="5.70849">
        <ele>285</ele>
        <time>2013-07-12T15:17:02Z</time>
      </trkpt>
      <trkpt lat="47.07401" lon="5.70845">
        <ele>285</ele>
        <time>2013-07-12T15:17:04Z</time>
      </trkpt>
      <trkpt lat="47.07411" lon="5.70843">
        <ele>285</ele>
        <time>2013-07-12T15:17:06Z</time>
      </trkpt>
      <trkpt lat="47.07422" lon="5.70838">
        <ele>285</ele>
        <time>2013-07-12T15:17:08Z</time>
      </trkpt>
      <trkpt lat="47.07434" lon="5.70836">
        <ele>285</ele>
        <time>2013-07-12T15:17:10Z</time>
      </trkpt>
      <trkpt lat="47.07445" lon="5.70832">
        <ele>285</ele>
        <time>2013-07-12T15:17:12Z</time>
      </trkpt>
      <trkpt lat="47.07456" lon="5.70829">
        <ele>285</ele>
        <time>2013-07-12T15:17:14Z</time>
      </trkpt>
      <trkpt lat="47.07469" lon="5.70828">
        <ele>285</ele>
        <time>2013-07-12T15:17:16Z</time>
      </trkpt>
      <trkpt lat="47.07482" lon="5.70826">
        <ele>285</ele>
        <time>2013-07-12T15:17:18Z</time>
      </trkpt>
      <trkpt lat="47.07496" lon="5.70821">
        <ele>285</ele>
        <time>2013-07-12T15:17:20Z</time>
      </trkpt>
      <trkpt lat="47.07509" lon="5.70817">
        <ele>285</ele>
        <time>2013-07-12T15:17:22Z</time>
      </trkpt>
      <trkpt lat="47.07522" lon="5.70814">
        <ele>285</ele>
        <time>2013-07-12T15:17:24Z</time>
      </trkpt>
      <trkpt lat="47.07535" lon="5.70809">
        <ele>285</ele>
        <time>2013-07-12T15:17:26Z</time>
      </trkpt>
      <trkpt lat="47.07549" lon="5.70806">
        <ele>285</ele>
        <time>2013-07-12T15:17:28Z</time>
      </trkpt>
      <trkpt lat="47.07562" lon="5.70805">
        <ele>276</ele>
        <time>2013-07-12T15:17:30Z</time>
      </trkpt>
      <trkpt lat="47.07576" lon="5.70802">
        <ele>276</ele>
        <time>2013-07-12T15:17:32Z</time>
      </trkpt>
      <trkpt lat="47.07588" lon="5.708">
        <ele>270</ele>
        <time>2013-07-12T15:17:34Z</time>
      </trkpt>
      <trkpt lat="47.07603" lon="5.70798">
        <ele>270</ele>
        <time>2013-07-12T15:17:36Z</time>
      </trkpt>
      <trkpt lat="47.07617" lon="5.70793">
        <ele>270</ele>
        <time>2013-07-12T15:17:38Z</time>
      </trkpt>
      <trkpt lat="47.07631" lon="5.70789">
        <ele>270</ele>
        <time>2013-07-12T15:17:40Z</time>
      </trkpt>
      <trkpt lat="47.07646" lon="5.70783">
        <ele>270</ele>
        <time>2013-07-12T15:17:42Z</time>
      </trkpt>
      <trkpt lat="47.07661" lon="5.7078">
        <ele>270</ele>
        <time>2013-07-12T15:17:44Z</time>
      </trkpt>
      <trkpt lat="47.07675" lon="5.70775">
        <ele>277</ele>
        <time>2013-07-12T15:17:46Z</time>
      </trkpt>
      <trkpt lat="47.07688" lon="5.70771">
        <ele>277</ele>
        <time>2013-07-12T15:17:48Z</time>
      </trkpt>
      <trkpt lat="47.07702" lon="5.70765">
        <ele>283</ele>
        <time>2013-07-12T15:17:50Z</time>
      </trkpt>
      <trkpt lat="47.07714" lon="5.70762">
        <ele>283</ele>
        <time>2013-07-12T15:17:52Z</time>
      </trkpt>
      <trkpt lat="47.07727" lon="5.70759">
        <ele>283</ele>
        <time>2013-07-12T15:17:54Z</time>
      </trkpt>
      <trkpt lat="47.07739" lon="5.70756">
        <ele>283</ele>
        <time>2013-07-12T15:17:56Z</time>
      </trkpt>
      <trkpt lat="47.07754" lon="5.70754">
        <ele>283</ele>
        <time>2013-07-12T15:17:58Z</time>
      </trkpt>
      <trkpt lat="47.07768" lon="5.7075">
        <ele>283</ele>
        <time>2013-07-12T15:18:00Z</time>
      </trkpt>
      <trkpt lat="47.07782" lon="5.70747">
        <ele>283</ele>
        <time>2013-07-12T15:18:02Z</time>
      </trkpt>
      <trkpt lat="47.07797" lon="5.70745">
        <ele>283</ele>
        <time>2013-07-12T15:18:04Z</time>
      </trkpt>
      <trkpt lat="47.07813" lon="5.70741">
        <ele>276</ele>
        <time>2013-07-12T15:18:06Z</time>
      </trkpt>
      <trkpt lat="47.07828" lon="5.70738">
        <ele>276</ele>
        <time>2013-07-12T15:18:08Z</time>
      </trkpt>
      <trkpt lat="47.07846" lon="5.70734">
        <ele>276</ele>
        <time>2013-07-12T15:18:10Z</time>
      </trkpt>
      <trkpt lat="47.07861" lon="5.7073">
        <ele>276</ele>
        <time>2013-07-12T15:18:12Z</time>
      </trkpt>
      <trkpt lat="47.07877" lon="5.70727">
        <ele>269</ele>
        <time>2013-07-12T15:18:14Z</time>
      </trkpt>
      <trkpt lat="47.07893" lon="5.7072">
        <ele>269</ele>
        <time>2013-07-12T15:18:16Z</time>
      </trkpt>
      <trkpt lat="47.07911" lon="5.70714">
        <ele>269</ele>
        <time>2013-07-12T15:18:18Z</time>
      </trkpt>
      <trkpt lat="47.0792" lon="5.70711">
        <ele>269</ele>
        <time>2013-07-12T15:18:19Z</time>
      </trkpt>
      <trkpt lat="47.0793" lon="5.7071">
        <ele>274</ele>
        <time>2013-07-12T15:18:20Z</time>
      </trkpt>
      <trkpt lat="47.07939" lon="5.70708">
        <ele>274</ele>
        <time>2013-07-12T15:18:21Z</time>
      </trkpt>
      <trkpt lat="47.07948" lon="5.70707">
        <ele>274</ele>
        <time>2013-07-12T15:18:22Z</time>
      </trkpt>
      <trkpt lat="47.07957" lon="5.70704">
        <ele>274</ele>
        <time>2013-07-12T15:18:23Z</time>
      </trkpt>
      <trkpt lat="47.07967" lon="5.70702">
        <ele>274</ele>
        <time>2013-07-12T15:18:24Z</time>
      </trkpt>
      <trkpt lat="47.07983" lon="5.70699">
        <ele>274</ele>
        <time>2013-07-12T15:18:26Z</time>
      </trkpt>
      <trkpt lat="47.07999" lon="5.70697">
        <ele>274</ele>
        <time>2013-07-12T15:18:28Z</time>
      </trkpt>
      <trkpt lat="47.08016" lon="5.70693">
        <ele>268</ele>
        <time>2013-07-12T15:18:30Z</time>
      </trkpt>
      <trkpt lat="47.08034" lon="5.70691">
        <ele>268</ele>
        <time>2013-07-12T15:18:32Z</time>
      </trkpt>
      <trkpt lat="47.08044" lon="5.70688">
        <ele>268</ele>
        <time>2013-07-12T15:18:33Z</time>
      </trkpt>
      <trkpt lat="47.08054" lon="5.70685">
        <ele>268</ele>
        <time>2013-07-12T15:18:34Z</time>
      </trkpt>
      <trkpt lat="47.08065" lon="5.70682">
        <ele>268</ele>
        <time>2013-07-12T15:18:35Z</time>
      </trkpt>
      <trkpt lat="47.08075" lon="5.70679">
        <ele>268</ele>
        <time>2013-07-12T15:18:36Z</time>
      </trkpt>
      <trkpt lat="47.08085" lon="5.70675">
        <ele>268</ele>
        <time>2013-07-12T15:18:37Z</time>
      </trkpt>
      <trkpt lat="47.08094" lon="5.70673">
        <ele>268</ele>
        <time>2013-07-12T15:18:38Z</time>
      </trkpt>
      <trkpt lat="47.08111" lon="5.70669">
        <ele>268</ele>
        <time>2013-07-12T15:18:40Z</time>
      </trkpt>
      <trkpt lat="47.08125" lon="5.70668">
        <ele>268</ele>
        <time>2013-07-12T15:18:42Z</time>
      </trkpt>
      <trkpt lat="47.0814" lon="5.70667">
        <ele>260</ele>
        <time>2013-07-12T15:18:44Z</time>
      </trkpt>
      <trkpt lat="47.08156" lon="5.70663">
        <ele>260</ele>
        <time>2013-07-12T15:18:46Z</time>
      </trkpt>
      <trkpt lat="47.0817" lon="5.7066">
        <ele>260</ele>
        <time>2013-07-12T15:18:48Z</time>
      </trkpt>
      <trkpt lat="47.08183" lon="5.70657">
        <ele>260</ele>
        <time>2013-07-12T15:18:50Z</time>
      </trkpt>
      <trkpt lat="47.08197" lon="5.70653">
        <ele>260</ele>
        <time>2013-07-12T15:18:52Z</time>
      </trkpt>
      <trkpt lat="47.0821" lon="5.7065">
        <ele>260</ele>
        <time>2013-07-12T15:18:54Z</time>
      </trkpt>
      <trkpt lat="47.08223" lon="5.70648">
        <ele>260</ele>
        <time>2013-07-12T15:18:56Z</time>
      </trkpt>
      <trkpt lat="47.08236" lon="5.70644">
        <ele>260</ele>
        <time>2013-07-12T15:18:58Z</time>
      </trkpt>
      <trkpt lat="47.08249" lon="5.7064">
        <ele>260</ele>
        <time>2013-07-12T15:19:00Z</time>
      </trkpt>
      <trkpt lat="47.08262" lon="5.70637">
        <ele>260</ele>
        <time>2013-07-12T15:19:02Z</time>
      </trkpt>
      <trkpt lat="47.08275" lon="5.70634">
        <ele>260</ele>
        <time>2013-07-12T15:19:04Z</time>
      </trkpt>
      <trkpt lat="47.08288" lon="5.70631">
        <ele>260</ele>
        <time>2013-07-12T15:19:06Z</time>
      </trkpt>
      <trkpt lat="47.083" lon="5.70627">
        <ele>260</ele>
        <time>2013-07-12T15:19:08Z</time>
      </trkpt>
      <trkpt lat="47.08313" lon="5.70623">
        <ele>260</ele>
        <time>2013-07-12T15:19:10Z</time>
      </trkpt>
      <trkpt lat="47.08325" lon="5.7062">
        <ele>260</ele>
        <time>2013-07-12T15:19:12Z</time>
      </trkpt>
      <trkpt lat="47.08337" lon="5.70617">
        <ele>260</ele>
        <time>2013-07-12T15:19:14Z</time>
      </trkpt>
      <trkpt lat="47.08348" lon="5.70614">
        <ele>260</ele>
        <time>2013-07-12T15:19:16Z</time>
      </trkpt>
      <trkpt lat="47.08359" lon="5.70612">
        <ele>260</ele>
        <time>2013-07-12T15:19:18Z</time>
      </trkpt>
      <trkpt lat="47.0837" lon="5.70609">
        <ele>260</ele>
        <time>2013-07-12T15:19:20Z</time>
      </trkpt>
      <trkpt lat="47.08381" lon="5.70606">
        <ele>260</ele>
        <time>2013-07-12T15:19:22Z</time>
      </trkpt>
      <trkpt lat="47.08392" lon="5.70601">
        <ele>266</ele>
        <time>2013-07-12T15:19:24Z</time>
      </trkpt>
      <trkpt lat="47.08404" lon="5.70596">
        <ele>266</ele>
        <time>2013-07-12T15:19:26Z</time>
      </trkpt>
      <trkpt lat="47.08416" lon="5.70593">
        <ele>271</ele>
        <time>2013-07-12T15:19:28Z</time>
      </trkpt>
      <trkpt lat="47.08429" lon="5.70587">
        <ele>271</ele>
        <time>2013-07-12T15:19:30Z</time>
      </trkpt>
      <trkpt lat="47.08441" lon="5.70586">
        <ele>271</ele>
        <time>2013-07-12T15:19:32Z</time>
      </trkpt>
      <trkpt lat="47.08453" lon="5.70582">
        <ele>277</ele>
        <time>2013-07-12T15:19:34Z</time>
      </trkpt>
      <trkpt lat="47.08468" lon="5.70578">
        <ele>277</ele>
        <time>2013-07-12T15:19:36Z</time>
      </trkpt>
      <trkpt lat="47.08483" lon="5.70575">
        <ele>277</ele>
        <time>2013-07-12T15:19:38Z</time>
      </trkpt>
      <trkpt lat="47.08497" lon="5.70573">
        <ele>277</ele>
        <time>2013-07-12T15:19:40Z</time>
      </trkpt>
      <trkpt lat="47.08512" lon="5.70569">
        <ele>277</ele>
        <time>2013-07-12T15:19:42Z</time>
      </trkpt>
      <trkpt lat="47.08524" lon="5.70568">
        <ele>277</ele>
        <time>2013-07-12T15:19:44Z</time>
      </trkpt>
      <trkpt lat="47.08537" lon="5.70565">
        <ele>277</ele>
        <time>2013-07-12T15:19:46Z</time>
      </trkpt>
      <trkpt lat="47.08548" lon="5.70562">
        <ele>272</ele>
        <time>2013-07-12T15:19:48Z</time>
      </trkpt>
      <trkpt lat="47.08559" lon="5.7056">
        <ele>272</ele>
        <time>2013-07-12T15:19:50Z</time>
      </trkpt>
      <trkpt lat="47.0857" lon="5.70559">
        <ele>272</ele>
        <time>2013-07-12T15:19:52Z</time>
      </trkpt>
      <trkpt lat="47.08585" lon="5.70557">
        <ele>272</ele>
        <time>2013-07-12T15:19:54Z</time>
      </trkpt>
      <trkpt lat="47.086" lon="5.70553">
        <ele>272</ele>
        <time>2013-07-12T15:19:56Z</time>
      </trkpt>
      <trkpt lat="47.08614" lon="5.70548">
        <ele>277</ele>
        <time>2013-07-12T15:19:58Z</time>
      </trkpt>
      <trkpt lat="47.08628" lon="5.70543">
        <ele>277</ele>
        <time>2013-07-12T15:20:00Z</time>
      </trkpt>
      <trkpt lat="47.08641" lon="5.70538">
        <ele>284</ele>
        <time>2013-07-12T15:20:02Z</time>
      </trkpt>
      <trkpt lat="47.08654" lon="5.70534">
        <ele>284</ele>
        <time>2013-07-12T15:20:04Z</time>
      </trkpt>
      <trkpt lat="47.08666" lon="5.70527">
        <ele>291</ele>
        <time>2013-07-12T15:20:06Z</time>
      </trkpt>
      <trkpt lat="47.08679" lon="5.70521">
        <ele>291</ele>
        <time>2013-07-12T15:20:08Z</time>
      </trkpt>
      <trkpt lat="47.08692" lon="5.70518">
        <ele>291</ele>
        <time>2013-07-12T15:20:10Z</time>
      </trkpt>
      <trkpt lat="47.08705" lon="5.70516">
        <ele>291</ele>
        <time>2013-07-12T15:20:12Z</time>
      </trkpt>
      <trkpt lat="47.08716" lon="5.70516">
        <ele>291</ele>
        <time>2013-07-12T15:20:14Z</time>
      </trkpt>
      <trkpt lat="47.08726" lon="5.70511">
        <ele>291</ele>
        <time>2013-07-12T15:20:16Z</time>
      </trkpt>
      <trkpt lat="47.08737" lon="5.70508">
        <ele>291</ele>
        <time>2013-07-12T15:20:18Z</time>
      </trkpt>
      <trkpt lat="47.08748" lon="5.70507">
        <ele>291</ele>
        <time>2013-07-12T15:20:20Z</time>
      </trkpt>
      <trkpt lat="47.08759" lon="5.70506">
        <ele>291</ele>
        <time>2013-07-12T15:20:22Z</time>
      </trkpt>
      <trkpt lat="47.08768" lon="5.70505">
        <ele>281</ele>
        <time>2013-07-12T15:20:24Z</time>
      </trkpt>
      <trkpt lat="47.08778" lon="5.70504">
        <ele>281</ele>
        <time>2013-07-12T15:20:26Z</time>
      </trkpt>
      <trkpt lat="47.08789" lon="5.70504">
        <ele>271</ele>
        <time>2013-07-12T15:20:29Z</time>
      </trkpt>
      <trkpt lat="47.08798" lon="5.705">
        <ele>261</ele>
        <time>2013-07-12T15:20:51Z</time>
      </trkpt>
      <trkpt lat="47.08798" lon="5.70486">
        <ele>261</ele>
        <time>2013-07-12T15:20:57Z</time>
      </trkpt>
      <trkpt lat="47.08794" lon="5.70472">
        <ele>261</ele>
        <time>2013-07-12T15:21:03Z</time>
      </trkpt>
      <trkpt lat="47.08792" lon="5.70459">
        <ele>261</ele>
        <time>2013-07-12T15:21:09Z</time>
      </trkpt>
      <trkpt lat="47.08789" lon="5.70445">
        <ele>261</ele>
        <time>2013-07-12T15:21:14Z</time>
      </trkpt>
      <trkpt lat="47.08786" lon="5.70431">
        <ele>261</ele>
        <time>2013-07-12T15:21:18Z</time>
      </trkpt>
      <trkpt lat="47.08781" lon="5.70416">
        <ele>261</ele>
        <time>2013-07-12T15:21:22Z</time>
      </trkpt>
      <trkpt lat="47.08778" lon="5.70403">
        <ele>261</ele>
        <time>2013-07-12T15:21:25Z</time>
      </trkpt>
      <trkpt lat="47.08775" lon="5.70391">
        <ele>261</ele>
        <time>2013-07-12T15:21:28Z</time>
      </trkpt>
      <trkpt lat="47.08772" lon="5.70375">
        <ele>261</ele>
        <time>2013-07-12T15:21:31Z</time>
      </trkpt>
      <trkpt lat="47.08768" lon="5.7036">
        <ele>261</ele>
        <time>2013-07-12T15:21:34Z</time>
      </trkpt>
      <trkpt lat="47.08764" lon="5.70343">
        <ele>261</ele>
        <time>2013-07-12T15:21:37Z</time>
      </trkpt>
      <trkpt lat="47.08761" lon="5.70325">
        <ele>261</ele>
        <time>2013-07-12T15:21:40Z</time>
      </trkpt>
      <trkpt lat="47.08758" lon="5.70313">
        <ele>261</ele>
        <time>2013-07-12T15:21:42Z</time>
      </trkpt>
      <trkpt lat="47.08756" lon="5.70298">
        <ele>261</ele>
        <time>2013-07-12T15:21:44Z</time>
      </trkpt>
      <trkpt lat="47.08753" lon="5.70284">
        <ele>261</ele>
        <time>2013-07-12T15:21:46Z</time>
      </trkpt>
      <trkpt lat="47.08749" lon="5.70269">
        <ele>261</ele>
        <time>2013-07-12T15:21:48Z</time>
      </trkpt>
      <trkpt lat="47.08746" lon="5.70254">
        <ele>261</ele>
        <time>2013-07-12T15:21:50Z</time>
      </trkpt>
      <trkpt lat="47.08742" lon="5.70238">
        <ele>261</ele>
        <time>2013-07-12T15:21:52Z</time>
      </trkpt>
      <trkpt lat="47.08738" lon="5.70223">
        <ele>261</ele>
        <time>2013-07-12T15:21:54Z</time>
      </trkpt>
      <trkpt lat="47.08734" lon="5.70206">
        <ele>261</ele>
        <time>2013-07-12T15:21:56Z</time>
      </trkpt>
      <trkpt lat="47.08729" lon="5.7019">
        <ele>261</ele>
        <time>2013-07-12T15:21:58Z</time>
      </trkpt>
      <trkpt lat="47.08724" lon="5.70174">
        <ele>268</ele>
        <time>2013-07-12T15:22:00Z</time>
      </trkpt>
      <trkpt lat="47.08721" lon="5.70156">
        <ele>268</ele>
        <time>2013-07-12T15:22:02Z</time>
      </trkpt>
      <trkpt lat="47.08716" lon="5.70138">
        <ele>268</ele>
        <time>2013-07-12T15:22:04Z</time>
      </trkpt>
      <trkpt lat="47.08713" lon="5.7012">
        <ele>268</ele>
        <time>2013-07-12T15:22:06Z</time>
      </trkpt>
      <trkpt lat="47.08708" lon="5.70102">
        <ele>268</ele>
        <time>2013-07-12T15:22:08Z</time>
      </trkpt>
      <trkpt lat="47.08705" lon="5.70084">
        <ele>268</ele>
        <time>2013-07-12T15:22:10Z</time>
      </trkpt>
      <trkpt lat="47.087" lon="5.70066">
        <ele>268</ele>
        <time>2013-07-12T15:22:12Z</time>
      </trkpt>
      <trkpt lat="47.08697" lon="5.70048">
        <ele>268</ele>
        <time>2013-07-12T15:22:14Z</time>
      </trkpt>
      <trkpt lat="47.08692" lon="5.7003">
        <ele>268</ele>
        <time>2013-07-12T15:22:16Z</time>
      </trkpt>
      <trkpt lat="47.08688" lon="5.70012">
        <ele>268</ele>
        <time>2013-07-12T15:22:18Z</time>
      </trkpt>
      <trkpt lat="47.08684" lon="5.69995">
        <ele>274</ele>
        <time>2013-07-12T15:22:20Z</time>
      </trkpt>
      <trkpt lat="47.0868" lon="5.69977">
        <ele>274</ele>
        <time>2013-07-12T15:22:22Z</time>
      </trkpt>
      <trkpt lat="47.08676" lon="5.6996">
        <ele>274</ele>
        <time>2013-07-12T15:22:24Z</time>
      </trkpt>
      <trkpt lat="47.08672" lon="5.69942">
        <ele>274</ele>
        <time>2013-07-12T15:22:26Z</time>
      </trkpt>
      <trkpt lat="47.08668" lon="5.69925">
        <ele>274</ele>
        <time>2013-07-12T15:22:28Z</time>
      </trkpt>
      <trkpt lat="47.08664" lon="5.69907">
        <ele>274</ele>
        <time>2013-07-12T15:22:30Z</time>
      </trkpt>
      <trkpt lat="47.0866" lon="5.6989">
        <ele>274</ele>
        <time>2013-07-12T15:22:32Z</time>
      </trkpt>
      <trkpt lat="47.08657" lon="5.69873">
        <ele>269</ele>
        <time>2013-07-12T15:22:34Z</time>
      </trkpt>
      <trkpt lat="47.08654" lon="5.69855">
        <ele>269</ele>
        <time>2013-07-12T15:22:36Z</time>
      </trkpt>
      <trkpt lat="47.08651" lon="5.69838">
        <ele>269</ele>
        <time>2013-07-12T15:22:38Z</time>
      </trkpt>
      <trkpt lat="47.08646" lon="5.69822">
        <ele>269</ele>
        <time>2013-07-12T15:22:40Z</time>
      </trkpt>
      <trkpt lat="47.08641" lon="5.69806">
        <ele>269</ele>
        <time>2013-07-12T15:22:42Z</time>
      </trkpt>
      <trkpt lat="47.08637" lon="5.69789">
        <ele>274</ele>
        <time>2013-07-12T15:22:44Z</time>
      </trkpt>
      <trkpt lat="47.08633" lon="5.69772">
        <ele>274</ele>
        <time>2013-07-12T15:22:46Z</time>
      </trkpt>
      <trkpt lat="47.08628" lon="5.69756">
        <ele>274</ele>
        <time>2013-07-12T15:22:48Z</time>
      </trkpt>
      <trkpt lat="47.08624" lon="5.69739">
        <ele>274</ele>
        <time>2013-07-12T15:22:50Z</time>
      </trkpt>
      <trkpt lat="47.0862" lon="5.69721">
        <ele>274</ele>
        <time>2013-07-12T15:22:52Z</time>
      </trkpt>
      <trkpt lat="47.08616" lon="5.69702">
        <ele>274</ele>
        <time>2013-07-12T15:22:54Z</time>
      </trkpt>
      <trkpt lat="47.08613" lon="5.69682">
        <ele>274</ele>
        <time>2013-07-12T15:22:56Z</time>
      </trkpt>
      <trkpt lat="47.0861" lon="5.69663">
        <ele>274</ele>
        <time>2013-07-12T15:22:58Z</time>
      </trkpt>
      <trkpt lat="47.08605" lon="5.69644">
        <ele>274</ele>
        <time>2013-07-12T15:23:00Z</time>
      </trkpt>
      <trkpt lat="47.08601" lon="5.69625">
        <ele>274</ele>
        <time>2013-07-12T15:23:02Z</time>
      </trkpt>
      <trkpt lat="47.08597" lon="5.69606">
        <ele>269</ele>
        <time>2013-07-12T15:23:04Z</time>
      </trkpt>
      <trkpt lat="47.08591" lon="5.69588">
        <ele>269</ele>
        <time>2013-07-12T15:23:06Z</time>
      </trkpt>
      <trkpt lat="47.08585" lon="5.6957">
        <ele>269</ele>
        <time>2013-07-12T15:23:08Z</time>
      </trkpt>
      <trkpt lat="47.08581" lon="5.6955">
        <ele>269</ele>
        <time>2013-07-12T15:23:10Z</time>
      </trkpt>
      <trkpt lat="47.08576" lon="5.6953">
        <ele>269</ele>
        <time>2013-07-12T15:23:12Z</time>
      </trkpt>
      <trkpt lat="47.08572" lon="5.69509">
        <ele>269</ele>
        <time>2013-07-12T15:23:14Z</time>
      </trkpt>
      <trkpt lat="47.08567" lon="5.6949">
        <ele>269</ele>
        <time>2013-07-12T15:23:16Z</time>
      </trkpt>
      <trkpt lat="47.08562" lon="5.6947">
        <ele>269</ele>
        <time>2013-07-12T15:23:18Z</time>
      </trkpt>
      <trkpt lat="47.08557" lon="5.69451">
        <ele>269</ele>
        <time>2013-07-12T15:23:20Z</time>
      </trkpt>
      <trkpt lat="47.08553" lon="5.69431">
        <ele>269</ele>
        <time>2013-07-12T15:23:22Z</time>
      </trkpt>
      <trkpt lat="47.08549" lon="5.69411">
        <ele>269</ele>
        <time>2013-07-12T15:23:24Z</time>
      </trkpt>
      <trkpt lat="47.08545" lon="5.69391">
        <ele>269</ele>
        <time>2013-07-12T15:23:26Z</time>
      </trkpt>
      <trkpt lat="47.08541" lon="5.69371">
        <ele>269</ele>
        <time>2013-07-12T15:23:28Z</time>
      </trkpt>
      <trkpt lat="47.08537" lon="5.69351">
        <ele>269</ele>
        <time>2013-07-12T15:23:30Z</time>
      </trkpt>
      <trkpt lat="47.08533" lon="5.69331">
        <ele>269</ele>
        <time>2013-07-12T15:23:32Z</time>
      </trkpt>
      <trkpt lat="47.08529" lon="5.69311">
        <ele>269</ele>
        <time>2013-07-12T15:23:34Z</time>
      </trkpt>
      <trkpt lat="47.08524" lon="5.69291">
        <ele>269</ele>
        <time>2013-07-12T15:23:36Z</time>
      </trkpt>
      <trkpt lat="47.08519" lon="5.69272">
        <ele>269</ele>
        <time>2013-07-12T15:23:38Z</time>
      </trkpt>
      <trkpt lat="47.08514" lon="5.69253">
        <ele>269</ele>
        <time>2013-07-12T15:23:40Z</time>
      </trkpt>
      <trkpt lat="47.08511" lon="5.69231">
        <ele>269</ele>
        <time>2013-07-12T15:23:42Z</time>
      </trkpt>
      <trkpt lat="47.08506" lon="5.69209">
        <ele>269</ele>
        <time>2013-07-12T15:23:44Z</time>
      </trkpt>
      <trkpt lat="47.08501" lon="5.69187">
        <ele>269</ele>
        <time>2013-07-12T15:23:46Z</time>
      </trkpt>
      <trkpt lat="47.08497" lon="5.69165">
        <ele>269</ele>
        <time>2013-07-12T15:23:48Z</time>
      </trkpt>
      <trkpt lat="47.08492" lon="5.69142">
        <ele>269</ele>
        <time>2013-07-12T15:23:50Z</time>
      </trkpt>
      <trkpt lat="47.08484" lon="5.69122">
        <ele>269</ele>
        <time>2013-07-12T15:23:52Z</time>
      </trkpt>
      <trkpt lat="47.08478" lon="5.691">
        <ele>276</ele>
        <time>2013-07-12T15:23:54Z</time>
      </trkpt>
      <trkpt lat="47.08473" lon="5.69076">
        <ele>276</ele>
        <time>2013-07-12T15:23:56Z</time>
      </trkpt>
      <trkpt lat="47.08472" lon="5.69062">
        <ele>276</ele>
        <time>2013-07-12T15:23:57Z</time>
      </trkpt>
      <trkpt lat="47.08465" lon="5.69039">
        <ele>276</ele>
        <time>2013-07-12T15:23:59Z</time>
      </trkpt>
      <trkpt lat="47.0846" lon="5.69026">
        <ele>276</ele>
        <time>2013-07-12T15:24:00Z</time>
      </trkpt>
      <trkpt lat="47.08457" lon="5.69014">
        <ele>276</ele>
        <time>2013-07-12T15:24:01Z</time>
      </trkpt>
      <trkpt lat="47.08454" lon="5.68999">
        <ele>276</ele>
        <time>2013-07-12T15:24:02Z</time>
      </trkpt>
      <trkpt lat="47.08451" lon="5.68985">
        <ele>276</ele>
        <time>2013-07-12T15:24:03Z</time>
      </trkpt>
      <trkpt lat="47.08448" lon="5.68971">
        <ele>276</ele>
        <time>2013-07-12T15:24:04Z</time>
      </trkpt>
      <trkpt lat="47.08445" lon="5.68956">
        <ele>276</ele>
        <time>2013-07-12T15:24:05Z</time>
      </trkpt>
      <trkpt lat="47.08441" lon="5.68942">
        <ele>276</ele>
        <time>2013-07-12T15:24:06Z</time>
      </trkpt>
      <trkpt lat="47.08438" lon="5.68927">
        <ele>282</ele>
        <time>2013-07-12T15:24:07Z</time>
      </trkpt>
      <trkpt lat="47.08435" lon="5.68911">
        <ele>282</ele>
        <time>2013-07-12T15:24:08Z</time>
      </trkpt>
      <trkpt lat="47.08431" lon="5.68897">
        <ele>282</ele>
        <time>2013-07-12T15:24:09Z</time>
      </trkpt>
      <trkpt lat="47.08427" lon="5.68882">
        <ele>282</ele>
        <time>2013-07-12T15:24:10Z</time>
      </trkpt>
      <trkpt lat="47.08423" lon="5.68868">
        <ele>282</ele>
        <time>2013-07-12T15:24:11Z</time>
      </trkpt>
      <trkpt lat="47.0842" lon="5.68853">
        <ele>282</ele>
        <time>2013-07-12T15:24:12Z</time>
      </trkpt>
      <trkpt lat="47.08417" lon="5.68838">
        <ele>282</ele>
        <time>2013-07-12T15:24:13Z</time>
      </trkpt>
      <trkpt lat="47.08414" lon="5.68823">
        <ele>282</ele>
        <time>2013-07-12T15:24:14Z</time>
      </trkpt>
      <trkpt lat="47.08411" lon="5.68809">
        <ele>282</ele>
        <time>2013-07-12T15:24:15Z</time>
      </trkpt>
      <trkpt lat="47.08409" lon="5.68795">
        <ele>282</ele>
        <time>2013-07-12T15:24:16Z</time>
      </trkpt>
      <trkpt lat="47.08406" lon="5.68783">
        <ele>282</ele>
        <time>2013-07-12T15:24:17Z</time>
      </trkpt>
      <trkpt lat="47.08401" lon="5.68759">
        <ele>282</ele>
        <time>2013-07-12T15:24:19Z</time>
      </trkpt>
      <trkpt lat="47.08397" lon="5.68736">
        <ele>274</ele>
        <time>2013-07-12T15:24:21Z</time>
      </trkpt>
      <trkpt lat="47.08393" lon="5.68712">
        <ele>274</ele>
        <time>2013-07-12T15:24:23Z</time>
      </trkpt>
      <trkpt lat="47.08389" lon="5.68689">
        <ele>264</ele>
        <time>2013-07-12T15:24:25Z</time>
      </trkpt>
      <trkpt lat="47.08385" lon="5.68667">
        <ele>264</ele>
        <time>2013-07-12T15:24:27Z</time>
      </trkpt>
      <trkpt lat="47.08379" lon="5.68645">
        <ele>258</ele>
        <time>2013-07-12T15:24:29Z</time>
      </trkpt>
      <trkpt lat="47.08375" lon="5.68622">
        <ele>258</ele>
        <time>2013-07-12T15:24:31Z</time>
      </trkpt>
      <trkpt lat="47.08368" lon="5.686">
        <ele>258</ele>
        <time>2013-07-12T15:24:33Z</time>
      </trkpt>
      <trkpt lat="47.08362" lon="5.68578">
        <ele>258</ele>
        <time>2013-07-12T15:24:35Z</time>
      </trkpt>
      <trkpt lat="47.08357" lon="5.68556">
        <ele>258</ele>
        <time>2013-07-12T15:24:37Z</time>
      </trkpt>
      <trkpt lat="47.08352" lon="5.68535">
        <ele>258</ele>
        <time>2013-07-12T15:24:39Z</time>
      </trkpt>
      <trkpt lat="47.08348" lon="5.68515">
        <ele>258</ele>
        <time>2013-07-12T15:24:41Z</time>
      </trkpt>
      <trkpt lat="47.08343" lon="5.68495">
        <ele>258</ele>
        <time>2013-07-12T15:24:43Z</time>
      </trkpt>
      <trkpt lat="47.08339" lon="5.68476">
        <ele>258</ele>
        <time>2013-07-12T15:24:45Z</time>
      </trkpt>
      <trkpt lat="47.08335" lon="5.68456">
        <ele>258</ele>
        <time>2013-07-12T15:24:47Z</time>
      </trkpt>
      <trkpt lat="47.08332" lon="5.68437">
        <ele>258</ele>
        <time>2013-07-12T15:24:49Z</time>
      </trkpt>
      <trkpt lat="47.08327" lon="5.68417">
        <ele>258</ele>
        <time>2013-07-12T15:24:51Z</time>
      </trkpt>
      <trkpt lat="47.08324" lon="5.68398">
        <ele>258</ele>
        <time>2013-07-12T15:24:53Z</time>
      </trkpt>
      <trkpt lat="47.08319" lon="5.68379">
        <ele>258</ele>
        <time>2013-07-12T15:24:55Z</time>
      </trkpt>
      <trkpt lat="47.08314" lon="5.68361">
        <ele>258</ele>
        <time>2013-07-12T15:24:57Z</time>
      </trkpt>
      <trkpt lat="47.0831" lon="5.68343">
        <ele>258</ele>
        <time>2013-07-12T15:24:59Z</time>
      </trkpt>
      <trkpt lat="47.08305" lon="5.68325">
        <ele>258</ele>
        <time>2013-07-12T15:25:01Z</time>
      </trkpt>
      <trkpt lat="47.08301" lon="5.68307">
        <ele>258</ele>
        <time>2013-07-12T15:25:03Z</time>
      </trkpt>
      <trkpt lat="47.08297" lon="5.68288">
        <ele>258</ele>
        <time>2013-07-12T15:25:05Z</time>
      </trkpt>
      <trkpt lat="47.08293" lon="5.68269">
        <ele>258</ele>
        <time>2013-07-12T15:25:07Z</time>
      </trkpt>
      <trkpt lat="47.08289" lon="5.6825">
        <ele>258</ele>
        <time>2013-07-12T15:25:09Z</time>
      </trkpt>
      <trkpt lat="47.08285" lon="5.6823">
        <ele>258</ele>
        <time>2013-07-12T15:25:11Z</time>
      </trkpt>
      <trkpt lat="47.08281" lon="5.68211">
        <ele>258</ele>
        <time>2013-07-12T15:25:13Z</time>
      </trkpt>
      <trkpt lat="47.08277" lon="5.68192">
        <ele>258</ele>
        <time>2013-07-12T15:25:15Z</time>
      </trkpt>
      <trkpt lat="47.08273" lon="5.68172">
        <ele>258</ele>
        <time>2013-07-12T15:25:17Z</time>
      </trkpt>
      <trkpt lat="47.08268" lon="5.68151">
        <ele>258</ele>
        <time>2013-07-12T15:25:19Z</time>
      </trkpt>
      <trkpt lat="47.08263" lon="5.6813">
        <ele>258</ele>
        <time>2013-07-12T15:25:21Z</time>
      </trkpt>
      <trkpt lat="47.08258" lon="5.68106">
        <ele>258</ele>
        <time>2013-07-12T15:25:23Z</time>
      </trkpt>
      <trkpt lat="47.08252" lon="5.68083">
        <ele>258</ele>
        <time>2013-07-12T15:25:25Z</time>
      </trkpt>
      <trkpt lat="47.08249" lon="5.6807">
        <ele>258</ele>
        <time>2013-07-12T15:25:26Z</time>
      </trkpt>
      <trkpt lat="47.08246" lon="5.68058">
        <ele>258</ele>
        <time>2013-07-12T15:25:27Z</time>
      </trkpt>
      <trkpt lat="47.08243" lon="5.68045">
        <ele>258</ele>
        <time>2013-07-12T15:25:28Z</time>
      </trkpt>
      <trkpt lat="47.08241" lon="5.68032">
        <ele>258</ele>
        <time>2013-07-12T15:25:29Z</time>
      </trkpt>
      <trkpt lat="47.08238" lon="5.68018">
        <ele>258</ele>
        <time>2013-07-12T15:25:30Z</time>
      </trkpt>
      <trkpt lat="47.08235" lon="5.68005">
        <ele>253</ele>
        <time>2013-07-12T15:25:31Z</time>
      </trkpt>
      <trkpt lat="47.08232" lon="5.67991">
        <ele>253</ele>
        <time>2013-07-12T15:25:32Z</time>
      </trkpt>
      <trkpt lat="47.08229" lon="5.67977">
        <ele>253</ele>
        <time>2013-07-12T15:25:33Z</time>
      </trkpt>
      <trkpt lat="47.08225" lon="5.67963">
        <ele>253</ele>
        <time>2013-07-12T15:25:34Z</time>
      </trkpt>
      <trkpt lat="47.08222" lon="5.67951">
        <ele>253</ele>
        <time>2013-07-12T15:25:35Z</time>
      </trkpt>
      <trkpt lat="47.0822" lon="5.67938">
        <ele>253</ele>
        <time>2013-07-12T15:25:36Z</time>
      </trkpt>
      <trkpt lat="47.08217" lon="5.67925">
        <ele>253</ele>
        <time>2013-07-12T15:25:37Z</time>
      </trkpt>
      <trkpt lat="47.08215" lon="5.67912">
        <ele>253</ele>
        <time>2013-07-12T15:25:38Z</time>
      </trkpt>
      <trkpt lat="47.08213" lon="5.679">
        <ele>253</ele>
        <time>2013-07-12T15:25:39Z</time>
      </trkpt>
      <trkpt lat="47.08209" lon="5.67887">
        <ele>253</ele>
        <time>2013-07-12T15:25:40Z</time>
      </trkpt>
      <trkpt lat="47.08207" lon="5.67875">
        <ele>253</ele>
        <time>2013-07-12T15:25:41Z</time>
      </trkpt>
      <trkpt lat="47.08204" lon="5.67862">
        <ele>253</ele>
        <time>2013-07-12T15:25:42Z</time>
      </trkpt>
      <trkpt lat="47.08202" lon="5.67849">
        <ele>253</ele>
        <time>2013-07-12T15:25:43Z</time>
      </trkpt>
      <trkpt lat="47.08196" lon="5.67825">
        <ele>253</ele>
        <time>2013-07-12T15:25:45Z</time>
      </trkpt>
      <trkpt lat="47.0819" lon="5.67801">
        <ele>253</ele>
        <time>2013-07-12T15:25:47Z</time>
      </trkpt>
      <trkpt lat="47.08184" lon="5.67777">
        <ele>253</ele>
        <time>2013-07-12T15:25:49Z</time>
      </trkpt>
      <trkpt lat="47.08179" lon="5.67752">
        <ele>253</ele>
        <time>2013-07-12T15:25:51Z</time>
      </trkpt>
      <trkpt lat="47.08174" lon="5.67729">
        <ele>253</ele>
        <time>2013-07-12T15:25:53Z</time>
      </trkpt>
      <trkpt lat="47.08169" lon="5.67706">
        <ele>253</ele>
        <time>2013-07-12T15:25:55Z</time>
      </trkpt>
      <trkpt lat="47.08163" lon="5.67683">
        <ele>253</ele>
        <time>2013-07-12T15:25:57Z</time>
      </trkpt>
      <trkpt lat="47.08158" lon="5.67661">
        <ele>253</ele>
        <time>2013-07-12T15:25:59Z</time>
      </trkpt>
      <trkpt lat="47.08152" lon="5.67638">
        <ele>253</ele>
        <time>2013-07-12T15:26:01Z</time>
      </trkpt>
      <trkpt lat="47.08148" lon="5.67616">
        <ele>253</ele>
        <time>2013-07-12T15:26:03Z</time>
      </trkpt>
      <trkpt lat="47.08143" lon="5.67593">
        <ele>253</ele>
        <time>2013-07-12T15:26:05Z</time>
      </trkpt>
      <trkpt lat="47.08137" lon="5.67571">
        <ele>253</ele>
        <time>2013-07-12T15:26:07Z</time>
      </trkpt>
      <trkpt lat="47.08132" lon="5.67548">
        <ele>253</ele>
        <time>2013-07-12T15:26:09Z</time>
      </trkpt>
      <trkpt lat="47.08127" lon="5.67525">
        <ele>253</ele>
        <time>2013-07-12T15:26:11Z</time>
      </trkpt>
      <trkpt lat="47.08122" lon="5.67503">
        <ele>253</ele>
        <time>2013-07-12T15:26:13Z</time>
      </trkpt>
      <trkpt lat="47.0812" lon="5.67489">
        <ele>258</ele>
        <time>2013-07-12T15:26:14Z</time>
      </trkpt>
      <trkpt lat="47.08116" lon="5.67465">
        <ele>258</ele>
        <time>2013-07-12T15:26:16Z</time>
      </trkpt>
      <trkpt lat="47.08113" lon="5.67452">
        <ele>258</ele>
        <time>2013-07-12T15:26:17Z</time>
      </trkpt>
      <trkpt lat="47.08106" lon="5.67428">
        <ele>258</ele>
        <time>2013-07-12T15:26:19Z</time>
      </trkpt>
      <trkpt lat="47.08104" lon="5.67416">
        <ele>258</ele>
        <time>2013-07-12T15:26:20Z</time>
      </trkpt>
      <trkpt lat="47.08101" lon="5.67402">
        <ele>258</ele>
        <time>2013-07-12T15:26:21Z</time>
      </trkpt>
      <trkpt lat="47.08098" lon="5.67389">
        <ele>258</ele>
        <time>2013-07-12T15:26:22Z</time>
      </trkpt>
      <trkpt lat="47.08095" lon="5.67377">
        <ele>258</ele>
        <time>2013-07-12T15:26:23Z</time>
      </trkpt>
      <trkpt lat="47.08092" lon="5.67364">
        <ele>258</ele>
        <time>2013-07-12T15:26:24Z</time>
      </trkpt>
      <trkpt lat="47.0809" lon="5.67351">
        <ele>258</ele>
        <time>2013-07-12T15:26:25Z</time>
      </trkpt>
      <trkpt lat="47.08087" lon="5.67338">
        <ele>258</ele>
        <time>2013-07-12T15:26:26Z</time>
      </trkpt>
      <trkpt lat="47.08084" lon="5.67325">
        <ele>258</ele>
        <time>2013-07-12T15:26:27Z</time>
      </trkpt>
      <trkpt lat="47.08082" lon="5.67311">
        <ele>258</ele>
        <time>2013-07-12T15:26:28Z</time>
      </trkpt>
      <trkpt lat="47.08075" lon="5.67289">
        <ele>258</ele>
        <time>2013-07-12T15:26:30Z</time>
      </trkpt>
      <trkpt lat="47.08069" lon="5.67265">
        <ele>258</ele>
        <time>2013-07-12T15:26:32Z</time>
      </trkpt>
      <trkpt lat="47.08063" lon="5.67241">
        <ele>258</ele>
        <time>2013-07-12T15:26:34Z</time>
      </trkpt>
      <trkpt lat="47.08055" lon="5.67219">
        <ele>258</ele>
        <time>2013-07-12T15:26:36Z</time>
      </trkpt>
      <trkpt lat="47.08048" lon="5.67195">
        <ele>258</ele>
        <time>2013-07-12T15:26:38Z</time>
      </trkpt>
      <trkpt lat="47.08046" lon="5.67181">
        <ele>258</ele>
        <time>2013-07-12T15:26:39Z</time>
      </trkpt>
      <trkpt lat="47.08042" lon="5.67168">
        <ele>258</ele>
        <time>2013-07-12T15:26:40Z</time>
      </trkpt>
      <trkpt lat="47.0804" lon="5.67155">
        <ele>258</ele>
        <time>2013-07-12T15:26:41Z</time>
      </trkpt>
      <trkpt lat="47.08037" lon="5.67141">
        <ele>258</ele>
        <time>2013-07-12T15:26:42Z</time>
      </trkpt>
      <trkpt lat="47.08035" lon="5.67126">
        <ele>258</ele>
        <time>2013-07-12T15:26:43Z</time>
      </trkpt>
      <trkpt lat="47.08032" lon="5.67111">
        <ele>258</ele>
        <time>2013-07-12T15:26:44Z</time>
      </trkpt>
      <trkpt lat="47.0803" lon="5.67097">
        <ele>258</ele>
        <time>2013-07-12T15:26:45Z</time>
      </trkpt>
      <trkpt lat="47.08027" lon="5.67081">
        <ele>258</ele>
        <time>2013-07-12T15:26:46Z</time>
      </trkpt>
      <trkpt lat="47.08023" lon="5.67067">
        <ele>258</ele>
        <time>2013-07-12T15:26:47Z</time>
      </trkpt>
      <trkpt lat="47.08019" lon="5.67052">
        <ele>258</ele>
        <time>2013-07-12T15:26:48Z</time>
      </trkpt>
      <trkpt lat="47.08014" lon="5.67037">
        <ele>258</ele>
        <time>2013-07-12T15:26:49Z</time>
      </trkpt>
      <trkpt lat="47.0801" lon="5.67022">
        <ele>258</ele>
        <time>2013-07-12T15:26:50Z</time>
      </trkpt>
      <trkpt lat="47.08005" lon="5.67007">
        <ele>258</ele>
        <time>2013-07-12T15:26:51Z</time>
      </trkpt>
      <trkpt lat="47.08001" lon="5.66992">
        <ele>258</ele>
        <time>2013-07-12T15:26:52Z</time>
      </trkpt>
      <trkpt lat="47.07998" lon="5.66975">
        <ele>258</ele>
        <time>2013-07-12T15:26:53Z</time>
      </trkpt>
      <trkpt lat="47.07994" lon="5.6696">
        <ele>258</ele>
        <time>2013-07-12T15:26:54Z</time>
      </trkpt>
      <trkpt lat="47.07991" lon="5.66944">
        <ele>258</ele>
        <time>2013-07-12T15:26:55Z</time>
      </trkpt>
      <trkpt lat="47.07988" lon="5.6693">
        <ele>258</ele>
        <time>2013-07-12T15:26:56Z</time>
      </trkpt>
      <trkpt lat="47.07985" lon="5.66915">
        <ele>258</ele>
        <time>2013-07-12T15:26:57Z</time>
      </trkpt>
      <trkpt lat="47.07982" lon="5.66901">
        <ele>258</ele>
        <time>2013-07-12T15:26:58Z</time>
      </trkpt>
      <trkpt lat="47.0798" lon="5.66886">
        <ele>258</ele>
        <time>2013-07-12T15:26:59Z</time>
      </trkpt>
      <trkpt lat="47.07977" lon="5.66873">
        <ele>258</ele>
        <time>2013-07-12T15:27:00Z</time>
      </trkpt>
      <trkpt lat="47.07974" lon="5.66859">
        <ele>258</ele>
        <time>2013-07-12T15:27:01Z</time>
      </trkpt>
      <trkpt lat="47.07972" lon="5.66847">
        <ele>258</ele>
        <time>2013-07-12T15:27:02Z</time>
      </trkpt>
      <trkpt lat="47.07969" lon="5.66834">
        <ele>258</ele>
        <time>2013-07-12T15:27:03Z</time>
      </trkpt>
      <trkpt lat="47.07967" lon="5.66822">
        <ele>258</ele>
        <time>2013-07-12T15:27:04Z</time>
      </trkpt>
      <trkpt lat="47.07964" lon="5.66809">
        <ele>258</ele>
        <time>2013-07-12T15:27:05Z</time>
      </trkpt>
      <trkpt lat="47.07959" lon="5.66785">
        <ele>258</ele>
        <time>2013-07-12T15:27:07Z</time>
      </trkpt>
      <trkpt lat="47.07954" lon="5.66763">
        <ele>258</ele>
        <time>2013-07-12T15:27:09Z</time>
      </trkpt>
      <trkpt lat="47.07948" lon="5.66741">
        <ele>258</ele>
        <time>2013-07-12T15:27:11Z</time>
      </trkpt>
      <trkpt lat="47.07943" lon="5.66719">
        <ele>258</ele>
        <time>2013-07-12T15:27:13Z</time>
      </trkpt>
      <trkpt lat="47.07939" lon="5.66696">
        <ele>258</ele>
        <time>2013-07-12T15:27:15Z</time>
      </trkpt>
      <trkpt lat="47.07935" lon="5.66674">
        <ele>258</ele>
        <time>2013-07-12T15:27:17Z</time>
      </trkpt>
      <trkpt lat="47.0793" lon="5.66652">
        <ele>258</ele>
        <time>2013-07-12T15:27:19Z</time>
      </trkpt>
      <trkpt lat="47.07925" lon="5.6663">
        <ele>258</ele>
        <time>2013-07-12T15:27:21Z</time>
      </trkpt>
      <trkpt lat="47.07919" lon="5.66607">
        <ele>258</ele>
        <time>2013-07-12T15:27:23Z</time>
      </trkpt>
      <trkpt lat="47.07913" lon="5.66584">
        <ele>253</ele>
        <time>2013-07-12T15:27:25Z</time>
      </trkpt>
      <trkpt lat="47.07911" lon="5.66571">
        <ele>253</ele>
        <time>2013-07-12T15:27:26Z</time>
      </trkpt>
      <trkpt lat="47.07908" lon="5.66559">
        <ele>253</ele>
        <time>2013-07-12T15:27:27Z</time>
      </trkpt>
      <trkpt lat="47.07905" lon="5.66532">
        <ele>253</ele>
        <time>2013-07-12T15:27:29Z</time>
      </trkpt>
      <trkpt lat="47.07901" lon="5.6652">
        <ele>253</ele>
        <time>2013-07-12T15:27:30Z</time>
      </trkpt>
      <trkpt lat="47.07899" lon="5.66507">
        <ele>253</ele>
        <time>2013-07-12T15:27:31Z</time>
      </trkpt>
      <trkpt lat="47.07897" lon="5.66495">
        <ele>253</ele>
        <time>2013-07-12T15:27:32Z</time>
      </trkpt>
      <trkpt lat="47.07891" lon="5.66471">
        <ele>253</ele>
        <time>2013-07-12T15:27:34Z</time>
      </trkpt>
      <trkpt lat="47.07888" lon="5.66459">
        <ele>253</ele>
        <time>2013-07-12T15:27:35Z</time>
      </trkpt>
      <trkpt lat="47.07883" lon="5.66435">
        <ele>253</ele>
        <time>2013-07-12T15:27:37Z</time>
      </trkpt>
      <trkpt lat="47.07878" lon="5.66413">
        <ele>253</ele>
        <time>2013-07-12T15:27:39Z</time>
      </trkpt>
      <trkpt lat="47.07872" lon="5.66391">
        <ele>253</ele>
        <time>2013-07-12T15:27:41Z</time>
      </trkpt>
      <trkpt lat="47.07866" lon="5.66371">
        <ele>253</ele>
        <time>2013-07-12T15:27:43Z</time>
      </trkpt>
      <trkpt lat="47.07862" lon="5.6635">
        <ele>253</ele>
        <time>2013-07-12T15:27:45Z</time>
      </trkpt>
      <trkpt lat="47.07857" lon="5.66329">
        <ele>253</ele>
        <time>2013-07-12T15:27:47Z</time>
      </trkpt>
      <trkpt lat="47.07852" lon="5.6631">
        <ele>253</ele>
        <time>2013-07-12T15:27:49Z</time>
      </trkpt>
      <trkpt lat="47.07848" lon="5.66291">
        <ele>253</ele>
        <time>2013-07-12T15:27:51Z</time>
      </trkpt>
      <trkpt lat="47.07844" lon="5.66272">
        <ele>253</ele>
        <time>2013-07-12T15:27:53Z</time>
      </trkpt>
      <trkpt lat="47.07841" lon="5.66255">
        <ele>253</ele>
        <time>2013-07-12T15:27:55Z</time>
      </trkpt>
      <trkpt lat="47.07837" lon="5.66238">
        <ele>253</ele>
        <time>2013-07-12T15:27:57Z</time>
      </trkpt>
      <trkpt lat="47.07834" lon="5.66222">
        <ele>253</ele>
        <time>2013-07-12T15:27:59Z</time>
      </trkpt>
      <trkpt lat="47.0783" lon="5.66205">
        <ele>253</ele>
        <time>2013-07-12T15:28:01Z</time>
      </trkpt>
      <trkpt lat="47.07827" lon="5.66191">
        <ele>253</ele>
        <time>2013-07-12T15:28:03Z</time>
      </trkpt>
      <trkpt lat="47.07824" lon="5.66177">
        <ele>253</ele>
        <time>2013-07-12T15:28:05Z</time>
      </trkpt>
      <trkpt lat="47.0782" lon="5.66161">
        <ele>253</ele>
        <time>2013-07-12T15:28:07Z</time>
      </trkpt>
      <trkpt lat="47.07817" lon="5.66148">
        <ele>253</ele>
        <time>2013-07-12T15:28:09Z</time>
      </trkpt>
      <trkpt lat="47.07814" lon="5.66135">
        <ele>253</ele>
        <time>2013-07-12T15:28:11Z</time>
      </trkpt>
      <trkpt lat="47.07811" lon="5.66117">
        <ele>253</ele>
        <time>2013-07-12T15:28:14Z</time>
      </trkpt>
      <trkpt lat="47.07808" lon="5.66099">
        <ele>253</ele>
        <time>2013-07-12T15:28:17Z</time>
      </trkpt>
      <trkpt lat="47.07806" lon="5.66086">
        <ele>253</ele>
        <time>2013-07-12T15:28:19Z</time>
      </trkpt>
      <trkpt lat="47.07803" lon="5.66073">
        <ele>253</ele>
        <time>2013-07-12T15:28:21Z</time>
      </trkpt>
      <trkpt lat="47.078" lon="5.66061">
        <ele>253</ele>
        <time>2013-07-12T15:28:23Z</time>
      </trkpt>
      <trkpt lat="47.07797" lon="5.66048">
        <ele>253</ele>
        <time>2013-07-12T15:28:25Z</time>
      </trkpt>
      <trkpt lat="47.07794" lon="5.66036">
        <ele>253</ele>
        <time>2013-07-12T15:28:27Z</time>
      </trkpt>
      <trkpt lat="47.07791" lon="5.66023">
        <ele>253</ele>
        <time>2013-07-12T15:28:29Z</time>
      </trkpt>
      <trkpt lat="47.07789" lon="5.6601">
        <ele>253</ele>
        <time>2013-07-12T15:28:31Z</time>
      </trkpt>
      <trkpt lat="47.07785" lon="5.65996">
        <ele>253</ele>
        <time>2013-07-12T15:28:33Z</time>
      </trkpt>
      <trkpt lat="47.07782" lon="5.65983">
        <ele>253</ele>
        <time>2013-07-12T15:28:35Z</time>
      </trkpt>
      <trkpt lat="47.07779" lon="5.65968">
        <ele>253</ele>
        <time>2013-07-12T15:28:37Z</time>
      </trkpt>
      <trkpt lat="47.07776" lon="5.65953">
        <ele>253</ele>
        <time>2013-07-12T15:28:39Z</time>
      </trkpt>
      <trkpt lat="47.07771" lon="5.65939">
        <ele>253</ele>
        <time>2013-07-12T15:28:41Z</time>
      </trkpt>
      <trkpt lat="47.07768" lon="5.65924">
        <ele>253</ele>
        <time>2013-07-12T15:28:43Z</time>
      </trkpt>
      <trkpt lat="47.07765" lon="5.65912">
        <ele>253</ele>
        <time>2013-07-12T15:28:45Z</time>
      </trkpt>
      <trkpt lat="47.07762" lon="5.65897">
        <ele>253</ele>
        <time>2013-07-12T15:28:47Z</time>
      </trkpt>
      <trkpt lat="47.07758" lon="5.65882">
        <ele>253</ele>
        <time>2013-07-12T15:28:49Z</time>
      </trkpt>
      <trkpt lat="47.07755" lon="5.65866">
        <ele>253</ele>
        <time>2013-07-12T15:28:51Z</time>
      </trkpt>
      <trkpt lat="47.07752" lon="5.6585">
        <ele>253</ele>
        <time>2013-07-12T15:28:53Z</time>
      </trkpt>
      <trkpt lat="47.07749" lon="5.65834">
        <ele>253</ele>
        <time>2013-07-12T15:28:55Z</time>
      </trkpt>
      <trkpt lat="47.07745" lon="5.65819">
        <ele>253</ele>
        <time>2013-07-12T15:28:57Z</time>
      </trkpt>
      <trkpt lat="47.07741" lon="5.65803">
        <ele>253</ele>
        <time>2013-07-12T15:28:59Z</time>
      </trkpt>
      <trkpt lat="47.07737" lon="5.65786">
        <ele>253</ele>
        <time>2013-07-12T15:29:01Z</time>
      </trkpt>
      <trkpt lat="47.07734" lon="5.65768">
        <ele>253</ele>
        <time>2013-07-12T15:29:03Z</time>
      </trkpt>
      <trkpt lat="47.0773" lon="5.6575">
        <ele>253</ele>
        <time>2013-07-12T15:29:05Z</time>
      </trkpt>
      <trkpt lat="47.07724" lon="5.65734">
        <ele>253</ele>
        <time>2013-07-12T15:29:07Z</time>
      </trkpt>
      <trkpt lat="47.07719" lon="5.65718">
        <ele>253</ele>
        <time>2013-07-12T15:29:09Z</time>
      </trkpt>
      <trkpt lat="47.07714" lon="5.657">
        <ele>253</ele>
        <time>2013-07-12T15:29:11Z</time>
      </trkpt>
      <trkpt lat="47.07711" lon="5.65683">
        <ele>253</ele>
        <time>2013-07-12T15:29:13Z</time>
      </trkpt>
      <trkpt lat="47.07706" lon="5.65666">
        <ele>253</ele>
        <time>2013-07-12T15:29:15Z</time>
      </trkpt>
      <trkpt lat="47.07702" lon="5.65649">
        <ele>253</ele>
        <time>2013-07-12T15:29:17Z</time>
      </trkpt>
      <trkpt lat="47.07696" lon="5.65633">
        <ele>253</ele>
        <time>2013-07-12T15:29:19Z</time>
      </trkpt>
      <trkpt lat="47.07693" lon="5.65615">
        <ele>253</ele>
        <time>2013-07-12T15:29:21Z</time>
      </trkpt>
      <trkpt lat="47.07689" lon="5.65597">
        <ele>253</ele>
        <time>2013-07-12T15:29:23Z</time>
      </trkpt>
      <trkpt lat="47.07684" lon="5.65579">
        <ele>253</ele>
        <time>2013-07-12T15:29:25Z</time>
      </trkpt>
      <trkpt lat="47.0768" lon="5.6556">
        <ele>253</ele>
        <time>2013-07-12T15:29:27Z</time>
      </trkpt>
      <trkpt lat="47.07676" lon="5.65542">
        <ele>253</ele>
        <time>2013-07-12T15:29:29Z</time>
      </trkpt>
      <trkpt lat="47.07671" lon="5.65523">
        <ele>260</ele>
        <time>2013-07-12T15:29:31Z</time>
      </trkpt>
      <trkpt lat="47.07666" lon="5.65504">
        <ele>260</ele>
        <time>2013-07-12T15:29:33Z</time>
      </trkpt>
      <trkpt lat="47.07663" lon="5.65485">
        <ele>260</ele>
        <time>2013-07-12T15:29:35Z</time>
      </trkpt>
      <trkpt lat="47.07659" lon="5.65466">
        <ele>266</ele>
        <time>2013-07-12T15:29:37Z</time>
      </trkpt>
      <trkpt lat="47.07654" lon="5.65446">
        <ele>266</ele>
        <time>2013-07-12T15:29:39Z</time>
      </trkpt>
      <trkpt lat="47.0765" lon="5.65424">
        <ele>272</ele>
        <time>2013-07-12T15:29:41Z</time>
      </trkpt>
      <trkpt lat="47.07646" lon="5.65401">
        <ele>272</ele>
        <time>2013-07-12T15:29:43Z</time>
      </trkpt>
      <trkpt lat="47.07641" lon="5.65379">
        <ele>272</ele>
        <time>2013-07-12T15:29:45Z</time>
      </trkpt>
      <trkpt lat="47.07634" lon="5.65359">
        <ele>272</ele>
        <time>2013-07-12T15:29:47Z</time>
      </trkpt>
      <trkpt lat="47.07629" lon="5.65337">
        <ele>278</ele>
        <time>2013-07-12T15:29:49Z</time>
      </trkpt>
      <trkpt lat="47.07627" lon="5.65324">
        <ele>278</ele>
        <time>2013-07-12T15:29:50Z</time>
      </trkpt>
      <trkpt lat="47.07622" lon="5.65299">
        <ele>278</ele>
        <time>2013-07-12T15:29:52Z</time>
      </trkpt>
      <trkpt lat="47.0762" lon="5.65287">
        <ele>278</ele>
        <time>2013-07-12T15:29:53Z</time>
      </trkpt>
      <trkpt lat="47.07615" lon="5.65262">
        <ele>278</ele>
        <time>2013-07-12T15:29:55Z</time>
      </trkpt>
      <trkpt lat="47.07612" lon="5.6525">
        <ele>278</ele>
        <time>2013-07-12T15:29:56Z</time>
      </trkpt>
      <trkpt lat="47.07604" lon="5.65226">
        <ele>278</ele>
        <time>2013-07-12T15:29:58Z</time>
      </trkpt>
      <trkpt lat="47.07598" lon="5.65203">
        <ele>278</ele>
        <time>2013-07-12T15:30:00Z</time>
      </trkpt>
      <trkpt lat="47.07591" lon="5.6518">
        <ele>278</ele>
        <time>2013-07-12T15:30:02Z</time>
      </trkpt>
      <trkpt lat="47.07585" lon="5.65157">
        <ele>273</ele>
        <time>2013-07-12T15:30:04Z</time>
      </trkpt>
      <trkpt lat="47.07578" lon="5.65137">
        <ele>273</ele>
        <time>2013-07-12T15:30:06Z</time>
      </trkpt>
      <trkpt lat="47.07574" lon="5.65118">
        <ele>273</ele>
        <time>2013-07-12T15:30:08Z</time>
      </trkpt>
      <trkpt lat="47.0757" lon="5.65099">
        <ele>273</ele>
        <time>2013-07-12T15:30:10Z</time>
      </trkpt>
      <trkpt lat="47.07568" lon="5.65079">
        <ele>273</ele>
        <time>2013-07-12T15:30:12Z</time>
      </trkpt>
      <trkpt lat="47.07566" lon="5.65061">
        <ele>267</ele>
        <time>2013-07-12T15:30:14Z</time>
      </trkpt>
      <trkpt lat="47.07563" lon="5.65044">
        <ele>267</ele>
        <time>2013-07-12T15:30:16Z</time>
      </trkpt>
      <trkpt lat="47.07561" lon="5.65026">
        <ele>262</ele>
        <time>2013-07-12T15:30:18Z</time>
      </trkpt>
      <trkpt lat="47.07558" lon="5.65007">
        <ele>262</ele>
        <time>2013-07-12T15:30:20Z</time>
      </trkpt>
      <trkpt lat="47.07554" lon="5.64991">
        <ele>262</ele>
        <time>2013-07-12T15:30:22Z</time>
      </trkpt>
      <trkpt lat="47.0755" lon="5.64973">
        <ele>254</ele>
        <time>2013-07-12T15:30:24Z</time>
      </trkpt>
      <trkpt lat="47.07548" lon="5.64955">
        <ele>254</ele>
        <time>2013-07-12T15:30:26Z</time>
      </trkpt>
      <trkpt lat="47.07544" lon="5.64939">
        <ele>254</ele>
        <time>2013-07-12T15:30:28Z</time>
      </trkpt>
      <trkpt lat="47.0754" lon="5.64923">
        <ele>254</ele>
        <time>2013-07-12T15:30:30Z</time>
      </trkpt>
      <trkpt lat="47.07535" lon="5.64907">
        <ele>254</ele>
        <time>2013-07-12T15:30:32Z</time>
      </trkpt>
      <trkpt lat="47.07531" lon="5.64889">
        <ele>254</ele>
        <time>2013-07-12T15:30:34Z</time>
      </trkpt>
      <trkpt lat="47.07528" lon="5.64873">
        <ele>254</ele>
        <time>2013-07-12T15:30:36Z</time>
      </trkpt>
      <trkpt lat="47.07523" lon="5.64857">
        <ele>254</ele>
        <time>2013-07-12T15:30:38Z</time>
      </trkpt>
      <trkpt lat="47.07517" lon="5.64843">
        <ele>261</ele>
        <time>2013-07-12T15:30:40Z</time>
      </trkpt>
      <trkpt lat="47.07514" lon="5.64827">
        <ele>261</ele>
        <time>2013-07-12T15:30:42Z</time>
      </trkpt>
      <trkpt lat="47.07511" lon="5.64809">
        <ele>261</ele>
        <time>2013-07-12T15:30:44Z</time>
      </trkpt>
      <trkpt lat="47.07507" lon="5.64793">
        <ele>269</ele>
        <time>2013-07-12T15:30:46Z</time>
      </trkpt>
      <trkpt lat="47.07502" lon="5.64778">
        <ele>269</ele>
        <time>2013-07-12T15:30:48Z</time>
      </trkpt>
      <trkpt lat="47.07498" lon="5.6476">
        <ele>269</ele>
        <time>2013-07-12T15:30:50Z</time>
      </trkpt>
      <trkpt lat="47.07493" lon="5.64742">
        <ele>269</ele>
        <time>2013-07-12T15:30:52Z</time>
      </trkpt>
      <trkpt lat="47.07488" lon="5.64723">
        <ele>269</ele>
        <time>2013-07-12T15:30:54Z</time>
      </trkpt>
      <trkpt lat="47.07483" lon="5.64707">
        <ele>269</ele>
        <time>2013-07-12T15:30:56Z</time>
      </trkpt>
      <trkpt lat="47.07479" lon="5.64688">
        <ele>269</ele>
        <time>2013-07-12T15:30:58Z</time>
      </trkpt>
      <trkpt lat="47.07475" lon="5.64668">
        <ele>269</ele>
        <time>2013-07-12T15:31:00Z</time>
      </trkpt>
      <trkpt lat="47.07471" lon="5.64648">
        <ele>269</ele>
        <time>2013-07-12T15:31:02Z</time>
      </trkpt>
      <trkpt lat="47.07467" lon="5.64628">
        <ele>269</ele>
        <time>2013-07-12T15:31:04Z</time>
      </trkpt>
      <trkpt lat="47.07463" lon="5.64607">
        <ele>269</ele>
        <time>2013-07-12T15:31:06Z</time>
      </trkpt>
      <trkpt lat="47.07459" lon="5.64587">
        <ele>261</ele>
        <time>2013-07-12T15:31:08Z</time>
      </trkpt>
      <trkpt lat="47.07455" lon="5.64566">
        <ele>261</ele>
        <time>2013-07-12T15:31:10Z</time>
      </trkpt>
      <trkpt lat="47.07452" lon="5.64544">
        <ele>261</ele>
        <time>2013-07-12T15:31:12Z</time>
      </trkpt>
      <trkpt lat="47.07449" lon="5.64523">
        <ele>261</ele>
        <time>2013-07-12T15:31:14Z</time>
      </trkpt>
      <trkpt lat="47.07442" lon="5.64502">
        <ele>255</ele>
        <time>2013-07-12T15:31:16Z</time>
      </trkpt>
      <trkpt lat="47.07435" lon="5.6448">
        <ele>255</ele>
        <time>2013-07-12T15:31:18Z</time>
      </trkpt>
      <trkpt lat="47.07432" lon="5.64467">
        <ele>255</ele>
        <time>2013-07-12T15:31:19Z</time>
      </trkpt>
      <trkpt lat="47.07429" lon="5.64454">
        <ele>255</ele>
        <time>2013-07-12T15:31:20Z</time>
      </trkpt>
      <trkpt lat="47.07425" lon="5.6444">
        <ele>255</ele>
        <time>2013-07-12T15:31:21Z</time>
      </trkpt>
      <trkpt lat="47.07423" lon="5.64426">
        <ele>255</ele>
        <time>2013-07-12T15:31:22Z</time>
      </trkpt>
      <trkpt lat="47.0742" lon="5.64411">
        <ele>255</ele>
        <time>2013-07-12T15:31:23Z</time>
      </trkpt>
      <trkpt lat="47.07417" lon="5.64396">
        <ele>255</ele>
        <time>2013-07-12T15:31:24Z</time>
      </trkpt>
      <trkpt lat="47.07415" lon="5.64381">
        <ele>255</ele>
        <time>2013-07-12T15:31:25Z</time>
      </trkpt>
      <trkpt lat="47.07411" lon="5.64367">
        <ele>261</ele>
        <time>2013-07-12T15:31:26Z</time>
      </trkpt>
      <trkpt lat="47.07407" lon="5.64353">
        <ele>261</ele>
        <time>2013-07-12T15:31:27Z</time>
      </trkpt>
      <trkpt lat="47.07405" lon="5.6434">
        <ele>261</ele>
        <time>2013-07-12T15:31:28Z</time>
      </trkpt>
      <trkpt lat="47.07403" lon="5.64326">
        <ele>261</ele>
        <time>2013-07-12T15:31:29Z</time>
      </trkpt>
      <trkpt lat="47.07399" lon="5.64314">
        <ele>261</ele>
        <time>2013-07-12T15:31:30Z</time>
      </trkpt>
      <trkpt lat="47.07395" lon="5.6429">
        <ele>261</ele>
        <time>2013-07-12T15:31:32Z</time>
      </trkpt>
      <trkpt lat="47.07393" lon="5.64266">
        <ele>261</ele>
        <time>2013-07-12T15:31:34Z</time>
      </trkpt>
      <trkpt lat="47.0739" lon="5.64244">
        <ele>261</ele>
        <time>2013-07-12T15:31:36Z</time>
      </trkpt>
      <trkpt lat="47.07387" lon="5.64224">
        <ele>261</ele>
        <time>2013-07-12T15:31:38Z</time>
      </trkpt>
      <trkpt lat="47.07382" lon="5.64204">
        <ele>261</ele>
        <time>2013-07-12T15:31:40Z</time>
      </trkpt>
      <trkpt lat="47.07378" lon="5.64185">
        <ele>261</ele>
        <time>2013-07-12T15:31:42Z</time>
      </trkpt>
      <trkpt lat="47.07372" lon="5.64167">
        <ele>261</ele>
        <time>2013-07-12T15:31:44Z</time>
      </trkpt>
      <trkpt lat="47.07368" lon="5.64148">
        <ele>261</ele>
        <time>2013-07-12T15:31:46Z</time>
      </trkpt>
      <trkpt lat="47.07365" lon="5.64127">
        <ele>261</ele>
        <time>2013-07-12T15:31:48Z</time>
      </trkpt>
      <trkpt lat="47.07361" lon="5.64109">
        <ele>261</ele>
        <time>2013-07-12T15:31:50Z</time>
      </trkpt>
      <trkpt lat="47.07357" lon="5.64091">
        <ele>255</ele>
        <time>2013-07-12T15:31:52Z</time>
      </trkpt>
      <trkpt lat="47.07353" lon="5.64074">
        <ele>255</ele>
        <time>2013-07-12T15:31:54Z</time>
      </trkpt>
      <trkpt lat="47.07347" lon="5.64059">
        <ele>255</ele>
        <time>2013-07-12T15:31:56Z</time>
      </trkpt>
      <trkpt lat="47.07344" lon="5.64041">
        <ele>255</ele>
        <time>2013-07-12T15:31:58Z</time>
      </trkpt>
      <trkpt lat="47.07339" lon="5.64026">
        <ele>255</ele>
        <time>2013-07-12T15:32:00Z</time>
      </trkpt>
      <trkpt lat="47.07334" lon="5.6401">
        <ele>255</ele>
        <time>2013-07-12T15:32:02Z</time>
      </trkpt>
      <trkpt lat="47.07329" lon="5.63995">
        <ele>255</ele>
        <time>2013-07-12T15:32:04Z</time>
      </trkpt>
      <trkpt lat="47.07325" lon="5.63979">
        <ele>261</ele>
        <time>2013-07-12T15:32:06Z</time>
      </trkpt>
      <trkpt lat="47.07321" lon="5.63963">
        <ele>261</ele>
        <time>2013-07-12T15:32:08Z</time>
      </trkpt>
      <trkpt lat="47.07317" lon="5.63947">
        <ele>261</ele>
        <time>2013-07-12T15:32:10Z</time>
      </trkpt>
      <trkpt lat="47.07315" lon="5.63928">
        <ele>268</ele>
        <time>2013-07-12T15:32:12Z</time>
      </trkpt>
      <trkpt lat="47.07312" lon="5.63911">
        <ele>268</ele>
        <time>2013-07-12T15:32:14Z</time>
      </trkpt>
      <trkpt lat="47.07309" lon="5.63892">
        <ele>268</ele>
        <time>2013-07-12T15:32:16Z</time>
      </trkpt>
      <trkpt lat="47.07306" lon="5.63874">
        <ele>268</ele>
        <time>2013-07-12T15:32:18Z</time>
      </trkpt>
      <trkpt lat="47.07302" lon="5.63856">
        <ele>268</ele>
        <time>2013-07-12T15:32:20Z</time>
      </trkpt>
      <trkpt lat="47.07298" lon="5.6384">
        <ele>268</ele>
        <time>2013-07-12T15:32:22Z</time>
      </trkpt>
      <trkpt lat="47.07295" lon="5.63822">
        <ele>262</ele>
        <time>2013-07-12T15:32:24Z</time>
      </trkpt>
      <trkpt lat="47.07291" lon="5.63803">
        <ele>262</ele>
        <time>2013-07-12T15:32:26Z</time>
      </trkpt>
      <trkpt lat="47.07287" lon="5.63785">
        <ele>262</ele>
        <time>2013-07-12T15:32:28Z</time>
      </trkpt>
      <trkpt lat="47.07283" lon="5.63767">
        <ele>262</ele>
        <time>2013-07-12T15:32:30Z</time>
      </trkpt>
      <trkpt lat="47.07279" lon="5.63749">
        <ele>256</ele>
        <time>2013-07-12T15:32:32Z</time>
      </trkpt>
      <trkpt lat="47.07275" lon="5.6373">
        <ele>256</ele>
        <time>2013-07-12T15:32:34Z</time>
      </trkpt>
      <trkpt lat="47.07273" lon="5.6371">
        <ele>256</ele>
        <time>2013-07-12T15:32:36Z</time>
      </trkpt>
      <trkpt lat="47.07269" lon="5.63691">
        <ele>256</ele>
        <time>2013-07-12T15:32:38Z</time>
      </trkpt>
      <trkpt lat="47.07264" lon="5.63672">
        <ele>256</ele>
        <time>2013-07-12T15:32:40Z</time>
      </trkpt>
      <trkpt lat="47.07259" lon="5.63654">
        <ele>256</ele>
        <time>2013-07-12T15:32:42Z</time>
      </trkpt>
      <trkpt lat="47.07255" lon="5.63635">
        <ele>256</ele>
        <time>2013-07-12T15:32:44Z</time>
      </trkpt>
      <trkpt lat="47.0725" lon="5.63616">
        <ele>256</ele>
        <time>2013-07-12T15:32:46Z</time>
      </trkpt>
      <trkpt lat="47.07246" lon="5.63595">
        <ele>256</ele>
        <time>2013-07-12T15:32:48Z</time>
      </trkpt>
      <trkpt lat="47.07242" lon="5.63574">
        <ele>256</ele>
        <time>2013-07-12T15:32:50Z</time>
      </trkpt>
      <trkpt lat="47.07237" lon="5.63554">
        <ele>250</ele>
        <time>2013-07-12T15:32:52Z</time>
      </trkpt>
      <trkpt lat="47.07233" lon="5.63533">
        <ele>250</ele>
        <time>2013-07-12T15:32:54Z</time>
      </trkpt>
      <trkpt lat="47.07229" lon="5.63511">
        <ele>250</ele>
        <time>2013-07-12T15:32:56Z</time>
      </trkpt>
      <trkpt lat="47.07225" lon="5.63492">
        <ele>250</ele>
        <time>2013-07-12T15:32:58Z</time>
      </trkpt>
      <trkpt lat="47.07221" lon="5.63474">
        <ele>250</ele>
        <time>2013-07-12T15:33:00Z</time>
      </trkpt>
      <trkpt lat="47.07218" lon="5.63455">
        <ele>250</ele>
        <time>2013-07-12T15:33:02Z</time>
      </trkpt>
      <trkpt lat="47.07214" lon="5.63438">
        <ele>250</ele>
        <time>2013-07-12T15:33:04Z</time>
      </trkpt>
      <trkpt lat="47.0721" lon="5.63422">
        <ele>250</ele>
        <time>2013-07-12T15:33:06Z</time>
      </trkpt>
      <trkpt lat="47.07207" lon="5.63404">
        <ele>250</ele>
        <time>2013-07-12T15:33:08Z</time>
      </trkpt>
      <trkpt lat="47.07202" lon="5.63389">
        <ele>250</ele>
        <time>2013-07-12T15:33:10Z</time>
      </trkpt>
      <trkpt lat="47.07197" lon="5.63373">
        <ele>250</ele>
        <time>2013-07-12T15:33:12Z</time>
      </trkpt>
      <trkpt lat="47.07192" lon="5.63358">
        <ele>250</ele>
        <time>2013-07-12T15:33:14Z</time>
      </trkpt>
      <trkpt lat="47.07188" lon="5.63342">
        <ele>250</ele>
        <time>2013-07-12T15:33:16Z</time>
      </trkpt>
      <trkpt lat="47.07185" lon="5.63325">
        <ele>255</ele>
        <time>2013-07-12T15:33:18Z</time>
      </trkpt>
      <trkpt lat="47.0718" lon="5.63311">
        <ele>255</ele>
        <time>2013-07-12T15:33:20Z</time>
      </trkpt>
      <trkpt lat="47.07175" lon="5.63298">
        <ele>255</ele>
        <time>2013-07-12T15:33:22Z</time>
      </trkpt>
      <trkpt lat="47.07172" lon="5.63282">
        <ele>255</ele>
        <time>2013-07-12T15:33:24Z</time>
      </trkpt>
      <trkpt lat="47.07166" lon="5.63269">
        <ele>255</ele>
        <time>2013-07-12T15:33:26Z</time>
      </trkpt>
      <trkpt lat="47.07159" lon="5.63256">
        <ele>264</ele>
        <time>2013-07-12T15:33:28Z</time>
      </trkpt>
      <trkpt lat="47.07156" lon="5.63239">
        <ele>264</ele>
        <time>2013-07-12T15:33:30Z</time>
      </trkpt>
      <trkpt lat="47.07153" lon="5.6322">
        <ele>264</ele>
        <time>2013-07-12T15:33:32Z</time>
      </trkpt>
      <trkpt lat="47.07148" lon="5.63203">
        <ele>264</ele>
        <time>2013-07-12T15:33:34Z</time>
      </trkpt>
      <trkpt lat="47.07146" lon="5.63183">
        <ele>264</ele>
        <time>2013-07-12T15:33:36Z</time>
      </trkpt>
      <trkpt lat="47.07142" lon="5.63164">
        <ele>264</ele>
        <time>2013-07-12T15:33:38Z</time>
      </trkpt>
      <trkpt lat="47.07139" lon="5.63144">
        <ele>264</ele>
        <time>2013-07-12T15:33:40Z</time>
      </trkpt>
      <trkpt lat="47.07136" lon="5.63125">
        <ele>258</ele>
        <time>2013-07-12T15:33:42Z</time>
      </trkpt>
      <trkpt lat="47.07132" lon="5.63107">
        <ele>258</ele>
        <time>2013-07-12T15:33:44Z</time>
      </trkpt>
      <trkpt lat="47.07129" lon="5.63088">
        <ele>258</ele>
        <time>2013-07-12T15:33:46Z</time>
      </trkpt>
      <trkpt lat="47.07126" lon="5.6307">
        <ele>258</ele>
        <time>2013-07-12T15:33:48Z</time>
      </trkpt>
      <trkpt lat="47.07121" lon="5.63051">
        <ele>258</ele>
        <time>2013-07-12T15:33:50Z</time>
      </trkpt>
      <trkpt lat="47.07117" lon="5.63033">
        <ele>258</ele>
        <time>2013-07-12T15:33:52Z</time>
      </trkpt>
      <trkpt lat="47.07113" lon="5.63013">
        <ele>253</ele>
        <time>2013-07-12T15:33:54Z</time>
      </trkpt>
      <trkpt lat="47.07108" lon="5.62995">
        <ele>253</ele>
        <time>2013-07-12T15:33:56Z</time>
      </trkpt>
      <trkpt lat="47.07101" lon="5.62976">
        <ele>253</ele>
        <time>2013-07-12T15:33:58Z</time>
      </trkpt>
      <trkpt lat="47.07094" lon="5.62959">
        <ele>253</ele>
        <time>2013-07-12T15:34:00Z</time>
      </trkpt>
      <trkpt lat="47.07088" lon="5.62939">
        <ele>253</ele>
        <time>2013-07-12T15:34:02Z</time>
      </trkpt>
      <trkpt lat="47.07086" lon="5.62915">
        <ele>253</ele>
        <time>2013-07-12T15:34:04Z</time>
      </trkpt>
      <trkpt lat="47.07082" lon="5.62893">
        <ele>253</ele>
        <time>2013-07-12T15:34:06Z</time>
      </trkpt>
      <trkpt lat="47.07079" lon="5.62871">
        <ele>253</ele>
        <time>2013-07-12T15:34:08Z</time>
      </trkpt>
      <trkpt lat="47.07075" lon="5.6285">
        <ele>246</ele>
        <time>2013-07-12T15:34:10Z</time>
      </trkpt>
      <trkpt lat="47.07073" lon="5.62829">
        <ele>246</ele>
        <time>2013-07-12T15:34:12Z</time>
      </trkpt>
      <trkpt lat="47.07069" lon="5.6281">
        <ele>246</ele>
        <time>2013-07-12T15:34:14Z</time>
      </trkpt>
      <trkpt lat="47.07065" lon="5.62792">
        <ele>246</ele>
        <time>2013-07-12T15:34:16Z</time>
      </trkpt>
      <trkpt lat="47.07061" lon="5.62775">
        <ele>246</ele>
        <time>2013-07-12T15:34:18Z</time>
      </trkpt>
      <trkpt lat="47.07056" lon="5.62758">
        <ele>246</ele>
        <time>2013-07-12T15:34:20Z</time>
      </trkpt>
      <trkpt lat="47.07053" lon="5.62741">
        <ele>246</ele>
        <time>2013-07-12T15:34:22Z</time>
      </trkpt>
      <trkpt lat="47.07049" lon="5.62723">
        <ele>252</ele>
        <time>2013-07-12T15:34:24Z</time>
      </trkpt>
      <trkpt lat="47.07043" lon="5.62708">
        <ele>252</ele>
        <time>2013-07-12T15:34:26Z</time>
      </trkpt>
      <trkpt lat="47.0704" lon="5.6269">
        <ele>252</ele>
        <time>2013-07-12T15:34:28Z</time>
      </trkpt>
      <trkpt lat="47.07036" lon="5.62672">
        <ele>252</ele>
        <time>2013-07-12T15:34:30Z</time>
      </trkpt>
      <trkpt lat="47.07031" lon="5.62654">
        <ele>252</ele>
        <time>2013-07-12T15:34:32Z</time>
      </trkpt>
      <trkpt lat="47.07025" lon="5.62636">
        <ele>252</ele>
        <time>2013-07-12T15:34:34Z</time>
      </trkpt>
      <trkpt lat="47.07021" lon="5.62618">
        <ele>252</ele>
        <time>2013-07-12T15:34:36Z</time>
      </trkpt>
      <trkpt lat="47.07018" lon="5.62596">
        <ele>257</ele>
        <time>2013-07-12T15:34:38Z</time>
      </trkpt>
      <trkpt lat="47.07013" lon="5.62576">
        <ele>262</ele>
        <time>2013-07-12T15:34:40Z</time>
      </trkpt>
      <trkpt lat="47.07009" lon="5.62557">
        <ele>262</ele>
        <time>2013-07-12T15:34:42Z</time>
      </trkpt>
      <trkpt lat="47.07005" lon="5.62538">
        <ele>268</ele>
        <time>2013-07-12T15:34:44Z</time>
      </trkpt>
      <trkpt lat="47.07001" lon="5.62517">
        <ele>268</ele>
        <time>2013-07-12T15:34:46Z</time>
      </trkpt>
      <trkpt lat="47.06996" lon="5.62498">
        <ele>268</ele>
        <time>2013-07-12T15:34:48Z</time>
      </trkpt>
      <trkpt lat="47.06991" lon="5.62481">
        <ele>268</ele>
        <time>2013-07-12T15:34:50Z</time>
      </trkpt>
      <trkpt lat="47.06985" lon="5.62464">
        <ele>268</ele>
        <time>2013-07-12T15:34:52Z</time>
      </trkpt>
      <trkpt lat="47.06981" lon="5.62443">
        <ele>268</ele>
        <time>2013-07-12T15:34:54Z</time>
      </trkpt>
      <trkpt lat="47.06976" lon="5.62425">
        <ele>268</ele>
        <time>2013-07-12T15:34:56Z</time>
      </trkpt>
      <trkpt lat="47.06972" lon="5.62405">
        <ele>262</ele>
        <time>2013-07-12T15:34:58Z</time>
      </trkpt>
      <trkpt lat="47.0697" lon="5.62383">
        <ele>262</ele>
        <time>2013-07-12T15:35:00Z</time>
      </trkpt>
      <trkpt lat="47.06966" lon="5.62362">
        <ele>262</ele>
        <time>2013-07-12T15:35:02Z</time>
      </trkpt>
      <trkpt lat="47.06961" lon="5.62344">
        <ele>262</ele>
        <time>2013-07-12T15:35:04Z</time>
      </trkpt>
      <trkpt lat="47.06957" lon="5.62324">
        <ele>262</ele>
        <time>2013-07-12T15:35:06Z</time>
      </trkpt>
      <trkpt lat="47.06953" lon="5.62304">
        <ele>262</ele>
        <time>2013-07-12T15:35:08Z</time>
      </trkpt>
      <trkpt lat="47.06948" lon="5.62283">
        <ele>262</ele>
        <time>2013-07-12T15:35:10Z</time>
      </trkpt>
      <trkpt lat="47.06945" lon="5.62263">
        <ele>262</ele>
        <time>2013-07-12T15:35:12Z</time>
      </trkpt>
      <trkpt lat="47.0694" lon="5.62243">
        <ele>262</ele>
        <time>2013-07-12T15:35:14Z</time>
      </trkpt>
      <trkpt lat="47.06936" lon="5.62222">
        <ele>262</ele>
        <time>2013-07-12T15:35:16Z</time>
      </trkpt>
      <trkpt lat="47.06932" lon="5.62202">
        <ele>262</ele>
        <time>2013-07-12T15:35:18Z</time>
      </trkpt>
      <trkpt lat="47.06927" lon="5.62182">
        <ele>256</ele>
        <time>2013-07-12T15:35:20Z</time>
      </trkpt>
      <trkpt lat="47.06923" lon="5.62161">
        <ele>256</ele>
        <time>2013-07-12T15:35:22Z</time>
      </trkpt>
      <trkpt lat="47.06918" lon="5.6214">
        <ele>256</ele>
        <time>2013-07-12T15:35:24Z</time>
      </trkpt>
      <trkpt lat="47.06913" lon="5.62116">
        <ele>256</ele>
        <time>2013-07-12T15:35:26Z</time>
      </trkpt>
      <trkpt lat="47.06908" lon="5.62095">
        <ele>256</ele>
        <time>2013-07-12T15:35:28Z</time>
      </trkpt>
      <trkpt lat="47.06904" lon="5.62073">
        <ele>256</ele>
        <time>2013-07-12T15:35:30Z</time>
      </trkpt>
      <trkpt lat="47.06897" lon="5.62052">
        <ele>256</ele>
        <time>2013-07-12T15:35:32Z</time>
      </trkpt>
      <trkpt lat="47.06892" lon="5.6203">
        <ele>256</ele>
        <time>2013-07-12T15:35:34Z</time>
      </trkpt>
      <trkpt lat="47.06887" lon="5.62007">
        <ele>256</ele>
        <time>2013-07-12T15:35:36Z</time>
      </trkpt>
      <trkpt lat="47.06882" lon="5.61984">
        <ele>256</ele>
        <time>2013-07-12T15:35:38Z</time>
      </trkpt>
      <trkpt lat="47.0688" lon="5.61972">
        <ele>251</ele>
        <time>2013-07-12T15:35:39Z</time>
      </trkpt>
      <trkpt lat="47.06875" lon="5.61949">
        <ele>251</ele>
        <time>2013-07-12T15:35:41Z</time>
      </trkpt>
      <trkpt lat="47.0687" lon="5.61928">
        <ele>251</ele>
        <time>2013-07-12T15:35:43Z</time>
      </trkpt>
      <trkpt lat="47.06866" lon="5.61904">
        <ele>251</ele>
        <time>2013-07-12T15:35:45Z</time>
      </trkpt>
      <trkpt lat="47.06861" lon="5.61881">
        <ele>251</ele>
        <time>2013-07-12T15:35:47Z</time>
      </trkpt>
      <trkpt lat="47.06854" lon="5.61859">
        <ele>251</ele>
        <time>2013-07-12T15:35:49Z</time>
      </trkpt>
      <trkpt lat="47.06846" lon="5.61825">
        <ele>251</ele>
        <time>2013-07-12T15:35:52Z</time>
      </trkpt>
      <trkpt lat="47.06845" lon="5.6181">
        <ele>251</ele>
        <time>2013-07-12T15:35:53Z</time>
      </trkpt>
      <trkpt lat="47.06829" lon="5.61757">
        <ele>251</ele>
        <time>2013-07-12T15:35:58Z</time>
      </trkpt>
      <trkpt lat="47.06826" lon="5.61744">
        <ele>246</ele>
        <time>2013-07-12T15:35:59Z</time>
      </trkpt>
      <trkpt lat="47.06823" lon="5.61731">
        <ele>246</ele>
        <time>2013-07-12T15:36:00Z</time>
      </trkpt>
      <trkpt lat="47.06822" lon="5.61715">
        <ele>246</ele>
        <time>2013-07-12T15:36:01Z</time>
      </trkpt>
      <trkpt lat="47.06821" lon="5.617">
        <ele>246</ele>
        <time>2013-07-12T15:36:02Z</time>
      </trkpt>
      <trkpt lat="47.06813" lon="5.61679">
        <ele>251</ele>
        <time>2013-07-12T15:36:04Z</time>
      </trkpt>
      <trkpt lat="47.06805" lon="5.61657">
        <ele>251</ele>
        <time>2013-07-12T15:36:06Z</time>
      </trkpt>
      <trkpt lat="47.06797" lon="5.61637">
        <ele>246</ele>
        <time>2013-07-12T15:36:08Z</time>
      </trkpt>
      <trkpt lat="47.06789" lon="5.61615">
        <ele>240</ele>
        <time>2013-07-12T15:36:10Z</time>
      </trkpt>
      <trkpt lat="47.06782" lon="5.61591">
        <ele>240</ele>
        <time>2013-07-12T15:36:12Z</time>
      </trkpt>
      <trkpt lat="47.0678" lon="5.61576">
        <ele>240</ele>
        <time>2013-07-12T15:36:13Z</time>
      </trkpt>
      <trkpt lat="47.06773" lon="5.61551">
        <ele>240</ele>
        <time>2013-07-12T15:36:15Z</time>
      </trkpt>
      <trkpt lat="47.0677" lon="5.61537">
        <ele>240</ele>
        <time>2013-07-12T15:36:16Z</time>
      </trkpt>
      <trkpt lat="47.06767" lon="5.61523">
        <ele>240</ele>
        <time>2013-07-12T15:36:17Z</time>
      </trkpt>
      <trkpt lat="47.06764" lon="5.61507">
        <ele>240</ele>
        <time>2013-07-12T15:36:18Z</time>
      </trkpt>
      <trkpt lat="47.06762" lon="5.61491">
        <ele>240</ele>
        <time>2013-07-12T15:36:19Z</time>
      </trkpt>
      <trkpt lat="47.06759" lon="5.61475">
        <ele>240</ele>
        <time>2013-07-12T15:36:20Z</time>
      </trkpt>
      <trkpt lat="47.06757" lon="5.61459">
        <ele>240</ele>
        <time>2013-07-12T15:36:21Z</time>
      </trkpt>
      <trkpt lat="47.06754" lon="5.61443">
        <ele>240</ele>
        <time>2013-07-12T15:36:22Z</time>
      </trkpt>
      <trkpt lat="47.06751" lon="5.61426">
        <ele>240</ele>
        <time>2013-07-12T15:36:23Z</time>
      </trkpt>
      <trkpt lat="47.06748" lon="5.6141">
        <ele>240</ele>
        <time>2013-07-12T15:36:24Z</time>
      </trkpt>
      <trkpt lat="47.06745" lon="5.61394">
        <ele>240</ele>
        <time>2013-07-12T15:36:25Z</time>
      </trkpt>
      <trkpt lat="47.06742" lon="5.61378">
        <ele>245</ele>
        <time>2013-07-12T15:36:26Z</time>
      </trkpt>
      <trkpt lat="47.06739" lon="5.61361">
        <ele>245</ele>
        <time>2013-07-12T15:36:27Z</time>
      </trkpt>
      <trkpt lat="47.06736" lon="5.61345">
        <ele>245</ele>
        <time>2013-07-12T15:36:28Z</time>
      </trkpt>
      <trkpt lat="47.06734" lon="5.61329">
        <ele>245</ele>
        <time>2013-07-12T15:36:29Z</time>
      </trkpt>
      <trkpt lat="47.0673" lon="5.61313">
        <ele>245</ele>
        <time>2013-07-12T15:36:30Z</time>
      </trkpt>
      <trkpt lat="47.06721" lon="5.61291">
        <ele>239</ele>
        <time>2013-07-12T15:36:32Z</time>
      </trkpt>
      <trkpt lat="47.06715" lon="5.6128">
        <ele>239</ele>
        <time>2013-07-12T15:36:33Z</time>
      </trkpt>
      <trkpt lat="47.06711" lon="5.61268">
        <ele>231</ele>
        <time>2013-07-12T15:36:34Z</time>
      </trkpt>
      <trkpt lat="47.06705" lon="5.61243">
        <ele>231</ele>
        <time>2013-07-12T15:36:36Z</time>
      </trkpt>
      <trkpt lat="47.06701" lon="5.61231">
        <ele>225</ele>
        <time>2013-07-12T15:36:37Z</time>
      </trkpt>
      <trkpt lat="47.06699" lon="5.61215">
        <ele>225</ele>
        <time>2013-07-12T15:36:38Z</time>
      </trkpt>
      <trkpt lat="47.06697" lon="5.612">
        <ele>225</ele>
        <time>2013-07-12T15:36:39Z</time>
      </trkpt>
      <trkpt lat="47.06694" lon="5.61186">
        <ele>225</ele>
        <time>2013-07-12T15:36:40Z</time>
      </trkpt>
      <trkpt lat="47.06691" lon="5.6117">
        <ele>225</ele>
        <time>2013-07-12T15:36:41Z</time>
      </trkpt>
      <trkpt lat="47.06688" lon="5.61156">
        <ele>225</ele>
        <time>2013-07-12T15:36:42Z</time>
      </trkpt>
      <trkpt lat="47.06686" lon="5.6114">
        <ele>225</ele>
        <time>2013-07-12T15:36:43Z</time>
      </trkpt>
      <trkpt lat="47.06682" lon="5.61124">
        <ele>225</ele>
        <time>2013-07-12T15:36:44Z</time>
      </trkpt>
      <trkpt lat="47.06678" lon="5.61109">
        <ele>225</ele>
        <time>2013-07-12T15:36:45Z</time>
      </trkpt>
      <trkpt lat="47.06673" lon="5.61096">
        <ele>218</ele>
        <time>2013-07-12T15:36:46Z</time>
      </trkpt>
      <trkpt lat="47.06669" lon="5.61081">
        <ele>218</ele>
        <time>2013-07-12T15:36:47Z</time>
      </trkpt>
      <trkpt lat="47.06665" lon="5.61067">
        <ele>218</ele>
        <time>2013-07-12T15:36:48Z</time>
      </trkpt>
      <trkpt lat="47.0666" lon="5.61052">
        <ele>218</ele>
        <time>2013-07-12T15:36:49Z</time>
      </trkpt>
      <trkpt lat="47.06657" lon="5.61037">
        <ele>218</ele>
        <time>2013-07-12T15:36:50Z</time>
      </trkpt>
      <trkpt lat="47.06654" lon="5.61022">
        <ele>218</ele>
        <time>2013-07-12T15:36:51Z</time>
      </trkpt>
      <trkpt lat="47.06649" lon="5.61009">
        <ele>218</ele>
        <time>2013-07-12T15:36:52Z</time>
      </trkpt>
      <trkpt lat="47.06644" lon="5.60995">
        <ele>212</ele>
        <time>2013-07-12T15:36:53Z</time>
      </trkpt>
      <trkpt lat="47.0664" lon="5.6098">
        <ele>212</ele>
        <time>2013-07-12T15:36:54Z</time>
      </trkpt>
      <trkpt lat="47.06637" lon="5.60964">
        <ele>212</ele>
        <time>2013-07-12T15:36:55Z</time>
      </trkpt>
      <trkpt lat="47.06633" lon="5.60949">
        <ele>212</ele>
        <time>2013-07-12T15:36:56Z</time>
      </trkpt>
      <trkpt lat="47.0663" lon="5.60934">
        <ele>212</ele>
        <time>2013-07-12T15:36:57Z</time>
      </trkpt>
      <trkpt lat="47.06627" lon="5.60918">
        <ele>212</ele>
        <time>2013-07-12T15:36:58Z</time>
      </trkpt>
      <trkpt lat="47.06623" lon="5.60904">
        <ele>212</ele>
        <time>2013-07-12T15:36:59Z</time>
      </trkpt>
      <trkpt lat="47.06621" lon="5.60887">
        <ele>212</ele>
        <time>2013-07-12T15:37:00Z</time>
      </trkpt>
      <trkpt lat="47.06617" lon="5.60872">
        <ele>212</ele>
        <time>2013-07-12T15:37:01Z</time>
      </trkpt>
      <trkpt lat="47.06614" lon="5.60857">
        <ele>212</ele>
        <time>2013-07-12T15:37:02Z</time>
      </trkpt>
      <trkpt lat="47.06611" lon="5.60842">
        <ele>212</ele>
        <time>2013-07-12T15:37:03Z</time>
      </trkpt>
      <trkpt lat="47.06608" lon="5.60826">
        <ele>212</ele>
        <time>2013-07-12T15:37:04Z</time>
      </trkpt>
      <trkpt lat="47.06605" lon="5.60811">
        <ele>207</ele>
        <time>2013-07-12T15:37:05Z</time>
      </trkpt>
      <trkpt lat="47.06602" lon="5.60796">
        <ele>207</ele>
        <time>2013-07-12T15:37:06Z</time>
      </trkpt>
      <trkpt lat="47.06599" lon="5.60781">
        <ele>207</ele>
        <time>2013-07-12T15:37:07Z</time>
      </trkpt>
      <trkpt lat="47.06597" lon="5.60764">
        <ele>207</ele>
        <time>2013-07-12T15:37:08Z</time>
      </trkpt>
      <trkpt lat="47.06595" lon="5.60748">
        <ele>207</ele>
        <time>2013-07-12T15:37:09Z</time>
      </trkpt>
      <trkpt lat="47.06593" lon="5.60733">
        <ele>201</ele>
        <time>2013-07-12T15:37:10Z</time>
      </trkpt>
      <trkpt lat="47.0659" lon="5.60718">
        <ele>201</ele>
        <time>2013-07-12T15:37:11Z</time>
      </trkpt>
      <trkpt lat="47.06588" lon="5.60701">
        <ele>201</ele>
        <time>2013-07-12T15:37:12Z</time>
      </trkpt>
      <trkpt lat="47.06584" lon="5.60686">
        <ele>201</ele>
        <time>2013-07-12T15:37:13Z</time>
      </trkpt>
      <trkpt lat="47.0658" lon="5.60674">
        <ele>201</ele>
        <time>2013-07-12T15:37:14Z</time>
      </trkpt>
      <trkpt lat="47.06575" lon="5.60661">
        <ele>201</ele>
        <time>2013-07-12T15:37:15Z</time>
      </trkpt>
      <trkpt lat="47.06571" lon="5.60648">
        <ele>201</ele>
        <time>2013-07-12T15:37:16Z</time>
      </trkpt>
      <trkpt lat="47.06569" lon="5.60632">
        <ele>209</ele>
        <time>2013-07-12T15:37:17Z</time>
      </trkpt>
      <trkpt lat="47.06566" lon="5.60617">
        <ele>209</ele>
        <time>2013-07-12T15:37:18Z</time>
      </trkpt>
      <trkpt lat="47.06564" lon="5.60602">
        <ele>209</ele>
        <time>2013-07-12T15:37:19Z</time>
      </trkpt>
      <trkpt lat="47.06561" lon="5.60586">
        <ele>209</ele>
        <time>2013-07-12T15:37:20Z</time>
      </trkpt>
      <trkpt lat="47.06559" lon="5.6057">
        <ele>214</ele>
        <time>2013-07-12T15:37:21Z</time>
      </trkpt>
      <trkpt lat="47.06557" lon="5.60555">
        <ele>214</ele>
        <time>2013-07-12T15:37:22Z</time>
      </trkpt>
      <trkpt lat="47.06555" lon="5.60539">
        <ele>214</ele>
        <time>2013-07-12T15:37:23Z</time>
      </trkpt>
      <trkpt lat="47.06552" lon="5.60526">
        <ele>214</ele>
        <time>2013-07-12T15:37:24Z</time>
      </trkpt>
      <trkpt lat="47.06543" lon="5.60506">
        <ele>219</ele>
        <time>2013-07-12T15:37:26Z</time>
      </trkpt>
      <trkpt lat="47.06541" lon="5.60493">
        <ele>219</ele>
        <time>2013-07-12T15:37:27Z</time>
      </trkpt>
      <trkpt lat="47.06536" lon="5.60472">
        <ele>219</ele>
        <time>2013-07-12T15:37:29Z</time>
      </trkpt>
      <trkpt lat="47.06533" lon="5.60449">
        <ele>219</ele>
        <time>2013-07-12T15:37:31Z</time>
      </trkpt>
      <trkpt lat="47.0653" lon="5.60428">
        <ele>225</ele>
        <time>2013-07-12T15:37:33Z</time>
      </trkpt>
      <trkpt lat="47.06527" lon="5.6041">
        <ele>225</ele>
        <time>2013-07-12T15:37:35Z</time>
      </trkpt>
      <trkpt lat="47.06525" lon="5.60392">
        <ele>233</ele>
        <time>2013-07-12T15:37:37Z</time>
      </trkpt>
      <trkpt lat="47.06522" lon="5.60376">
        <ele>233</ele>
        <time>2013-07-12T15:37:39Z</time>
      </trkpt>
      <trkpt lat="47.06518" lon="5.60361">
        <ele>239</ele>
        <time>2013-07-12T15:37:41Z</time>
      </trkpt>
      <trkpt lat="47.06514" lon="5.60346">
        <ele>239</ele>
        <time>2013-07-12T15:37:43Z</time>
      </trkpt>
      <trkpt lat="47.06511" lon="5.6033">
        <ele>247</ele>
        <time>2013-07-12T15:37:45Z</time>
      </trkpt>
      <trkpt lat="47.06506" lon="5.60316">
        <ele>247</ele>
        <time>2013-07-12T15:37:47Z</time>
      </trkpt>
      <trkpt lat="47.06501" lon="5.60304">
        <ele>254</ele>
        <time>2013-07-12T15:37:49Z</time>
      </trkpt>
      <trkpt lat="47.06496" lon="5.60292">
        <ele>254</ele>
        <time>2013-07-12T15:37:51Z</time>
      </trkpt>
      <trkpt lat="47.06492" lon="5.60279">
        <ele>259</ele>
        <time>2013-07-12T15:37:53Z</time>
      </trkpt>
      <trkpt lat="47.06489" lon="5.60266">
        <ele>259</ele>
        <time>2013-07-12T15:37:55Z</time>
      </trkpt>
      <trkpt lat="47.06488" lon="5.60251">
        <ele>259</ele>
        <time>2013-07-12T15:37:57Z</time>
      </trkpt>
      <trkpt lat="47.06485" lon="5.60236">
        <ele>259</ele>
        <time>2013-07-12T15:37:59Z</time>
      </trkpt>
      <trkpt lat="47.06481" lon="5.60222">
        <ele>259</ele>
        <time>2013-07-12T15:38:01Z</time>
      </trkpt>
      <trkpt lat="47.06478" lon="5.60204">
        <ele>259</ele>
        <time>2013-07-12T15:38:03Z</time>
      </trkpt>
      <trkpt lat="47.06474" lon="5.60184">
        <ele>254</ele>
        <time>2013-07-12T15:38:05Z</time>
      </trkpt>
      <trkpt lat="47.0647" lon="5.60163">
        <ele>254</ele>
        <time>2013-07-12T15:38:07Z</time>
      </trkpt>
      <trkpt lat="47.06463" lon="5.60141">
        <ele>254</ele>
        <time>2013-07-12T15:38:09Z</time>
      </trkpt>
      <trkpt lat="47.06459" lon="5.6012">
        <ele>254</ele>
        <time>2013-07-12T15:38:11Z</time>
      </trkpt>
      <trkpt lat="47.06455" lon="5.60099">
        <ele>254</ele>
        <time>2013-07-12T15:38:13Z</time>
      </trkpt>
      <trkpt lat="47.06451" lon="5.60074">
        <ele>254</ele>
        <time>2013-07-12T15:38:15Z</time>
      </trkpt>
      <trkpt lat="47.06445" lon="5.60051">
        <ele>254</ele>
        <time>2013-07-12T15:38:17Z</time>
      </trkpt>
      <trkpt lat="47.06438" lon="5.6003">
        <ele>254</ele>
        <time>2013-07-12T15:38:19Z</time>
      </trkpt>
      <trkpt lat="47.06433" lon="5.60008">
        <ele>248</ele>
        <time>2013-07-12T15:38:21Z</time>
      </trkpt>
      <trkpt lat="47.06427" lon="5.59988">
        <ele>248</ele>
        <time>2013-07-12T15:38:23Z</time>
      </trkpt>
      <trkpt lat="47.06424" lon="5.59967">
        <ele>248</ele>
        <time>2013-07-12T15:38:25Z</time>
      </trkpt>
      <trkpt lat="47.0642" lon="5.59947">
        <ele>248</ele>
        <time>2013-07-12T15:38:27Z</time>
      </trkpt>
      <trkpt lat="47.06417" lon="5.59928">
        <ele>248</ele>
        <time>2013-07-12T15:38:29Z</time>
      </trkpt>
      <trkpt lat="47.06414" lon="5.59909">
        <ele>248</ele>
        <time>2013-07-12T15:38:31Z</time>
      </trkpt>
      <trkpt lat="47.0641" lon="5.59891">
        <ele>248</ele>
        <time>2013-07-12T15:38:33Z</time>
      </trkpt>
      <trkpt lat="47.06406" lon="5.59874">
        <ele>248</ele>
        <time>2013-07-12T15:38:35Z</time>
      </trkpt>
      <trkpt lat="47.06403" lon="5.59857">
        <ele>248</ele>
        <time>2013-07-12T15:38:37Z</time>
      </trkpt>
      <trkpt lat="47.06397" lon="5.59842">
        <ele>248</ele>
        <time>2013-07-12T15:38:39Z</time>
      </trkpt>
      <trkpt lat="47.06392" lon="5.59827">
        <ele>248</ele>
        <time>2013-07-12T15:38:41Z</time>
      </trkpt>
      <trkpt lat="47.06387" lon="5.59812">
        <ele>248</ele>
        <time>2013-07-12T15:38:43Z</time>
      </trkpt>
      <trkpt lat="47.06384" lon="5.59795">
        <ele>248</ele>
        <time>2013-07-12T15:38:45Z</time>
      </trkpt>
      <trkpt lat="47.06378" lon="5.59781">
        <ele>248</ele>
        <time>2013-07-12T15:38:47Z</time>
      </trkpt>
      <trkpt lat="47.06375" lon="5.59764">
        <ele>248</ele>
        <time>2013-07-12T15:38:49Z</time>
      </trkpt>
      <trkpt lat="47.06373" lon="5.59747">
        <ele>248</ele>
        <time>2013-07-12T15:38:51Z</time>
      </trkpt>
      <trkpt lat="47.0637" lon="5.5973">
        <ele>248</ele>
        <time>2013-07-12T15:38:53Z</time>
      </trkpt>
      <trkpt lat="47.06366" lon="5.59713">
        <ele>248</ele>
        <time>2013-07-12T15:38:55Z</time>
      </trkpt>
      <trkpt lat="47.06363" lon="5.59698">
        <ele>248</ele>
        <time>2013-07-12T15:38:57Z</time>
      </trkpt>
      <trkpt lat="47.06359" lon="5.59684">
        <ele>248</ele>
        <time>2013-07-12T15:38:59Z</time>
      </trkpt>
      <trkpt lat="47.06355" lon="5.59668">
        <ele>257</ele>
        <time>2013-07-12T15:39:01Z</time>
      </trkpt>
      <trkpt lat="47.06351" lon="5.59652">
        <ele>257</ele>
        <time>2013-07-12T15:39:03Z</time>
      </trkpt>
      <trkpt lat="47.06349" lon="5.59635">
        <ele>257</ele>
        <time>2013-07-12T15:39:05Z</time>
      </trkpt>
      <trkpt lat="47.06348" lon="5.59618">
        <ele>263</ele>
        <time>2013-07-12T15:39:07Z</time>
      </trkpt>
      <trkpt lat="47.06345" lon="5.59602">
        <ele>263</ele>
        <time>2013-07-12T15:39:09Z</time>
      </trkpt>
      <trkpt lat="47.06343" lon="5.59585">
        <ele>263</ele>
        <time>2013-07-12T15:39:11Z</time>
      </trkpt>
      <trkpt lat="47.06339" lon="5.5957">
        <ele>263</ele>
        <time>2013-07-12T15:39:13Z</time>
      </trkpt>
      <trkpt lat="47.06335" lon="5.59555">
        <ele>263</ele>
        <time>2013-07-12T15:39:15Z</time>
      </trkpt>
      <trkpt lat="47.06332" lon="5.59539">
        <ele>263</ele>
        <time>2013-07-12T15:39:17Z</time>
      </trkpt>
      <trkpt lat="47.0633" lon="5.59522">
        <ele>263</ele>
        <time>2013-07-12T15:39:19Z</time>
      </trkpt>
      <trkpt lat="47.06327" lon="5.59504">
        <ele>255</ele>
        <time>2013-07-12T15:39:21Z</time>
      </trkpt>
      <trkpt lat="47.06323" lon="5.59485">
        <ele>255</ele>
        <time>2013-07-12T15:39:23Z</time>
      </trkpt>
      <trkpt lat="47.06318" lon="5.59465">
        <ele>255</ele>
        <time>2013-07-12T15:39:25Z</time>
      </trkpt>
      <trkpt lat="47.06312" lon="5.59445">
        <ele>249</ele>
        <time>2013-07-12T15:39:27Z</time>
      </trkpt>
      <trkpt lat="47.06308" lon="5.59421">
        <ele>249</ele>
        <time>2013-07-12T15:39:29Z</time>
      </trkpt>
      <trkpt lat="47.06304" lon="5.594">
        <ele>249</ele>
        <time>2013-07-12T15:39:31Z</time>
      </trkpt>
      <trkpt lat="47.06299" lon="5.59379">
        <ele>249</ele>
        <time>2013-07-12T15:39:33Z</time>
      </trkpt>
      <trkpt lat="47.06294" lon="5.59359">
        <ele>249</ele>
        <time>2013-07-12T15:39:35Z</time>
      </trkpt>
      <trkpt lat="47.06289" lon="5.59341">
        <ele>249</ele>
        <time>2013-07-12T15:39:37Z</time>
      </trkpt>
      <trkpt lat="47.06286" lon="5.5932">
        <ele>244</ele>
        <time>2013-07-12T15:39:39Z</time>
      </trkpt>
      <trkpt lat="47.06282" lon="5.59299">
        <ele>244</ele>
        <time>2013-07-12T15:39:41Z</time>
      </trkpt>
      <trkpt lat="47.06278" lon="5.59279">
        <ele>244</ele>
        <time>2013-07-12T15:39:43Z</time>
      </trkpt>
      <trkpt lat="47.06273" lon="5.59261">
        <ele>244</ele>
        <time>2013-07-12T15:39:45Z</time>
      </trkpt>
      <trkpt lat="47.06268" lon="5.59242">
        <ele>244</ele>
        <time>2013-07-12T15:39:47Z</time>
      </trkpt>
      <trkpt lat="47.06263" lon="5.59223">
        <ele>244</ele>
        <time>2013-07-12T15:39:49Z</time>
      </trkpt>
      <trkpt lat="47.06258" lon="5.59203">
        <ele>244</ele>
        <time>2013-07-12T15:39:51Z</time>
      </trkpt>
      <trkpt lat="47.06254" lon="5.59184">
        <ele>244</ele>
        <time>2013-07-12T15:39:53Z</time>
      </trkpt>
      <trkpt lat="47.0625" lon="5.59165">
        <ele>244</ele>
        <time>2013-07-12T15:39:55Z</time>
      </trkpt>
      <trkpt lat="47.06245" lon="5.59147">
        <ele>244</ele>
        <time>2013-07-12T15:39:57Z</time>
      </trkpt>
      <trkpt lat="47.06241" lon="5.59127">
        <ele>244</ele>
        <time>2013-07-12T15:39:59Z</time>
      </trkpt>
      <trkpt lat="47.06237" lon="5.59107">
        <ele>244</ele>
        <time>2013-07-12T15:40:01Z</time>
      </trkpt>
      <trkpt lat="47.06233" lon="5.59086">
        <ele>244</ele>
        <time>2013-07-12T15:40:03Z</time>
      </trkpt>
      <trkpt lat="47.06229" lon="5.59065">
        <ele>244</ele>
        <time>2013-07-12T15:40:05Z</time>
      </trkpt>
      <trkpt lat="47.06224" lon="5.59042">
        <ele>244</ele>
        <time>2013-07-12T15:40:07Z</time>
      </trkpt>
      <trkpt lat="47.0622" lon="5.5902">
        <ele>244</ele>
        <time>2013-07-12T15:40:09Z</time>
      </trkpt>
      <trkpt lat="47.06217" lon="5.59007">
        <ele>244</ele>
        <time>2013-07-12T15:40:10Z</time>
      </trkpt>
      <trkpt lat="47.06211" lon="5.58985">
        <ele>244</ele>
        <time>2013-07-12T15:40:12Z</time>
      </trkpt>
      <trkpt lat="47.06206" lon="5.58962">
        <ele>244</ele>
        <time>2013-07-12T15:40:14Z</time>
      </trkpt>
      <trkpt lat="47.062" lon="5.5894">
        <ele>244</ele>
        <time>2013-07-12T15:40:16Z</time>
      </trkpt>
      <trkpt lat="47.06195" lon="5.58917">
        <ele>244</ele>
        <time>2013-07-12T15:40:18Z</time>
      </trkpt>
      <trkpt lat="47.0619" lon="5.58895">
        <ele>244</ele>
        <time>2013-07-12T15:40:20Z</time>
      </trkpt>
      <trkpt lat="47.06185" lon="5.58872">
        <ele>244</ele>
        <time>2013-07-12T15:40:22Z</time>
      </trkpt>
      <trkpt lat="47.0618" lon="5.58849">
        <ele>244</ele>
        <time>2013-07-12T15:40:24Z</time>
      </trkpt>
      <trkpt lat="47.06176" lon="5.58828">
        <ele>244</ele>
        <time>2013-07-12T15:40:26Z</time>
      </trkpt>
      <trkpt lat="47.06171" lon="5.58807">
        <ele>244</ele>
        <time>2013-07-12T15:40:28Z</time>
      </trkpt>
      <trkpt lat="47.06165" lon="5.58788">
        <ele>244</ele>
        <time>2013-07-12T15:40:30Z</time>
      </trkpt>
      <trkpt lat="47.0616" lon="5.58767">
        <ele>244</ele>
        <time>2013-07-12T15:40:32Z</time>
      </trkpt>
      <trkpt lat="47.06156" lon="5.58748">
        <ele>244</ele>
        <time>2013-07-12T15:40:34Z</time>
      </trkpt>
      <trkpt lat="47.06152" lon="5.58729">
        <ele>244</ele>
        <time>2013-07-12T15:40:36Z</time>
      </trkpt>
      <trkpt lat="47.06149" lon="5.5871">
        <ele>244</ele>
        <time>2013-07-12T15:40:38Z</time>
      </trkpt>
      <trkpt lat="47.06144" lon="5.58691">
        <ele>244</ele>
        <time>2013-07-12T15:40:40Z</time>
      </trkpt>
      <trkpt lat="47.0614" lon="5.58671">
        <ele>244</ele>
        <time>2013-07-12T15:40:42Z</time>
      </trkpt>
      <trkpt lat="47.06136" lon="5.5865">
        <ele>244</ele>
        <time>2013-07-12T15:40:44Z</time>
      </trkpt>
      <trkpt lat="47.0613" lon="5.58631">
        <ele>244</ele>
        <time>2013-07-12T15:40:46Z</time>
      </trkpt>
      <trkpt lat="47.06125" lon="5.58611">
        <ele>244</ele>
        <time>2013-07-12T15:40:48Z</time>
      </trkpt>
      <trkpt lat="47.0612" lon="5.58591">
        <ele>244</ele>
        <time>2013-07-12T15:40:50Z</time>
      </trkpt>
      <trkpt lat="47.06114" lon="5.58572">
        <ele>244</ele>
        <time>2013-07-12T15:40:52Z</time>
      </trkpt>
      <trkpt lat="47.06111" lon="5.58552">
        <ele>244</ele>
        <time>2013-07-12T15:40:54Z</time>
      </trkpt>
      <trkpt lat="47.06106" lon="5.58531">
        <ele>244</ele>
        <time>2013-07-12T15:40:56Z</time>
      </trkpt>
      <trkpt lat="47.06101" lon="5.58511">
        <ele>244</ele>
        <time>2013-07-12T15:40:58Z</time>
      </trkpt>
      <trkpt lat="47.06096" lon="5.58492">
        <ele>244</ele>
        <time>2013-07-12T15:41:00Z</time>
      </trkpt>
      <trkpt lat="47.06092" lon="5.58472">
        <ele>244</ele>
        <time>2013-07-12T15:41:02Z</time>
      </trkpt>
      <trkpt lat="47.06089" lon="5.58453">
        <ele>244</ele>
        <time>2013-07-12T15:41:04Z</time>
      </trkpt>
      <trkpt lat="47.06085" lon="5.58435">
        <ele>237</ele>
        <time>2013-07-12T15:41:06Z</time>
      </trkpt>
      <trkpt lat="47.06082" lon="5.58414">
        <ele>237</ele>
        <time>2013-07-12T15:41:08Z</time>
      </trkpt>
      <trkpt lat="47.06078" lon="5.58395">
        <ele>237</ele>
        <time>2013-07-12T15:41:10Z</time>
      </trkpt>
      <trkpt lat="47.06074" lon="5.58373">
        <ele>237</ele>
        <time>2013-07-12T15:41:12Z</time>
      </trkpt>
      <trkpt lat="47.06069" lon="5.58353">
        <ele>237</ele>
        <time>2013-07-12T15:41:14Z</time>
      </trkpt>
      <trkpt lat="47.06064" lon="5.58334">
        <ele>237</ele>
        <time>2013-07-12T15:41:16Z</time>
      </trkpt>
      <trkpt lat="47.0606" lon="5.58315">
        <ele>237</ele>
        <time>2013-07-12T15:41:18Z</time>
      </trkpt>
      <trkpt lat="47.06053" lon="5.58297">
        <ele>237</ele>
        <time>2013-07-12T15:41:20Z</time>
      </trkpt>
      <trkpt lat="47.06048" lon="5.58276">
        <ele>242</ele>
        <time>2013-07-12T15:41:22Z</time>
      </trkpt>
      <trkpt lat="47.0604" lon="5.5826">
        <ele>242</ele>
        <time>2013-07-12T15:41:24Z</time>
      </trkpt>
      <trkpt lat="47.06037" lon="5.58238">
        <ele>242</ele>
        <time>2013-07-12T15:41:26Z</time>
      </trkpt>
      <trkpt lat="47.06035" lon="5.58215">
        <ele>242</ele>
        <time>2013-07-12T15:41:28Z</time>
      </trkpt>
      <trkpt lat="47.06031" lon="5.58193">
        <ele>242</ele>
        <time>2013-07-12T15:41:30Z</time>
      </trkpt>
      <trkpt lat="47.06028" lon="5.58173">
        <ele>242</ele>
        <time>2013-07-12T15:41:32Z</time>
      </trkpt>
      <trkpt lat="47.06023" lon="5.58152">
        <ele>242</ele>
        <time>2013-07-12T15:41:34Z</time>
      </trkpt>
      <trkpt lat="47.06018" lon="5.58133">
        <ele>242</ele>
        <time>2013-07-12T15:41:36Z</time>
      </trkpt>
      <trkpt lat="47.06014" lon="5.58113">
        <ele>242</ele>
        <time>2013-07-12T15:41:38Z</time>
      </trkpt>
      <trkpt lat="47.0601" lon="5.58092">
        <ele>242</ele>
        <time>2013-07-12T15:41:40Z</time>
      </trkpt>
      <trkpt lat="47.06004" lon="5.58073">
        <ele>242</ele>
        <time>2013-07-12T15:41:42Z</time>
      </trkpt>
      <trkpt lat="47.05999" lon="5.58052">
        <ele>248</ele>
        <time>2013-07-12T15:41:44Z</time>
      </trkpt>
      <trkpt lat="47.05995" lon="5.58033">
        <ele>248</ele>
        <time>2013-07-12T15:41:46Z</time>
      </trkpt>
      <trkpt lat="47.0599" lon="5.58012">
        <ele>248</ele>
        <time>2013-07-12T15:41:48Z</time>
      </trkpt>
      <trkpt lat="47.05983" lon="5.57992">
        <ele>254</ele>
        <time>2013-07-12T15:41:50Z</time>
      </trkpt>
      <trkpt lat="47.05977" lon="5.57972">
        <ele>254</ele>
        <time>2013-07-12T15:41:52Z</time>
      </trkpt>
      <trkpt lat="47.05972" lon="5.5795">
        <ele>246</ele>
        <time>2013-07-12T15:41:54Z</time>
      </trkpt>
      <trkpt lat="47.05967" lon="5.57929">
        <ele>246</ele>
        <time>2013-07-12T15:41:56Z</time>
      </trkpt>
      <trkpt lat="47.05964" lon="5.57917">
        <ele>240</ele>
        <time>2013-07-12T15:41:57Z</time>
      </trkpt>
      <trkpt lat="47.05958" lon="5.57895">
        <ele>240</ele>
        <time>2013-07-12T15:41:59Z</time>
      </trkpt>
      <trkpt lat="47.05952" lon="5.57874">
        <ele>240</ele>
        <time>2013-07-12T15:42:01Z</time>
      </trkpt>
      <trkpt lat="47.05946" lon="5.57849">
        <ele>240</ele>
        <time>2013-07-12T15:42:03Z</time>
      </trkpt>
      <trkpt lat="47.05944" lon="5.57836">
        <ele>240</ele>
        <time>2013-07-12T15:42:04Z</time>
      </trkpt>
      <trkpt lat="47.05942" lon="5.57823">
        <ele>240</ele>
        <time>2013-07-12T15:42:05Z</time>
      </trkpt>
      <trkpt lat="47.05935" lon="5.57801">
        <ele>240</ele>
        <time>2013-07-12T15:42:07Z</time>
      </trkpt>
      <trkpt lat="47.05922" lon="5.57741">
        <ele>234</ele>
        <time>2013-07-12T15:42:12Z</time>
      </trkpt>
      <trkpt lat="47.05923" lon="5.57724">
        <ele>234</ele>
        <time>2013-07-12T15:42:13Z</time>
      </trkpt>
      <trkpt lat="47.05921" lon="5.5771">
        <ele>234</ele>
        <time>2013-07-12T15:42:14Z</time>
      </trkpt>
      <trkpt lat="47.05918" lon="5.57698">
        <ele>234</ele>
        <time>2013-07-12T15:42:15Z</time>
      </trkpt>
      <trkpt lat="47.05912" lon="5.57677">
        <ele>234</ele>
        <time>2013-07-12T15:42:17Z</time>
      </trkpt>
      <trkpt lat="47.05907" lon="5.57657">
        <ele>234</ele>
        <time>2013-07-12T15:42:19Z</time>
      </trkpt>
      <trkpt lat="47.05901" lon="5.57639">
        <ele>234</ele>
        <time>2013-07-12T15:42:21Z</time>
      </trkpt>
      <trkpt lat="47.05894" lon="5.57619">
        <ele>240</ele>
        <time>2013-07-12T15:42:23Z</time>
      </trkpt>
      <trkpt lat="47.0589" lon="5.576">
        <ele>240</ele>
        <time>2013-07-12T15:42:25Z</time>
      </trkpt>
      <trkpt lat="47.05883" lon="5.57584">
        <ele>240</ele>
        <time>2013-07-12T15:42:27Z</time>
      </trkpt>
      <trkpt lat="47.05874" lon="5.57572">
        <ele>240</ele>
        <time>2013-07-12T15:42:29Z</time>
      </trkpt>
      <trkpt lat="47.05867" lon="5.57548">
        <ele>240</ele>
        <time>2013-07-12T15:42:31Z</time>
      </trkpt>
      <trkpt lat="47.05863" lon="5.57524">
        <ele>231</ele>
        <time>2013-07-12T15:42:33Z</time>
      </trkpt>
      <trkpt lat="47.05862" lon="5.5751">
        <ele>231</ele>
        <time>2013-07-12T15:42:34Z</time>
      </trkpt>
      <trkpt lat="47.05861" lon="5.57495">
        <ele>231</ele>
        <time>2013-07-12T15:42:35Z</time>
      </trkpt>
      <trkpt lat="47.05859" lon="5.57482">
        <ele>231</ele>
        <time>2013-07-12T15:42:36Z</time>
      </trkpt>
      <trkpt lat="47.05858" lon="5.57468">
        <ele>231</ele>
        <time>2013-07-12T15:42:37Z</time>
      </trkpt>
      <trkpt lat="47.05855" lon="5.57443">
        <ele>231</ele>
        <time>2013-07-12T15:42:39Z</time>
      </trkpt>
      <trkpt lat="47.0585" lon="5.57423">
        <ele>231</ele>
        <time>2013-07-12T15:42:41Z</time>
      </trkpt>
      <trkpt lat="47.05841" lon="5.57406">
        <ele>231</ele>
        <time>2013-07-12T15:42:43Z</time>
      </trkpt>
      <trkpt lat="47.05837" lon="5.57383">
        <ele>231</ele>
        <time>2013-07-12T15:42:45Z</time>
      </trkpt>
      <trkpt lat="47.05834" lon="5.57362">
        <ele>231</ele>
        <time>2013-07-12T15:42:47Z</time>
      </trkpt>
      <trkpt lat="47.05826" lon="5.57343">
        <ele>231</ele>
        <time>2013-07-12T15:42:49Z</time>
      </trkpt>
      <trkpt lat="47.05823" lon="5.57321">
        <ele>231</ele>
        <time>2013-07-12T15:42:51Z</time>
      </trkpt>
      <trkpt lat="47.0582" lon="5.57301">
        <ele>231</ele>
        <time>2013-07-12T15:42:53Z</time>
      </trkpt>
      <trkpt lat="47.05816" lon="5.57285">
        <ele>231</ele>
        <time>2013-07-12T15:42:55Z</time>
      </trkpt>
      <trkpt lat="47.0581" lon="5.57268">
        <ele>231</ele>
        <time>2013-07-12T15:42:57Z</time>
      </trkpt>
      <trkpt lat="47.05807" lon="5.57247">
        <ele>224</ele>
        <time>2013-07-12T15:42:59Z</time>
      </trkpt>
      <trkpt lat="47.05803" lon="5.5723">
        <ele>224</ele>
        <time>2013-07-12T15:43:01Z</time>
      </trkpt>
      <trkpt lat="47.05801" lon="5.5721">
        <ele>232</ele>
        <time>2013-07-12T15:43:03Z</time>
      </trkpt>
      <trkpt lat="47.05797" lon="5.57193">
        <ele>232</ele>
        <time>2013-07-12T15:43:05Z</time>
      </trkpt>
      <trkpt lat="47.05794" lon="5.57177">
        <ele>232</ele>
        <time>2013-07-12T15:43:07Z</time>
      </trkpt>
      <trkpt lat="47.05788" lon="5.57164">
        <ele>232</ele>
        <time>2013-07-12T15:43:09Z</time>
      </trkpt>
      <trkpt lat="47.05783" lon="5.57149">
        <ele>226</ele>
        <time>2013-07-12T15:43:11Z</time>
      </trkpt>
      <trkpt lat="47.05778" lon="5.57132">
        <ele>226</ele>
        <time>2013-07-12T15:43:13Z</time>
      </trkpt>
      <trkpt lat="47.05775" lon="5.57114">
        <ele>220</ele>
        <time>2013-07-12T15:43:15Z</time>
      </trkpt>
      <trkpt lat="47.05773" lon="5.57095">
        <ele>220</ele>
        <time>2013-07-12T15:43:17Z</time>
      </trkpt>
      <trkpt lat="47.0577" lon="5.57075">
        <ele>220</ele>
        <time>2013-07-12T15:43:19Z</time>
      </trkpt>
      <trkpt lat="47.05765" lon="5.57057">
        <ele>220</ele>
        <time>2013-07-12T15:43:21Z</time>
      </trkpt>
      <trkpt lat="47.05761" lon="5.57039">
        <ele>220</ele>
        <time>2013-07-12T15:43:23Z</time>
      </trkpt>
      <trkpt lat="47.05757" lon="5.57018">
        <ele>220</ele>
        <time>2013-07-12T15:43:25Z</time>
      </trkpt>
      <trkpt lat="47.05753" lon="5.57">
        <ele>220</ele>
        <time>2013-07-12T15:43:27Z</time>
      </trkpt>
      <trkpt lat="47.05748" lon="5.56982">
        <ele>220</ele>
        <time>2013-07-12T15:43:29Z</time>
      </trkpt>
      <trkpt lat="47.05742" lon="5.56965">
        <ele>220</ele>
        <time>2013-07-12T15:43:31Z</time>
      </trkpt>
      <trkpt lat="47.05735" lon="5.56949">
        <ele>215</ele>
        <time>2013-07-12T15:43:33Z</time>
      </trkpt>
      <trkpt lat="47.05729" lon="5.56933">
        <ele>215</ele>
        <time>2013-07-12T15:43:35Z</time>
      </trkpt>
      <trkpt lat="47.05726" lon="5.56915">
        <ele>215</ele>
        <time>2013-07-12T15:43:37Z</time>
      </trkpt>
      <trkpt lat="47.05721" lon="5.56895">
        <ele>208</ele>
        <time>2013-07-12T15:43:39Z</time>
      </trkpt>
      <trkpt lat="47.05718" lon="5.56876">
        <ele>208</ele>
        <time>2013-07-12T15:43:41Z</time>
      </trkpt>
      <trkpt lat="47.05712" lon="5.56856">
        <ele>208</ele>
        <time>2013-07-12T15:43:43Z</time>
      </trkpt>
      <trkpt lat="47.05707" lon="5.56836">
        <ele>208</ele>
        <time>2013-07-12T15:43:45Z</time>
      </trkpt>
      <trkpt lat="47.05703" lon="5.56815">
        <ele>208</ele>
        <time>2013-07-12T15:43:47Z</time>
      </trkpt>
      <trkpt lat="47.057" lon="5.56794">
        <ele>208</ele>
        <time>2013-07-12T15:43:49Z</time>
      </trkpt>
      <trkpt lat="47.05696" lon="5.56772">
        <ele>208</ele>
        <time>2013-07-12T15:43:51Z</time>
      </trkpt>
      <trkpt lat="47.05692" lon="5.56752">
        <ele>208</ele>
        <time>2013-07-12T15:43:53Z</time>
      </trkpt>
      <trkpt lat="47.05686" lon="5.56733">
        <ele>208</ele>
        <time>2013-07-12T15:43:55Z</time>
      </trkpt>
      <trkpt lat="47.05682" lon="5.56712">
        <ele>208</ele>
        <time>2013-07-12T15:43:57Z</time>
      </trkpt>
      <trkpt lat="47.05677" lon="5.56691">
        <ele>208</ele>
        <time>2013-07-12T15:43:59Z</time>
      </trkpt>
      <trkpt lat="47.05675" lon="5.56668">
        <ele>208</ele>
        <time>2013-07-12T15:44:01Z</time>
      </trkpt>
      <trkpt lat="47.05673" lon="5.56643">
        <ele>220</ele>
        <time>2013-07-12T15:44:03Z</time>
      </trkpt>
      <trkpt lat="47.05671" lon="5.56619">
        <ele>226</ele>
        <time>2013-07-12T15:44:05Z</time>
      </trkpt>
      <trkpt lat="47.05666" lon="5.56596">
        <ele>226</ele>
        <time>2013-07-12T15:44:07Z</time>
      </trkpt>
      <trkpt lat="47.05664" lon="5.56583">
        <ele>226</ele>
        <time>2013-07-12T15:44:08Z</time>
      </trkpt>
      <trkpt lat="47.05662" lon="5.5657">
        <ele>226</ele>
        <time>2013-07-12T15:44:09Z</time>
      </trkpt>
      <trkpt lat="47.05659" lon="5.56558">
        <ele>221</ele>
        <time>2013-07-12T15:44:10Z</time>
      </trkpt>
      <trkpt lat="47.05652" lon="5.56533">
        <ele>221</ele>
        <time>2013-07-12T15:44:12Z</time>
      </trkpt>
      <trkpt lat="47.05649" lon="5.5652">
        <ele>221</ele>
        <time>2013-07-12T15:44:13Z</time>
      </trkpt>
      <trkpt lat="47.05646" lon="5.56504">
        <ele>221</ele>
        <time>2013-07-12T15:44:14Z</time>
      </trkpt>
      <trkpt lat="47.05644" lon="5.56488">
        <ele>221</ele>
        <time>2013-07-12T15:44:15Z</time>
      </trkpt>
      <trkpt lat="47.05641" lon="5.56472">
        <ele>226</ele>
        <time>2013-07-12T15:44:16Z</time>
      </trkpt>
      <trkpt lat="47.05637" lon="5.56457">
        <ele>226</ele>
        <time>2013-07-12T15:44:17Z</time>
      </trkpt>
      <trkpt lat="47.05633" lon="5.56443">
        <ele>226</ele>
        <time>2013-07-12T15:44:18Z</time>
      </trkpt>
      <trkpt lat="47.0563" lon="5.56427">
        <ele>226</ele>
        <time>2013-07-12T15:44:19Z</time>
      </trkpt>
      <trkpt lat="47.05626" lon="5.56413">
        <ele>226</ele>
        <time>2013-07-12T15:44:20Z</time>
      </trkpt>
      <trkpt lat="47.05624" lon="5.56398">
        <ele>231</ele>
        <time>2013-07-12T15:44:21Z</time>
      </trkpt>
      <trkpt lat="47.05621" lon="5.56383">
        <ele>231</ele>
        <time>2013-07-12T15:44:22Z</time>
      </trkpt>
      <trkpt lat="47.05619" lon="5.56371">
        <ele>231</ele>
        <time>2013-07-12T15:44:23Z</time>
      </trkpt>
      <trkpt lat="47.05616" lon="5.56346">
        <ele>231</ele>
        <time>2013-07-12T15:44:25Z</time>
      </trkpt>
      <trkpt lat="47.05612" lon="5.56326">
        <ele>231</ele>
        <time>2013-07-12T15:44:27Z</time>
      </trkpt>
      <trkpt lat="47.05609" lon="5.56307">
        <ele>231</ele>
        <time>2013-07-12T15:44:29Z</time>
      </trkpt>
      <trkpt lat="47.05607" lon="5.5629">
        <ele>231</ele>
        <time>2013-07-12T15:44:31Z</time>
      </trkpt>
      <trkpt lat="47.05603" lon="5.56275">
        <ele>231</ele>
        <time>2013-07-12T15:44:33Z</time>
      </trkpt>
      <trkpt lat="47.05601" lon="5.56259">
        <ele>231</ele>
        <time>2013-07-12T15:44:35Z</time>
      </trkpt>
      <trkpt lat="47.05599" lon="5.56245">
        <ele>231</ele>
        <time>2013-07-12T15:44:37Z</time>
      </trkpt>
      <trkpt lat="47.05595" lon="5.56231">
        <ele>231</ele>
        <time>2013-07-12T15:44:39Z</time>
      </trkpt>
      <trkpt lat="47.05592" lon="5.56218">
        <ele>231</ele>
        <time>2013-07-12T15:44:41Z</time>
      </trkpt>
      <trkpt lat="47.05586" lon="5.562">
        <ele>239</ele>
        <time>2013-07-12T15:44:44Z</time>
      </trkpt>
      <trkpt lat="47.0558" lon="5.56184">
        <ele>239</ele>
        <time>2013-07-12T15:44:47Z</time>
      </trkpt>
      <trkpt lat="47.05576" lon="5.56167">
        <ele>239</ele>
        <time>2013-07-12T15:44:50Z</time>
      </trkpt>
      <trkpt lat="47.05574" lon="5.56149">
        <ele>239</ele>
        <time>2013-07-12T15:44:53Z</time>
      </trkpt>
      <trkpt lat="47.0557" lon="5.56134">
        <ele>246</ele>
        <time>2013-07-12T15:44:56Z</time>
      </trkpt>
      <trkpt lat="47.05565" lon="5.56122">
        <ele>246</ele>
        <time>2013-07-12T15:44:59Z</time>
      </trkpt>
      <trkpt lat="47.05561" lon="5.56107">
        <ele>246</ele>
        <time>2013-07-12T15:45:02Z</time>
      </trkpt>
      <trkpt lat="47.05559" lon="5.5609">
        <ele>246</ele>
        <time>2013-07-12T15:45:05Z</time>
      </trkpt>
      <trkpt lat="47.05555" lon="5.56075">
        <ele>246</ele>
        <time>2013-07-12T15:45:08Z</time>
      </trkpt>
      <trkpt lat="47.05552" lon="5.5606">
        <ele>246</ele>
        <time>2013-07-12T15:45:11Z</time>
      </trkpt>
      <trkpt lat="47.05546" lon="5.56049">
        <ele>253</ele>
        <time>2013-07-12T15:45:14Z</time>
      </trkpt>
      <trkpt lat="47.05541" lon="5.56035">
        <ele>253</ele>
        <time>2013-07-12T15:45:17Z</time>
      </trkpt>
      <trkpt lat="47.05535" lon="5.56023">
        <ele>253</ele>
        <time>2013-07-12T15:45:20Z</time>
      </trkpt>
      <trkpt lat="47.05533" lon="5.56007">
        <ele>253</ele>
        <time>2013-07-12T15:45:23Z</time>
      </trkpt>
      <trkpt lat="47.0553" lon="5.5599">
        <ele>253</ele>
        <time>2013-07-12T15:45:26Z</time>
      </trkpt>
      <trkpt lat="47.05527" lon="5.55971">
        <ele>253</ele>
        <time>2013-07-12T15:45:29Z</time>
      </trkpt>
      <trkpt lat="47.05521" lon="5.55955">
        <ele>253</ele>
        <time>2013-07-12T15:45:32Z</time>
      </trkpt>
      <trkpt lat="47.05514" lon="5.55946">
        <ele>253</ele>
        <time>2013-07-12T15:45:34Z</time>
      </trkpt>
      <trkpt lat="47.05512" lon="5.55931">
        <ele>253</ele>
        <time>2013-07-12T15:45:36Z</time>
      </trkpt>
      <trkpt lat="47.0551" lon="5.55915">
        <ele>253</ele>
        <time>2013-07-12T15:45:38Z</time>
      </trkpt>
      <trkpt lat="47.05507" lon="5.55899">
        <ele>253</ele>
        <time>2013-07-12T15:45:40Z</time>
      </trkpt>
      <trkpt lat="47.05502" lon="5.55884">
        <ele>253</ele>
        <time>2013-07-12T15:45:42Z</time>
      </trkpt>
      <trkpt lat="47.055" lon="5.55867">
        <ele>253</ele>
        <time>2013-07-12T15:45:44Z</time>
      </trkpt>
      <trkpt lat="47.05495" lon="5.55851">
        <ele>253</ele>
        <time>2013-07-12T15:45:46Z</time>
      </trkpt>
      <trkpt lat="47.0549" lon="5.55835">
        <ele>253</ele>
        <time>2013-07-12T15:45:48Z</time>
      </trkpt>
      <trkpt lat="47.05484" lon="5.5582">
        <ele>253</ele>
        <time>2013-07-12T15:45:50Z</time>
      </trkpt>
      <trkpt lat="47.05479" lon="5.55802">
        <ele>253</ele>
        <time>2013-07-12T15:45:52Z</time>
      </trkpt>
      <trkpt lat="47.05476" lon="5.55783">
        <ele>253</ele>
        <time>2013-07-12T15:45:54Z</time>
      </trkpt>
      <trkpt lat="47.05473" lon="5.55763">
        <ele>258</ele>
        <time>2013-07-12T15:45:56Z</time>
      </trkpt>
      <trkpt lat="47.05468" lon="5.55745">
        <ele>258</ele>
        <time>2013-07-12T15:45:58Z</time>
      </trkpt>
      <trkpt lat="47.05465" lon="5.55727">
        <ele>258</ele>
        <time>2013-07-12T15:46:00Z</time>
      </trkpt>
      <trkpt lat="47.0546" lon="5.5571">
        <ele>258</ele>
        <time>2013-07-12T15:46:02Z</time>
      </trkpt>
      <trkpt lat="47.05455" lon="5.55692">
        <ele>258</ele>
        <time>2013-07-12T15:46:04Z</time>
      </trkpt>
      <trkpt lat="47.05452" lon="5.55675">
        <ele>258</ele>
        <time>2013-07-12T15:46:06Z</time>
      </trkpt>
      <trkpt lat="47.05448" lon="5.55655">
        <ele>258</ele>
        <time>2013-07-12T15:46:08Z</time>
      </trkpt>
      <trkpt lat="47.05446" lon="5.55634">
        <ele>258</ele>
        <time>2013-07-12T15:46:10Z</time>
      </trkpt>
      <trkpt lat="47.05442" lon="5.55614">
        <ele>258</ele>
        <time>2013-07-12T15:46:12Z</time>
      </trkpt>
      <trkpt lat="47.05438" lon="5.55594">
        <ele>258</ele>
        <time>2013-07-12T15:46:14Z</time>
      </trkpt>
      <trkpt lat="47.05435" lon="5.55571">
        <ele>258</ele>
        <time>2013-07-12T15:46:16Z</time>
      </trkpt>
      <trkpt lat="47.05431" lon="5.55549">
        <ele>258</ele>
        <time>2013-07-12T15:46:18Z</time>
      </trkpt>
      <trkpt lat="47.05428" lon="5.55525">
        <ele>258</ele>
        <time>2013-07-12T15:46:20Z</time>
      </trkpt>
      <trkpt lat="47.05425" lon="5.55501">
        <ele>258</ele>
        <time>2013-07-12T15:46:22Z</time>
      </trkpt>
      <trkpt lat="47.05421" lon="5.55478">
        <ele>252</ele>
        <time>2013-07-12T15:46:24Z</time>
      </trkpt>
      <trkpt lat="47.05414" lon="5.55459">
        <ele>252</ele>
        <time>2013-07-12T15:46:26Z</time>
      </trkpt>
      <trkpt lat="47.05406" lon="5.55444">
        <ele>252</ele>
        <time>2013-07-12T15:46:28Z</time>
      </trkpt>
      <trkpt lat="47.054" lon="5.55428">
        <ele>245</ele>
        <time>2013-07-12T15:46:30Z</time>
      </trkpt>
      <trkpt lat="47.05394" lon="5.5541">
        <ele>245</ele>
        <time>2013-07-12T15:46:32Z</time>
      </trkpt>
      <trkpt lat="47.05389" lon="5.5539">
        <ele>237</ele>
        <time>2013-07-12T15:46:34Z</time>
      </trkpt>
      <trkpt lat="47.05382" lon="5.55371">
        <ele>237</ele>
        <time>2013-07-12T15:46:36Z</time>
      </trkpt>
      <trkpt lat="47.05376" lon="5.55352">
        <ele>228</ele>
        <time>2013-07-12T15:46:38Z</time>
      </trkpt>
      <trkpt lat="47.0537" lon="5.55331">
        <ele>228</ele>
        <time>2013-07-12T15:46:40Z</time>
      </trkpt>
      <trkpt lat="47.05364" lon="5.5531">
        <ele>228</ele>
        <time>2013-07-12T15:46:42Z</time>
      </trkpt>
      <trkpt lat="47.05358" lon="5.55288">
        <ele>221</ele>
        <time>2013-07-12T15:46:44Z</time>
      </trkpt>
      <trkpt lat="47.05354" lon="5.55266">
        <ele>221</ele>
        <time>2013-07-12T15:46:46Z</time>
      </trkpt>
      <trkpt lat="47.05349" lon="5.55242">
        <ele>213</ele>
        <time>2013-07-12T15:46:48Z</time>
      </trkpt>
      <trkpt lat="47.05343" lon="5.55217">
        <ele>213</ele>
        <time>2013-07-12T15:46:50Z</time>
      </trkpt>
      <trkpt lat="47.05339" lon="5.55204">
        <ele>213</ele>
        <time>2013-07-12T15:46:51Z</time>
      </trkpt>
      <trkpt lat="47.05336" lon="5.55189">
        <ele>213</ele>
        <time>2013-07-12T15:46:52Z</time>
      </trkpt>
      <trkpt lat="47.05333" lon="5.55174">
        <ele>213</ele>
        <time>2013-07-12T15:46:53Z</time>
      </trkpt>
      <trkpt lat="47.05329" lon="5.55159">
        <ele>213</ele>
        <time>2013-07-12T15:46:54Z</time>
      </trkpt>
      <trkpt lat="47.05326" lon="5.55143">
        <ele>213</ele>
        <time>2013-07-12T15:46:55Z</time>
      </trkpt>
      <trkpt lat="47.05323" lon="5.55127">
        <ele>213</ele>
        <time>2013-07-12T15:46:56Z</time>
      </trkpt>
      <trkpt lat="47.0532" lon="5.55109">
        <ele>213</ele>
        <time>2013-07-12T15:46:57Z</time>
      </trkpt>
      <trkpt lat="47.05317" lon="5.55092">
        <ele>213</ele>
        <time>2013-07-12T15:46:58Z</time>
      </trkpt>
      <trkpt lat="47.05315" lon="5.55074">
        <ele>213</ele>
        <time>2013-07-12T15:46:59Z</time>
      </trkpt>
      <trkpt lat="47.05312" lon="5.55057">
        <ele>213</ele>
        <time>2013-07-12T15:47:00Z</time>
      </trkpt>
      <trkpt lat="47.05314" lon="5.55036">
        <ele>221</ele>
        <time>2013-07-12T15:47:01Z</time>
      </trkpt>
      <trkpt lat="47.05314" lon="5.55018">
        <ele>221</ele>
        <time>2013-07-12T15:47:02Z</time>
      </trkpt>
      <trkpt lat="47.05312" lon="5.55002">
        <ele>221</ele>
        <time>2013-07-12T15:47:03Z</time>
      </trkpt>
      <trkpt lat="47.05311" lon="5.54986">
        <ele>221</ele>
        <time>2013-07-12T15:47:04Z</time>
      </trkpt>
      <trkpt lat="47.05304" lon="5.5497">
        <ele>221</ele>
        <time>2013-07-12T15:47:06Z</time>
      </trkpt>
      <trkpt lat="47.05298" lon="5.54955">
        <ele>226</ele>
        <time>2013-07-12T15:47:08Z</time>
      </trkpt>
      <trkpt lat="47.05295" lon="5.54941">
        <ele>226</ele>
        <time>2013-07-12T15:47:10Z</time>
      </trkpt>
      <trkpt lat="47.05292" lon="5.54928">
        <ele>226</ele>
        <time>2013-07-12T15:47:12Z</time>
      </trkpt>
      <trkpt lat="47.0529" lon="5.54915">
        <ele>232</ele>
        <time>2013-07-12T15:47:15Z</time>
      </trkpt>
      <trkpt lat="47.0529" lon="5.54902">
        <ele>232</ele>
        <time>2013-07-12T15:47:19Z</time>
      </trkpt>
      <trkpt lat="47.05289" lon="5.54889">
        <ele>232</ele>
        <time>2013-07-12T15:47:28Z</time>
      </trkpt>
      <trkpt lat="47.05293" lon="5.54877">
        <ele>232</ele>
        <time>2013-07-12T15:47:48Z</time>
      </trkpt>
      <trkpt lat="47.05302" lon="5.54869">
        <ele>232</ele>
        <time>2013-07-12T15:48:22Z</time>
      </trkpt>
      <trkpt lat="47.05306" lon="5.54856">
        <ele>232</ele>
        <time>2013-07-12T15:48:28Z</time>
      </trkpt>
      <trkpt lat="47.05306" lon="5.54842">
        <ele>232</ele>
        <time>2013-07-12T15:48:35Z</time>
      </trkpt>
      <trkpt lat="47.05311" lon="5.54827">
        <ele>232</ele>
        <time>2013-07-12T15:48:39Z</time>
      </trkpt>
      <trkpt lat="47.05315" lon="5.54814">
        <ele>232</ele>
        <time>2013-07-12T15:48:42Z</time>
      </trkpt>
      <trkpt lat="47.05318" lon="5.54799">
        <ele>232</ele>
        <time>2013-07-12T15:48:46Z</time>
      </trkpt>
      <trkpt lat="47.05323" lon="5.54783">
        <ele>232</ele>
        <time>2013-07-12T15:48:49Z</time>
      </trkpt>
      <trkpt lat="47.05328" lon="5.54768">
        <ele>232</ele>
        <time>2013-07-12T15:48:52Z</time>
      </trkpt>
      <trkpt lat="47.05333" lon="5.54756">
        <ele>241</ele>
        <time>2013-07-12T15:48:55Z</time>
      </trkpt>
      <trkpt lat="47.05336" lon="5.54743">
        <ele>241</ele>
        <time>2013-07-12T15:48:57Z</time>
      </trkpt>
      <trkpt lat="47.05339" lon="5.54728">
        <ele>241</ele>
        <time>2013-07-12T15:49:00Z</time>
      </trkpt>
      <trkpt lat="47.05344" lon="5.54711">
        <ele>241</ele>
        <time>2013-07-12T15:49:03Z</time>
      </trkpt>
      <trkpt lat="47.05351" lon="5.54699">
        <ele>241</ele>
        <time>2013-07-12T15:49:05Z</time>
      </trkpt>
      <trkpt lat="47.05357" lon="5.54685">
        <ele>241</ele>
        <time>2013-07-12T15:49:07Z</time>
      </trkpt>
      <trkpt lat="47.05363" lon="5.54669">
        <ele>241</ele>
        <time>2013-07-12T15:49:10Z</time>
      </trkpt>
      <trkpt lat="47.05368" lon="5.54657">
        <ele>241</ele>
        <time>2013-07-12T15:49:12Z</time>
      </trkpt>
      <trkpt lat="47.05374" lon="5.54641">
        <ele>241</ele>
        <time>2013-07-12T15:49:15Z</time>
      </trkpt>
      <trkpt lat="47.0538" lon="5.54629">
        <ele>241</ele>
        <time>2013-07-12T15:49:17Z</time>
      </trkpt>
      <trkpt lat="47.05384" lon="5.54615">
        <ele>236</ele>
        <time>2013-07-12T15:49:19Z</time>
      </trkpt>
      <trkpt lat="47.05386" lon="5.54602">
        <ele>236</ele>
        <time>2013-07-12T15:49:21Z</time>
      </trkpt>
      <trkpt lat="47.05391" lon="5.54588">
        <ele>236</ele>
        <time>2013-07-12T15:49:23Z</time>
      </trkpt>
      <trkpt lat="47.05396" lon="5.54571">
        <ele>229</ele>
        <time>2013-07-12T15:49:25Z</time>
      </trkpt>
      <trkpt lat="47.05401" lon="5.54553">
        <ele>229</ele>
        <time>2013-07-12T15:49:27Z</time>
      </trkpt>
      <trkpt lat="47.05406" lon="5.54537">
        <ele>229</ele>
        <time>2013-07-12T15:49:29Z</time>
      </trkpt>
      <trkpt lat="47.05412" lon="5.54523">
        <ele>229</ele>
        <time>2013-07-12T15:49:31Z</time>
      </trkpt>
      <trkpt lat="47.05417" lon="5.54507">
        <ele>229</ele>
        <time>2013-07-12T15:49:33Z</time>
      </trkpt>
      <trkpt lat="47.05423" lon="5.54491">
        <ele>229</ele>
        <time>2013-07-12T15:49:35Z</time>
      </trkpt>
      <trkpt lat="47.05428" lon="5.54472">
        <ele>229</ele>
        <time>2013-07-12T15:49:37Z</time>
      </trkpt>
      <trkpt lat="47.05433" lon="5.54452">
        <ele>229</ele>
        <time>2013-07-12T15:49:39Z</time>
      </trkpt>
      <trkpt lat="47.0544" lon="5.54434">
        <ele>229</ele>
        <time>2013-07-12T15:49:41Z</time>
      </trkpt>
      <trkpt lat="47.05446" lon="5.54416">
        <ele>229</ele>
        <time>2013-07-12T15:49:43Z</time>
      </trkpt>
      <trkpt lat="47.05452" lon="5.54395">
        <ele>229</ele>
        <time>2013-07-12T15:49:45Z</time>
      </trkpt>
      <trkpt lat="47.05459" lon="5.54375">
        <ele>229</ele>
        <time>2013-07-12T15:49:47Z</time>
      </trkpt>
      <trkpt lat="47.05466" lon="5.54354">
        <ele>223</ele>
        <time>2013-07-12T15:49:49Z</time>
      </trkpt>
      <trkpt lat="47.05472" lon="5.54332">
        <ele>223</ele>
        <time>2013-07-12T15:49:51Z</time>
      </trkpt>
      <trkpt lat="47.05479" lon="5.54311">
        <ele>223</ele>
        <time>2013-07-12T15:49:53Z</time>
      </trkpt>
      <trkpt lat="47.05487" lon="5.54289">
        <ele>223</ele>
        <time>2013-07-12T15:49:55Z</time>
      </trkpt>
      <trkpt lat="47.05494" lon="5.54265">
        <ele>223</ele>
        <time>2013-07-12T15:49:57Z</time>
      </trkpt>
      <trkpt lat="47.05502" lon="5.54243">
        <ele>223</ele>
        <time>2013-07-12T15:49:59Z</time>
      </trkpt>
      <trkpt lat="47.05512" lon="5.54225">
        <ele>223</ele>
        <time>2013-07-12T15:50:01Z</time>
      </trkpt>
      <trkpt lat="47.05521" lon="5.54209">
        <ele>223</ele>
        <time>2013-07-12T15:50:03Z</time>
      </trkpt>
      <trkpt lat="47.0553" lon="5.54194">
        <ele>223</ele>
        <time>2013-07-12T15:50:05Z</time>
      </trkpt>
      <trkpt lat="47.05538" lon="5.54179">
        <ele>223</ele>
        <time>2013-07-12T15:50:07Z</time>
      </trkpt>
      <trkpt lat="47.05545" lon="5.54167">
        <ele>223</ele>
        <time>2013-07-12T15:50:09Z</time>
      </trkpt>
      <trkpt lat="47.05551" lon="5.54156">
        <ele>229</ele>
        <time>2013-07-12T15:50:11Z</time>
      </trkpt>
      <trkpt lat="47.05557" lon="5.54145">
        <ele>229</ele>
        <time>2013-07-12T15:50:13Z</time>
      </trkpt>
      <trkpt lat="47.05564" lon="5.54135">
        <ele>229</ele>
        <time>2013-07-12T15:50:15Z</time>
      </trkpt>
      <trkpt lat="47.05574" lon="5.54122">
        <ele>235</ele>
        <time>2013-07-12T15:50:18Z</time>
      </trkpt>
      <trkpt lat="47.05581" lon="5.54114">
        <ele>235</ele>
        <time>2013-07-12T15:50:20Z</time>
      </trkpt>
      <trkpt lat="47.05589" lon="5.54105">
        <ele>235</ele>
        <time>2013-07-12T15:50:22Z</time>
      </trkpt>
      <trkpt lat="47.05595" lon="5.54096">
        <ele>235</ele>
        <time>2013-07-12T15:50:24Z</time>
      </trkpt>
      <trkpt lat="47.05606" lon="5.54085">
        <ele>235</ele>
        <time>2013-07-12T15:50:27Z</time>
      </trkpt>
      <trkpt lat="47.05616" lon="5.54072">
        <ele>242</ele>
        <time>2013-07-12T15:50:30Z</time>
      </trkpt>
      <trkpt lat="47.05624" lon="5.54066">
        <ele>242</ele>
        <time>2013-07-12T15:50:32Z</time>
      </trkpt>
      <trkpt lat="47.05632" lon="5.54053">
        <ele>242</ele>
        <time>2013-07-12T15:50:35Z</time>
      </trkpt>
      <trkpt lat="47.0564" lon="5.5404">
        <ele>242</ele>
        <time>2013-07-12T15:50:38Z</time>
      </trkpt>
      <trkpt lat="47.05648" lon="5.54027">
        <ele>242</ele>
        <time>2013-07-12T15:50:41Z</time>
      </trkpt>
      <trkpt lat="47.05656" lon="5.54014">
        <ele>242</ele>
        <time>2013-07-12T15:50:44Z</time>
      </trkpt>
      <trkpt lat="47.05663" lon="5.54003">
        <ele>242</ele>
        <time>2013-07-12T15:50:47Z</time>
      </trkpt>
      <trkpt lat="47.0567" lon="5.53991">
        <ele>247</ele>
        <time>2013-07-12T15:50:50Z</time>
      </trkpt>
      <trkpt lat="47.05678" lon="5.53979">
        <ele>247</ele>
        <time>2013-07-12T15:50:53Z</time>
      </trkpt>
      <trkpt lat="47.05685" lon="5.53969">
        <ele>247</ele>
        <time>2013-07-12T15:50:56Z</time>
      </trkpt>
      <trkpt lat="47.05694" lon="5.5396">
        <ele>247</ele>
        <time>2013-07-12T15:50:59Z</time>
      </trkpt>
      <trkpt lat="47.05702" lon="5.53948">
        <ele>247</ele>
        <time>2013-07-12T15:51:02Z</time>
      </trkpt>
      <trkpt lat="47.05709" lon="5.53935">
        <ele>247</ele>
        <time>2013-07-12T15:51:05Z</time>
      </trkpt>
      <trkpt lat="47.05719" lon="5.53924">
        <ele>252</ele>
        <time>2013-07-12T15:51:08Z</time>
      </trkpt>
      <trkpt lat="47.05728" lon="5.53911">
        <ele>252</ele>
        <time>2013-07-12T15:51:11Z</time>
      </trkpt>
      <trkpt lat="47.05737" lon="5.53898">
        <ele>252</ele>
        <time>2013-07-12T15:51:14Z</time>
      </trkpt>
      <trkpt lat="47.05743" lon="5.53888">
        <ele>252</ele>
        <time>2013-07-12T15:51:16Z</time>
      </trkpt>
      <trkpt lat="47.0575" lon="5.53879">
        <ele>252</ele>
        <time>2013-07-12T15:51:18Z</time>
      </trkpt>
      <trkpt lat="47.05756" lon="5.5387">
        <ele>252</ele>
        <time>2013-07-12T15:51:20Z</time>
      </trkpt>
      <trkpt lat="47.05763" lon="5.5386">
        <ele>252</ele>
        <time>2013-07-12T15:51:22Z</time>
      </trkpt>
      <trkpt lat="47.0577" lon="5.5385">
        <ele>252</ele>
        <time>2013-07-12T15:51:24Z</time>
      </trkpt>
      <trkpt lat="47.05778" lon="5.5384">
        <ele>252</ele>
        <time>2013-07-12T15:51:26Z</time>
      </trkpt>
      <trkpt lat="47.05785" lon="5.53828">
        <ele>252</ele>
        <time>2013-07-12T15:51:28Z</time>
      </trkpt>
      <trkpt lat="47.05791" lon="5.53818">
        <ele>252</ele>
        <time>2013-07-12T15:51:30Z</time>
      </trkpt>
      <trkpt lat="47.05799" lon="5.53807">
        <ele>252</ele>
        <time>2013-07-12T15:51:32Z</time>
      </trkpt>
      <trkpt lat="47.05806" lon="5.53796">
        <ele>252</ele>
        <time>2013-07-12T15:51:34Z</time>
      </trkpt>
      <trkpt lat="47.05813" lon="5.53784">
        <ele>252</ele>
        <time>2013-07-12T15:51:36Z</time>
      </trkpt>
      <trkpt lat="47.05821" lon="5.53774">
        <ele>252</ele>
        <time>2013-07-12T15:51:38Z</time>
      </trkpt>
      <trkpt lat="47.05829" lon="5.53762">
        <ele>252</ele>
        <time>2013-07-12T15:51:40Z</time>
      </trkpt>
      <trkpt lat="47.05837" lon="5.5375">
        <ele>252</ele>
        <time>2013-07-12T15:51:42Z</time>
      </trkpt>
      <trkpt lat="47.05845" lon="5.5374">
        <ele>252</ele>
        <time>2013-07-12T15:51:44Z</time>
      </trkpt>
      <trkpt lat="47.05852" lon="5.53727">
        <ele>252</ele>
        <time>2013-07-12T15:51:46Z</time>
      </trkpt>
      <trkpt lat="47.05859" lon="5.53715">
        <ele>252</ele>
        <time>2013-07-12T15:51:48Z</time>
      </trkpt>
      <trkpt lat="47.05867" lon="5.53703">
        <ele>252</ele>
        <time>2013-07-12T15:51:50Z</time>
      </trkpt>
      <trkpt lat="47.05874" lon="5.53691">
        <ele>252</ele>
        <time>2013-07-12T15:51:52Z</time>
      </trkpt>
      <trkpt lat="47.05883" lon="5.53679">
        <ele>252</ele>
        <time>2013-07-12T15:51:54Z</time>
      </trkpt>
      <trkpt lat="47.05892" lon="5.53668">
        <ele>252</ele>
        <time>2013-07-12T15:51:56Z</time>
      </trkpt>
      <trkpt lat="47.05901" lon="5.53656">
        <ele>252</ele>
        <time>2013-07-12T15:51:58Z</time>
      </trkpt>
      <trkpt lat="47.0591" lon="5.53645">
        <ele>252</ele>
        <time>2013-07-12T15:52:00Z</time>
      </trkpt>
      <trkpt lat="47.05919" lon="5.53635">
        <ele>258</ele>
        <time>2013-07-12T15:52:02Z</time>
      </trkpt>
      <trkpt lat="47.05928" lon="5.53625">
        <ele>258</ele>
        <time>2013-07-12T15:52:04Z</time>
      </trkpt>
      <trkpt lat="47.05937" lon="5.53612">
        <ele>258</ele>
        <time>2013-07-12T15:52:06Z</time>
      </trkpt>
      <trkpt lat="47.05945" lon="5.53599">
        <ele>258</ele>
        <time>2013-07-12T15:52:08Z</time>
      </trkpt>
      <trkpt lat="47.05953" lon="5.53587">
        <ele>258</ele>
        <time>2013-07-12T15:52:10Z</time>
      </trkpt>
      <trkpt lat="47.05963" lon="5.53573">
        <ele>258</ele>
        <time>2013-07-12T15:52:12Z</time>
      </trkpt>
      <trkpt lat="47.05972" lon="5.5356">
        <ele>258</ele>
        <time>2013-07-12T15:52:14Z</time>
      </trkpt>
      <trkpt lat="47.05984" lon="5.53546">
        <ele>258</ele>
        <time>2013-07-12T15:52:16Z</time>
      </trkpt>
      <trkpt lat="47.05996" lon="5.5353">
        <ele>258</ele>
        <time>2013-07-12T15:52:18Z</time>
      </trkpt>
      <trkpt lat="47.06009" lon="5.53514">
        <ele>252</ele>
        <time>2013-07-12T15:52:20Z</time>
      </trkpt>
      <trkpt lat="47.06015" lon="5.53503">
        <ele>252</ele>
        <time>2013-07-12T15:52:21Z</time>
      </trkpt>
      <trkpt lat="47.06021" lon="5.53493">
        <ele>252</ele>
        <time>2013-07-12T15:52:22Z</time>
      </trkpt>
      <trkpt lat="47.06028" lon="5.53484">
        <ele>252</ele>
        <time>2013-07-12T15:52:23Z</time>
      </trkpt>
      <trkpt lat="47.06036" lon="5.53474">
        <ele>252</ele>
        <time>2013-07-12T15:52:24Z</time>
      </trkpt>
      <trkpt lat="47.06043" lon="5.53464">
        <ele>252</ele>
        <time>2013-07-12T15:52:25Z</time>
      </trkpt>
      <trkpt lat="47.0605" lon="5.53453">
        <ele>247</ele>
        <time>2013-07-12T15:52:26Z</time>
      </trkpt>
      <trkpt lat="47.06059" lon="5.53444">
        <ele>247</ele>
        <time>2013-07-12T15:52:27Z</time>
      </trkpt>
      <trkpt lat="47.06066" lon="5.53435">
        <ele>247</ele>
        <time>2013-07-12T15:52:28Z</time>
      </trkpt>
      <trkpt lat="47.06073" lon="5.53426">
        <ele>247</ele>
        <time>2013-07-12T15:52:29Z</time>
      </trkpt>
      <trkpt lat="47.0608" lon="5.53416">
        <ele>247</ele>
        <time>2013-07-12T15:52:30Z</time>
      </trkpt>
      <trkpt lat="47.06087" lon="5.53407">
        <ele>247</ele>
        <time>2013-07-12T15:52:31Z</time>
      </trkpt>
      <trkpt lat="47.06095" lon="5.53397">
        <ele>247</ele>
        <time>2013-07-12T15:52:32Z</time>
      </trkpt>
      <trkpt lat="47.06101" lon="5.53387">
        <ele>247</ele>
        <time>2013-07-12T15:52:33Z</time>
      </trkpt>
      <trkpt lat="47.06109" lon="5.53375">
        <ele>247</ele>
        <time>2013-07-12T15:52:34Z</time>
      </trkpt>
      <trkpt lat="47.06117" lon="5.53363">
        <ele>241</ele>
        <time>2013-07-12T15:52:35Z</time>
      </trkpt>
      <trkpt lat="47.06123" lon="5.5335">
        <ele>241</ele>
        <time>2013-07-12T15:52:36Z</time>
      </trkpt>
      <trkpt lat="47.06128" lon="5.53335">
        <ele>241</ele>
        <time>2013-07-12T15:52:37Z</time>
      </trkpt>
      <trkpt lat="47.06134" lon="5.53318">
        <ele>241</ele>
        <time>2013-07-12T15:52:38Z</time>
      </trkpt>
      <trkpt lat="47.06139" lon="5.53302">
        <ele>241</ele>
        <time>2013-07-12T15:52:39Z</time>
      </trkpt>
      <trkpt lat="47.06143" lon="5.53283">
        <ele>235</ele>
        <time>2013-07-12T15:52:40Z</time>
      </trkpt>
      <trkpt lat="47.06147" lon="5.53263">
        <ele>235</ele>
        <time>2013-07-12T15:52:41Z</time>
      </trkpt>
      <trkpt lat="47.06151" lon="5.53245">
        <ele>235</ele>
        <time>2013-07-12T15:52:42Z</time>
      </trkpt>
      <trkpt lat="47.06154" lon="5.53225">
        <ele>228</ele>
        <time>2013-07-12T15:52:43Z</time>
      </trkpt>
      <trkpt lat="47.06158" lon="5.53208">
        <ele>228</ele>
        <time>2013-07-12T15:52:44Z</time>
      </trkpt>
      <trkpt lat="47.06163" lon="5.53191">
        <ele>228</ele>
        <time>2013-07-12T15:52:45Z</time>
      </trkpt>
      <trkpt lat="47.06167" lon="5.53175">
        <ele>228</ele>
        <time>2013-07-12T15:52:46Z</time>
      </trkpt>
      <trkpt lat="47.06171" lon="5.5316">
        <ele>228</ele>
        <time>2013-07-12T15:52:47Z</time>
      </trkpt>
      <trkpt lat="47.06176" lon="5.53146">
        <ele>228</ele>
        <time>2013-07-12T15:52:48Z</time>
      </trkpt>
      <trkpt lat="47.0618" lon="5.53133">
        <ele>228</ele>
        <time>2013-07-12T15:52:49Z</time>
      </trkpt>
      <trkpt lat="47.06184" lon="5.53121">
        <ele>228</ele>
        <time>2013-07-12T15:52:50Z</time>
      </trkpt>
      <trkpt lat="47.0619" lon="5.53097">
        <ele>228</ele>
        <time>2013-07-12T15:52:52Z</time>
      </trkpt>
      <trkpt lat="47.06196" lon="5.53076">
        <ele>228</ele>
        <time>2013-07-12T15:52:54Z</time>
      </trkpt>
      <trkpt lat="47.06201" lon="5.53055">
        <ele>228</ele>
        <time>2013-07-12T15:52:56Z</time>
      </trkpt>
      <trkpt lat="47.06206" lon="5.53034">
        <ele>233</ele>
        <time>2013-07-12T15:52:58Z</time>
      </trkpt>
      <trkpt lat="47.06212" lon="5.53014">
        <ele>233</ele>
        <time>2013-07-12T15:53:00Z</time>
      </trkpt>
      <trkpt lat="47.06218" lon="5.52995">
        <ele>233</ele>
        <time>2013-07-12T15:53:02Z</time>
      </trkpt>
      <trkpt lat="47.06223" lon="5.52977">
        <ele>233</ele>
        <time>2013-07-12T15:53:04Z</time>
      </trkpt>
      <trkpt lat="47.06227" lon="5.52959">
        <ele>239</ele>
        <time>2013-07-12T15:53:06Z</time>
      </trkpt>
      <trkpt lat="47.06231" lon="5.52941">
        <ele>239</ele>
        <time>2013-07-12T15:53:08Z</time>
      </trkpt>
      <trkpt lat="47.06235" lon="5.52923">
        <ele>239</ele>
        <time>2013-07-12T15:53:10Z</time>
      </trkpt>
      <trkpt lat="47.06239" lon="5.52907">
        <ele>239</ele>
        <time>2013-07-12T15:53:12Z</time>
      </trkpt>
      <trkpt lat="47.06243" lon="5.52892">
        <ele>239</ele>
        <time>2013-07-12T15:53:14Z</time>
      </trkpt>
      <trkpt lat="47.06248" lon="5.52875">
        <ele>244</ele>
        <time>2013-07-12T15:53:16Z</time>
      </trkpt>
      <trkpt lat="47.06253" lon="5.5286">
        <ele>244</ele>
        <time>2013-07-12T15:53:18Z</time>
      </trkpt>
      <trkpt lat="47.06257" lon="5.52846">
        <ele>244</ele>
        <time>2013-07-12T15:53:20Z</time>
      </trkpt>
      <trkpt lat="47.06262" lon="5.5283">
        <ele>244</ele>
        <time>2013-07-12T15:53:22Z</time>
      </trkpt>
      <trkpt lat="47.06263" lon="5.52812">
        <ele>244</ele>
        <time>2013-07-12T15:53:24Z</time>
      </trkpt>
      <trkpt lat="47.06268" lon="5.52794">
        <ele>244</ele>
        <time>2013-07-12T15:53:26Z</time>
      </trkpt>
      <trkpt lat="47.06275" lon="5.52775">
        <ele>238</ele>
        <time>2013-07-12T15:53:28Z</time>
      </trkpt>
      <trkpt lat="47.06281" lon="5.52757">
        <ele>238</ele>
        <time>2013-07-12T15:53:30Z</time>
      </trkpt>
      <trkpt lat="47.06289" lon="5.52735">
        <ele>238</ele>
        <time>2013-07-12T15:53:32Z</time>
      </trkpt>
      <trkpt lat="47.06297" lon="5.52715">
        <ele>238</ele>
        <time>2013-07-12T15:53:34Z</time>
      </trkpt>
      <trkpt lat="47.06303" lon="5.52695">
        <ele>238</ele>
        <time>2013-07-12T15:53:36Z</time>
      </trkpt>
      <trkpt lat="47.0631" lon="5.52674">
        <ele>238</ele>
        <time>2013-07-12T15:53:38Z</time>
      </trkpt>
      <trkpt lat="47.06316" lon="5.52654">
        <ele>233</ele>
        <time>2013-07-12T15:53:40Z</time>
      </trkpt>
      <trkpt lat="47.06322" lon="5.52634">
        <ele>233</ele>
        <time>2013-07-12T15:53:42Z</time>
      </trkpt>
      <trkpt lat="47.06327" lon="5.52614">
        <ele>233</ele>
        <time>2013-07-12T15:53:44Z</time>
      </trkpt>
      <trkpt lat="47.06333" lon="5.52593">
        <ele>233</ele>
        <time>2013-07-12T15:53:46Z</time>
      </trkpt>
      <trkpt lat="47.06339" lon="5.52574">
        <ele>233</ele>
        <time>2013-07-12T15:53:48Z</time>
      </trkpt>
      <trkpt lat="47.06345" lon="5.52556">
        <ele>233</ele>
        <time>2013-07-12T15:53:50Z</time>
      </trkpt>
      <trkpt lat="47.0635" lon="5.5254">
        <ele>233</ele>
        <time>2013-07-12T15:53:52Z</time>
      </trkpt>
      <trkpt lat="47.06355" lon="5.52523">
        <ele>233</ele>
        <time>2013-07-12T15:53:54Z</time>
      </trkpt>
      <trkpt lat="47.06362" lon="5.52504">
        <ele>233</ele>
        <time>2013-07-12T15:53:56Z</time>
      </trkpt>
      <trkpt lat="47.06367" lon="5.52486">
        <ele>233</ele>
        <time>2013-07-12T15:53:58Z</time>
      </trkpt>
      <trkpt lat="47.06374" lon="5.52469">
        <ele>233</ele>
        <time>2013-07-12T15:54:00Z</time>
      </trkpt>
      <trkpt lat="47.06382" lon="5.52451">
        <ele>233</ele>
        <time>2013-07-12T15:54:02Z</time>
      </trkpt>
      <trkpt lat="47.06386" lon="5.52433">
        <ele>233</ele>
        <time>2013-07-12T15:54:04Z</time>
      </trkpt>
      <trkpt lat="47.06391" lon="5.52412">
        <ele>233</ele>
        <time>2013-07-12T15:54:06Z</time>
      </trkpt>
      <trkpt lat="47.06397" lon="5.52393">
        <ele>233</ele>
        <time>2013-07-12T15:54:08Z</time>
      </trkpt>
      <trkpt lat="47.06402" lon="5.52375">
        <ele>233</ele>
        <time>2013-07-12T15:54:10Z</time>
      </trkpt>
      <trkpt lat="47.06408" lon="5.52355">
        <ele>233</ele>
        <time>2013-07-12T15:54:12Z</time>
      </trkpt>
      <trkpt lat="47.06414" lon="5.52337">
        <ele>233</ele>
        <time>2013-07-12T15:54:14Z</time>
      </trkpt>
      <trkpt lat="47.06419" lon="5.52318">
        <ele>233</ele>
        <time>2013-07-12T15:54:16Z</time>
      </trkpt>
      <trkpt lat="47.06424" lon="5.523">
        <ele>233</ele>
        <time>2013-07-12T15:54:18Z</time>
      </trkpt>
      <trkpt lat="47.06429" lon="5.52282">
        <ele>233</ele>
        <time>2013-07-12T15:54:20Z</time>
      </trkpt>
      <trkpt lat="47.06434" lon="5.52262">
        <ele>233</ele>
        <time>2013-07-12T15:54:22Z</time>
      </trkpt>
      <trkpt lat="47.06439" lon="5.52239">
        <ele>233</ele>
        <time>2013-07-12T15:54:24Z</time>
      </trkpt>
      <trkpt lat="47.06445" lon="5.52219">
        <ele>233</ele>
        <time>2013-07-12T15:54:26Z</time>
      </trkpt>
      <trkpt lat="47.0645" lon="5.52197">
        <ele>233</ele>
        <time>2013-07-12T15:54:28Z</time>
      </trkpt>
      <trkpt lat="47.06455" lon="5.52176">
        <ele>233</ele>
        <time>2013-07-12T15:54:30Z</time>
      </trkpt>
      <trkpt lat="47.0646" lon="5.52152">
        <ele>233</ele>
        <time>2013-07-12T15:54:32Z</time>
      </trkpt>
      <trkpt lat="47.06463" lon="5.5214">
        <ele>233</ele>
        <time>2013-07-12T15:54:33Z</time>
      </trkpt>
      <trkpt lat="47.06467" lon="5.52127">
        <ele>233</ele>
        <time>2013-07-12T15:54:34Z</time>
      </trkpt>
      <trkpt lat="47.06471" lon="5.52115">
        <ele>233</ele>
        <time>2013-07-12T15:54:35Z</time>
      </trkpt>
      <trkpt lat="47.06475" lon="5.52102">
        <ele>233</ele>
        <time>2013-07-12T15:54:36Z</time>
      </trkpt>
      <trkpt lat="47.06479" lon="5.52089">
        <ele>233</ele>
        <time>2013-07-12T15:54:37Z</time>
      </trkpt>
      <trkpt lat="47.06482" lon="5.52077">
        <ele>233</ele>
        <time>2013-07-12T15:54:38Z</time>
      </trkpt>
      <trkpt lat="47.06486" lon="5.52064">
        <ele>233</ele>
        <time>2013-07-12T15:54:39Z</time>
      </trkpt>
      <trkpt lat="47.06493" lon="5.52042">
        <ele>233</ele>
        <time>2013-07-12T15:54:41Z</time>
      </trkpt>
      <trkpt lat="47.06498" lon="5.52019">
        <ele>233</ele>
        <time>2013-07-12T15:54:43Z</time>
      </trkpt>
      <trkpt lat="47.06505" lon="5.52001">
        <ele>233</ele>
        <time>2013-07-12T15:54:45Z</time>
      </trkpt>
      <trkpt lat="47.06512" lon="5.51986">
        <ele>233</ele>
        <time>2013-07-12T15:54:47Z</time>
      </trkpt>
      <trkpt lat="47.06519" lon="5.5197">
        <ele>233</ele>
        <time>2013-07-12T15:54:49Z</time>
      </trkpt>
      <trkpt lat="47.06525" lon="5.51954">
        <ele>233</ele>
        <time>2013-07-12T15:54:51Z</time>
      </trkpt>
      <trkpt lat="47.06532" lon="5.51938">
        <ele>233</ele>
        <time>2013-07-12T15:54:53Z</time>
      </trkpt>
      <trkpt lat="47.06537" lon="5.5192">
        <ele>238</ele>
        <time>2013-07-12T15:54:55Z</time>
      </trkpt>
      <trkpt lat="47.06541" lon="5.51901">
        <ele>238</ele>
        <time>2013-07-12T15:54:57Z</time>
      </trkpt>
      <trkpt lat="47.06547" lon="5.51884">
        <ele>238</ele>
        <time>2013-07-12T15:54:59Z</time>
      </trkpt>
      <trkpt lat="47.06552" lon="5.51865">
        <ele>238</ele>
        <time>2013-07-12T15:55:01Z</time>
      </trkpt>
      <trkpt lat="47.06557" lon="5.51846">
        <ele>238</ele>
        <time>2013-07-12T15:55:03Z</time>
      </trkpt>
      <trkpt lat="47.06562" lon="5.51828">
        <ele>238</ele>
        <time>2013-07-12T15:55:05Z</time>
      </trkpt>
      <trkpt lat="47.06567" lon="5.5181">
        <ele>238</ele>
        <time>2013-07-12T15:55:07Z</time>
      </trkpt>
      <trkpt lat="47.06572" lon="5.51794">
        <ele>238</ele>
        <time>2013-07-12T15:55:09Z</time>
      </trkpt>
      <trkpt lat="47.06578" lon="5.51775">
        <ele>238</ele>
        <time>2013-07-12T15:55:11Z</time>
      </trkpt>
      <trkpt lat="47.06583" lon="5.51756">
        <ele>238</ele>
        <time>2013-07-12T15:55:13Z</time>
      </trkpt>
      <trkpt lat="47.06589" lon="5.51735">
        <ele>238</ele>
        <time>2013-07-12T15:55:15Z</time>
      </trkpt>
      <trkpt lat="47.06595" lon="5.51717">
        <ele>238</ele>
        <time>2013-07-12T15:55:17Z</time>
      </trkpt>
      <trkpt lat="47.066" lon="5.51696">
        <ele>238</ele>
        <time>2013-07-12T15:55:19Z</time>
      </trkpt>
      <trkpt lat="47.06606" lon="5.51675">
        <ele>238</ele>
        <time>2013-07-12T15:55:21Z</time>
      </trkpt>
      <trkpt lat="47.06611" lon="5.51657">
        <ele>238</ele>
        <time>2013-07-12T15:55:23Z</time>
      </trkpt>
      <trkpt lat="47.06618" lon="5.51637">
        <ele>238</ele>
        <time>2013-07-12T15:55:25Z</time>
      </trkpt>
      <trkpt lat="47.06624" lon="5.51618">
        <ele>238</ele>
        <time>2013-07-12T15:55:27Z</time>
      </trkpt>
      <trkpt lat="47.06629" lon="5.51596">
        <ele>233</ele>
        <time>2013-07-12T15:55:29Z</time>
      </trkpt>
      <trkpt lat="47.06637" lon="5.51574">
        <ele>233</ele>
        <time>2013-07-12T15:55:31Z</time>
      </trkpt>
      <trkpt lat="47.06643" lon="5.51553">
        <ele>233</ele>
        <time>2013-07-12T15:55:33Z</time>
      </trkpt>
      <trkpt lat="47.0665" lon="5.51532">
        <ele>233</ele>
        <time>2013-07-12T15:55:35Z</time>
      </trkpt>
      <trkpt lat="47.06656" lon="5.5151">
        <ele>233</ele>
        <time>2013-07-12T15:55:37Z</time>
      </trkpt>
      <trkpt lat="47.06663" lon="5.51487">
        <ele>233</ele>
        <time>2013-07-12T15:55:39Z</time>
      </trkpt>
      <trkpt lat="47.06669" lon="5.51466">
        <ele>227</ele>
        <time>2013-07-12T15:55:41Z</time>
      </trkpt>
      <trkpt lat="47.06676" lon="5.51444">
        <ele>227</ele>
        <time>2013-07-12T15:55:43Z</time>
      </trkpt>
      <trkpt lat="47.06681" lon="5.51423">
        <ele>227</ele>
        <time>2013-07-12T15:55:45Z</time>
      </trkpt>
      <trkpt lat="47.06686" lon="5.51402">
        <ele>227</ele>
        <time>2013-07-12T15:55:47Z</time>
      </trkpt>
      <trkpt lat="47.06692" lon="5.51383">
        <ele>227</ele>
        <time>2013-07-12T15:55:49Z</time>
      </trkpt>
      <trkpt lat="47.06699" lon="5.51365">
        <ele>227</ele>
        <time>2013-07-12T15:55:51Z</time>
      </trkpt>
      <trkpt lat="47.06705" lon="5.51346">
        <ele>227</ele>
        <time>2013-07-12T15:55:53Z</time>
      </trkpt>
      <trkpt lat="47.0671" lon="5.51328">
        <ele>227</ele>
        <time>2013-07-12T15:55:55Z</time>
      </trkpt>
      <trkpt lat="47.06716" lon="5.5131">
        <ele>227</ele>
        <time>2013-07-12T15:55:57Z</time>
      </trkpt>
      <trkpt lat="47.0672" lon="5.51292">
        <ele>227</ele>
        <time>2013-07-12T15:55:59Z</time>
      </trkpt>
      <trkpt lat="47.06725" lon="5.51274">
        <ele>227</ele>
        <time>2013-07-12T15:56:01Z</time>
      </trkpt>
      <trkpt lat="47.06729" lon="5.51256">
        <ele>227</ele>
        <time>2013-07-12T15:56:03Z</time>
      </trkpt>
      <trkpt lat="47.06734" lon="5.51238">
        <ele>232</ele>
        <time>2013-07-12T15:56:05Z</time>
      </trkpt>
      <trkpt lat="47.0674" lon="5.51222">
        <ele>232</ele>
        <time>2013-07-12T15:56:07Z</time>
      </trkpt>
      <trkpt lat="47.06745" lon="5.51205">
        <ele>232</ele>
        <time>2013-07-12T15:56:09Z</time>
      </trkpt>
      <trkpt lat="47.06749" lon="5.5119">
        <ele>232</ele>
        <time>2013-07-12T15:56:11Z</time>
      </trkpt>
      <trkpt lat="47.06753" lon="5.51176">
        <ele>240</ele>
        <time>2013-07-12T15:56:13Z</time>
      </trkpt>
      <trkpt lat="47.06756" lon="5.51161">
        <ele>240</ele>
        <time>2013-07-12T15:56:15Z</time>
      </trkpt>
      <trkpt lat="47.06759" lon="5.51145">
        <ele>240</ele>
        <time>2013-07-12T15:56:17Z</time>
      </trkpt>
      <trkpt lat="47.06762" lon="5.51133">
        <ele>240</ele>
        <time>2013-07-12T15:56:19Z</time>
      </trkpt>
      <trkpt lat="47.06766" lon="5.51118">
        <ele>240</ele>
        <time>2013-07-12T15:56:21Z</time>
      </trkpt>
      <trkpt lat="47.06773" lon="5.511">
        <ele>240</ele>
        <time>2013-07-12T15:56:23Z</time>
      </trkpt>
      <trkpt lat="47.06778" lon="5.51087">
        <ele>240</ele>
        <time>2013-07-12T15:56:25Z</time>
      </trkpt>
      <trkpt lat="47.06783" lon="5.51069">
        <ele>240</ele>
        <time>2013-07-12T15:56:27Z</time>
      </trkpt>
      <trkpt lat="47.06788" lon="5.51054">
        <ele>240</ele>
        <time>2013-07-12T15:56:29Z</time>
      </trkpt>
      <trkpt lat="47.06793" lon="5.51039">
        <ele>240</ele>
        <time>2013-07-12T15:56:31Z</time>
      </trkpt>
      <trkpt lat="47.06798" lon="5.51024">
        <ele>240</ele>
        <time>2013-07-12T15:56:33Z</time>
      </trkpt>
      <trkpt lat="47.06802" lon="5.5101">
        <ele>240</ele>
        <time>2013-07-12T15:56:35Z</time>
      </trkpt>
      <trkpt lat="47.06807" lon="5.50996">
        <ele>240</ele>
        <time>2013-07-12T15:56:37Z</time>
      </trkpt>
      <trkpt lat="47.06811" lon="5.50981">
        <ele>240</ele>
        <time>2013-07-12T15:56:39Z</time>
      </trkpt>
      <trkpt lat="47.06815" lon="5.50964">
        <ele>240</ele>
        <time>2013-07-12T15:56:41Z</time>
      </trkpt>
      <trkpt lat="47.06819" lon="5.50948">
        <ele>240</ele>
        <time>2013-07-12T15:56:43Z</time>
      </trkpt>
      <trkpt lat="47.06824" lon="5.50931">
        <ele>235</ele>
        <time>2013-07-12T15:56:45Z</time>
      </trkpt>
      <trkpt lat="47.06829" lon="5.50915">
        <ele>235</ele>
        <time>2013-07-12T15:56:47Z</time>
      </trkpt>
      <trkpt lat="47.06834" lon="5.50897">
        <ele>235</ele>
        <time>2013-07-12T15:56:49Z</time>
      </trkpt>
      <trkpt lat="47.0684" lon="5.50878">
        <ele>229</ele>
        <time>2013-07-12T15:56:51Z</time>
      </trkpt>
      <trkpt lat="47.06846" lon="5.5086">
        <ele>229</ele>
        <time>2013-07-12T15:56:53Z</time>
      </trkpt>
      <trkpt lat="47.06854" lon="5.50839">
        <ele>229</ele>
        <time>2013-07-12T15:56:55Z</time>
      </trkpt>
      <trkpt lat="47.06861" lon="5.5082">
        <ele>229</ele>
        <time>2013-07-12T15:56:57Z</time>
      </trkpt>
      <trkpt lat="47.06868" lon="5.50801">
        <ele>229</ele>
        <time>2013-07-12T15:56:59Z</time>
      </trkpt>
      <trkpt lat="47.06875" lon="5.50782">
        <ele>229</ele>
        <time>2013-07-12T15:57:01Z</time>
      </trkpt>
      <trkpt lat="47.06881" lon="5.50763">
        <ele>229</ele>
        <time>2013-07-12T15:57:03Z</time>
      </trkpt>
      <trkpt lat="47.06885" lon="5.50741">
        <ele>229</ele>
        <time>2013-07-12T15:57:05Z</time>
      </trkpt>
      <trkpt lat="47.06888" lon="5.50723">
        <ele>229</ele>
        <time>2013-07-12T15:57:07Z</time>
      </trkpt>
      <trkpt lat="47.06891" lon="5.50705">
        <ele>229</ele>
        <time>2013-07-12T15:57:09Z</time>
      </trkpt>
      <trkpt lat="47.06897" lon="5.50686">
        <ele>229</ele>
        <time>2013-07-12T15:57:11Z</time>
      </trkpt>
      <trkpt lat="47.06901" lon="5.50668">
        <ele>229</ele>
        <time>2013-07-12T15:57:13Z</time>
      </trkpt>
      <trkpt lat="47.06906" lon="5.50652">
        <ele>229</ele>
        <time>2013-07-12T15:57:15Z</time>
      </trkpt>
      <trkpt lat="47.06912" lon="5.50635">
        <ele>229</ele>
        <time>2013-07-12T15:57:17Z</time>
      </trkpt>
      <trkpt lat="47.06918" lon="5.5062">
        <ele>229</ele>
        <time>2013-07-12T15:57:19Z</time>
      </trkpt>
      <trkpt lat="47.06922" lon="5.50604">
        <ele>229</ele>
        <time>2013-07-12T15:57:21Z</time>
      </trkpt>
      <trkpt lat="47.06926" lon="5.50588">
        <ele>229</ele>
        <time>2013-07-12T15:57:23Z</time>
      </trkpt>
      <trkpt lat="47.06931" lon="5.50572">
        <ele>229</ele>
        <time>2013-07-12T15:57:25Z</time>
      </trkpt>
      <trkpt lat="47.06935" lon="5.50556">
        <ele>229</ele>
        <time>2013-07-12T15:57:27Z</time>
      </trkpt>
      <trkpt lat="47.06943" lon="5.50541">
        <ele>229</ele>
        <time>2013-07-12T15:57:29Z</time>
      </trkpt>
      <trkpt lat="47.06948" lon="5.50527">
        <ele>229</ele>
        <time>2013-07-12T15:57:31Z</time>
      </trkpt>
      <trkpt lat="47.06952" lon="5.50511">
        <ele>229</ele>
        <time>2013-07-12T15:57:33Z</time>
      </trkpt>
      <trkpt lat="47.06958" lon="5.50497">
        <ele>229</ele>
        <time>2013-07-12T15:57:35Z</time>
      </trkpt>
      <trkpt lat="47.06962" lon="5.50482">
        <ele>229</ele>
        <time>2013-07-12T15:57:37Z</time>
      </trkpt>
      <trkpt lat="47.06967" lon="5.50468">
        <ele>229</ele>
        <time>2013-07-12T15:57:39Z</time>
      </trkpt>
      <trkpt lat="47.06971" lon="5.50454">
        <ele>234</ele>
        <time>2013-07-12T15:57:42Z</time>
      </trkpt>
      <trkpt lat="47.06964" lon="5.50445">
        <ele>234</ele>
        <time>2013-07-12T15:58:43Z</time>
      </trkpt>
      <trkpt lat="47.06958" lon="5.50457">
        <ele>259</ele>
        <time>2013-07-12T16:00:17Z</time>
      </trkpt>
      <trkpt lat="47.06966" lon="5.50446">
        <ele>251</ele>
        <time>2013-07-12T16:00:27Z</time>
      </trkpt>
      <trkpt lat="47.06976" lon="5.50438">
        <ele>251</ele>
        <time>2013-07-12T16:00:31Z</time>
      </trkpt>
      <trkpt lat="47.06985" lon="5.5043">
        <ele>251</ele>
        <time>2013-07-12T16:00:34Z</time>
      </trkpt>
      <trkpt lat="47.06996" lon="5.50421">
        <ele>251</ele>
        <time>2013-07-12T16:00:37Z</time>
      </trkpt>
      <trkpt lat="47.07004" lon="5.50415">
        <ele>251</ele>
        <time>2013-07-12T16:00:39Z</time>
      </trkpt>
      <trkpt lat="47.07012" lon="5.50409">
        <ele>245</ele>
        <time>2013-07-12T16:00:41Z</time>
      </trkpt>
      <trkpt lat="47.0702" lon="5.50402">
        <ele>245</ele>
        <time>2013-07-12T16:00:43Z</time>
      </trkpt>
      <trkpt lat="47.07029" lon="5.50396">
        <ele>245</ele>
        <time>2013-07-12T16:00:45Z</time>
      </trkpt>
      <trkpt lat="47.07039" lon="5.50389">
        <ele>245</ele>
        <time>2013-07-12T16:00:47Z</time>
      </trkpt>
      <trkpt lat="47.07048" lon="5.50382">
        <ele>240</ele>
        <time>2013-07-12T16:00:49Z</time>
      </trkpt>
      <trkpt lat="47.07059" lon="5.50374">
        <ele>240</ele>
        <time>2013-07-12T16:00:51Z</time>
      </trkpt>
      <trkpt lat="47.07071" lon="5.50365">
        <ele>240</ele>
        <time>2013-07-12T16:00:53Z</time>
      </trkpt>
      <trkpt lat="47.07082" lon="5.50355">
        <ele>240</ele>
        <time>2013-07-12T16:00:55Z</time>
      </trkpt>
      <trkpt lat="47.07094" lon="5.50346">
        <ele>240</ele>
        <time>2013-07-12T16:00:57Z</time>
      </trkpt>
      <trkpt lat="47.07107" lon="5.50337">
        <ele>240</ele>
        <time>2013-07-12T16:00:59Z</time>
      </trkpt>
      <trkpt lat="47.07121" lon="5.50328">
        <ele>240</ele>
        <time>2013-07-12T16:01:01Z</time>
      </trkpt>
      <trkpt lat="47.07135" lon="5.50319">
        <ele>240</ele>
        <time>2013-07-12T16:01:03Z</time>
      </trkpt>
      <trkpt lat="47.07149" lon="5.5031">
        <ele>240</ele>
        <time>2013-07-12T16:01:05Z</time>
      </trkpt>
      <trkpt lat="47.07163" lon="5.50301">
        <ele>235</ele>
        <time>2013-07-12T16:01:07Z</time>
      </trkpt>
      <trkpt lat="47.07177" lon="5.50293">
        <ele>235</ele>
        <time>2013-07-12T16:01:09Z</time>
      </trkpt>
      <trkpt lat="47.07192" lon="5.50285">
        <ele>235</ele>
        <time>2013-07-12T16:01:11Z</time>
      </trkpt>
      <trkpt lat="47.07207" lon="5.50276">
        <ele>235</ele>
        <time>2013-07-12T16:01:13Z</time>
      </trkpt>
      <trkpt lat="47.07221" lon="5.50268">
        <ele>235</ele>
        <time>2013-07-12T16:01:15Z</time>
      </trkpt>
      <trkpt lat="47.07236" lon="5.50259">
        <ele>235</ele>
        <time>2013-07-12T16:01:17Z</time>
      </trkpt>
      <trkpt lat="47.07251" lon="5.50251">
        <ele>235</ele>
        <time>2013-07-12T16:01:19Z</time>
      </trkpt>
      <trkpt lat="47.07266" lon="5.50244">
        <ele>229</ele>
        <time>2013-07-12T16:01:21Z</time>
      </trkpt>
      <trkpt lat="47.07282" lon="5.50237">
        <ele>229</ele>
        <time>2013-07-12T16:01:23Z</time>
      </trkpt>
      <trkpt lat="47.07296" lon="5.50231">
        <ele>229</ele>
        <time>2013-07-12T16:01:25Z</time>
      </trkpt>
      <trkpt lat="47.07311" lon="5.50224">
        <ele>229</ele>
        <time>2013-07-12T16:01:27Z</time>
      </trkpt>
      <trkpt lat="47.07326" lon="5.50219">
        <ele>229</ele>
        <time>2013-07-12T16:01:29Z</time>
      </trkpt>
      <trkpt lat="47.07341" lon="5.50215">
        <ele>229</ele>
        <time>2013-07-12T16:01:31Z</time>
      </trkpt>
      <trkpt lat="47.07355" lon="5.50213">
        <ele>229</ele>
        <time>2013-07-12T16:01:33Z</time>
      </trkpt>
      <trkpt lat="47.07369" lon="5.50211">
        <ele>229</ele>
        <time>2013-07-12T16:01:35Z</time>
      </trkpt>
      <trkpt lat="47.07382" lon="5.50211">
        <ele>229</ele>
        <time>2013-07-12T16:01:37Z</time>
      </trkpt>
      <trkpt lat="47.07396" lon="5.50211">
        <ele>229</ele>
        <time>2013-07-12T16:01:39Z</time>
      </trkpt>
      <trkpt lat="47.07409" lon="5.50211">
        <ele>229</ele>
        <time>2013-07-12T16:01:41Z</time>
      </trkpt>
      <trkpt lat="47.07422" lon="5.50212">
        <ele>229</ele>
        <time>2013-07-12T16:01:43Z</time>
      </trkpt>
      <trkpt lat="47.07435" lon="5.50212">
        <ele>229</ele>
        <time>2013-07-12T16:01:45Z</time>
      </trkpt>
      <trkpt lat="47.07448" lon="5.50212">
        <ele>229</ele>
        <time>2013-07-12T16:01:47Z</time>
      </trkpt>
      <trkpt lat="47.0746" lon="5.50211">
        <ele>229</ele>
        <time>2013-07-12T16:01:49Z</time>
      </trkpt>
      <trkpt lat="47.07473" lon="5.5021">
        <ele>229</ele>
        <time>2013-07-12T16:01:51Z</time>
      </trkpt>
      <trkpt lat="47.07486" lon="5.50207">
        <ele>229</ele>
        <time>2013-07-12T16:01:53Z</time>
      </trkpt>
      <trkpt lat="47.07499" lon="5.50204">
        <ele>229</ele>
        <time>2013-07-12T16:01:55Z</time>
      </trkpt>
      <trkpt lat="47.07511" lon="5.502">
        <ele>229</ele>
        <time>2013-07-12T16:01:57Z</time>
      </trkpt>
      <trkpt lat="47.07523" lon="5.50197">
        <ele>229</ele>
        <time>2013-07-12T16:01:59Z</time>
      </trkpt>
      <trkpt lat="47.07536" lon="5.50193">
        <ele>229</ele>
        <time>2013-07-12T16:02:01Z</time>
      </trkpt>
      <trkpt lat="47.07549" lon="5.50189">
        <ele>229</ele>
        <time>2013-07-12T16:02:03Z</time>
      </trkpt>
      <trkpt lat="47.07563" lon="5.50187">
        <ele>229</ele>
        <time>2013-07-12T16:02:05Z</time>
      </trkpt>
      <trkpt lat="47.07577" lon="5.50183">
        <ele>229</ele>
        <time>2013-07-12T16:02:07Z</time>
      </trkpt>
      <trkpt lat="47.07591" lon="5.50179">
        <ele>229</ele>
        <time>2013-07-12T16:02:09Z</time>
      </trkpt>
      <trkpt lat="47.07605" lon="5.50174">
        <ele>229</ele>
        <time>2013-07-12T16:02:11Z</time>
      </trkpt>
      <trkpt lat="47.0762" lon="5.50171">
        <ele>229</ele>
        <time>2013-07-12T16:02:13Z</time>
      </trkpt>
      <trkpt lat="47.07635" lon="5.50166">
        <ele>229</ele>
        <time>2013-07-12T16:02:15Z</time>
      </trkpt>
      <trkpt lat="47.0765" lon="5.50162">
        <ele>229</ele>
        <time>2013-07-12T16:02:17Z</time>
      </trkpt>
      <trkpt lat="47.07665" lon="5.50158">
        <ele>229</ele>
        <time>2013-07-12T16:02:19Z</time>
      </trkpt>
      <trkpt lat="47.0768" lon="5.50153">
        <ele>229</ele>
        <time>2013-07-12T16:02:21Z</time>
      </trkpt>
      <trkpt lat="47.07695" lon="5.50148">
        <ele>229</ele>
        <time>2013-07-12T16:02:23Z</time>
      </trkpt>
      <trkpt lat="47.0771" lon="5.50144">
        <ele>229</ele>
        <time>2013-07-12T16:02:25Z</time>
      </trkpt>
      <trkpt lat="47.07723" lon="5.50136">
        <ele>229</ele>
        <time>2013-07-12T16:02:27Z</time>
      </trkpt>
      <trkpt lat="47.07737" lon="5.50129">
        <ele>229</ele>
        <time>2013-07-12T16:02:29Z</time>
      </trkpt>
      <trkpt lat="47.07749" lon="5.50122">
        <ele>229</ele>
        <time>2013-07-12T16:02:31Z</time>
      </trkpt>
      <trkpt lat="47.07762" lon="5.50114">
        <ele>229</ele>
        <time>2013-07-12T16:02:33Z</time>
      </trkpt>
      <trkpt lat="47.07774" lon="5.50108">
        <ele>229</ele>
        <time>2013-07-12T16:02:35Z</time>
      </trkpt>
      <trkpt lat="47.07785" lon="5.501">
        <ele>229</ele>
        <time>2013-07-12T16:02:37Z</time>
      </trkpt>
      <trkpt lat="47.07797" lon="5.50094">
        <ele>229</ele>
        <time>2013-07-12T16:02:39Z</time>
      </trkpt>
      <trkpt lat="47.07808" lon="5.50088">
        <ele>229</ele>
        <time>2013-07-12T16:02:41Z</time>
      </trkpt>
      <trkpt lat="47.07818" lon="5.50083">
        <ele>229</ele>
        <time>2013-07-12T16:02:43Z</time>
      </trkpt>
      <trkpt lat="47.07827" lon="5.50075">
        <ele>229</ele>
        <time>2013-07-12T16:02:45Z</time>
      </trkpt>
      <trkpt lat="47.07836" lon="5.50067">
        <ele>229</ele>
        <time>2013-07-12T16:02:47Z</time>
      </trkpt>
      <trkpt lat="47.07846" lon="5.50057">
        <ele>229</ele>
        <time>2013-07-12T16:02:49Z</time>
      </trkpt>
      <trkpt lat="47.07855" lon="5.50048">
        <ele>229</ele>
        <time>2013-07-12T16:02:51Z</time>
      </trkpt>
      <trkpt lat="47.07865" lon="5.50038">
        <ele>229</ele>
        <time>2013-07-12T16:02:53Z</time>
      </trkpt>
      <trkpt lat="47.07874" lon="5.50028">
        <ele>229</ele>
        <time>2013-07-12T16:02:55Z</time>
      </trkpt>
      <trkpt lat="47.07884" lon="5.50018">
        <ele>229</ele>
        <time>2013-07-12T16:02:57Z</time>
      </trkpt>
      <trkpt lat="47.07894" lon="5.50007">
        <ele>229</ele>
        <time>2013-07-12T16:02:59Z</time>
      </trkpt>
      <trkpt lat="47.07905" lon="5.49996">
        <ele>229</ele>
        <time>2013-07-12T16:03:01Z</time>
      </trkpt>
      <trkpt lat="47.07915" lon="5.49985">
        <ele>229</ele>
        <time>2013-07-12T16:03:03Z</time>
      </trkpt>
      <trkpt lat="47.07926" lon="5.49974">
        <ele>229</ele>
        <time>2013-07-12T16:03:05Z</time>
      </trkpt>
      <trkpt lat="47.07937" lon="5.49964">
        <ele>229</ele>
        <time>2013-07-12T16:03:07Z</time>
      </trkpt>
      <trkpt lat="47.07948" lon="5.49954">
        <ele>229</ele>
        <time>2013-07-12T16:03:09Z</time>
      </trkpt>
      <trkpt lat="47.0796" lon="5.49944">
        <ele>229</ele>
        <time>2013-07-12T16:03:11Z</time>
      </trkpt>
      <trkpt lat="47.07971" lon="5.49933">
        <ele>229</ele>
        <time>2013-07-12T16:03:13Z</time>
      </trkpt>
      <trkpt lat="47.07982" lon="5.49923">
        <ele>229</ele>
        <time>2013-07-12T16:03:15Z</time>
      </trkpt>
      <trkpt lat="47.07994" lon="5.49911">
        <ele>229</ele>
        <time>2013-07-12T16:03:17Z</time>
      </trkpt>
      <trkpt lat="47.08004" lon="5.49899">
        <ele>229</ele>
        <time>2013-07-12T16:03:19Z</time>
      </trkpt>
      <trkpt lat="47.08013" lon="5.49889">
        <ele>229</ele>
        <time>2013-07-12T16:03:21Z</time>
      </trkpt>
      <trkpt lat="47.08022" lon="5.49879">
        <ele>229</ele>
        <time>2013-07-12T16:03:23Z</time>
      </trkpt>
      <trkpt lat="47.08031" lon="5.49869">
        <ele>229</ele>
        <time>2013-07-12T16:03:25Z</time>
      </trkpt>
      <trkpt lat="47.0804" lon="5.49859">
        <ele>229</ele>
        <time>2013-07-12T16:03:27Z</time>
      </trkpt>
      <trkpt lat="47.08049" lon="5.4985">
        <ele>229</ele>
        <time>2013-07-12T16:03:29Z</time>
      </trkpt>
      <trkpt lat="47.0806" lon="5.49846">
        <ele>229</ele>
        <time>2013-07-12T16:03:31Z</time>
      </trkpt>
      <trkpt lat="47.08071" lon="5.49846">
        <ele>229</ele>
        <time>2013-07-12T16:03:33Z</time>
      </trkpt>
      <trkpt lat="47.08082" lon="5.49845">
        <ele>229</ele>
        <time>2013-07-12T16:03:35Z</time>
      </trkpt>
      <trkpt lat="47.08093" lon="5.49844">
        <ele>229</ele>
        <time>2013-07-12T16:03:37Z</time>
      </trkpt>
      <trkpt lat="47.08103" lon="5.49844">
        <ele>229</ele>
        <time>2013-07-12T16:03:39Z</time>
      </trkpt>
      <trkpt lat="47.08116" lon="5.49844">
        <ele>229</ele>
        <time>2013-07-12T16:03:42Z</time>
      </trkpt>
      <trkpt lat="47.08127" lon="5.4984">
        <ele>229</ele>
        <time>2013-07-12T16:03:45Z</time>
      </trkpt>
      <trkpt lat="47.08136" lon="5.4984">
        <ele>229</ele>
        <time>2013-07-12T16:03:47Z</time>
      </trkpt>
      <trkpt lat="47.08147" lon="5.4984">
        <ele>229</ele>
        <time>2013-07-12T16:03:49Z</time>
      </trkpt>
      <trkpt lat="47.08157" lon="5.4984">
        <ele>229</ele>
        <time>2013-07-12T16:03:51Z</time>
      </trkpt>
      <trkpt lat="47.08168" lon="5.49838">
        <ele>229</ele>
        <time>2013-07-12T16:03:53Z</time>
      </trkpt>
      <trkpt lat="47.08179" lon="5.49835">
        <ele>229</ele>
        <time>2013-07-12T16:03:55Z</time>
      </trkpt>
      <trkpt lat="47.0819" lon="5.49834">
        <ele>236</ele>
        <time>2013-07-12T16:03:57Z</time>
      </trkpt>
      <trkpt lat="47.08202" lon="5.49832">
        <ele>236</ele>
        <time>2013-07-12T16:03:59Z</time>
      </trkpt>
      <trkpt lat="47.08214" lon="5.49827">
        <ele>236</ele>
        <time>2013-07-12T16:04:01Z</time>
      </trkpt>
      <trkpt lat="47.08226" lon="5.49828">
        <ele>236</ele>
        <time>2013-07-12T16:04:03Z</time>
      </trkpt>
      <trkpt lat="47.08238" lon="5.49827">
        <ele>236</ele>
        <time>2013-07-12T16:04:05Z</time>
      </trkpt>
      <trkpt lat="47.08251" lon="5.49824">
        <ele>236</ele>
        <time>2013-07-12T16:04:07Z</time>
      </trkpt>
      <trkpt lat="47.08265" lon="5.49821">
        <ele>236</ele>
        <time>2013-07-12T16:04:09Z</time>
      </trkpt>
      <trkpt lat="47.08281" lon="5.49815">
        <ele>236</ele>
        <time>2013-07-12T16:04:11Z</time>
      </trkpt>
      <trkpt lat="47.08297" lon="5.4981">
        <ele>236</ele>
        <time>2013-07-12T16:04:13Z</time>
      </trkpt>
      <trkpt lat="47.08306" lon="5.49806">
        <ele>236</ele>
        <time>2013-07-12T16:04:14Z</time>
      </trkpt>
      <trkpt lat="47.08314" lon="5.49801">
        <ele>236</ele>
        <time>2013-07-12T16:04:15Z</time>
      </trkpt>
      <trkpt lat="47.08323" lon="5.49797">
        <ele>236</ele>
        <time>2013-07-12T16:04:16Z</time>
      </trkpt>
      <trkpt lat="47.08332" lon="5.49791">
        <ele>236</ele>
        <time>2013-07-12T16:04:17Z</time>
      </trkpt>
      <trkpt lat="47.08342" lon="5.49785">
        <ele>236</ele>
        <time>2013-07-12T16:04:18Z</time>
      </trkpt>
      <trkpt lat="47.08351" lon="5.4978">
        <ele>236</ele>
        <time>2013-07-12T16:04:19Z</time>
      </trkpt>
      <trkpt lat="47.08361" lon="5.49773">
        <ele>231</ele>
        <time>2013-07-12T16:04:20Z</time>
      </trkpt>
      <trkpt lat="47.08371" lon="5.49767">
        <ele>231</ele>
        <time>2013-07-12T16:04:21Z</time>
      </trkpt>
      <trkpt lat="47.08381" lon="5.49761">
        <ele>231</ele>
        <time>2013-07-12T16:04:22Z</time>
      </trkpt>
      <trkpt lat="47.08392" lon="5.49755">
        <ele>231</ele>
        <time>2013-07-12T16:04:23Z</time>
      </trkpt>
      <trkpt lat="47.08402" lon="5.49748">
        <ele>231</ele>
        <time>2013-07-12T16:04:24Z</time>
      </trkpt>
      <trkpt lat="47.08411" lon="5.49742">
        <ele>231</ele>
        <time>2013-07-12T16:04:25Z</time>
      </trkpt>
      <trkpt lat="47.08421" lon="5.49736">
        <ele>225</ele>
        <time>2013-07-12T16:04:26Z</time>
      </trkpt>
      <trkpt lat="47.0843" lon="5.49729">
        <ele>225</ele>
        <time>2013-07-12T16:04:27Z</time>
      </trkpt>
      <trkpt lat="47.08441" lon="5.49724">
        <ele>225</ele>
        <time>2013-07-12T16:04:28Z</time>
      </trkpt>
      <trkpt lat="47.08451" lon="5.49717">
        <ele>225</ele>
        <time>2013-07-12T16:04:29Z</time>
      </trkpt>
      <trkpt lat="47.08461" lon="5.49709">
        <ele>225</ele>
        <time>2013-07-12T16:04:30Z</time>
      </trkpt>
      <trkpt lat="47.0847" lon="5.49699">
        <ele>225</ele>
        <time>2013-07-12T16:04:31Z</time>
      </trkpt>
      <trkpt lat="47.08479" lon="5.49693">
        <ele>225</ele>
        <time>2013-07-12T16:04:32Z</time>
      </trkpt>
      <trkpt lat="47.08489" lon="5.49687">
        <ele>225</ele>
        <time>2013-07-12T16:04:33Z</time>
      </trkpt>
      <trkpt lat="47.08499" lon="5.49682">
        <ele>225</ele>
        <time>2013-07-12T16:04:34Z</time>
      </trkpt>
      <trkpt lat="47.08508" lon="5.49676">
        <ele>218</ele>
        <time>2013-07-12T16:04:35Z</time>
      </trkpt>
      <trkpt lat="47.08518" lon="5.4967">
        <ele>218</ele>
        <time>2013-07-12T16:04:36Z</time>
      </trkpt>
      <trkpt lat="47.08529" lon="5.49665">
        <ele>218</ele>
        <time>2013-07-12T16:04:37Z</time>
      </trkpt>
      <trkpt lat="47.08539" lon="5.49659">
        <ele>218</ele>
        <time>2013-07-12T16:04:38Z</time>
      </trkpt>
      <trkpt lat="47.08549" lon="5.49653">
        <ele>213</ele>
        <time>2013-07-12T16:04:39Z</time>
      </trkpt>
      <trkpt lat="47.08559" lon="5.49647">
        <ele>213</ele>
        <time>2013-07-12T16:04:40Z</time>
      </trkpt>
      <trkpt lat="47.08569" lon="5.49641">
        <ele>213</ele>
        <time>2013-07-12T16:04:41Z</time>
      </trkpt>
      <trkpt lat="47.08579" lon="5.49634">
        <ele>213</ele>
        <time>2013-07-12T16:04:42Z</time>
      </trkpt>
      <trkpt lat="47.08588" lon="5.49628">
        <ele>213</ele>
        <time>2013-07-12T16:04:43Z</time>
      </trkpt>
      <trkpt lat="47.08598" lon="5.49622">
        <ele>213</ele>
        <time>2013-07-12T16:04:44Z</time>
      </trkpt>
      <trkpt lat="47.08608" lon="5.49616">
        <ele>213</ele>
        <time>2013-07-12T16:04:45Z</time>
      </trkpt>
      <trkpt lat="47.08617" lon="5.4961">
        <ele>213</ele>
        <time>2013-07-12T16:04:46Z</time>
      </trkpt>
      <trkpt lat="47.08626" lon="5.49604">
        <ele>213</ele>
        <time>2013-07-12T16:04:47Z</time>
      </trkpt>
      <trkpt lat="47.08634" lon="5.49599">
        <ele>213</ele>
        <time>2013-07-12T16:04:48Z</time>
      </trkpt>
      <trkpt lat="47.0865" lon="5.49589">
        <ele>213</ele>
        <time>2013-07-12T16:04:50Z</time>
      </trkpt>
      <trkpt lat="47.08664" lon="5.49581">
        <ele>213</ele>
        <time>2013-07-12T16:04:52Z</time>
      </trkpt>
      <trkpt lat="47.08674" lon="5.49576">
        <ele>213</ele>
        <time>2013-07-12T16:04:54Z</time>
      </trkpt>
      <trkpt lat="47.08683" lon="5.49579">
        <ele>213</ele>
        <time>2013-07-12T16:04:56Z</time>
      </trkpt>
      <trkpt lat="47.08692" lon="5.49588">
        <ele>207</ele>
        <time>2013-07-12T16:04:58Z</time>
      </trkpt>
      <trkpt lat="47.08703" lon="5.49588">
        <ele>207</ele>
        <time>2013-07-12T16:05:00Z</time>
      </trkpt>
      <trkpt lat="47.08713" lon="5.49583">
        <ele>207</ele>
        <time>2013-07-12T16:05:02Z</time>
      </trkpt>
      <trkpt lat="47.0872" lon="5.49573">
        <ele>207</ele>
        <time>2013-07-12T16:05:04Z</time>
      </trkpt>
      <trkpt lat="47.08724" lon="5.49556">
        <ele>207</ele>
        <time>2013-07-12T16:05:07Z</time>
      </trkpt>
      <trkpt lat="47.08732" lon="5.49538">
        <ele>207</ele>
        <time>2013-07-12T16:05:10Z</time>
      </trkpt>
      <trkpt lat="47.0874" lon="5.49529">
        <ele>207</ele>
        <time>2013-07-12T16:05:12Z</time>
      </trkpt>
      <trkpt lat="47.08749" lon="5.49522">
        <ele>207</ele>
        <time>2013-07-12T16:05:14Z</time>
      </trkpt>
      <trkpt lat="47.08759" lon="5.49515">
        <ele>207</ele>
        <time>2013-07-12T16:05:16Z</time>
      </trkpt>
      <trkpt lat="47.08769" lon="5.49508">
        <ele>207</ele>
        <time>2013-07-12T16:05:19Z</time>
      </trkpt>
      <trkpt lat="47.08782" lon="5.49499">
        <ele>207</ele>
        <time>2013-07-12T16:05:22Z</time>
      </trkpt>
      <trkpt lat="47.08792" lon="5.49491">
        <ele>207</ele>
        <time>2013-07-12T16:05:24Z</time>
      </trkpt>
      <trkpt lat="47.08803" lon="5.49485">
        <ele>207</ele>
        <time>2013-07-12T16:05:26Z</time>
      </trkpt>
      <trkpt lat="47.08812" lon="5.49479">
        <ele>207</ele>
        <time>2013-07-12T16:05:29Z</time>
      </trkpt>
      <trkpt lat="47.08821" lon="5.4947">
        <ele>213</ele>
        <time>2013-07-12T16:06:22Z</time>
      </trkpt>
      <trkpt lat="47.0883" lon="5.49464">
        <ele>213</ele>
        <time>2013-07-12T16:06:25Z</time>
      </trkpt>
      <trkpt lat="47.08839" lon="5.49458">
        <ele>213</ele>
        <time>2013-07-12T16:06:27Z</time>
      </trkpt>
      <trkpt lat="47.08849" lon="5.49451">
        <ele>213</ele>
        <time>2013-07-12T16:06:29Z</time>
      </trkpt>
      <trkpt lat="47.08861" lon="5.49444">
        <ele>213</ele>
        <time>2013-07-12T16:06:31Z</time>
      </trkpt>
      <trkpt lat="47.08872" lon="5.49438">
        <ele>213</ele>
        <time>2013-07-12T16:06:33Z</time>
      </trkpt>
      <trkpt lat="47.08881" lon="5.49432">
        <ele>213</ele>
        <time>2013-07-12T16:06:35Z</time>
      </trkpt>
      <trkpt lat="47.08891" lon="5.49425">
        <ele>213</ele>
        <time>2013-07-12T16:06:38Z</time>
      </trkpt>
      <trkpt lat="47.08894" lon="5.49411">
        <ele>213</ele>
        <time>2013-07-12T16:06:41Z</time>
      </trkpt>
      <trkpt lat="47.0889" lon="5.49395">
        <ele>213</ele>
        <time>2013-07-12T16:06:43Z</time>
      </trkpt>
      <trkpt lat="47.08884" lon="5.49376">
        <ele>213</ele>
        <time>2013-07-12T16:06:45Z</time>
      </trkpt>
      <trkpt lat="47.08879" lon="5.49356">
        <ele>213</ele>
        <time>2013-07-12T16:06:47Z</time>
      </trkpt>
      <trkpt lat="47.08876" lon="5.49343">
        <ele>213</ele>
        <time>2013-07-12T16:06:48Z</time>
      </trkpt>
      <trkpt lat="47.08871" lon="5.49321">
        <ele>213</ele>
        <time>2013-07-12T16:06:50Z</time>
      </trkpt>
      <trkpt lat="47.08865" lon="5.493">
        <ele>213</ele>
        <time>2013-07-12T16:06:52Z</time>
      </trkpt>
      <trkpt lat="47.0886" lon="5.49283">
        <ele>213</ele>
        <time>2013-07-12T16:06:54Z</time>
      </trkpt>
      <trkpt lat="47.0886" lon="5.4927">
        <ele>213</ele>
        <time>2013-07-12T16:06:56Z</time>
      </trkpt>
      <trkpt lat="47.08867" lon="5.49261">
        <ele>213</ele>
        <time>2013-07-12T16:06:58Z</time>
      </trkpt>
      <trkpt lat="47.08875" lon="5.49247">
        <ele>213</ele>
        <time>2013-07-12T16:07:00Z</time>
      </trkpt>
      <trkpt lat="47.08875" lon="5.4923">
        <ele>213</ele>
        <time>2013-07-12T16:07:02Z</time>
      </trkpt>
      <trkpt lat="47.08871" lon="5.49217">
        <ele>213</ele>
        <time>2013-07-12T16:07:03Z</time>
      </trkpt>
      <trkpt lat="47.08859" lon="5.49202">
        <ele>213</ele>
        <time>2013-07-12T16:07:05Z</time>
      </trkpt>
      <trkpt lat="47.08849" lon="5.49186">
        <ele>207</ele>
        <time>2013-07-12T16:07:07Z</time>
      </trkpt>
      <trkpt lat="47.08838" lon="5.49174">
        <ele>207</ele>
        <time>2013-07-12T16:07:09Z</time>
      </trkpt>
      <trkpt lat="47.08825" lon="5.49165">
        <ele>207</ele>
        <time>2013-07-12T16:07:11Z</time>
      </trkpt>
      <trkpt lat="47.08811" lon="5.49159">
        <ele>207</ele>
        <time>2013-07-12T16:07:13Z</time>
      </trkpt>
      <trkpt lat="47.08795" lon="5.49151">
        <ele>207</ele>
        <time>2013-07-12T16:07:15Z</time>
      </trkpt>
      <trkpt lat="47.08781" lon="5.49144">
        <ele>207</ele>
        <time>2013-07-12T16:07:17Z</time>
      </trkpt>
      <trkpt lat="47.08767" lon="5.49131">
        <ele>207</ele>
        <time>2013-07-12T16:07:19Z</time>
      </trkpt>
      <trkpt lat="47.08754" lon="5.49117">
        <ele>202</ele>
        <time>2013-07-12T16:07:21Z</time>
      </trkpt>
      <trkpt lat="47.08742" lon="5.49101">
        <ele>202</ele>
        <time>2013-07-12T16:07:23Z</time>
      </trkpt>
      <trkpt lat="47.08732" lon="5.49083">
        <ele>202</ele>
        <time>2013-07-12T16:07:25Z</time>
      </trkpt>
      <trkpt lat="47.08724" lon="5.49062">
        <ele>202</ele>
        <time>2013-07-12T16:07:27Z</time>
      </trkpt>
      <trkpt lat="47.08717" lon="5.49042">
        <ele>202</ele>
        <time>2013-07-12T16:07:29Z</time>
      </trkpt>
      <trkpt lat="47.0871" lon="5.49023">
        <ele>202</ele>
        <time>2013-07-12T16:07:31Z</time>
      </trkpt>
      <trkpt lat="47.08702" lon="5.49005">
        <ele>202</ele>
        <time>2013-07-12T16:07:33Z</time>
      </trkpt>
      <trkpt lat="47.08694" lon="5.48987">
        <ele>202</ele>
        <time>2013-07-12T16:07:35Z</time>
      </trkpt>
      <trkpt lat="47.08686" lon="5.4897">
        <ele>202</ele>
        <time>2013-07-12T16:07:37Z</time>
      </trkpt>
      <trkpt lat="47.08679" lon="5.48952">
        <ele>202</ele>
        <time>2013-07-12T16:07:39Z</time>
      </trkpt>
      <trkpt lat="47.08671" lon="5.48934">
        <ele>202</ele>
        <time>2013-07-12T16:07:41Z</time>
      </trkpt>
      <trkpt lat="47.08663" lon="5.48916">
        <ele>202</ele>
        <time>2013-07-12T16:07:43Z</time>
      </trkpt>
      <trkpt lat="47.08655" lon="5.48898">
        <ele>202</ele>
        <time>2013-07-12T16:07:45Z</time>
      </trkpt>
      <trkpt lat="47.08647" lon="5.4888">
        <ele>202</ele>
        <time>2013-07-12T16:07:47Z</time>
      </trkpt>
      <trkpt lat="47.0864" lon="5.48863">
        <ele>202</ele>
        <time>2013-07-12T16:07:49Z</time>
      </trkpt>
      <trkpt lat="47.08632" lon="5.48846">
        <ele>202</ele>
        <time>2013-07-12T16:07:51Z</time>
      </trkpt>
      <trkpt lat="47.08625" lon="5.48829">
        <ele>202</ele>
        <time>2013-07-12T16:07:53Z</time>
      </trkpt>
      <trkpt lat="47.08618" lon="5.48811">
        <ele>202</ele>
        <time>2013-07-12T16:07:55Z</time>
      </trkpt>
      <trkpt lat="47.08611" lon="5.48794">
        <ele>202</ele>
        <time>2013-07-12T16:07:57Z</time>
      </trkpt>
      <trkpt lat="47.08603" lon="5.48776">
        <ele>202</ele>
        <time>2013-07-12T16:07:59Z</time>
      </trkpt>
      <trkpt lat="47.08595" lon="5.48758">
        <ele>202</ele>
        <time>2013-07-12T16:08:01Z</time>
      </trkpt>
      <trkpt lat="47.08586" lon="5.48741">
        <ele>202</ele>
        <time>2013-07-12T16:08:03Z</time>
      </trkpt>
      <trkpt lat="47.08578" lon="5.48724">
        <ele>202</ele>
        <time>2013-07-12T16:08:05Z</time>
      </trkpt>
      <trkpt lat="47.08569" lon="5.48707">
        <ele>202</ele>
        <time>2013-07-12T16:08:07Z</time>
      </trkpt>
      <trkpt lat="47.0856" lon="5.4869">
        <ele>202</ele>
        <time>2013-07-12T16:08:09Z</time>
      </trkpt>
      <trkpt lat="47.08552" lon="5.48673">
        <ele>202</ele>
        <time>2013-07-12T16:08:11Z</time>
      </trkpt>
      <trkpt lat="47.08543" lon="5.48658">
        <ele>202</ele>
        <time>2013-07-12T16:08:13Z</time>
      </trkpt>
      <trkpt lat="47.08533" lon="5.48643">
        <ele>202</ele>
        <time>2013-07-12T16:08:15Z</time>
      </trkpt>
      <trkpt lat="47.08526" lon="5.4863">
        <ele>202</ele>
        <time>2013-07-12T16:08:17Z</time>
      </trkpt>
      <trkpt lat="47.08524" lon="5.48616">
        <ele>202</ele>
        <time>2013-07-12T16:08:19Z</time>
      </trkpt>
      <trkpt lat="47.08531" lon="5.48607">
        <ele>202</ele>
        <time>2013-07-12T16:08:21Z</time>
      </trkpt>
      <trkpt lat="47.08539" lon="5.48601">
        <ele>202</ele>
        <time>2013-07-12T16:08:23Z</time>
      </trkpt>
      <trkpt lat="47.08548" lon="5.48592">
        <ele>202</ele>
        <time>2013-07-12T16:08:26Z</time>
      </trkpt>
      <trkpt lat="47.08557" lon="5.48587">
        <ele>202</ele>
        <time>2013-07-12T16:08:29Z</time>
      </trkpt>
      <trkpt lat="47.08565" lon="5.48581">
        <ele>209</ele>
        <time>2013-07-12T16:08:32Z</time>
      </trkpt>
      <trkpt lat="47.08574" lon="5.48576">
        <ele>209</ele>
        <time>2013-07-12T16:08:35Z</time>
      </trkpt>
      <trkpt lat="47.08584" lon="5.48571">
        <ele>215</ele>
        <time>2013-07-12T16:08:39Z</time>
      </trkpt>
      <trkpt lat="47.08594" lon="5.48568">
        <ele>215</ele>
        <time>2013-07-12T16:08:42Z</time>
      </trkpt>
      <trkpt lat="47.08603" lon="5.48566">
        <ele>215</ele>
        <time>2013-07-12T16:08:45Z</time>
      </trkpt>
      <trkpt lat="47.08614" lon="5.4856">
        <ele>221</ele>
        <time>2013-07-12T16:08:49Z</time>
      </trkpt>
      <trkpt lat="47.08623" lon="5.48554">
        <ele>221</ele>
        <time>2013-07-12T16:08:52Z</time>
      </trkpt>
      <trkpt lat="47.08632" lon="5.48543">
        <ele>221</ele>
        <time>2013-07-12T16:08:56Z</time>
      </trkpt>
      <trkpt lat="47.08639" lon="5.48533">
        <ele>221</ele>
        <time>2013-07-12T16:08:59Z</time>
      </trkpt>
      <trkpt lat="47.08645" lon="5.48523">
        <ele>221</ele>
        <time>2013-07-12T16:09:02Z</time>
      </trkpt>
      <trkpt lat="47.08651" lon="5.48509">
        <ele>215</ele>
        <time>2013-07-12T16:09:06Z</time>
      </trkpt>
      <trkpt lat="47.08653" lon="5.48491">
        <ele>215</ele>
        <time>2013-07-12T16:09:10Z</time>
      </trkpt>
      <trkpt lat="47.08651" lon="5.48476">
        <ele>215</ele>
        <time>2013-07-12T16:09:13Z</time>
      </trkpt>
      <trkpt lat="47.08654" lon="5.4846">
        <ele>220</ele>
        <time>2013-07-12T16:09:17Z</time>
      </trkpt>
      <trkpt lat="47.08659" lon="5.48447">
        <ele>220</ele>
        <time>2013-07-12T16:09:21Z</time>
      </trkpt>
      <trkpt lat="47.08665" lon="5.48434">
        <ele>220</ele>
        <time>2013-07-12T16:09:25Z</time>
      </trkpt>
      <trkpt lat="47.08673" lon="5.48428">
        <ele>220</ele>
        <time>2013-07-12T16:09:59Z</time>
      </trkpt>
      <trkpt lat="47.08669" lon="5.48413">
        <ele>220</ele>
        <time>2013-07-12T16:10:05Z</time>
      </trkpt>
      <trkpt lat="47.0866" lon="5.48404">
        <ele>220</ele>
        <time>2013-07-12T16:10:08Z</time>
      </trkpt>
      <trkpt lat="47.08654" lon="5.48395">
        <ele>220</ele>
        <time>2013-07-12T16:10:10Z</time>
      </trkpt>
      <trkpt lat="47.08648" lon="5.48384">
        <ele>220</ele>
        <time>2013-07-12T16:10:12Z</time>
      </trkpt>
      <trkpt lat="47.08641" lon="5.48374">
        <ele>220</ele>
        <time>2013-07-12T16:10:14Z</time>
      </trkpt>
      <trkpt lat="47.08633" lon="5.48366">
        <ele>227</ele>
        <time>2013-07-12T16:10:16Z</time>
      </trkpt>
      <trkpt lat="47.08627" lon="5.48355">
        <ele>227</ele>
        <time>2013-07-12T16:10:18Z</time>
      </trkpt>
      <trkpt lat="47.08622" lon="5.48343">
        <ele>227</ele>
        <time>2013-07-12T16:10:20Z</time>
      </trkpt>
      <trkpt lat="47.08614" lon="5.48328">
        <ele>227</ele>
        <time>2013-07-12T16:10:23Z</time>
      </trkpt>
      <trkpt lat="47.08606" lon="5.48316">
        <ele>227</ele>
        <time>2013-07-12T16:10:26Z</time>
      </trkpt>
      <trkpt lat="47.08598" lon="5.48301">
        <ele>227</ele>
        <time>2013-07-12T16:10:29Z</time>
      </trkpt>
      <trkpt lat="47.08592" lon="5.48291">
        <ele>227</ele>
        <time>2013-07-12T16:10:31Z</time>
      </trkpt>
      <trkpt lat="47.08586" lon="5.48281">
        <ele>227</ele>
        <time>2013-07-12T16:10:33Z</time>
      </trkpt>
      <trkpt lat="47.08579" lon="5.48272">
        <ele>227</ele>
        <time>2013-07-12T16:10:35Z</time>
      </trkpt>
      <trkpt lat="47.08572" lon="5.48263">
        <ele>227</ele>
        <time>2013-07-12T16:10:37Z</time>
      </trkpt>
      <trkpt lat="47.08565" lon="5.48254">
        <ele>227</ele>
        <time>2013-07-12T16:10:39Z</time>
      </trkpt>
      <trkpt lat="47.08559" lon="5.48244">
        <ele>227</ele>
        <time>2013-07-12T16:10:41Z</time>
      </trkpt>
      <trkpt lat="47.08553" lon="5.48233">
        <ele>227</ele>
        <time>2013-07-12T16:10:43Z</time>
      </trkpt>
      <trkpt lat="47.08546" lon="5.48222">
        <ele>227</ele>
        <time>2013-07-12T16:10:45Z</time>
      </trkpt>
      <trkpt lat="47.0854" lon="5.48211">
        <ele>227</ele>
        <time>2013-07-12T16:10:47Z</time>
      </trkpt>
      <trkpt lat="47.08533" lon="5.482">
        <ele>227</ele>
        <time>2013-07-12T16:10:49Z</time>
      </trkpt>
      <trkpt lat="47.08526" lon="5.48188">
        <ele>227</ele>
        <time>2013-07-12T16:10:51Z</time>
      </trkpt>
      <trkpt lat="47.08518" lon="5.48176">
        <ele>227</ele>
        <time>2013-07-12T16:10:53Z</time>
      </trkpt>
      <trkpt lat="47.08511" lon="5.48166">
        <ele>227</ele>
        <time>2013-07-12T16:10:55Z</time>
      </trkpt>
      <trkpt lat="47.08505" lon="5.48154">
        <ele>227</ele>
        <time>2013-07-12T16:10:57Z</time>
      </trkpt>
      <trkpt lat="47.08497" lon="5.48142">
        <ele>227</ele>
        <time>2013-07-12T16:10:59Z</time>
      </trkpt>
      <trkpt lat="47.0849" lon="5.48131">
        <ele>227</ele>
        <time>2013-07-12T16:11:01Z</time>
      </trkpt>
      <trkpt lat="47.08483" lon="5.4812">
        <ele>227</ele>
        <time>2013-07-12T16:11:03Z</time>
      </trkpt>
      <trkpt lat="47.08476" lon="5.48109">
        <ele>227</ele>
        <time>2013-07-12T16:11:05Z</time>
      </trkpt>
      <trkpt lat="47.0847" lon="5.48098">
        <ele>227</ele>
        <time>2013-07-12T16:11:07Z</time>
      </trkpt>
      <trkpt lat="47.08463" lon="5.48087">
        <ele>227</ele>
        <time>2013-07-12T16:11:09Z</time>
      </trkpt>
      <trkpt lat="47.08456" lon="5.48077">
        <ele>227</ele>
        <time>2013-07-12T16:11:11Z</time>
      </trkpt>
      <trkpt lat="47.08449" lon="5.48067">
        <ele>227</ele>
        <time>2013-07-12T16:11:13Z</time>
      </trkpt>
      <trkpt lat="47.08443" lon="5.48056">
        <ele>227</ele>
        <time>2013-07-12T16:11:15Z</time>
      </trkpt>
      <trkpt lat="47.08437" lon="5.48046">
        <ele>227</ele>
        <time>2013-07-12T16:11:17Z</time>
      </trkpt>
      <trkpt lat="47.0843" lon="5.48036">
        <ele>227</ele>
        <time>2013-07-12T16:11:19Z</time>
      </trkpt>
      <trkpt lat="47.08424" lon="5.48026">
        <ele>227</ele>
        <time>2013-07-12T16:11:21Z</time>
      </trkpt>
      <trkpt lat="47.08418" lon="5.48016">
        <ele>227</ele>
        <time>2013-07-12T16:11:23Z</time>
      </trkpt>
      <trkpt lat="47.08411" lon="5.48007">
        <ele>227</ele>
        <time>2013-07-12T16:11:25Z</time>
      </trkpt>
      <trkpt lat="47.084" lon="5.47996">
        <ele>227</ele>
        <time>2013-07-12T16:11:28Z</time>
      </trkpt>
      <trkpt lat="47.08391" lon="5.47982">
        <ele>233</ele>
        <time>2013-07-12T16:11:31Z</time>
      </trkpt>
      <trkpt lat="47.08383" lon="5.47968">
        <ele>233</ele>
        <time>2013-07-12T16:11:34Z</time>
      </trkpt>
      <trkpt lat="47.08374" lon="5.47954">
        <ele>233</ele>
        <time>2013-07-12T16:11:37Z</time>
      </trkpt>
      <trkpt lat="47.08367" lon="5.47942">
        <ele>233</ele>
        <time>2013-07-12T16:11:40Z</time>
      </trkpt>
      <trkpt lat="47.0836" lon="5.47929">
        <ele>233</ele>
        <time>2013-07-12T16:11:43Z</time>
      </trkpt>
      <trkpt lat="47.08353" lon="5.47918">
        <ele>233</ele>
        <time>2013-07-12T16:11:46Z</time>
      </trkpt>
      <trkpt lat="47.08347" lon="5.47908">
        <ele>233</ele>
        <time>2013-07-12T16:11:49Z</time>
      </trkpt>
      <trkpt lat="47.08343" lon="5.47894">
        <ele>233</ele>
        <time>2013-07-12T16:11:54Z</time>
      </trkpt>
      <trkpt lat="47.08351" lon="5.47883">
        <ele>233</ele>
        <time>2013-07-12T16:11:58Z</time>
      </trkpt>
      <trkpt lat="47.08359" lon="5.47873">
        <ele>242</ele>
        <time>2013-07-12T16:12:04Z</time>
      </trkpt>
      <trkpt lat="47.08363" lon="5.47861">
        <ele>242</ele>
        <time>2013-07-12T16:12:08Z</time>
      </trkpt>
      <trkpt lat="47.08371" lon="5.47854">
        <ele>242</ele>
        <time>2013-07-12T16:12:13Z</time>
      </trkpt>
      <trkpt lat="47.08379" lon="5.47845">
        <ele>242</ele>
        <time>2013-07-12T16:12:17Z</time>
      </trkpt>
      <trkpt lat="47.08386" lon="5.47835">
        <ele>248</ele>
        <time>2013-07-12T16:12:21Z</time>
      </trkpt>
      <trkpt lat="47.08393" lon="5.47826">
        <ele>248</ele>
        <time>2013-07-12T16:12:25Z</time>
      </trkpt>
      <trkpt lat="47.084" lon="5.47818">
        <ele>248</ele>
        <time>2013-07-12T16:12:29Z</time>
      </trkpt>
      <trkpt lat="47.08408" lon="5.47808">
        <ele>248</ele>
        <time>2013-07-12T16:12:33Z</time>
      </trkpt>
      <trkpt lat="47.08419" lon="5.47802">
        <ele>248</ele>
        <time>2013-07-12T16:12:37Z</time>
      </trkpt>
      <trkpt lat="47.08427" lon="5.47792">
        <ele>248</ele>
        <time>2013-07-12T16:12:41Z</time>
      </trkpt>
      <trkpt lat="47.08433" lon="5.47779">
        <ele>248</ele>
        <time>2013-07-12T16:12:45Z</time>
      </trkpt>
      <trkpt lat="47.08442" lon="5.47768">
        <ele>248</ele>
        <time>2013-07-12T16:12:49Z</time>
      </trkpt>
      <trkpt lat="47.0845" lon="5.47759">
        <ele>254</ele>
        <time>2013-07-12T16:12:53Z</time>
      </trkpt>
    </trkseg>
  </trk>
</gpx>